<?xml version="1.0" encoding="UTF-8" standalone="no" ?>
<gpx xmlns="http://www.topografix.com/GPX/1/1" xmlns:xsi="http://www.w3.org/2001/XMLSchema-instance" xsi:schemaLocation="http://www.topografix.com/GPX/1/1 http://www.topografix.com/GPX/1/1/gpx.xsd" version="1.1" creator="VisuGPX - https://www.visugpx.com">
  <metadata>
    <name>Nans sous sainte anne</name>
  </metadata>
  <trk>
    <name><![CDATA[Move]]></name>
    <trkseg>
      <trkpt lat="46.97567" lon="5.99612">
        <ele>383.39999389648</ele>
        <time>2020-05-24T12:05:58.000Z</time>
      </trkpt>
      <trkpt lat="46.97568" lon="5.99604">
        <ele>380</ele>
        <time>2020-05-24T12:06:02.000Z</time>
      </trkpt>
      <trkpt lat="46.97569" lon="5.996">
        <ele>380.16</ele>
        <time>2020-05-24T12:06:04.000Z</time>
      </trkpt>
      <trkpt lat="46.97569" lon="5.99597">
        <ele>381</ele>
        <time>2020-05-24T12:06:06.000Z</time>
      </trkpt>
      <trkpt lat="46.9757" lon="5.99594">
        <ele>381</ele>
        <time>2020-05-24T12:06:08.000Z</time>
      </trkpt>
      <trkpt lat="46.97571" lon="5.99591">
        <ele>381</ele>
        <time>2020-05-24T12:06:10.000Z</time>
      </trkpt>
      <trkpt lat="46.9757" lon="5.99588">
        <ele>381</ele>
        <time>2020-05-24T12:06:13.000Z</time>
      </trkpt>
      <trkpt lat="46.97569" lon="5.99584">
        <ele>381</ele>
        <time>2020-05-24T12:06:15.000Z</time>
      </trkpt>
      <trkpt lat="46.97569" lon="5.99581">
        <ele>381</ele>
        <time>2020-05-24T12:06:17.000Z</time>
      </trkpt>
      <trkpt lat="46.97569" lon="5.99578">
        <ele>381</ele>
        <time>2020-05-24T12:06:19.000Z</time>
      </trkpt>
      <trkpt lat="46.97567" lon="5.99574">
        <ele>381</ele>
        <time>2020-05-24T12:06:21.000Z</time>
      </trkpt>
      <trkpt lat="46.97567" lon="5.99572">
        <ele>381</ele>
        <time>2020-05-24T12:06:23.000Z</time>
      </trkpt>
      <trkpt lat="46.97566" lon="5.99568">
        <ele>381</ele>
        <time>2020-05-24T12:06:25.000Z</time>
      </trkpt>
      <trkpt lat="46.97565" lon="5.99565">
        <ele>381</ele>
        <time>2020-05-24T12:06:27.000Z</time>
      </trkpt>
      <trkpt lat="46.97564" lon="5.99561">
        <ele>381</ele>
        <time>2020-05-24T12:06:29.000Z</time>
      </trkpt>
      <trkpt lat="46.97564" lon="5.99558">
        <ele>381</ele>
        <time>2020-05-24T12:06:31.000Z</time>
      </trkpt>
      <trkpt lat="46.97563" lon="5.99554">
        <ele>381</ele>
        <time>2020-05-24T12:06:33.000Z</time>
      </trkpt>
      <trkpt lat="46.97562" lon="5.99551">
        <ele>381</ele>
        <time>2020-05-24T12:06:35.000Z</time>
      </trkpt>
      <trkpt lat="46.97561" lon="5.99547">
        <ele>381</ele>
        <time>2020-05-24T12:06:37.000Z</time>
      </trkpt>
      <trkpt lat="46.97561" lon="5.99543">
        <ele>381</ele>
        <time>2020-05-24T12:06:39.000Z</time>
      </trkpt>
      <trkpt lat="46.9756" lon="5.9954">
        <ele>381</ele>
        <time>2020-05-24T12:06:41.000Z</time>
      </trkpt>
      <trkpt lat="46.97559" lon="5.99536">
        <ele>381</ele>
        <time>2020-05-24T12:06:43.000Z</time>
      </trkpt>
      <trkpt lat="46.97558" lon="5.99533">
        <ele>381</ele>
        <time>2020-05-24T12:06:45.000Z</time>
      </trkpt>
      <trkpt lat="46.97558" lon="5.99529">
        <ele>381</ele>
        <time>2020-05-24T12:06:47.000Z</time>
      </trkpt>
      <trkpt lat="46.97557" lon="5.99526">
        <ele>381</ele>
        <time>2020-05-24T12:06:49.000Z</time>
      </trkpt>
      <trkpt lat="46.97557" lon="5.99523">
        <ele>381</ele>
        <time>2020-05-24T12:06:51.000Z</time>
      </trkpt>
      <trkpt lat="46.97556" lon="5.99519">
        <ele>381</ele>
        <time>2020-05-24T12:06:53.000Z</time>
      </trkpt>
      <trkpt lat="46.97556" lon="5.99515">
        <ele>381</ele>
        <time>2020-05-24T12:06:55.000Z</time>
      </trkpt>
      <trkpt lat="46.97556" lon="5.99512">
        <ele>381</ele>
        <time>2020-05-24T12:06:57.000Z</time>
      </trkpt>
      <trkpt lat="46.97555" lon="5.99508">
        <ele>381</ele>
        <time>2020-05-24T12:06:59.000Z</time>
      </trkpt>
      <trkpt lat="46.97555" lon="5.99504">
        <ele>381</ele>
        <time>2020-05-24T12:07:01.000Z</time>
      </trkpt>
      <trkpt lat="46.97554" lon="5.99501">
        <ele>381</ele>
        <time>2020-05-24T12:07:03.000Z</time>
      </trkpt>
      <trkpt lat="46.97552" lon="5.99495">
        <ele>381</ele>
        <time>2020-05-24T12:07:06.000Z</time>
      </trkpt>
      <trkpt lat="46.97554" lon="5.99492">
        <ele>381</ele>
        <time>2020-05-24T12:07:08.000Z</time>
      </trkpt>
      <trkpt lat="46.97555" lon="5.9949">
        <ele>381</ele>
        <time>2020-05-24T12:07:10.000Z</time>
      </trkpt>
      <trkpt lat="46.97555" lon="5.99487">
        <ele>381</ele>
        <time>2020-05-24T12:07:19.000Z</time>
      </trkpt>
      <trkpt lat="46.97555" lon="5.99484">
        <ele>381</ele>
        <time>2020-05-24T12:07:22.000Z</time>
      </trkpt>
      <trkpt lat="46.97554" lon="5.99481">
        <ele>381</ele>
        <time>2020-05-24T12:07:24.000Z</time>
      </trkpt>
      <trkpt lat="46.97553" lon="5.99479">
        <ele>381</ele>
        <time>2020-05-24T12:07:26.000Z</time>
      </trkpt>
      <trkpt lat="46.97552" lon="5.99476">
        <ele>382</ele>
        <time>2020-05-24T12:07:28.000Z</time>
      </trkpt>
      <trkpt lat="46.97551" lon="5.99473">
        <ele>382</ele>
        <time>2020-05-24T12:07:31.000Z</time>
      </trkpt>
      <trkpt lat="46.9755" lon="5.9947">
        <ele>383</ele>
        <time>2020-05-24T12:07:34.000Z</time>
      </trkpt>
      <trkpt lat="46.97549" lon="5.99466">
        <ele>383</ele>
        <time>2020-05-24T12:07:36.000Z</time>
      </trkpt>
      <trkpt lat="46.97548" lon="5.99463">
        <ele>384</ele>
        <time>2020-05-24T12:07:41.000Z</time>
      </trkpt>
      <trkpt lat="46.97548" lon="5.9946">
        <ele>384</ele>
        <time>2020-05-24T12:07:43.000Z</time>
      </trkpt>
      <trkpt lat="46.97547" lon="5.99457">
        <ele>384</ele>
        <time>2020-05-24T12:07:45.000Z</time>
      </trkpt>
      <trkpt lat="46.97544" lon="5.99448">
        <ele>384</ele>
        <time>2020-05-24T12:07:50.000Z</time>
      </trkpt>
      <trkpt lat="46.97542" lon="5.99444">
        <ele>384</ele>
        <time>2020-05-24T12:07:52.000Z</time>
      </trkpt>
      <trkpt lat="46.97542" lon="5.99441">
        <ele>384</ele>
        <time>2020-05-24T12:07:54.000Z</time>
      </trkpt>
      <trkpt lat="46.97541" lon="5.99438">
        <ele>385</ele>
        <time>2020-05-24T12:07:57.000Z</time>
      </trkpt>
      <trkpt lat="46.9754" lon="5.99435">
        <ele>386</ele>
        <time>2020-05-24T12:07:59.000Z</time>
      </trkpt>
      <trkpt lat="46.97539" lon="5.99432">
        <ele>386</ele>
        <time>2020-05-24T12:08:01.000Z</time>
      </trkpt>
      <trkpt lat="46.97538" lon="5.99429">
        <ele>386</ele>
        <time>2020-05-24T12:08:03.000Z</time>
      </trkpt>
      <trkpt lat="46.97535" lon="5.99426">
        <ele>386</ele>
        <time>2020-05-24T12:08:05.000Z</time>
      </trkpt>
      <trkpt lat="46.97533" lon="5.99423">
        <ele>387</ele>
        <time>2020-05-24T12:08:07.000Z</time>
      </trkpt>
      <trkpt lat="46.97531" lon="5.99419">
        <ele>387</ele>
        <time>2020-05-24T12:08:09.000Z</time>
      </trkpt>
      <trkpt lat="46.9753" lon="5.99417">
        <ele>387</ele>
        <time>2020-05-24T12:08:11.000Z</time>
      </trkpt>
      <trkpt lat="46.97528" lon="5.99414">
        <ele>387</ele>
        <time>2020-05-24T12:08:13.000Z</time>
      </trkpt>
      <trkpt lat="46.97527" lon="5.99411">
        <ele>387</ele>
        <time>2020-05-24T12:08:15.000Z</time>
      </trkpt>
      <trkpt lat="46.97526" lon="5.99409">
        <ele>388</ele>
        <time>2020-05-24T12:08:17.000Z</time>
      </trkpt>
      <trkpt lat="46.97525" lon="5.99406">
        <ele>388</ele>
        <time>2020-05-24T12:08:19.000Z</time>
      </trkpt>
      <trkpt lat="46.97523" lon="5.99403">
        <ele>388</ele>
        <time>2020-05-24T12:08:22.000Z</time>
      </trkpt>
      <trkpt lat="46.97522" lon="5.994">
        <ele>388</ele>
        <time>2020-05-24T12:08:24.000Z</time>
      </trkpt>
      <trkpt lat="46.9752" lon="5.99398">
        <ele>388</ele>
        <time>2020-05-24T12:08:26.000Z</time>
      </trkpt>
      <trkpt lat="46.97519" lon="5.99395">
        <ele>388</ele>
        <time>2020-05-24T12:08:28.000Z</time>
      </trkpt>
      <trkpt lat="46.97518" lon="5.99393">
        <ele>388</ele>
        <time>2020-05-24T12:08:30.000Z</time>
      </trkpt>
      <trkpt lat="46.97516" lon="5.9939">
        <ele>388</ele>
        <time>2020-05-24T12:08:32.000Z</time>
      </trkpt>
      <trkpt lat="46.97515" lon="5.99387">
        <ele>388</ele>
        <time>2020-05-24T12:08:34.000Z</time>
      </trkpt>
      <trkpt lat="46.97513" lon="5.99384">
        <ele>388</ele>
        <time>2020-05-24T12:08:37.000Z</time>
      </trkpt>
      <trkpt lat="46.97512" lon="5.99382">
        <ele>388.16</ele>
        <time>2020-05-24T12:08:39.000Z</time>
      </trkpt>
      <trkpt lat="46.97511" lon="5.99379">
        <ele>389</ele>
        <time>2020-05-24T12:08:41.000Z</time>
      </trkpt>
      <trkpt lat="46.9751" lon="5.99377">
        <ele>389</ele>
        <time>2020-05-24T12:08:43.000Z</time>
      </trkpt>
      <trkpt lat="46.97509" lon="5.99374">
        <ele>389</ele>
        <time>2020-05-24T12:08:45.000Z</time>
      </trkpt>
      <trkpt lat="46.97508" lon="5.99372">
        <ele>389.04545454546</ele>
        <time>2020-05-24T12:08:47.000Z</time>
      </trkpt>
      <trkpt lat="46.97507" lon="5.99369">
        <ele>390</ele>
        <time>2020-05-24T12:08:49.000Z</time>
      </trkpt>
      <trkpt lat="46.97506" lon="5.99366">
        <ele>389</ele>
        <time>2020-05-24T12:08:51.000Z</time>
      </trkpt>
      <trkpt lat="46.97504" lon="5.99364">
        <ele>389</ele>
        <time>2020-05-24T12:08:53.000Z</time>
      </trkpt>
      <trkpt lat="46.97503" lon="5.99361">
        <ele>389</ele>
        <time>2020-05-24T12:08:55.000Z</time>
      </trkpt>
      <trkpt lat="46.97502" lon="5.99358">
        <ele>389</ele>
        <time>2020-05-24T12:08:57.000Z</time>
      </trkpt>
      <trkpt lat="46.97501" lon="5.99355">
        <ele>390</ele>
        <time>2020-05-24T12:08:59.000Z</time>
      </trkpt>
      <trkpt lat="46.975" lon="5.99351">
        <ele>390</ele>
        <time>2020-05-24T12:09:01.000Z</time>
      </trkpt>
      <trkpt lat="46.97499" lon="5.99348">
        <ele>390</ele>
        <time>2020-05-24T12:09:03.000Z</time>
      </trkpt>
      <trkpt lat="46.97498" lon="5.99346">
        <ele>391</ele>
        <time>2020-05-24T12:09:05.000Z</time>
      </trkpt>
      <trkpt lat="46.97497" lon="5.99343">
        <ele>390.96581187231</ele>
        <time>2020-05-24T12:09:07.000Z</time>
      </trkpt>
      <trkpt lat="46.97496" lon="5.99339">
        <ele>390</ele>
        <time>2020-05-24T12:09:09.000Z</time>
      </trkpt>
      <trkpt lat="46.97495" lon="5.99336">
        <ele>390</ele>
        <time>2020-05-24T12:09:11.000Z</time>
      </trkpt>
      <trkpt lat="46.97495" lon="5.99334">
        <ele>391</ele>
        <time>2020-05-24T12:09:13.000Z</time>
      </trkpt>
      <trkpt lat="46.97494" lon="5.99331">
        <ele>391</ele>
        <time>2020-05-24T12:09:15.000Z</time>
      </trkpt>
      <trkpt lat="46.97493" lon="5.99328">
        <ele>391</ele>
        <time>2020-05-24T12:09:18.000Z</time>
      </trkpt>
      <trkpt lat="46.97493" lon="5.99325">
        <ele>391</ele>
        <time>2020-05-24T12:09:20.000Z</time>
      </trkpt>
      <trkpt lat="46.97492" lon="5.99322">
        <ele>391</ele>
        <time>2020-05-24T12:09:22.000Z</time>
      </trkpt>
      <trkpt lat="46.97491" lon="5.99319">
        <ele>392.14159332133</ele>
        <time>2020-05-24T12:09:24.000Z</time>
      </trkpt>
      <trkpt lat="46.9749" lon="5.99315">
        <ele>393</ele>
        <time>2020-05-24T12:09:26.000Z</time>
      </trkpt>
      <trkpt lat="46.97489" lon="5.99313">
        <ele>393</ele>
        <time>2020-05-24T12:09:27.000Z</time>
      </trkpt>
      <trkpt lat="46.97488" lon="5.99309">
        <ele>393</ele>
        <time>2020-05-24T12:09:29.000Z</time>
      </trkpt>
      <trkpt lat="46.97488" lon="5.99305">
        <ele>393</ele>
        <time>2020-05-24T12:09:32.000Z</time>
      </trkpt>
      <trkpt lat="46.97487" lon="5.99302">
        <ele>393</ele>
        <time>2020-05-24T12:09:34.000Z</time>
      </trkpt>
      <trkpt lat="46.97486" lon="5.99299">
        <ele>393</ele>
        <time>2020-05-24T12:09:36.000Z</time>
      </trkpt>
      <trkpt lat="46.97485" lon="5.99296">
        <ele>393</ele>
        <time>2020-05-24T12:09:38.000Z</time>
      </trkpt>
      <trkpt lat="46.97484" lon="5.99294">
        <ele>394</ele>
        <time>2020-05-24T12:09:40.000Z</time>
      </trkpt>
      <trkpt lat="46.97483" lon="5.99291">
        <ele>394</ele>
        <time>2020-05-24T12:09:42.000Z</time>
      </trkpt>
      <trkpt lat="46.97482" lon="5.99288">
        <ele>394</ele>
        <time>2020-05-24T12:09:44.000Z</time>
      </trkpt>
      <trkpt lat="46.97481" lon="5.99286">
        <ele>394</ele>
        <time>2020-05-24T12:09:46.000Z</time>
      </trkpt>
      <trkpt lat="46.9748" lon="5.99283">
        <ele>394</ele>
        <time>2020-05-24T12:09:48.000Z</time>
      </trkpt>
      <trkpt lat="46.97479" lon="5.99281">
        <ele>395</ele>
        <time>2020-05-24T12:09:50.000Z</time>
      </trkpt>
      <trkpt lat="46.97478" lon="5.99278">
        <ele>396</ele>
        <time>2020-05-24T12:09:52.000Z</time>
      </trkpt>
      <trkpt lat="46.97477" lon="5.99276">
        <ele>396</ele>
        <time>2020-05-24T12:09:54.000Z</time>
      </trkpt>
      <trkpt lat="46.97476" lon="5.99273">
        <ele>396</ele>
        <time>2020-05-24T12:09:56.000Z</time>
      </trkpt>
      <trkpt lat="46.97475" lon="5.9927">
        <ele>396</ele>
        <time>2020-05-24T12:09:58.000Z</time>
      </trkpt>
      <trkpt lat="46.97474" lon="5.99268">
        <ele>396</ele>
        <time>2020-05-24T12:10:00.000Z</time>
      </trkpt>
      <trkpt lat="46.97474" lon="5.99265">
        <ele>396</ele>
        <time>2020-05-24T12:10:02.000Z</time>
      </trkpt>
      <trkpt lat="46.97473" lon="5.99262">
        <ele>396.96666666667</ele>
        <time>2020-05-24T12:10:04.000Z</time>
      </trkpt>
      <trkpt lat="46.97472" lon="5.99259">
        <ele>397</ele>
        <time>2020-05-24T12:10:06.000Z</time>
      </trkpt>
      <trkpt lat="46.97471" lon="5.99257">
        <ele>397</ele>
        <time>2020-05-24T12:10:08.000Z</time>
      </trkpt>
      <trkpt lat="46.9747" lon="5.99254">
        <ele>398</ele>
        <time>2020-05-24T12:10:10.000Z</time>
      </trkpt>
      <trkpt lat="46.97469" lon="5.99251">
        <ele>398</ele>
        <time>2020-05-24T12:10:12.000Z</time>
      </trkpt>
      <trkpt lat="46.97468" lon="5.99249">
        <ele>398.03452593127</ele>
        <time>2020-05-24T12:10:14.000Z</time>
      </trkpt>
      <trkpt lat="46.97467" lon="5.99245">
        <ele>399</ele>
        <time>2020-05-24T12:10:17.000Z</time>
      </trkpt>
      <trkpt lat="46.97466" lon="5.99242">
        <ele>399</ele>
        <time>2020-05-24T12:10:19.000Z</time>
      </trkpt>
      <trkpt lat="46.97465" lon="5.9924">
        <ele>399</ele>
        <time>2020-05-24T12:10:21.000Z</time>
      </trkpt>
      <trkpt lat="46.97464" lon="5.99237">
        <ele>400</ele>
        <time>2020-05-24T12:10:23.000Z</time>
      </trkpt>
      <trkpt lat="46.97463" lon="5.99235">
        <ele>400</ele>
        <time>2020-05-24T12:10:25.000Z</time>
      </trkpt>
      <trkpt lat="46.97462" lon="5.99232">
        <ele>400</ele>
        <time>2020-05-24T12:10:27.000Z</time>
      </trkpt>
      <trkpt lat="46.97461" lon="5.99229">
        <ele>400</ele>
        <time>2020-05-24T12:10:29.000Z</time>
      </trkpt>
      <trkpt lat="46.9746" lon="5.99225">
        <ele>400</ele>
        <time>2020-05-24T12:10:32.000Z</time>
      </trkpt>
      <trkpt lat="46.97459" lon="5.99223">
        <ele>400</ele>
        <time>2020-05-24T12:10:34.000Z</time>
      </trkpt>
      <trkpt lat="46.97458" lon="5.9922">
        <ele>400</ele>
        <time>2020-05-24T12:10:36.000Z</time>
      </trkpt>
      <trkpt lat="46.97457" lon="5.99218">
        <ele>400.11579245207</ele>
        <time>2020-05-24T12:10:38.000Z</time>
      </trkpt>
      <trkpt lat="46.97456" lon="5.99215">
        <ele>401</ele>
        <time>2020-05-24T12:10:40.000Z</time>
      </trkpt>
      <trkpt lat="46.97455" lon="5.99212">
        <ele>401.07376825583</ele>
        <time>2020-05-24T12:10:42.000Z</time>
      </trkpt>
      <trkpt lat="46.97454" lon="5.99209">
        <ele>402</ele>
        <time>2020-05-24T12:10:44.000Z</time>
      </trkpt>
      <trkpt lat="46.97453" lon="5.99206">
        <ele>402</ele>
        <time>2020-05-24T12:10:46.000Z</time>
      </trkpt>
      <trkpt lat="46.97452" lon="5.99204">
        <ele>402</ele>
        <time>2020-05-24T12:10:48.000Z</time>
      </trkpt>
      <trkpt lat="46.97451" lon="5.99201">
        <ele>402</ele>
        <time>2020-05-24T12:10:50.000Z</time>
      </trkpt>
      <trkpt lat="46.9745" lon="5.99198">
        <ele>402</ele>
        <time>2020-05-24T12:10:52.000Z</time>
      </trkpt>
      <trkpt lat="46.97449" lon="5.99195">
        <ele>403</ele>
        <time>2020-05-24T12:10:54.000Z</time>
      </trkpt>
      <trkpt lat="46.97448" lon="5.99192">
        <ele>403</ele>
        <time>2020-05-24T12:10:56.000Z</time>
      </trkpt>
      <trkpt lat="46.97447" lon="5.99189">
        <ele>403</ele>
        <time>2020-05-24T12:10:58.000Z</time>
      </trkpt>
      <trkpt lat="46.97446" lon="5.99186">
        <ele>403</ele>
        <time>2020-05-24T12:11:00.000Z</time>
      </trkpt>
      <trkpt lat="46.97445" lon="5.99183">
        <ele>403</ele>
        <time>2020-05-24T12:11:02.000Z</time>
      </trkpt>
      <trkpt lat="46.97445" lon="5.99181">
        <ele>403.10637689448</ele>
        <time>2020-05-24T12:11:04.000Z</time>
      </trkpt>
      <trkpt lat="46.97444" lon="5.99178">
        <ele>404</ele>
        <time>2020-05-24T12:11:06.000Z</time>
      </trkpt>
      <trkpt lat="46.97442" lon="5.99175">
        <ele>404</ele>
        <time>2020-05-24T12:11:08.000Z</time>
      </trkpt>
      <trkpt lat="46.97441" lon="5.99172">
        <ele>405</ele>
        <time>2020-05-24T12:11:10.000Z</time>
      </trkpt>
      <trkpt lat="46.9744" lon="5.99169">
        <ele>405</ele>
        <time>2020-05-24T12:11:12.000Z</time>
      </trkpt>
      <trkpt lat="46.97439" lon="5.99166">
        <ele>405</ele>
        <time>2020-05-24T12:11:14.000Z</time>
      </trkpt>
      <trkpt lat="46.97438" lon="5.99163">
        <ele>405</ele>
        <time>2020-05-24T12:11:16.000Z</time>
      </trkpt>
      <trkpt lat="46.97437" lon="5.9916">
        <ele>405</ele>
        <time>2020-05-24T12:11:18.000Z</time>
      </trkpt>
      <trkpt lat="46.97437" lon="5.99157">
        <ele>405</ele>
        <time>2020-05-24T12:11:20.000Z</time>
      </trkpt>
      <trkpt lat="46.97436" lon="5.99154">
        <ele>405</ele>
        <time>2020-05-24T12:11:22.000Z</time>
      </trkpt>
      <trkpt lat="46.97435" lon="5.99151">
        <ele>404.84</ele>
        <time>2020-05-24T12:11:24.000Z</time>
      </trkpt>
      <trkpt lat="46.97434" lon="5.99148">
        <ele>404</ele>
        <time>2020-05-24T12:11:26.000Z</time>
      </trkpt>
      <trkpt lat="46.97434" lon="5.99145">
        <ele>405</ele>
        <time>2020-05-24T12:11:28.000Z</time>
      </trkpt>
      <trkpt lat="46.97433" lon="5.99142">
        <ele>405</ele>
        <time>2020-05-24T12:11:30.000Z</time>
      </trkpt>
      <trkpt lat="46.97432" lon="5.99139">
        <ele>405</ele>
        <time>2020-05-24T12:11:32.000Z</time>
      </trkpt>
      <trkpt lat="46.97431" lon="5.99136">
        <ele>405</ele>
        <time>2020-05-24T12:11:34.000Z</time>
      </trkpt>
      <trkpt lat="46.9743" lon="5.99133">
        <ele>405</ele>
        <time>2020-05-24T12:11:36.000Z</time>
      </trkpt>
      <trkpt lat="46.97429" lon="5.9913">
        <ele>405</ele>
        <time>2020-05-24T12:11:38.000Z</time>
      </trkpt>
      <trkpt lat="46.97428" lon="5.99127">
        <ele>405</ele>
        <time>2020-05-24T12:11:40.000Z</time>
      </trkpt>
      <trkpt lat="46.97428" lon="5.99123">
        <ele>405</ele>
        <time>2020-05-24T12:11:42.000Z</time>
      </trkpt>
      <trkpt lat="46.97427" lon="5.9912">
        <ele>405</ele>
        <time>2020-05-24T12:11:44.000Z</time>
      </trkpt>
      <trkpt lat="46.97427" lon="5.99117">
        <ele>405</ele>
        <time>2020-05-24T12:11:46.000Z</time>
      </trkpt>
      <trkpt lat="46.97426" lon="5.99114">
        <ele>405</ele>
        <time>2020-05-24T12:11:48.000Z</time>
      </trkpt>
      <trkpt lat="46.97425" lon="5.9911">
        <ele>405</ele>
        <time>2020-05-24T12:11:50.000Z</time>
      </trkpt>
      <trkpt lat="46.97424" lon="5.99106">
        <ele>405</ele>
        <time>2020-05-24T12:11:52.000Z</time>
      </trkpt>
      <trkpt lat="46.97424" lon="5.99103">
        <ele>406</ele>
        <time>2020-05-24T12:11:54.000Z</time>
      </trkpt>
      <trkpt lat="46.97424" lon="5.99099">
        <ele>406</ele>
        <time>2020-05-24T12:11:56.000Z</time>
      </trkpt>
      <trkpt lat="46.97423" lon="5.99096">
        <ele>406</ele>
        <time>2020-05-24T12:11:58.000Z</time>
      </trkpt>
      <trkpt lat="46.97422" lon="5.99093">
        <ele>406</ele>
        <time>2020-05-24T12:12:00.000Z</time>
      </trkpt>
      <trkpt lat="46.97422" lon="5.99089">
        <ele>406</ele>
        <time>2020-05-24T12:12:02.000Z</time>
      </trkpt>
      <trkpt lat="46.97421" lon="5.99086">
        <ele>406</ele>
        <time>2020-05-24T12:12:04.000Z</time>
      </trkpt>
      <trkpt lat="46.9742" lon="5.99083">
        <ele>406</ele>
        <time>2020-05-24T12:12:06.000Z</time>
      </trkpt>
      <trkpt lat="46.97419" lon="5.9908">
        <ele>406</ele>
        <time>2020-05-24T12:12:08.000Z</time>
      </trkpt>
      <trkpt lat="46.97418" lon="5.99077">
        <ele>406</ele>
        <time>2020-05-24T12:12:10.000Z</time>
      </trkpt>
      <trkpt lat="46.97418" lon="5.99074">
        <ele>406</ele>
        <time>2020-05-24T12:12:12.000Z</time>
      </trkpt>
      <trkpt lat="46.97418" lon="5.99071">
        <ele>406</ele>
        <time>2020-05-24T12:12:15.000Z</time>
      </trkpt>
      <trkpt lat="46.97417" lon="5.99067">
        <ele>406.87878787879</ele>
        <time>2020-05-24T12:12:18.000Z</time>
      </trkpt>
      <trkpt lat="46.97415" lon="5.9906">
        <ele>407</ele>
        <time>2020-05-24T12:12:21.000Z</time>
      </trkpt>
      <trkpt lat="46.97414" lon="5.99056">
        <ele>408</ele>
        <time>2020-05-24T12:12:23.000Z</time>
      </trkpt>
      <trkpt lat="46.97413" lon="5.99053">
        <ele>408</ele>
        <time>2020-05-24T12:12:25.000Z</time>
      </trkpt>
      <trkpt lat="46.97413" lon="5.9905">
        <ele>408</ele>
        <time>2020-05-24T12:12:32.000Z</time>
      </trkpt>
      <trkpt lat="46.97413" lon="5.99046">
        <ele>408.16</ele>
        <time>2020-05-24T12:12:34.000Z</time>
      </trkpt>
      <trkpt lat="46.97413" lon="5.99043">
        <ele>409</ele>
        <time>2020-05-24T12:12:36.000Z</time>
      </trkpt>
      <trkpt lat="46.97413" lon="5.99039">
        <ele>409</ele>
        <time>2020-05-24T12:12:38.000Z</time>
      </trkpt>
      <trkpt lat="46.97412" lon="5.99036">
        <ele>409</ele>
        <time>2020-05-24T12:12:40.000Z</time>
      </trkpt>
      <trkpt lat="46.97412" lon="5.99033">
        <ele>409</ele>
        <time>2020-05-24T12:12:42.000Z</time>
      </trkpt>
      <trkpt lat="46.97412" lon="5.99029">
        <ele>409</ele>
        <time>2020-05-24T12:12:44.000Z</time>
      </trkpt>
      <trkpt lat="46.97411" lon="5.99026">
        <ele>409</ele>
        <time>2020-05-24T12:12:46.000Z</time>
      </trkpt>
      <trkpt lat="46.97411" lon="5.99022">
        <ele>410</ele>
        <time>2020-05-24T12:12:48.000Z</time>
      </trkpt>
      <trkpt lat="46.9741" lon="5.99019">
        <ele>410</ele>
        <time>2020-05-24T12:12:50.000Z</time>
      </trkpt>
      <trkpt lat="46.9741" lon="5.99015">
        <ele>410.14545369918</ele>
        <time>2020-05-24T12:12:52.000Z</time>
      </trkpt>
      <trkpt lat="46.9741" lon="5.99012">
        <ele>411</ele>
        <time>2020-05-24T12:12:54.000Z</time>
      </trkpt>
      <trkpt lat="46.9741" lon="5.99008">
        <ele>411</ele>
        <time>2020-05-24T12:12:56.000Z</time>
      </trkpt>
      <trkpt lat="46.9741" lon="5.99005">
        <ele>411</ele>
        <time>2020-05-24T12:12:58.000Z</time>
      </trkpt>
      <trkpt lat="46.9741" lon="5.99002">
        <ele>411</ele>
        <time>2020-05-24T12:13:00.000Z</time>
      </trkpt>
      <trkpt lat="46.9741" lon="5.98999">
        <ele>411</ele>
        <time>2020-05-24T12:13:02.000Z</time>
      </trkpt>
      <trkpt lat="46.9741" lon="5.98995">
        <ele>411</ele>
        <time>2020-05-24T12:13:04.000Z</time>
      </trkpt>
      <trkpt lat="46.97409" lon="5.98992">
        <ele>411</ele>
        <time>2020-05-24T12:13:06.000Z</time>
      </trkpt>
      <trkpt lat="46.97409" lon="5.98988">
        <ele>411</ele>
        <time>2020-05-24T12:13:08.000Z</time>
      </trkpt>
      <trkpt lat="46.97409" lon="5.98985">
        <ele>411.15533932322</ele>
        <time>2020-05-24T12:13:10.000Z</time>
      </trkpt>
      <trkpt lat="46.97408" lon="5.98981">
        <ele>412</ele>
        <time>2020-05-24T12:13:12.000Z</time>
      </trkpt>
      <trkpt lat="46.97407" lon="5.98978">
        <ele>412</ele>
        <time>2020-05-24T12:13:14.000Z</time>
      </trkpt>
      <trkpt lat="46.97407" lon="5.98974">
        <ele>412</ele>
        <time>2020-05-24T12:13:16.000Z</time>
      </trkpt>
      <trkpt lat="46.97407" lon="5.98971">
        <ele>412</ele>
        <time>2020-05-24T12:13:18.000Z</time>
      </trkpt>
      <trkpt lat="46.97406" lon="5.98967">
        <ele>412</ele>
        <time>2020-05-24T12:13:20.000Z</time>
      </trkpt>
      <trkpt lat="46.97406" lon="5.98964">
        <ele>412</ele>
        <time>2020-05-24T12:13:22.000Z</time>
      </trkpt>
      <trkpt lat="46.97405" lon="5.98961">
        <ele>412</ele>
        <time>2020-05-24T12:13:24.000Z</time>
      </trkpt>
      <trkpt lat="46.97405" lon="5.98959">
        <ele>412</ele>
        <time>2020-05-24T12:13:26.000Z</time>
      </trkpt>
      <trkpt lat="46.97404" lon="5.98955">
        <ele>411.84313823913</ele>
        <time>2020-05-24T12:13:28.000Z</time>
      </trkpt>
      <trkpt lat="46.97403" lon="5.98952">
        <ele>411</ele>
        <time>2020-05-24T12:13:30.000Z</time>
      </trkpt>
      <trkpt lat="46.97403" lon="5.98948">
        <ele>411.16</ele>
        <time>2020-05-24T12:13:32.000Z</time>
      </trkpt>
      <trkpt lat="46.97403" lon="5.98944">
        <ele>412</ele>
        <time>2020-05-24T12:13:34.000Z</time>
      </trkpt>
      <trkpt lat="46.97402" lon="5.98941">
        <ele>412</ele>
        <time>2020-05-24T12:13:36.000Z</time>
      </trkpt>
      <trkpt lat="46.97401" lon="5.98937">
        <ele>412</ele>
        <time>2020-05-24T12:13:38.000Z</time>
      </trkpt>
      <trkpt lat="46.97401" lon="5.98933">
        <ele>412</ele>
        <time>2020-05-24T12:13:40.000Z</time>
      </trkpt>
      <trkpt lat="46.974" lon="5.9893">
        <ele>413</ele>
        <time>2020-05-24T12:13:42.000Z</time>
      </trkpt>
      <trkpt lat="46.97399" lon="5.98926">
        <ele>413</ele>
        <time>2020-05-24T12:13:44.000Z</time>
      </trkpt>
      <trkpt lat="46.97398" lon="5.98922">
        <ele>412</ele>
        <time>2020-05-24T12:13:46.000Z</time>
      </trkpt>
      <trkpt lat="46.97396" lon="5.98919">
        <ele>412</ele>
        <time>2020-05-24T12:13:48.000Z</time>
      </trkpt>
      <trkpt lat="46.97395" lon="5.98916">
        <ele>412</ele>
        <time>2020-05-24T12:13:50.000Z</time>
      </trkpt>
      <trkpt lat="46.97394" lon="5.98912">
        <ele>412</ele>
        <time>2020-05-24T12:13:52.000Z</time>
      </trkpt>
      <trkpt lat="46.97394" lon="5.98907">
        <ele>412</ele>
        <time>2020-05-24T12:13:54.000Z</time>
      </trkpt>
      <trkpt lat="46.97391" lon="5.98904">
        <ele>412</ele>
        <time>2020-05-24T12:13:56.000Z</time>
      </trkpt>
      <trkpt lat="46.9739" lon="5.989">
        <ele>412</ele>
        <time>2020-05-24T12:13:58.000Z</time>
      </trkpt>
      <trkpt lat="46.97389" lon="5.98897">
        <ele>412</ele>
        <time>2020-05-24T12:14:00.000Z</time>
      </trkpt>
      <trkpt lat="46.97388" lon="5.98894">
        <ele>412</ele>
        <time>2020-05-24T12:14:02.000Z</time>
      </trkpt>
      <trkpt lat="46.97387" lon="5.9889">
        <ele>412</ele>
        <time>2020-05-24T12:14:04.000Z</time>
      </trkpt>
      <trkpt lat="46.97386" lon="5.98887">
        <ele>412</ele>
        <time>2020-05-24T12:14:06.000Z</time>
      </trkpt>
      <trkpt lat="46.97385" lon="5.98883">
        <ele>412</ele>
        <time>2020-05-24T12:14:08.000Z</time>
      </trkpt>
      <trkpt lat="46.97384" lon="5.9888">
        <ele>412</ele>
        <time>2020-05-24T12:14:10.000Z</time>
      </trkpt>
      <trkpt lat="46.97383" lon="5.98878">
        <ele>412.82857142857</ele>
        <time>2020-05-24T12:14:12.000Z</time>
      </trkpt>
      <trkpt lat="46.97382" lon="5.98875">
        <ele>413</ele>
        <time>2020-05-24T12:14:14.000Z</time>
      </trkpt>
      <trkpt lat="46.97381" lon="5.98873">
        <ele>413</ele>
        <time>2020-05-24T12:14:16.000Z</time>
      </trkpt>
      <trkpt lat="46.9738" lon="5.9887">
        <ele>413</ele>
        <time>2020-05-24T12:14:18.000Z</time>
      </trkpt>
      <trkpt lat="46.97379" lon="5.98867">
        <ele>413</ele>
        <time>2020-05-24T12:14:20.000Z</time>
      </trkpt>
      <trkpt lat="46.97377" lon="5.98863">
        <ele>413</ele>
        <time>2020-05-24T12:14:22.000Z</time>
      </trkpt>
      <trkpt lat="46.97374" lon="5.9886">
        <ele>413</ele>
        <time>2020-05-24T12:14:31.000Z</time>
      </trkpt>
      <trkpt lat="46.97371" lon="5.98846">
        <ele>413</ele>
        <time>2020-05-24T12:14:41.000Z</time>
      </trkpt>
      <trkpt lat="46.97367" lon="5.98834">
        <ele>413</ele>
        <time>2020-05-24T12:14:48.000Z</time>
      </trkpt>
      <trkpt lat="46.97364" lon="5.98821">
        <ele>414</ele>
        <time>2020-05-24T12:14:55.000Z</time>
      </trkpt>
      <trkpt lat="46.97363" lon="5.98816">
        <ele>414</ele>
        <time>2020-05-24T12:14:58.000Z</time>
      </trkpt>
      <trkpt lat="46.97362" lon="5.98812">
        <ele>414</ele>
        <time>2020-05-24T12:15:00.000Z</time>
      </trkpt>
      <trkpt lat="46.97362" lon="5.98809">
        <ele>414</ele>
        <time>2020-05-24T12:15:02.000Z</time>
      </trkpt>
      <trkpt lat="46.97358" lon="5.98794">
        <ele>415</ele>
        <time>2020-05-24T12:15:10.000Z</time>
      </trkpt>
      <trkpt lat="46.97356" lon="5.98782">
        <ele>416</ele>
        <time>2020-05-24T12:15:17.000Z</time>
      </trkpt>
      <trkpt lat="46.97351" lon="5.98768">
        <ele>417</ele>
        <time>2020-05-24T12:15:25.000Z</time>
      </trkpt>
      <trkpt lat="46.97345" lon="5.98756">
        <ele>418.14814814815</ele>
        <time>2020-05-24T12:15:34.000Z</time>
      </trkpt>
      <trkpt lat="46.97339" lon="5.98747">
        <ele>419</ele>
        <time>2020-05-24T12:15:41.000Z</time>
      </trkpt>
      <trkpt lat="46.97334" lon="5.98736">
        <ele>421</ele>
        <time>2020-05-24T12:15:49.000Z</time>
      </trkpt>
      <trkpt lat="46.97329" lon="5.98726">
        <ele>422</ele>
        <time>2020-05-24T12:15:56.000Z</time>
      </trkpt>
      <trkpt lat="46.97327" lon="5.98721">
        <ele>422</ele>
        <time>2020-05-24T12:15:59.000Z</time>
      </trkpt>
      <trkpt lat="46.97325" lon="5.98718">
        <ele>422</ele>
        <time>2020-05-24T12:16:01.000Z</time>
      </trkpt>
      <trkpt lat="46.97322" lon="5.98707">
        <ele>423</ele>
        <time>2020-05-24T12:16:08.000Z</time>
      </trkpt>
      <trkpt lat="46.97321" lon="5.98703">
        <ele>423</ele>
        <time>2020-05-24T12:16:10.000Z</time>
      </trkpt>
      <trkpt lat="46.97321" lon="5.987">
        <ele>423</ele>
        <time>2020-05-24T12:16:12.000Z</time>
      </trkpt>
      <trkpt lat="46.97322" lon="5.98686">
        <ele>423</ele>
        <time>2020-05-24T12:16:19.000Z</time>
      </trkpt>
      <trkpt lat="46.97321" lon="5.98681">
        <ele>423.03448630994</ele>
        <time>2020-05-24T12:16:21.000Z</time>
      </trkpt>
      <trkpt lat="46.9732" lon="5.98677">
        <ele>424</ele>
        <time>2020-05-24T12:16:23.000Z</time>
      </trkpt>
      <trkpt lat="46.97319" lon="5.98674">
        <ele>424.77272991738</ele>
        <time>2020-05-24T12:16:25.000Z</time>
      </trkpt>
      <trkpt lat="46.97317" lon="5.98672">
        <ele>425</ele>
        <time>2020-05-24T12:16:27.000Z</time>
      </trkpt>
      <trkpt lat="46.97316" lon="5.98669">
        <ele>425</ele>
        <time>2020-05-24T12:16:29.000Z</time>
      </trkpt>
      <trkpt lat="46.97315" lon="5.98663">
        <ele>425</ele>
        <time>2020-05-24T12:16:33.000Z</time>
      </trkpt>
      <trkpt lat="46.97313" lon="5.9866">
        <ele>425</ele>
        <time>2020-05-24T12:16:35.000Z</time>
      </trkpt>
      <trkpt lat="46.97312" lon="5.98657">
        <ele>425</ele>
        <time>2020-05-24T12:16:37.000Z</time>
      </trkpt>
      <trkpt lat="46.97311" lon="5.98655">
        <ele>424.90322891434</ele>
        <time>2020-05-24T12:16:39.000Z</time>
      </trkpt>
      <trkpt lat="46.97309" lon="5.98652">
        <ele>424</ele>
        <time>2020-05-24T12:16:41.000Z</time>
      </trkpt>
      <trkpt lat="46.97305" lon="5.98639">
        <ele>425</ele>
        <time>2020-05-24T12:16:49.000Z</time>
      </trkpt>
      <trkpt lat="46.97299" lon="5.98629">
        <ele>425</ele>
        <time>2020-05-24T12:16:55.000Z</time>
      </trkpt>
      <trkpt lat="46.97294" lon="5.98615">
        <ele>425</ele>
        <time>2020-05-24T12:17:02.000Z</time>
      </trkpt>
      <trkpt lat="46.97293" lon="5.98612">
        <ele>425</ele>
        <time>2020-05-24T12:17:04.000Z</time>
      </trkpt>
      <trkpt lat="46.97291" lon="5.98608">
        <ele>425</ele>
        <time>2020-05-24T12:17:06.000Z</time>
      </trkpt>
      <trkpt lat="46.97289" lon="5.98603">
        <ele>425</ele>
        <time>2020-05-24T12:17:09.000Z</time>
      </trkpt>
      <trkpt lat="46.97285" lon="5.98591">
        <ele>426</ele>
        <time>2020-05-24T12:17:19.000Z</time>
      </trkpt>
      <trkpt lat="46.97277" lon="5.98582">
        <ele>426</ele>
        <time>2020-05-24T12:17:27.000Z</time>
      </trkpt>
      <trkpt lat="46.97276" lon="5.98579">
        <ele>425.84905751512</ele>
        <time>2020-05-24T12:17:29.000Z</time>
      </trkpt>
      <trkpt lat="46.97277" lon="5.98582">
        <ele>425.15094248488</ele>
        <time>2020-05-24T12:17:31.000Z</time>
      </trkpt>
      <trkpt lat="46.97279" lon="5.98586">
        <ele>426</ele>
        <time>2020-05-24T12:17:32.000Z</time>
      </trkpt>
      <trkpt lat="46.97281" lon="5.98588">
        <ele>426</ele>
        <time>2020-05-24T12:17:33.000Z</time>
      </trkpt>
      <trkpt lat="46.97283" lon="5.9859">
        <ele>426</ele>
        <time>2020-05-24T12:17:34.000Z</time>
      </trkpt>
      <trkpt lat="46.97285" lon="5.98589">
        <ele>426</ele>
        <time>2020-05-24T12:17:36.000Z</time>
      </trkpt>
      <trkpt lat="46.97286" lon="5.98585">
        <ele>426</ele>
        <time>2020-05-24T12:17:38.000Z</time>
      </trkpt>
      <trkpt lat="46.97279" lon="5.98575">
        <ele>426.16</ele>
        <time>2020-05-24T12:17:44.000Z</time>
      </trkpt>
      <trkpt lat="46.97275" lon="5.98562">
        <ele>428</ele>
        <time>2020-05-24T12:17:53.000Z</time>
      </trkpt>
      <trkpt lat="46.97273" lon="5.98549">
        <ele>429</ele>
        <time>2020-05-24T12:18:02.000Z</time>
      </trkpt>
      <trkpt lat="46.97266" lon="5.98541">
        <ele>431</ele>
        <time>2020-05-24T12:18:10.000Z</time>
      </trkpt>
      <trkpt lat="46.97262" lon="5.98527">
        <ele>433</ele>
        <time>2020-05-24T12:18:17.000Z</time>
      </trkpt>
      <trkpt lat="46.97256" lon="5.98517">
        <ele>434</ele>
        <time>2020-05-24T12:18:25.000Z</time>
      </trkpt>
      <trkpt lat="46.9725" lon="5.98506">
        <ele>435</ele>
        <time>2020-05-24T12:18:34.000Z</time>
      </trkpt>
      <trkpt lat="46.97244" lon="5.98496">
        <ele>436</ele>
        <time>2020-05-24T12:18:45.000Z</time>
      </trkpt>
      <trkpt lat="46.9724" lon="5.98483">
        <ele>439</ele>
        <time>2020-05-24T12:18:54.000Z</time>
      </trkpt>
      <trkpt lat="46.97233" lon="5.98473">
        <ele>441</ele>
        <time>2020-05-24T12:19:05.000Z</time>
      </trkpt>
      <trkpt lat="46.97229" lon="5.98462">
        <ele>443</ele>
        <time>2020-05-24T12:19:14.000Z</time>
      </trkpt>
      <trkpt lat="46.97226" lon="5.98449">
        <ele>445</ele>
        <time>2020-05-24T12:19:23.000Z</time>
      </trkpt>
      <trkpt lat="46.97224" lon="5.98446">
        <ele>445.84</ele>
        <time>2020-05-24T12:19:26.000Z</time>
      </trkpt>
      <trkpt lat="46.97223" lon="5.98444">
        <ele>446</ele>
        <time>2020-05-24T12:19:28.000Z</time>
      </trkpt>
      <trkpt lat="46.97222" lon="5.98442">
        <ele>446</ele>
        <time>2020-05-24T12:19:29.000Z</time>
      </trkpt>
      <trkpt lat="46.9722" lon="5.98441">
        <ele>446</ele>
        <time>2020-05-24T12:19:31.000Z</time>
      </trkpt>
      <trkpt lat="46.9722" lon="5.98437">
        <ele>446.89922703684</ele>
        <time>2020-05-24T12:19:35.000Z</time>
      </trkpt>
      <trkpt lat="46.9722" lon="5.98434">
        <ele>447</ele>
        <time>2020-05-24T12:19:37.000Z</time>
      </trkpt>
      <trkpt lat="46.97219" lon="5.98432">
        <ele>447</ele>
        <time>2020-05-24T12:19:40.000Z</time>
      </trkpt>
      <trkpt lat="46.9722" lon="5.98429">
        <ele>448</ele>
        <time>2020-05-24T12:19:42.000Z</time>
      </trkpt>
      <trkpt lat="46.97221" lon="5.98426">
        <ele>449</ele>
        <time>2020-05-24T12:19:46.000Z</time>
      </trkpt>
      <trkpt lat="46.97219" lon="5.98413">
        <ele>452</ele>
        <time>2020-05-24T12:19:55.000Z</time>
      </trkpt>
      <trkpt lat="46.97217" lon="5.98399">
        <ele>455</ele>
        <time>2020-05-24T12:20:08.000Z</time>
      </trkpt>
      <trkpt lat="46.97219" lon="5.98385">
        <ele>456.125</ele>
        <time>2020-05-24T12:20:17.000Z</time>
      </trkpt>
      <trkpt lat="46.97223" lon="5.98372">
        <ele>458</ele>
        <time>2020-05-24T12:20:26.000Z</time>
      </trkpt>
      <trkpt lat="46.97226" lon="5.98359">
        <ele>459</ele>
        <time>2020-05-24T12:20:35.000Z</time>
      </trkpt>
      <trkpt lat="46.97229" lon="5.98345">
        <ele>462</ele>
        <time>2020-05-24T12:20:50.000Z</time>
      </trkpt>
      <trkpt lat="46.97237" lon="5.98345">
        <ele>465</ele>
        <time>2020-05-24T12:21:04.000Z</time>
      </trkpt>
      <trkpt lat="46.97246" lon="5.9834">
        <ele>468</ele>
        <time>2020-05-24T12:21:16.000Z</time>
      </trkpt>
      <trkpt lat="46.97256" lon="5.98341">
        <ele>472</ele>
        <time>2020-05-24T12:21:35.000Z</time>
      </trkpt>
      <trkpt lat="46.97264" lon="5.98337">
        <ele>475</ele>
        <time>2020-05-24T12:21:47.000Z</time>
      </trkpt>
      <trkpt lat="46.97272" lon="5.98343">
        <ele>478</ele>
        <time>2020-05-24T12:22:05.000Z</time>
      </trkpt>
      <trkpt lat="46.97276" lon="5.98345">
        <ele>477</ele>
        <time>2020-05-24T12:22:39.000Z</time>
      </trkpt>
      <trkpt lat="46.97285" lon="5.98339">
        <ele>480</ele>
        <time>2020-05-24T12:23:13.000Z</time>
      </trkpt>
      <trkpt lat="46.97294" lon="5.98339">
        <ele>482</ele>
        <time>2020-05-24T12:23:25.000Z</time>
      </trkpt>
      <trkpt lat="46.97303" lon="5.9834">
        <ele>484</ele>
        <time>2020-05-24T12:23:31.000Z</time>
      </trkpt>
      <trkpt lat="46.97312" lon="5.98335">
        <ele>484</ele>
        <time>2020-05-24T12:23:37.000Z</time>
      </trkpt>
      <trkpt lat="46.9732" lon="5.98327">
        <ele>487</ele>
        <time>2020-05-24T12:23:48.000Z</time>
      </trkpt>
      <trkpt lat="46.97327" lon="5.98319">
        <ele>490</ele>
        <time>2020-05-24T12:24:01.000Z</time>
      </trkpt>
      <trkpt lat="46.97332" lon="5.98308">
        <ele>492</ele>
        <time>2020-05-24T12:24:15.000Z</time>
      </trkpt>
      <trkpt lat="46.97336" lon="5.98307">
        <ele>495</ele>
        <time>2020-05-24T12:24:21.000Z</time>
      </trkpt>
      <trkpt lat="46.97344" lon="5.98309">
        <ele>495.11340423847</ele>
        <time>2020-05-24T12:24:32.000Z</time>
      </trkpt>
      <trkpt lat="46.97353" lon="5.98311">
        <ele>498</ele>
        <time>2020-05-24T12:24:44.000Z</time>
      </trkpt>
      <trkpt lat="46.97353" lon="5.98326">
        <ele>499</ele>
        <time>2020-05-24T12:24:56.000Z</time>
      </trkpt>
      <trkpt lat="46.97353" lon="5.9833">
        <ele>499.08695652174</ele>
        <time>2020-05-24T12:25:06.000Z</time>
      </trkpt>
      <trkpt lat="46.97354" lon="5.98328">
        <ele>500</ele>
        <time>2020-05-24T12:25:09.000Z</time>
      </trkpt>
      <trkpt lat="46.97356" lon="5.98341">
        <ele>501</ele>
        <time>2020-05-24T12:25:21.000Z</time>
      </trkpt>
      <trkpt lat="46.97356" lon="5.98355">
        <ele>501</ele>
        <time>2020-05-24T12:25:29.000Z</time>
      </trkpt>
      <trkpt lat="46.97359" lon="5.98368">
        <ele>502</ele>
        <time>2020-05-24T12:25:37.000Z</time>
      </trkpt>
      <trkpt lat="46.9736" lon="5.98371">
        <ele>502</ele>
        <time>2020-05-24T12:25:39.000Z</time>
      </trkpt>
      <trkpt lat="46.97362" lon="5.98375">
        <ele>502</ele>
        <time>2020-05-24T12:25:41.000Z</time>
      </trkpt>
      <trkpt lat="46.97363" lon="5.98378">
        <ele>502</ele>
        <time>2020-05-24T12:25:43.000Z</time>
      </trkpt>
      <trkpt lat="46.97368" lon="5.98389">
        <ele>503</ele>
        <time>2020-05-24T12:25:52.000Z</time>
      </trkpt>
      <trkpt lat="46.97369" lon="5.98403">
        <ele>504</ele>
        <time>2020-05-24T12:26:01.000Z</time>
      </trkpt>
      <trkpt lat="46.9737" lon="5.98415">
        <ele>506.15151789408</ele>
        <time>2020-05-24T12:26:16.000Z</time>
      </trkpt>
      <trkpt lat="46.97369" lon="5.9843">
        <ele>508</ele>
        <time>2020-05-24T12:26:27.000Z</time>
      </trkpt>
      <trkpt lat="46.97369" lon="5.98434">
        <ele>508</ele>
        <time>2020-05-24T12:26:29.000Z</time>
      </trkpt>
      <trkpt lat="46.97371" lon="5.98446">
        <ele>509</ele>
        <time>2020-05-24T12:26:40.000Z</time>
      </trkpt>
      <trkpt lat="46.97378" lon="5.98455">
        <ele>510</ele>
        <time>2020-05-24T12:26:48.000Z</time>
      </trkpt>
      <trkpt lat="46.97385" lon="5.98465">
        <ele>512</ele>
        <time>2020-05-24T12:26:59.000Z</time>
      </trkpt>
      <trkpt lat="46.97389" lon="5.98477">
        <ele>514</ele>
        <time>2020-05-24T12:27:08.000Z</time>
      </trkpt>
      <trkpt lat="46.97391" lon="5.98478">
        <ele>514</ele>
        <time>2020-05-24T12:27:10.000Z</time>
      </trkpt>
      <trkpt lat="46.97394" lon="5.98481">
        <ele>515</ele>
        <time>2020-05-24T12:27:12.000Z</time>
      </trkpt>
      <trkpt lat="46.97396" lon="5.98482">
        <ele>515</ele>
        <time>2020-05-24T12:27:14.000Z</time>
      </trkpt>
      <trkpt lat="46.97397" lon="5.98483">
        <ele>515</ele>
        <time>2020-05-24T12:27:17.000Z</time>
      </trkpt>
      <trkpt lat="46.974" lon="5.98487">
        <ele>517.16</ele>
        <time>2020-05-24T12:27:26.000Z</time>
      </trkpt>
      <trkpt lat="46.97402" lon="5.98488">
        <ele>518</ele>
        <time>2020-05-24T12:27:28.000Z</time>
      </trkpt>
      <trkpt lat="46.97404" lon="5.98488">
        <ele>518</ele>
        <time>2020-05-24T12:27:31.000Z</time>
      </trkpt>
      <trkpt lat="46.97413" lon="5.98488">
        <ele>521.15533932322</ele>
        <time>2020-05-24T12:27:44.000Z</time>
      </trkpt>
      <trkpt lat="46.97422" lon="5.98486">
        <ele>523</ele>
        <time>2020-05-24T12:27:53.000Z</time>
      </trkpt>
      <trkpt lat="46.9743" lon="5.98481">
        <ele>526</ele>
        <time>2020-05-24T12:28:06.000Z</time>
      </trkpt>
      <trkpt lat="46.97437" lon="5.98473">
        <ele>530</ele>
        <time>2020-05-24T12:28:26.000Z</time>
      </trkpt>
      <trkpt lat="46.97439" lon="5.98484">
        <ele>533</ele>
        <time>2020-05-24T12:28:42.000Z</time>
      </trkpt>
      <trkpt lat="46.9744" lon="5.98486">
        <ele>533</ele>
        <time>2020-05-24T12:28:46.000Z</time>
      </trkpt>
      <trkpt lat="46.97446" lon="5.98495">
        <ele>534.1584163435</ele>
        <time>2020-05-24T12:28:59.000Z</time>
      </trkpt>
      <trkpt lat="46.97453" lon="5.98505">
        <ele>538</ele>
        <time>2020-05-24T12:29:09.000Z</time>
      </trkpt>
      <trkpt lat="46.97454" lon="5.98508">
        <ele>538</ele>
        <time>2020-05-24T12:29:11.000Z</time>
      </trkpt>
      <trkpt lat="46.97455" lon="5.98511">
        <ele>538</ele>
        <time>2020-05-24T12:29:13.000Z</time>
      </trkpt>
      <trkpt lat="46.97456" lon="5.98512">
        <ele>539</ele>
        <time>2020-05-24T12:29:16.000Z</time>
      </trkpt>
      <trkpt lat="46.97458" lon="5.98515">
        <ele>539</ele>
        <time>2020-05-24T12:29:18.000Z</time>
      </trkpt>
      <trkpt lat="46.9746" lon="5.98513">
        <ele>539</ele>
        <time>2020-05-24T12:29:33.000Z</time>
      </trkpt>
      <trkpt lat="46.97462" lon="5.98512">
        <ele>540.16</ele>
        <time>2020-05-24T12:29:48.000Z</time>
      </trkpt>
      <trkpt lat="46.97464" lon="5.9851">
        <ele>542</ele>
        <time>2020-05-24T12:29:51.000Z</time>
      </trkpt>
      <trkpt lat="46.97466" lon="5.98508">
        <ele>542</ele>
        <time>2020-05-24T12:29:54.000Z</time>
      </trkpt>
      <trkpt lat="46.97464" lon="5.98508">
        <ele>542</ele>
        <time>2020-05-24T12:30:00.000Z</time>
      </trkpt>
      <trkpt lat="46.97462" lon="5.9851">
        <ele>542</ele>
        <time>2020-05-24T12:30:02.000Z</time>
      </trkpt>
      <trkpt lat="46.9746" lon="5.98512">
        <ele>541.84</ele>
        <time>2020-05-24T12:30:04.000Z</time>
      </trkpt>
      <trkpt lat="46.97461" lon="5.98516">
        <ele>541</ele>
        <time>2020-05-24T12:30:06.000Z</time>
      </trkpt>
      <trkpt lat="46.97461" lon="5.98519">
        <ele>542</ele>
        <time>2020-05-24T12:30:08.000Z</time>
      </trkpt>
      <trkpt lat="46.97462" lon="5.98522">
        <ele>542</ele>
        <time>2020-05-24T12:30:13.000Z</time>
      </trkpt>
      <trkpt lat="46.97465" lon="5.98524">
        <ele>542</ele>
        <time>2020-05-24T12:30:15.000Z</time>
      </trkpt>
      <trkpt lat="46.97466" lon="5.98526">
        <ele>542.15533932322</ele>
        <time>2020-05-24T12:30:17.000Z</time>
      </trkpt>
      <trkpt lat="46.97467" lon="5.98529">
        <ele>543</ele>
        <time>2020-05-24T12:30:19.000Z</time>
      </trkpt>
      <trkpt lat="46.97468" lon="5.98532">
        <ele>543</ele>
        <time>2020-05-24T12:30:21.000Z</time>
      </trkpt>
      <trkpt lat="46.97469" lon="5.98535">
        <ele>544.10884330048</ele>
        <time>2020-05-24T12:30:23.000Z</time>
      </trkpt>
      <trkpt lat="46.9747" lon="5.98538">
        <ele>545</ele>
        <time>2020-05-24T12:30:25.000Z</time>
      </trkpt>
      <trkpt lat="46.9747" lon="5.9854">
        <ele>546</ele>
        <time>2020-05-24T12:30:27.000Z</time>
      </trkpt>
      <trkpt lat="46.97471" lon="5.98543">
        <ele>546.14814814815</ele>
        <time>2020-05-24T12:30:31.000Z</time>
      </trkpt>
      <trkpt lat="46.97473" lon="5.98544">
        <ele>548</ele>
        <time>2020-05-24T12:30:34.000Z</time>
      </trkpt>
      <trkpt lat="46.97475" lon="5.98546">
        <ele>548.11851823759</ele>
        <time>2020-05-24T12:30:37.000Z</time>
      </trkpt>
      <trkpt lat="46.97477" lon="5.98548">
        <ele>549</ele>
        <time>2020-05-24T12:30:40.000Z</time>
      </trkpt>
      <trkpt lat="46.97478" lon="5.9855">
        <ele>550</ele>
        <time>2020-05-24T12:30:43.000Z</time>
      </trkpt>
      <trkpt lat="46.9748" lon="5.98551">
        <ele>550</ele>
        <time>2020-05-24T12:30:45.000Z</time>
      </trkpt>
      <trkpt lat="46.97482" lon="5.98552">
        <ele>551</ele>
        <time>2020-05-24T12:30:48.000Z</time>
      </trkpt>
      <trkpt lat="46.97484" lon="5.98554">
        <ele>551</ele>
        <time>2020-05-24T12:30:51.000Z</time>
      </trkpt>
      <trkpt lat="46.97486" lon="5.98556">
        <ele>551</ele>
        <time>2020-05-24T12:30:54.000Z</time>
      </trkpt>
      <trkpt lat="46.97488" lon="5.98558">
        <ele>551</ele>
        <time>2020-05-24T12:30:57.000Z</time>
      </trkpt>
      <trkpt lat="46.97489" lon="5.98561">
        <ele>552</ele>
        <time>2020-05-24T12:31:00.000Z</time>
      </trkpt>
      <trkpt lat="46.9749" lon="5.98564">
        <ele>552</ele>
        <time>2020-05-24T12:31:02.000Z</time>
      </trkpt>
      <trkpt lat="46.97492" lon="5.98566">
        <ele>552.12371174833</ele>
        <time>2020-05-24T12:31:05.000Z</time>
      </trkpt>
      <trkpt lat="46.97493" lon="5.98569">
        <ele>554</ele>
        <time>2020-05-24T12:31:08.000Z</time>
      </trkpt>
      <trkpt lat="46.97494" lon="5.98572">
        <ele>554</ele>
        <time>2020-05-24T12:31:10.000Z</time>
      </trkpt>
      <trkpt lat="46.97495" lon="5.98574">
        <ele>554</ele>
        <time>2020-05-24T12:31:12.000Z</time>
      </trkpt>
      <trkpt lat="46.97497" lon="5.98577">
        <ele>555</ele>
        <time>2020-05-24T12:31:15.000Z</time>
      </trkpt>
      <trkpt lat="46.97498" lon="5.98579">
        <ele>555</ele>
        <time>2020-05-24T12:31:17.000Z</time>
      </trkpt>
      <trkpt lat="46.975" lon="5.98582">
        <ele>555</ele>
        <time>2020-05-24T12:31:20.000Z</time>
      </trkpt>
      <trkpt lat="46.97501" lon="5.98585">
        <ele>556</ele>
        <time>2020-05-24T12:31:22.000Z</time>
      </trkpt>
      <trkpt lat="46.97502" lon="5.98587">
        <ele>557</ele>
        <time>2020-05-24T12:31:25.000Z</time>
      </trkpt>
      <trkpt lat="46.97502" lon="5.9859">
        <ele>557</ele>
        <time>2020-05-24T12:31:29.000Z</time>
      </trkpt>
      <trkpt lat="46.97502" lon="5.98593">
        <ele>556</ele>
        <time>2020-05-24T12:31:32.000Z</time>
      </trkpt>
      <trkpt lat="46.97503" lon="5.98596">
        <ele>556</ele>
        <time>2020-05-24T12:31:35.000Z</time>
      </trkpt>
      <trkpt lat="46.97502" lon="5.98598">
        <ele>557</ele>
        <time>2020-05-24T12:31:38.000Z</time>
      </trkpt>
      <trkpt lat="46.97501" lon="5.98602">
        <ele>558</ele>
        <time>2020-05-24T12:31:42.000Z</time>
      </trkpt>
      <trkpt lat="46.97501" lon="5.98605">
        <ele>558</ele>
        <time>2020-05-24T12:31:46.000Z</time>
      </trkpt>
      <trkpt lat="46.97501" lon="5.98608">
        <ele>558</ele>
        <time>2020-05-24T12:31:49.000Z</time>
      </trkpt>
      <trkpt lat="46.97501" lon="5.9861">
        <ele>559</ele>
        <time>2020-05-24T12:31:51.000Z</time>
      </trkpt>
      <trkpt lat="46.97501" lon="5.98613">
        <ele>559</ele>
        <time>2020-05-24T12:31:53.000Z</time>
      </trkpt>
      <trkpt lat="46.97502" lon="5.98616">
        <ele>559</ele>
        <time>2020-05-24T12:31:55.000Z</time>
      </trkpt>
      <trkpt lat="46.97501" lon="5.9862">
        <ele>559</ele>
        <time>2020-05-24T12:31:58.000Z</time>
      </trkpt>
      <trkpt lat="46.97502" lon="5.98623">
        <ele>560</ele>
        <time>2020-05-24T12:32:01.000Z</time>
      </trkpt>
      <trkpt lat="46.97503" lon="5.98626">
        <ele>560</ele>
        <time>2020-05-24T12:32:04.000Z</time>
      </trkpt>
      <trkpt lat="46.97503" lon="5.98629">
        <ele>559</ele>
        <time>2020-05-24T12:32:23.000Z</time>
      </trkpt>
      <trkpt lat="46.97502" lon="5.98632">
        <ele>559</ele>
        <time>2020-05-24T12:32:28.000Z</time>
      </trkpt>
      <trkpt lat="46.97503" lon="5.98634">
        <ele>557</ele>
        <time>2020-05-24T12:32:32.000Z</time>
      </trkpt>
      <trkpt lat="46.97504" lon="5.98636">
        <ele>556</ele>
        <time>2020-05-24T12:32:37.000Z</time>
      </trkpt>
      <trkpt lat="46.97505" lon="5.98636">
        <ele>554</ele>
        <time>2020-05-24T12:32:43.000Z</time>
      </trkpt>
      <trkpt lat="46.97506" lon="5.98639">
        <ele>554</ele>
        <time>2020-05-24T12:32:57.000Z</time>
      </trkpt>
      <trkpt lat="46.97504" lon="5.98638">
        <ele>555.82857700138</ele>
        <time>2020-05-24T12:33:32.000Z</time>
      </trkpt>
      <trkpt lat="46.97503" lon="5.98636">
        <ele>557</ele>
        <time>2020-05-24T12:33:35.000Z</time>
      </trkpt>
      <trkpt lat="46.97502" lon="5.98634">
        <ele>558</ele>
        <time>2020-05-24T12:33:39.000Z</time>
      </trkpt>
      <trkpt lat="46.97503" lon="5.98632">
        <ele>558</ele>
        <time>2020-05-24T12:33:47.000Z</time>
      </trkpt>
      <trkpt lat="46.97503" lon="5.98629">
        <ele>558</ele>
        <time>2020-05-24T12:35:00.000Z</time>
      </trkpt>
      <trkpt lat="46.97504" lon="5.98626">
        <ele>558</ele>
        <time>2020-05-24T12:35:05.000Z</time>
      </trkpt>
      <trkpt lat="46.97502" lon="5.98623">
        <ele>558.14678942177</ele>
        <time>2020-05-24T12:35:08.000Z</time>
      </trkpt>
      <trkpt lat="46.97501" lon="5.98621">
        <ele>559</ele>
        <time>2020-05-24T12:35:12.000Z</time>
      </trkpt>
      <trkpt lat="46.97501" lon="5.98618">
        <ele>559</ele>
        <time>2020-05-24T12:35:15.000Z</time>
      </trkpt>
      <trkpt lat="46.97501" lon="5.98615">
        <ele>559</ele>
        <time>2020-05-24T12:35:19.000Z</time>
      </trkpt>
      <trkpt lat="46.975" lon="5.98611">
        <ele>558</ele>
        <time>2020-05-24T12:35:22.000Z</time>
      </trkpt>
      <trkpt lat="46.975" lon="5.98607">
        <ele>558</ele>
        <time>2020-05-24T12:35:24.000Z</time>
      </trkpt>
      <trkpt lat="46.975" lon="5.98604">
        <ele>558</ele>
        <time>2020-05-24T12:35:26.000Z</time>
      </trkpt>
      <trkpt lat="46.97501" lon="5.98602">
        <ele>557</ele>
        <time>2020-05-24T12:35:28.000Z</time>
      </trkpt>
      <trkpt lat="46.97502" lon="5.98599">
        <ele>557</ele>
        <time>2020-05-24T12:35:31.000Z</time>
      </trkpt>
      <trkpt lat="46.97502" lon="5.98596">
        <ele>557</ele>
        <time>2020-05-24T12:35:34.000Z</time>
      </trkpt>
      <trkpt lat="46.97503" lon="5.98592">
        <ele>557</ele>
        <time>2020-05-24T12:35:36.000Z</time>
      </trkpt>
      <trkpt lat="46.97503" lon="5.9859">
        <ele>557</ele>
        <time>2020-05-24T12:35:39.000Z</time>
      </trkpt>
      <trkpt lat="46.97504" lon="5.98587">
        <ele>557</ele>
        <time>2020-05-24T12:35:41.000Z</time>
      </trkpt>
      <trkpt lat="46.97503" lon="5.98583">
        <ele>557</ele>
        <time>2020-05-24T12:35:44.000Z</time>
      </trkpt>
      <trkpt lat="46.97502" lon="5.9858">
        <ele>556.84</ele>
        <time>2020-05-24T12:35:47.000Z</time>
      </trkpt>
      <trkpt lat="46.97502" lon="5.98577">
        <ele>556</ele>
        <time>2020-05-24T12:35:49.000Z</time>
      </trkpt>
      <trkpt lat="46.97501" lon="5.98573">
        <ele>556</ele>
        <time>2020-05-24T12:35:51.000Z</time>
      </trkpt>
      <trkpt lat="46.97501" lon="5.9857">
        <ele>555</ele>
        <time>2020-05-24T12:35:54.000Z</time>
      </trkpt>
      <trkpt lat="46.975" lon="5.98567">
        <ele>555</ele>
        <time>2020-05-24T12:35:57.000Z</time>
      </trkpt>
      <trkpt lat="46.97498" lon="5.98565">
        <ele>555</ele>
        <time>2020-05-24T12:35:59.000Z</time>
      </trkpt>
      <trkpt lat="46.97497" lon="5.98562">
        <ele>554.97435644972</ele>
        <time>2020-05-24T12:36:01.000Z</time>
      </trkpt>
      <trkpt lat="46.97496" lon="5.9856">
        <ele>554</ele>
        <time>2020-05-24T12:36:03.000Z</time>
      </trkpt>
      <trkpt lat="46.97494" lon="5.98558">
        <ele>554</ele>
        <time>2020-05-24T12:36:05.000Z</time>
      </trkpt>
      <trkpt lat="46.97493" lon="5.98555">
        <ele>552.84</ele>
        <time>2020-05-24T12:36:07.000Z</time>
      </trkpt>
      <trkpt lat="46.97491" lon="5.98553">
        <ele>552</ele>
        <time>2020-05-24T12:36:09.000Z</time>
      </trkpt>
      <trkpt lat="46.9749" lon="5.98551">
        <ele>551</ele>
        <time>2020-05-24T12:36:12.000Z</time>
      </trkpt>
      <trkpt lat="46.97489" lon="5.98549">
        <ele>551</ele>
        <time>2020-05-24T12:36:14.000Z</time>
      </trkpt>
      <trkpt lat="46.97488" lon="5.98546">
        <ele>551</ele>
        <time>2020-05-24T12:36:16.000Z</time>
      </trkpt>
      <trkpt lat="46.97487" lon="5.98543">
        <ele>550.84</ele>
        <time>2020-05-24T12:36:18.000Z</time>
      </trkpt>
      <trkpt lat="46.97486" lon="5.98541">
        <ele>550</ele>
        <time>2020-05-24T12:36:20.000Z</time>
      </trkpt>
      <trkpt lat="46.97485" lon="5.98539">
        <ele>550</ele>
        <time>2020-05-24T12:36:22.000Z</time>
      </trkpt>
      <trkpt lat="46.97483" lon="5.98536">
        <ele>549.875</ele>
        <time>2020-05-24T12:36:24.000Z</time>
      </trkpt>
      <trkpt lat="46.97482" lon="5.98534">
        <ele>548</ele>
        <time>2020-05-24T12:36:27.000Z</time>
      </trkpt>
      <trkpt lat="46.97479" lon="5.98531">
        <ele>548</ele>
        <time>2020-05-24T12:36:29.000Z</time>
      </trkpt>
      <trkpt lat="46.97477" lon="5.98529">
        <ele>547</ele>
        <time>2020-05-24T12:36:31.000Z</time>
      </trkpt>
      <trkpt lat="46.97476" lon="5.98527">
        <ele>546</ele>
        <time>2020-05-24T12:36:33.000Z</time>
      </trkpt>
      <trkpt lat="46.97474" lon="5.98525">
        <ele>546</ele>
        <time>2020-05-24T12:36:35.000Z</time>
      </trkpt>
      <trkpt lat="46.97473" lon="5.98523">
        <ele>546</ele>
        <time>2020-05-24T12:36:37.000Z</time>
      </trkpt>
      <trkpt lat="46.97472" lon="5.98521">
        <ele>546</ele>
        <time>2020-05-24T12:36:39.000Z</time>
      </trkpt>
      <trkpt lat="46.9747" lon="5.98518">
        <ele>545</ele>
        <time>2020-05-24T12:36:42.000Z</time>
      </trkpt>
      <trkpt lat="46.97469" lon="5.98517">
        <ele>545</ele>
        <time>2020-05-24T12:36:45.000Z</time>
      </trkpt>
      <trkpt lat="46.9747" lon="5.98519">
        <ele>545</ele>
        <time>2020-05-24T12:36:53.000Z</time>
      </trkpt>
      <trkpt lat="46.97468" lon="5.98518">
        <ele>544.09523857899</ele>
        <time>2020-05-24T12:37:00.000Z</time>
      </trkpt>
      <trkpt lat="46.97467" lon="5.98516">
        <ele>543.85964833487</ele>
        <time>2020-05-24T12:37:02.000Z</time>
      </trkpt>
      <trkpt lat="46.97465" lon="5.98513">
        <ele>542</ele>
        <time>2020-05-24T12:37:05.000Z</time>
      </trkpt>
      <trkpt lat="46.97464" lon="5.9851">
        <ele>542</ele>
        <time>2020-05-24T12:37:08.000Z</time>
      </trkpt>
      <trkpt lat="46.97462" lon="5.98508">
        <ele>541.88148176241</ele>
        <time>2020-05-24T12:37:11.000Z</time>
      </trkpt>
      <trkpt lat="46.97464" lon="5.98509">
        <ele>541.11594256669</ele>
        <time>2020-05-24T12:37:18.000Z</time>
      </trkpt>
      <trkpt lat="46.97467" lon="5.98509">
        <ele>542</ele>
        <time>2020-05-24T12:37:21.000Z</time>
      </trkpt>
      <trkpt lat="46.97469" lon="5.98507">
        <ele>542</ele>
        <time>2020-05-24T12:37:23.000Z</time>
      </trkpt>
      <trkpt lat="46.97471" lon="5.98506">
        <ele>543.11224743022</ele>
        <time>2020-05-24T12:37:25.000Z</time>
      </trkpt>
      <trkpt lat="46.97472" lon="5.98503">
        <ele>544</ele>
        <time>2020-05-24T12:37:29.000Z</time>
      </trkpt>
      <trkpt lat="46.97473" lon="5.98499">
        <ele>544</ele>
        <time>2020-05-24T12:37:32.000Z</time>
      </trkpt>
      <trkpt lat="46.97474" lon="5.98497">
        <ele>545.15686372934</ele>
        <time>2020-05-24T12:37:35.000Z</time>
      </trkpt>
      <trkpt lat="46.97476" lon="5.98495">
        <ele>546</ele>
        <time>2020-05-24T12:37:38.000Z</time>
      </trkpt>
      <trkpt lat="46.97477" lon="5.98492">
        <ele>546.16</ele>
        <time>2020-05-24T12:37:41.000Z</time>
      </trkpt>
      <trkpt lat="46.97478" lon="5.9849">
        <ele>547</ele>
        <time>2020-05-24T12:37:43.000Z</time>
      </trkpt>
      <trkpt lat="46.97479" lon="5.98487">
        <ele>547</ele>
        <time>2020-05-24T12:37:45.000Z</time>
      </trkpt>
      <trkpt lat="46.9748" lon="5.98485">
        <ele>547.16</ele>
        <time>2020-05-24T12:37:48.000Z</time>
      </trkpt>
      <trkpt lat="46.97481" lon="5.98483">
        <ele>549</ele>
        <time>2020-05-24T12:37:52.000Z</time>
      </trkpt>
      <trkpt lat="46.97482" lon="5.9848">
        <ele>550</ele>
        <time>2020-05-24T12:37:56.000Z</time>
      </trkpt>
      <trkpt lat="46.97482" lon="5.98477">
        <ele>551</ele>
        <time>2020-05-24T12:38:00.000Z</time>
      </trkpt>
      <trkpt lat="46.97484" lon="5.98475">
        <ele>552.15533932322</ele>
        <time>2020-05-24T12:38:05.000Z</time>
      </trkpt>
      <trkpt lat="46.97483" lon="5.98473">
        <ele>553</ele>
        <time>2020-05-24T12:38:07.000Z</time>
      </trkpt>
      <trkpt lat="46.97485" lon="5.9847">
        <ele>554</ele>
        <time>2020-05-24T12:38:10.000Z</time>
      </trkpt>
      <trkpt lat="46.97485" lon="5.98468">
        <ele>554.79166222222</ele>
        <time>2020-05-24T12:38:14.000Z</time>
      </trkpt>
      <trkpt lat="46.97492" lon="5.98463">
        <ele>559</ele>
        <time>2020-05-24T12:38:34.000Z</time>
      </trkpt>
      <trkpt lat="46.97492" lon="5.98459">
        <ele>560</ele>
        <time>2020-05-24T12:38:38.000Z</time>
      </trkpt>
      <trkpt lat="46.97491" lon="5.98457">
        <ele>560</ele>
        <time>2020-05-24T12:38:42.000Z</time>
      </trkpt>
      <trkpt lat="46.97492" lon="5.98454">
        <ele>560</ele>
        <time>2020-05-24T12:38:46.000Z</time>
      </trkpt>
      <trkpt lat="46.97494" lon="5.98454">
        <ele>561.04950193902</ele>
        <time>2020-05-24T12:38:50.000Z</time>
      </trkpt>
      <trkpt lat="46.97496" lon="5.98453">
        <ele>562</ele>
        <time>2020-05-24T12:38:53.000Z</time>
      </trkpt>
      <trkpt lat="46.97497" lon="5.98451">
        <ele>562</ele>
        <time>2020-05-24T12:38:56.000Z</time>
      </trkpt>
      <trkpt lat="46.97498" lon="5.98448">
        <ele>563</ele>
        <time>2020-05-24T12:38:59.000Z</time>
      </trkpt>
      <trkpt lat="46.97499" lon="5.98446">
        <ele>563.15384615385</ele>
        <time>2020-05-24T12:39:02.000Z</time>
      </trkpt>
      <trkpt lat="46.975" lon="5.98444">
        <ele>564</ele>
        <time>2020-05-24T12:39:05.000Z</time>
      </trkpt>
      <trkpt lat="46.975" lon="5.98441">
        <ele>564</ele>
        <time>2020-05-24T12:39:08.000Z</time>
      </trkpt>
      <trkpt lat="46.97502" lon="5.9844">
        <ele>564.13401776171</ele>
        <time>2020-05-24T12:39:13.000Z</time>
      </trkpt>
      <trkpt lat="46.97504" lon="5.9844">
        <ele>566.16</ele>
        <time>2020-05-24T12:39:19.000Z</time>
      </trkpt>
      <trkpt lat="46.97505" lon="5.98438">
        <ele>567</ele>
        <time>2020-05-24T12:39:22.000Z</time>
      </trkpt>
      <trkpt lat="46.97507" lon="5.98437">
        <ele>568</ele>
        <time>2020-05-24T12:39:26.000Z</time>
      </trkpt>
      <trkpt lat="46.97508" lon="5.98435">
        <ele>568</ele>
        <time>2020-05-24T12:39:28.000Z</time>
      </trkpt>
      <trkpt lat="46.9751" lon="5.98432">
        <ele>568</ele>
        <time>2020-05-24T12:39:31.000Z</time>
      </trkpt>
      <trkpt lat="46.97511" lon="5.98429">
        <ele>568</ele>
        <time>2020-05-24T12:39:33.000Z</time>
      </trkpt>
      <trkpt lat="46.97512" lon="5.98427">
        <ele>569</ele>
        <time>2020-05-24T12:39:36.000Z</time>
      </trkpt>
      <trkpt lat="46.97512" lon="5.98424">
        <ele>570</ele>
        <time>2020-05-24T12:39:40.000Z</time>
      </trkpt>
      <trkpt lat="46.97514" lon="5.98422">
        <ele>570.02324854511</ele>
        <time>2020-05-24T12:39:42.000Z</time>
      </trkpt>
      <trkpt lat="46.97514" lon="5.9842">
        <ele>571</ele>
        <time>2020-05-24T12:39:45.000Z</time>
      </trkpt>
      <trkpt lat="46.97516" lon="5.98418">
        <ele>572</ele>
        <time>2020-05-24T12:39:48.000Z</time>
      </trkpt>
      <trkpt lat="46.97518" lon="5.98416">
        <ele>573</ele>
        <time>2020-05-24T12:39:52.000Z</time>
      </trkpt>
      <trkpt lat="46.97522" lon="5.98413">
        <ele>573</ele>
        <time>2020-05-24T12:39:58.000Z</time>
      </trkpt>
      <trkpt lat="46.97522" lon="5.98411">
        <ele>573</ele>
        <time>2020-05-24T12:40:00.000Z</time>
      </trkpt>
      <trkpt lat="46.97524" lon="5.98408">
        <ele>574.16</ele>
        <time>2020-05-24T12:40:04.000Z</time>
      </trkpt>
      <trkpt lat="46.97524" lon="5.98406">
        <ele>576</ele>
        <time>2020-05-24T12:40:07.000Z</time>
      </trkpt>
      <trkpt lat="46.97527" lon="5.98405">
        <ele>576</ele>
        <time>2020-05-24T12:40:12.000Z</time>
      </trkpt>
      <trkpt lat="46.97529" lon="5.98402">
        <ele>577</ele>
        <time>2020-05-24T12:40:15.000Z</time>
      </trkpt>
      <trkpt lat="46.9753" lon="5.984">
        <ele>578</ele>
        <time>2020-05-24T12:40:17.000Z</time>
      </trkpt>
      <trkpt lat="46.97533" lon="5.98397">
        <ele>579</ele>
        <time>2020-05-24T12:40:22.000Z</time>
      </trkpt>
      <trkpt lat="46.97535" lon="5.98394">
        <ele>580.11436727449</ele>
        <time>2020-05-24T12:40:28.000Z</time>
      </trkpt>
      <trkpt lat="46.97536" lon="5.9839">
        <ele>581</ele>
        <time>2020-05-24T12:40:31.000Z</time>
      </trkpt>
      <trkpt lat="46.97536" lon="5.98388">
        <ele>582</ele>
        <time>2020-05-24T12:40:34.000Z</time>
      </trkpt>
      <trkpt lat="46.97538" lon="5.98385">
        <ele>582.09773970908</ele>
        <time>2020-05-24T12:40:38.000Z</time>
      </trkpt>
      <trkpt lat="46.97545" lon="5.98391">
        <ele>584.09773970908</ele>
        <time>2020-05-24T12:40:54.000Z</time>
      </trkpt>
      <trkpt lat="46.97544" lon="5.98389">
        <ele>585</ele>
        <time>2020-05-24T12:40:57.000Z</time>
      </trkpt>
      <trkpt lat="46.97542" lon="5.98388">
        <ele>584</ele>
        <time>2020-05-24T12:41:08.000Z</time>
      </trkpt>
      <trkpt lat="46.97541" lon="5.98386">
        <ele>585</ele>
        <time>2020-05-24T12:41:36.000Z</time>
      </trkpt>
      <trkpt lat="46.97543" lon="5.98387">
        <ele>586.12403131543</ele>
        <time>2020-05-24T12:41:44.000Z</time>
      </trkpt>
      <trkpt lat="46.97543" lon="5.9839">
        <ele>587.16</ele>
        <time>2020-05-24T12:41:47.000Z</time>
      </trkpt>
      <trkpt lat="46.97544" lon="5.98393">
        <ele>588.03448630994</ele>
        <time>2020-05-24T12:41:52.000Z</time>
      </trkpt>
      <trkpt lat="46.97545" lon="5.98396">
        <ele>589.11579245207</ele>
        <time>2020-05-24T12:41:55.000Z</time>
      </trkpt>
      <trkpt lat="46.97547" lon="5.98399">
        <ele>590</ele>
        <time>2020-05-24T12:41:58.000Z</time>
      </trkpt>
      <trkpt lat="46.97548" lon="5.98402">
        <ele>591</ele>
        <time>2020-05-24T12:42:02.000Z</time>
      </trkpt>
      <trkpt lat="46.97549" lon="5.98404">
        <ele>591</ele>
        <time>2020-05-24T12:42:04.000Z</time>
      </trkpt>
      <trkpt lat="46.9755" lon="5.98407">
        <ele>591.125</ele>
        <time>2020-05-24T12:42:07.000Z</time>
      </trkpt>
      <trkpt lat="46.97551" lon="5.9841">
        <ele>592.16</ele>
        <time>2020-05-24T12:42:10.000Z</time>
      </trkpt>
      <trkpt lat="46.97552" lon="5.98413">
        <ele>593</ele>
        <time>2020-05-24T12:42:13.000Z</time>
      </trkpt>
      <trkpt lat="46.97552" lon="5.98416">
        <ele>594</ele>
        <time>2020-05-24T12:42:16.000Z</time>
      </trkpt>
      <trkpt lat="46.97553" lon="5.98418">
        <ele>594</ele>
        <time>2020-05-24T12:42:18.000Z</time>
      </trkpt>
      <trkpt lat="46.97553" lon="5.98421">
        <ele>595</ele>
        <time>2020-05-24T12:42:20.000Z</time>
      </trkpt>
      <trkpt lat="46.97554" lon="5.98423">
        <ele>596</ele>
        <time>2020-05-24T12:42:23.000Z</time>
      </trkpt>
      <trkpt lat="46.97555" lon="5.98425">
        <ele>596.05617638176</ele>
        <time>2020-05-24T12:42:25.000Z</time>
      </trkpt>
      <trkpt lat="46.97556" lon="5.98427">
        <ele>597.14286274049</ele>
        <time>2020-05-24T12:42:28.000Z</time>
      </trkpt>
      <trkpt lat="46.97558" lon="5.98429">
        <ele>599</ele>
        <time>2020-05-24T12:42:32.000Z</time>
      </trkpt>
      <trkpt lat="46.97559" lon="5.9843">
        <ele>599.16</ele>
        <time>2020-05-24T12:42:36.000Z</time>
      </trkpt>
      <trkpt lat="46.97561" lon="5.98432">
        <ele>600</ele>
        <time>2020-05-24T12:42:39.000Z</time>
      </trkpt>
      <trkpt lat="46.97561" lon="5.98435">
        <ele>600</ele>
        <time>2020-05-24T12:42:42.000Z</time>
      </trkpt>
      <trkpt lat="46.97562" lon="5.98438">
        <ele>600.12030104133</ele>
        <time>2020-05-24T12:42:45.000Z</time>
      </trkpt>
      <trkpt lat="46.97562" lon="5.98442">
        <ele>602</ele>
        <time>2020-05-24T12:42:48.000Z</time>
      </trkpt>
      <trkpt lat="46.97563" lon="5.98444">
        <ele>602</ele>
        <time>2020-05-24T12:42:50.000Z</time>
      </trkpt>
      <trkpt lat="46.97564" lon="5.98447">
        <ele>603</ele>
        <time>2020-05-24T12:42:53.000Z</time>
      </trkpt>
      <trkpt lat="46.97565" lon="5.98449">
        <ele>603.16</ele>
        <time>2020-05-24T12:42:55.000Z</time>
      </trkpt>
      <trkpt lat="46.97566" lon="5.98452">
        <ele>605</ele>
        <time>2020-05-24T12:42:57.000Z</time>
      </trkpt>
      <trkpt lat="46.97567" lon="5.98454">
        <ele>605</ele>
        <time>2020-05-24T12:42:59.000Z</time>
      </trkpt>
      <trkpt lat="46.97567" lon="5.98457">
        <ele>605</ele>
        <time>2020-05-24T12:43:02.000Z</time>
      </trkpt>
      <trkpt lat="46.97567" lon="5.98459">
        <ele>605</ele>
        <time>2020-05-24T12:43:04.000Z</time>
      </trkpt>
      <trkpt lat="46.97567" lon="5.98462">
        <ele>605</ele>
        <time>2020-05-24T12:43:07.000Z</time>
      </trkpt>
      <trkpt lat="46.97569" lon="5.98464">
        <ele>606</ele>
        <time>2020-05-24T12:43:12.000Z</time>
      </trkpt>
      <trkpt lat="46.97567" lon="5.98465">
        <ele>607</ele>
        <time>2020-05-24T12:43:15.000Z</time>
      </trkpt>
      <trkpt lat="46.97567" lon="5.98468">
        <ele>606</ele>
        <time>2020-05-24T12:43:18.000Z</time>
      </trkpt>
      <trkpt lat="46.97568" lon="5.98469">
        <ele>605</ele>
        <time>2020-05-24T12:43:44.000Z</time>
      </trkpt>
      <trkpt lat="46.97568" lon="5.98465">
        <ele>604</ele>
        <time>2020-05-24T12:45:59.000Z</time>
      </trkpt>
      <trkpt lat="46.97568" lon="5.98463">
        <ele>604</ele>
        <time>2020-05-24T12:46:01.000Z</time>
      </trkpt>
      <trkpt lat="46.97568" lon="5.9846">
        <ele>604</ele>
        <time>2020-05-24T12:46:03.000Z</time>
      </trkpt>
      <trkpt lat="46.97568" lon="5.98457">
        <ele>603.84761858322</ele>
        <time>2020-05-24T12:46:05.000Z</time>
      </trkpt>
      <trkpt lat="46.97567" lon="5.98454">
        <ele>603</ele>
        <time>2020-05-24T12:46:08.000Z</time>
      </trkpt>
      <trkpt lat="46.97567" lon="5.9845">
        <ele>602.10768791477</ele>
        <time>2020-05-24T12:46:11.000Z</time>
      </trkpt>
      <trkpt lat="46.97566" lon="5.98448">
        <ele>601</ele>
        <time>2020-05-24T12:46:14.000Z</time>
      </trkpt>
      <trkpt lat="46.97565" lon="5.98445">
        <ele>600</ele>
        <time>2020-05-24T12:46:17.000Z</time>
      </trkpt>
      <trkpt lat="46.97565" lon="5.98442">
        <ele>600</ele>
        <time>2020-05-24T12:46:19.000Z</time>
      </trkpt>
      <trkpt lat="46.97565" lon="5.98439">
        <ele>600</ele>
        <time>2020-05-24T12:46:22.000Z</time>
      </trkpt>
      <trkpt lat="46.97564" lon="5.98437">
        <ele>598.91304347826</ele>
        <time>2020-05-24T12:46:24.000Z</time>
      </trkpt>
      <trkpt lat="46.97562" lon="5.98435">
        <ele>597</ele>
        <time>2020-05-24T12:46:26.000Z</time>
      </trkpt>
      <trkpt lat="46.97561" lon="5.98434">
        <ele>596</ele>
        <time>2020-05-24T12:46:28.000Z</time>
      </trkpt>
      <trkpt lat="46.97559" lon="5.98432">
        <ele>596</ele>
        <time>2020-05-24T12:46:30.000Z</time>
      </trkpt>
      <trkpt lat="46.97558" lon="5.9843">
        <ele>595.84</ele>
        <time>2020-05-24T12:46:32.000Z</time>
      </trkpt>
      <trkpt lat="46.97557" lon="5.98429">
        <ele>594</ele>
        <time>2020-05-24T12:46:34.000Z</time>
      </trkpt>
      <trkpt lat="46.97556" lon="5.98427">
        <ele>594</ele>
        <time>2020-05-24T12:46:36.000Z</time>
      </trkpt>
      <trkpt lat="46.97555" lon="5.98425">
        <ele>593.93332669634</ele>
        <time>2020-05-24T12:46:38.000Z</time>
      </trkpt>
      <trkpt lat="46.97553" lon="5.98422">
        <ele>592.94382361824</ele>
        <time>2020-05-24T12:46:41.000Z</time>
      </trkpt>
      <trkpt lat="46.97552" lon="5.98419">
        <ele>592</ele>
        <time>2020-05-24T12:46:44.000Z</time>
      </trkpt>
      <trkpt lat="46.97552" lon="5.98416">
        <ele>591.84466067678</ele>
        <time>2020-05-24T12:46:47.000Z</time>
      </trkpt>
      <trkpt lat="46.97551" lon="5.98413">
        <ele>591</ele>
        <time>2020-05-24T12:46:50.000Z</time>
      </trkpt>
      <trkpt lat="46.9755" lon="5.98411">
        <ele>590</ele>
        <time>2020-05-24T12:46:56.000Z</time>
      </trkpt>
      <trkpt lat="46.97549" lon="5.98408">
        <ele>590</ele>
        <time>2020-05-24T12:46:59.000Z</time>
      </trkpt>
      <trkpt lat="46.97548" lon="5.98406">
        <ele>590</ele>
        <time>2020-05-24T12:47:02.000Z</time>
      </trkpt>
      <trkpt lat="46.97548" lon="5.98402">
        <ele>589</ele>
        <time>2020-05-24T12:47:05.000Z</time>
      </trkpt>
      <trkpt lat="46.97548" lon="5.984">
        <ele>588.84</ele>
        <time>2020-05-24T12:47:08.000Z</time>
      </trkpt>
      <trkpt lat="46.97546" lon="5.98397">
        <ele>587</ele>
        <time>2020-05-24T12:47:10.000Z</time>
      </trkpt>
      <trkpt lat="46.97545" lon="5.98396">
        <ele>587</ele>
        <time>2020-05-24T12:47:12.000Z</time>
      </trkpt>
      <trkpt lat="46.97543" lon="5.98394">
        <ele>586.93332669634</ele>
        <time>2020-05-24T12:47:14.000Z</time>
      </trkpt>
      <trkpt lat="46.97542" lon="5.98391">
        <ele>585.90476142101</ele>
        <time>2020-05-24T12:47:16.000Z</time>
      </trkpt>
      <trkpt lat="46.97541" lon="5.98389">
        <ele>584.16</ele>
        <time>2020-05-24T12:47:18.000Z</time>
      </trkpt>
      <trkpt lat="46.97541" lon="5.98385">
        <ele>585</ele>
        <time>2020-05-24T12:47:20.000Z</time>
      </trkpt>
      <trkpt lat="46.97541" lon="5.98382">
        <ele>584</ele>
        <time>2020-05-24T12:47:23.000Z</time>
      </trkpt>
      <trkpt lat="46.97542" lon="5.98379">
        <ele>584</ele>
        <time>2020-05-24T12:47:26.000Z</time>
      </trkpt>
      <trkpt lat="46.97544" lon="5.98379">
        <ele>584</ele>
        <time>2020-05-24T12:47:32.000Z</time>
      </trkpt>
      <trkpt lat="46.97545" lon="5.98377">
        <ele>583</ele>
        <time>2020-05-24T12:47:35.000Z</time>
      </trkpt>
      <trkpt lat="46.97546" lon="5.98374">
        <ele>584</ele>
        <time>2020-05-24T12:47:39.000Z</time>
      </trkpt>
      <trkpt lat="46.97545" lon="5.98371">
        <ele>584</ele>
        <time>2020-05-24T12:47:41.000Z</time>
      </trkpt>
      <trkpt lat="46.97545" lon="5.98368">
        <ele>584</ele>
        <time>2020-05-24T12:47:44.000Z</time>
      </trkpt>
      <trkpt lat="46.97545" lon="5.98361">
        <ele>586</ele>
        <time>2020-05-24T12:47:49.000Z</time>
      </trkpt>
      <trkpt lat="46.97545" lon="5.98353">
        <ele>586</ele>
        <time>2020-05-24T12:47:53.000Z</time>
      </trkpt>
      <trkpt lat="46.97545" lon="5.98351">
        <ele>586</ele>
        <time>2020-05-24T12:47:55.000Z</time>
      </trkpt>
      <trkpt lat="46.97546" lon="5.98342">
        <ele>588</ele>
        <time>2020-05-24T12:48:02.000Z</time>
      </trkpt>
      <trkpt lat="46.97547" lon="5.98337">
        <ele>588.96521748809</ele>
        <time>2020-05-24T12:48:05.000Z</time>
      </trkpt>
      <trkpt lat="46.97547" lon="5.98334">
        <ele>589</ele>
        <time>2020-05-24T12:48:07.000Z</time>
      </trkpt>
      <trkpt lat="46.97547" lon="5.98331">
        <ele>589.16</ele>
        <time>2020-05-24T12:48:09.000Z</time>
      </trkpt>
      <trkpt lat="46.97546" lon="5.98328">
        <ele>590</ele>
        <time>2020-05-24T12:48:11.000Z</time>
      </trkpt>
      <trkpt lat="46.97545" lon="5.98325">
        <ele>590</ele>
        <time>2020-05-24T12:48:13.000Z</time>
      </trkpt>
      <trkpt lat="46.97545" lon="5.98323">
        <ele>590.16</ele>
        <time>2020-05-24T12:48:16.000Z</time>
      </trkpt>
      <trkpt lat="46.97545" lon="5.9832">
        <ele>591</ele>
        <time>2020-05-24T12:48:18.000Z</time>
      </trkpt>
      <trkpt lat="46.97545" lon="5.98318">
        <ele>591</ele>
        <time>2020-05-24T12:48:21.000Z</time>
      </trkpt>
      <trkpt lat="46.97543" lon="5.98314">
        <ele>591</ele>
        <time>2020-05-24T12:48:24.000Z</time>
      </trkpt>
      <trkpt lat="46.97543" lon="5.98312">
        <ele>591.13008096239</ele>
        <time>2020-05-24T12:48:26.000Z</time>
      </trkpt>
      <trkpt lat="46.97543" lon="5.98309">
        <ele>592.16</ele>
        <time>2020-05-24T12:48:29.000Z</time>
      </trkpt>
      <trkpt lat="46.97541" lon="5.98306">
        <ele>593</ele>
        <time>2020-05-24T12:48:32.000Z</time>
      </trkpt>
      <trkpt lat="46.97541" lon="5.98302">
        <ele>593</ele>
        <time>2020-05-24T12:48:35.000Z</time>
      </trkpt>
      <trkpt lat="46.9754" lon="5.983">
        <ele>593</ele>
        <time>2020-05-24T12:48:43.000Z</time>
      </trkpt>
      <trkpt lat="46.97539" lon="5.98297">
        <ele>594</ele>
        <time>2020-05-24T12:48:46.000Z</time>
      </trkpt>
      <trkpt lat="46.97538" lon="5.98293">
        <ele>595</ele>
        <time>2020-05-24T12:48:49.000Z</time>
      </trkpt>
      <trkpt lat="46.97537" lon="5.98291">
        <ele>595</ele>
        <time>2020-05-24T12:48:51.000Z</time>
      </trkpt>
      <trkpt lat="46.97536" lon="5.98288">
        <ele>595</ele>
        <time>2020-05-24T12:48:53.000Z</time>
      </trkpt>
      <trkpt lat="46.97536" lon="5.98285">
        <ele>595</ele>
        <time>2020-05-24T12:48:55.000Z</time>
      </trkpt>
      <trkpt lat="46.97536" lon="5.98282">
        <ele>595</ele>
        <time>2020-05-24T12:48:57.000Z</time>
      </trkpt>
      <trkpt lat="46.97535" lon="5.9828">
        <ele>595</ele>
        <time>2020-05-24T12:49:00.000Z</time>
      </trkpt>
      <trkpt lat="46.97533" lon="5.98266">
        <ele>599</ele>
        <time>2020-05-24T12:49:13.000Z</time>
      </trkpt>
      <trkpt lat="46.97533" lon="5.98259">
        <ele>599</ele>
        <time>2020-05-24T12:49:18.000Z</time>
      </trkpt>
      <trkpt lat="46.97532" lon="5.98256">
        <ele>599</ele>
        <time>2020-05-24T12:49:20.000Z</time>
      </trkpt>
      <trkpt lat="46.97531" lon="5.98253">
        <ele>599</ele>
        <time>2020-05-24T12:49:23.000Z</time>
      </trkpt>
      <trkpt lat="46.97531" lon="5.9825">
        <ele>600</ele>
        <time>2020-05-24T12:49:25.000Z</time>
      </trkpt>
      <trkpt lat="46.97531" lon="5.98247">
        <ele>601</ele>
        <time>2020-05-24T12:49:27.000Z</time>
      </trkpt>
      <trkpt lat="46.97531" lon="5.98244">
        <ele>602</ele>
        <time>2020-05-24T12:49:29.000Z</time>
      </trkpt>
      <trkpt lat="46.9753" lon="5.98241">
        <ele>602.15384615385</ele>
        <time>2020-05-24T12:49:31.000Z</time>
      </trkpt>
      <trkpt lat="46.97529" lon="5.98228">
        <ele>604</ele>
        <time>2020-05-24T12:49:41.000Z</time>
      </trkpt>
      <trkpt lat="46.97528" lon="5.98224">
        <ele>605</ele>
        <time>2020-05-24T12:49:44.000Z</time>
      </trkpt>
      <trkpt lat="46.97528" lon="5.98222">
        <ele>606</ele>
        <time>2020-05-24T12:49:47.000Z</time>
      </trkpt>
      <trkpt lat="46.97528" lon="5.98219">
        <ele>606</ele>
        <time>2020-05-24T12:49:49.000Z</time>
      </trkpt>
      <trkpt lat="46.97527" lon="5.98216">
        <ele>607</ele>
        <time>2020-05-24T12:49:51.000Z</time>
      </trkpt>
      <trkpt lat="46.97527" lon="5.98214">
        <ele>607</ele>
        <time>2020-05-24T12:49:53.000Z</time>
      </trkpt>
      <trkpt lat="46.97526" lon="5.98211">
        <ele>607</ele>
        <time>2020-05-24T12:49:56.000Z</time>
      </trkpt>
      <trkpt lat="46.97526" lon="5.98208">
        <ele>608</ele>
        <time>2020-05-24T12:49:58.000Z</time>
      </trkpt>
      <trkpt lat="46.97526" lon="5.98205">
        <ele>608</ele>
        <time>2020-05-24T12:50:01.000Z</time>
      </trkpt>
      <trkpt lat="46.97525" lon="5.98202">
        <ele>608</ele>
        <time>2020-05-24T12:50:03.000Z</time>
      </trkpt>
      <trkpt lat="46.97526" lon="5.98199">
        <ele>608</ele>
        <time>2020-05-24T12:50:06.000Z</time>
      </trkpt>
      <trkpt lat="46.97525" lon="5.98197">
        <ele>608</ele>
        <time>2020-05-24T12:50:08.000Z</time>
      </trkpt>
      <trkpt lat="46.97524" lon="5.98194">
        <ele>608</ele>
        <time>2020-05-24T12:50:10.000Z</time>
      </trkpt>
      <trkpt lat="46.97522" lon="5.9819">
        <ele>608</ele>
        <time>2020-05-24T12:50:14.000Z</time>
      </trkpt>
      <trkpt lat="46.97521" lon="5.98188">
        <ele>608</ele>
        <time>2020-05-24T12:50:16.000Z</time>
      </trkpt>
      <trkpt lat="46.97521" lon="5.98183">
        <ele>608</ele>
        <time>2020-05-24T12:50:19.000Z</time>
      </trkpt>
      <trkpt lat="46.97521" lon="5.98179">
        <ele>608.97272452233</ele>
        <time>2020-05-24T12:50:21.000Z</time>
      </trkpt>
      <trkpt lat="46.97521" lon="5.98174">
        <ele>611</ele>
        <time>2020-05-24T12:50:25.000Z</time>
      </trkpt>
      <trkpt lat="46.9752" lon="5.98171">
        <ele>611.05617638176</ele>
        <time>2020-05-24T12:50:27.000Z</time>
      </trkpt>
      <trkpt lat="46.9752" lon="5.98168">
        <ele>612</ele>
        <time>2020-05-24T12:50:29.000Z</time>
      </trkpt>
      <trkpt lat="46.97519" lon="5.98166">
        <ele>612</ele>
        <time>2020-05-24T12:50:31.000Z</time>
      </trkpt>
      <trkpt lat="46.9752" lon="5.98162">
        <ele>613</ele>
        <time>2020-05-24T12:50:36.000Z</time>
      </trkpt>
      <trkpt lat="46.9752" lon="5.98159">
        <ele>614</ele>
        <time>2020-05-24T12:50:38.000Z</time>
      </trkpt>
      <trkpt lat="46.9752" lon="5.98156">
        <ele>614</ele>
        <time>2020-05-24T12:50:40.000Z</time>
      </trkpt>
      <trkpt lat="46.9752" lon="5.98153">
        <ele>614</ele>
        <time>2020-05-24T12:50:42.000Z</time>
      </trkpt>
      <trkpt lat="46.9752" lon="5.98151">
        <ele>614.01136</ele>
        <time>2020-05-24T12:50:44.000Z</time>
      </trkpt>
      <trkpt lat="46.9752" lon="5.98138">
        <ele>617</ele>
        <time>2020-05-24T12:50:53.000Z</time>
      </trkpt>
      <trkpt lat="46.9752" lon="5.98124">
        <ele>618</ele>
        <time>2020-05-24T12:51:02.000Z</time>
      </trkpt>
      <trkpt lat="46.9752" lon="5.98121">
        <ele>618</ele>
        <time>2020-05-24T12:51:04.000Z</time>
      </trkpt>
      <trkpt lat="46.97521" lon="5.98117">
        <ele>619</ele>
        <time>2020-05-24T12:51:07.000Z</time>
      </trkpt>
      <trkpt lat="46.97521" lon="5.98114">
        <ele>620</ele>
        <time>2020-05-24T12:51:10.000Z</time>
      </trkpt>
      <trkpt lat="46.97521" lon="5.98112">
        <ele>620</ele>
        <time>2020-05-24T12:51:12.000Z</time>
      </trkpt>
      <trkpt lat="46.9752" lon="5.98109">
        <ele>620</ele>
        <time>2020-05-24T12:51:14.000Z</time>
      </trkpt>
      <trkpt lat="46.97519" lon="5.98106">
        <ele>620.75472153794</ele>
        <time>2020-05-24T12:51:16.000Z</time>
      </trkpt>
      <trkpt lat="46.97519" lon="5.98102">
        <ele>621.0363634248</ele>
        <time>2020-05-24T12:51:19.000Z</time>
      </trkpt>
      <trkpt lat="46.97519" lon="5.981">
        <ele>622</ele>
        <time>2020-05-24T12:51:21.000Z</time>
      </trkpt>
      <trkpt lat="46.97519" lon="5.98097">
        <ele>622</ele>
        <time>2020-05-24T12:51:23.000Z</time>
      </trkpt>
      <trkpt lat="46.97519" lon="5.98093">
        <ele>622.14953226308</ele>
        <time>2020-05-24T12:51:26.000Z</time>
      </trkpt>
      <trkpt lat="46.97519" lon="5.9809">
        <ele>623</ele>
        <time>2020-05-24T12:51:28.000Z</time>
      </trkpt>
      <trkpt lat="46.97519" lon="5.98087">
        <ele>623</ele>
        <time>2020-05-24T12:51:30.000Z</time>
      </trkpt>
      <trkpt lat="46.97519" lon="5.98084">
        <ele>624</ele>
        <time>2020-05-24T12:51:32.000Z</time>
      </trkpt>
      <trkpt lat="46.97518" lon="5.98082">
        <ele>624.88135115199</ele>
        <time>2020-05-24T12:51:34.000Z</time>
      </trkpt>
      <trkpt lat="46.97518" lon="5.98078">
        <ele>625</ele>
        <time>2020-05-24T12:51:37.000Z</time>
      </trkpt>
      <trkpt lat="46.97517" lon="5.98076">
        <ele>625</ele>
        <time>2020-05-24T12:51:39.000Z</time>
      </trkpt>
      <trkpt lat="46.97516" lon="5.98072">
        <ele>626</ele>
        <time>2020-05-24T12:51:42.000Z</time>
      </trkpt>
      <trkpt lat="46.97516" lon="5.9807">
        <ele>626</ele>
        <time>2020-05-24T12:51:44.000Z</time>
      </trkpt>
      <trkpt lat="46.97515" lon="5.98067">
        <ele>626</ele>
        <time>2020-05-24T12:51:46.000Z</time>
      </trkpt>
      <trkpt lat="46.97515" lon="5.98064">
        <ele>626</ele>
        <time>2020-05-24T12:51:48.000Z</time>
      </trkpt>
      <trkpt lat="46.97516" lon="5.98062">
        <ele>626</ele>
        <time>2020-05-24T12:51:50.000Z</time>
      </trkpt>
      <trkpt lat="46.97516" lon="5.98059">
        <ele>627</ele>
        <time>2020-05-24T12:51:53.000Z</time>
      </trkpt>
      <trkpt lat="46.97516" lon="5.98056">
        <ele>627</ele>
        <time>2020-05-24T12:51:55.000Z</time>
      </trkpt>
      <trkpt lat="46.97517" lon="5.98052">
        <ele>628</ele>
        <time>2020-05-24T12:51:58.000Z</time>
      </trkpt>
      <trkpt lat="46.97517" lon="5.98048">
        <ele>628</ele>
        <time>2020-05-24T12:52:00.000Z</time>
      </trkpt>
      <trkpt lat="46.97517" lon="5.98045">
        <ele>628.16</ele>
        <time>2020-05-24T12:52:02.000Z</time>
      </trkpt>
      <trkpt lat="46.97517" lon="5.98041">
        <ele>629.06611587733</ele>
        <time>2020-05-24T12:52:05.000Z</time>
      </trkpt>
      <trkpt lat="46.97516" lon="5.98038">
        <ele>630</ele>
        <time>2020-05-24T12:52:07.000Z</time>
      </trkpt>
      <trkpt lat="46.97517" lon="5.98035">
        <ele>630</ele>
        <time>2020-05-24T12:52:09.000Z</time>
      </trkpt>
      <trkpt lat="46.97517" lon="5.98032">
        <ele>630</ele>
        <time>2020-05-24T12:52:11.000Z</time>
      </trkpt>
      <trkpt lat="46.97517" lon="5.98028">
        <ele>631</ele>
        <time>2020-05-24T12:52:14.000Z</time>
      </trkpt>
      <trkpt lat="46.97516" lon="5.98025">
        <ele>631</ele>
        <time>2020-05-24T12:52:17.000Z</time>
      </trkpt>
      <trkpt lat="46.97515" lon="5.98021">
        <ele>632</ele>
        <time>2020-05-24T12:52:20.000Z</time>
      </trkpt>
      <trkpt lat="46.97515" lon="5.98018">
        <ele>632.16</ele>
        <time>2020-05-24T12:52:22.000Z</time>
      </trkpt>
      <trkpt lat="46.97517" lon="5.98008">
        <ele>634.12403131543</ele>
        <time>2020-05-24T12:52:30.000Z</time>
      </trkpt>
      <trkpt lat="46.97518" lon="5.98004">
        <ele>634</ele>
        <time>2020-05-24T12:52:32.000Z</time>
      </trkpt>
      <trkpt lat="46.97519" lon="5.98002">
        <ele>635</ele>
        <time>2020-05-24T12:52:34.000Z</time>
      </trkpt>
      <trkpt lat="46.97519" lon="5.97999">
        <ele>635.1192634694</ele>
        <time>2020-05-24T12:52:37.000Z</time>
      </trkpt>
      <trkpt lat="46.9752" lon="5.97995">
        <ele>636</ele>
        <time>2020-05-24T12:52:39.000Z</time>
      </trkpt>
      <trkpt lat="46.9752" lon="5.97992">
        <ele>636.14545539174</ele>
        <time>2020-05-24T12:52:41.000Z</time>
      </trkpt>
      <trkpt lat="46.97521" lon="5.97989">
        <ele>637</ele>
        <time>2020-05-24T12:52:44.000Z</time>
      </trkpt>
      <trkpt lat="46.97522" lon="5.97986">
        <ele>637</ele>
        <time>2020-05-24T12:52:46.000Z</time>
      </trkpt>
      <trkpt lat="46.97522" lon="5.97983">
        <ele>637.16</ele>
        <time>2020-05-24T12:52:48.000Z</time>
      </trkpt>
      <trkpt lat="46.97524" lon="5.97981">
        <ele>638</ele>
        <time>2020-05-24T12:52:50.000Z</time>
      </trkpt>
      <trkpt lat="46.97524" lon="5.97977">
        <ele>638</ele>
        <time>2020-05-24T12:52:52.000Z</time>
      </trkpt>
      <trkpt lat="46.97525" lon="5.97974">
        <ele>638.15384615385</ele>
        <time>2020-05-24T12:52:54.000Z</time>
      </trkpt>
      <trkpt lat="46.97527" lon="5.97971">
        <ele>640</ele>
        <time>2020-05-24T12:52:57.000Z</time>
      </trkpt>
      <trkpt lat="46.97528" lon="5.97969">
        <ele>640</ele>
        <time>2020-05-24T12:52:59.000Z</time>
      </trkpt>
      <trkpt lat="46.9753" lon="5.97965">
        <ele>640</ele>
        <time>2020-05-24T12:53:02.000Z</time>
      </trkpt>
      <trkpt lat="46.97531" lon="5.97963">
        <ele>640</ele>
        <time>2020-05-24T12:53:04.000Z</time>
      </trkpt>
      <trkpt lat="46.97532" lon="5.97958">
        <ele>641</ele>
        <time>2020-05-24T12:53:07.000Z</time>
      </trkpt>
      <trkpt lat="46.97531" lon="5.97955">
        <ele>641</ele>
        <time>2020-05-24T12:53:09.000Z</time>
      </trkpt>
      <trkpt lat="46.97531" lon="5.97951">
        <ele>640</ele>
        <time>2020-05-24T12:53:11.000Z</time>
      </trkpt>
      <trkpt lat="46.97531" lon="5.97948">
        <ele>641</ele>
        <time>2020-05-24T12:53:13.000Z</time>
      </trkpt>
      <trkpt lat="46.97531" lon="5.97945">
        <ele>641</ele>
        <time>2020-05-24T12:53:15.000Z</time>
      </trkpt>
      <trkpt lat="46.97531" lon="5.97942">
        <ele>641</ele>
        <time>2020-05-24T12:53:17.000Z</time>
      </trkpt>
      <trkpt lat="46.97531" lon="5.97938">
        <ele>641</ele>
        <time>2020-05-24T12:53:20.000Z</time>
      </trkpt>
      <trkpt lat="46.9753" lon="5.97934">
        <ele>642</ele>
        <time>2020-05-24T12:53:22.000Z</time>
      </trkpt>
      <trkpt lat="46.97529" lon="5.97931">
        <ele>642</ele>
        <time>2020-05-24T12:53:24.000Z</time>
      </trkpt>
      <trkpt lat="46.97529" lon="5.97929">
        <ele>643</ele>
        <time>2020-05-24T12:53:26.000Z</time>
      </trkpt>
      <trkpt lat="46.97529" lon="5.97926">
        <ele>643</ele>
        <time>2020-05-24T12:53:29.000Z</time>
      </trkpt>
      <trkpt lat="46.97529" lon="5.97923">
        <ele>643</ele>
        <time>2020-05-24T12:53:32.000Z</time>
      </trkpt>
      <trkpt lat="46.97528" lon="5.97919">
        <ele>643.1500032</ele>
        <time>2020-05-24T12:53:36.000Z</time>
      </trkpt>
      <trkpt lat="46.97526" lon="5.97918">
        <ele>643</ele>
        <time>2020-05-24T12:53:58.000Z</time>
      </trkpt>
      <trkpt lat="46.97527" lon="5.97921">
        <ele>644</ele>
        <time>2020-05-24T12:54:43.000Z</time>
      </trkpt>
      <trkpt lat="46.97528" lon="5.97917">
        <ele>643</ele>
        <time>2020-05-24T12:54:57.000Z</time>
      </trkpt>
      <trkpt lat="46.97527" lon="5.97914">
        <ele>643</ele>
        <time>2020-05-24T12:54:59.000Z</time>
      </trkpt>
      <trkpt lat="46.97527" lon="5.97912">
        <ele>643</ele>
        <time>2020-05-24T12:55:01.000Z</time>
      </trkpt>
      <trkpt lat="46.97527" lon="5.97909">
        <ele>643</ele>
        <time>2020-05-24T12:55:03.000Z</time>
      </trkpt>
      <trkpt lat="46.97526" lon="5.97905">
        <ele>643</ele>
        <time>2020-05-24T12:55:05.000Z</time>
      </trkpt>
      <trkpt lat="46.97525" lon="5.97903">
        <ele>642.9230736771</ele>
        <time>2020-05-24T12:55:07.000Z</time>
      </trkpt>
      <trkpt lat="46.97525" lon="5.97899">
        <ele>642</ele>
        <time>2020-05-24T12:55:09.000Z</time>
      </trkpt>
      <trkpt lat="46.97525" lon="5.97895">
        <ele>642</ele>
        <time>2020-05-24T12:55:11.000Z</time>
      </trkpt>
      <trkpt lat="46.97524" lon="5.97892">
        <ele>642</ele>
        <time>2020-05-24T12:55:13.000Z</time>
      </trkpt>
      <trkpt lat="46.97524" lon="5.97889">
        <ele>642</ele>
        <time>2020-05-24T12:55:15.000Z</time>
      </trkpt>
      <trkpt lat="46.97524" lon="5.97886">
        <ele>642</ele>
        <time>2020-05-24T12:55:17.000Z</time>
      </trkpt>
      <trkpt lat="46.97524" lon="5.97882">
        <ele>642</ele>
        <time>2020-05-24T12:55:19.000Z</time>
      </trkpt>
      <trkpt lat="46.97523" lon="5.97879">
        <ele>642</ele>
        <time>2020-05-24T12:55:21.000Z</time>
      </trkpt>
      <trkpt lat="46.97522" lon="5.97877">
        <ele>642</ele>
        <time>2020-05-24T12:55:23.000Z</time>
      </trkpt>
      <trkpt lat="46.97521" lon="5.97873">
        <ele>642</ele>
        <time>2020-05-24T12:55:25.000Z</time>
      </trkpt>
      <trkpt lat="46.97521" lon="5.9787">
        <ele>642</ele>
        <time>2020-05-24T12:55:27.000Z</time>
      </trkpt>
      <trkpt lat="46.9752" lon="5.97867">
        <ele>642</ele>
        <time>2020-05-24T12:55:29.000Z</time>
      </trkpt>
      <trkpt lat="46.97519" lon="5.97864">
        <ele>642</ele>
        <time>2020-05-24T12:55:32.000Z</time>
      </trkpt>
      <trkpt lat="46.97518" lon="5.97861">
        <ele>642</ele>
        <time>2020-05-24T12:55:34.000Z</time>
      </trkpt>
      <trkpt lat="46.97516" lon="5.97858">
        <ele>642</ele>
        <time>2020-05-24T12:55:36.000Z</time>
      </trkpt>
      <trkpt lat="46.97515" lon="5.97856">
        <ele>641</ele>
        <time>2020-05-24T12:55:38.000Z</time>
      </trkpt>
      <trkpt lat="46.97514" lon="5.97853">
        <ele>641</ele>
        <time>2020-05-24T12:55:40.000Z</time>
      </trkpt>
      <trkpt lat="46.97514" lon="5.9785">
        <ele>641</ele>
        <time>2020-05-24T12:55:42.000Z</time>
      </trkpt>
      <trkpt lat="46.97513" lon="5.97846">
        <ele>640</ele>
        <time>2020-05-24T12:55:45.000Z</time>
      </trkpt>
      <trkpt lat="46.97513" lon="5.97843">
        <ele>641</ele>
        <time>2020-05-24T12:55:47.000Z</time>
      </trkpt>
      <trkpt lat="46.97512" lon="5.9784">
        <ele>641</ele>
        <time>2020-05-24T12:55:49.000Z</time>
      </trkpt>
      <trkpt lat="46.9751" lon="5.97837">
        <ele>641</ele>
        <time>2020-05-24T12:55:51.000Z</time>
      </trkpt>
      <trkpt lat="46.97509" lon="5.97834">
        <ele>640</ele>
        <time>2020-05-24T12:55:53.000Z</time>
      </trkpt>
      <trkpt lat="46.97508" lon="5.9783">
        <ele>640.16</ele>
        <time>2020-05-24T12:55:55.000Z</time>
      </trkpt>
      <trkpt lat="46.97507" lon="5.97827">
        <ele>641</ele>
        <time>2020-05-24T12:55:57.000Z</time>
      </trkpt>
      <trkpt lat="46.97506" lon="5.97824">
        <ele>641</ele>
        <time>2020-05-24T12:56:00.000Z</time>
      </trkpt>
      <trkpt lat="46.97501" lon="5.97813">
        <ele>641</ele>
        <time>2020-05-24T12:56:10.000Z</time>
      </trkpt>
      <trkpt lat="46.97499" lon="5.97799">
        <ele>641</ele>
        <time>2020-05-24T12:56:17.000Z</time>
      </trkpt>
      <trkpt lat="46.97496" lon="5.97785">
        <ele>640</ele>
        <time>2020-05-24T12:56:21.000Z</time>
      </trkpt>
      <trkpt lat="46.97496" lon="5.97776">
        <ele>640</ele>
        <time>2020-05-24T12:56:25.000Z</time>
      </trkpt>
      <trkpt lat="46.97496" lon="5.97773">
        <ele>640</ele>
        <time>2020-05-24T12:56:27.000Z</time>
      </trkpt>
      <trkpt lat="46.97496" lon="5.9777">
        <ele>640</ele>
        <time>2020-05-24T12:56:29.000Z</time>
      </trkpt>
      <trkpt lat="46.97496" lon="5.97767">
        <ele>640</ele>
        <time>2020-05-24T12:56:31.000Z</time>
      </trkpt>
      <trkpt lat="46.97495" lon="5.97764">
        <ele>640</ele>
        <time>2020-05-24T12:56:33.000Z</time>
      </trkpt>
      <trkpt lat="46.97493" lon="5.97761">
        <ele>640</ele>
        <time>2020-05-24T12:56:35.000Z</time>
      </trkpt>
      <trkpt lat="46.97492" lon="5.97758">
        <ele>640</ele>
        <time>2020-05-24T12:56:37.000Z</time>
      </trkpt>
      <trkpt lat="46.97491" lon="5.97755">
        <ele>640</ele>
        <time>2020-05-24T12:56:39.000Z</time>
      </trkpt>
      <trkpt lat="46.97491" lon="5.97752">
        <ele>640</ele>
        <time>2020-05-24T12:56:41.000Z</time>
      </trkpt>
      <trkpt lat="46.9749" lon="5.97749">
        <ele>640</ele>
        <time>2020-05-24T12:56:43.000Z</time>
      </trkpt>
      <trkpt lat="46.9749" lon="5.97746">
        <ele>640.08661647467</ele>
        <time>2020-05-24T12:56:45.000Z</time>
      </trkpt>
      <trkpt lat="46.9749" lon="5.97742">
        <ele>641</ele>
        <time>2020-05-24T12:56:48.000Z</time>
      </trkpt>
      <trkpt lat="46.97489" lon="5.97738">
        <ele>641</ele>
        <time>2020-05-24T12:56:51.000Z</time>
      </trkpt>
      <trkpt lat="46.97489" lon="5.97735">
        <ele>641</ele>
        <time>2020-05-24T12:56:53.000Z</time>
      </trkpt>
      <trkpt lat="46.97488" lon="5.97731">
        <ele>641</ele>
        <time>2020-05-24T12:56:55.000Z</time>
      </trkpt>
      <trkpt lat="46.97488" lon="5.97727">
        <ele>641</ele>
        <time>2020-05-24T12:56:57.000Z</time>
      </trkpt>
      <trkpt lat="46.97487" lon="5.97723">
        <ele>641</ele>
        <time>2020-05-24T12:56:59.000Z</time>
      </trkpt>
      <trkpt lat="46.97486" lon="5.9772">
        <ele>641</ele>
        <time>2020-05-24T12:57:01.000Z</time>
      </trkpt>
      <trkpt lat="46.97485" lon="5.97717">
        <ele>640.85964991074</ele>
        <time>2020-05-24T12:57:03.000Z</time>
      </trkpt>
      <trkpt lat="46.97484" lon="5.97715">
        <ele>640</ele>
        <time>2020-05-24T12:57:05.000Z</time>
      </trkpt>
      <trkpt lat="46.97483" lon="5.97711">
        <ele>640.1441437286</ele>
        <time>2020-05-24T12:57:07.000Z</time>
      </trkpt>
      <trkpt lat="46.97484" lon="5.97708">
        <ele>641</ele>
        <time>2020-05-24T12:57:09.000Z</time>
      </trkpt>
      <trkpt lat="46.97483" lon="5.97705">
        <ele>641</ele>
        <time>2020-05-24T12:57:11.000Z</time>
      </trkpt>
      <trkpt lat="46.97483" lon="5.977">
        <ele>641</ele>
        <time>2020-05-24T12:57:13.000Z</time>
      </trkpt>
      <trkpt lat="46.97483" lon="5.97697">
        <ele>642</ele>
        <time>2020-05-24T12:57:15.000Z</time>
      </trkpt>
      <trkpt lat="46.97482" lon="5.97694">
        <ele>642</ele>
        <time>2020-05-24T12:57:17.000Z</time>
      </trkpt>
      <trkpt lat="46.97481" lon="5.97691">
        <ele>642</ele>
        <time>2020-05-24T12:57:19.000Z</time>
      </trkpt>
      <trkpt lat="46.97482" lon="5.97687">
        <ele>641.16</ele>
        <time>2020-05-24T12:57:22.000Z</time>
      </trkpt>
      <trkpt lat="46.97482" lon="5.97683">
        <ele>642</ele>
        <time>2020-05-24T12:57:24.000Z</time>
      </trkpt>
      <trkpt lat="46.97483" lon="5.9768">
        <ele>642</ele>
        <time>2020-05-24T12:57:26.000Z</time>
      </trkpt>
      <trkpt lat="46.97483" lon="5.97677">
        <ele>642</ele>
        <time>2020-05-24T12:57:28.000Z</time>
      </trkpt>
      <trkpt lat="46.97482" lon="5.97673">
        <ele>642</ele>
        <time>2020-05-24T12:57:30.000Z</time>
      </trkpt>
      <trkpt lat="46.97482" lon="5.9767">
        <ele>642</ele>
        <time>2020-05-24T12:57:32.000Z</time>
      </trkpt>
      <trkpt lat="46.97482" lon="5.97667">
        <ele>642</ele>
        <time>2020-05-24T12:57:34.000Z</time>
      </trkpt>
      <trkpt lat="46.97481" lon="5.97664">
        <ele>642</ele>
        <time>2020-05-24T12:57:36.000Z</time>
      </trkpt>
      <trkpt lat="46.97481" lon="5.97661">
        <ele>642</ele>
        <time>2020-05-24T12:57:38.000Z</time>
      </trkpt>
      <trkpt lat="46.97481" lon="5.97657">
        <ele>642</ele>
        <time>2020-05-24T12:57:40.000Z</time>
      </trkpt>
      <trkpt lat="46.97481" lon="5.97654">
        <ele>642</ele>
        <time>2020-05-24T12:57:42.000Z</time>
      </trkpt>
      <trkpt lat="46.97481" lon="5.9765">
        <ele>642</ele>
        <time>2020-05-24T12:57:44.000Z</time>
      </trkpt>
      <trkpt lat="46.9748" lon="5.97646">
        <ele>642</ele>
        <time>2020-05-24T12:57:46.000Z</time>
      </trkpt>
      <trkpt lat="46.97479" lon="5.97642">
        <ele>642</ele>
        <time>2020-05-24T12:57:48.000Z</time>
      </trkpt>
      <trkpt lat="46.97479" lon="5.97638">
        <ele>642</ele>
        <time>2020-05-24T12:57:50.000Z</time>
      </trkpt>
      <trkpt lat="46.97478" lon="5.97634">
        <ele>643</ele>
        <time>2020-05-24T12:57:52.000Z</time>
      </trkpt>
      <trkpt lat="46.97478" lon="5.9763">
        <ele>643</ele>
        <time>2020-05-24T12:57:54.000Z</time>
      </trkpt>
      <trkpt lat="46.97477" lon="5.97627">
        <ele>643</ele>
        <time>2020-05-24T12:57:55.000Z</time>
      </trkpt>
      <trkpt lat="46.97477" lon="5.97623">
        <ele>643.11579245207</ele>
        <time>2020-05-24T12:57:57.000Z</time>
      </trkpt>
      <trkpt lat="46.97476" lon="5.97621">
        <ele>644</ele>
        <time>2020-05-24T12:57:59.000Z</time>
      </trkpt>
      <trkpt lat="46.97477" lon="5.97618">
        <ele>644</ele>
        <time>2020-05-24T12:58:01.000Z</time>
      </trkpt>
      <trkpt lat="46.97476" lon="5.97615">
        <ele>644</ele>
        <time>2020-05-24T12:58:03.000Z</time>
      </trkpt>
      <trkpt lat="46.97476" lon="5.97611">
        <ele>644</ele>
        <time>2020-05-24T12:58:05.000Z</time>
      </trkpt>
      <trkpt lat="46.97475" lon="5.97608">
        <ele>645</ele>
        <time>2020-05-24T12:58:07.000Z</time>
      </trkpt>
      <trkpt lat="46.97474" lon="5.97605">
        <ele>645</ele>
        <time>2020-05-24T12:58:09.000Z</time>
      </trkpt>
      <trkpt lat="46.97473" lon="5.97602">
        <ele>645</ele>
        <time>2020-05-24T12:58:12.000Z</time>
      </trkpt>
      <trkpt lat="46.97473" lon="5.97599">
        <ele>645</ele>
        <time>2020-05-24T12:58:14.000Z</time>
      </trkpt>
      <trkpt lat="46.97472" lon="5.97595">
        <ele>644</ele>
        <time>2020-05-24T12:58:17.000Z</time>
      </trkpt>
      <trkpt lat="46.9747" lon="5.97582">
        <ele>645</ele>
        <time>2020-05-24T12:58:25.000Z</time>
      </trkpt>
      <trkpt lat="46.97468" lon="5.97578">
        <ele>645</ele>
        <time>2020-05-24T12:58:27.000Z</time>
      </trkpt>
      <trkpt lat="46.97467" lon="5.97575">
        <ele>644.88420754793</ele>
        <time>2020-05-24T12:58:29.000Z</time>
      </trkpt>
      <trkpt lat="46.97465" lon="5.97567">
        <ele>644</ele>
        <time>2020-05-24T12:58:34.000Z</time>
      </trkpt>
      <trkpt lat="46.97462" lon="5.97553">
        <ele>643</ele>
        <time>2020-05-24T12:58:43.000Z</time>
      </trkpt>
      <trkpt lat="46.97455" lon="5.97545">
        <ele>642</ele>
        <time>2020-05-24T12:58:49.000Z</time>
      </trkpt>
      <trkpt lat="46.97445" lon="5.97543">
        <ele>642</ele>
        <time>2020-05-24T12:58:55.000Z</time>
      </trkpt>
      <trkpt lat="46.97436" lon="5.97548">
        <ele>642</ele>
        <time>2020-05-24T12:59:02.000Z</time>
      </trkpt>
      <trkpt lat="46.97427" lon="5.97556">
        <ele>642</ele>
        <time>2020-05-24T12:59:09.000Z</time>
      </trkpt>
      <trkpt lat="46.97418" lon="5.97554">
        <ele>642</ele>
        <time>2020-05-24T12:59:23.000Z</time>
      </trkpt>
      <trkpt lat="46.97409" lon="5.97549">
        <ele>643</ele>
        <time>2020-05-24T12:59:32.000Z</time>
      </trkpt>
      <trkpt lat="46.97399" lon="5.97541">
        <ele>643.14545539174</ele>
        <time>2020-05-24T12:59:39.000Z</time>
      </trkpt>
      <trkpt lat="46.97391" lon="5.97535">
        <ele>646.16</ele>
        <time>2020-05-24T12:59:54.000Z</time>
      </trkpt>
      <trkpt lat="46.97384" lon="5.97546">
        <ele>647</ele>
        <time>2020-05-24T13:00:30.000Z</time>
      </trkpt>
      <trkpt lat="46.97378" lon="5.97536">
        <ele>649</ele>
        <time>2020-05-24T13:00:47.000Z</time>
      </trkpt>
      <trkpt lat="46.97372" lon="5.97527">
        <ele>653.88429314941</ele>
        <time>2020-05-24T13:01:04.000Z</time>
      </trkpt>
      <trkpt lat="46.97365" lon="5.97534">
        <ele>658</ele>
        <time>2020-05-24T13:01:20.000Z</time>
      </trkpt>
      <trkpt lat="46.97356" lon="5.97535">
        <ele>660</ele>
        <time>2020-05-24T13:01:30.000Z</time>
      </trkpt>
      <trkpt lat="46.9735" lon="5.97525">
        <ele>663</ele>
        <time>2020-05-24T13:01:50.000Z</time>
      </trkpt>
      <trkpt lat="46.97345" lon="5.97516">
        <ele>667</ele>
        <time>2020-05-24T13:02:13.000Z</time>
      </trkpt>
      <trkpt lat="46.97339" lon="5.97506">
        <ele>671</ele>
        <time>2020-05-24T13:02:30.000Z</time>
      </trkpt>
      <trkpt lat="46.97333" lon="5.97497">
        <ele>676</ele>
        <time>2020-05-24T13:02:49.000Z</time>
      </trkpt>
      <trkpt lat="46.97326" lon="5.97491">
        <ele>679</ele>
        <time>2020-05-24T13:03:03.000Z</time>
      </trkpt>
      <trkpt lat="46.97321" lon="5.97496">
        <ele>685</ele>
        <time>2020-05-24T13:03:24.000Z</time>
      </trkpt>
      <trkpt lat="46.97319" lon="5.97495">
        <ele>686</ele>
        <time>2020-05-24T13:03:31.000Z</time>
      </trkpt>
      <trkpt lat="46.97318" lon="5.97493">
        <ele>685</ele>
        <time>2020-05-24T13:04:02.000Z</time>
      </trkpt>
      <trkpt lat="46.97319" lon="5.97495">
        <ele>687</ele>
        <time>2020-05-24T13:05:16.000Z</time>
      </trkpt>
      <trkpt lat="46.9732" lon="5.97497">
        <ele>687</ele>
        <time>2020-05-24T13:05:19.000Z</time>
      </trkpt>
      <trkpt lat="46.97318" lon="5.97501">
        <ele>687</ele>
        <time>2020-05-24T13:05:22.000Z</time>
      </trkpt>
      <trkpt lat="46.97319" lon="5.97504">
        <ele>687</ele>
        <time>2020-05-24T13:05:24.000Z</time>
      </trkpt>
      <trkpt lat="46.97319" lon="5.97507">
        <ele>687</ele>
        <time>2020-05-24T13:05:25.000Z</time>
      </trkpt>
      <trkpt lat="46.97319" lon="5.97512">
        <ele>687</ele>
        <time>2020-05-24T13:05:27.000Z</time>
      </trkpt>
      <trkpt lat="46.97318" lon="5.97514">
        <ele>687</ele>
        <time>2020-05-24T13:05:29.000Z</time>
      </trkpt>
      <trkpt lat="46.97319" lon="5.97518">
        <ele>687</ele>
        <time>2020-05-24T13:05:32.000Z</time>
      </trkpt>
      <trkpt lat="46.97321" lon="5.97522">
        <ele>687</ele>
        <time>2020-05-24T13:05:34.000Z</time>
      </trkpt>
      <trkpt lat="46.97322" lon="5.97526">
        <ele>687</ele>
        <time>2020-05-24T13:05:36.000Z</time>
      </trkpt>
      <trkpt lat="46.97322" lon="5.97529">
        <ele>687</ele>
        <time>2020-05-24T13:05:39.000Z</time>
      </trkpt>
      <trkpt lat="46.97322" lon="5.97532">
        <ele>687</ele>
        <time>2020-05-24T13:05:43.000Z</time>
      </trkpt>
      <trkpt lat="46.97322" lon="5.97545">
        <ele>688</ele>
        <time>2020-05-24T13:05:52.000Z</time>
      </trkpt>
      <trkpt lat="46.97322" lon="5.9756">
        <ele>688.84</ele>
        <time>2020-05-24T13:06:01.000Z</time>
      </trkpt>
      <trkpt lat="46.97322" lon="5.97563">
        <ele>688</ele>
        <time>2020-05-24T13:06:03.000Z</time>
      </trkpt>
      <trkpt lat="46.97322" lon="5.97566">
        <ele>688</ele>
        <time>2020-05-24T13:06:05.000Z</time>
      </trkpt>
      <trkpt lat="46.97321" lon="5.97569">
        <ele>688.07499733333</ele>
        <time>2020-05-24T13:06:07.000Z</time>
      </trkpt>
      <trkpt lat="46.97321" lon="5.97572">
        <ele>689</ele>
        <time>2020-05-24T13:06:09.000Z</time>
      </trkpt>
      <trkpt lat="46.97322" lon="5.97576">
        <ele>689</ele>
        <time>2020-05-24T13:06:11.000Z</time>
      </trkpt>
      <trkpt lat="46.97322" lon="5.97579">
        <ele>689</ele>
        <time>2020-05-24T13:06:13.000Z</time>
      </trkpt>
      <trkpt lat="46.97323" lon="5.97582">
        <ele>689</ele>
        <time>2020-05-24T13:06:15.000Z</time>
      </trkpt>
      <trkpt lat="46.97323" lon="5.97591">
        <ele>689</ele>
        <time>2020-05-24T13:06:21.000Z</time>
      </trkpt>
      <trkpt lat="46.97323" lon="5.97595">
        <ele>689</ele>
        <time>2020-05-24T13:06:23.000Z</time>
      </trkpt>
      <trkpt lat="46.97322" lon="5.97601">
        <ele>689</ele>
        <time>2020-05-24T13:06:28.000Z</time>
      </trkpt>
      <trkpt lat="46.97321" lon="5.97604">
        <ele>689</ele>
        <time>2020-05-24T13:06:30.000Z</time>
      </trkpt>
      <trkpt lat="46.97319" lon="5.97607">
        <ele>689</ele>
        <time>2020-05-24T13:06:32.000Z</time>
      </trkpt>
      <trkpt lat="46.97317" lon="5.97608">
        <ele>689</ele>
        <time>2020-05-24T13:06:34.000Z</time>
      </trkpt>
      <trkpt lat="46.97316" lon="5.97611">
        <ele>689</ele>
        <time>2020-05-24T13:06:36.000Z</time>
      </trkpt>
      <trkpt lat="46.97314" lon="5.97614">
        <ele>689</ele>
        <time>2020-05-24T13:06:38.000Z</time>
      </trkpt>
      <trkpt lat="46.97312" lon="5.97615">
        <ele>689</ele>
        <time>2020-05-24T13:06:40.000Z</time>
      </trkpt>
      <trkpt lat="46.9731" lon="5.97618">
        <ele>689</ele>
        <time>2020-05-24T13:06:42.000Z</time>
      </trkpt>
      <trkpt lat="46.97308" lon="5.9762">
        <ele>689.14285714286</ele>
        <time>2020-05-24T13:06:44.000Z</time>
      </trkpt>
      <trkpt lat="46.97307" lon="5.97623">
        <ele>690</ele>
        <time>2020-05-24T13:06:46.000Z</time>
      </trkpt>
      <trkpt lat="46.97305" lon="5.97625">
        <ele>690</ele>
        <time>2020-05-24T13:06:48.000Z</time>
      </trkpt>
      <trkpt lat="46.97304" lon="5.97627">
        <ele>690</ele>
        <time>2020-05-24T13:06:50.000Z</time>
      </trkpt>
      <trkpt lat="46.97302" lon="5.97629">
        <ele>690</ele>
        <time>2020-05-24T13:06:52.000Z</time>
      </trkpt>
      <trkpt lat="46.97301" lon="5.97633">
        <ele>690</ele>
        <time>2020-05-24T13:06:54.000Z</time>
      </trkpt>
      <trkpt lat="46.973" lon="5.97636">
        <ele>690</ele>
        <time>2020-05-24T13:06:56.000Z</time>
      </trkpt>
      <trkpt lat="46.973" lon="5.97639">
        <ele>690</ele>
        <time>2020-05-24T13:06:58.000Z</time>
      </trkpt>
      <trkpt lat="46.97299" lon="5.97642">
        <ele>690</ele>
        <time>2020-05-24T13:07:01.000Z</time>
      </trkpt>
      <trkpt lat="46.97299" lon="5.97644">
        <ele>690</ele>
        <time>2020-05-24T13:07:03.000Z</time>
      </trkpt>
      <trkpt lat="46.97298" lon="5.97646">
        <ele>689</ele>
        <time>2020-05-24T13:07:22.000Z</time>
      </trkpt>
      <trkpt lat="46.97296" lon="5.97647">
        <ele>688</ele>
        <time>2020-05-24T13:07:26.000Z</time>
      </trkpt>
      <trkpt lat="46.97294" lon="5.97648">
        <ele>688.09677108566</ele>
        <time>2020-05-24T13:07:28.000Z</time>
      </trkpt>
      <trkpt lat="46.97292" lon="5.97648">
        <ele>689</ele>
        <time>2020-05-24T13:07:29.000Z</time>
      </trkpt>
      <trkpt lat="46.97289" lon="5.97647">
        <ele>688</ele>
        <time>2020-05-24T13:07:31.000Z</time>
      </trkpt>
      <trkpt lat="46.97287" lon="5.97647">
        <ele>688</ele>
        <time>2020-05-24T13:07:33.000Z</time>
      </trkpt>
      <trkpt lat="46.97285" lon="5.97647">
        <ele>688</ele>
        <time>2020-05-24T13:07:35.000Z</time>
      </trkpt>
      <trkpt lat="46.97283" lon="5.97646">
        <ele>688</ele>
        <time>2020-05-24T13:07:38.000Z</time>
      </trkpt>
      <trkpt lat="46.9728" lon="5.97645">
        <ele>687.8558562714</ele>
        <time>2020-05-24T13:07:41.000Z</time>
      </trkpt>
      <trkpt lat="46.97278" lon="5.97645">
        <ele>687</ele>
        <time>2020-05-24T13:07:44.000Z</time>
      </trkpt>
      <trkpt lat="46.97276" lon="5.97643">
        <ele>687</ele>
        <time>2020-05-24T13:07:46.000Z</time>
      </trkpt>
      <trkpt lat="46.97274" lon="5.97644">
        <ele>687</ele>
        <time>2020-05-24T13:07:48.000Z</time>
      </trkpt>
      <trkpt lat="46.97272" lon="5.97645">
        <ele>687</ele>
        <time>2020-05-24T13:07:50.000Z</time>
      </trkpt>
      <trkpt lat="46.9727" lon="5.97646">
        <ele>687</ele>
        <time>2020-05-24T13:07:52.000Z</time>
      </trkpt>
      <trkpt lat="46.97268" lon="5.97648">
        <ele>687</ele>
        <time>2020-05-24T13:07:54.000Z</time>
      </trkpt>
      <trkpt lat="46.97266" lon="5.97649">
        <ele>686</ele>
        <time>2020-05-24T13:07:56.000Z</time>
      </trkpt>
      <trkpt lat="46.97264" lon="5.9765">
        <ele>686</ele>
        <time>2020-05-24T13:07:58.000Z</time>
      </trkpt>
      <trkpt lat="46.97262" lon="5.97652">
        <ele>685</ele>
        <time>2020-05-24T13:08:01.000Z</time>
      </trkpt>
      <trkpt lat="46.9726" lon="5.97653">
        <ele>685</ele>
        <time>2020-05-24T13:08:03.000Z</time>
      </trkpt>
      <trkpt lat="46.97258" lon="5.97653">
        <ele>685</ele>
        <time>2020-05-24T13:08:06.000Z</time>
      </trkpt>
      <trkpt lat="46.97256" lon="5.97652">
        <ele>685</ele>
        <time>2020-05-24T13:08:09.000Z</time>
      </trkpt>
      <trkpt lat="46.97254" lon="5.97652">
        <ele>685</ele>
        <time>2020-05-24T13:08:11.000Z</time>
      </trkpt>
      <trkpt lat="46.97252" lon="5.97651">
        <ele>684</ele>
        <time>2020-05-24T13:08:13.000Z</time>
      </trkpt>
      <trkpt lat="46.9725" lon="5.97652">
        <ele>684</ele>
        <time>2020-05-24T13:08:15.000Z</time>
      </trkpt>
      <trkpt lat="46.97248" lon="5.97652">
        <ele>684</ele>
        <time>2020-05-24T13:08:17.000Z</time>
      </trkpt>
      <trkpt lat="46.97246" lon="5.97652">
        <ele>684</ele>
        <time>2020-05-24T13:08:19.000Z</time>
      </trkpt>
      <trkpt lat="46.97243" lon="5.9765">
        <ele>684</ele>
        <time>2020-05-24T13:08:21.000Z</time>
      </trkpt>
      <trkpt lat="46.97242" lon="5.97649">
        <ele>684</ele>
        <time>2020-05-24T13:08:23.000Z</time>
      </trkpt>
      <trkpt lat="46.97239" lon="5.97648">
        <ele>684</ele>
        <time>2020-05-24T13:08:26.000Z</time>
      </trkpt>
      <trkpt lat="46.97238" lon="5.97647">
        <ele>683.9230736771</ele>
        <time>2020-05-24T13:08:28.000Z</time>
      </trkpt>
      <trkpt lat="46.97235" lon="5.97647">
        <ele>683</ele>
        <time>2020-05-24T13:08:30.000Z</time>
      </trkpt>
      <trkpt lat="46.97233" lon="5.97645">
        <ele>682</ele>
        <time>2020-05-24T13:08:34.000Z</time>
      </trkpt>
      <trkpt lat="46.97231" lon="5.97645">
        <ele>681</ele>
        <time>2020-05-24T13:08:36.000Z</time>
      </trkpt>
      <trkpt lat="46.97226" lon="5.97643">
        <ele>680</ele>
        <time>2020-05-24T13:08:41.000Z</time>
      </trkpt>
      <trkpt lat="46.97224" lon="5.97643">
        <ele>680</ele>
        <time>2020-05-24T13:08:43.000Z</time>
      </trkpt>
      <trkpt lat="46.97222" lon="5.97642">
        <ele>680</ele>
        <time>2020-05-24T13:08:45.000Z</time>
      </trkpt>
      <trkpt lat="46.9722" lon="5.97641">
        <ele>679</ele>
        <time>2020-05-24T13:08:47.000Z</time>
      </trkpt>
      <trkpt lat="46.97218" lon="5.97641">
        <ele>679</ele>
        <time>2020-05-24T13:08:50.000Z</time>
      </trkpt>
      <trkpt lat="46.97216" lon="5.97641">
        <ele>679</ele>
        <time>2020-05-24T13:08:53.000Z</time>
      </trkpt>
      <trkpt lat="46.97215" lon="5.97638">
        <ele>678</ele>
        <time>2020-05-24T13:08:57.000Z</time>
      </trkpt>
      <trkpt lat="46.97214" lon="5.97636">
        <ele>678</ele>
        <time>2020-05-24T13:08:59.000Z</time>
      </trkpt>
      <trkpt lat="46.97212" lon="5.97633">
        <ele>678</ele>
        <time>2020-05-24T13:09:02.000Z</time>
      </trkpt>
      <trkpt lat="46.97211" lon="5.9763">
        <ele>678</ele>
        <time>2020-05-24T13:09:04.000Z</time>
      </trkpt>
      <trkpt lat="46.97209" lon="5.97629">
        <ele>678.84</ele>
        <time>2020-05-24T13:09:06.000Z</time>
      </trkpt>
      <trkpt lat="46.97205" lon="5.97626">
        <ele>677</ele>
        <time>2020-05-24T13:09:11.000Z</time>
      </trkpt>
      <trkpt lat="46.97198" lon="5.97616">
        <ele>677</ele>
        <time>2020-05-24T13:09:20.000Z</time>
      </trkpt>
      <trkpt lat="46.97193" lon="5.97611">
        <ele>676</ele>
        <time>2020-05-24T13:09:26.000Z</time>
      </trkpt>
      <trkpt lat="46.97189" lon="5.97604">
        <ele>676</ele>
        <time>2020-05-24T13:09:32.000Z</time>
      </trkpt>
      <trkpt lat="46.97181" lon="5.97596">
        <ele>674</ele>
        <time>2020-05-24T13:09:42.000Z</time>
      </trkpt>
      <trkpt lat="46.97178" lon="5.97591">
        <ele>674</ele>
        <time>2020-05-24T13:09:45.000Z</time>
      </trkpt>
      <trkpt lat="46.97174" lon="5.9758">
        <ele>674</ele>
        <time>2020-05-24T13:09:53.000Z</time>
      </trkpt>
      <trkpt lat="46.97166" lon="5.97571">
        <ele>674</ele>
        <time>2020-05-24T13:10:00.000Z</time>
      </trkpt>
      <trkpt lat="46.97159" lon="5.97561">
        <ele>673</ele>
        <time>2020-05-24T13:10:09.000Z</time>
      </trkpt>
      <trkpt lat="46.97155" lon="5.97554">
        <ele>672</ele>
        <time>2020-05-24T13:10:16.000Z</time>
      </trkpt>
      <trkpt lat="46.97153" lon="5.97551">
        <ele>672</ele>
        <time>2020-05-24T13:10:19.000Z</time>
      </trkpt>
      <trkpt lat="46.97146" lon="5.97539">
        <ele>670</ele>
        <time>2020-05-24T13:10:28.000Z</time>
      </trkpt>
      <trkpt lat="46.97139" lon="5.97536">
        <ele>670</ele>
        <time>2020-05-24T13:10:36.000Z</time>
      </trkpt>
      <trkpt lat="46.97138" lon="5.97538">
        <ele>671</ele>
        <time>2020-05-24T13:10:46.000Z</time>
      </trkpt>
      <trkpt lat="46.97136" lon="5.97541">
        <ele>669</ele>
        <time>2020-05-24T13:10:48.000Z</time>
      </trkpt>
      <trkpt lat="46.97138" lon="5.97543">
        <ele>669</ele>
        <time>2020-05-24T13:10:50.000Z</time>
      </trkpt>
      <trkpt lat="46.97139" lon="5.97545">
        <ele>669</ele>
        <time>2020-05-24T13:10:53.000Z</time>
      </trkpt>
      <trkpt lat="46.97139" lon="5.97548">
        <ele>668.84905569241</ele>
        <time>2020-05-24T13:11:00.000Z</time>
      </trkpt>
      <trkpt lat="46.97139" lon="5.97549">
        <ele>666</ele>
        <time>2020-05-24T13:11:04.000Z</time>
      </trkpt>
      <trkpt lat="46.97138" lon="5.97552">
        <ele>664.9230736771</ele>
        <time>2020-05-24T13:11:10.000Z</time>
      </trkpt>
      <trkpt lat="46.97137" lon="5.97553">
        <ele>664</ele>
        <time>2020-05-24T13:11:13.000Z</time>
      </trkpt>
      <trkpt lat="46.97136" lon="5.97554">
        <ele>663.84</ele>
        <time>2020-05-24T13:11:23.000Z</time>
      </trkpt>
      <trkpt lat="46.97136" lon="5.97555">
        <ele>662.91304347826</ele>
        <time>2020-05-24T13:11:26.000Z</time>
      </trkpt>
      <trkpt lat="46.97137" lon="5.97558">
        <ele>660.89115669952</ele>
        <time>2020-05-24T13:11:29.000Z</time>
      </trkpt>
      <trkpt lat="46.97137" lon="5.97561">
        <ele>660</ele>
        <time>2020-05-24T13:11:31.000Z</time>
      </trkpt>
      <trkpt lat="46.97135" lon="5.97562">
        <ele>659.08661647467</ele>
        <time>2020-05-24T13:11:35.000Z</time>
      </trkpt>
      <trkpt lat="46.97134" lon="5.97565">
        <ele>659</ele>
        <time>2020-05-24T13:11:40.000Z</time>
      </trkpt>
      <trkpt lat="46.97134" lon="5.97568">
        <ele>657.86776824534</ele>
        <time>2020-05-24T13:11:43.000Z</time>
      </trkpt>
      <trkpt lat="46.97134" lon="5.97572">
        <ele>657</ele>
        <time>2020-05-24T13:11:45.000Z</time>
      </trkpt>
      <trkpt lat="46.97135" lon="5.97575">
        <ele>656</ele>
        <time>2020-05-24T13:11:48.000Z</time>
      </trkpt>
      <trkpt lat="46.97137" lon="5.97577">
        <ele>656</ele>
        <time>2020-05-24T13:11:51.000Z</time>
      </trkpt>
      <trkpt lat="46.97135" lon="5.97578">
        <ele>655</ele>
        <time>2020-05-24T13:11:56.000Z</time>
      </trkpt>
      <trkpt lat="46.97135" lon="5.97581">
        <ele>655</ele>
        <time>2020-05-24T13:11:59.000Z</time>
      </trkpt>
      <trkpt lat="46.97136" lon="5.97583">
        <ele>655</ele>
        <time>2020-05-24T13:12:14.000Z</time>
      </trkpt>
      <trkpt lat="46.97135" lon="5.97581">
        <ele>655</ele>
        <time>2020-05-24T13:12:19.000Z</time>
      </trkpt>
      <trkpt lat="46.97135" lon="5.97578">
        <ele>655.16</ele>
        <time>2020-05-24T13:12:21.000Z</time>
      </trkpt>
      <trkpt lat="46.97135" lon="5.97573">
        <ele>656</ele>
        <time>2020-05-24T13:12:23.000Z</time>
      </trkpt>
      <trkpt lat="46.97136" lon="5.97571">
        <ele>656</ele>
        <time>2020-05-24T13:12:27.000Z</time>
      </trkpt>
      <trkpt lat="46.97139" lon="5.97571">
        <ele>656</ele>
        <time>2020-05-24T13:12:30.000Z</time>
      </trkpt>
      <trkpt lat="46.97137" lon="5.97566">
        <ele>658</ele>
        <time>2020-05-24T13:12:35.000Z</time>
      </trkpt>
      <trkpt lat="46.97141" lon="5.97567">
        <ele>661</ele>
        <time>2020-05-24T13:12:44.000Z</time>
      </trkpt>
      <trkpt lat="46.97142" lon="5.97566">
        <ele>661</ele>
        <time>2020-05-24T13:12:46.000Z</time>
      </trkpt>
      <trkpt lat="46.97144" lon="5.97554">
        <ele>665</ele>
        <time>2020-05-24T13:13:00.000Z</time>
      </trkpt>
      <trkpt lat="46.97144" lon="5.97549">
        <ele>667.16</ele>
        <time>2020-05-24T13:13:07.000Z</time>
      </trkpt>
      <trkpt lat="46.97144" lon="5.97542">
        <ele>670</ele>
        <time>2020-05-24T13:13:15.000Z</time>
      </trkpt>
      <trkpt lat="46.97146" lon="5.9754">
        <ele>670</ele>
        <time>2020-05-24T13:13:18.000Z</time>
      </trkpt>
      <trkpt lat="46.97149" lon="5.97534">
        <ele>671</ele>
        <time>2020-05-24T13:13:36.000Z</time>
      </trkpt>
      <trkpt lat="46.97149" lon="5.9752">
        <ele>670</ele>
        <time>2020-05-24T13:13:50.000Z</time>
      </trkpt>
      <trkpt lat="46.97151" lon="5.97507">
        <ele>670</ele>
        <time>2020-05-24T13:13:59.000Z</time>
      </trkpt>
      <trkpt lat="46.97159" lon="5.97499">
        <ele>670</ele>
        <time>2020-05-24T13:14:10.000Z</time>
      </trkpt>
      <trkpt lat="46.97162" lon="5.97485">
        <ele>671</ele>
        <time>2020-05-24T13:14:21.000Z</time>
      </trkpt>
      <trkpt lat="46.97168" lon="5.97474">
        <ele>671</ele>
        <time>2020-05-24T13:14:28.000Z</time>
      </trkpt>
      <trkpt lat="46.97172" lon="5.97462">
        <ele>671</ele>
        <time>2020-05-24T13:14:36.000Z</time>
      </trkpt>
      <trkpt lat="46.97174" lon="5.97448">
        <ele>672</ele>
        <time>2020-05-24T13:14:43.000Z</time>
      </trkpt>
      <trkpt lat="46.97175" lon="5.97435">
        <ele>672</ele>
        <time>2020-05-24T13:14:53.000Z</time>
      </trkpt>
      <trkpt lat="46.97174" lon="5.97432">
        <ele>672</ele>
        <time>2020-05-24T13:14:56.000Z</time>
      </trkpt>
      <trkpt lat="46.97173" lon="5.97419">
        <ele>672</ele>
        <time>2020-05-24T13:15:04.000Z</time>
      </trkpt>
      <trkpt lat="46.97173" lon="5.97415">
        <ele>672</ele>
        <time>2020-05-24T13:15:06.000Z</time>
      </trkpt>
      <trkpt lat="46.97173" lon="5.97408">
        <ele>672</ele>
        <time>2020-05-24T13:15:10.000Z</time>
      </trkpt>
      <trkpt lat="46.97171" lon="5.97407">
        <ele>673</ele>
        <time>2020-05-24T13:15:15.000Z</time>
      </trkpt>
      <trkpt lat="46.9717" lon="5.9741">
        <ele>673</ele>
        <time>2020-05-24T13:15:17.000Z</time>
      </trkpt>
      <trkpt lat="46.97169" lon="5.97413">
        <ele>673</ele>
        <time>2020-05-24T13:15:19.000Z</time>
      </trkpt>
      <trkpt lat="46.97168" lon="5.97416">
        <ele>673</ele>
        <time>2020-05-24T13:15:21.000Z</time>
      </trkpt>
      <trkpt lat="46.97168" lon="5.97419">
        <ele>673</ele>
        <time>2020-05-24T13:15:23.000Z</time>
      </trkpt>
      <trkpt lat="46.97168" lon="5.97424">
        <ele>673</ele>
        <time>2020-05-24T13:15:25.000Z</time>
      </trkpt>
      <trkpt lat="46.97168" lon="5.97428">
        <ele>673</ele>
        <time>2020-05-24T13:15:27.000Z</time>
      </trkpt>
      <trkpt lat="46.97168" lon="5.97432">
        <ele>672</ele>
        <time>2020-05-24T13:15:29.000Z</time>
      </trkpt>
      <trkpt lat="46.97168" lon="5.97436">
        <ele>672</ele>
        <time>2020-05-24T13:15:31.000Z</time>
      </trkpt>
      <trkpt lat="46.97168" lon="5.9744">
        <ele>672</ele>
        <time>2020-05-24T13:15:33.000Z</time>
      </trkpt>
      <trkpt lat="46.97168" lon="5.97443">
        <ele>672</ele>
        <time>2020-05-24T13:15:35.000Z</time>
      </trkpt>
      <trkpt lat="46.97167" lon="5.97446">
        <ele>671.93333333333</ele>
        <time>2020-05-24T13:15:37.000Z</time>
      </trkpt>
      <trkpt lat="46.97167" lon="5.97449">
        <ele>671.69841624592</ele>
        <time>2020-05-24T13:15:39.000Z</time>
      </trkpt>
      <trkpt lat="46.97166" lon="5.97452">
        <ele>672</ele>
        <time>2020-05-24T13:15:41.000Z</time>
      </trkpt>
      <trkpt lat="46.97165" lon="5.97455">
        <ele>672</ele>
        <time>2020-05-24T13:15:44.000Z</time>
      </trkpt>
      <trkpt lat="46.97164" lon="5.97458">
        <ele>672</ele>
        <time>2020-05-24T13:15:46.000Z</time>
      </trkpt>
      <trkpt lat="46.97164" lon="5.97461">
        <ele>672</ele>
        <time>2020-05-24T13:15:48.000Z</time>
      </trkpt>
      <trkpt lat="46.97162" lon="5.97464">
        <ele>672</ele>
        <time>2020-05-24T13:15:50.000Z</time>
      </trkpt>
      <trkpt lat="46.9716" lon="5.97467">
        <ele>671</ele>
        <time>2020-05-24T13:15:52.000Z</time>
      </trkpt>
      <trkpt lat="46.97158" lon="5.97471">
        <ele>671</ele>
        <time>2020-05-24T13:15:54.000Z</time>
      </trkpt>
      <trkpt lat="46.97156" lon="5.97473">
        <ele>671</ele>
        <time>2020-05-24T13:15:56.000Z</time>
      </trkpt>
      <trkpt lat="46.97153" lon="5.97475">
        <ele>671</ele>
        <time>2020-05-24T13:15:58.000Z</time>
      </trkpt>
      <trkpt lat="46.97152" lon="5.97478">
        <ele>671</ele>
        <time>2020-05-24T13:16:00.000Z</time>
      </trkpt>
      <trkpt lat="46.97151" lon="5.97481">
        <ele>670</ele>
        <time>2020-05-24T13:16:02.000Z</time>
      </trkpt>
      <trkpt lat="46.97152" lon="5.97484">
        <ele>670</ele>
        <time>2020-05-24T13:16:04.000Z</time>
      </trkpt>
      <trkpt lat="46.97151" lon="5.97487">
        <ele>670</ele>
        <time>2020-05-24T13:16:06.000Z</time>
      </trkpt>
      <trkpt lat="46.9715" lon="5.9749">
        <ele>670</ele>
        <time>2020-05-24T13:16:08.000Z</time>
      </trkpt>
      <trkpt lat="46.97143" lon="5.97501">
        <ele>670</ele>
        <time>2020-05-24T13:16:15.000Z</time>
      </trkpt>
      <trkpt lat="46.97142" lon="5.97504">
        <ele>670</ele>
        <time>2020-05-24T13:16:17.000Z</time>
      </trkpt>
      <trkpt lat="46.97141" lon="5.97508">
        <ele>670</ele>
        <time>2020-05-24T13:16:19.000Z</time>
      </trkpt>
      <trkpt lat="46.9714" lon="5.97511">
        <ele>670</ele>
        <time>2020-05-24T13:16:21.000Z</time>
      </trkpt>
      <trkpt lat="46.97139" lon="5.97515">
        <ele>670</ele>
        <time>2020-05-24T13:16:23.000Z</time>
      </trkpt>
      <trkpt lat="46.97139" lon="5.97518">
        <ele>670</ele>
        <time>2020-05-24T13:16:25.000Z</time>
      </trkpt>
      <trkpt lat="46.97139" lon="5.97521">
        <ele>670</ele>
        <time>2020-05-24T13:16:27.000Z</time>
      </trkpt>
      <trkpt lat="46.97137" lon="5.97522">
        <ele>670</ele>
        <time>2020-05-24T13:16:38.000Z</time>
      </trkpt>
      <trkpt lat="46.97137" lon="5.97525">
        <ele>671</ele>
        <time>2020-05-24T13:16:41.000Z</time>
      </trkpt>
      <trkpt lat="46.97137" lon="5.97528">
        <ele>671</ele>
        <time>2020-05-24T13:16:43.000Z</time>
      </trkpt>
      <trkpt lat="46.97137" lon="5.9753">
        <ele>671</ele>
        <time>2020-05-24T13:16:45.000Z</time>
      </trkpt>
      <trkpt lat="46.97135" lon="5.97528">
        <ele>671</ele>
        <time>2020-05-24T13:16:54.000Z</time>
      </trkpt>
      <trkpt lat="46.97133" lon="5.97529">
        <ele>671</ele>
        <time>2020-05-24T13:16:56.000Z</time>
      </trkpt>
      <trkpt lat="46.97131" lon="5.97528">
        <ele>671.15238141678</ele>
        <time>2020-05-24T13:16:58.000Z</time>
      </trkpt>
      <trkpt lat="46.97129" lon="5.97526">
        <ele>672</ele>
        <time>2020-05-24T13:17:00.000Z</time>
      </trkpt>
      <trkpt lat="46.97127" lon="5.97524">
        <ele>672</ele>
        <time>2020-05-24T13:17:02.000Z</time>
      </trkpt>
      <trkpt lat="46.97126" lon="5.97522">
        <ele>672</ele>
        <time>2020-05-24T13:17:05.000Z</time>
      </trkpt>
      <trkpt lat="46.97125" lon="5.97519">
        <ele>672</ele>
        <time>2020-05-24T13:17:08.000Z</time>
      </trkpt>
      <trkpt lat="46.97123" lon="5.97517">
        <ele>672</ele>
        <time>2020-05-24T13:17:11.000Z</time>
      </trkpt>
      <trkpt lat="46.97121" lon="5.97514">
        <ele>672</ele>
        <time>2020-05-24T13:17:13.000Z</time>
      </trkpt>
      <trkpt lat="46.9712" lon="5.97511">
        <ele>672</ele>
        <time>2020-05-24T13:17:15.000Z</time>
      </trkpt>
      <trkpt lat="46.97119" lon="5.97509">
        <ele>672</ele>
        <time>2020-05-24T13:17:17.000Z</time>
      </trkpt>
      <trkpt lat="46.97117" lon="5.97506">
        <ele>672</ele>
        <time>2020-05-24T13:17:20.000Z</time>
      </trkpt>
      <trkpt lat="46.97115" lon="5.97504">
        <ele>672</ele>
        <time>2020-05-24T13:17:23.000Z</time>
      </trkpt>
      <trkpt lat="46.97114" lon="5.97502">
        <ele>672</ele>
        <time>2020-05-24T13:17:26.000Z</time>
      </trkpt>
      <trkpt lat="46.97112" lon="5.975">
        <ele>672</ele>
        <time>2020-05-24T13:17:28.000Z</time>
      </trkpt>
      <trkpt lat="46.9711" lon="5.97497">
        <ele>672</ele>
        <time>2020-05-24T13:17:30.000Z</time>
      </trkpt>
      <trkpt lat="46.97108" lon="5.97495">
        <ele>672</ele>
        <time>2020-05-24T13:17:32.000Z</time>
      </trkpt>
      <trkpt lat="46.97107" lon="5.97493">
        <ele>672</ele>
        <time>2020-05-24T13:17:34.000Z</time>
      </trkpt>
      <trkpt lat="46.97105" lon="5.97491">
        <ele>671.9411739397</ele>
        <time>2020-05-24T13:17:36.000Z</time>
      </trkpt>
      <trkpt lat="46.97103" lon="5.97489">
        <ele>671</ele>
        <time>2020-05-24T13:17:38.000Z</time>
      </trkpt>
      <trkpt lat="46.97101" lon="5.97484">
        <ele>671</ele>
        <time>2020-05-24T13:17:42.000Z</time>
      </trkpt>
      <trkpt lat="46.97098" lon="5.97481">
        <ele>671</ele>
        <time>2020-05-24T13:17:44.000Z</time>
      </trkpt>
      <trkpt lat="46.97096" lon="5.97479">
        <ele>671</ele>
        <time>2020-05-24T13:17:46.000Z</time>
      </trkpt>
      <trkpt lat="46.97095" lon="5.97477">
        <ele>671</ele>
        <time>2020-05-24T13:17:48.000Z</time>
      </trkpt>
      <trkpt lat="46.97095" lon="5.97473">
        <ele>672</ele>
        <time>2020-05-24T13:17:51.000Z</time>
      </trkpt>
      <trkpt lat="46.97087" lon="5.97466">
        <ele>672</ele>
        <time>2020-05-24T13:18:05.000Z</time>
      </trkpt>
      <trkpt lat="46.97077" lon="5.9746">
        <ele>673</ele>
        <time>2020-05-24T13:18:13.000Z</time>
      </trkpt>
      <trkpt lat="46.97069" lon="5.97457">
        <ele>674</ele>
        <time>2020-05-24T13:18:17.000Z</time>
      </trkpt>
      <trkpt lat="46.97066" lon="5.97455">
        <ele>674</ele>
        <time>2020-05-24T13:18:19.000Z</time>
      </trkpt>
      <trkpt lat="46.97064" lon="5.97454">
        <ele>674</ele>
        <time>2020-05-24T13:18:21.000Z</time>
      </trkpt>
      <trkpt lat="46.97062" lon="5.97452">
        <ele>674</ele>
        <time>2020-05-24T13:18:23.000Z</time>
      </trkpt>
      <trkpt lat="46.9706" lon="5.97451">
        <ele>674.09677108566</ele>
        <time>2020-05-24T13:18:25.000Z</time>
      </trkpt>
      <trkpt lat="46.97059" lon="5.97447">
        <ele>675</ele>
        <time>2020-05-24T13:18:27.000Z</time>
      </trkpt>
      <trkpt lat="46.97058" lon="5.97445">
        <ele>676</ele>
        <time>2020-05-24T13:18:35.000Z</time>
      </trkpt>
      <trkpt lat="46.97056" lon="5.97444">
        <ele>676</ele>
        <time>2020-05-24T13:18:58.000Z</time>
      </trkpt>
      <trkpt lat="46.97057" lon="5.9744">
        <ele>676</ele>
        <time>2020-05-24T13:19:04.000Z</time>
      </trkpt>
      <trkpt lat="46.97057" lon="5.97437">
        <ele>675</ele>
        <time>2020-05-24T13:19:07.000Z</time>
      </trkpt>
      <trkpt lat="46.97056" lon="5.97434">
        <ele>674</ele>
        <time>2020-05-24T13:19:12.000Z</time>
      </trkpt>
      <trkpt lat="46.97055" lon="5.97431">
        <ele>674</ele>
        <time>2020-05-24T13:19:15.000Z</time>
      </trkpt>
      <trkpt lat="46.97054" lon="5.97429">
        <ele>674</ele>
        <time>2020-05-24T13:19:19.000Z</time>
      </trkpt>
      <trkpt lat="46.97053" lon="5.97425">
        <ele>674</ele>
        <time>2020-05-24T13:19:21.000Z</time>
      </trkpt>
      <trkpt lat="46.97053" lon="5.97422">
        <ele>674</ele>
        <time>2020-05-24T13:19:23.000Z</time>
      </trkpt>
      <trkpt lat="46.97052" lon="5.97418">
        <ele>673.87878787879</ele>
        <time>2020-05-24T13:19:25.000Z</time>
      </trkpt>
      <trkpt lat="46.97052" lon="5.97411">
        <ele>673</ele>
        <time>2020-05-24T13:19:29.000Z</time>
      </trkpt>
      <trkpt lat="46.97051" lon="5.97407">
        <ele>673</ele>
        <time>2020-05-24T13:19:31.000Z</time>
      </trkpt>
      <trkpt lat="46.97048" lon="5.97394">
        <ele>673</ele>
        <time>2020-05-24T13:19:42.000Z</time>
      </trkpt>
      <trkpt lat="46.97045" lon="5.97382">
        <ele>673.16</ele>
        <time>2020-05-24T13:19:52.000Z</time>
      </trkpt>
      <trkpt lat="46.97036" lon="5.97373">
        <ele>675</ele>
        <time>2020-05-24T13:19:59.000Z</time>
      </trkpt>
      <trkpt lat="46.97032" lon="5.97369">
        <ele>675.10280642151</ele>
        <time>2020-05-24T13:20:03.000Z</time>
      </trkpt>
      <trkpt lat="46.97024" lon="5.97361">
        <ele>676</ele>
        <time>2020-05-24T13:20:11.000Z</time>
      </trkpt>
      <trkpt lat="46.97016" lon="5.97351">
        <ele>677</ele>
        <time>2020-05-24T13:20:19.000Z</time>
      </trkpt>
      <trkpt lat="46.97009" lon="5.97342">
        <ele>677</ele>
        <time>2020-05-24T13:20:25.000Z</time>
      </trkpt>
      <trkpt lat="46.97004" lon="5.97339">
        <ele>678</ele>
        <time>2020-05-24T13:20:29.000Z</time>
      </trkpt>
      <trkpt lat="46.97002" lon="5.97337">
        <ele>678.16</ele>
        <time>2020-05-24T13:20:32.000Z</time>
      </trkpt>
      <trkpt lat="46.97" lon="5.97337">
        <ele>679</ele>
        <time>2020-05-24T13:20:35.000Z</time>
      </trkpt>
      <trkpt lat="46.96998" lon="5.97334">
        <ele>680</ele>
        <time>2020-05-24T13:20:38.000Z</time>
      </trkpt>
      <trkpt lat="46.96997" lon="5.97332">
        <ele>680</ele>
        <time>2020-05-24T13:20:40.000Z</time>
      </trkpt>
      <trkpt lat="46.96996" lon="5.9733">
        <ele>680</ele>
        <time>2020-05-24T13:20:42.000Z</time>
      </trkpt>
      <trkpt lat="46.96994" lon="5.97327">
        <ele>681</ele>
        <time>2020-05-24T13:20:46.000Z</time>
      </trkpt>
      <trkpt lat="46.96992" lon="5.97323">
        <ele>681</ele>
        <time>2020-05-24T13:20:50.000Z</time>
      </trkpt>
      <trkpt lat="46.9699" lon="5.9732">
        <ele>681.11711524712</ele>
        <time>2020-05-24T13:20:52.000Z</time>
      </trkpt>
      <trkpt lat="46.96988" lon="5.97318">
        <ele>682</ele>
        <time>2020-05-24T13:20:54.000Z</time>
      </trkpt>
      <trkpt lat="46.96987" lon="5.97316">
        <ele>682</ele>
        <time>2020-05-24T13:20:56.000Z</time>
      </trkpt>
      <trkpt lat="46.96985" lon="5.97314">
        <ele>682</ele>
        <time>2020-05-24T13:20:58.000Z</time>
      </trkpt>
      <trkpt lat="46.96984" lon="5.97311">
        <ele>682</ele>
        <time>2020-05-24T13:21:00.000Z</time>
      </trkpt>
      <trkpt lat="46.96983" lon="5.97309">
        <ele>682</ele>
        <time>2020-05-24T13:21:02.000Z</time>
      </trkpt>
      <trkpt lat="46.96982" lon="5.97306">
        <ele>682</ele>
        <time>2020-05-24T13:21:04.000Z</time>
      </trkpt>
      <trkpt lat="46.96975" lon="5.97297">
        <ele>682</ele>
        <time>2020-05-24T13:21:12.000Z</time>
      </trkpt>
      <trkpt lat="46.9697" lon="5.97283">
        <ele>681</ele>
        <time>2020-05-24T13:21:21.000Z</time>
      </trkpt>
      <trkpt lat="46.96968" lon="5.9728">
        <ele>680.84</ele>
        <time>2020-05-24T13:21:23.000Z</time>
      </trkpt>
      <trkpt lat="46.96966" lon="5.97278">
        <ele>680</ele>
        <time>2020-05-24T13:21:25.000Z</time>
      </trkpt>
      <trkpt lat="46.96965" lon="5.97274">
        <ele>680</ele>
        <time>2020-05-24T13:21:27.000Z</time>
      </trkpt>
      <trkpt lat="46.96963" lon="5.97272">
        <ele>680</ele>
        <time>2020-05-24T13:21:29.000Z</time>
      </trkpt>
      <trkpt lat="46.96961" lon="5.9727">
        <ele>680</ele>
        <time>2020-05-24T13:21:31.000Z</time>
      </trkpt>
      <trkpt lat="46.96959" lon="5.97268">
        <ele>680</ele>
        <time>2020-05-24T13:21:33.000Z</time>
      </trkpt>
      <trkpt lat="46.96957" lon="5.97267">
        <ele>680</ele>
        <time>2020-05-24T13:21:36.000Z</time>
      </trkpt>
      <trkpt lat="46.96955" lon="5.97264">
        <ele>680</ele>
        <time>2020-05-24T13:21:39.000Z</time>
      </trkpt>
      <trkpt lat="46.96954" lon="5.97261">
        <ele>680</ele>
        <time>2020-05-24T13:21:42.000Z</time>
      </trkpt>
      <trkpt lat="46.96954" lon="5.97257">
        <ele>680</ele>
        <time>2020-05-24T13:21:44.000Z</time>
      </trkpt>
      <trkpt lat="46.96953" lon="5.97254">
        <ele>680</ele>
        <time>2020-05-24T13:21:46.000Z</time>
      </trkpt>
      <trkpt lat="46.96953" lon="5.97251">
        <ele>680</ele>
        <time>2020-05-24T13:21:49.000Z</time>
      </trkpt>
      <trkpt lat="46.96953" lon="5.97249">
        <ele>680</ele>
        <time>2020-05-24T13:21:52.000Z</time>
      </trkpt>
      <trkpt lat="46.96948" lon="5.97238">
        <ele>680</ele>
        <time>2020-05-24T13:22:02.000Z</time>
      </trkpt>
      <trkpt lat="46.96946" lon="5.97233">
        <ele>680</ele>
        <time>2020-05-24T13:22:06.000Z</time>
      </trkpt>
      <trkpt lat="46.96944" lon="5.9723">
        <ele>680</ele>
        <time>2020-05-24T13:22:08.000Z</time>
      </trkpt>
      <trkpt lat="46.96942" lon="5.97225">
        <ele>680</ele>
        <time>2020-05-24T13:22:11.000Z</time>
      </trkpt>
      <trkpt lat="46.96937" lon="5.97222">
        <ele>680</ele>
        <time>2020-05-24T13:22:15.000Z</time>
      </trkpt>
      <trkpt lat="46.96935" lon="5.9722">
        <ele>680</ele>
        <time>2020-05-24T13:22:17.000Z</time>
      </trkpt>
      <trkpt lat="46.96929" lon="5.97209">
        <ele>680</ele>
        <time>2020-05-24T13:22:25.000Z</time>
      </trkpt>
      <trkpt lat="46.96923" lon="5.97199">
        <ele>680</ele>
        <time>2020-05-24T13:22:34.000Z</time>
      </trkpt>
      <trkpt lat="46.96917" lon="5.97187">
        <ele>680</ele>
        <time>2020-05-24T13:22:45.000Z</time>
      </trkpt>
      <trkpt lat="46.96912" lon="5.97175">
        <ele>680</ele>
        <time>2020-05-24T13:22:52.000Z</time>
      </trkpt>
      <trkpt lat="46.96909" lon="5.97161">
        <ele>680</ele>
        <time>2020-05-24T13:23:00.000Z</time>
      </trkpt>
      <trkpt lat="46.96904" lon="5.97148">
        <ele>680</ele>
        <time>2020-05-24T13:23:08.000Z</time>
      </trkpt>
      <trkpt lat="46.96899" lon="5.9714">
        <ele>680</ele>
        <time>2020-05-24T13:23:14.000Z</time>
      </trkpt>
      <trkpt lat="46.96896" lon="5.97136">
        <ele>680</ele>
        <time>2020-05-24T13:23:17.000Z</time>
      </trkpt>
      <trkpt lat="46.9689" lon="5.97126">
        <ele>680</ele>
        <time>2020-05-24T13:23:25.000Z</time>
      </trkpt>
      <trkpt lat="46.96887" lon="5.97114">
        <ele>682</ele>
        <time>2020-05-24T13:23:36.000Z</time>
      </trkpt>
      <trkpt lat="46.96883" lon="5.97102">
        <ele>682</ele>
        <time>2020-05-24T13:23:46.000Z</time>
      </trkpt>
      <trkpt lat="46.96879" lon="5.97088">
        <ele>685</ele>
        <time>2020-05-24T13:23:56.000Z</time>
      </trkpt>
      <trkpt lat="46.96874" lon="5.97077">
        <ele>685</ele>
        <time>2020-05-24T13:24:03.000Z</time>
      </trkpt>
      <trkpt lat="46.96872" lon="5.97069">
        <ele>685</ele>
        <time>2020-05-24T13:24:07.000Z</time>
      </trkpt>
      <trkpt lat="46.96868" lon="5.9706">
        <ele>685</ele>
        <time>2020-05-24T13:24:13.000Z</time>
      </trkpt>
      <trkpt lat="46.96864" lon="5.97048">
        <ele>684</ele>
        <time>2020-05-24T13:24:20.000Z</time>
      </trkpt>
      <trkpt lat="46.96861" lon="5.97034">
        <ele>683</ele>
        <time>2020-05-24T13:24:27.000Z</time>
      </trkpt>
      <trkpt lat="46.96855" lon="5.97024">
        <ele>682</ele>
        <time>2020-05-24T13:24:35.000Z</time>
      </trkpt>
      <trkpt lat="46.96847" lon="5.97017">
        <ele>683</ele>
        <time>2020-05-24T13:24:43.000Z</time>
      </trkpt>
      <trkpt lat="46.96843" lon="5.97004">
        <ele>683.09677108566</ele>
        <time>2020-05-24T13:24:53.000Z</time>
      </trkpt>
      <trkpt lat="46.96841" lon="5.96991">
        <ele>685</ele>
        <time>2020-05-24T13:25:00.000Z</time>
      </trkpt>
      <trkpt lat="46.96836" lon="5.96977">
        <ele>685</ele>
        <time>2020-05-24T13:25:07.000Z</time>
      </trkpt>
      <trkpt lat="46.96829" lon="5.96969">
        <ele>685</ele>
        <time>2020-05-24T13:25:15.000Z</time>
      </trkpt>
      <trkpt lat="46.96826" lon="5.96962">
        <ele>685</ele>
        <time>2020-05-24T13:25:20.000Z</time>
      </trkpt>
      <trkpt lat="46.96825" lon="5.96959">
        <ele>685</ele>
        <time>2020-05-24T13:25:22.000Z</time>
      </trkpt>
      <trkpt lat="46.96824" lon="5.96957">
        <ele>685</ele>
        <time>2020-05-24T13:25:24.000Z</time>
      </trkpt>
      <trkpt lat="46.96822" lon="5.96954">
        <ele>685</ele>
        <time>2020-05-24T13:25:26.000Z</time>
      </trkpt>
      <trkpt lat="46.96819" lon="5.96951">
        <ele>685</ele>
        <time>2020-05-24T13:25:28.000Z</time>
      </trkpt>
      <trkpt lat="46.96818" lon="5.96947">
        <ele>685</ele>
        <time>2020-05-24T13:25:30.000Z</time>
      </trkpt>
      <trkpt lat="46.96818" lon="5.96945">
        <ele>685.03448630994</ele>
        <time>2020-05-24T13:25:32.000Z</time>
      </trkpt>
      <trkpt lat="46.96815" lon="5.96939">
        <ele>686</ele>
        <time>2020-05-24T13:25:36.000Z</time>
      </trkpt>
      <trkpt lat="46.96813" lon="5.96937">
        <ele>686.05617638176</ele>
        <time>2020-05-24T13:25:37.000Z</time>
      </trkpt>
      <trkpt lat="46.96812" lon="5.96935">
        <ele>687</ele>
        <time>2020-05-24T13:25:38.000Z</time>
      </trkpt>
      <trkpt lat="46.96811" lon="5.96931">
        <ele>687</ele>
        <time>2020-05-24T13:25:40.000Z</time>
      </trkpt>
      <trkpt lat="46.9681" lon="5.96928">
        <ele>687</ele>
        <time>2020-05-24T13:25:42.000Z</time>
      </trkpt>
      <trkpt lat="46.96809" lon="5.96924">
        <ele>687</ele>
        <time>2020-05-24T13:25:44.000Z</time>
      </trkpt>
      <trkpt lat="46.96809" lon="5.96921">
        <ele>687</ele>
        <time>2020-05-24T13:25:46.000Z</time>
      </trkpt>
      <trkpt lat="46.96809" lon="5.96917">
        <ele>687</ele>
        <time>2020-05-24T13:25:48.000Z</time>
      </trkpt>
      <trkpt lat="46.96809" lon="5.96914">
        <ele>687</ele>
        <time>2020-05-24T13:25:50.000Z</time>
      </trkpt>
      <trkpt lat="46.96809" lon="5.96911">
        <ele>687</ele>
        <time>2020-05-24T13:25:52.000Z</time>
      </trkpt>
      <trkpt lat="46.9681" lon="5.96907">
        <ele>688</ele>
        <time>2020-05-24T13:25:55.000Z</time>
      </trkpt>
      <trkpt lat="46.96809" lon="5.96904">
        <ele>688</ele>
        <time>2020-05-24T13:25:57.000Z</time>
      </trkpt>
      <trkpt lat="46.96808" lon="5.969">
        <ele>688</ele>
        <time>2020-05-24T13:25:59.000Z</time>
      </trkpt>
      <trkpt lat="46.96808" lon="5.96896">
        <ele>688</ele>
        <time>2020-05-24T13:26:01.000Z</time>
      </trkpt>
      <trkpt lat="46.96808" lon="5.96893">
        <ele>688</ele>
        <time>2020-05-24T13:26:03.000Z</time>
      </trkpt>
      <trkpt lat="46.96807" lon="5.9689">
        <ele>688</ele>
        <time>2020-05-24T13:26:05.000Z</time>
      </trkpt>
      <trkpt lat="46.96806" lon="5.96886">
        <ele>688</ele>
        <time>2020-05-24T13:26:07.000Z</time>
      </trkpt>
      <trkpt lat="46.96804" lon="5.96883">
        <ele>688</ele>
        <time>2020-05-24T13:26:09.000Z</time>
      </trkpt>
      <trkpt lat="46.96802" lon="5.9688">
        <ele>688.99145570313</ele>
        <time>2020-05-24T13:26:11.000Z</time>
      </trkpt>
      <trkpt lat="46.96801" lon="5.96878">
        <ele>689</ele>
        <time>2020-05-24T13:26:13.000Z</time>
      </trkpt>
      <trkpt lat="46.96799" lon="5.96875">
        <ele>688.89333287822</ele>
        <time>2020-05-24T13:26:15.000Z</time>
      </trkpt>
      <trkpt lat="46.96798" lon="5.96872">
        <ele>688</ele>
        <time>2020-05-24T13:26:17.000Z</time>
      </trkpt>
      <trkpt lat="46.96796" lon="5.9687">
        <ele>688</ele>
        <time>2020-05-24T13:26:19.000Z</time>
      </trkpt>
      <trkpt lat="46.96794" lon="5.96867">
        <ele>688</ele>
        <time>2020-05-24T13:26:21.000Z</time>
      </trkpt>
      <trkpt lat="46.96793" lon="5.96864">
        <ele>688</ele>
        <time>2020-05-24T13:26:23.000Z</time>
      </trkpt>
      <trkpt lat="46.96791" lon="5.9686">
        <ele>688</ele>
        <time>2020-05-24T13:26:25.000Z</time>
      </trkpt>
      <trkpt lat="46.9679" lon="5.96857">
        <ele>688</ele>
        <time>2020-05-24T13:26:27.000Z</time>
      </trkpt>
      <trkpt lat="46.96788" lon="5.96855">
        <ele>688</ele>
        <time>2020-05-24T13:26:30.000Z</time>
      </trkpt>
      <trkpt lat="46.96787" lon="5.96852">
        <ele>688</ele>
        <time>2020-05-24T13:26:32.000Z</time>
      </trkpt>
      <trkpt lat="46.96787" lon="5.96848">
        <ele>688</ele>
        <time>2020-05-24T13:26:34.000Z</time>
      </trkpt>
      <trkpt lat="46.96785" lon="5.96844">
        <ele>688</ele>
        <time>2020-05-24T13:26:36.000Z</time>
      </trkpt>
      <trkpt lat="46.96784" lon="5.96841">
        <ele>688</ele>
        <time>2020-05-24T13:26:38.000Z</time>
      </trkpt>
      <trkpt lat="46.96783" lon="5.96839">
        <ele>688</ele>
        <time>2020-05-24T13:26:40.000Z</time>
      </trkpt>
      <trkpt lat="46.96781" lon="5.96836">
        <ele>688.02608966653</ele>
        <time>2020-05-24T13:26:42.000Z</time>
      </trkpt>
      <trkpt lat="46.96779" lon="5.96832">
        <ele>689</ele>
        <time>2020-05-24T13:26:44.000Z</time>
      </trkpt>
      <trkpt lat="46.96776" lon="5.9683">
        <ele>689</ele>
        <time>2020-05-24T13:26:47.000Z</time>
      </trkpt>
      <trkpt lat="46.96775" lon="5.96828">
        <ele>689.13445341996</ele>
        <time>2020-05-24T13:26:48.000Z</time>
      </trkpt>
      <trkpt lat="46.96773" lon="5.96826">
        <ele>689.97478729469</ele>
        <time>2020-05-24T13:26:49.000Z</time>
      </trkpt>
      <trkpt lat="46.96771" lon="5.96825">
        <ele>690</ele>
        <time>2020-05-24T13:26:50.000Z</time>
      </trkpt>
      <trkpt lat="46.96769" lon="5.96823">
        <ele>690</ele>
        <time>2020-05-24T13:26:52.000Z</time>
      </trkpt>
      <trkpt lat="46.96767" lon="5.9682">
        <ele>690</ele>
        <time>2020-05-24T13:26:54.000Z</time>
      </trkpt>
      <trkpt lat="46.96765" lon="5.96817">
        <ele>690</ele>
        <time>2020-05-24T13:26:56.000Z</time>
      </trkpt>
      <trkpt lat="46.96763" lon="5.96815">
        <ele>690</ele>
        <time>2020-05-24T13:26:58.000Z</time>
      </trkpt>
      <trkpt lat="46.96761" lon="5.96812">
        <ele>690</ele>
        <time>2020-05-24T13:27:00.000Z</time>
      </trkpt>
      <trkpt lat="46.96759" lon="5.96809">
        <ele>690</ele>
        <time>2020-05-24T13:27:02.000Z</time>
      </trkpt>
      <trkpt lat="46.96757" lon="5.96806">
        <ele>690</ele>
        <time>2020-05-24T13:27:04.000Z</time>
      </trkpt>
      <trkpt lat="46.96755" lon="5.96803">
        <ele>690</ele>
        <time>2020-05-24T13:27:06.000Z</time>
      </trkpt>
      <trkpt lat="46.96754" lon="5.968">
        <ele>690</ele>
        <time>2020-05-24T13:27:08.000Z</time>
      </trkpt>
      <trkpt lat="46.96754" lon="5.96797">
        <ele>690</ele>
        <time>2020-05-24T13:27:10.000Z</time>
      </trkpt>
      <trkpt lat="46.96752" lon="5.96793">
        <ele>690</ele>
        <time>2020-05-24T13:27:12.000Z</time>
      </trkpt>
      <trkpt lat="46.96751" lon="5.9679">
        <ele>690</ele>
        <time>2020-05-24T13:27:15.000Z</time>
      </trkpt>
      <trkpt lat="46.9675" lon="5.96787">
        <ele>690</ele>
        <time>2020-05-24T13:27:17.000Z</time>
      </trkpt>
      <trkpt lat="46.96749" lon="5.96783">
        <ele>690</ele>
        <time>2020-05-24T13:27:19.000Z</time>
      </trkpt>
      <trkpt lat="46.96748" lon="5.96779">
        <ele>690</ele>
        <time>2020-05-24T13:27:21.000Z</time>
      </trkpt>
      <trkpt lat="46.96748" lon="5.96775">
        <ele>690</ele>
        <time>2020-05-24T13:27:23.000Z</time>
      </trkpt>
      <trkpt lat="46.96748" lon="5.96771">
        <ele>690</ele>
        <time>2020-05-24T13:27:25.000Z</time>
      </trkpt>
      <trkpt lat="46.96747" lon="5.96768">
        <ele>690</ele>
        <time>2020-05-24T13:27:27.000Z</time>
      </trkpt>
      <trkpt lat="46.96745" lon="5.96754">
        <ele>690</ele>
        <time>2020-05-24T13:27:34.000Z</time>
      </trkpt>
      <trkpt lat="46.96745" lon="5.9675">
        <ele>690</ele>
        <time>2020-05-24T13:27:36.000Z</time>
      </trkpt>
      <trkpt lat="46.96744" lon="5.96746">
        <ele>690</ele>
        <time>2020-05-24T13:27:39.000Z</time>
      </trkpt>
      <trkpt lat="46.96743" lon="5.96742">
        <ele>690</ele>
        <time>2020-05-24T13:27:41.000Z</time>
      </trkpt>
      <trkpt lat="46.96743" lon="5.96738">
        <ele>690</ele>
        <time>2020-05-24T13:27:43.000Z</time>
      </trkpt>
      <trkpt lat="46.96742" lon="5.96733">
        <ele>690</ele>
        <time>2020-05-24T13:27:45.000Z</time>
      </trkpt>
      <trkpt lat="46.9674" lon="5.96729">
        <ele>689.84761858322</ele>
        <time>2020-05-24T13:27:47.000Z</time>
      </trkpt>
      <trkpt lat="46.9674" lon="5.96726">
        <ele>689</ele>
        <time>2020-05-24T13:27:49.000Z</time>
      </trkpt>
      <trkpt lat="46.96739" lon="5.96721">
        <ele>689</ele>
        <time>2020-05-24T13:27:51.000Z</time>
      </trkpt>
      <trkpt lat="46.96739" lon="5.96718">
        <ele>689</ele>
        <time>2020-05-24T13:27:53.000Z</time>
      </trkpt>
      <trkpt lat="46.96738" lon="5.96715">
        <ele>689</ele>
        <time>2020-05-24T13:27:55.000Z</time>
      </trkpt>
      <trkpt lat="46.96736" lon="5.96712">
        <ele>688.97673691731</ele>
        <time>2020-05-24T13:27:57.000Z</time>
      </trkpt>
      <trkpt lat="46.96736" lon="5.96709">
        <ele>688</ele>
        <time>2020-05-24T13:27:59.000Z</time>
      </trkpt>
      <trkpt lat="46.96734" lon="5.96706">
        <ele>688</ele>
        <time>2020-05-24T13:28:01.000Z</time>
      </trkpt>
      <trkpt lat="46.96733" lon="5.96703">
        <ele>688</ele>
        <time>2020-05-24T13:28:03.000Z</time>
      </trkpt>
      <trkpt lat="46.96728" lon="5.96691">
        <ele>688</ele>
        <time>2020-05-24T13:28:13.000Z</time>
      </trkpt>
      <trkpt lat="46.9672" lon="5.96682">
        <ele>688</ele>
        <time>2020-05-24T13:28:18.000Z</time>
      </trkpt>
      <trkpt lat="46.96713" lon="5.96673">
        <ele>687</ele>
        <time>2020-05-24T13:28:24.000Z</time>
      </trkpt>
      <trkpt lat="46.96705" lon="5.96666">
        <ele>687</ele>
        <time>2020-05-24T13:28:31.000Z</time>
      </trkpt>
      <trkpt lat="46.96703" lon="5.96663">
        <ele>687</ele>
        <time>2020-05-24T13:28:33.000Z</time>
      </trkpt>
      <trkpt lat="46.96701" lon="5.96661">
        <ele>687</ele>
        <time>2020-05-24T13:28:34.000Z</time>
      </trkpt>
      <trkpt lat="46.96699" lon="5.96649">
        <ele>687</ele>
        <time>2020-05-24T13:28:40.000Z</time>
      </trkpt>
      <trkpt lat="46.96697" lon="5.96644">
        <ele>687</ele>
        <time>2020-05-24T13:28:43.000Z</time>
      </trkpt>
      <trkpt lat="46.96693" lon="5.96637">
        <ele>687</ele>
        <time>2020-05-24T13:28:47.000Z</time>
      </trkpt>
      <trkpt lat="46.96692" lon="5.96634">
        <ele>687</ele>
        <time>2020-05-24T13:28:48.000Z</time>
      </trkpt>
      <trkpt lat="46.96691" lon="5.9663">
        <ele>687</ele>
        <time>2020-05-24T13:28:50.000Z</time>
      </trkpt>
      <trkpt lat="46.96689" lon="5.96626">
        <ele>687</ele>
        <time>2020-05-24T13:28:52.000Z</time>
      </trkpt>
      <trkpt lat="46.96687" lon="5.96625">
        <ele>687</ele>
        <time>2020-05-24T13:28:53.000Z</time>
      </trkpt>
      <trkpt lat="46.96685" lon="5.9662">
        <ele>687</ele>
        <time>2020-05-24T13:28:55.000Z</time>
      </trkpt>
      <trkpt lat="46.96684" lon="5.96616">
        <ele>687</ele>
        <time>2020-05-24T13:28:57.000Z</time>
      </trkpt>
      <trkpt lat="46.96683" lon="5.96614">
        <ele>687</ele>
        <time>2020-05-24T13:28:59.000Z</time>
      </trkpt>
      <trkpt lat="46.96681" lon="5.96611">
        <ele>687.84</ele>
        <time>2020-05-24T13:29:01.000Z</time>
      </trkpt>
      <trkpt lat="46.9668" lon="5.96609">
        <ele>687</ele>
        <time>2020-05-24T13:29:03.000Z</time>
      </trkpt>
      <trkpt lat="46.96679" lon="5.96606">
        <ele>687</ele>
        <time>2020-05-24T13:29:05.000Z</time>
      </trkpt>
      <trkpt lat="46.96677" lon="5.96603">
        <ele>687</ele>
        <time>2020-05-24T13:29:07.000Z</time>
      </trkpt>
      <trkpt lat="46.96676" lon="5.96601">
        <ele>687</ele>
        <time>2020-05-24T13:29:08.000Z</time>
      </trkpt>
      <trkpt lat="46.96674" lon="5.96598">
        <ele>687</ele>
        <time>2020-05-24T13:29:10.000Z</time>
      </trkpt>
      <trkpt lat="46.96672" lon="5.96594">
        <ele>687</ele>
        <time>2020-05-24T13:29:12.000Z</time>
      </trkpt>
      <trkpt lat="46.9667" lon="5.9659">
        <ele>687</ele>
        <time>2020-05-24T13:29:14.000Z</time>
      </trkpt>
      <trkpt lat="46.96669" lon="5.96586">
        <ele>687</ele>
        <time>2020-05-24T13:29:16.000Z</time>
      </trkpt>
      <trkpt lat="46.96668" lon="5.96582">
        <ele>687</ele>
        <time>2020-05-24T13:29:18.000Z</time>
      </trkpt>
      <trkpt lat="46.96667" lon="5.96579">
        <ele>687</ele>
        <time>2020-05-24T13:29:20.000Z</time>
      </trkpt>
      <trkpt lat="46.96666" lon="5.96575">
        <ele>686</ele>
        <time>2020-05-24T13:29:22.000Z</time>
      </trkpt>
      <trkpt lat="46.96665" lon="5.96571">
        <ele>686</ele>
        <time>2020-05-24T13:29:24.000Z</time>
      </trkpt>
      <trkpt lat="46.96664" lon="5.96567">
        <ele>686</ele>
        <time>2020-05-24T13:29:26.000Z</time>
      </trkpt>
      <trkpt lat="46.96663" lon="5.96564">
        <ele>686.16</ele>
        <time>2020-05-24T13:29:28.000Z</time>
      </trkpt>
      <trkpt lat="46.96663" lon="5.9656">
        <ele>687</ele>
        <time>2020-05-24T13:29:30.000Z</time>
      </trkpt>
      <trkpt lat="46.96662" lon="5.96557">
        <ele>687</ele>
        <time>2020-05-24T13:29:32.000Z</time>
      </trkpt>
      <trkpt lat="46.96661" lon="5.96553">
        <ele>687</ele>
        <time>2020-05-24T13:29:34.000Z</time>
      </trkpt>
      <trkpt lat="46.9666" lon="5.9655">
        <ele>687</ele>
        <time>2020-05-24T13:29:36.000Z</time>
      </trkpt>
      <trkpt lat="46.96659" lon="5.96547">
        <ele>687</ele>
        <time>2020-05-24T13:29:39.000Z</time>
      </trkpt>
      <trkpt lat="46.96658" lon="5.96544">
        <ele>687</ele>
        <time>2020-05-24T13:29:41.000Z</time>
      </trkpt>
      <trkpt lat="46.96658" lon="5.9654">
        <ele>687</ele>
        <time>2020-05-24T13:29:44.000Z</time>
      </trkpt>
      <trkpt lat="46.96657" lon="5.96535">
        <ele>686</ele>
        <time>2020-05-24T13:29:47.000Z</time>
      </trkpt>
      <trkpt lat="46.96656" lon="5.96532">
        <ele>686</ele>
        <time>2020-05-24T13:29:51.000Z</time>
      </trkpt>
      <trkpt lat="46.96654" lon="5.96527">
        <ele>686.94623981502</ele>
        <time>2020-05-24T13:29:54.000Z</time>
      </trkpt>
      <trkpt lat="46.96653" lon="5.96525">
        <ele>687</ele>
        <time>2020-05-24T13:29:55.000Z</time>
      </trkpt>
      <trkpt lat="46.96651" lon="5.96521">
        <ele>687</ele>
        <time>2020-05-24T13:29:57.000Z</time>
      </trkpt>
      <trkpt lat="46.9665" lon="5.96519">
        <ele>687</ele>
        <time>2020-05-24T13:29:59.000Z</time>
      </trkpt>
      <trkpt lat="46.9665" lon="5.96515">
        <ele>687</ele>
        <time>2020-05-24T13:30:01.000Z</time>
      </trkpt>
      <trkpt lat="46.96648" lon="5.96511">
        <ele>687</ele>
        <time>2020-05-24T13:30:03.000Z</time>
      </trkpt>
      <trkpt lat="46.96648" lon="5.96507">
        <ele>687</ele>
        <time>2020-05-24T13:30:05.000Z</time>
      </trkpt>
      <trkpt lat="46.96647" lon="5.96502">
        <ele>687</ele>
        <time>2020-05-24T13:30:07.000Z</time>
      </trkpt>
      <trkpt lat="46.96647" lon="5.96498">
        <ele>687</ele>
        <time>2020-05-24T13:30:09.000Z</time>
      </trkpt>
      <trkpt lat="46.96647" lon="5.96495">
        <ele>687</ele>
        <time>2020-05-24T13:30:11.000Z</time>
      </trkpt>
      <trkpt lat="46.96648" lon="5.96491">
        <ele>687</ele>
        <time>2020-05-24T13:30:13.000Z</time>
      </trkpt>
      <trkpt lat="46.96648" lon="5.96489">
        <ele>687</ele>
        <time>2020-05-24T13:30:15.000Z</time>
      </trkpt>
      <trkpt lat="46.96649" lon="5.96486">
        <ele>687</ele>
        <time>2020-05-24T13:30:17.000Z</time>
      </trkpt>
      <trkpt lat="46.96648" lon="5.96483">
        <ele>687</ele>
        <time>2020-05-24T13:30:19.000Z</time>
      </trkpt>
      <trkpt lat="46.96648" lon="5.9648">
        <ele>688</ele>
        <time>2020-05-24T13:30:21.000Z</time>
      </trkpt>
      <trkpt lat="46.96647" lon="5.96478">
        <ele>688</ele>
        <time>2020-05-24T13:30:23.000Z</time>
      </trkpt>
      <trkpt lat="46.96643" lon="5.96464">
        <ele>688</ele>
        <time>2020-05-24T13:30:33.000Z</time>
      </trkpt>
      <trkpt lat="46.96638" lon="5.96452">
        <ele>688</ele>
        <time>2020-05-24T13:30:39.000Z</time>
      </trkpt>
      <trkpt lat="46.96632" lon="5.9644">
        <ele>688</ele>
        <time>2020-05-24T13:30:47.000Z</time>
      </trkpt>
      <trkpt lat="46.9663" lon="5.96432">
        <ele>688.08695652174</ele>
        <time>2020-05-24T13:30:53.000Z</time>
      </trkpt>
      <trkpt lat="46.96628" lon="5.96429">
        <ele>689</ele>
        <time>2020-05-24T13:30:55.000Z</time>
      </trkpt>
      <trkpt lat="46.96626" lon="5.96426">
        <ele>689</ele>
        <time>2020-05-24T13:30:57.000Z</time>
      </trkpt>
      <trkpt lat="46.96625" lon="5.96424">
        <ele>689</ele>
        <time>2020-05-24T13:30:58.000Z</time>
      </trkpt>
      <trkpt lat="46.96623" lon="5.96423">
        <ele>689.16</ele>
        <time>2020-05-24T13:30:59.000Z</time>
      </trkpt>
      <trkpt lat="46.96622" lon="5.96419">
        <ele>690</ele>
        <time>2020-05-24T13:31:01.000Z</time>
      </trkpt>
      <trkpt lat="46.96621" lon="5.96417">
        <ele>690</ele>
        <time>2020-05-24T13:31:03.000Z</time>
      </trkpt>
      <trkpt lat="46.96618" lon="5.96414">
        <ele>691</ele>
        <time>2020-05-24T13:31:05.000Z</time>
      </trkpt>
      <trkpt lat="46.96612" lon="5.96404">
        <ele>691.15151789408</ele>
        <time>2020-05-24T13:31:11.000Z</time>
      </trkpt>
      <trkpt lat="46.96606" lon="5.96393">
        <ele>692.0769263229</ele>
        <time>2020-05-24T13:31:19.000Z</time>
      </trkpt>
      <trkpt lat="46.96602" lon="5.96382">
        <ele>695</ele>
        <time>2020-05-24T13:31:26.000Z</time>
      </trkpt>
      <trkpt lat="46.966" lon="5.96379">
        <ele>695</ele>
        <time>2020-05-24T13:31:28.000Z</time>
      </trkpt>
      <trkpt lat="46.96599" lon="5.96376">
        <ele>695</ele>
        <time>2020-05-24T13:31:30.000Z</time>
      </trkpt>
      <trkpt lat="46.96598" lon="5.96374">
        <ele>695</ele>
        <time>2020-05-24T13:31:32.000Z</time>
      </trkpt>
      <trkpt lat="46.96595" lon="5.96372">
        <ele>696</ele>
        <time>2020-05-24T13:31:34.000Z</time>
      </trkpt>
      <trkpt lat="46.96594" lon="5.96371">
        <ele>697</ele>
        <time>2020-05-24T13:31:36.000Z</time>
      </trkpt>
      <trkpt lat="46.96592" lon="5.96369">
        <ele>697</ele>
        <time>2020-05-24T13:31:38.000Z</time>
      </trkpt>
      <trkpt lat="46.9659" lon="5.96367">
        <ele>697</ele>
        <time>2020-05-24T13:31:41.000Z</time>
      </trkpt>
      <trkpt lat="46.96589" lon="5.96365">
        <ele>697</ele>
        <time>2020-05-24T13:31:43.000Z</time>
      </trkpt>
      <trkpt lat="46.96587" lon="5.96362">
        <ele>697</ele>
        <time>2020-05-24T13:31:46.000Z</time>
      </trkpt>
      <trkpt lat="46.96585" lon="5.96359">
        <ele>697</ele>
        <time>2020-05-24T13:31:48.000Z</time>
      </trkpt>
      <trkpt lat="46.96583" lon="5.96357">
        <ele>697.14953226308</ele>
        <time>2020-05-24T13:31:49.000Z</time>
      </trkpt>
      <trkpt lat="46.96582" lon="5.96356">
        <ele>698</ele>
        <time>2020-05-24T13:31:50.000Z</time>
      </trkpt>
      <trkpt lat="46.9658" lon="5.96352">
        <ele>698</ele>
        <time>2020-05-24T13:31:54.000Z</time>
      </trkpt>
      <trkpt lat="46.96578" lon="5.96349">
        <ele>698</ele>
        <time>2020-05-24T13:31:56.000Z</time>
      </trkpt>
      <trkpt lat="46.96575" lon="5.96346">
        <ele>698</ele>
        <time>2020-05-24T13:31:59.000Z</time>
      </trkpt>
      <trkpt lat="46.96572" lon="5.96343">
        <ele>698</ele>
        <time>2020-05-24T13:32:01.000Z</time>
      </trkpt>
      <trkpt lat="46.9657" lon="5.96341">
        <ele>698</ele>
        <time>2020-05-24T13:32:03.000Z</time>
      </trkpt>
      <trkpt lat="46.96566" lon="5.96335">
        <ele>699</ele>
        <time>2020-05-24T13:32:07.000Z</time>
      </trkpt>
      <trkpt lat="46.96563" lon="5.96334">
        <ele>699</ele>
        <time>2020-05-24T13:32:09.000Z</time>
      </trkpt>
      <trkpt lat="46.96561" lon="5.96333">
        <ele>699</ele>
        <time>2020-05-24T13:32:11.000Z</time>
      </trkpt>
      <trkpt lat="46.96558" lon="5.96331">
        <ele>699</ele>
        <time>2020-05-24T13:32:13.000Z</time>
      </trkpt>
      <trkpt lat="46.96555" lon="5.96329">
        <ele>699</ele>
        <time>2020-05-24T13:32:15.000Z</time>
      </trkpt>
      <trkpt lat="46.96553" lon="5.96327">
        <ele>699.09677419355</ele>
        <time>2020-05-24T13:32:16.000Z</time>
      </trkpt>
      <trkpt lat="46.9655" lon="5.96326">
        <ele>700</ele>
        <time>2020-05-24T13:32:18.000Z</time>
      </trkpt>
      <trkpt lat="46.96548" lon="5.96326">
        <ele>700</ele>
        <time>2020-05-24T13:32:19.000Z</time>
      </trkpt>
      <trkpt lat="46.96546" lon="5.96325">
        <ele>700</ele>
        <time>2020-05-24T13:32:21.000Z</time>
      </trkpt>
      <trkpt lat="46.96543" lon="5.96323">
        <ele>700</ele>
        <time>2020-05-24T13:32:23.000Z</time>
      </trkpt>
      <trkpt lat="46.96541" lon="5.96322">
        <ele>700</ele>
        <time>2020-05-24T13:32:24.000Z</time>
      </trkpt>
      <trkpt lat="46.96538" lon="5.96321">
        <ele>700</ele>
        <time>2020-05-24T13:32:26.000Z</time>
      </trkpt>
      <trkpt lat="46.96535" lon="5.9632">
        <ele>700</ele>
        <time>2020-05-24T13:32:28.000Z</time>
      </trkpt>
      <trkpt lat="46.96532" lon="5.96319">
        <ele>701</ele>
        <time>2020-05-24T13:32:30.000Z</time>
      </trkpt>
      <trkpt lat="46.96529" lon="5.96318">
        <ele>701</ele>
        <time>2020-05-24T13:32:32.000Z</time>
      </trkpt>
      <trkpt lat="46.96527" lon="5.96318">
        <ele>701</ele>
        <time>2020-05-24T13:32:34.000Z</time>
      </trkpt>
      <trkpt lat="46.96525" lon="5.96318">
        <ele>701.16</ele>
        <time>2020-05-24T13:32:36.000Z</time>
      </trkpt>
      <trkpt lat="46.96523" lon="5.96319">
        <ele>702</ele>
        <time>2020-05-24T13:32:39.000Z</time>
      </trkpt>
      <trkpt lat="46.96521" lon="5.96321">
        <ele>702</ele>
        <time>2020-05-24T13:32:41.000Z</time>
      </trkpt>
      <trkpt lat="46.96519" lon="5.96323">
        <ele>702</ele>
        <time>2020-05-24T13:32:43.000Z</time>
      </trkpt>
      <trkpt lat="46.96516" lon="5.96324">
        <ele>702</ele>
        <time>2020-05-24T13:32:45.000Z</time>
      </trkpt>
      <trkpt lat="46.96514" lon="5.96325">
        <ele>702</ele>
        <time>2020-05-24T13:32:47.000Z</time>
      </trkpt>
      <trkpt lat="46.96511" lon="5.96325">
        <ele>702.14953226308</ele>
        <time>2020-05-24T13:32:49.000Z</time>
      </trkpt>
      <trkpt lat="46.96509" lon="5.96326">
        <ele>703</ele>
        <time>2020-05-24T13:32:52.000Z</time>
      </trkpt>
      <trkpt lat="46.96507" lon="5.96327">
        <ele>703</ele>
        <time>2020-05-24T13:32:54.000Z</time>
      </trkpt>
      <trkpt lat="46.96504" lon="5.96327">
        <ele>703</ele>
        <time>2020-05-24T13:32:56.000Z</time>
      </trkpt>
      <trkpt lat="46.96502" lon="5.96328">
        <ele>703</ele>
        <time>2020-05-24T13:32:58.000Z</time>
      </trkpt>
      <trkpt lat="46.965" lon="5.96328">
        <ele>703</ele>
        <time>2020-05-24T13:33:00.000Z</time>
      </trkpt>
      <trkpt lat="46.96498" lon="5.96327">
        <ele>703</ele>
        <time>2020-05-24T13:33:02.000Z</time>
      </trkpt>
      <trkpt lat="46.96496" lon="5.96326">
        <ele>703</ele>
        <time>2020-05-24T13:33:04.000Z</time>
      </trkpt>
      <trkpt lat="46.96493" lon="5.96326">
        <ele>703</ele>
        <time>2020-05-24T13:33:06.000Z</time>
      </trkpt>
      <trkpt lat="46.96491" lon="5.96325">
        <ele>703</ele>
        <time>2020-05-24T13:33:08.000Z</time>
      </trkpt>
      <trkpt lat="46.96489" lon="5.96325">
        <ele>703</ele>
        <time>2020-05-24T13:33:10.000Z</time>
      </trkpt>
      <trkpt lat="46.96487" lon="5.96325">
        <ele>703</ele>
        <time>2020-05-24T13:33:12.000Z</time>
      </trkpt>
      <trkpt lat="46.96485" lon="5.96324">
        <ele>703</ele>
        <time>2020-05-24T13:33:14.000Z</time>
      </trkpt>
      <trkpt lat="46.96483" lon="5.96322">
        <ele>703</ele>
        <time>2020-05-24T13:33:16.000Z</time>
      </trkpt>
      <trkpt lat="46.96481" lon="5.9632">
        <ele>703</ele>
        <time>2020-05-24T13:33:18.000Z</time>
      </trkpt>
      <trkpt lat="46.9648" lon="5.96319">
        <ele>703</ele>
        <time>2020-05-24T13:33:20.000Z</time>
      </trkpt>
      <trkpt lat="46.96478" lon="5.96316">
        <ele>703</ele>
        <time>2020-05-24T13:33:23.000Z</time>
      </trkpt>
      <trkpt lat="46.96475" lon="5.96315">
        <ele>703</ele>
        <time>2020-05-24T13:33:25.000Z</time>
      </trkpt>
      <trkpt lat="46.96473" lon="5.96313">
        <ele>703</ele>
        <time>2020-05-24T13:33:27.000Z</time>
      </trkpt>
      <trkpt lat="46.96471" lon="5.96312">
        <ele>704</ele>
        <time>2020-05-24T13:33:29.000Z</time>
      </trkpt>
      <trkpt lat="46.96469" lon="5.9631">
        <ele>704</ele>
        <time>2020-05-24T13:33:32.000Z</time>
      </trkpt>
      <trkpt lat="46.96467" lon="5.96308">
        <ele>704</ele>
        <time>2020-05-24T13:33:34.000Z</time>
      </trkpt>
      <trkpt lat="46.96465" lon="5.96307">
        <ele>704</ele>
        <time>2020-05-24T13:33:37.000Z</time>
      </trkpt>
      <trkpt lat="46.96463" lon="5.96304">
        <ele>704</ele>
        <time>2020-05-24T13:33:40.000Z</time>
      </trkpt>
      <trkpt lat="46.96462" lon="5.96303">
        <ele>704</ele>
        <time>2020-05-24T13:33:42.000Z</time>
      </trkpt>
      <trkpt lat="46.9646" lon="5.96302">
        <ele>704</ele>
        <time>2020-05-24T13:33:44.000Z</time>
      </trkpt>
      <trkpt lat="46.96458" lon="5.963">
        <ele>704</ele>
        <time>2020-05-24T13:33:46.000Z</time>
      </trkpt>
      <trkpt lat="46.96455" lon="5.96298">
        <ele>704</ele>
        <time>2020-05-24T13:33:48.000Z</time>
      </trkpt>
      <trkpt lat="46.96453" lon="5.96297">
        <ele>704</ele>
        <time>2020-05-24T13:33:50.000Z</time>
      </trkpt>
      <trkpt lat="46.96451" lon="5.96295">
        <ele>704</ele>
        <time>2020-05-24T13:33:52.000Z</time>
      </trkpt>
      <trkpt lat="46.96449" lon="5.96293">
        <ele>704</ele>
        <time>2020-05-24T13:33:55.000Z</time>
      </trkpt>
      <trkpt lat="46.96447" lon="5.96291">
        <ele>704</ele>
        <time>2020-05-24T13:33:57.000Z</time>
      </trkpt>
      <trkpt lat="46.96445" lon="5.96289">
        <ele>704</ele>
        <time>2020-05-24T13:33:59.000Z</time>
      </trkpt>
      <trkpt lat="46.96442" lon="5.96288">
        <ele>704</ele>
        <time>2020-05-24T13:34:01.000Z</time>
      </trkpt>
      <trkpt lat="46.9644" lon="5.96286">
        <ele>704</ele>
        <time>2020-05-24T13:34:03.000Z</time>
      </trkpt>
      <trkpt lat="46.96438" lon="5.96284">
        <ele>704</ele>
        <time>2020-05-24T13:34:05.000Z</time>
      </trkpt>
      <trkpt lat="46.96436" lon="5.96283">
        <ele>704</ele>
        <time>2020-05-24T13:34:07.000Z</time>
      </trkpt>
      <trkpt lat="46.96434" lon="5.96282">
        <ele>704</ele>
        <time>2020-05-24T13:34:08.000Z</time>
      </trkpt>
      <trkpt lat="46.96431" lon="5.9628">
        <ele>704</ele>
        <time>2020-05-24T13:34:10.000Z</time>
      </trkpt>
      <trkpt lat="46.96429" lon="5.96279">
        <ele>705</ele>
        <time>2020-05-24T13:34:12.000Z</time>
      </trkpt>
      <trkpt lat="46.96427" lon="5.96278">
        <ele>705</ele>
        <time>2020-05-24T13:34:14.000Z</time>
      </trkpt>
      <trkpt lat="46.96425" lon="5.96276">
        <ele>705.14286274049</ele>
        <time>2020-05-24T13:34:16.000Z</time>
      </trkpt>
      <trkpt lat="46.96423" lon="5.96275">
        <ele>706</ele>
        <time>2020-05-24T13:34:18.000Z</time>
      </trkpt>
      <trkpt lat="46.96421" lon="5.96273">
        <ele>706</ele>
        <time>2020-05-24T13:34:20.000Z</time>
      </trkpt>
      <trkpt lat="46.9642" lon="5.96271">
        <ele>706</ele>
        <time>2020-05-24T13:34:22.000Z</time>
      </trkpt>
      <trkpt lat="46.96418" lon="5.9627">
        <ele>706</ele>
        <time>2020-05-24T13:34:24.000Z</time>
      </trkpt>
      <trkpt lat="46.96416" lon="5.96267">
        <ele>707</ele>
        <time>2020-05-24T13:34:27.000Z</time>
      </trkpt>
      <trkpt lat="46.96414" lon="5.96265">
        <ele>707</ele>
        <time>2020-05-24T13:34:30.000Z</time>
      </trkpt>
      <trkpt lat="46.96411" lon="5.96263">
        <ele>708</ele>
        <time>2020-05-24T13:34:33.000Z</time>
      </trkpt>
      <trkpt lat="46.96409" lon="5.96261">
        <ele>708</ele>
        <time>2020-05-24T13:34:35.000Z</time>
      </trkpt>
      <trkpt lat="46.96407" lon="5.96259">
        <ele>708.8467173062</ele>
        <time>2020-05-24T13:34:37.000Z</time>
      </trkpt>
      <trkpt lat="46.96404" lon="5.96258">
        <ele>709</ele>
        <time>2020-05-24T13:34:39.000Z</time>
      </trkpt>
      <trkpt lat="46.96401" lon="5.96257">
        <ele>709</ele>
        <time>2020-05-24T13:34:41.000Z</time>
      </trkpt>
      <trkpt lat="46.964" lon="5.96256">
        <ele>709.06666002958</ele>
        <time>2020-05-24T13:34:43.000Z</time>
      </trkpt>
      <trkpt lat="46.96398" lon="5.96254">
        <ele>710</ele>
        <time>2020-05-24T13:34:45.000Z</time>
      </trkpt>
      <trkpt lat="46.96395" lon="5.96256">
        <ele>710</ele>
        <time>2020-05-24T13:34:49.000Z</time>
      </trkpt>
      <trkpt lat="46.96393" lon="5.96257">
        <ele>711</ele>
        <time>2020-05-24T13:34:51.000Z</time>
      </trkpt>
      <trkpt lat="46.9639" lon="5.96257">
        <ele>711</ele>
        <time>2020-05-24T13:34:53.000Z</time>
      </trkpt>
      <trkpt lat="46.96388" lon="5.96258">
        <ele>711.92063024442</ele>
        <time>2020-05-24T13:34:55.000Z</time>
      </trkpt>
      <trkpt lat="46.96386" lon="5.96257">
        <ele>712</ele>
        <time>2020-05-24T13:34:57.000Z</time>
      </trkpt>
      <trkpt lat="46.96384" lon="5.96256">
        <ele>711.90123495808</ele>
        <time>2020-05-24T13:34:59.000Z</time>
      </trkpt>
      <trkpt lat="46.96382" lon="5.96254">
        <ele>711</ele>
        <time>2020-05-24T13:35:01.000Z</time>
      </trkpt>
      <trkpt lat="46.9638" lon="5.96251">
        <ele>711</ele>
        <time>2020-05-24T13:35:04.000Z</time>
      </trkpt>
      <trkpt lat="46.96378" lon="5.96249">
        <ele>711</ele>
        <time>2020-05-24T13:35:06.000Z</time>
      </trkpt>
      <trkpt lat="46.96376" lon="5.96247">
        <ele>712</ele>
        <time>2020-05-24T13:35:08.000Z</time>
      </trkpt>
      <trkpt lat="46.96374" lon="5.96245">
        <ele>712</ele>
        <time>2020-05-24T13:35:10.000Z</time>
      </trkpt>
      <trkpt lat="46.96373" lon="5.96243">
        <ele>712.14286274049</ele>
        <time>2020-05-24T13:35:12.000Z</time>
      </trkpt>
      <trkpt lat="46.96371" lon="5.96242">
        <ele>712.84</ele>
        <time>2020-05-24T13:35:14.000Z</time>
      </trkpt>
      <trkpt lat="46.96369" lon="5.9624">
        <ele>712</ele>
        <time>2020-05-24T13:35:16.000Z</time>
      </trkpt>
      <trkpt lat="46.96367" lon="5.96237">
        <ele>712</ele>
        <time>2020-05-24T13:35:18.000Z</time>
      </trkpt>
      <trkpt lat="46.96362" lon="5.96226">
        <ele>713</ele>
        <time>2020-05-24T13:35:26.000Z</time>
      </trkpt>
      <trkpt lat="46.96355" lon="5.96219">
        <ele>713</ele>
        <time>2020-05-24T13:35:32.000Z</time>
      </trkpt>
      <trkpt lat="46.96352" lon="5.96206">
        <ele>713</ele>
        <time>2020-05-24T13:35:41.000Z</time>
      </trkpt>
      <trkpt lat="46.96356" lon="5.96205">
        <ele>713</ele>
        <time>2020-05-24T13:35:46.000Z</time>
      </trkpt>
      <trkpt lat="46.96359" lon="5.96204">
        <ele>713</ele>
        <time>2020-05-24T13:35:49.000Z</time>
      </trkpt>
      <trkpt lat="46.96361" lon="5.96203">
        <ele>713</ele>
        <time>2020-05-24T13:35:52.000Z</time>
      </trkpt>
      <trkpt lat="46.96358" lon="5.96204">
        <ele>713</ele>
        <time>2020-05-24T13:35:55.000Z</time>
      </trkpt>
      <trkpt lat="46.96356" lon="5.96206">
        <ele>712.84</ele>
        <time>2020-05-24T13:35:57.000Z</time>
      </trkpt>
      <trkpt lat="46.96353" lon="5.96208">
        <ele>712</ele>
        <time>2020-05-24T13:35:59.000Z</time>
      </trkpt>
      <trkpt lat="46.96351" lon="5.96209">
        <ele>712.14545539174</ele>
        <time>2020-05-24T13:36:01.000Z</time>
      </trkpt>
      <trkpt lat="46.96349" lon="5.96208">
        <ele>713</ele>
        <time>2020-05-24T13:36:03.000Z</time>
      </trkpt>
      <trkpt lat="46.96347" lon="5.96207">
        <ele>713</ele>
        <time>2020-05-24T13:36:05.000Z</time>
      </trkpt>
      <trkpt lat="46.96345" lon="5.96204">
        <ele>713</ele>
        <time>2020-05-24T13:36:07.000Z</time>
      </trkpt>
      <trkpt lat="46.96343" lon="5.96201">
        <ele>713</ele>
        <time>2020-05-24T13:36:09.000Z</time>
      </trkpt>
      <trkpt lat="46.96341" lon="5.96199">
        <ele>713</ele>
        <time>2020-05-24T13:36:11.000Z</time>
      </trkpt>
      <trkpt lat="46.9634" lon="5.96197">
        <ele>713</ele>
        <time>2020-05-24T13:36:13.000Z</time>
      </trkpt>
      <trkpt lat="46.96338" lon="5.96195">
        <ele>713</ele>
        <time>2020-05-24T13:36:15.000Z</time>
      </trkpt>
      <trkpt lat="46.96336" lon="5.96192">
        <ele>713</ele>
        <time>2020-05-24T13:36:17.000Z</time>
      </trkpt>
      <trkpt lat="46.96335" lon="5.9619">
        <ele>713</ele>
        <time>2020-05-24T13:36:19.000Z</time>
      </trkpt>
      <trkpt lat="46.96327" lon="5.9618">
        <ele>713</ele>
        <time>2020-05-24T13:36:31.000Z</time>
      </trkpt>
      <trkpt lat="46.9632" lon="5.96174">
        <ele>713</ele>
        <time>2020-05-24T13:36:38.000Z</time>
      </trkpt>
      <trkpt lat="46.96316" lon="5.96169">
        <ele>714</ele>
        <time>2020-05-24T13:36:44.000Z</time>
      </trkpt>
      <trkpt lat="46.96314" lon="5.96168">
        <ele>714</ele>
        <time>2020-05-24T13:36:46.000Z</time>
      </trkpt>
      <trkpt lat="46.96309" lon="5.96164">
        <ele>714</ele>
        <time>2020-05-24T13:36:51.000Z</time>
      </trkpt>
      <trkpt lat="46.96307" lon="5.96162">
        <ele>714</ele>
        <time>2020-05-24T13:36:53.000Z</time>
      </trkpt>
      <trkpt lat="46.96305" lon="5.96161">
        <ele>715</ele>
        <time>2020-05-24T13:36:55.000Z</time>
      </trkpt>
      <trkpt lat="46.96303" lon="5.96158">
        <ele>715</ele>
        <time>2020-05-24T13:36:57.000Z</time>
      </trkpt>
      <trkpt lat="46.96301" lon="5.96156">
        <ele>715</ele>
        <time>2020-05-24T13:36:59.000Z</time>
      </trkpt>
      <trkpt lat="46.96295" lon="5.96146">
        <ele>715</ele>
        <time>2020-05-24T13:37:06.000Z</time>
      </trkpt>
      <trkpt lat="46.96292" lon="5.96142">
        <ele>715</ele>
        <time>2020-05-24T13:37:09.000Z</time>
      </trkpt>
      <trkpt lat="46.96292" lon="5.96139">
        <ele>715</ele>
        <time>2020-05-24T13:37:11.000Z</time>
      </trkpt>
      <trkpt lat="46.96291" lon="5.96136">
        <ele>715</ele>
        <time>2020-05-24T13:37:16.000Z</time>
      </trkpt>
      <trkpt lat="46.9629" lon="5.96134">
        <ele>715</ele>
        <time>2020-05-24T13:37:21.000Z</time>
      </trkpt>
      <trkpt lat="46.96289" lon="5.96132">
        <ele>714</ele>
        <time>2020-05-24T13:37:29.000Z</time>
      </trkpt>
      <trkpt lat="46.9629" lon="5.9613">
        <ele>714.11450597983</ele>
        <time>2020-05-24T13:37:48.000Z</time>
      </trkpt>
      <trkpt lat="46.96291" lon="5.96129">
        <ele>714</ele>
        <time>2020-05-24T13:38:39.000Z</time>
      </trkpt>
      <trkpt lat="46.9629" lon="5.96122">
        <ele>715</ele>
        <time>2020-05-24T13:38:47.000Z</time>
      </trkpt>
      <trkpt lat="46.96287" lon="5.96109">
        <ele>714</ele>
        <time>2020-05-24T13:38:55.000Z</time>
      </trkpt>
      <trkpt lat="46.96288" lon="5.96095">
        <ele>713.09600024576</ele>
        <time>2020-05-24T13:39:04.000Z</time>
      </trkpt>
      <trkpt lat="46.96289" lon="5.96091">
        <ele>713</ele>
        <time>2020-05-24T13:39:06.000Z</time>
      </trkpt>
      <trkpt lat="46.96293" lon="5.96079">
        <ele>713</ele>
        <time>2020-05-24T13:39:13.000Z</time>
      </trkpt>
      <trkpt lat="46.96295" lon="5.96066">
        <ele>713</ele>
        <time>2020-05-24T13:39:23.000Z</time>
      </trkpt>
      <trkpt lat="46.96294" lon="5.96052">
        <ele>713</ele>
        <time>2020-05-24T13:39:30.000Z</time>
      </trkpt>
      <trkpt lat="46.96295" lon="5.96037">
        <ele>713</ele>
        <time>2020-05-24T13:39:38.000Z</time>
      </trkpt>
      <trkpt lat="46.96292" lon="5.96025">
        <ele>713</ele>
        <time>2020-05-24T13:39:45.000Z</time>
      </trkpt>
      <trkpt lat="46.96294" lon="5.9601">
        <ele>713</ele>
        <time>2020-05-24T13:39:54.000Z</time>
      </trkpt>
      <trkpt lat="46.96294" lon="5.95998">
        <ele>714</ele>
        <time>2020-05-24T13:40:00.000Z</time>
      </trkpt>
      <trkpt lat="46.96295" lon="5.95995">
        <ele>714</ele>
        <time>2020-05-24T13:40:02.000Z</time>
      </trkpt>
      <trkpt lat="46.96295" lon="5.95991">
        <ele>714</ele>
        <time>2020-05-24T13:40:04.000Z</time>
      </trkpt>
      <trkpt lat="46.96295" lon="5.95988">
        <ele>714</ele>
        <time>2020-05-24T13:40:06.000Z</time>
      </trkpt>
      <trkpt lat="46.96293" lon="5.95979">
        <ele>714.14953226308</ele>
        <time>2020-05-24T13:40:10.000Z</time>
      </trkpt>
      <trkpt lat="46.96295" lon="5.95964">
        <ele>715</ele>
        <time>2020-05-24T13:40:17.000Z</time>
      </trkpt>
      <trkpt lat="46.96294" lon="5.9595">
        <ele>715</ele>
        <time>2020-05-24T13:40:24.000Z</time>
      </trkpt>
      <trkpt lat="46.96294" lon="5.95941">
        <ele>716</ele>
        <time>2020-05-24T13:40:30.000Z</time>
      </trkpt>
      <trkpt lat="46.96294" lon="5.95937">
        <ele>716</ele>
        <time>2020-05-24T13:40:32.000Z</time>
      </trkpt>
      <trkpt lat="46.96293" lon="5.95934">
        <ele>716.14953226308</ele>
        <time>2020-05-24T13:40:34.000Z</time>
      </trkpt>
      <trkpt lat="46.96292" lon="5.95931">
        <ele>717</ele>
        <time>2020-05-24T13:40:36.000Z</time>
      </trkpt>
      <trkpt lat="46.9629" lon="5.95928">
        <ele>717</ele>
        <time>2020-05-24T13:40:38.000Z</time>
      </trkpt>
      <trkpt lat="46.96289" lon="5.95925">
        <ele>717</ele>
        <time>2020-05-24T13:40:40.000Z</time>
      </trkpt>
      <trkpt lat="46.96288" lon="5.95923">
        <ele>717</ele>
        <time>2020-05-24T13:40:42.000Z</time>
      </trkpt>
      <trkpt lat="46.96287" lon="5.95919">
        <ele>717</ele>
        <time>2020-05-24T13:40:45.000Z</time>
      </trkpt>
      <trkpt lat="46.96287" lon="5.95916">
        <ele>717.14159332133</ele>
        <time>2020-05-24T13:40:48.000Z</time>
      </trkpt>
      <trkpt lat="46.96285" lon="5.95912">
        <ele>718</ele>
        <time>2020-05-24T13:40:50.000Z</time>
      </trkpt>
      <trkpt lat="46.96284" lon="5.95909">
        <ele>718</ele>
        <time>2020-05-24T13:40:52.000Z</time>
      </trkpt>
      <trkpt lat="46.96282" lon="5.95906">
        <ele>718</ele>
        <time>2020-05-24T13:40:54.000Z</time>
      </trkpt>
      <trkpt lat="46.96282" lon="5.95901">
        <ele>719</ele>
        <time>2020-05-24T13:40:56.000Z</time>
      </trkpt>
      <trkpt lat="46.96281" lon="5.95899">
        <ele>719</ele>
        <time>2020-05-24T13:40:57.000Z</time>
      </trkpt>
      <trkpt lat="46.9628" lon="5.95895">
        <ele>719</ele>
        <time>2020-05-24T13:40:59.000Z</time>
      </trkpt>
      <trkpt lat="46.96279" lon="5.95893">
        <ele>719</ele>
        <time>2020-05-24T13:41:01.000Z</time>
      </trkpt>
      <trkpt lat="46.96278" lon="5.9589">
        <ele>719</ele>
        <time>2020-05-24T13:41:03.000Z</time>
      </trkpt>
      <trkpt lat="46.96277" lon="5.95887">
        <ele>719</ele>
        <time>2020-05-24T13:41:05.000Z</time>
      </trkpt>
      <trkpt lat="46.96275" lon="5.95884">
        <ele>719.8592572225</ele>
        <time>2020-05-24T13:41:07.000Z</time>
      </trkpt>
      <trkpt lat="46.96275" lon="5.9588">
        <ele>720</ele>
        <time>2020-05-24T13:41:09.000Z</time>
      </trkpt>
      <trkpt lat="46.96273" lon="5.95877">
        <ele>720</ele>
        <time>2020-05-24T13:41:11.000Z</time>
      </trkpt>
      <trkpt lat="46.96271" lon="5.95874">
        <ele>720</ele>
        <time>2020-05-24T13:41:13.000Z</time>
      </trkpt>
      <trkpt lat="46.9627" lon="5.9587">
        <ele>720</ele>
        <time>2020-05-24T13:41:15.000Z</time>
      </trkpt>
      <trkpt lat="46.96268" lon="5.95867">
        <ele>720</ele>
        <time>2020-05-24T13:41:17.000Z</time>
      </trkpt>
      <trkpt lat="46.96266" lon="5.95865">
        <ele>720</ele>
        <time>2020-05-24T13:41:19.000Z</time>
      </trkpt>
      <trkpt lat="46.96264" lon="5.95863">
        <ele>720.92800237569</ele>
        <time>2020-05-24T13:41:21.000Z</time>
      </trkpt>
      <trkpt lat="46.96263" lon="5.95861">
        <ele>721</ele>
        <time>2020-05-24T13:41:23.000Z</time>
      </trkpt>
      <trkpt lat="46.96261" lon="5.9586">
        <ele>721</ele>
        <time>2020-05-24T13:41:25.000Z</time>
      </trkpt>
      <trkpt lat="46.96259" lon="5.95858">
        <ele>722</ele>
        <time>2020-05-24T13:41:27.000Z</time>
      </trkpt>
      <trkpt lat="46.96256" lon="5.95857">
        <ele>722</ele>
        <time>2020-05-24T13:41:29.000Z</time>
      </trkpt>
      <trkpt lat="46.96255" lon="5.95854">
        <ele>722</ele>
        <time>2020-05-24T13:41:31.000Z</time>
      </trkpt>
      <trkpt lat="46.96253" lon="5.95852">
        <ele>722</ele>
        <time>2020-05-24T13:41:33.000Z</time>
      </trkpt>
      <trkpt lat="46.96251" lon="5.9585">
        <ele>722.09677419355</ele>
        <time>2020-05-24T13:41:35.000Z</time>
      </trkpt>
      <trkpt lat="46.96249" lon="5.95848">
        <ele>723</ele>
        <time>2020-05-24T13:41:37.000Z</time>
      </trkpt>
      <trkpt lat="46.96248" lon="5.95846">
        <ele>723</ele>
        <time>2020-05-24T13:41:39.000Z</time>
      </trkpt>
      <trkpt lat="46.96246" lon="5.95845">
        <ele>724</ele>
        <time>2020-05-24T13:41:41.000Z</time>
      </trkpt>
      <trkpt lat="46.96244" lon="5.95842">
        <ele>724</ele>
        <time>2020-05-24T13:41:43.000Z</time>
      </trkpt>
      <trkpt lat="46.96242" lon="5.95841">
        <ele>724</ele>
        <time>2020-05-24T13:41:46.000Z</time>
      </trkpt>
      <trkpt lat="46.96239" lon="5.95839">
        <ele>724</ele>
        <time>2020-05-24T13:41:48.000Z</time>
      </trkpt>
      <trkpt lat="46.96237" lon="5.95836">
        <ele>724</ele>
        <time>2020-05-24T13:41:50.000Z</time>
      </trkpt>
      <trkpt lat="46.96235" lon="5.95833">
        <ele>724</ele>
        <time>2020-05-24T13:41:52.000Z</time>
      </trkpt>
      <trkpt lat="46.96233" lon="5.95831">
        <ele>724</ele>
        <time>2020-05-24T13:41:54.000Z</time>
      </trkpt>
      <trkpt lat="46.96232" lon="5.95829">
        <ele>724</ele>
        <time>2020-05-24T13:41:56.000Z</time>
      </trkpt>
      <trkpt lat="46.96229" lon="5.95826">
        <ele>724</ele>
        <time>2020-05-24T13:41:58.000Z</time>
      </trkpt>
      <trkpt lat="46.96228" lon="5.95823">
        <ele>724</ele>
        <time>2020-05-24T13:42:00.000Z</time>
      </trkpt>
      <trkpt lat="46.96225" lon="5.95821">
        <ele>724</ele>
        <time>2020-05-24T13:42:02.000Z</time>
      </trkpt>
      <trkpt lat="46.96222" lon="5.95818">
        <ele>724</ele>
        <time>2020-05-24T13:42:04.000Z</time>
      </trkpt>
      <trkpt lat="46.9622" lon="5.95816">
        <ele>724</ele>
        <time>2020-05-24T13:42:06.000Z</time>
      </trkpt>
      <trkpt lat="46.96218" lon="5.95814">
        <ele>724</ele>
        <time>2020-05-24T13:42:08.000Z</time>
      </trkpt>
      <trkpt lat="46.96216" lon="5.95811">
        <ele>724</ele>
        <time>2020-05-24T13:42:10.000Z</time>
      </trkpt>
      <trkpt lat="46.96214" lon="5.95809">
        <ele>724</ele>
        <time>2020-05-24T13:42:12.000Z</time>
      </trkpt>
      <trkpt lat="46.96213" lon="5.95806">
        <ele>724</ele>
        <time>2020-05-24T13:42:14.000Z</time>
      </trkpt>
      <trkpt lat="46.96211" lon="5.95804">
        <ele>724</ele>
        <time>2020-05-24T13:42:16.000Z</time>
      </trkpt>
      <trkpt lat="46.9621" lon="5.95802">
        <ele>724</ele>
        <time>2020-05-24T13:42:18.000Z</time>
      </trkpt>
      <trkpt lat="46.96208" lon="5.95799">
        <ele>724.16</ele>
        <time>2020-05-24T13:42:20.000Z</time>
      </trkpt>
      <trkpt lat="46.96206" lon="5.95797">
        <ele>725</ele>
        <time>2020-05-24T13:42:22.000Z</time>
      </trkpt>
      <trkpt lat="46.96204" lon="5.95795">
        <ele>725</ele>
        <time>2020-05-24T13:42:26.000Z</time>
      </trkpt>
      <trkpt lat="46.96202" lon="5.95792">
        <ele>725</ele>
        <time>2020-05-24T13:42:28.000Z</time>
      </trkpt>
      <trkpt lat="46.962" lon="5.95789">
        <ele>725</ele>
        <time>2020-05-24T13:42:30.000Z</time>
      </trkpt>
      <trkpt lat="46.96198" lon="5.95786">
        <ele>725</ele>
        <time>2020-05-24T13:42:32.000Z</time>
      </trkpt>
      <trkpt lat="46.96196" lon="5.95783">
        <ele>725</ele>
        <time>2020-05-24T13:42:34.000Z</time>
      </trkpt>
      <trkpt lat="46.96195" lon="5.9578">
        <ele>725</ele>
        <time>2020-05-24T13:42:36.000Z</time>
      </trkpt>
      <trkpt lat="46.96193" lon="5.95777">
        <ele>725</ele>
        <time>2020-05-24T13:42:38.000Z</time>
      </trkpt>
      <trkpt lat="46.96191" lon="5.95774">
        <ele>725</ele>
        <time>2020-05-24T13:42:40.000Z</time>
      </trkpt>
      <trkpt lat="46.96189" lon="5.95772">
        <ele>725</ele>
        <time>2020-05-24T13:42:42.000Z</time>
      </trkpt>
      <trkpt lat="46.96187" lon="5.95769">
        <ele>725</ele>
        <time>2020-05-24T13:42:44.000Z</time>
      </trkpt>
      <trkpt lat="46.96184" lon="5.95767">
        <ele>725</ele>
        <time>2020-05-24T13:42:46.000Z</time>
      </trkpt>
      <trkpt lat="46.96182" lon="5.95764">
        <ele>725</ele>
        <time>2020-05-24T13:42:48.000Z</time>
      </trkpt>
      <trkpt lat="46.96181" lon="5.95762">
        <ele>725</ele>
        <time>2020-05-24T13:42:50.000Z</time>
      </trkpt>
      <trkpt lat="46.96179" lon="5.95759">
        <ele>725</ele>
        <time>2020-05-24T13:42:52.000Z</time>
      </trkpt>
      <trkpt lat="46.96177" lon="5.95757">
        <ele>725</ele>
        <time>2020-05-24T13:42:54.000Z</time>
      </trkpt>
      <trkpt lat="46.96175" lon="5.95755">
        <ele>725</ele>
        <time>2020-05-24T13:42:56.000Z</time>
      </trkpt>
      <trkpt lat="46.96173" lon="5.95753">
        <ele>725</ele>
        <time>2020-05-24T13:42:58.000Z</time>
      </trkpt>
      <trkpt lat="46.9617" lon="5.9575">
        <ele>725</ele>
        <time>2020-05-24T13:43:00.000Z</time>
      </trkpt>
      <trkpt lat="46.96168" lon="5.95748">
        <ele>725</ele>
        <time>2020-05-24T13:43:02.000Z</time>
      </trkpt>
      <trkpt lat="46.96166" lon="5.95745">
        <ele>725</ele>
        <time>2020-05-24T13:43:04.000Z</time>
      </trkpt>
      <trkpt lat="46.96164" lon="5.95743">
        <ele>725</ele>
        <time>2020-05-24T13:43:06.000Z</time>
      </trkpt>
      <trkpt lat="46.96162" lon="5.95741">
        <ele>725</ele>
        <time>2020-05-24T13:43:07.000Z</time>
      </trkpt>
      <trkpt lat="46.9616" lon="5.95738">
        <ele>725</ele>
        <time>2020-05-24T13:43:09.000Z</time>
      </trkpt>
      <trkpt lat="46.96159" lon="5.95736">
        <ele>725</ele>
        <time>2020-05-24T13:43:11.000Z</time>
      </trkpt>
      <trkpt lat="46.96157" lon="5.95734">
        <ele>725</ele>
        <time>2020-05-24T13:43:13.000Z</time>
      </trkpt>
      <trkpt lat="46.96154" lon="5.95732">
        <ele>725</ele>
        <time>2020-05-24T13:43:15.000Z</time>
      </trkpt>
      <trkpt lat="46.96151" lon="5.9573">
        <ele>725</ele>
        <time>2020-05-24T13:43:17.000Z</time>
      </trkpt>
      <trkpt lat="46.96149" lon="5.95727">
        <ele>725</ele>
        <time>2020-05-24T13:43:19.000Z</time>
      </trkpt>
      <trkpt lat="46.96146" lon="5.95725">
        <ele>725</ele>
        <time>2020-05-24T13:43:21.000Z</time>
      </trkpt>
      <trkpt lat="46.96145" lon="5.95723">
        <ele>725</ele>
        <time>2020-05-24T13:43:23.000Z</time>
      </trkpt>
      <trkpt lat="46.96143" lon="5.9572">
        <ele>725</ele>
        <time>2020-05-24T13:43:25.000Z</time>
      </trkpt>
      <trkpt lat="46.96141" lon="5.95718">
        <ele>726</ele>
        <time>2020-05-24T13:43:29.000Z</time>
      </trkpt>
      <trkpt lat="46.96139" lon="5.95716">
        <ele>726</ele>
        <time>2020-05-24T13:43:31.000Z</time>
      </trkpt>
      <trkpt lat="46.96137" lon="5.95713">
        <ele>725.85840667867</ele>
        <time>2020-05-24T13:43:33.000Z</time>
      </trkpt>
      <trkpt lat="46.96135" lon="5.95711">
        <ele>725.14159332133</ele>
        <time>2020-05-24T13:43:35.000Z</time>
      </trkpt>
      <trkpt lat="46.96134" lon="5.95709">
        <ele>726</ele>
        <time>2020-05-24T13:43:37.000Z</time>
      </trkpt>
      <trkpt lat="46.96133" lon="5.95706">
        <ele>726</ele>
        <time>2020-05-24T13:43:39.000Z</time>
      </trkpt>
      <trkpt lat="46.96131" lon="5.95704">
        <ele>726</ele>
        <time>2020-05-24T13:43:41.000Z</time>
      </trkpt>
      <trkpt lat="46.96129" lon="5.95701">
        <ele>726</ele>
        <time>2020-05-24T13:43:43.000Z</time>
      </trkpt>
      <trkpt lat="46.96126" lon="5.95699">
        <ele>726</ele>
        <time>2020-05-24T13:43:45.000Z</time>
      </trkpt>
      <trkpt lat="46.96124" lon="5.95697">
        <ele>726</ele>
        <time>2020-05-24T13:43:47.000Z</time>
      </trkpt>
      <trkpt lat="46.96122" lon="5.95695">
        <ele>726</ele>
        <time>2020-05-24T13:43:49.000Z</time>
      </trkpt>
      <trkpt lat="46.96119" lon="5.95692">
        <ele>726</ele>
        <time>2020-05-24T13:43:51.000Z</time>
      </trkpt>
      <trkpt lat="46.96116" lon="5.9569">
        <ele>726</ele>
        <time>2020-05-24T13:43:53.000Z</time>
      </trkpt>
      <trkpt lat="46.96114" lon="5.95689">
        <ele>726</ele>
        <time>2020-05-24T13:43:54.000Z</time>
      </trkpt>
      <trkpt lat="46.96111" lon="5.95687">
        <ele>726</ele>
        <time>2020-05-24T13:43:55.000Z</time>
      </trkpt>
      <trkpt lat="46.96109" lon="5.95684">
        <ele>726</ele>
        <time>2020-05-24T13:43:57.000Z</time>
      </trkpt>
      <trkpt lat="46.96107" lon="5.95682">
        <ele>726</ele>
        <time>2020-05-24T13:43:59.000Z</time>
      </trkpt>
      <trkpt lat="46.96105" lon="5.95679">
        <ele>726</ele>
        <time>2020-05-24T13:44:01.000Z</time>
      </trkpt>
      <trkpt lat="46.96103" lon="5.95677">
        <ele>726</ele>
        <time>2020-05-24T13:44:03.000Z</time>
      </trkpt>
      <trkpt lat="46.961" lon="5.95674">
        <ele>725</ele>
        <time>2020-05-24T13:44:05.000Z</time>
      </trkpt>
      <trkpt lat="46.96098" lon="5.95672">
        <ele>725</ele>
        <time>2020-05-24T13:44:07.000Z</time>
      </trkpt>
      <trkpt lat="46.96096" lon="5.9567">
        <ele>725</ele>
        <time>2020-05-24T13:44:09.000Z</time>
      </trkpt>
      <trkpt lat="46.96094" lon="5.95668">
        <ele>725</ele>
        <time>2020-05-24T13:44:11.000Z</time>
      </trkpt>
      <trkpt lat="46.96091" lon="5.95665">
        <ele>725</ele>
        <time>2020-05-24T13:44:13.000Z</time>
      </trkpt>
      <trkpt lat="46.96089" lon="5.95663">
        <ele>725</ele>
        <time>2020-05-24T13:44:15.000Z</time>
      </trkpt>
      <trkpt lat="46.96088" lon="5.95661">
        <ele>725</ele>
        <time>2020-05-24T13:44:17.000Z</time>
      </trkpt>
      <trkpt lat="46.96086" lon="5.95657">
        <ele>725</ele>
        <time>2020-05-24T13:44:19.000Z</time>
      </trkpt>
      <trkpt lat="46.96084" lon="5.95654">
        <ele>725</ele>
        <time>2020-05-24T13:44:21.000Z</time>
      </trkpt>
      <trkpt lat="46.96083" lon="5.95651">
        <ele>725</ele>
        <time>2020-05-24T13:44:23.000Z</time>
      </trkpt>
      <trkpt lat="46.96081" lon="5.95649">
        <ele>725</ele>
        <time>2020-05-24T13:44:25.000Z</time>
      </trkpt>
      <trkpt lat="46.9608" lon="5.95646">
        <ele>725</ele>
        <time>2020-05-24T13:44:28.000Z</time>
      </trkpt>
      <trkpt lat="46.96078" lon="5.95644">
        <ele>725</ele>
        <time>2020-05-24T13:44:30.000Z</time>
      </trkpt>
      <trkpt lat="46.96075" lon="5.95641">
        <ele>725</ele>
        <time>2020-05-24T13:44:32.000Z</time>
      </trkpt>
      <trkpt lat="46.96074" lon="5.95639">
        <ele>725</ele>
        <time>2020-05-24T13:44:33.000Z</time>
      </trkpt>
      <trkpt lat="46.96071" lon="5.95637">
        <ele>725</ele>
        <time>2020-05-24T13:44:35.000Z</time>
      </trkpt>
      <trkpt lat="46.96069" lon="5.95635">
        <ele>725</ele>
        <time>2020-05-24T13:44:36.000Z</time>
      </trkpt>
      <trkpt lat="46.96067" lon="5.95633">
        <ele>725</ele>
        <time>2020-05-24T13:44:38.000Z</time>
      </trkpt>
      <trkpt lat="46.96066" lon="5.95631">
        <ele>725</ele>
        <time>2020-05-24T13:44:40.000Z</time>
      </trkpt>
      <trkpt lat="46.96064" lon="5.95628">
        <ele>725</ele>
        <time>2020-05-24T13:44:42.000Z</time>
      </trkpt>
      <trkpt lat="46.96063" lon="5.95626">
        <ele>725</ele>
        <time>2020-05-24T13:44:44.000Z</time>
      </trkpt>
      <trkpt lat="46.96061" lon="5.95623">
        <ele>725</ele>
        <time>2020-05-24T13:44:46.000Z</time>
      </trkpt>
      <trkpt lat="46.96059" lon="5.95621">
        <ele>724.85713725951</ele>
        <time>2020-05-24T13:44:48.000Z</time>
      </trkpt>
      <trkpt lat="46.96056" lon="5.95619">
        <ele>724.0769263229</ele>
        <time>2020-05-24T13:44:50.000Z</time>
      </trkpt>
      <trkpt lat="46.96054" lon="5.95617">
        <ele>725</ele>
        <time>2020-05-24T13:44:51.000Z</time>
      </trkpt>
      <trkpt lat="46.96052" lon="5.95615">
        <ele>725</ele>
        <time>2020-05-24T13:44:53.000Z</time>
      </trkpt>
      <trkpt lat="46.96051" lon="5.95613">
        <ele>725</ele>
        <time>2020-05-24T13:44:55.000Z</time>
      </trkpt>
      <trkpt lat="46.96048" lon="5.9561">
        <ele>725</ele>
        <time>2020-05-24T13:44:57.000Z</time>
      </trkpt>
      <trkpt lat="46.96047" lon="5.95609">
        <ele>725</ele>
        <time>2020-05-24T13:44:58.000Z</time>
      </trkpt>
      <trkpt lat="46.96044" lon="5.95606">
        <ele>725</ele>
        <time>2020-05-24T13:45:00.000Z</time>
      </trkpt>
      <trkpt lat="46.96042" lon="5.95605">
        <ele>725</ele>
        <time>2020-05-24T13:45:01.000Z</time>
      </trkpt>
      <trkpt lat="46.9604" lon="5.95602">
        <ele>723.92063024442</ele>
        <time>2020-05-24T13:45:03.000Z</time>
      </trkpt>
      <trkpt lat="46.96037" lon="5.95599">
        <ele>723</ele>
        <time>2020-05-24T13:45:05.000Z</time>
      </trkpt>
      <trkpt lat="46.96035" lon="5.95597">
        <ele>723</ele>
        <time>2020-05-24T13:45:07.000Z</time>
      </trkpt>
      <trkpt lat="46.96033" lon="5.95594">
        <ele>723</ele>
        <time>2020-05-24T13:45:09.000Z</time>
      </trkpt>
      <trkpt lat="46.96031" lon="5.95592">
        <ele>723</ele>
        <time>2020-05-24T13:45:11.000Z</time>
      </trkpt>
      <trkpt lat="46.9603" lon="5.9559">
        <ele>723</ele>
        <time>2020-05-24T13:45:13.000Z</time>
      </trkpt>
      <trkpt lat="46.96028" lon="5.95588">
        <ele>723</ele>
        <time>2020-05-24T13:45:15.000Z</time>
      </trkpt>
      <trkpt lat="46.96026" lon="5.95585">
        <ele>723</ele>
        <time>2020-05-24T13:45:17.000Z</time>
      </trkpt>
      <trkpt lat="46.96024" lon="5.95583">
        <ele>723</ele>
        <time>2020-05-24T13:45:19.000Z</time>
      </trkpt>
      <trkpt lat="46.96022" lon="5.9558">
        <ele>723</ele>
        <time>2020-05-24T13:45:21.000Z</time>
      </trkpt>
      <trkpt lat="46.96019" lon="5.95578">
        <ele>723</ele>
        <time>2020-05-24T13:45:23.000Z</time>
      </trkpt>
      <trkpt lat="46.96017" lon="5.95577">
        <ele>723</ele>
        <time>2020-05-24T13:45:24.000Z</time>
      </trkpt>
      <trkpt lat="46.96015" lon="5.95574">
        <ele>723</ele>
        <time>2020-05-24T13:45:26.000Z</time>
      </trkpt>
      <trkpt lat="46.96013" lon="5.95571">
        <ele>721.84</ele>
        <time>2020-05-24T13:45:28.000Z</time>
      </trkpt>
      <trkpt lat="46.9601" lon="5.95568">
        <ele>721</ele>
        <time>2020-05-24T13:45:30.000Z</time>
      </trkpt>
      <trkpt lat="46.96008" lon="5.95566">
        <ele>721</ele>
        <time>2020-05-24T13:45:32.000Z</time>
      </trkpt>
      <trkpt lat="46.96007" lon="5.95563">
        <ele>721</ele>
        <time>2020-05-24T13:45:34.000Z</time>
      </trkpt>
      <trkpt lat="46.96005" lon="5.95561">
        <ele>721</ele>
        <time>2020-05-24T13:45:36.000Z</time>
      </trkpt>
      <trkpt lat="46.96003" lon="5.95559">
        <ele>721</ele>
        <time>2020-05-24T13:45:38.000Z</time>
      </trkpt>
      <trkpt lat="46.96001" lon="5.95556">
        <ele>721</ele>
        <time>2020-05-24T13:45:40.000Z</time>
      </trkpt>
      <trkpt lat="46.95999" lon="5.95554">
        <ele>721</ele>
        <time>2020-05-24T13:45:42.000Z</time>
      </trkpt>
      <trkpt lat="46.95996" lon="5.95551">
        <ele>721</ele>
        <time>2020-05-24T13:45:44.000Z</time>
      </trkpt>
      <trkpt lat="46.95993" lon="5.95549">
        <ele>721</ele>
        <time>2020-05-24T13:45:46.000Z</time>
      </trkpt>
      <trkpt lat="46.95991" lon="5.95547">
        <ele>721</ele>
        <time>2020-05-24T13:45:48.000Z</time>
      </trkpt>
      <trkpt lat="46.95988" lon="5.95544">
        <ele>720.88420754793</ele>
        <time>2020-05-24T13:45:50.000Z</time>
      </trkpt>
      <trkpt lat="46.95986" lon="5.95543">
        <ele>720</ele>
        <time>2020-05-24T13:45:51.000Z</time>
      </trkpt>
      <trkpt lat="46.95984" lon="5.9554">
        <ele>720</ele>
        <time>2020-05-24T13:45:53.000Z</time>
      </trkpt>
      <trkpt lat="46.95982" lon="5.95537">
        <ele>720</ele>
        <time>2020-05-24T13:45:55.000Z</time>
      </trkpt>
      <trkpt lat="46.9598" lon="5.95535">
        <ele>720</ele>
        <time>2020-05-24T13:45:57.000Z</time>
      </trkpt>
      <trkpt lat="46.95979" lon="5.95532">
        <ele>720</ele>
        <time>2020-05-24T13:45:59.000Z</time>
      </trkpt>
      <trkpt lat="46.95976" lon="5.95529">
        <ele>720</ele>
        <time>2020-05-24T13:46:01.000Z</time>
      </trkpt>
      <trkpt lat="46.95974" lon="5.95526">
        <ele>720</ele>
        <time>2020-05-24T13:46:04.000Z</time>
      </trkpt>
      <trkpt lat="46.95971" lon="5.95524">
        <ele>720</ele>
        <time>2020-05-24T13:46:06.000Z</time>
      </trkpt>
      <trkpt lat="46.95969" lon="5.95522">
        <ele>719.84</ele>
        <time>2020-05-24T13:46:08.000Z</time>
      </trkpt>
      <trkpt lat="46.95967" lon="5.95519">
        <ele>719</ele>
        <time>2020-05-24T13:46:10.000Z</time>
      </trkpt>
      <trkpt lat="46.95965" lon="5.95516">
        <ele>719</ele>
        <time>2020-05-24T13:46:12.000Z</time>
      </trkpt>
      <trkpt lat="46.95963" lon="5.95514">
        <ele>719</ele>
        <time>2020-05-24T13:46:14.000Z</time>
      </trkpt>
      <trkpt lat="46.95961" lon="5.95511">
        <ele>719</ele>
        <time>2020-05-24T13:46:16.000Z</time>
      </trkpt>
      <trkpt lat="46.95958" lon="5.95509">
        <ele>719</ele>
        <time>2020-05-24T13:46:18.000Z</time>
      </trkpt>
      <trkpt lat="46.95955" lon="5.95506">
        <ele>719</ele>
        <time>2020-05-24T13:46:20.000Z</time>
      </trkpt>
      <trkpt lat="46.95953" lon="5.95503">
        <ele>718</ele>
        <time>2020-05-24T13:46:22.000Z</time>
      </trkpt>
      <trkpt lat="46.95951" lon="5.955">
        <ele>717.15238141678</ele>
        <time>2020-05-24T13:46:24.000Z</time>
      </trkpt>
      <trkpt lat="46.95948" lon="5.95498">
        <ele>718</ele>
        <time>2020-05-24T13:46:26.000Z</time>
      </trkpt>
      <trkpt lat="46.95946" lon="5.95496">
        <ele>718</ele>
        <time>2020-05-24T13:46:28.000Z</time>
      </trkpt>
      <trkpt lat="46.95944" lon="5.95495">
        <ele>718</ele>
        <time>2020-05-24T13:46:30.000Z</time>
      </trkpt>
      <trkpt lat="46.95941" lon="5.95492">
        <ele>718</ele>
        <time>2020-05-24T13:46:32.000Z</time>
      </trkpt>
      <trkpt lat="46.95939" lon="5.9549">
        <ele>717.84</ele>
        <time>2020-05-24T13:46:34.000Z</time>
      </trkpt>
      <trkpt lat="46.95937" lon="5.95489">
        <ele>717</ele>
        <time>2020-05-24T13:46:36.000Z</time>
      </trkpt>
      <trkpt lat="46.95935" lon="5.95487">
        <ele>717</ele>
        <time>2020-05-24T13:46:38.000Z</time>
      </trkpt>
      <trkpt lat="46.95932" lon="5.95486">
        <ele>717</ele>
        <time>2020-05-24T13:46:40.000Z</time>
      </trkpt>
      <trkpt lat="46.9593" lon="5.95483">
        <ele>717</ele>
        <time>2020-05-24T13:46:42.000Z</time>
      </trkpt>
      <trkpt lat="46.95927" lon="5.95481">
        <ele>717</ele>
        <time>2020-05-24T13:46:44.000Z</time>
      </trkpt>
      <trkpt lat="46.95925" lon="5.95478">
        <ele>717</ele>
        <time>2020-05-24T13:46:46.000Z</time>
      </trkpt>
      <trkpt lat="46.95923" lon="5.95476">
        <ele>717</ele>
        <time>2020-05-24T13:46:48.000Z</time>
      </trkpt>
      <trkpt lat="46.9592" lon="5.95474">
        <ele>717</ele>
        <time>2020-05-24T13:46:50.000Z</time>
      </trkpt>
      <trkpt lat="46.95918" lon="5.95472">
        <ele>717</ele>
        <time>2020-05-24T13:46:52.000Z</time>
      </trkpt>
      <trkpt lat="46.95916" lon="5.9547">
        <ele>717</ele>
        <time>2020-05-24T13:46:54.000Z</time>
      </trkpt>
      <trkpt lat="46.95914" lon="5.95468">
        <ele>717</ele>
        <time>2020-05-24T13:46:56.000Z</time>
      </trkpt>
      <trkpt lat="46.95912" lon="5.95465">
        <ele>717</ele>
        <time>2020-05-24T13:46:58.000Z</time>
      </trkpt>
      <trkpt lat="46.95909" lon="5.95463">
        <ele>717</ele>
        <time>2020-05-24T13:47:00.000Z</time>
      </trkpt>
      <trkpt lat="46.95907" lon="5.95461">
        <ele>717</ele>
        <time>2020-05-24T13:47:02.000Z</time>
      </trkpt>
      <trkpt lat="46.95905" lon="5.95458">
        <ele>717</ele>
        <time>2020-05-24T13:47:04.000Z</time>
      </trkpt>
      <trkpt lat="46.95903" lon="5.95456">
        <ele>717</ele>
        <time>2020-05-24T13:47:06.000Z</time>
      </trkpt>
      <trkpt lat="46.95901" lon="5.95453">
        <ele>717</ele>
        <time>2020-05-24T13:47:08.000Z</time>
      </trkpt>
      <trkpt lat="46.95899" lon="5.95451">
        <ele>717.16</ele>
        <time>2020-05-24T13:47:10.000Z</time>
      </trkpt>
      <trkpt lat="46.95897" lon="5.95449">
        <ele>718</ele>
        <time>2020-05-24T13:47:12.000Z</time>
      </trkpt>
      <trkpt lat="46.95895" lon="5.95446">
        <ele>718</ele>
        <time>2020-05-24T13:47:14.000Z</time>
      </trkpt>
      <trkpt lat="46.95893" lon="5.95444">
        <ele>718</ele>
        <time>2020-05-24T13:47:16.000Z</time>
      </trkpt>
      <trkpt lat="46.9589" lon="5.95441">
        <ele>718</ele>
        <time>2020-05-24T13:47:18.000Z</time>
      </trkpt>
      <trkpt lat="46.95888" lon="5.95439">
        <ele>718</ele>
        <time>2020-05-24T13:47:20.000Z</time>
      </trkpt>
      <trkpt lat="46.95886" lon="5.95436">
        <ele>718</ele>
        <time>2020-05-24T13:47:22.000Z</time>
      </trkpt>
      <trkpt lat="46.95884" lon="5.95434">
        <ele>718</ele>
        <time>2020-05-24T13:47:24.000Z</time>
      </trkpt>
      <trkpt lat="46.95882" lon="5.95432">
        <ele>718</ele>
        <time>2020-05-24T13:47:26.000Z</time>
      </trkpt>
      <trkpt lat="46.9588" lon="5.95429">
        <ele>718</ele>
        <time>2020-05-24T13:47:28.000Z</time>
      </trkpt>
      <trkpt lat="46.95878" lon="5.95427">
        <ele>718</ele>
        <time>2020-05-24T13:47:30.000Z</time>
      </trkpt>
      <trkpt lat="46.95876" lon="5.95424">
        <ele>718</ele>
        <time>2020-05-24T13:47:32.000Z</time>
      </trkpt>
      <trkpt lat="46.95874" lon="5.95422">
        <ele>718</ele>
        <time>2020-05-24T13:47:34.000Z</time>
      </trkpt>
      <trkpt lat="46.95871" lon="5.9542">
        <ele>718</ele>
        <time>2020-05-24T13:47:36.000Z</time>
      </trkpt>
      <trkpt lat="46.95869" lon="5.95417">
        <ele>718</ele>
        <time>2020-05-24T13:47:38.000Z</time>
      </trkpt>
      <trkpt lat="46.95867" lon="5.95414">
        <ele>718</ele>
        <time>2020-05-24T13:47:40.000Z</time>
      </trkpt>
      <trkpt lat="46.95865" lon="5.95412">
        <ele>718</ele>
        <time>2020-05-24T13:47:42.000Z</time>
      </trkpt>
      <trkpt lat="46.95863" lon="5.9541">
        <ele>719</ele>
        <time>2020-05-24T13:47:44.000Z</time>
      </trkpt>
      <trkpt lat="46.9586" lon="5.95408">
        <ele>719</ele>
        <time>2020-05-24T13:47:46.000Z</time>
      </trkpt>
      <trkpt lat="46.95858" lon="5.95406">
        <ele>718.85714285714</ele>
        <time>2020-05-24T13:47:48.000Z</time>
      </trkpt>
      <trkpt lat="46.95855" lon="5.95403">
        <ele>718</ele>
        <time>2020-05-24T13:47:50.000Z</time>
      </trkpt>
      <trkpt lat="46.95853" lon="5.95401">
        <ele>718</ele>
        <time>2020-05-24T13:47:52.000Z</time>
      </trkpt>
      <trkpt lat="46.95851" lon="5.95399">
        <ele>718</ele>
        <time>2020-05-24T13:47:54.000Z</time>
      </trkpt>
      <trkpt lat="46.95849" lon="5.95397">
        <ele>718</ele>
        <time>2020-05-24T13:47:56.000Z</time>
      </trkpt>
      <trkpt lat="46.95847" lon="5.95395">
        <ele>718</ele>
        <time>2020-05-24T13:47:58.000Z</time>
      </trkpt>
      <trkpt lat="46.95845" lon="5.95393">
        <ele>718</ele>
        <time>2020-05-24T13:48:00.000Z</time>
      </trkpt>
      <trkpt lat="46.95843" lon="5.95391">
        <ele>718</ele>
        <time>2020-05-24T13:48:02.000Z</time>
      </trkpt>
      <trkpt lat="46.95841" lon="5.9539">
        <ele>719</ele>
        <time>2020-05-24T13:48:04.000Z</time>
      </trkpt>
      <trkpt lat="46.95838" lon="5.95387">
        <ele>719</ele>
        <time>2020-05-24T13:48:06.000Z</time>
      </trkpt>
      <trkpt lat="46.95836" lon="5.95385">
        <ele>719</ele>
        <time>2020-05-24T13:48:08.000Z</time>
      </trkpt>
      <trkpt lat="46.95833" lon="5.95383">
        <ele>719.16</ele>
        <time>2020-05-24T13:48:10.000Z</time>
      </trkpt>
      <trkpt lat="46.95831" lon="5.95382">
        <ele>719.94382361824</ele>
        <time>2020-05-24T13:48:12.000Z</time>
      </trkpt>
      <trkpt lat="46.95829" lon="5.95381">
        <ele>719</ele>
        <time>2020-05-24T13:48:14.000Z</time>
      </trkpt>
      <trkpt lat="46.95827" lon="5.9538">
        <ele>719</ele>
        <time>2020-05-24T13:48:16.000Z</time>
      </trkpt>
      <trkpt lat="46.95825" lon="5.95379">
        <ele>719</ele>
        <time>2020-05-24T13:48:18.000Z</time>
      </trkpt>
      <trkpt lat="46.95822" lon="5.95378">
        <ele>719</ele>
        <time>2020-05-24T13:48:20.000Z</time>
      </trkpt>
      <trkpt lat="46.95819" lon="5.95377">
        <ele>719</ele>
        <time>2020-05-24T13:48:22.000Z</time>
      </trkpt>
      <trkpt lat="46.95816" lon="5.95376">
        <ele>719</ele>
        <time>2020-05-24T13:48:24.000Z</time>
      </trkpt>
      <trkpt lat="46.95813" lon="5.95375">
        <ele>719</ele>
        <time>2020-05-24T13:48:26.000Z</time>
      </trkpt>
      <trkpt lat="46.95809" lon="5.95374">
        <ele>719</ele>
        <time>2020-05-24T13:48:28.000Z</time>
      </trkpt>
      <trkpt lat="46.95807" lon="5.95374">
        <ele>719</ele>
        <time>2020-05-24T13:48:29.000Z</time>
      </trkpt>
      <trkpt lat="46.95806" lon="5.95374">
        <ele>719.12598393453</ele>
        <time>2020-05-24T13:48:30.000Z</time>
      </trkpt>
      <trkpt lat="46.95802" lon="5.95374">
        <ele>720</ele>
        <time>2020-05-24T13:48:32.000Z</time>
      </trkpt>
      <trkpt lat="46.958" lon="5.95374">
        <ele>720</ele>
        <time>2020-05-24T13:48:34.000Z</time>
      </trkpt>
      <trkpt lat="46.95797" lon="5.95374">
        <ele>720</ele>
        <time>2020-05-24T13:48:36.000Z</time>
      </trkpt>
      <trkpt lat="46.95794" lon="5.95375">
        <ele>719</ele>
        <time>2020-05-24T13:48:38.000Z</time>
      </trkpt>
      <trkpt lat="46.95791" lon="5.95375">
        <ele>719</ele>
        <time>2020-05-24T13:48:40.000Z</time>
      </trkpt>
      <trkpt lat="46.95789" lon="5.95377">
        <ele>719</ele>
        <time>2020-05-24T13:48:42.000Z</time>
      </trkpt>
      <trkpt lat="46.95786" lon="5.95378">
        <ele>719</ele>
        <time>2020-05-24T13:48:44.000Z</time>
      </trkpt>
      <trkpt lat="46.95783" lon="5.95379">
        <ele>719</ele>
        <time>2020-05-24T13:48:46.000Z</time>
      </trkpt>
      <trkpt lat="46.9578" lon="5.95381">
        <ele>719</ele>
        <time>2020-05-24T13:48:48.000Z</time>
      </trkpt>
      <trkpt lat="46.95777" lon="5.95382">
        <ele>718.95454545455</ele>
        <time>2020-05-24T13:48:50.000Z</time>
      </trkpt>
      <trkpt lat="46.95775" lon="5.95384">
        <ele>718</ele>
        <time>2020-05-24T13:48:52.000Z</time>
      </trkpt>
      <trkpt lat="46.95773" lon="5.95386">
        <ele>718</ele>
        <time>2020-05-24T13:48:54.000Z</time>
      </trkpt>
      <trkpt lat="46.9577" lon="5.95387">
        <ele>718</ele>
        <time>2020-05-24T13:48:56.000Z</time>
      </trkpt>
      <trkpt lat="46.95767" lon="5.95389">
        <ele>718</ele>
        <time>2020-05-24T13:48:58.000Z</time>
      </trkpt>
      <trkpt lat="46.95764" lon="5.95391">
        <ele>718</ele>
        <time>2020-05-24T13:49:00.000Z</time>
      </trkpt>
      <trkpt lat="46.95761" lon="5.95393">
        <ele>718</ele>
        <time>2020-05-24T13:49:02.000Z</time>
      </trkpt>
      <trkpt lat="46.95759" lon="5.95395">
        <ele>718</ele>
        <time>2020-05-24T13:49:04.000Z</time>
      </trkpt>
      <trkpt lat="46.95757" lon="5.95397">
        <ele>718</ele>
        <time>2020-05-24T13:49:06.000Z</time>
      </trkpt>
      <trkpt lat="46.95755" lon="5.954">
        <ele>718</ele>
        <time>2020-05-24T13:49:08.000Z</time>
      </trkpt>
      <trkpt lat="46.95753" lon="5.95401">
        <ele>718</ele>
        <time>2020-05-24T13:49:10.000Z</time>
      </trkpt>
      <trkpt lat="46.9575" lon="5.95403">
        <ele>718</ele>
        <time>2020-05-24T13:49:12.000Z</time>
      </trkpt>
      <trkpt lat="46.95748" lon="5.95404">
        <ele>717</ele>
        <time>2020-05-24T13:49:14.000Z</time>
      </trkpt>
      <trkpt lat="46.95746" lon="5.95405">
        <ele>717</ele>
        <time>2020-05-24T13:49:16.000Z</time>
      </trkpt>
      <trkpt lat="46.95743" lon="5.95405">
        <ele>717</ele>
        <time>2020-05-24T13:49:18.000Z</time>
      </trkpt>
      <trkpt lat="46.95741" lon="5.95404">
        <ele>717</ele>
        <time>2020-05-24T13:49:20.000Z</time>
      </trkpt>
      <trkpt lat="46.95739" lon="5.95403">
        <ele>717</ele>
        <time>2020-05-24T13:49:23.000Z</time>
      </trkpt>
      <trkpt lat="46.95737" lon="5.95401">
        <ele>717</ele>
        <time>2020-05-24T13:49:25.000Z</time>
      </trkpt>
      <trkpt lat="46.95734" lon="5.954">
        <ele>717</ele>
        <time>2020-05-24T13:49:27.000Z</time>
      </trkpt>
      <trkpt lat="46.95732" lon="5.95398">
        <ele>717</ele>
        <time>2020-05-24T13:49:29.000Z</time>
      </trkpt>
      <trkpt lat="46.9573" lon="5.95396">
        <ele>716.12781745039</ele>
        <time>2020-05-24T13:49:31.000Z</time>
      </trkpt>
      <trkpt lat="46.95728" lon="5.95393">
        <ele>716</ele>
        <time>2020-05-24T13:49:33.000Z</time>
      </trkpt>
      <trkpt lat="46.95726" lon="5.9539">
        <ele>715</ele>
        <time>2020-05-24T13:49:35.000Z</time>
      </trkpt>
      <trkpt lat="46.95724" lon="5.95387">
        <ele>715</ele>
        <time>2020-05-24T13:49:37.000Z</time>
      </trkpt>
      <trkpt lat="46.95723" lon="5.95384">
        <ele>715</ele>
        <time>2020-05-24T13:49:39.000Z</time>
      </trkpt>
      <trkpt lat="46.95721" lon="5.95381">
        <ele>715</ele>
        <time>2020-05-24T13:49:41.000Z</time>
      </trkpt>
      <trkpt lat="46.95719" lon="5.95378">
        <ele>715</ele>
        <time>2020-05-24T13:49:43.000Z</time>
      </trkpt>
      <trkpt lat="46.95717" lon="5.95376">
        <ele>715</ele>
        <time>2020-05-24T13:49:45.000Z</time>
      </trkpt>
      <trkpt lat="46.95715" lon="5.95374">
        <ele>715</ele>
        <time>2020-05-24T13:49:46.000Z</time>
      </trkpt>
      <trkpt lat="46.95713" lon="5.95373">
        <ele>715</ele>
        <time>2020-05-24T13:49:47.000Z</time>
      </trkpt>
      <trkpt lat="46.95712" lon="5.95371">
        <ele>714.85713725951</ele>
        <time>2020-05-24T13:49:48.000Z</time>
      </trkpt>
      <trkpt lat="46.9571" lon="5.95368">
        <ele>714</ele>
        <time>2020-05-24T13:49:50.000Z</time>
      </trkpt>
      <trkpt lat="46.95709" lon="5.95367">
        <ele>714</ele>
        <time>2020-05-24T13:49:52.000Z</time>
      </trkpt>
      <trkpt lat="46.95707" lon="5.95364">
        <ele>713</ele>
        <time>2020-05-24T13:49:54.000Z</time>
      </trkpt>
      <trkpt lat="46.95705" lon="5.95361">
        <ele>713</ele>
        <time>2020-05-24T13:49:56.000Z</time>
      </trkpt>
      <trkpt lat="46.95704" lon="5.95359">
        <ele>713.14159332133</ele>
        <time>2020-05-24T13:49:58.000Z</time>
      </trkpt>
      <trkpt lat="46.95702" lon="5.95355">
        <ele>714</ele>
        <time>2020-05-24T13:50:00.000Z</time>
      </trkpt>
      <trkpt lat="46.957" lon="5.95353">
        <ele>713</ele>
        <time>2020-05-24T13:50:02.000Z</time>
      </trkpt>
      <trkpt lat="46.95699" lon="5.9535">
        <ele>713</ele>
        <time>2020-05-24T13:50:04.000Z</time>
      </trkpt>
      <trkpt lat="46.95697" lon="5.95346">
        <ele>713</ele>
        <time>2020-05-24T13:50:06.000Z</time>
      </trkpt>
      <trkpt lat="46.95695" lon="5.95343">
        <ele>713</ele>
        <time>2020-05-24T13:50:08.000Z</time>
      </trkpt>
      <trkpt lat="46.95694" lon="5.9534">
        <ele>712</ele>
        <time>2020-05-24T13:50:10.000Z</time>
      </trkpt>
      <trkpt lat="46.95692" lon="5.95337">
        <ele>712</ele>
        <time>2020-05-24T13:50:12.000Z</time>
      </trkpt>
      <trkpt lat="46.9569" lon="5.95334">
        <ele>712</ele>
        <time>2020-05-24T13:50:14.000Z</time>
      </trkpt>
      <trkpt lat="46.95688" lon="5.95332">
        <ele>712</ele>
        <time>2020-05-24T13:50:15.000Z</time>
      </trkpt>
      <trkpt lat="46.95686" lon="5.95329">
        <ele>712</ele>
        <time>2020-05-24T13:50:17.000Z</time>
      </trkpt>
      <trkpt lat="46.95684" lon="5.95327">
        <ele>712</ele>
        <time>2020-05-24T13:50:19.000Z</time>
      </trkpt>
      <trkpt lat="46.95682" lon="5.95324">
        <ele>710.85454460826</ele>
        <time>2020-05-24T13:50:21.000Z</time>
      </trkpt>
      <trkpt lat="46.95681" lon="5.95322">
        <ele>710</ele>
        <time>2020-05-24T13:50:23.000Z</time>
      </trkpt>
      <trkpt lat="46.95679" lon="5.95321">
        <ele>710</ele>
        <time>2020-05-24T13:50:24.000Z</time>
      </trkpt>
      <trkpt lat="46.95677" lon="5.95317">
        <ele>709.91304347826</ele>
        <time>2020-05-24T13:50:26.000Z</time>
      </trkpt>
      <trkpt lat="46.95674" lon="5.95315">
        <ele>709</ele>
        <time>2020-05-24T13:50:28.000Z</time>
      </trkpt>
      <trkpt lat="46.95672" lon="5.95313">
        <ele>709</ele>
        <time>2020-05-24T13:50:30.000Z</time>
      </trkpt>
      <trkpt lat="46.95669" lon="5.9531">
        <ele>709</ele>
        <time>2020-05-24T13:50:32.000Z</time>
      </trkpt>
      <trkpt lat="46.95667" lon="5.95308">
        <ele>708</ele>
        <time>2020-05-24T13:50:34.000Z</time>
      </trkpt>
      <trkpt lat="46.95664" lon="5.95305">
        <ele>707</ele>
        <time>2020-05-24T13:50:36.000Z</time>
      </trkpt>
      <trkpt lat="46.95662" lon="5.95302">
        <ele>707</ele>
        <time>2020-05-24T13:50:38.000Z</time>
      </trkpt>
      <trkpt lat="46.9566" lon="5.95299">
        <ele>707</ele>
        <time>2020-05-24T13:50:40.000Z</time>
      </trkpt>
      <trkpt lat="46.95658" lon="5.95296">
        <ele>706</ele>
        <time>2020-05-24T13:50:42.000Z</time>
      </trkpt>
      <trkpt lat="46.95656" lon="5.95294">
        <ele>706</ele>
        <time>2020-05-24T13:50:44.000Z</time>
      </trkpt>
      <trkpt lat="46.95655" lon="5.95291">
        <ele>706</ele>
        <time>2020-05-24T13:50:46.000Z</time>
      </trkpt>
      <trkpt lat="46.95653" lon="5.95289">
        <ele>706</ele>
        <time>2020-05-24T13:50:48.000Z</time>
      </trkpt>
      <trkpt lat="46.95651" lon="5.95286">
        <ele>706</ele>
        <time>2020-05-24T13:50:50.000Z</time>
      </trkpt>
      <trkpt lat="46.95649" lon="5.95284">
        <ele>706</ele>
        <time>2020-05-24T13:50:52.000Z</time>
      </trkpt>
      <trkpt lat="46.95647" lon="5.95282">
        <ele>706</ele>
        <time>2020-05-24T13:50:54.000Z</time>
      </trkpt>
      <trkpt lat="46.95645" lon="5.95279">
        <ele>706</ele>
        <time>2020-05-24T13:50:56.000Z</time>
      </trkpt>
      <trkpt lat="46.95643" lon="5.95278">
        <ele>705.84</ele>
        <time>2020-05-24T13:50:57.000Z</time>
      </trkpt>
      <trkpt lat="46.95641" lon="5.95275">
        <ele>705</ele>
        <time>2020-05-24T13:50:59.000Z</time>
      </trkpt>
      <trkpt lat="46.95638" lon="5.95272">
        <ele>704</ele>
        <time>2020-05-24T13:51:01.000Z</time>
      </trkpt>
      <trkpt lat="46.95636" lon="5.95269">
        <ele>704</ele>
        <time>2020-05-24T13:51:03.000Z</time>
      </trkpt>
      <trkpt lat="46.95634" lon="5.95267">
        <ele>704</ele>
        <time>2020-05-24T13:51:05.000Z</time>
      </trkpt>
      <trkpt lat="46.95631" lon="5.95264">
        <ele>703</ele>
        <time>2020-05-24T13:51:07.000Z</time>
      </trkpt>
      <trkpt lat="46.95629" lon="5.95261">
        <ele>703</ele>
        <time>2020-05-24T13:51:09.000Z</time>
      </trkpt>
      <trkpt lat="46.95627" lon="5.95259">
        <ele>703</ele>
        <time>2020-05-24T13:51:11.000Z</time>
      </trkpt>
      <trkpt lat="46.95625" lon="5.95256">
        <ele>703</ele>
        <time>2020-05-24T13:51:13.000Z</time>
      </trkpt>
      <trkpt lat="46.95623" lon="5.95253">
        <ele>702.84</ele>
        <time>2020-05-24T13:51:16.000Z</time>
      </trkpt>
      <trkpt lat="46.95621" lon="5.9525">
        <ele>701.13432422364</ele>
        <time>2020-05-24T13:51:18.000Z</time>
      </trkpt>
      <trkpt lat="46.95619" lon="5.95248">
        <ele>701</ele>
        <time>2020-05-24T13:51:20.000Z</time>
      </trkpt>
      <trkpt lat="46.95617" lon="5.95245">
        <ele>700</ele>
        <time>2020-05-24T13:51:22.000Z</time>
      </trkpt>
      <trkpt lat="46.95616" lon="5.95243">
        <ele>700</ele>
        <time>2020-05-24T13:51:24.000Z</time>
      </trkpt>
      <trkpt lat="46.95614" lon="5.95241">
        <ele>700</ele>
        <time>2020-05-24T13:51:26.000Z</time>
      </trkpt>
      <trkpt lat="46.95612" lon="5.95239">
        <ele>700</ele>
        <time>2020-05-24T13:51:28.000Z</time>
      </trkpt>
      <trkpt lat="46.9561" lon="5.95236">
        <ele>699</ele>
        <time>2020-05-24T13:51:30.000Z</time>
      </trkpt>
      <trkpt lat="46.95608" lon="5.95233">
        <ele>699</ele>
        <time>2020-05-24T13:51:32.000Z</time>
      </trkpt>
      <trkpt lat="46.95607" lon="5.9523">
        <ele>698</ele>
        <time>2020-05-24T13:51:35.000Z</time>
      </trkpt>
      <trkpt lat="46.95604" lon="5.95227">
        <ele>697</ele>
        <time>2020-05-24T13:51:37.000Z</time>
      </trkpt>
      <trkpt lat="46.95603" lon="5.95224">
        <ele>697</ele>
        <time>2020-05-24T13:51:39.000Z</time>
      </trkpt>
      <trkpt lat="46.95602" lon="5.95222">
        <ele>697</ele>
        <time>2020-05-24T13:51:41.000Z</time>
      </trkpt>
      <trkpt lat="46.956" lon="5.95219">
        <ele>697</ele>
        <time>2020-05-24T13:51:43.000Z</time>
      </trkpt>
      <trkpt lat="46.95599" lon="5.95216">
        <ele>697</ele>
        <time>2020-05-24T13:51:45.000Z</time>
      </trkpt>
      <trkpt lat="46.95598" lon="5.95214">
        <ele>696.84</ele>
        <time>2020-05-24T13:51:47.000Z</time>
      </trkpt>
      <trkpt lat="46.95597" lon="5.95211">
        <ele>696</ele>
        <time>2020-05-24T13:51:49.000Z</time>
      </trkpt>
      <trkpt lat="46.95596" lon="5.95208">
        <ele>695.84</ele>
        <time>2020-05-24T13:51:51.000Z</time>
      </trkpt>
      <trkpt lat="46.95595" lon="5.95206">
        <ele>695</ele>
        <time>2020-05-24T13:51:53.000Z</time>
      </trkpt>
      <trkpt lat="46.95594" lon="5.95203">
        <ele>694</ele>
        <time>2020-05-24T13:51:55.000Z</time>
      </trkpt>
      <trkpt lat="46.95593" lon="5.95199">
        <ele>694</ele>
        <time>2020-05-24T13:51:57.000Z</time>
      </trkpt>
      <trkpt lat="46.95591" lon="5.95196">
        <ele>694</ele>
        <time>2020-05-24T13:51:59.000Z</time>
      </trkpt>
      <trkpt lat="46.95589" lon="5.95193">
        <ele>694</ele>
        <time>2020-05-24T13:52:01.000Z</time>
      </trkpt>
      <trkpt lat="46.95588" lon="5.9519">
        <ele>694</ele>
        <time>2020-05-24T13:52:03.000Z</time>
      </trkpt>
      <trkpt lat="46.95586" lon="5.95187">
        <ele>693.875</ele>
        <time>2020-05-24T13:52:05.000Z</time>
      </trkpt>
      <trkpt lat="46.95585" lon="5.95183">
        <ele>693</ele>
        <time>2020-05-24T13:52:07.000Z</time>
      </trkpt>
      <trkpt lat="46.95584" lon="5.9518">
        <ele>691.84</ele>
        <time>2020-05-24T13:52:09.000Z</time>
      </trkpt>
      <trkpt lat="46.95583" lon="5.95176">
        <ele>691</ele>
        <time>2020-05-24T13:52:11.000Z</time>
      </trkpt>
      <trkpt lat="46.95581" lon="5.95174">
        <ele>691</ele>
        <time>2020-05-24T13:52:12.000Z</time>
      </trkpt>
      <trkpt lat="46.9558" lon="5.9517">
        <ele>691</ele>
        <time>2020-05-24T13:52:14.000Z</time>
      </trkpt>
      <trkpt lat="46.95578" lon="5.95166">
        <ele>691</ele>
        <time>2020-05-24T13:52:16.000Z</time>
      </trkpt>
      <trkpt lat="46.95576" lon="5.95163">
        <ele>690</ele>
        <time>2020-05-24T13:52:18.000Z</time>
      </trkpt>
      <trkpt lat="46.95574" lon="5.95161">
        <ele>690</ele>
        <time>2020-05-24T13:52:20.000Z</time>
      </trkpt>
      <trkpt lat="46.95572" lon="5.9516">
        <ele>690</ele>
        <time>2020-05-24T13:52:26.000Z</time>
      </trkpt>
      <trkpt lat="46.9557" lon="5.95161">
        <ele>690</ele>
        <time>2020-05-24T13:52:32.000Z</time>
      </trkpt>
      <trkpt lat="46.95567" lon="5.95161">
        <ele>690</ele>
        <time>2020-05-24T13:52:34.000Z</time>
      </trkpt>
      <trkpt lat="46.95565" lon="5.9516">
        <ele>690</ele>
        <time>2020-05-24T13:52:36.000Z</time>
      </trkpt>
      <trkpt lat="46.95563" lon="5.95159">
        <ele>690</ele>
        <time>2020-05-24T13:52:38.000Z</time>
      </trkpt>
      <trkpt lat="46.95561" lon="5.95158">
        <ele>690.8467173062</ele>
        <time>2020-05-24T13:52:41.000Z</time>
      </trkpt>
      <trkpt lat="46.95558" lon="5.95157">
        <ele>691.07825786919</ele>
        <time>2020-05-24T13:52:43.000Z</time>
      </trkpt>
      <trkpt lat="46.95556" lon="5.95154">
        <ele>692</ele>
        <time>2020-05-24T13:52:45.000Z</time>
      </trkpt>
      <trkpt lat="46.95554" lon="5.95153">
        <ele>692</ele>
        <time>2020-05-24T13:52:47.000Z</time>
      </trkpt>
      <trkpt lat="46.95553" lon="5.95151">
        <ele>692</ele>
        <time>2020-05-24T13:52:49.000Z</time>
      </trkpt>
      <trkpt lat="46.95551" lon="5.95148">
        <ele>692.14159332133</ele>
        <time>2020-05-24T13:52:51.000Z</time>
      </trkpt>
      <trkpt lat="46.95549" lon="5.95145">
        <ele>693</ele>
        <time>2020-05-24T13:52:53.000Z</time>
      </trkpt>
      <trkpt lat="46.95548" lon="5.95143">
        <ele>693</ele>
        <time>2020-05-24T13:52:55.000Z</time>
      </trkpt>
      <trkpt lat="46.95546" lon="5.9514">
        <ele>693</ele>
        <time>2020-05-24T13:52:57.000Z</time>
      </trkpt>
      <trkpt lat="46.95545" lon="5.95137">
        <ele>693.11594149129</ele>
        <time>2020-05-24T13:52:59.000Z</time>
      </trkpt>
      <trkpt lat="46.95543" lon="5.95134">
        <ele>694</ele>
        <time>2020-05-24T13:53:01.000Z</time>
      </trkpt>
      <trkpt lat="46.95542" lon="5.95132">
        <ele>694</ele>
        <time>2020-05-24T13:53:02.000Z</time>
      </trkpt>
      <trkpt lat="46.9554" lon="5.95129">
        <ele>694</ele>
        <time>2020-05-24T13:53:04.000Z</time>
      </trkpt>
      <trkpt lat="46.95538" lon="5.95126">
        <ele>695</ele>
        <time>2020-05-24T13:53:06.000Z</time>
      </trkpt>
      <trkpt lat="46.95537" lon="5.95123">
        <ele>695.12403131543</ele>
        <time>2020-05-24T13:53:08.000Z</time>
      </trkpt>
      <trkpt lat="46.95534" lon="5.95121">
        <ele>696</ele>
        <time>2020-05-24T13:53:10.000Z</time>
      </trkpt>
      <trkpt lat="46.95532" lon="5.9512">
        <ele>696</ele>
        <time>2020-05-24T13:53:12.000Z</time>
      </trkpt>
      <trkpt lat="46.95529" lon="5.95119">
        <ele>696</ele>
        <time>2020-05-24T13:53:14.000Z</time>
      </trkpt>
      <trkpt lat="46.95525" lon="5.95119">
        <ele>696</ele>
        <time>2020-05-24T13:53:16.000Z</time>
      </trkpt>
      <trkpt lat="46.95523" lon="5.95119">
        <ele>696</ele>
        <time>2020-05-24T13:53:18.000Z</time>
      </trkpt>
      <trkpt lat="46.9552" lon="5.9512">
        <ele>696</ele>
        <time>2020-05-24T13:53:20.000Z</time>
      </trkpt>
      <trkpt lat="46.95518" lon="5.95121">
        <ele>696.16</ele>
        <time>2020-05-24T13:53:22.000Z</time>
      </trkpt>
      <trkpt lat="46.95517" lon="5.95124">
        <ele>697</ele>
        <time>2020-05-24T13:53:24.000Z</time>
      </trkpt>
      <trkpt lat="46.95515" lon="5.95127">
        <ele>697</ele>
        <time>2020-05-24T13:53:26.000Z</time>
      </trkpt>
      <trkpt lat="46.95514" lon="5.9513">
        <ele>697</ele>
        <time>2020-05-24T13:53:28.000Z</time>
      </trkpt>
      <trkpt lat="46.95511" lon="5.95132">
        <ele>697</ele>
        <time>2020-05-24T13:53:30.000Z</time>
      </trkpt>
      <trkpt lat="46.9551" lon="5.95135">
        <ele>697</ele>
        <time>2020-05-24T13:53:32.000Z</time>
      </trkpt>
      <trkpt lat="46.95508" lon="5.95138">
        <ele>697</ele>
        <time>2020-05-24T13:53:34.000Z</time>
      </trkpt>
      <trkpt lat="46.95507" lon="5.95141">
        <ele>697.14286274049</ele>
        <time>2020-05-24T13:53:36.000Z</time>
      </trkpt>
      <trkpt lat="46.95506" lon="5.95143">
        <ele>698</ele>
        <time>2020-05-24T13:53:38.000Z</time>
      </trkpt>
      <trkpt lat="46.95504" lon="5.95146">
        <ele>698</ele>
        <time>2020-05-24T13:53:40.000Z</time>
      </trkpt>
      <trkpt lat="46.95502" lon="5.95149">
        <ele>699</ele>
        <time>2020-05-24T13:53:42.000Z</time>
      </trkpt>
      <trkpt lat="46.955" lon="5.95151">
        <ele>699</ele>
        <time>2020-05-24T13:53:44.000Z</time>
      </trkpt>
      <trkpt lat="46.95498" lon="5.95153">
        <ele>699</ele>
        <time>2020-05-24T13:53:47.000Z</time>
      </trkpt>
      <trkpt lat="46.95497" lon="5.95155">
        <ele>699</ele>
        <time>2020-05-24T13:53:49.000Z</time>
      </trkpt>
      <trkpt lat="46.95496" lon="5.95158">
        <ele>699</ele>
        <time>2020-05-24T13:53:51.000Z</time>
      </trkpt>
      <trkpt lat="46.95495" lon="5.95162">
        <ele>700</ele>
        <time>2020-05-24T13:53:54.000Z</time>
      </trkpt>
      <trkpt lat="46.95494" lon="5.95166">
        <ele>701</ele>
        <time>2020-05-24T13:53:56.000Z</time>
      </trkpt>
      <trkpt lat="46.95494" lon="5.95168">
        <ele>701</ele>
        <time>2020-05-24T13:53:58.000Z</time>
      </trkpt>
      <trkpt lat="46.95492" lon="5.95169">
        <ele>701</ele>
        <time>2020-05-24T13:54:31.000Z</time>
      </trkpt>
      <trkpt lat="46.95491" lon="5.95171">
        <ele>701</ele>
        <time>2020-05-24T13:54:35.000Z</time>
      </trkpt>
      <trkpt lat="46.9549" lon="5.95174">
        <ele>701</ele>
        <time>2020-05-24T13:54:38.000Z</time>
      </trkpt>
      <trkpt lat="46.9549" lon="5.95177">
        <ele>700.85714845485</ele>
        <time>2020-05-24T13:54:41.000Z</time>
      </trkpt>
      <trkpt lat="46.95489" lon="5.9518">
        <ele>700</ele>
        <time>2020-05-24T13:54:43.000Z</time>
      </trkpt>
      <trkpt lat="46.95489" lon="5.95183">
        <ele>700</ele>
        <time>2020-05-24T13:54:45.000Z</time>
      </trkpt>
      <trkpt lat="46.95488" lon="5.95186">
        <ele>700</ele>
        <time>2020-05-24T13:54:47.000Z</time>
      </trkpt>
      <trkpt lat="46.95487" lon="5.95189">
        <ele>699.85964991074</ele>
        <time>2020-05-24T13:54:49.000Z</time>
      </trkpt>
      <trkpt lat="46.95487" lon="5.95192">
        <ele>699</ele>
        <time>2020-05-24T13:54:51.000Z</time>
      </trkpt>
      <trkpt lat="46.95486" lon="5.95195">
        <ele>699</ele>
        <time>2020-05-24T13:54:53.000Z</time>
      </trkpt>
      <trkpt lat="46.95486" lon="5.95199">
        <ele>699</ele>
        <time>2020-05-24T13:54:55.000Z</time>
      </trkpt>
      <trkpt lat="46.95486" lon="5.95202">
        <ele>697.85714285714</ele>
        <time>2020-05-24T13:54:57.000Z</time>
      </trkpt>
      <trkpt lat="46.95485" lon="5.95206">
        <ele>697</ele>
        <time>2020-05-24T13:54:59.000Z</time>
      </trkpt>
      <trkpt lat="46.95485" lon="5.9521">
        <ele>697</ele>
        <time>2020-05-24T13:55:01.000Z</time>
      </trkpt>
      <trkpt lat="46.95484" lon="5.95214">
        <ele>697</ele>
        <time>2020-05-24T13:55:03.000Z</time>
      </trkpt>
      <trkpt lat="46.95483" lon="5.95218">
        <ele>697</ele>
        <time>2020-05-24T13:55:05.000Z</time>
      </trkpt>
      <trkpt lat="46.95483" lon="5.95222">
        <ele>697</ele>
        <time>2020-05-24T13:55:07.000Z</time>
      </trkpt>
      <trkpt lat="46.95482" lon="5.95226">
        <ele>697</ele>
        <time>2020-05-24T13:55:09.000Z</time>
      </trkpt>
      <trkpt lat="46.95481" lon="5.9523">
        <ele>696.91304347826</ele>
        <time>2020-05-24T13:55:11.000Z</time>
      </trkpt>
      <trkpt lat="46.9548" lon="5.95234">
        <ele>696</ele>
        <time>2020-05-24T13:55:13.000Z</time>
      </trkpt>
      <trkpt lat="46.9548" lon="5.95239">
        <ele>695.84</ele>
        <time>2020-05-24T13:55:15.000Z</time>
      </trkpt>
      <trkpt lat="46.95479" lon="5.95242">
        <ele>695</ele>
        <time>2020-05-24T13:55:17.000Z</time>
      </trkpt>
      <trkpt lat="46.95478" lon="5.95246">
        <ele>695</ele>
        <time>2020-05-24T13:55:19.000Z</time>
      </trkpt>
      <trkpt lat="46.95478" lon="5.95249">
        <ele>695</ele>
        <time>2020-05-24T13:55:21.000Z</time>
      </trkpt>
      <trkpt lat="46.95477" lon="5.95253">
        <ele>695</ele>
        <time>2020-05-24T13:55:23.000Z</time>
      </trkpt>
      <trkpt lat="46.95477" lon="5.95256">
        <ele>694</ele>
        <time>2020-05-24T13:55:25.000Z</time>
      </trkpt>
      <trkpt lat="46.95476" lon="5.9526">
        <ele>694.91199811585</ele>
        <time>2020-05-24T13:55:27.000Z</time>
      </trkpt>
      <trkpt lat="46.95475" lon="5.95263">
        <ele>695.16</ele>
        <time>2020-05-24T13:55:29.000Z</time>
      </trkpt>
      <trkpt lat="46.95475" lon="5.95267">
        <ele>695.91911529412</ele>
        <time>2020-05-24T13:55:31.000Z</time>
      </trkpt>
      <trkpt lat="46.95474" lon="5.9527">
        <ele>695</ele>
        <time>2020-05-24T13:55:33.000Z</time>
      </trkpt>
      <trkpt lat="46.95473" lon="5.95272">
        <ele>695</ele>
        <time>2020-05-24T13:55:35.000Z</time>
      </trkpt>
      <trkpt lat="46.95473" lon="5.95276">
        <ele>695</ele>
        <time>2020-05-24T13:55:37.000Z</time>
      </trkpt>
      <trkpt lat="46.95472" lon="5.9528">
        <ele>695</ele>
        <time>2020-05-24T13:55:39.000Z</time>
      </trkpt>
      <trkpt lat="46.95471" lon="5.95283">
        <ele>695</ele>
        <time>2020-05-24T13:55:41.000Z</time>
      </trkpt>
      <trkpt lat="46.9547" lon="5.95287">
        <ele>695</ele>
        <time>2020-05-24T13:55:43.000Z</time>
      </trkpt>
      <trkpt lat="46.95469" lon="5.9529">
        <ele>695</ele>
        <time>2020-05-24T13:55:45.000Z</time>
      </trkpt>
      <trkpt lat="46.95469" lon="5.95293">
        <ele>695</ele>
        <time>2020-05-24T13:55:47.000Z</time>
      </trkpt>
      <trkpt lat="46.95469" lon="5.95297">
        <ele>695</ele>
        <time>2020-05-24T13:55:50.000Z</time>
      </trkpt>
      <trkpt lat="46.9547" lon="5.95302">
        <ele>694</ele>
        <time>2020-05-24T13:55:52.000Z</time>
      </trkpt>
      <trkpt lat="46.95471" lon="5.95307">
        <ele>694</ele>
        <time>2020-05-24T13:55:54.000Z</time>
      </trkpt>
      <trkpt lat="46.95471" lon="5.9531">
        <ele>694</ele>
        <time>2020-05-24T13:55:56.000Z</time>
      </trkpt>
      <trkpt lat="46.95472" lon="5.95315">
        <ele>694</ele>
        <time>2020-05-24T13:55:58.000Z</time>
      </trkpt>
      <trkpt lat="46.95472" lon="5.95318">
        <ele>694</ele>
        <time>2020-05-24T13:56:00.000Z</time>
      </trkpt>
      <trkpt lat="46.95472" lon="5.95322">
        <ele>694</ele>
        <time>2020-05-24T13:56:02.000Z</time>
      </trkpt>
      <trkpt lat="46.95472" lon="5.95326">
        <ele>694</ele>
        <time>2020-05-24T13:56:04.000Z</time>
      </trkpt>
      <trkpt lat="46.95472" lon="5.9533">
        <ele>694</ele>
        <time>2020-05-24T13:56:06.000Z</time>
      </trkpt>
      <trkpt lat="46.95472" lon="5.95333">
        <ele>694</ele>
        <time>2020-05-24T13:56:08.000Z</time>
      </trkpt>
      <trkpt lat="46.95472" lon="5.95337">
        <ele>694</ele>
        <time>2020-05-24T13:56:10.000Z</time>
      </trkpt>
      <trkpt lat="46.95471" lon="5.95341">
        <ele>694</ele>
        <time>2020-05-24T13:56:12.000Z</time>
      </trkpt>
      <trkpt lat="46.95472" lon="5.95344">
        <ele>694</ele>
        <time>2020-05-24T13:56:14.000Z</time>
      </trkpt>
      <trkpt lat="46.95472" lon="5.95348">
        <ele>695</ele>
        <time>2020-05-24T13:56:16.000Z</time>
      </trkpt>
      <trkpt lat="46.95471" lon="5.95352">
        <ele>695</ele>
        <time>2020-05-24T13:56:18.000Z</time>
      </trkpt>
      <trkpt lat="46.95471" lon="5.95356">
        <ele>695</ele>
        <time>2020-05-24T13:56:20.000Z</time>
      </trkpt>
      <trkpt lat="46.9547" lon="5.9536">
        <ele>695</ele>
        <time>2020-05-24T13:56:22.000Z</time>
      </trkpt>
      <trkpt lat="46.9547" lon="5.95363">
        <ele>695</ele>
        <time>2020-05-24T13:56:24.000Z</time>
      </trkpt>
      <trkpt lat="46.95471" lon="5.95368">
        <ele>695</ele>
        <time>2020-05-24T13:56:26.000Z</time>
      </trkpt>
      <trkpt lat="46.95471" lon="5.95372">
        <ele>695</ele>
        <time>2020-05-24T13:56:28.000Z</time>
      </trkpt>
      <trkpt lat="46.95471" lon="5.95375">
        <ele>695</ele>
        <time>2020-05-24T13:56:30.000Z</time>
      </trkpt>
      <trkpt lat="46.95471" lon="5.95379">
        <ele>696</ele>
        <time>2020-05-24T13:56:32.000Z</time>
      </trkpt>
      <trkpt lat="46.95471" lon="5.95384">
        <ele>696</ele>
        <time>2020-05-24T13:56:34.000Z</time>
      </trkpt>
      <trkpt lat="46.95471" lon="5.95387">
        <ele>696</ele>
        <time>2020-05-24T13:56:36.000Z</time>
      </trkpt>
      <trkpt lat="46.95471" lon="5.9539">
        <ele>696</ele>
        <time>2020-05-24T13:56:38.000Z</time>
      </trkpt>
      <trkpt lat="46.9547" lon="5.95393">
        <ele>696</ele>
        <time>2020-05-24T13:56:40.000Z</time>
      </trkpt>
      <trkpt lat="46.95468" lon="5.95395">
        <ele>696</ele>
        <time>2020-05-24T13:56:42.000Z</time>
      </trkpt>
      <trkpt lat="46.95467" lon="5.95399">
        <ele>695</ele>
        <time>2020-05-24T13:56:44.000Z</time>
      </trkpt>
      <trkpt lat="46.95465" lon="5.95402">
        <ele>695</ele>
        <time>2020-05-24T13:56:46.000Z</time>
      </trkpt>
      <trkpt lat="46.95464" lon="5.95404">
        <ele>695</ele>
        <time>2020-05-24T13:56:48.000Z</time>
      </trkpt>
      <trkpt lat="46.95464" lon="5.95407">
        <ele>694.84</ele>
        <time>2020-05-24T13:56:50.000Z</time>
      </trkpt>
      <trkpt lat="46.95463" lon="5.95411">
        <ele>694</ele>
        <time>2020-05-24T13:56:52.000Z</time>
      </trkpt>
      <trkpt lat="46.95462" lon="5.95413">
        <ele>694</ele>
        <time>2020-05-24T13:56:54.000Z</time>
      </trkpt>
      <trkpt lat="46.95461" lon="5.95416">
        <ele>694</ele>
        <time>2020-05-24T13:56:56.000Z</time>
      </trkpt>
      <trkpt lat="46.9546" lon="5.95419">
        <ele>693.90322891434</ele>
        <time>2020-05-24T13:56:58.000Z</time>
      </trkpt>
      <trkpt lat="46.95458" lon="5.95423">
        <ele>693</ele>
        <time>2020-05-24T13:57:00.000Z</time>
      </trkpt>
      <trkpt lat="46.95457" lon="5.95427">
        <ele>693</ele>
        <time>2020-05-24T13:57:02.000Z</time>
      </trkpt>
      <trkpt lat="46.95456" lon="5.9543">
        <ele>693</ele>
        <time>2020-05-24T13:57:04.000Z</time>
      </trkpt>
      <trkpt lat="46.95454" lon="5.95433">
        <ele>693</ele>
        <time>2020-05-24T13:57:06.000Z</time>
      </trkpt>
      <trkpt lat="46.95452" lon="5.95436">
        <ele>693</ele>
        <time>2020-05-24T13:57:08.000Z</time>
      </trkpt>
      <trkpt lat="46.9545" lon="5.95439">
        <ele>693</ele>
        <time>2020-05-24T13:57:10.000Z</time>
      </trkpt>
      <trkpt lat="46.95449" lon="5.95442">
        <ele>693</ele>
        <time>2020-05-24T13:57:12.000Z</time>
      </trkpt>
      <trkpt lat="46.95447" lon="5.95445">
        <ele>693</ele>
        <time>2020-05-24T13:57:14.000Z</time>
      </trkpt>
      <trkpt lat="46.95446" lon="5.95448">
        <ele>693.14285714286</ele>
        <time>2020-05-24T13:57:16.000Z</time>
      </trkpt>
      <trkpt lat="46.95444" lon="5.95451">
        <ele>694</ele>
        <time>2020-05-24T13:57:18.000Z</time>
      </trkpt>
      <trkpt lat="46.95442" lon="5.95455">
        <ele>693</ele>
        <time>2020-05-24T13:57:20.000Z</time>
      </trkpt>
      <trkpt lat="46.9544" lon="5.95459">
        <ele>693</ele>
        <time>2020-05-24T13:57:22.000Z</time>
      </trkpt>
      <trkpt lat="46.95438" lon="5.95461">
        <ele>693</ele>
        <time>2020-05-24T13:57:24.000Z</time>
      </trkpt>
      <trkpt lat="46.95436" lon="5.95464">
        <ele>693</ele>
        <time>2020-05-24T13:57:26.000Z</time>
      </trkpt>
      <trkpt lat="46.95434" lon="5.95467">
        <ele>693</ele>
        <time>2020-05-24T13:57:28.000Z</time>
      </trkpt>
      <trkpt lat="46.95432" lon="5.95469">
        <ele>692</ele>
        <time>2020-05-24T13:57:30.000Z</time>
      </trkpt>
      <trkpt lat="46.95431" lon="5.95473">
        <ele>692</ele>
        <time>2020-05-24T13:57:32.000Z</time>
      </trkpt>
      <trkpt lat="46.95429" lon="5.95476">
        <ele>692</ele>
        <time>2020-05-24T13:57:34.000Z</time>
      </trkpt>
      <trkpt lat="46.95428" lon="5.9548">
        <ele>692</ele>
        <time>2020-05-24T13:57:36.000Z</time>
      </trkpt>
      <trkpt lat="46.95426" lon="5.95483">
        <ele>692</ele>
        <time>2020-05-24T13:57:38.000Z</time>
      </trkpt>
      <trkpt lat="46.95425" lon="5.95486">
        <ele>692</ele>
        <time>2020-05-24T13:57:40.000Z</time>
      </trkpt>
      <trkpt lat="46.95424" lon="5.95488">
        <ele>692</ele>
        <time>2020-05-24T13:57:42.000Z</time>
      </trkpt>
      <trkpt lat="46.95422" lon="5.95491">
        <ele>691</ele>
        <time>2020-05-24T13:57:44.000Z</time>
      </trkpt>
      <trkpt lat="46.9542" lon="5.95493">
        <ele>691</ele>
        <time>2020-05-24T13:57:46.000Z</time>
      </trkpt>
      <trkpt lat="46.95419" lon="5.95496">
        <ele>691</ele>
        <time>2020-05-24T13:57:48.000Z</time>
      </trkpt>
      <trkpt lat="46.95418" lon="5.95499">
        <ele>691</ele>
        <time>2020-05-24T13:57:50.000Z</time>
      </trkpt>
      <trkpt lat="46.95417" lon="5.95502">
        <ele>691</ele>
        <time>2020-05-24T13:57:52.000Z</time>
      </trkpt>
      <trkpt lat="46.95415" lon="5.95506">
        <ele>691</ele>
        <time>2020-05-24T13:57:54.000Z</time>
      </trkpt>
      <trkpt lat="46.95414" lon="5.95509">
        <ele>691</ele>
        <time>2020-05-24T13:57:55.000Z</time>
      </trkpt>
      <trkpt lat="46.95412" lon="5.95513">
        <ele>690.85185185185</ele>
        <time>2020-05-24T13:57:57.000Z</time>
      </trkpt>
      <trkpt lat="46.95411" lon="5.95517">
        <ele>690</ele>
        <time>2020-05-24T13:57:59.000Z</time>
      </trkpt>
      <trkpt lat="46.9541" lon="5.95519">
        <ele>690</ele>
        <time>2020-05-24T13:58:00.000Z</time>
      </trkpt>
      <trkpt lat="46.95408" lon="5.95524">
        <ele>690</ele>
        <time>2020-05-24T13:58:02.000Z</time>
      </trkpt>
      <trkpt lat="46.95407" lon="5.95529">
        <ele>690</ele>
        <time>2020-05-24T13:58:04.000Z</time>
      </trkpt>
      <trkpt lat="46.95406" lon="5.95533">
        <ele>691</ele>
        <time>2020-05-24T13:58:06.000Z</time>
      </trkpt>
      <trkpt lat="46.95405" lon="5.95536">
        <ele>691</ele>
        <time>2020-05-24T13:58:08.000Z</time>
      </trkpt>
      <trkpt lat="46.95405" lon="5.9554">
        <ele>691</ele>
        <time>2020-05-24T13:58:10.000Z</time>
      </trkpt>
      <trkpt lat="46.95404" lon="5.95543">
        <ele>690</ele>
        <time>2020-05-24T13:58:12.000Z</time>
      </trkpt>
      <trkpt lat="46.95403" lon="5.95546">
        <ele>690</ele>
        <time>2020-05-24T13:58:14.000Z</time>
      </trkpt>
      <trkpt lat="46.95403" lon="5.9555">
        <ele>690</ele>
        <time>2020-05-24T13:58:16.000Z</time>
      </trkpt>
      <trkpt lat="46.95402" lon="5.95554">
        <ele>689.85454630082</ele>
        <time>2020-05-24T13:58:18.000Z</time>
      </trkpt>
      <trkpt lat="46.95402" lon="5.95559">
        <ele>689</ele>
        <time>2020-05-24T13:58:20.000Z</time>
      </trkpt>
      <trkpt lat="46.95401" lon="5.95562">
        <ele>689</ele>
        <time>2020-05-24T13:58:22.000Z</time>
      </trkpt>
      <trkpt lat="46.95401" lon="5.95566">
        <ele>690</ele>
        <time>2020-05-24T13:58:24.000Z</time>
      </trkpt>
      <trkpt lat="46.954" lon="5.9557">
        <ele>690</ele>
        <time>2020-05-24T13:58:26.000Z</time>
      </trkpt>
      <trkpt lat="46.954" lon="5.95575">
        <ele>690.16</ele>
        <time>2020-05-24T13:58:28.000Z</time>
      </trkpt>
      <trkpt lat="46.954" lon="5.95579">
        <ele>691</ele>
        <time>2020-05-24T13:58:30.000Z</time>
      </trkpt>
      <trkpt lat="46.954" lon="5.95581">
        <ele>691</ele>
        <time>2020-05-24T13:58:31.000Z</time>
      </trkpt>
      <trkpt lat="46.95399" lon="5.95586">
        <ele>690</ele>
        <time>2020-05-24T13:58:33.000Z</time>
      </trkpt>
      <trkpt lat="46.95399" lon="5.9559">
        <ele>690</ele>
        <time>2020-05-24T13:58:35.000Z</time>
      </trkpt>
      <trkpt lat="46.954" lon="5.95595">
        <ele>690</ele>
        <time>2020-05-24T13:58:37.000Z</time>
      </trkpt>
      <trkpt lat="46.95399" lon="5.95598">
        <ele>690</ele>
        <time>2020-05-24T13:58:39.000Z</time>
      </trkpt>
      <trkpt lat="46.95399" lon="5.95603">
        <ele>690</ele>
        <time>2020-05-24T13:58:41.000Z</time>
      </trkpt>
      <trkpt lat="46.95398" lon="5.95607">
        <ele>690</ele>
        <time>2020-05-24T13:58:43.000Z</time>
      </trkpt>
      <trkpt lat="46.95399" lon="5.95611">
        <ele>690</ele>
        <time>2020-05-24T13:58:45.000Z</time>
      </trkpt>
      <trkpt lat="46.95398" lon="5.95614">
        <ele>690</ele>
        <time>2020-05-24T13:58:47.000Z</time>
      </trkpt>
      <trkpt lat="46.95398" lon="5.95617">
        <ele>690</ele>
        <time>2020-05-24T13:58:49.000Z</time>
      </trkpt>
      <trkpt lat="46.95398" lon="5.95621">
        <ele>690</ele>
        <time>2020-05-24T13:58:51.000Z</time>
      </trkpt>
      <trkpt lat="46.95397" lon="5.95624">
        <ele>690</ele>
        <time>2020-05-24T13:58:53.000Z</time>
      </trkpt>
      <trkpt lat="46.95396" lon="5.95627">
        <ele>689</ele>
        <time>2020-05-24T13:58:55.000Z</time>
      </trkpt>
      <trkpt lat="46.95395" lon="5.95631">
        <ele>689</ele>
        <time>2020-05-24T13:58:57.000Z</time>
      </trkpt>
      <trkpt lat="46.95394" lon="5.95639">
        <ele>688</ele>
        <time>2020-05-24T13:59:02.000Z</time>
      </trkpt>
      <trkpt lat="46.95395" lon="5.95652">
        <ele>687</ele>
        <time>2020-05-24T13:59:09.000Z</time>
      </trkpt>
      <trkpt lat="46.95395" lon="5.95665">
        <ele>686</ele>
        <time>2020-05-24T13:59:15.000Z</time>
      </trkpt>
      <trkpt lat="46.95398" lon="5.9568">
        <ele>686</ele>
        <time>2020-05-24T13:59:21.000Z</time>
      </trkpt>
      <trkpt lat="46.95401" lon="5.95692">
        <ele>686</ele>
        <time>2020-05-24T13:59:27.000Z</time>
      </trkpt>
      <trkpt lat="46.95402" lon="5.95696">
        <ele>686</ele>
        <time>2020-05-24T13:59:29.000Z</time>
      </trkpt>
      <trkpt lat="46.95405" lon="5.95709">
        <ele>686</ele>
        <time>2020-05-24T13:59:36.000Z</time>
      </trkpt>
      <trkpt lat="46.95408" lon="5.95723">
        <ele>686</ele>
        <time>2020-05-24T13:59:43.000Z</time>
      </trkpt>
      <trkpt lat="46.9541" lon="5.95737">
        <ele>686</ele>
        <time>2020-05-24T13:59:49.000Z</time>
      </trkpt>
      <trkpt lat="46.95412" lon="5.95746">
        <ele>686</ele>
        <time>2020-05-24T13:59:53.000Z</time>
      </trkpt>
      <trkpt lat="46.95413" lon="5.9575">
        <ele>686</ele>
        <time>2020-05-24T13:59:55.000Z</time>
      </trkpt>
      <trkpt lat="46.95413" lon="5.95754">
        <ele>686</ele>
        <time>2020-05-24T13:59:57.000Z</time>
      </trkpt>
      <trkpt lat="46.95414" lon="5.95757">
        <ele>686</ele>
        <time>2020-05-24T13:59:59.000Z</time>
      </trkpt>
      <trkpt lat="46.95418" lon="5.95771">
        <ele>686</ele>
        <time>2020-05-24T14:00:06.000Z</time>
      </trkpt>
      <trkpt lat="46.95419" lon="5.95776">
        <ele>686</ele>
        <time>2020-05-24T14:00:08.000Z</time>
      </trkpt>
      <trkpt lat="46.9542" lon="5.9578">
        <ele>686.981487188</ele>
        <time>2020-05-24T14:00:10.000Z</time>
      </trkpt>
      <trkpt lat="46.95422" lon="5.95784">
        <ele>687</ele>
        <time>2020-05-24T14:00:12.000Z</time>
      </trkpt>
      <trkpt lat="46.95424" lon="5.95788">
        <ele>687</ele>
        <time>2020-05-24T14:00:14.000Z</time>
      </trkpt>
      <trkpt lat="46.95425" lon="5.95791">
        <ele>687</ele>
        <time>2020-05-24T14:00:16.000Z</time>
      </trkpt>
      <trkpt lat="46.95426" lon="5.95794">
        <ele>687</ele>
        <time>2020-05-24T14:00:18.000Z</time>
      </trkpt>
      <trkpt lat="46.95428" lon="5.95796">
        <ele>687</ele>
        <time>2020-05-24T14:00:20.000Z</time>
      </trkpt>
      <trkpt lat="46.95429" lon="5.958">
        <ele>687</ele>
        <time>2020-05-24T14:00:22.000Z</time>
      </trkpt>
      <trkpt lat="46.95431" lon="5.95804">
        <ele>687</ele>
        <time>2020-05-24T14:00:24.000Z</time>
      </trkpt>
      <trkpt lat="46.95433" lon="5.95807">
        <ele>687</ele>
        <time>2020-05-24T14:00:26.000Z</time>
      </trkpt>
      <trkpt lat="46.95435" lon="5.95811">
        <ele>687</ele>
        <time>2020-05-24T14:00:28.000Z</time>
      </trkpt>
      <trkpt lat="46.95437" lon="5.95815">
        <ele>687</ele>
        <time>2020-05-24T14:00:30.000Z</time>
      </trkpt>
      <trkpt lat="46.95438" lon="5.95819">
        <ele>687</ele>
        <time>2020-05-24T14:00:32.000Z</time>
      </trkpt>
      <trkpt lat="46.9544" lon="5.95823">
        <ele>687</ele>
        <time>2020-05-24T14:00:34.000Z</time>
      </trkpt>
      <trkpt lat="46.95442" lon="5.95826">
        <ele>687</ele>
        <time>2020-05-24T14:00:36.000Z</time>
      </trkpt>
      <trkpt lat="46.95444" lon="5.9583">
        <ele>687</ele>
        <time>2020-05-24T14:00:38.000Z</time>
      </trkpt>
      <trkpt lat="46.95445" lon="5.95832">
        <ele>687</ele>
        <time>2020-05-24T14:00:39.000Z</time>
      </trkpt>
      <trkpt lat="46.95447" lon="5.95835">
        <ele>687.13913004764</ele>
        <time>2020-05-24T14:00:41.000Z</time>
      </trkpt>
      <trkpt lat="46.9545" lon="5.95839">
        <ele>688</ele>
        <time>2020-05-24T14:00:43.000Z</time>
      </trkpt>
      <trkpt lat="46.95451" lon="5.95842">
        <ele>688</ele>
        <time>2020-05-24T14:00:45.000Z</time>
      </trkpt>
      <trkpt lat="46.95452" lon="5.95846">
        <ele>689</ele>
        <time>2020-05-24T14:00:47.000Z</time>
      </trkpt>
      <trkpt lat="46.95454" lon="5.9585">
        <ele>689</ele>
        <time>2020-05-24T14:00:49.000Z</time>
      </trkpt>
      <trkpt lat="46.95455" lon="5.95853">
        <ele>689</ele>
        <time>2020-05-24T14:00:51.000Z</time>
      </trkpt>
      <trkpt lat="46.95456" lon="5.95856">
        <ele>689</ele>
        <time>2020-05-24T14:00:53.000Z</time>
      </trkpt>
      <trkpt lat="46.95457" lon="5.95859">
        <ele>689.83453045288</ele>
        <time>2020-05-24T14:00:55.000Z</time>
      </trkpt>
      <trkpt lat="46.95458" lon="5.95862">
        <ele>690</ele>
        <time>2020-05-24T14:00:59.000Z</time>
      </trkpt>
      <trkpt lat="46.95459" lon="5.95866">
        <ele>690.11579245207</ele>
        <time>2020-05-24T14:01:01.000Z</time>
      </trkpt>
      <trkpt lat="46.95458" lon="5.95869">
        <ele>691</ele>
        <time>2020-05-24T14:01:04.000Z</time>
      </trkpt>
      <trkpt lat="46.95457" lon="5.95871">
        <ele>691</ele>
        <time>2020-05-24T14:01:06.000Z</time>
      </trkpt>
      <trkpt lat="46.95455" lon="5.95873">
        <ele>691</ele>
        <time>2020-05-24T14:01:08.000Z</time>
      </trkpt>
      <trkpt lat="46.95453" lon="5.95874">
        <ele>691</ele>
        <time>2020-05-24T14:01:10.000Z</time>
      </trkpt>
      <trkpt lat="46.9545" lon="5.95875">
        <ele>692</ele>
        <time>2020-05-24T14:01:13.000Z</time>
      </trkpt>
      <trkpt lat="46.95448" lon="5.95877">
        <ele>692</ele>
        <time>2020-05-24T14:01:15.000Z</time>
      </trkpt>
      <trkpt lat="46.95447" lon="5.9588">
        <ele>691</ele>
        <time>2020-05-24T14:01:17.000Z</time>
      </trkpt>
      <trkpt lat="46.95445" lon="5.95881">
        <ele>691</ele>
        <time>2020-05-24T14:01:19.000Z</time>
      </trkpt>
      <trkpt lat="46.95444" lon="5.95884">
        <ele>691.16</ele>
        <time>2020-05-24T14:01:21.000Z</time>
      </trkpt>
      <trkpt lat="46.95443" lon="5.95887">
        <ele>692</ele>
        <time>2020-05-24T14:01:24.000Z</time>
      </trkpt>
      <trkpt lat="46.95442" lon="5.95889">
        <ele>692</ele>
        <time>2020-05-24T14:01:27.000Z</time>
      </trkpt>
      <trkpt lat="46.95441" lon="5.95892">
        <ele>692</ele>
        <time>2020-05-24T14:01:30.000Z</time>
      </trkpt>
      <trkpt lat="46.9544" lon="5.95895">
        <ele>692</ele>
        <time>2020-05-24T14:01:32.000Z</time>
      </trkpt>
      <trkpt lat="46.95439" lon="5.95898">
        <ele>692</ele>
        <time>2020-05-24T14:01:34.000Z</time>
      </trkpt>
      <trkpt lat="46.95438" lon="5.95901">
        <ele>692</ele>
        <time>2020-05-24T14:01:36.000Z</time>
      </trkpt>
      <trkpt lat="46.95437" lon="5.95905">
        <ele>692</ele>
        <time>2020-05-24T14:01:38.000Z</time>
      </trkpt>
      <trkpt lat="46.95436" lon="5.95908">
        <ele>692</ele>
        <time>2020-05-24T14:01:40.000Z</time>
      </trkpt>
      <trkpt lat="46.95435" lon="5.95911">
        <ele>692</ele>
        <time>2020-05-24T14:01:42.000Z</time>
      </trkpt>
      <trkpt lat="46.95435" lon="5.95914">
        <ele>692</ele>
        <time>2020-05-24T14:01:44.000Z</time>
      </trkpt>
      <trkpt lat="46.95435" lon="5.95919">
        <ele>692</ele>
        <time>2020-05-24T14:01:46.000Z</time>
      </trkpt>
      <trkpt lat="46.95435" lon="5.95923">
        <ele>692</ele>
        <time>2020-05-24T14:01:48.000Z</time>
      </trkpt>
      <trkpt lat="46.95437" lon="5.95926">
        <ele>692</ele>
        <time>2020-05-24T14:01:50.000Z</time>
      </trkpt>
      <trkpt lat="46.95438" lon="5.9593">
        <ele>692</ele>
        <time>2020-05-24T14:01:52.000Z</time>
      </trkpt>
      <trkpt lat="46.9544" lon="5.95934">
        <ele>692</ele>
        <time>2020-05-24T14:01:54.000Z</time>
      </trkpt>
      <trkpt lat="46.95445" lon="5.95944">
        <ele>693</ele>
        <time>2020-05-24T14:01:59.000Z</time>
      </trkpt>
      <trkpt lat="46.95448" lon="5.9595">
        <ele>693</ele>
        <time>2020-05-24T14:02:02.000Z</time>
      </trkpt>
      <trkpt lat="46.95449" lon="5.95953">
        <ele>693</ele>
        <time>2020-05-24T14:02:04.000Z</time>
      </trkpt>
      <trkpt lat="46.95451" lon="5.95955">
        <ele>693</ele>
        <time>2020-05-24T14:02:06.000Z</time>
      </trkpt>
      <trkpt lat="46.95453" lon="5.95962">
        <ele>694</ele>
        <time>2020-05-24T14:02:10.000Z</time>
      </trkpt>
      <trkpt lat="46.95454" lon="5.95964">
        <ele>694</ele>
        <time>2020-05-24T14:02:12.000Z</time>
      </trkpt>
      <trkpt lat="46.95454" lon="5.95968">
        <ele>694</ele>
        <time>2020-05-24T14:02:14.000Z</time>
      </trkpt>
      <trkpt lat="46.95454" lon="5.95971">
        <ele>694.16</ele>
        <time>2020-05-24T14:02:16.000Z</time>
      </trkpt>
      <trkpt lat="46.95454" lon="5.95974">
        <ele>696</ele>
        <time>2020-05-24T14:02:19.000Z</time>
      </trkpt>
      <trkpt lat="46.95453" lon="5.95979">
        <ele>696</ele>
        <time>2020-05-24T14:02:22.000Z</time>
      </trkpt>
      <trkpt lat="46.95453" lon="5.95982">
        <ele>696</ele>
        <time>2020-05-24T14:02:24.000Z</time>
      </trkpt>
      <trkpt lat="46.95454" lon="5.95996">
        <ele>697</ele>
        <time>2020-05-24T14:02:30.000Z</time>
      </trkpt>
      <trkpt lat="46.95454" lon="5.96002">
        <ele>697</ele>
        <time>2020-05-24T14:02:33.000Z</time>
      </trkpt>
      <trkpt lat="46.95454" lon="5.96007">
        <ele>697</ele>
        <time>2020-05-24T14:02:35.000Z</time>
      </trkpt>
      <trkpt lat="46.95454" lon="5.9601">
        <ele>697</ele>
        <time>2020-05-24T14:02:37.000Z</time>
      </trkpt>
      <trkpt lat="46.95453" lon="5.96014">
        <ele>698</ele>
        <time>2020-05-24T14:02:40.000Z</time>
      </trkpt>
      <trkpt lat="46.95452" lon="5.96016">
        <ele>698</ele>
        <time>2020-05-24T14:02:42.000Z</time>
      </trkpt>
      <trkpt lat="46.95453" lon="5.9602">
        <ele>698</ele>
        <time>2020-05-24T14:02:45.000Z</time>
      </trkpt>
      <trkpt lat="46.95452" lon="5.96023">
        <ele>698.16</ele>
        <time>2020-05-24T14:02:47.000Z</time>
      </trkpt>
      <trkpt lat="46.95453" lon="5.96027">
        <ele>699</ele>
        <time>2020-05-24T14:02:49.000Z</time>
      </trkpt>
      <trkpt lat="46.95453" lon="5.96029">
        <ele>699</ele>
        <time>2020-05-24T14:02:51.000Z</time>
      </trkpt>
      <trkpt lat="46.95452" lon="5.96032">
        <ele>699.14285714286</ele>
        <time>2020-05-24T14:02:53.000Z</time>
      </trkpt>
      <trkpt lat="46.95451" lon="5.96035">
        <ele>700</ele>
        <time>2020-05-24T14:02:55.000Z</time>
      </trkpt>
      <trkpt lat="46.95449" lon="5.96038">
        <ele>700</ele>
        <time>2020-05-24T14:02:57.000Z</time>
      </trkpt>
      <trkpt lat="46.95448" lon="5.96041">
        <ele>700</ele>
        <time>2020-05-24T14:02:59.000Z</time>
      </trkpt>
      <trkpt lat="46.95448" lon="5.96045">
        <ele>700</ele>
        <time>2020-05-24T14:03:01.000Z</time>
      </trkpt>
      <trkpt lat="46.95448" lon="5.96047">
        <ele>700</ele>
        <time>2020-05-24T14:03:03.000Z</time>
      </trkpt>
      <trkpt lat="46.95447" lon="5.96051">
        <ele>701</ele>
        <time>2020-05-24T14:03:05.000Z</time>
      </trkpt>
      <trkpt lat="46.95445" lon="5.96054">
        <ele>701</ele>
        <time>2020-05-24T14:03:07.000Z</time>
      </trkpt>
      <trkpt lat="46.95445" lon="5.96056">
        <ele>701</ele>
        <time>2020-05-24T14:03:09.000Z</time>
      </trkpt>
      <trkpt lat="46.95444" lon="5.96059">
        <ele>701</ele>
        <time>2020-05-24T14:03:11.000Z</time>
      </trkpt>
      <trkpt lat="46.95444" lon="5.96062">
        <ele>701.85294117647</ele>
        <time>2020-05-24T14:03:13.000Z</time>
      </trkpt>
      <trkpt lat="46.95443" lon="5.96066">
        <ele>702.16</ele>
        <time>2020-05-24T14:03:15.000Z</time>
      </trkpt>
      <trkpt lat="46.95442" lon="5.96068">
        <ele>703</ele>
        <time>2020-05-24T14:03:17.000Z</time>
      </trkpt>
      <trkpt lat="46.95441" lon="5.96071">
        <ele>703</ele>
        <time>2020-05-24T14:03:19.000Z</time>
      </trkpt>
      <trkpt lat="46.9544" lon="5.96074">
        <ele>704</ele>
        <time>2020-05-24T14:03:21.000Z</time>
      </trkpt>
      <trkpt lat="46.95439" lon="5.96078">
        <ele>704</ele>
        <time>2020-05-24T14:03:23.000Z</time>
      </trkpt>
      <trkpt lat="46.95437" lon="5.96081">
        <ele>704</ele>
        <time>2020-05-24T14:03:25.000Z</time>
      </trkpt>
      <trkpt lat="46.95435" lon="5.96083">
        <ele>704</ele>
        <time>2020-05-24T14:03:27.000Z</time>
      </trkpt>
      <trkpt lat="46.95434" lon="5.96087">
        <ele>705</ele>
        <time>2020-05-24T14:03:29.000Z</time>
      </trkpt>
      <trkpt lat="46.95433" lon="5.96091">
        <ele>705</ele>
        <time>2020-05-24T14:03:31.000Z</time>
      </trkpt>
      <trkpt lat="46.95432" lon="5.96094">
        <ele>705</ele>
        <time>2020-05-24T14:03:33.000Z</time>
      </trkpt>
      <trkpt lat="46.95431" lon="5.96097">
        <ele>705.9906572242</ele>
        <time>2020-05-24T14:03:35.000Z</time>
      </trkpt>
      <trkpt lat="46.95431" lon="5.961">
        <ele>706</ele>
        <time>2020-05-24T14:03:37.000Z</time>
      </trkpt>
      <trkpt lat="46.9543" lon="5.96104">
        <ele>706.79167111111</ele>
        <time>2020-05-24T14:03:39.000Z</time>
      </trkpt>
      <trkpt lat="46.9543" lon="5.96108">
        <ele>707</ele>
        <time>2020-05-24T14:03:41.000Z</time>
      </trkpt>
      <trkpt lat="46.95429" lon="5.96111">
        <ele>706.84</ele>
        <time>2020-05-24T14:03:43.000Z</time>
      </trkpt>
      <trkpt lat="46.95428" lon="5.96113">
        <ele>706</ele>
        <time>2020-05-24T14:03:45.000Z</time>
      </trkpt>
      <trkpt lat="46.95427" lon="5.96116">
        <ele>706</ele>
        <time>2020-05-24T14:03:47.000Z</time>
      </trkpt>
      <trkpt lat="46.95427" lon="5.9612">
        <ele>706</ele>
        <time>2020-05-24T14:03:49.000Z</time>
      </trkpt>
      <trkpt lat="46.95427" lon="5.96124">
        <ele>706</ele>
        <time>2020-05-24T14:03:51.000Z</time>
      </trkpt>
      <trkpt lat="46.95427" lon="5.96128">
        <ele>706.16</ele>
        <time>2020-05-24T14:03:53.000Z</time>
      </trkpt>
      <trkpt lat="46.95428" lon="5.9613">
        <ele>707</ele>
        <time>2020-05-24T14:03:55.000Z</time>
      </trkpt>
      <trkpt lat="46.95429" lon="5.96133">
        <ele>707</ele>
        <time>2020-05-24T14:03:57.000Z</time>
      </trkpt>
      <trkpt lat="46.95431" lon="5.96135">
        <ele>706</ele>
        <time>2020-05-24T14:04:08.000Z</time>
      </trkpt>
      <trkpt lat="46.95429" lon="5.96136">
        <ele>708</ele>
        <time>2020-05-24T14:04:19.000Z</time>
      </trkpt>
      <trkpt lat="46.95428" lon="5.96139">
        <ele>707.87128988923</ele>
        <time>2020-05-24T14:04:24.000Z</time>
      </trkpt>
      <trkpt lat="46.95427" lon="5.96142">
        <ele>708</ele>
        <time>2020-05-24T14:04:26.000Z</time>
      </trkpt>
      <trkpt lat="46.95426" lon="5.96145">
        <ele>708.08695652174</ele>
        <time>2020-05-24T14:04:28.000Z</time>
      </trkpt>
      <trkpt lat="46.95425" lon="5.96147">
        <ele>709</ele>
        <time>2020-05-24T14:04:31.000Z</time>
      </trkpt>
      <trkpt lat="46.95425" lon="5.9615">
        <ele>709</ele>
        <time>2020-05-24T14:04:34.000Z</time>
      </trkpt>
      <trkpt lat="46.95424" lon="5.96153">
        <ele>709</ele>
        <time>2020-05-24T14:04:36.000Z</time>
      </trkpt>
      <trkpt lat="46.95422" lon="5.96156">
        <ele>709</ele>
        <time>2020-05-24T14:04:38.000Z</time>
      </trkpt>
      <trkpt lat="46.95422" lon="5.96159">
        <ele>709</ele>
        <time>2020-05-24T14:04:40.000Z</time>
      </trkpt>
      <trkpt lat="46.9542" lon="5.96162">
        <ele>709</ele>
        <time>2020-05-24T14:04:42.000Z</time>
      </trkpt>
      <trkpt lat="46.95419" lon="5.96164">
        <ele>709</ele>
        <time>2020-05-24T14:04:44.000Z</time>
      </trkpt>
      <trkpt lat="46.95418" lon="5.96167">
        <ele>709</ele>
        <time>2020-05-24T14:04:46.000Z</time>
      </trkpt>
      <trkpt lat="46.95417" lon="5.9617">
        <ele>709</ele>
        <time>2020-05-24T14:04:48.000Z</time>
      </trkpt>
      <trkpt lat="46.95416" lon="5.96172">
        <ele>710</ele>
        <time>2020-05-24T14:04:50.000Z</time>
      </trkpt>
      <trkpt lat="46.95416" lon="5.96174">
        <ele>710</ele>
        <time>2020-05-24T14:04:52.000Z</time>
      </trkpt>
      <trkpt lat="46.95415" lon="5.96177">
        <ele>711</ele>
        <time>2020-05-24T14:04:54.000Z</time>
      </trkpt>
      <trkpt lat="46.95415" lon="5.9618">
        <ele>711</ele>
        <time>2020-05-24T14:04:56.000Z</time>
      </trkpt>
      <trkpt lat="46.95415" lon="5.96185">
        <ele>710.13889185185</ele>
        <time>2020-05-24T14:05:00.000Z</time>
      </trkpt>
      <trkpt lat="46.95414" lon="5.96188">
        <ele>711</ele>
        <time>2020-05-24T14:05:02.000Z</time>
      </trkpt>
      <trkpt lat="46.95413" lon="5.96191">
        <ele>711</ele>
        <time>2020-05-24T14:05:04.000Z</time>
      </trkpt>
      <trkpt lat="46.95413" lon="5.96194">
        <ele>710</ele>
        <time>2020-05-24T14:05:06.000Z</time>
      </trkpt>
      <trkpt lat="46.95411" lon="5.96197">
        <ele>710</ele>
        <time>2020-05-24T14:05:08.000Z</time>
      </trkpt>
      <trkpt lat="46.9541" lon="5.96201">
        <ele>710</ele>
        <time>2020-05-24T14:05:11.000Z</time>
      </trkpt>
      <trkpt lat="46.9541" lon="5.96204">
        <ele>710</ele>
        <time>2020-05-24T14:05:13.000Z</time>
      </trkpt>
      <trkpt lat="46.95409" lon="5.96208">
        <ele>710</ele>
        <time>2020-05-24T14:05:16.000Z</time>
      </trkpt>
      <trkpt lat="46.95409" lon="5.96215">
        <ele>709.07199762431</ele>
        <time>2020-05-24T14:05:19.000Z</time>
      </trkpt>
      <trkpt lat="46.95408" lon="5.96217">
        <ele>709</ele>
        <time>2020-05-24T14:05:21.000Z</time>
      </trkpt>
      <trkpt lat="46.95408" lon="5.96221">
        <ele>709</ele>
        <time>2020-05-24T14:05:23.000Z</time>
      </trkpt>
      <trkpt lat="46.95409" lon="5.96224">
        <ele>709</ele>
        <time>2020-05-24T14:05:25.000Z</time>
      </trkpt>
      <trkpt lat="46.95409" lon="5.96228">
        <ele>709</ele>
        <time>2020-05-24T14:05:27.000Z</time>
      </trkpt>
      <trkpt lat="46.95409" lon="5.96231">
        <ele>709</ele>
        <time>2020-05-24T14:05:29.000Z</time>
      </trkpt>
      <trkpt lat="46.95409" lon="5.96235">
        <ele>709</ele>
        <time>2020-05-24T14:05:32.000Z</time>
      </trkpt>
      <trkpt lat="46.95408" lon="5.96239">
        <ele>710</ele>
        <time>2020-05-24T14:05:34.000Z</time>
      </trkpt>
      <trkpt lat="46.95408" lon="5.96243">
        <ele>710</ele>
        <time>2020-05-24T14:05:36.000Z</time>
      </trkpt>
      <trkpt lat="46.95408" lon="5.96247">
        <ele>709.875</ele>
        <time>2020-05-24T14:05:38.000Z</time>
      </trkpt>
      <trkpt lat="46.95408" lon="5.9625">
        <ele>709</ele>
        <time>2020-05-24T14:05:40.000Z</time>
      </trkpt>
      <trkpt lat="46.95408" lon="5.96254">
        <ele>709</ele>
        <time>2020-05-24T14:05:42.000Z</time>
      </trkpt>
      <trkpt lat="46.95408" lon="5.96258">
        <ele>709</ele>
        <time>2020-05-24T14:05:44.000Z</time>
      </trkpt>
      <trkpt lat="46.95409" lon="5.96263">
        <ele>709</ele>
        <time>2020-05-24T14:05:46.000Z</time>
      </trkpt>
      <trkpt lat="46.9541" lon="5.96267">
        <ele>709</ele>
        <time>2020-05-24T14:05:48.000Z</time>
      </trkpt>
      <trkpt lat="46.95412" lon="5.9627">
        <ele>708.85840667867</ele>
        <time>2020-05-24T14:05:50.000Z</time>
      </trkpt>
      <trkpt lat="46.95412" lon="5.96272">
        <ele>708</ele>
        <time>2020-05-24T14:05:52.000Z</time>
      </trkpt>
      <trkpt lat="46.95412" lon="5.96275">
        <ele>708</ele>
        <time>2020-05-24T14:05:54.000Z</time>
      </trkpt>
      <trkpt lat="46.95412" lon="5.96278">
        <ele>708</ele>
        <time>2020-05-24T14:05:56.000Z</time>
      </trkpt>
      <trkpt lat="46.95412" lon="5.96282">
        <ele>708</ele>
        <time>2020-05-24T14:05:58.000Z</time>
      </trkpt>
      <trkpt lat="46.9541" lon="5.96284">
        <ele>708</ele>
        <time>2020-05-24T14:06:00.000Z</time>
      </trkpt>
      <trkpt lat="46.95409" lon="5.96287">
        <ele>708</ele>
        <time>2020-05-24T14:06:02.000Z</time>
      </trkpt>
      <trkpt lat="46.95407" lon="5.96288">
        <ele>708</ele>
        <time>2020-05-24T14:06:04.000Z</time>
      </trkpt>
      <trkpt lat="46.95405" lon="5.9629">
        <ele>708</ele>
        <time>2020-05-24T14:06:06.000Z</time>
      </trkpt>
      <trkpt lat="46.95405" lon="5.96293">
        <ele>708</ele>
        <time>2020-05-24T14:06:08.000Z</time>
      </trkpt>
      <trkpt lat="46.95405" lon="5.96296">
        <ele>708</ele>
        <time>2020-05-24T14:06:10.000Z</time>
      </trkpt>
      <trkpt lat="46.95406" lon="5.96301">
        <ele>709</ele>
        <time>2020-05-24T14:06:13.000Z</time>
      </trkpt>
      <trkpt lat="46.95404" lon="5.96315">
        <ele>708</ele>
        <time>2020-05-24T14:06:20.000Z</time>
      </trkpt>
      <trkpt lat="46.95407" lon="5.96328">
        <ele>709</ele>
        <time>2020-05-24T14:06:28.000Z</time>
      </trkpt>
      <trkpt lat="46.95404" lon="5.96339">
        <ele>709</ele>
        <time>2020-05-24T14:06:37.000Z</time>
      </trkpt>
      <trkpt lat="46.95403" lon="5.96342">
        <ele>709</ele>
        <time>2020-05-24T14:06:39.000Z</time>
      </trkpt>
      <trkpt lat="46.95405" lon="5.96353">
        <ele>710</ele>
        <time>2020-05-24T14:06:45.000Z</time>
      </trkpt>
      <trkpt lat="46.95407" lon="5.96361">
        <ele>710</ele>
        <time>2020-05-24T14:06:50.000Z</time>
      </trkpt>
      <trkpt lat="46.95408" lon="5.96364">
        <ele>710</ele>
        <time>2020-05-24T14:06:52.000Z</time>
      </trkpt>
      <trkpt lat="46.95409" lon="5.96367">
        <ele>710</ele>
        <time>2020-05-24T14:06:54.000Z</time>
      </trkpt>
      <trkpt lat="46.9541" lon="5.96369">
        <ele>710</ele>
        <time>2020-05-24T14:06:56.000Z</time>
      </trkpt>
      <trkpt lat="46.95411" lon="5.96372">
        <ele>710</ele>
        <time>2020-05-24T14:06:58.000Z</time>
      </trkpt>
      <trkpt lat="46.95412" lon="5.96375">
        <ele>710</ele>
        <time>2020-05-24T14:07:02.000Z</time>
      </trkpt>
      <trkpt lat="46.95411" lon="5.96379">
        <ele>710.82269690257</ele>
        <time>2020-05-24T14:07:06.000Z</time>
      </trkpt>
      <trkpt lat="46.95411" lon="5.96382">
        <ele>711</ele>
        <time>2020-05-24T14:07:08.000Z</time>
      </trkpt>
      <trkpt lat="46.95411" lon="5.96385">
        <ele>711</ele>
        <time>2020-05-24T14:07:11.000Z</time>
      </trkpt>
      <trkpt lat="46.95414" lon="5.96398">
        <ele>712</ele>
        <time>2020-05-24T14:07:22.000Z</time>
      </trkpt>
      <trkpt lat="46.95414" lon="5.96404">
        <ele>713</ele>
        <time>2020-05-24T14:07:26.000Z</time>
      </trkpt>
      <trkpt lat="46.95414" lon="5.96406">
        <ele>713</ele>
        <time>2020-05-24T14:07:28.000Z</time>
      </trkpt>
      <trkpt lat="46.95415" lon="5.96409">
        <ele>713</ele>
        <time>2020-05-24T14:07:30.000Z</time>
      </trkpt>
      <trkpt lat="46.95417" lon="5.96418">
        <ele>714.14159332133</ele>
        <time>2020-05-24T14:07:36.000Z</time>
      </trkpt>
      <trkpt lat="46.95416" lon="5.96425">
        <ele>715</ele>
        <time>2020-05-24T14:07:41.000Z</time>
      </trkpt>
      <trkpt lat="46.95416" lon="5.96428">
        <ele>715</ele>
        <time>2020-05-24T14:07:43.000Z</time>
      </trkpt>
      <trkpt lat="46.95417" lon="5.96431">
        <ele>715</ele>
        <time>2020-05-24T14:07:45.000Z</time>
      </trkpt>
      <trkpt lat="46.95415" lon="5.96442">
        <ele>716.89565246427</ele>
        <time>2020-05-24T14:07:53.000Z</time>
      </trkpt>
      <trkpt lat="46.95415" lon="5.96445">
        <ele>717</ele>
        <time>2020-05-24T14:07:55.000Z</time>
      </trkpt>
      <trkpt lat="46.95413" lon="5.96447">
        <ele>717</ele>
        <time>2020-05-24T14:07:57.000Z</time>
      </trkpt>
      <trkpt lat="46.9541" lon="5.96452">
        <ele>719</ele>
        <time>2020-05-24T14:08:03.000Z</time>
      </trkpt>
      <trkpt lat="46.95403" lon="5.9646">
        <ele>721.16</ele>
        <time>2020-05-24T14:08:15.000Z</time>
      </trkpt>
      <trkpt lat="46.954" lon="5.96463">
        <ele>722</ele>
        <time>2020-05-24T14:08:19.000Z</time>
      </trkpt>
      <trkpt lat="46.95399" lon="5.96466">
        <ele>722</ele>
        <time>2020-05-24T14:08:22.000Z</time>
      </trkpt>
      <trkpt lat="46.95398" lon="5.96469">
        <ele>724</ele>
        <time>2020-05-24T14:08:25.000Z</time>
      </trkpt>
      <trkpt lat="46.95399" lon="5.96471">
        <ele>724</ele>
        <time>2020-05-24T14:08:28.000Z</time>
      </trkpt>
      <trkpt lat="46.954" lon="5.96476">
        <ele>724</ele>
        <time>2020-05-24T14:08:33.000Z</time>
      </trkpt>
      <trkpt lat="46.95403" lon="5.96488">
        <ele>726</ele>
        <time>2020-05-24T14:08:41.000Z</time>
      </trkpt>
      <trkpt lat="46.9541" lon="5.965">
        <ele>727</ele>
        <time>2020-05-24T14:08:49.000Z</time>
      </trkpt>
      <trkpt lat="46.95411" lon="5.96509">
        <ele>728.15151789408</ele>
        <time>2020-05-24T14:08:53.000Z</time>
      </trkpt>
      <trkpt lat="46.95411" lon="5.96512">
        <ele>729</ele>
        <time>2020-05-24T14:08:55.000Z</time>
      </trkpt>
      <trkpt lat="46.95413" lon="5.96514">
        <ele>729.0769263229</ele>
        <time>2020-05-24T14:08:58.000Z</time>
      </trkpt>
      <trkpt lat="46.95414" lon="5.96516">
        <ele>730</ele>
        <time>2020-05-24T14:09:01.000Z</time>
      </trkpt>
      <trkpt lat="46.95415" lon="5.9652">
        <ele>731.03603593215</ele>
        <time>2020-05-24T14:09:04.000Z</time>
      </trkpt>
      <trkpt lat="46.95415" lon="5.96523">
        <ele>732</ele>
        <time>2020-05-24T14:09:06.000Z</time>
      </trkpt>
      <trkpt lat="46.95416" lon="5.96526">
        <ele>732</ele>
        <time>2020-05-24T14:09:08.000Z</time>
      </trkpt>
      <trkpt lat="46.95417" lon="5.96528">
        <ele>732</ele>
        <time>2020-05-24T14:09:10.000Z</time>
      </trkpt>
      <trkpt lat="46.95417" lon="5.96532">
        <ele>732</ele>
        <time>2020-05-24T14:09:12.000Z</time>
      </trkpt>
      <trkpt lat="46.95415" lon="5.96533">
        <ele>732</ele>
        <time>2020-05-24T14:09:24.000Z</time>
      </trkpt>
      <trkpt lat="46.95413" lon="5.96532">
        <ele>732</ele>
        <time>2020-05-24T14:09:28.000Z</time>
      </trkpt>
      <trkpt lat="46.95412" lon="5.96535">
        <ele>732.13333333333</ele>
        <time>2020-05-24T14:09:31.000Z</time>
      </trkpt>
      <trkpt lat="46.95411" lon="5.96537">
        <ele>733</ele>
        <time>2020-05-24T14:09:34.000Z</time>
      </trkpt>
      <trkpt lat="46.95411" lon="5.96541">
        <ele>733</ele>
        <time>2020-05-24T14:09:37.000Z</time>
      </trkpt>
      <trkpt lat="46.9541" lon="5.96543">
        <ele>733</ele>
        <time>2020-05-24T14:09:39.000Z</time>
      </trkpt>
      <trkpt lat="46.95409" lon="5.96546">
        <ele>733</ele>
        <time>2020-05-24T14:09:41.000Z</time>
      </trkpt>
      <trkpt lat="46.95408" lon="5.96549">
        <ele>733.14285714286</ele>
        <time>2020-05-24T14:09:44.000Z</time>
      </trkpt>
      <trkpt lat="46.95408" lon="5.96552">
        <ele>734</ele>
        <time>2020-05-24T14:09:47.000Z</time>
      </trkpt>
      <trkpt lat="46.95407" lon="5.96555">
        <ele>734.16</ele>
        <time>2020-05-24T14:09:49.000Z</time>
      </trkpt>
      <trkpt lat="46.95406" lon="5.96558">
        <ele>735</ele>
        <time>2020-05-24T14:09:51.000Z</time>
      </trkpt>
      <trkpt lat="46.95405" lon="5.96562">
        <ele>735</ele>
        <time>2020-05-24T14:09:54.000Z</time>
      </trkpt>
      <trkpt lat="46.95404" lon="5.96565">
        <ele>735</ele>
        <time>2020-05-24T14:09:56.000Z</time>
      </trkpt>
      <trkpt lat="46.95403" lon="5.96568">
        <ele>735</ele>
        <time>2020-05-24T14:09:58.000Z</time>
      </trkpt>
      <trkpt lat="46.95402" lon="5.96571">
        <ele>735</ele>
        <time>2020-05-24T14:10:01.000Z</time>
      </trkpt>
      <trkpt lat="46.95402" lon="5.96575">
        <ele>737</ele>
        <time>2020-05-24T14:10:05.000Z</time>
      </trkpt>
      <trkpt lat="46.95401" lon="5.96578">
        <ele>737</ele>
        <time>2020-05-24T14:10:07.000Z</time>
      </trkpt>
      <trkpt lat="46.95401" lon="5.96581">
        <ele>737</ele>
        <time>2020-05-24T14:10:09.000Z</time>
      </trkpt>
      <trkpt lat="46.95399" lon="5.96584">
        <ele>737</ele>
        <time>2020-05-24T14:10:11.000Z</time>
      </trkpt>
      <trkpt lat="46.95398" lon="5.96586">
        <ele>737.15238141678</ele>
        <time>2020-05-24T14:10:13.000Z</time>
      </trkpt>
      <trkpt lat="46.95397" lon="5.96589">
        <ele>738</ele>
        <time>2020-05-24T14:10:17.000Z</time>
      </trkpt>
      <trkpt lat="46.95398" lon="5.96592">
        <ele>738</ele>
        <time>2020-05-24T14:10:19.000Z</time>
      </trkpt>
      <trkpt lat="46.95398" lon="5.96595">
        <ele>739</ele>
        <time>2020-05-24T14:10:23.000Z</time>
      </trkpt>
      <trkpt lat="46.95397" lon="5.96598">
        <ele>739.90434530965</ele>
        <time>2020-05-24T14:10:25.000Z</time>
      </trkpt>
      <trkpt lat="46.95397" lon="5.966">
        <ele>740</ele>
        <time>2020-05-24T14:10:27.000Z</time>
      </trkpt>
      <trkpt lat="46.95396" lon="5.96603">
        <ele>741</ele>
        <time>2020-05-24T14:10:29.000Z</time>
      </trkpt>
      <trkpt lat="46.95395" lon="5.96606">
        <ele>741</ele>
        <time>2020-05-24T14:10:31.000Z</time>
      </trkpt>
      <trkpt lat="46.95395" lon="5.96609">
        <ele>741</ele>
        <time>2020-05-24T14:10:33.000Z</time>
      </trkpt>
      <trkpt lat="46.95394" lon="5.96612">
        <ele>742</ele>
        <time>2020-05-24T14:10:36.000Z</time>
      </trkpt>
      <trkpt lat="46.95393" lon="5.96615">
        <ele>742</ele>
        <time>2020-05-24T14:10:38.000Z</time>
      </trkpt>
      <trkpt lat="46.95393" lon="5.96618">
        <ele>743</ele>
        <time>2020-05-24T14:10:43.000Z</time>
      </trkpt>
      <trkpt lat="46.95391" lon="5.96621">
        <ele>743</ele>
        <time>2020-05-24T14:10:46.000Z</time>
      </trkpt>
      <trkpt lat="46.9539" lon="5.96623">
        <ele>744</ele>
        <time>2020-05-24T14:10:48.000Z</time>
      </trkpt>
      <trkpt lat="46.95388" lon="5.96623">
        <ele>744</ele>
        <time>2020-05-24T14:10:54.000Z</time>
      </trkpt>
      <trkpt lat="46.95387" lon="5.96627">
        <ele>744</ele>
        <time>2020-05-24T14:10:58.000Z</time>
      </trkpt>
      <trkpt lat="46.95389" lon="5.96627">
        <ele>744</ele>
        <time>2020-05-24T14:11:03.000Z</time>
      </trkpt>
      <trkpt lat="46.95392" lon="5.96626">
        <ele>744</ele>
        <time>2020-05-24T14:11:07.000Z</time>
      </trkpt>
      <trkpt lat="46.95394" lon="5.96626">
        <ele>744</ele>
        <time>2020-05-24T14:11:16.000Z</time>
      </trkpt>
      <trkpt lat="46.95396" lon="5.96628">
        <ele>745</ele>
        <time>2020-05-24T14:11:34.000Z</time>
      </trkpt>
      <trkpt lat="46.95396" lon="5.96624">
        <ele>745</ele>
        <time>2020-05-24T14:11:44.000Z</time>
      </trkpt>
      <trkpt lat="46.95394" lon="5.96622">
        <ele>744</ele>
        <time>2020-05-24T14:11:47.000Z</time>
      </trkpt>
      <trkpt lat="46.95393" lon="5.96625">
        <ele>744</ele>
        <time>2020-05-24T14:11:50.000Z</time>
      </trkpt>
      <trkpt lat="46.95391" lon="5.96628">
        <ele>744</ele>
        <time>2020-05-24T14:11:52.000Z</time>
      </trkpt>
      <trkpt lat="46.95388" lon="5.9663">
        <ele>744</ele>
        <time>2020-05-24T14:11:54.000Z</time>
      </trkpt>
      <trkpt lat="46.95385" lon="5.96631">
        <ele>743</ele>
        <time>2020-05-24T14:11:56.000Z</time>
      </trkpt>
      <trkpt lat="46.95384" lon="5.96633">
        <ele>743</ele>
        <time>2020-05-24T14:11:57.000Z</time>
      </trkpt>
      <trkpt lat="46.95382" lon="5.96636">
        <ele>742.94915769035</ele>
        <time>2020-05-24T14:11:59.000Z</time>
      </trkpt>
      <trkpt lat="46.9538" lon="5.9664">
        <ele>742</ele>
        <time>2020-05-24T14:12:01.000Z</time>
      </trkpt>
      <trkpt lat="46.95377" lon="5.96644">
        <ele>741.84761858322</ele>
        <time>2020-05-24T14:12:03.000Z</time>
      </trkpt>
      <trkpt lat="46.95374" lon="5.96647">
        <ele>740.10596004035</ele>
        <time>2020-05-24T14:12:05.000Z</time>
      </trkpt>
      <trkpt lat="46.95371" lon="5.96648">
        <ele>741</ele>
        <time>2020-05-24T14:12:07.000Z</time>
      </trkpt>
      <trkpt lat="46.9537" lon="5.9665">
        <ele>740.84</ele>
        <time>2020-05-24T14:12:09.000Z</time>
      </trkpt>
      <trkpt lat="46.95368" lon="5.96652">
        <ele>740</ele>
        <time>2020-05-24T14:12:11.000Z</time>
      </trkpt>
      <trkpt lat="46.95366" lon="5.96655">
        <ele>740</ele>
        <time>2020-05-24T14:12:13.000Z</time>
      </trkpt>
      <trkpt lat="46.95363" lon="5.96657">
        <ele>740</ele>
        <time>2020-05-24T14:12:15.000Z</time>
      </trkpt>
      <trkpt lat="46.95361" lon="5.96659">
        <ele>739</ele>
        <time>2020-05-24T14:12:17.000Z</time>
      </trkpt>
      <trkpt lat="46.95358" lon="5.96661">
        <ele>739</ele>
        <time>2020-05-24T14:12:19.000Z</time>
      </trkpt>
      <trkpt lat="46.95356" lon="5.96663">
        <ele>739</ele>
        <time>2020-05-24T14:12:21.000Z</time>
      </trkpt>
      <trkpt lat="46.95355" lon="5.96667">
        <ele>738</ele>
        <time>2020-05-24T14:12:23.000Z</time>
      </trkpt>
      <trkpt lat="46.95353" lon="5.96669">
        <ele>738</ele>
        <time>2020-05-24T14:12:25.000Z</time>
      </trkpt>
      <trkpt lat="46.95351" lon="5.9667">
        <ele>737.85714285714</ele>
        <time>2020-05-24T14:12:27.000Z</time>
      </trkpt>
      <trkpt lat="46.95348" lon="5.96672">
        <ele>737</ele>
        <time>2020-05-24T14:12:29.000Z</time>
      </trkpt>
      <trkpt lat="46.95346" lon="5.96674">
        <ele>737</ele>
        <time>2020-05-24T14:12:31.000Z</time>
      </trkpt>
      <trkpt lat="46.95343" lon="5.96676">
        <ele>736</ele>
        <time>2020-05-24T14:12:33.000Z</time>
      </trkpt>
      <trkpt lat="46.95342" lon="5.96678">
        <ele>735</ele>
        <time>2020-05-24T14:12:35.000Z</time>
      </trkpt>
      <trkpt lat="46.95341" lon="5.96681">
        <ele>734.88405850871</ele>
        <time>2020-05-24T14:12:37.000Z</time>
      </trkpt>
      <trkpt lat="46.9534" lon="5.96685">
        <ele>734</ele>
        <time>2020-05-24T14:12:40.000Z</time>
      </trkpt>
      <trkpt lat="46.95339" lon="5.96689">
        <ele>733.84</ele>
        <time>2020-05-24T14:12:42.000Z</time>
      </trkpt>
      <trkpt lat="46.95338" lon="5.96692">
        <ele>733</ele>
        <time>2020-05-24T14:12:44.000Z</time>
      </trkpt>
      <trkpt lat="46.95337" lon="5.96696">
        <ele>733</ele>
        <time>2020-05-24T14:12:46.000Z</time>
      </trkpt>
      <trkpt lat="46.95334" lon="5.96698">
        <ele>732.84</ele>
        <time>2020-05-24T14:12:48.000Z</time>
      </trkpt>
      <trkpt lat="46.95333" lon="5.96701">
        <ele>732</ele>
        <time>2020-05-24T14:12:50.000Z</time>
      </trkpt>
      <trkpt lat="46.95331" lon="5.96704">
        <ele>731.84466067678</ele>
        <time>2020-05-24T14:12:52.000Z</time>
      </trkpt>
      <trkpt lat="46.9533" lon="5.96707">
        <ele>731</ele>
        <time>2020-05-24T14:12:54.000Z</time>
      </trkpt>
      <trkpt lat="46.95328" lon="5.9671">
        <ele>731</ele>
        <time>2020-05-24T14:12:56.000Z</time>
      </trkpt>
      <trkpt lat="46.95327" lon="5.96711">
        <ele>730</ele>
        <time>2020-05-24T14:12:58.000Z</time>
      </trkpt>
      <trkpt lat="46.95325" lon="5.96713">
        <ele>730</ele>
        <time>2020-05-24T14:13:00.000Z</time>
      </trkpt>
      <trkpt lat="46.95323" lon="5.96715">
        <ele>728.85713725951</ele>
        <time>2020-05-24T14:13:04.000Z</time>
      </trkpt>
      <trkpt lat="46.95323" lon="5.96718">
        <ele>728</ele>
        <time>2020-05-24T14:13:06.000Z</time>
      </trkpt>
      <trkpt lat="46.95322" lon="5.96721">
        <ele>728</ele>
        <time>2020-05-24T14:13:08.000Z</time>
      </trkpt>
      <trkpt lat="46.95321" lon="5.96724">
        <ele>728</ele>
        <time>2020-05-24T14:13:10.000Z</time>
      </trkpt>
      <trkpt lat="46.95319" lon="5.96727">
        <ele>727</ele>
        <time>2020-05-24T14:13:12.000Z</time>
      </trkpt>
      <trkpt lat="46.95317" lon="5.9673">
        <ele>726.88148176241</ele>
        <time>2020-05-24T14:13:14.000Z</time>
      </trkpt>
      <trkpt lat="46.95315" lon="5.96732">
        <ele>726</ele>
        <time>2020-05-24T14:13:16.000Z</time>
      </trkpt>
      <trkpt lat="46.95313" lon="5.96735">
        <ele>725</ele>
        <time>2020-05-24T14:13:18.000Z</time>
      </trkpt>
      <trkpt lat="46.95312" lon="5.96739">
        <ele>725</ele>
        <time>2020-05-24T14:13:21.000Z</time>
      </trkpt>
      <trkpt lat="46.95309" lon="5.96741">
        <ele>724.8415836565</ele>
        <time>2020-05-24T14:13:23.000Z</time>
      </trkpt>
      <trkpt lat="46.95307" lon="5.96741">
        <ele>724</ele>
        <time>2020-05-24T14:13:25.000Z</time>
      </trkpt>
      <trkpt lat="46.95304" lon="5.96741">
        <ele>723.93333997042</ele>
        <time>2020-05-24T14:13:27.000Z</time>
      </trkpt>
      <trkpt lat="46.95302" lon="5.96742">
        <ele>723</ele>
        <time>2020-05-24T14:13:29.000Z</time>
      </trkpt>
      <trkpt lat="46.953" lon="5.96743">
        <ele>723</ele>
        <time>2020-05-24T14:13:30.000Z</time>
      </trkpt>
      <trkpt lat="46.95298" lon="5.96745">
        <ele>721.85714285714</ele>
        <time>2020-05-24T14:13:32.000Z</time>
      </trkpt>
      <trkpt lat="46.95296" lon="5.96746">
        <ele>720</ele>
        <time>2020-05-24T14:13:34.000Z</time>
      </trkpt>
      <trkpt lat="46.95294" lon="5.96746">
        <ele>720</ele>
        <time>2020-05-24T14:13:36.000Z</time>
      </trkpt>
      <trkpt lat="46.95293" lon="5.96748">
        <ele>720</ele>
        <time>2020-05-24T14:13:38.000Z</time>
      </trkpt>
      <trkpt lat="46.95291" lon="5.96748">
        <ele>720</ele>
        <time>2020-05-24T14:13:40.000Z</time>
      </trkpt>
      <trkpt lat="46.95289" lon="5.96749">
        <ele>720</ele>
        <time>2020-05-24T14:13:42.000Z</time>
      </trkpt>
      <trkpt lat="46.95287" lon="5.9675">
        <ele>719</ele>
        <time>2020-05-24T14:13:44.000Z</time>
      </trkpt>
      <trkpt lat="46.95285" lon="5.9675">
        <ele>718</ele>
        <time>2020-05-24T14:13:46.000Z</time>
      </trkpt>
      <trkpt lat="46.95283" lon="5.96752">
        <ele>717</ele>
        <time>2020-05-24T14:13:48.000Z</time>
      </trkpt>
      <trkpt lat="46.95282" lon="5.96752">
        <ele>717</ele>
        <time>2020-05-24T14:13:50.000Z</time>
      </trkpt>
      <trkpt lat="46.95279" lon="5.96754">
        <ele>716</ele>
        <time>2020-05-24T14:13:53.000Z</time>
      </trkpt>
      <trkpt lat="46.95278" lon="5.96755">
        <ele>715</ele>
        <time>2020-05-24T14:13:55.000Z</time>
      </trkpt>
      <trkpt lat="46.95275" lon="5.96757">
        <ele>715</ele>
        <time>2020-05-24T14:13:57.000Z</time>
      </trkpt>
      <trkpt lat="46.95273" lon="5.96758">
        <ele>714</ele>
        <time>2020-05-24T14:13:59.000Z</time>
      </trkpt>
      <trkpt lat="46.95271" lon="5.96758">
        <ele>714</ele>
        <time>2020-05-24T14:14:01.000Z</time>
      </trkpt>
      <trkpt lat="46.95269" lon="5.96759">
        <ele>714</ele>
        <time>2020-05-24T14:14:03.000Z</time>
      </trkpt>
      <trkpt lat="46.95267" lon="5.96761">
        <ele>713</ele>
        <time>2020-05-24T14:14:05.000Z</time>
      </trkpt>
      <trkpt lat="46.95266" lon="5.96763">
        <ele>712</ele>
        <time>2020-05-24T14:14:08.000Z</time>
      </trkpt>
      <trkpt lat="46.95264" lon="5.96765">
        <ele>711.84</ele>
        <time>2020-05-24T14:14:10.000Z</time>
      </trkpt>
      <trkpt lat="46.95263" lon="5.96767">
        <ele>711</ele>
        <time>2020-05-24T14:14:12.000Z</time>
      </trkpt>
      <trkpt lat="46.95262" lon="5.96769">
        <ele>711</ele>
        <time>2020-05-24T14:14:14.000Z</time>
      </trkpt>
      <trkpt lat="46.95261" lon="5.96772">
        <ele>710</ele>
        <time>2020-05-24T14:14:17.000Z</time>
      </trkpt>
      <trkpt lat="46.95258" lon="5.96772">
        <ele>709</ele>
        <time>2020-05-24T14:14:19.000Z</time>
      </trkpt>
      <trkpt lat="46.95256" lon="5.96772">
        <ele>708</ele>
        <time>2020-05-24T14:14:21.000Z</time>
      </trkpt>
      <trkpt lat="46.95255" lon="5.96773">
        <ele>708</ele>
        <time>2020-05-24T14:14:23.000Z</time>
      </trkpt>
      <trkpt lat="46.95253" lon="5.96775">
        <ele>708</ele>
        <time>2020-05-24T14:14:26.000Z</time>
      </trkpt>
      <trkpt lat="46.95251" lon="5.96775">
        <ele>708</ele>
        <time>2020-05-24T14:14:28.000Z</time>
      </trkpt>
      <trkpt lat="46.95248" lon="5.96777">
        <ele>706.84</ele>
        <time>2020-05-24T14:14:30.000Z</time>
      </trkpt>
      <trkpt lat="46.95246" lon="5.96778">
        <ele>706</ele>
        <time>2020-05-24T14:14:32.000Z</time>
      </trkpt>
      <trkpt lat="46.95244" lon="5.96781">
        <ele>705.68</ele>
        <time>2020-05-24T14:14:34.000Z</time>
      </trkpt>
      <trkpt lat="46.95243" lon="5.96783">
        <ele>703.10077296316</ele>
        <time>2020-05-24T14:14:36.000Z</time>
      </trkpt>
      <trkpt lat="46.95242" lon="5.96783">
        <ele>703</ele>
        <time>2020-05-24T14:14:38.000Z</time>
      </trkpt>
      <trkpt lat="46.95237" lon="5.96787">
        <ele>701</ele>
        <time>2020-05-24T14:14:44.000Z</time>
      </trkpt>
      <trkpt lat="46.95235" lon="5.96788">
        <ele>700</ele>
        <time>2020-05-24T14:14:46.000Z</time>
      </trkpt>
      <trkpt lat="46.95232" lon="5.9679">
        <ele>700</ele>
        <time>2020-05-24T14:14:49.000Z</time>
      </trkpt>
      <trkpt lat="46.95223" lon="5.96792">
        <ele>697</ele>
        <time>2020-05-24T14:14:58.000Z</time>
      </trkpt>
      <trkpt lat="46.95221" lon="5.96794">
        <ele>697</ele>
        <time>2020-05-24T14:15:00.000Z</time>
      </trkpt>
      <trkpt lat="46.95219" lon="5.96797">
        <ele>696.875</ele>
        <time>2020-05-24T14:15:02.000Z</time>
      </trkpt>
      <trkpt lat="46.95217" lon="5.968">
        <ele>695</ele>
        <time>2020-05-24T14:15:04.000Z</time>
      </trkpt>
      <trkpt lat="46.95216" lon="5.96802">
        <ele>694.84313823913</ele>
        <time>2020-05-24T14:15:06.000Z</time>
      </trkpt>
      <trkpt lat="46.95214" lon="5.96805">
        <ele>694</ele>
        <time>2020-05-24T14:15:08.000Z</time>
      </trkpt>
      <trkpt lat="46.95213" lon="5.96807">
        <ele>693.116672</ele>
        <time>2020-05-24T14:15:10.000Z</time>
      </trkpt>
      <trkpt lat="46.95212" lon="5.96809">
        <ele>692.84</ele>
        <time>2020-05-24T14:15:12.000Z</time>
      </trkpt>
      <trkpt lat="46.9521" lon="5.96812">
        <ele>690.85840667867</ele>
        <time>2020-05-24T14:15:15.000Z</time>
      </trkpt>
      <trkpt lat="46.95209" lon="5.96814">
        <ele>690</ele>
        <time>2020-05-24T14:15:17.000Z</time>
      </trkpt>
      <trkpt lat="46.95207" lon="5.96816">
        <ele>689.875</ele>
        <time>2020-05-24T14:15:19.000Z</time>
      </trkpt>
      <trkpt lat="46.95206" lon="5.96819">
        <ele>689</ele>
        <time>2020-05-24T14:15:21.000Z</time>
      </trkpt>
      <trkpt lat="46.95205" lon="5.96822">
        <ele>689</ele>
        <time>2020-05-24T14:15:23.000Z</time>
      </trkpt>
      <trkpt lat="46.95206" lon="5.96827">
        <ele>688</ele>
        <time>2020-05-24T14:15:25.000Z</time>
      </trkpt>
      <trkpt lat="46.95206" lon="5.96831">
        <ele>688</ele>
        <time>2020-05-24T14:15:27.000Z</time>
      </trkpt>
      <trkpt lat="46.95206" lon="5.96835">
        <ele>688</ele>
        <time>2020-05-24T14:15:30.000Z</time>
      </trkpt>
      <trkpt lat="46.95206" lon="5.96839">
        <ele>688</ele>
        <time>2020-05-24T14:15:32.000Z</time>
      </trkpt>
      <trkpt lat="46.95207" lon="5.96843">
        <ele>688</ele>
        <time>2020-05-24T14:15:34.000Z</time>
      </trkpt>
      <trkpt lat="46.95208" lon="5.96846">
        <ele>687.84848210592</ele>
        <time>2020-05-24T14:15:35.000Z</time>
      </trkpt>
      <trkpt lat="46.95211" lon="5.96854">
        <ele>687</ele>
        <time>2020-05-24T14:15:40.000Z</time>
      </trkpt>
      <trkpt lat="46.95212" lon="5.96857">
        <ele>687</ele>
        <time>2020-05-24T14:15:45.000Z</time>
      </trkpt>
      <trkpt lat="46.95214" lon="5.96858">
        <ele>687</ele>
        <time>2020-05-24T14:15:49.000Z</time>
      </trkpt>
      <trkpt lat="46.95216" lon="5.96858">
        <ele>687</ele>
        <time>2020-05-24T14:15:51.000Z</time>
      </trkpt>
      <trkpt lat="46.95218" lon="5.96858">
        <ele>687</ele>
        <time>2020-05-24T14:15:53.000Z</time>
      </trkpt>
      <trkpt lat="46.95221" lon="5.96859">
        <ele>687</ele>
        <time>2020-05-24T14:15:55.000Z</time>
      </trkpt>
      <trkpt lat="46.95223" lon="5.9686">
        <ele>687</ele>
        <time>2020-05-24T14:15:56.000Z</time>
      </trkpt>
      <trkpt lat="46.95226" lon="5.96859">
        <ele>688.16</ele>
        <time>2020-05-24T14:15:58.000Z</time>
      </trkpt>
      <trkpt lat="46.95229" lon="5.96861">
        <ele>689.09016608438</ele>
        <time>2020-05-24T14:16:00.000Z</time>
      </trkpt>
      <trkpt lat="46.95231" lon="5.96862">
        <ele>690</ele>
        <time>2020-05-24T14:16:02.000Z</time>
      </trkpt>
      <trkpt lat="46.95232" lon="5.96864">
        <ele>690</ele>
        <time>2020-05-24T14:16:03.000Z</time>
      </trkpt>
      <trkpt lat="46.95235" lon="5.96866">
        <ele>690</ele>
        <time>2020-05-24T14:16:05.000Z</time>
      </trkpt>
      <trkpt lat="46.95237" lon="5.96869">
        <ele>689</ele>
        <time>2020-05-24T14:16:08.000Z</time>
      </trkpt>
      <trkpt lat="46.95238" lon="5.96872">
        <ele>689</ele>
        <time>2020-05-24T14:16:10.000Z</time>
      </trkpt>
      <trkpt lat="46.95246" lon="5.96877">
        <ele>690</ele>
        <time>2020-05-24T14:16:17.000Z</time>
      </trkpt>
      <trkpt lat="46.95248" lon="5.96878">
        <ele>690</ele>
        <time>2020-05-24T14:16:20.000Z</time>
      </trkpt>
      <trkpt lat="46.95252" lon="5.96882">
        <ele>690</ele>
        <time>2020-05-24T14:16:24.000Z</time>
      </trkpt>
      <trkpt lat="46.95255" lon="5.96884">
        <ele>690</ele>
        <time>2020-05-24T14:16:26.000Z</time>
      </trkpt>
      <trkpt lat="46.95257" lon="5.96886">
        <ele>690</ele>
        <time>2020-05-24T14:16:28.000Z</time>
      </trkpt>
      <trkpt lat="46.95259" lon="5.96887">
        <ele>690</ele>
        <time>2020-05-24T14:16:30.000Z</time>
      </trkpt>
      <trkpt lat="46.9526" lon="5.96889">
        <ele>690</ele>
        <time>2020-05-24T14:16:32.000Z</time>
      </trkpt>
      <trkpt lat="46.95262" lon="5.96892">
        <ele>690</ele>
        <time>2020-05-24T14:16:34.000Z</time>
      </trkpt>
      <trkpt lat="46.95264" lon="5.96894">
        <ele>690</ele>
        <time>2020-05-24T14:16:36.000Z</time>
      </trkpt>
      <trkpt lat="46.95269" lon="5.969">
        <ele>690</ele>
        <time>2020-05-24T14:16:41.000Z</time>
      </trkpt>
      <trkpt lat="46.95271" lon="5.96903">
        <ele>691</ele>
        <time>2020-05-24T14:16:43.000Z</time>
      </trkpt>
      <trkpt lat="46.95273" lon="5.96907">
        <ele>691</ele>
        <time>2020-05-24T14:16:46.000Z</time>
      </trkpt>
      <trkpt lat="46.95279" lon="5.96917">
        <ele>692</ele>
        <time>2020-05-24T14:16:54.000Z</time>
      </trkpt>
      <trkpt lat="46.95281" lon="5.96926">
        <ele>692</ele>
        <time>2020-05-24T14:16:59.000Z</time>
      </trkpt>
      <trkpt lat="46.95282" lon="5.9693">
        <ele>692</ele>
        <time>2020-05-24T14:17:01.000Z</time>
      </trkpt>
      <trkpt lat="46.95282" lon="5.96932">
        <ele>692</ele>
        <time>2020-05-24T14:17:02.000Z</time>
      </trkpt>
      <trkpt lat="46.95289" lon="5.96943">
        <ele>691.04545454545</ele>
        <time>2020-05-24T14:17:08.000Z</time>
      </trkpt>
      <trkpt lat="46.95291" lon="5.96947">
        <ele>692</ele>
        <time>2020-05-24T14:17:10.000Z</time>
      </trkpt>
      <trkpt lat="46.95297" lon="5.96958">
        <ele>692</ele>
        <time>2020-05-24T14:17:15.000Z</time>
      </trkpt>
      <trkpt lat="46.95304" lon="5.96969">
        <ele>692</ele>
        <time>2020-05-24T14:17:22.000Z</time>
      </trkpt>
      <trkpt lat="46.95307" lon="5.96976">
        <ele>692</ele>
        <time>2020-05-24T14:17:26.000Z</time>
      </trkpt>
      <trkpt lat="46.95311" lon="5.96979">
        <ele>692</ele>
        <time>2020-05-24T14:17:30.000Z</time>
      </trkpt>
      <trkpt lat="46.95313" lon="5.96981">
        <ele>692</ele>
        <time>2020-05-24T14:17:32.000Z</time>
      </trkpt>
      <trkpt lat="46.95315" lon="5.96983">
        <ele>692</ele>
        <time>2020-05-24T14:17:34.000Z</time>
      </trkpt>
      <trkpt lat="46.95317" lon="5.96984">
        <ele>692</ele>
        <time>2020-05-24T14:17:36.000Z</time>
      </trkpt>
      <trkpt lat="46.95318" lon="5.96987">
        <ele>692</ele>
        <time>2020-05-24T14:17:38.000Z</time>
      </trkpt>
      <trkpt lat="46.9532" lon="5.96989">
        <ele>692</ele>
        <time>2020-05-24T14:17:40.000Z</time>
      </trkpt>
      <trkpt lat="46.95322" lon="5.96989">
        <ele>692</ele>
        <time>2020-05-24T14:17:42.000Z</time>
      </trkpt>
      <trkpt lat="46.95324" lon="5.9699">
        <ele>692</ele>
        <time>2020-05-24T14:17:44.000Z</time>
      </trkpt>
      <trkpt lat="46.95326" lon="5.96992">
        <ele>692</ele>
        <time>2020-05-24T14:17:46.000Z</time>
      </trkpt>
      <trkpt lat="46.95328" lon="5.96995">
        <ele>692</ele>
        <time>2020-05-24T14:17:48.000Z</time>
      </trkpt>
      <trkpt lat="46.9533" lon="5.96997">
        <ele>692.14814814815</ele>
        <time>2020-05-24T14:17:50.000Z</time>
      </trkpt>
      <trkpt lat="46.95331" lon="5.97">
        <ele>693</ele>
        <time>2020-05-24T14:17:52.000Z</time>
      </trkpt>
      <trkpt lat="46.95333" lon="5.97002">
        <ele>694</ele>
        <time>2020-05-24T14:17:54.000Z</time>
      </trkpt>
      <trkpt lat="46.95336" lon="5.97004">
        <ele>694</ele>
        <time>2020-05-24T14:17:56.000Z</time>
      </trkpt>
      <trkpt lat="46.95338" lon="5.97008">
        <ele>694</ele>
        <time>2020-05-24T14:17:58.000Z</time>
      </trkpt>
      <trkpt lat="46.9534" lon="5.9701">
        <ele>694</ele>
        <time>2020-05-24T14:18:00.000Z</time>
      </trkpt>
      <trkpt lat="46.95343" lon="5.97013">
        <ele>693</ele>
        <time>2020-05-24T14:18:02.000Z</time>
      </trkpt>
      <trkpt lat="46.95345" lon="5.97016">
        <ele>693</ele>
        <time>2020-05-24T14:18:04.000Z</time>
      </trkpt>
      <trkpt lat="46.95347" lon="5.97018">
        <ele>693.04545454545</ele>
        <time>2020-05-24T14:18:06.000Z</time>
      </trkpt>
      <trkpt lat="46.95349" lon="5.97019">
        <ele>694</ele>
        <time>2020-05-24T14:18:08.000Z</time>
      </trkpt>
      <trkpt lat="46.95351" lon="5.9702">
        <ele>694</ele>
        <time>2020-05-24T14:18:10.000Z</time>
      </trkpt>
      <trkpt lat="46.95353" lon="5.97025">
        <ele>694</ele>
        <time>2020-05-24T14:18:12.000Z</time>
      </trkpt>
      <trkpt lat="46.95354" lon="5.97027">
        <ele>694</ele>
        <time>2020-05-24T14:18:14.000Z</time>
      </trkpt>
      <trkpt lat="46.95356" lon="5.9703">
        <ele>694</ele>
        <time>2020-05-24T14:18:16.000Z</time>
      </trkpt>
      <trkpt lat="46.95359" lon="5.97031">
        <ele>694</ele>
        <time>2020-05-24T14:18:18.000Z</time>
      </trkpt>
      <trkpt lat="46.9536" lon="5.97035">
        <ele>694</ele>
        <time>2020-05-24T14:18:20.000Z</time>
      </trkpt>
      <trkpt lat="46.95362" lon="5.97038">
        <ele>694</ele>
        <time>2020-05-24T14:18:22.000Z</time>
      </trkpt>
      <trkpt lat="46.95363" lon="5.97039">
        <ele>694</ele>
        <time>2020-05-24T14:18:24.000Z</time>
      </trkpt>
      <trkpt lat="46.95365" lon="5.97041">
        <ele>694</ele>
        <time>2020-05-24T14:18:26.000Z</time>
      </trkpt>
      <trkpt lat="46.95367" lon="5.97044">
        <ele>694</ele>
        <time>2020-05-24T14:18:28.000Z</time>
      </trkpt>
      <trkpt lat="46.9537" lon="5.97046">
        <ele>695</ele>
        <time>2020-05-24T14:18:30.000Z</time>
      </trkpt>
      <trkpt lat="46.95372" lon="5.97046">
        <ele>695</ele>
        <time>2020-05-24T14:18:32.000Z</time>
      </trkpt>
      <trkpt lat="46.95374" lon="5.97049">
        <ele>695</ele>
        <time>2020-05-24T14:18:34.000Z</time>
      </trkpt>
      <trkpt lat="46.95376" lon="5.97051">
        <ele>694</ele>
        <time>2020-05-24T14:18:36.000Z</time>
      </trkpt>
      <trkpt lat="46.95378" lon="5.97052">
        <ele>695</ele>
        <time>2020-05-24T14:18:38.000Z</time>
      </trkpt>
      <trkpt lat="46.9538" lon="5.97053">
        <ele>695</ele>
        <time>2020-05-24T14:18:40.000Z</time>
      </trkpt>
      <trkpt lat="46.95382" lon="5.97054">
        <ele>695</ele>
        <time>2020-05-24T14:18:42.000Z</time>
      </trkpt>
      <trkpt lat="46.95384" lon="5.97056">
        <ele>695</ele>
        <time>2020-05-24T14:18:44.000Z</time>
      </trkpt>
      <trkpt lat="46.95386" lon="5.97057">
        <ele>695</ele>
        <time>2020-05-24T14:18:46.000Z</time>
      </trkpt>
      <trkpt lat="46.95388" lon="5.97059">
        <ele>695</ele>
        <time>2020-05-24T14:18:48.000Z</time>
      </trkpt>
      <trkpt lat="46.95391" lon="5.97061">
        <ele>695</ele>
        <time>2020-05-24T14:18:50.000Z</time>
      </trkpt>
      <trkpt lat="46.95393" lon="5.97062">
        <ele>696</ele>
        <time>2020-05-24T14:18:52.000Z</time>
      </trkpt>
      <trkpt lat="46.95395" lon="5.97064">
        <ele>696</ele>
        <time>2020-05-24T14:18:54.000Z</time>
      </trkpt>
      <trkpt lat="46.95398" lon="5.97066">
        <ele>696</ele>
        <time>2020-05-24T14:18:56.000Z</time>
      </trkpt>
      <trkpt lat="46.954" lon="5.97068">
        <ele>696</ele>
        <time>2020-05-24T14:18:58.000Z</time>
      </trkpt>
      <trkpt lat="46.95402" lon="5.9707">
        <ele>696</ele>
        <time>2020-05-24T14:19:00.000Z</time>
      </trkpt>
      <trkpt lat="46.95405" lon="5.97072">
        <ele>696</ele>
        <time>2020-05-24T14:19:02.000Z</time>
      </trkpt>
      <trkpt lat="46.95407" lon="5.97076">
        <ele>696</ele>
        <time>2020-05-24T14:19:04.000Z</time>
      </trkpt>
      <trkpt lat="46.95409" lon="5.97078">
        <ele>696</ele>
        <time>2020-05-24T14:19:06.000Z</time>
      </trkpt>
      <trkpt lat="46.95411" lon="5.97082">
        <ele>697</ele>
        <time>2020-05-24T14:19:08.000Z</time>
      </trkpt>
      <trkpt lat="46.95413" lon="5.97085">
        <ele>697</ele>
        <time>2020-05-24T14:19:10.000Z</time>
      </trkpt>
      <trkpt lat="46.95415" lon="5.97088">
        <ele>697.87902967742</ele>
        <time>2020-05-24T14:19:12.000Z</time>
      </trkpt>
      <trkpt lat="46.95417" lon="5.97091">
        <ele>698</ele>
        <time>2020-05-24T14:19:14.000Z</time>
      </trkpt>
      <trkpt lat="46.95419" lon="5.97093">
        <ele>698</ele>
        <time>2020-05-24T14:19:16.000Z</time>
      </trkpt>
      <trkpt lat="46.95422" lon="5.97095">
        <ele>698</ele>
        <time>2020-05-24T14:19:19.000Z</time>
      </trkpt>
      <trkpt lat="46.95424" lon="5.97094">
        <ele>698</ele>
        <time>2020-05-24T14:19:21.000Z</time>
      </trkpt>
      <trkpt lat="46.95427" lon="5.97094">
        <ele>698</ele>
        <time>2020-05-24T14:19:23.000Z</time>
      </trkpt>
      <trkpt lat="46.9543" lon="5.97094">
        <ele>698</ele>
        <time>2020-05-24T14:19:25.000Z</time>
      </trkpt>
      <trkpt lat="46.95433" lon="5.97096">
        <ele>698</ele>
        <time>2020-05-24T14:19:27.000Z</time>
      </trkpt>
      <trkpt lat="46.95435" lon="5.97097">
        <ele>698</ele>
        <time>2020-05-24T14:19:29.000Z</time>
      </trkpt>
      <trkpt lat="46.95437" lon="5.97099">
        <ele>699</ele>
        <time>2020-05-24T14:19:31.000Z</time>
      </trkpt>
      <trkpt lat="46.95439" lon="5.971">
        <ele>699</ele>
        <time>2020-05-24T14:19:33.000Z</time>
      </trkpt>
      <trkpt lat="46.95441" lon="5.97102">
        <ele>699</ele>
        <time>2020-05-24T14:19:35.000Z</time>
      </trkpt>
      <trkpt lat="46.95444" lon="5.97102">
        <ele>699</ele>
        <time>2020-05-24T14:19:37.000Z</time>
      </trkpt>
      <trkpt lat="46.95446" lon="5.97103">
        <ele>699</ele>
        <time>2020-05-24T14:19:39.000Z</time>
      </trkpt>
      <trkpt lat="46.95448" lon="5.97106">
        <ele>699.16</ele>
        <time>2020-05-24T14:19:41.000Z</time>
      </trkpt>
      <trkpt lat="46.9545" lon="5.97108">
        <ele>700</ele>
        <time>2020-05-24T14:19:43.000Z</time>
      </trkpt>
      <trkpt lat="46.95452" lon="5.9711">
        <ele>700</ele>
        <time>2020-05-24T14:19:45.000Z</time>
      </trkpt>
      <trkpt lat="46.95454" lon="5.97112">
        <ele>700</ele>
        <time>2020-05-24T14:19:47.000Z</time>
      </trkpt>
      <trkpt lat="46.95456" lon="5.97114">
        <ele>700</ele>
        <time>2020-05-24T14:19:49.000Z</time>
      </trkpt>
      <trkpt lat="46.95458" lon="5.97116">
        <ele>700</ele>
        <time>2020-05-24T14:19:51.000Z</time>
      </trkpt>
      <trkpt lat="46.95461" lon="5.97118">
        <ele>700</ele>
        <time>2020-05-24T14:19:53.000Z</time>
      </trkpt>
      <trkpt lat="46.95463" lon="5.9712">
        <ele>700</ele>
        <time>2020-05-24T14:19:55.000Z</time>
      </trkpt>
      <trkpt lat="46.95465" lon="5.97121">
        <ele>700</ele>
        <time>2020-05-24T14:19:57.000Z</time>
      </trkpt>
      <trkpt lat="46.95467" lon="5.97123">
        <ele>700</ele>
        <time>2020-05-24T14:19:59.000Z</time>
      </trkpt>
      <trkpt lat="46.95469" lon="5.97126">
        <ele>701</ele>
        <time>2020-05-24T14:20:01.000Z</time>
      </trkpt>
      <trkpt lat="46.9547" lon="5.97128">
        <ele>701</ele>
        <time>2020-05-24T14:20:03.000Z</time>
      </trkpt>
      <trkpt lat="46.95472" lon="5.97131">
        <ele>701</ele>
        <time>2020-05-24T14:20:05.000Z</time>
      </trkpt>
      <trkpt lat="46.95474" lon="5.97133">
        <ele>701</ele>
        <time>2020-05-24T14:20:07.000Z</time>
      </trkpt>
      <trkpt lat="46.95477" lon="5.97135">
        <ele>701</ele>
        <time>2020-05-24T14:20:09.000Z</time>
      </trkpt>
      <trkpt lat="46.95479" lon="5.97137">
        <ele>701</ele>
        <time>2020-05-24T14:20:11.000Z</time>
      </trkpt>
      <trkpt lat="46.95481" lon="5.97139">
        <ele>701</ele>
        <time>2020-05-24T14:20:13.000Z</time>
      </trkpt>
      <trkpt lat="46.95483" lon="5.97141">
        <ele>702</ele>
        <time>2020-05-24T14:20:15.000Z</time>
      </trkpt>
      <trkpt lat="46.95485" lon="5.97142">
        <ele>702</ele>
        <time>2020-05-24T14:20:17.000Z</time>
      </trkpt>
      <trkpt lat="46.95487" lon="5.97144">
        <ele>702</ele>
        <time>2020-05-24T14:20:19.000Z</time>
      </trkpt>
      <trkpt lat="46.95489" lon="5.97147">
        <ele>702.14285154515</ele>
        <time>2020-05-24T14:20:21.000Z</time>
      </trkpt>
      <trkpt lat="46.9549" lon="5.9715">
        <ele>703</ele>
        <time>2020-05-24T14:20:23.000Z</time>
      </trkpt>
      <trkpt lat="46.95492" lon="5.97152">
        <ele>703</ele>
        <time>2020-05-24T14:20:25.000Z</time>
      </trkpt>
      <trkpt lat="46.95494" lon="5.97154">
        <ele>703</ele>
        <time>2020-05-24T14:20:27.000Z</time>
      </trkpt>
      <trkpt lat="46.95496" lon="5.97156">
        <ele>703</ele>
        <time>2020-05-24T14:20:29.000Z</time>
      </trkpt>
      <trkpt lat="46.95498" lon="5.97158">
        <ele>703</ele>
        <time>2020-05-24T14:20:31.000Z</time>
      </trkpt>
      <trkpt lat="46.955" lon="5.97161">
        <ele>703</ele>
        <time>2020-05-24T14:20:33.000Z</time>
      </trkpt>
      <trkpt lat="46.95502" lon="5.97163">
        <ele>703</ele>
        <time>2020-05-24T14:20:35.000Z</time>
      </trkpt>
      <trkpt lat="46.95504" lon="5.97165">
        <ele>703</ele>
        <time>2020-05-24T14:20:37.000Z</time>
      </trkpt>
      <trkpt lat="46.95506" lon="5.97167">
        <ele>703</ele>
        <time>2020-05-24T14:20:39.000Z</time>
      </trkpt>
      <trkpt lat="46.95508" lon="5.97168">
        <ele>704</ele>
        <time>2020-05-24T14:20:41.000Z</time>
      </trkpt>
      <trkpt lat="46.9551" lon="5.9717">
        <ele>704</ele>
        <time>2020-05-24T14:20:43.000Z</time>
      </trkpt>
      <trkpt lat="46.95512" lon="5.97172">
        <ele>704</ele>
        <time>2020-05-24T14:20:45.000Z</time>
      </trkpt>
      <trkpt lat="46.95514" lon="5.97174">
        <ele>704</ele>
        <time>2020-05-24T14:20:47.000Z</time>
      </trkpt>
      <trkpt lat="46.95517" lon="5.97176">
        <ele>704</ele>
        <time>2020-05-24T14:20:49.000Z</time>
      </trkpt>
      <trkpt lat="46.95519" lon="5.97178">
        <ele>704</ele>
        <time>2020-05-24T14:20:51.000Z</time>
      </trkpt>
      <trkpt lat="46.95521" lon="5.97181">
        <ele>704</ele>
        <time>2020-05-24T14:20:53.000Z</time>
      </trkpt>
      <trkpt lat="46.95523" lon="5.97185">
        <ele>705</ele>
        <time>2020-05-24T14:20:55.000Z</time>
      </trkpt>
      <trkpt lat="46.95525" lon="5.97187">
        <ele>705</ele>
        <time>2020-05-24T14:20:57.000Z</time>
      </trkpt>
      <trkpt lat="46.95527" lon="5.9719">
        <ele>705</ele>
        <time>2020-05-24T14:20:59.000Z</time>
      </trkpt>
      <trkpt lat="46.95529" lon="5.97191">
        <ele>705</ele>
        <time>2020-05-24T14:21:01.000Z</time>
      </trkpt>
      <trkpt lat="46.95531" lon="5.97193">
        <ele>705</ele>
        <time>2020-05-24T14:21:03.000Z</time>
      </trkpt>
      <trkpt lat="46.95533" lon="5.97195">
        <ele>705</ele>
        <time>2020-05-24T14:21:05.000Z</time>
      </trkpt>
      <trkpt lat="46.95535" lon="5.97197">
        <ele>705</ele>
        <time>2020-05-24T14:21:07.000Z</time>
      </trkpt>
      <trkpt lat="46.95537" lon="5.97199">
        <ele>705</ele>
        <time>2020-05-24T14:21:09.000Z</time>
      </trkpt>
      <trkpt lat="46.95539" lon="5.97202">
        <ele>705</ele>
        <time>2020-05-24T14:21:11.000Z</time>
      </trkpt>
      <trkpt lat="46.95541" lon="5.97203">
        <ele>705</ele>
        <time>2020-05-24T14:21:13.000Z</time>
      </trkpt>
      <trkpt lat="46.95544" lon="5.97205">
        <ele>705</ele>
        <time>2020-05-24T14:21:15.000Z</time>
      </trkpt>
      <trkpt lat="46.95546" lon="5.97207">
        <ele>705.14678942177</ele>
        <time>2020-05-24T14:21:17.000Z</time>
      </trkpt>
      <trkpt lat="46.95548" lon="5.97209">
        <ele>706</ele>
        <time>2020-05-24T14:21:19.000Z</time>
      </trkpt>
      <trkpt lat="46.95551" lon="5.97212">
        <ele>706</ele>
        <time>2020-05-24T14:21:21.000Z</time>
      </trkpt>
      <trkpt lat="46.95553" lon="5.97213">
        <ele>706</ele>
        <time>2020-05-24T14:21:23.000Z</time>
      </trkpt>
      <trkpt lat="46.95556" lon="5.97215">
        <ele>706</ele>
        <time>2020-05-24T14:21:25.000Z</time>
      </trkpt>
      <trkpt lat="46.95559" lon="5.97217">
        <ele>706</ele>
        <time>2020-05-24T14:21:27.000Z</time>
      </trkpt>
      <trkpt lat="46.95561" lon="5.97218">
        <ele>706</ele>
        <time>2020-05-24T14:21:29.000Z</time>
      </trkpt>
      <trkpt lat="46.95564" lon="5.97219">
        <ele>706</ele>
        <time>2020-05-24T14:21:31.000Z</time>
      </trkpt>
      <trkpt lat="46.95566" lon="5.97222">
        <ele>706</ele>
        <time>2020-05-24T14:21:33.000Z</time>
      </trkpt>
      <trkpt lat="46.95568" lon="5.97224">
        <ele>706</ele>
        <time>2020-05-24T14:21:35.000Z</time>
      </trkpt>
      <trkpt lat="46.95569" lon="5.97227">
        <ele>706</ele>
        <time>2020-05-24T14:21:37.000Z</time>
      </trkpt>
      <trkpt lat="46.95571" lon="5.9723">
        <ele>707</ele>
        <time>2020-05-24T14:21:39.000Z</time>
      </trkpt>
      <trkpt lat="46.95573" lon="5.97232">
        <ele>707</ele>
        <time>2020-05-24T14:21:41.000Z</time>
      </trkpt>
      <trkpt lat="46.95575" lon="5.97235">
        <ele>707</ele>
        <time>2020-05-24T14:21:43.000Z</time>
      </trkpt>
      <trkpt lat="46.95577" lon="5.97237">
        <ele>707</ele>
        <time>2020-05-24T14:21:45.000Z</time>
      </trkpt>
      <trkpt lat="46.95579" lon="5.9724">
        <ele>707</ele>
        <time>2020-05-24T14:21:47.000Z</time>
      </trkpt>
      <trkpt lat="46.95581" lon="5.97243">
        <ele>707</ele>
        <time>2020-05-24T14:21:49.000Z</time>
      </trkpt>
      <trkpt lat="46.95583" lon="5.97245">
        <ele>706.94958480337</ele>
        <time>2020-05-24T14:21:51.000Z</time>
      </trkpt>
      <trkpt lat="46.95584" lon="5.97248">
        <ele>706</ele>
        <time>2020-05-24T14:21:53.000Z</time>
      </trkpt>
      <trkpt lat="46.95586" lon="5.9725">
        <ele>706</ele>
        <time>2020-05-24T14:21:55.000Z</time>
      </trkpt>
      <trkpt lat="46.95587" lon="5.97253">
        <ele>706</ele>
        <time>2020-05-24T14:21:57.000Z</time>
      </trkpt>
      <trkpt lat="46.95588" lon="5.97256">
        <ele>706</ele>
        <time>2020-05-24T14:21:59.000Z</time>
      </trkpt>
      <trkpt lat="46.95588" lon="5.97259">
        <ele>707</ele>
        <time>2020-05-24T14:22:02.000Z</time>
      </trkpt>
      <trkpt lat="46.95589" lon="5.97262">
        <ele>707</ele>
        <time>2020-05-24T14:22:04.000Z</time>
      </trkpt>
      <trkpt lat="46.95589" lon="5.97265">
        <ele>707</ele>
        <time>2020-05-24T14:22:07.000Z</time>
      </trkpt>
      <trkpt lat="46.95588" lon="5.97268">
        <ele>707</ele>
        <time>2020-05-24T14:22:11.000Z</time>
      </trkpt>
      <trkpt lat="46.95586" lon="5.9727">
        <ele>706.8415836565</ele>
        <time>2020-05-24T14:22:13.000Z</time>
      </trkpt>
      <trkpt lat="46.95583" lon="5.97272">
        <ele>706</ele>
        <time>2020-05-24T14:22:15.000Z</time>
      </trkpt>
      <trkpt lat="46.95582" lon="5.97274">
        <ele>706</ele>
        <time>2020-05-24T14:22:17.000Z</time>
      </trkpt>
      <trkpt lat="46.9558" lon="5.97276">
        <ele>706</ele>
        <time>2020-05-24T14:22:19.000Z</time>
      </trkpt>
      <trkpt lat="46.95578" lon="5.97279">
        <ele>705</ele>
        <time>2020-05-24T14:22:21.000Z</time>
      </trkpt>
      <trkpt lat="46.95577" lon="5.97283">
        <ele>705</ele>
        <time>2020-05-24T14:22:23.000Z</time>
      </trkpt>
      <trkpt lat="46.95575" lon="5.97286">
        <ele>705</ele>
        <time>2020-05-24T14:22:25.000Z</time>
      </trkpt>
      <trkpt lat="46.95573" lon="5.97288">
        <ele>705</ele>
        <time>2020-05-24T14:22:27.000Z</time>
      </trkpt>
      <trkpt lat="46.95571" lon="5.97291">
        <ele>705</ele>
        <time>2020-05-24T14:22:29.000Z</time>
      </trkpt>
      <trkpt lat="46.95569" lon="5.97294">
        <ele>705</ele>
        <time>2020-05-24T14:22:31.000Z</time>
      </trkpt>
      <trkpt lat="46.95567" lon="5.97297">
        <ele>705</ele>
        <time>2020-05-24T14:22:33.000Z</time>
      </trkpt>
      <trkpt lat="46.95565" lon="5.973">
        <ele>705</ele>
        <time>2020-05-24T14:22:35.000Z</time>
      </trkpt>
      <trkpt lat="46.95564" lon="5.97303">
        <ele>705</ele>
        <time>2020-05-24T14:22:37.000Z</time>
      </trkpt>
      <trkpt lat="46.95562" lon="5.97307">
        <ele>705</ele>
        <time>2020-05-24T14:22:39.000Z</time>
      </trkpt>
      <trkpt lat="46.9556" lon="5.97309">
        <ele>705</ele>
        <time>2020-05-24T14:22:41.000Z</time>
      </trkpt>
      <trkpt lat="46.95558" lon="5.97313">
        <ele>705</ele>
        <time>2020-05-24T14:22:43.000Z</time>
      </trkpt>
      <trkpt lat="46.95557" lon="5.97316">
        <ele>705</ele>
        <time>2020-05-24T14:22:45.000Z</time>
      </trkpt>
      <trkpt lat="46.95555" lon="5.97319">
        <ele>705</ele>
        <time>2020-05-24T14:22:47.000Z</time>
      </trkpt>
      <trkpt lat="46.95553" lon="5.97322">
        <ele>705</ele>
        <time>2020-05-24T14:22:49.000Z</time>
      </trkpt>
      <trkpt lat="46.95551" lon="5.97324">
        <ele>705</ele>
        <time>2020-05-24T14:22:51.000Z</time>
      </trkpt>
      <trkpt lat="46.95549" lon="5.97328">
        <ele>704.84</ele>
        <time>2020-05-24T14:22:53.000Z</time>
      </trkpt>
      <trkpt lat="46.95547" lon="5.97331">
        <ele>704</ele>
        <time>2020-05-24T14:22:55.000Z</time>
      </trkpt>
      <trkpt lat="46.95545" lon="5.97334">
        <ele>704</ele>
        <time>2020-05-24T14:22:57.000Z</time>
      </trkpt>
      <trkpt lat="46.95542" lon="5.97336">
        <ele>704</ele>
        <time>2020-05-24T14:22:59.000Z</time>
      </trkpt>
      <trkpt lat="46.9554" lon="5.97339">
        <ele>704.14171853565</ele>
        <time>2020-05-24T14:23:01.000Z</time>
      </trkpt>
      <trkpt lat="46.95538" lon="5.97341">
        <ele>705</ele>
        <time>2020-05-24T14:23:03.000Z</time>
      </trkpt>
      <trkpt lat="46.95536" lon="5.97343">
        <ele>705</ele>
        <time>2020-05-24T14:23:05.000Z</time>
      </trkpt>
      <trkpt lat="46.95533" lon="5.97344">
        <ele>705</ele>
        <time>2020-05-24T14:23:07.000Z</time>
      </trkpt>
      <trkpt lat="46.95531" lon="5.97346">
        <ele>705</ele>
        <time>2020-05-24T14:23:09.000Z</time>
      </trkpt>
      <trkpt lat="46.95529" lon="5.97347">
        <ele>705</ele>
        <time>2020-05-24T14:23:11.000Z</time>
      </trkpt>
      <trkpt lat="46.95526" lon="5.97348">
        <ele>706</ele>
        <time>2020-05-24T14:23:13.000Z</time>
      </trkpt>
      <trkpt lat="46.95523" lon="5.97349">
        <ele>706</ele>
        <time>2020-05-24T14:23:15.000Z</time>
      </trkpt>
      <trkpt lat="46.9552" lon="5.9735">
        <ele>705.10638906288</ele>
        <time>2020-05-24T14:23:17.000Z</time>
      </trkpt>
      <trkpt lat="46.95518" lon="5.97352">
        <ele>706</ele>
        <time>2020-05-24T14:23:19.000Z</time>
      </trkpt>
      <trkpt lat="46.95516" lon="5.97353">
        <ele>707</ele>
        <time>2020-05-24T14:23:21.000Z</time>
      </trkpt>
      <trkpt lat="46.95514" lon="5.97354">
        <ele>707.125</ele>
        <time>2020-05-24T14:23:23.000Z</time>
      </trkpt>
      <trkpt lat="46.95512" lon="5.97356">
        <ele>708</ele>
        <time>2020-05-24T14:23:25.000Z</time>
      </trkpt>
      <trkpt lat="46.9551" lon="5.97357">
        <ele>707.93333997042</ele>
        <time>2020-05-24T14:23:27.000Z</time>
      </trkpt>
      <trkpt lat="46.95508" lon="5.97358">
        <ele>707</ele>
        <time>2020-05-24T14:23:29.000Z</time>
      </trkpt>
      <trkpt lat="46.95505" lon="5.97359">
        <ele>708</ele>
        <time>2020-05-24T14:23:31.000Z</time>
      </trkpt>
      <trkpt lat="46.95503" lon="5.9736">
        <ele>708</ele>
        <time>2020-05-24T14:23:33.000Z</time>
      </trkpt>
      <trkpt lat="46.95501" lon="5.97361">
        <ele>707</ele>
        <time>2020-05-24T14:23:35.000Z</time>
      </trkpt>
      <trkpt lat="46.95498" lon="5.97361">
        <ele>707</ele>
        <time>2020-05-24T14:23:37.000Z</time>
      </trkpt>
      <trkpt lat="46.95496" lon="5.97363">
        <ele>707</ele>
        <time>2020-05-24T14:23:39.000Z</time>
      </trkpt>
      <trkpt lat="46.95494" lon="5.97364">
        <ele>707.0769263229</ele>
        <time>2020-05-24T14:23:41.000Z</time>
      </trkpt>
      <trkpt lat="46.95492" lon="5.97366">
        <ele>708</ele>
        <time>2020-05-24T14:23:43.000Z</time>
      </trkpt>
      <trkpt lat="46.95491" lon="5.97367">
        <ele>708</ele>
        <time>2020-05-24T14:23:45.000Z</time>
      </trkpt>
      <trkpt lat="46.95489" lon="5.97368">
        <ele>709</ele>
        <time>2020-05-24T14:23:47.000Z</time>
      </trkpt>
      <trkpt lat="46.95487" lon="5.97369">
        <ele>709</ele>
        <time>2020-05-24T14:23:51.000Z</time>
      </trkpt>
      <trkpt lat="46.95485" lon="5.97371">
        <ele>710</ele>
        <time>2020-05-24T14:23:53.000Z</time>
      </trkpt>
      <trkpt lat="46.95483" lon="5.97373">
        <ele>710</ele>
        <time>2020-05-24T14:23:55.000Z</time>
      </trkpt>
      <trkpt lat="46.9548" lon="5.97376">
        <ele>710</ele>
        <time>2020-05-24T14:23:57.000Z</time>
      </trkpt>
      <trkpt lat="46.95477" lon="5.97378">
        <ele>710</ele>
        <time>2020-05-24T14:23:59.000Z</time>
      </trkpt>
      <trkpt lat="46.95475" lon="5.9738">
        <ele>710</ele>
        <time>2020-05-24T14:24:01.000Z</time>
      </trkpt>
      <trkpt lat="46.95473" lon="5.97381">
        <ele>710</ele>
        <time>2020-05-24T14:24:02.000Z</time>
      </trkpt>
      <trkpt lat="46.95471" lon="5.97383">
        <ele>711</ele>
        <time>2020-05-24T14:24:04.000Z</time>
      </trkpt>
      <trkpt lat="46.9547" lon="5.97385">
        <ele>711</ele>
        <time>2020-05-24T14:24:06.000Z</time>
      </trkpt>
      <trkpt lat="46.95468" lon="5.97387">
        <ele>711</ele>
        <time>2020-05-24T14:24:08.000Z</time>
      </trkpt>
      <trkpt lat="46.95467" lon="5.97391">
        <ele>711</ele>
        <time>2020-05-24T14:24:12.000Z</time>
      </trkpt>
      <trkpt lat="46.95465" lon="5.97394">
        <ele>711</ele>
        <time>2020-05-24T14:24:14.000Z</time>
      </trkpt>
      <trkpt lat="46.95464" lon="5.97397">
        <ele>711</ele>
        <time>2020-05-24T14:24:16.000Z</time>
      </trkpt>
      <trkpt lat="46.95462" lon="5.974">
        <ele>711</ele>
        <time>2020-05-24T14:24:18.000Z</time>
      </trkpt>
      <trkpt lat="46.95461" lon="5.97403">
        <ele>711</ele>
        <time>2020-05-24T14:24:20.000Z</time>
      </trkpt>
      <trkpt lat="46.95459" lon="5.97406">
        <ele>711</ele>
        <time>2020-05-24T14:24:22.000Z</time>
      </trkpt>
      <trkpt lat="46.95458" lon="5.97413">
        <ele>711</ele>
        <time>2020-05-24T14:24:25.000Z</time>
      </trkpt>
      <trkpt lat="46.95457" lon="5.97416">
        <ele>711</ele>
        <time>2020-05-24T14:24:26.000Z</time>
      </trkpt>
      <trkpt lat="46.95455" lon="5.9742">
        <ele>711</ele>
        <time>2020-05-24T14:24:28.000Z</time>
      </trkpt>
      <trkpt lat="46.95454" lon="5.97422">
        <ele>711</ele>
        <time>2020-05-24T14:24:29.000Z</time>
      </trkpt>
      <trkpt lat="46.95453" lon="5.97427">
        <ele>711</ele>
        <time>2020-05-24T14:24:31.000Z</time>
      </trkpt>
      <trkpt lat="46.95454" lon="5.97431">
        <ele>711</ele>
        <time>2020-05-24T14:24:33.000Z</time>
      </trkpt>
      <trkpt lat="46.95453" lon="5.97433">
        <ele>711</ele>
        <time>2020-05-24T14:24:35.000Z</time>
      </trkpt>
      <trkpt lat="46.95452" lon="5.97437">
        <ele>711</ele>
        <time>2020-05-24T14:24:37.000Z</time>
      </trkpt>
      <trkpt lat="46.95451" lon="5.9744">
        <ele>711</ele>
        <time>2020-05-24T14:24:39.000Z</time>
      </trkpt>
      <trkpt lat="46.9545" lon="5.97444">
        <ele>711</ele>
        <time>2020-05-24T14:24:41.000Z</time>
      </trkpt>
      <trkpt lat="46.9545" lon="5.97448">
        <ele>711</ele>
        <time>2020-05-24T14:24:43.000Z</time>
      </trkpt>
      <trkpt lat="46.95449" lon="5.97451">
        <ele>712</ele>
        <time>2020-05-24T14:24:45.000Z</time>
      </trkpt>
      <trkpt lat="46.95449" lon="5.97454">
        <ele>712</ele>
        <time>2020-05-24T14:24:47.000Z</time>
      </trkpt>
      <trkpt lat="46.95448" lon="5.97458">
        <ele>712</ele>
        <time>2020-05-24T14:24:49.000Z</time>
      </trkpt>
      <trkpt lat="46.95448" lon="5.97461">
        <ele>712</ele>
        <time>2020-05-24T14:24:51.000Z</time>
      </trkpt>
      <trkpt lat="46.95447" lon="5.97464">
        <ele>712</ele>
        <time>2020-05-24T14:24:53.000Z</time>
      </trkpt>
      <trkpt lat="46.95447" lon="5.97467">
        <ele>712</ele>
        <time>2020-05-24T14:24:55.000Z</time>
      </trkpt>
      <trkpt lat="46.95447" lon="5.97471">
        <ele>712</ele>
        <time>2020-05-24T14:24:57.000Z</time>
      </trkpt>
      <trkpt lat="46.95447" lon="5.97475">
        <ele>712</ele>
        <time>2020-05-24T14:24:59.000Z</time>
      </trkpt>
      <trkpt lat="46.95447" lon="5.97478">
        <ele>712</ele>
        <time>2020-05-24T14:25:01.000Z</time>
      </trkpt>
      <trkpt lat="46.95448" lon="5.97482">
        <ele>712</ele>
        <time>2020-05-24T14:25:03.000Z</time>
      </trkpt>
      <trkpt lat="46.95448" lon="5.97486">
        <ele>712</ele>
        <time>2020-05-24T14:25:05.000Z</time>
      </trkpt>
      <trkpt lat="46.95448" lon="5.9749">
        <ele>712</ele>
        <time>2020-05-24T14:25:07.000Z</time>
      </trkpt>
      <trkpt lat="46.95449" lon="5.97494">
        <ele>712</ele>
        <time>2020-05-24T14:25:09.000Z</time>
      </trkpt>
      <trkpt lat="46.95449" lon="5.97498">
        <ele>712</ele>
        <time>2020-05-24T14:25:11.000Z</time>
      </trkpt>
      <trkpt lat="46.9545" lon="5.97502">
        <ele>712</ele>
        <time>2020-05-24T14:25:13.000Z</time>
      </trkpt>
      <trkpt lat="46.95451" lon="5.97506">
        <ele>712</ele>
        <time>2020-05-24T14:25:15.000Z</time>
      </trkpt>
      <trkpt lat="46.95452" lon="5.97509">
        <ele>712</ele>
        <time>2020-05-24T14:25:17.000Z</time>
      </trkpt>
      <trkpt lat="46.95452" lon="5.97512">
        <ele>712</ele>
        <time>2020-05-24T14:25:19.000Z</time>
      </trkpt>
      <trkpt lat="46.95453" lon="5.97515">
        <ele>712</ele>
        <time>2020-05-24T14:25:21.000Z</time>
      </trkpt>
      <trkpt lat="46.95454" lon="5.97519">
        <ele>712</ele>
        <time>2020-05-24T14:25:23.000Z</time>
      </trkpt>
      <trkpt lat="46.95455" lon="5.97523">
        <ele>712</ele>
        <time>2020-05-24T14:25:25.000Z</time>
      </trkpt>
      <trkpt lat="46.95456" lon="5.97527">
        <ele>712</ele>
        <time>2020-05-24T14:25:27.000Z</time>
      </trkpt>
      <trkpt lat="46.95457" lon="5.9753">
        <ele>712</ele>
        <time>2020-05-24T14:25:29.000Z</time>
      </trkpt>
      <trkpt lat="46.95458" lon="5.97534">
        <ele>712</ele>
        <time>2020-05-24T14:25:31.000Z</time>
      </trkpt>
      <trkpt lat="46.95459" lon="5.97538">
        <ele>712</ele>
        <time>2020-05-24T14:25:33.000Z</time>
      </trkpt>
      <trkpt lat="46.9546" lon="5.97541">
        <ele>712</ele>
        <time>2020-05-24T14:25:35.000Z</time>
      </trkpt>
      <trkpt lat="46.95462" lon="5.97544">
        <ele>712</ele>
        <time>2020-05-24T14:25:37.000Z</time>
      </trkpt>
      <trkpt lat="46.95463" lon="5.97546">
        <ele>712</ele>
        <time>2020-05-24T14:25:39.000Z</time>
      </trkpt>
      <trkpt lat="46.95464" lon="5.97549">
        <ele>712</ele>
        <time>2020-05-24T14:25:41.000Z</time>
      </trkpt>
      <trkpt lat="46.95466" lon="5.97554">
        <ele>711</ele>
        <time>2020-05-24T14:25:43.000Z</time>
      </trkpt>
      <trkpt lat="46.95467" lon="5.97558">
        <ele>711</ele>
        <time>2020-05-24T14:25:45.000Z</time>
      </trkpt>
      <trkpt lat="46.95468" lon="5.97562">
        <ele>711</ele>
        <time>2020-05-24T14:25:47.000Z</time>
      </trkpt>
      <trkpt lat="46.95469" lon="5.97566">
        <ele>711</ele>
        <time>2020-05-24T14:25:49.000Z</time>
      </trkpt>
      <trkpt lat="46.95471" lon="5.97569">
        <ele>711</ele>
        <time>2020-05-24T14:25:51.000Z</time>
      </trkpt>
      <trkpt lat="46.95473" lon="5.97573">
        <ele>710</ele>
        <time>2020-05-24T14:25:53.000Z</time>
      </trkpt>
      <trkpt lat="46.95474" lon="5.97576">
        <ele>710</ele>
        <time>2020-05-24T14:25:55.000Z</time>
      </trkpt>
      <trkpt lat="46.95475" lon="5.97579">
        <ele>710</ele>
        <time>2020-05-24T14:25:57.000Z</time>
      </trkpt>
      <trkpt lat="46.95476" lon="5.97583">
        <ele>710</ele>
        <time>2020-05-24T14:25:59.000Z</time>
      </trkpt>
      <trkpt lat="46.95477" lon="5.97586">
        <ele>710</ele>
        <time>2020-05-24T14:26:01.000Z</time>
      </trkpt>
      <trkpt lat="46.95478" lon="5.97588">
        <ele>710</ele>
        <time>2020-05-24T14:26:03.000Z</time>
      </trkpt>
      <trkpt lat="46.95479" lon="5.97591">
        <ele>710</ele>
        <time>2020-05-24T14:26:05.000Z</time>
      </trkpt>
      <trkpt lat="46.95479" lon="5.97594">
        <ele>710</ele>
        <time>2020-05-24T14:26:07.000Z</time>
      </trkpt>
      <trkpt lat="46.95481" lon="5.97598">
        <ele>709</ele>
        <time>2020-05-24T14:26:09.000Z</time>
      </trkpt>
      <trkpt lat="46.95482" lon="5.97602">
        <ele>709</ele>
        <time>2020-05-24T14:26:11.000Z</time>
      </trkpt>
      <trkpt lat="46.95482" lon="5.97606">
        <ele>708.08410890734</ele>
        <time>2020-05-24T14:26:13.000Z</time>
      </trkpt>
      <trkpt lat="46.95484" lon="5.97609">
        <ele>709</ele>
        <time>2020-05-24T14:26:15.000Z</time>
      </trkpt>
      <trkpt lat="46.95484" lon="5.97612">
        <ele>708.85454460826</ele>
        <time>2020-05-24T14:26:17.000Z</time>
      </trkpt>
      <trkpt lat="46.95486" lon="5.97616">
        <ele>708</ele>
        <time>2020-05-24T14:26:19.000Z</time>
      </trkpt>
      <trkpt lat="46.95487" lon="5.9762">
        <ele>708</ele>
        <time>2020-05-24T14:26:21.000Z</time>
      </trkpt>
      <trkpt lat="46.95489" lon="5.97623">
        <ele>708</ele>
        <time>2020-05-24T14:26:23.000Z</time>
      </trkpt>
      <trkpt lat="46.9549" lon="5.97626">
        <ele>708</ele>
        <time>2020-05-24T14:26:25.000Z</time>
      </trkpt>
      <trkpt lat="46.95491" lon="5.97629">
        <ele>708</ele>
        <time>2020-05-24T14:26:27.000Z</time>
      </trkpt>
      <trkpt lat="46.95492" lon="5.97634">
        <ele>708</ele>
        <time>2020-05-24T14:26:29.000Z</time>
      </trkpt>
      <trkpt lat="46.95493" lon="5.97637">
        <ele>708</ele>
        <time>2020-05-24T14:26:31.000Z</time>
      </trkpt>
      <trkpt lat="46.95494" lon="5.97641">
        <ele>707.88321140604</ele>
        <time>2020-05-24T14:26:33.000Z</time>
      </trkpt>
      <trkpt lat="46.95496" lon="5.97644">
        <ele>707</ele>
        <time>2020-05-24T14:26:35.000Z</time>
      </trkpt>
      <trkpt lat="46.95497" lon="5.97646">
        <ele>707</ele>
        <time>2020-05-24T14:26:36.000Z</time>
      </trkpt>
      <trkpt lat="46.95498" lon="5.97651">
        <ele>707</ele>
        <time>2020-05-24T14:26:38.000Z</time>
      </trkpt>
      <trkpt lat="46.95499" lon="5.97654">
        <ele>707</ele>
        <time>2020-05-24T14:26:40.000Z</time>
      </trkpt>
      <trkpt lat="46.95501" lon="5.97656">
        <ele>707</ele>
        <time>2020-05-24T14:26:42.000Z</time>
      </trkpt>
      <trkpt lat="46.95503" lon="5.97659">
        <ele>707</ele>
        <time>2020-05-24T14:26:44.000Z</time>
      </trkpt>
      <trkpt lat="46.95505" lon="5.97662">
        <ele>706.84761858322</ele>
        <time>2020-05-24T14:26:46.000Z</time>
      </trkpt>
      <trkpt lat="46.95506" lon="5.97665">
        <ele>706</ele>
        <time>2020-05-24T14:26:48.000Z</time>
      </trkpt>
      <trkpt lat="46.95507" lon="5.97669">
        <ele>706</ele>
        <time>2020-05-24T14:26:50.000Z</time>
      </trkpt>
      <trkpt lat="46.95509" lon="5.97672">
        <ele>706</ele>
        <time>2020-05-24T14:26:52.000Z</time>
      </trkpt>
      <trkpt lat="46.9551" lon="5.97675">
        <ele>706</ele>
        <time>2020-05-24T14:26:54.000Z</time>
      </trkpt>
      <trkpt lat="46.95511" lon="5.97679">
        <ele>705.96551369006</ele>
        <time>2020-05-24T14:26:56.000Z</time>
      </trkpt>
      <trkpt lat="46.95512" lon="5.97683">
        <ele>705</ele>
        <time>2020-05-24T14:26:58.000Z</time>
      </trkpt>
      <trkpt lat="46.95513" lon="5.97685">
        <ele>705</ele>
        <time>2020-05-24T14:26:59.000Z</time>
      </trkpt>
      <trkpt lat="46.95515" lon="5.97688">
        <ele>705</ele>
        <time>2020-05-24T14:27:01.000Z</time>
      </trkpt>
      <trkpt lat="46.95516" lon="5.97691">
        <ele>705</ele>
        <time>2020-05-24T14:27:03.000Z</time>
      </trkpt>
      <trkpt lat="46.95517" lon="5.97694">
        <ele>704.93333997042</ele>
        <time>2020-05-24T14:27:05.000Z</time>
      </trkpt>
      <trkpt lat="46.95518" lon="5.97697">
        <ele>703.88118774238</ele>
        <time>2020-05-24T14:27:07.000Z</time>
      </trkpt>
      <trkpt lat="46.95518" lon="5.97701">
        <ele>703</ele>
        <time>2020-05-24T14:27:09.000Z</time>
      </trkpt>
      <trkpt lat="46.95518" lon="5.97704">
        <ele>703</ele>
        <time>2020-05-24T14:27:11.000Z</time>
      </trkpt>
      <trkpt lat="46.95517" lon="5.97708">
        <ele>702.85185185185</ele>
        <time>2020-05-24T14:27:13.000Z</time>
      </trkpt>
      <trkpt lat="46.95516" lon="5.97712">
        <ele>701</ele>
        <time>2020-05-24T14:27:15.000Z</time>
      </trkpt>
      <trkpt lat="46.95515" lon="5.97715">
        <ele>701</ele>
        <time>2020-05-24T14:27:17.000Z</time>
      </trkpt>
      <trkpt lat="46.95514" lon="5.97719">
        <ele>701</ele>
        <time>2020-05-24T14:27:19.000Z</time>
      </trkpt>
      <trkpt lat="46.95512" lon="5.97722">
        <ele>701</ele>
        <time>2020-05-24T14:27:21.000Z</time>
      </trkpt>
      <trkpt lat="46.95511" lon="5.97724">
        <ele>701</ele>
        <time>2020-05-24T14:27:23.000Z</time>
      </trkpt>
      <trkpt lat="46.9551" lon="5.97727">
        <ele>701</ele>
        <time>2020-05-24T14:27:25.000Z</time>
      </trkpt>
      <trkpt lat="46.95507" lon="5.9773">
        <ele>701</ele>
        <time>2020-05-24T14:27:27.000Z</time>
      </trkpt>
      <trkpt lat="46.95506" lon="5.97731">
        <ele>700.14705882353</ele>
        <time>2020-05-24T14:27:29.000Z</time>
      </trkpt>
      <trkpt lat="46.95504" lon="5.97734">
        <ele>700</ele>
        <time>2020-05-24T14:27:32.000Z</time>
      </trkpt>
      <trkpt lat="46.95502" lon="5.97735">
        <ele>700</ele>
        <time>2020-05-24T14:27:34.000Z</time>
      </trkpt>
      <trkpt lat="46.955" lon="5.97738">
        <ele>700</ele>
        <time>2020-05-24T14:27:36.000Z</time>
      </trkpt>
      <trkpt lat="46.95498" lon="5.97741">
        <ele>700</ele>
        <time>2020-05-24T14:27:38.000Z</time>
      </trkpt>
      <trkpt lat="46.95496" lon="5.97744">
        <ele>700</ele>
        <time>2020-05-24T14:27:40.000Z</time>
      </trkpt>
      <trkpt lat="46.95493" lon="5.97745">
        <ele>699</ele>
        <time>2020-05-24T14:27:42.000Z</time>
      </trkpt>
      <trkpt lat="46.95491" lon="5.97748">
        <ele>698.84</ele>
        <time>2020-05-24T14:27:44.000Z</time>
      </trkpt>
      <trkpt lat="46.95488" lon="5.97751">
        <ele>698</ele>
        <time>2020-05-24T14:27:46.000Z</time>
      </trkpt>
      <trkpt lat="46.95487" lon="5.97752">
        <ele>698</ele>
        <time>2020-05-24T14:27:47.000Z</time>
      </trkpt>
      <trkpt lat="46.95484" lon="5.97754">
        <ele>698</ele>
        <time>2020-05-24T14:27:49.000Z</time>
      </trkpt>
      <trkpt lat="46.95482" lon="5.97756">
        <ele>697</ele>
        <time>2020-05-24T14:27:51.000Z</time>
      </trkpt>
      <trkpt lat="46.95479" lon="5.97759">
        <ele>697</ele>
        <time>2020-05-24T14:27:53.000Z</time>
      </trkpt>
      <trkpt lat="46.95478" lon="5.9776">
        <ele>697</ele>
        <time>2020-05-24T14:27:54.000Z</time>
      </trkpt>
      <trkpt lat="46.95475" lon="5.97763">
        <ele>697</ele>
        <time>2020-05-24T14:27:56.000Z</time>
      </trkpt>
      <trkpt lat="46.95474" lon="5.97765">
        <ele>696.8415836565</ele>
        <time>2020-05-24T14:27:58.000Z</time>
      </trkpt>
      <trkpt lat="46.95471" lon="5.97766">
        <ele>696</ele>
        <time>2020-05-24T14:28:00.000Z</time>
      </trkpt>
      <trkpt lat="46.9547" lon="5.97767">
        <ele>696</ele>
        <time>2020-05-24T14:28:01.000Z</time>
      </trkpt>
      <trkpt lat="46.95468" lon="5.97769">
        <ele>696</ele>
        <time>2020-05-24T14:28:03.000Z</time>
      </trkpt>
      <trkpt lat="46.95465" lon="5.9777">
        <ele>696</ele>
        <time>2020-05-24T14:28:05.000Z</time>
      </trkpt>
      <trkpt lat="46.95464" lon="5.97771">
        <ele>696</ele>
        <time>2020-05-24T14:28:07.000Z</time>
      </trkpt>
      <trkpt lat="46.95462" lon="5.97773">
        <ele>696</ele>
        <time>2020-05-24T14:28:09.000Z</time>
      </trkpt>
      <trkpt lat="46.95459" lon="5.97774">
        <ele>695.84</ele>
        <time>2020-05-24T14:28:11.000Z</time>
      </trkpt>
      <trkpt lat="46.95457" lon="5.97775">
        <ele>695</ele>
        <time>2020-05-24T14:28:13.000Z</time>
      </trkpt>
      <trkpt lat="46.95454" lon="5.97776">
        <ele>695</ele>
        <time>2020-05-24T14:28:15.000Z</time>
      </trkpt>
      <trkpt lat="46.9545" lon="5.97777">
        <ele>695</ele>
        <time>2020-05-24T14:28:17.000Z</time>
      </trkpt>
      <trkpt lat="46.95448" lon="5.97777">
        <ele>695</ele>
        <time>2020-05-24T14:28:19.000Z</time>
      </trkpt>
      <trkpt lat="46.95445" lon="5.97778">
        <ele>693.91304347826</ele>
        <time>2020-05-24T14:28:21.000Z</time>
      </trkpt>
      <trkpt lat="46.95442" lon="5.97778">
        <ele>693</ele>
        <time>2020-05-24T14:28:23.000Z</time>
      </trkpt>
      <trkpt lat="46.95439" lon="5.97778">
        <ele>693</ele>
        <time>2020-05-24T14:28:25.000Z</time>
      </trkpt>
      <trkpt lat="46.95436" lon="5.97777">
        <ele>693</ele>
        <time>2020-05-24T14:28:27.000Z</time>
      </trkpt>
      <trkpt lat="46.95434" lon="5.97776">
        <ele>693</ele>
        <time>2020-05-24T14:28:29.000Z</time>
      </trkpt>
      <trkpt lat="46.95431" lon="5.97774">
        <ele>692</ele>
        <time>2020-05-24T14:28:31.000Z</time>
      </trkpt>
      <trkpt lat="46.95428" lon="5.97773">
        <ele>692</ele>
        <time>2020-05-24T14:28:33.000Z</time>
      </trkpt>
      <trkpt lat="46.95425" lon="5.97772">
        <ele>692</ele>
        <time>2020-05-24T14:28:35.000Z</time>
      </trkpt>
      <trkpt lat="46.95423" lon="5.97771">
        <ele>692</ele>
        <time>2020-05-24T14:28:37.000Z</time>
      </trkpt>
      <trkpt lat="46.95421" lon="5.97769">
        <ele>691.85840667867</ele>
        <time>2020-05-24T14:28:39.000Z</time>
      </trkpt>
      <trkpt lat="46.95418" lon="5.97769">
        <ele>691</ele>
        <time>2020-05-24T14:28:41.000Z</time>
      </trkpt>
      <trkpt lat="46.95416" lon="5.97768">
        <ele>691</ele>
        <time>2020-05-24T14:28:43.000Z</time>
      </trkpt>
      <trkpt lat="46.95414" lon="5.97767">
        <ele>691</ele>
        <time>2020-05-24T14:28:46.000Z</time>
      </trkpt>
      <trkpt lat="46.95412" lon="5.97766">
        <ele>690</ele>
        <time>2020-05-24T14:28:48.000Z</time>
      </trkpt>
      <trkpt lat="46.9541" lon="5.97766">
        <ele>690</ele>
        <time>2020-05-24T14:28:50.000Z</time>
      </trkpt>
      <trkpt lat="46.95407" lon="5.97767">
        <ele>690</ele>
        <time>2020-05-24T14:28:52.000Z</time>
      </trkpt>
      <trkpt lat="46.95405" lon="5.97767">
        <ele>689.91304347826</ele>
        <time>2020-05-24T14:28:54.000Z</time>
      </trkpt>
      <trkpt lat="46.95404" lon="5.97769">
        <ele>689</ele>
        <time>2020-05-24T14:28:56.000Z</time>
      </trkpt>
      <trkpt lat="46.95402" lon="5.97773">
        <ele>689</ele>
        <time>2020-05-24T14:28:58.000Z</time>
      </trkpt>
      <trkpt lat="46.954" lon="5.97776">
        <ele>689</ele>
        <time>2020-05-24T14:29:00.000Z</time>
      </trkpt>
      <trkpt lat="46.95398" lon="5.97779">
        <ele>689</ele>
        <time>2020-05-24T14:29:02.000Z</time>
      </trkpt>
      <trkpt lat="46.95397" lon="5.97782">
        <ele>689</ele>
        <time>2020-05-24T14:29:04.000Z</time>
      </trkpt>
      <trkpt lat="46.95396" lon="5.97785">
        <ele>689</ele>
        <time>2020-05-24T14:29:06.000Z</time>
      </trkpt>
      <trkpt lat="46.95395" lon="5.97788">
        <ele>688.68</ele>
        <time>2020-05-24T14:29:08.000Z</time>
      </trkpt>
      <trkpt lat="46.95395" lon="5.97792">
        <ele>686.19444444444</ele>
        <time>2020-05-24T14:29:10.000Z</time>
      </trkpt>
      <trkpt lat="46.95395" lon="5.97794">
        <ele>686</ele>
        <time>2020-05-24T14:29:11.000Z</time>
      </trkpt>
      <trkpt lat="46.95395" lon="5.97798">
        <ele>686</ele>
        <time>2020-05-24T14:29:13.000Z</time>
      </trkpt>
      <trkpt lat="46.95395" lon="5.97802">
        <ele>686</ele>
        <time>2020-05-24T14:29:15.000Z</time>
      </trkpt>
      <trkpt lat="46.95396" lon="5.97807">
        <ele>686</ele>
        <time>2020-05-24T14:29:17.000Z</time>
      </trkpt>
      <trkpt lat="46.95396" lon="5.9781">
        <ele>686</ele>
        <time>2020-05-24T14:29:19.000Z</time>
      </trkpt>
      <trkpt lat="46.95397" lon="5.97814">
        <ele>686</ele>
        <time>2020-05-24T14:29:21.000Z</time>
      </trkpt>
      <trkpt lat="46.95398" lon="5.97817">
        <ele>686</ele>
        <time>2020-05-24T14:29:23.000Z</time>
      </trkpt>
      <trkpt lat="46.95399" lon="5.97821">
        <ele>686</ele>
        <time>2020-05-24T14:29:25.000Z</time>
      </trkpt>
      <trkpt lat="46.95399" lon="5.97825">
        <ele>686</ele>
        <time>2020-05-24T14:29:27.000Z</time>
      </trkpt>
      <trkpt lat="46.954" lon="5.97828">
        <ele>686</ele>
        <time>2020-05-24T14:29:29.000Z</time>
      </trkpt>
      <trkpt lat="46.95401" lon="5.97832">
        <ele>686</ele>
        <time>2020-05-24T14:29:31.000Z</time>
      </trkpt>
      <trkpt lat="46.95403" lon="5.97835">
        <ele>686</ele>
        <time>2020-05-24T14:29:33.000Z</time>
      </trkpt>
      <trkpt lat="46.95404" lon="5.97838">
        <ele>686</ele>
        <time>2020-05-24T14:29:35.000Z</time>
      </trkpt>
      <trkpt lat="46.95405" lon="5.97841">
        <ele>686</ele>
        <time>2020-05-24T14:29:37.000Z</time>
      </trkpt>
      <trkpt lat="46.95406" lon="5.97844">
        <ele>685.84</ele>
        <time>2020-05-24T14:29:39.000Z</time>
      </trkpt>
      <trkpt lat="46.95407" lon="5.97848">
        <ele>685</ele>
        <time>2020-05-24T14:29:41.000Z</time>
      </trkpt>
      <trkpt lat="46.95408" lon="5.97851">
        <ele>685</ele>
        <time>2020-05-24T14:29:43.000Z</time>
      </trkpt>
      <trkpt lat="46.9541" lon="5.97854">
        <ele>685</ele>
        <time>2020-05-24T14:29:45.000Z</time>
      </trkpt>
      <trkpt lat="46.95411" lon="5.97856">
        <ele>685</ele>
        <time>2020-05-24T14:29:47.000Z</time>
      </trkpt>
      <trkpt lat="46.95412" lon="5.97859">
        <ele>685</ele>
        <time>2020-05-24T14:29:49.000Z</time>
      </trkpt>
      <trkpt lat="46.95413" lon="5.97863">
        <ele>685</ele>
        <time>2020-05-24T14:29:51.000Z</time>
      </trkpt>
      <trkpt lat="46.95415" lon="5.97866">
        <ele>685</ele>
        <time>2020-05-24T14:29:53.000Z</time>
      </trkpt>
      <trkpt lat="46.95416" lon="5.97869">
        <ele>685</ele>
        <time>2020-05-24T14:29:55.000Z</time>
      </trkpt>
      <trkpt lat="46.95417" lon="5.97872">
        <ele>685</ele>
        <time>2020-05-24T14:29:57.000Z</time>
      </trkpt>
      <trkpt lat="46.95418" lon="5.97876">
        <ele>685</ele>
        <time>2020-05-24T14:29:59.000Z</time>
      </trkpt>
      <trkpt lat="46.9542" lon="5.97878">
        <ele>685</ele>
        <time>2020-05-24T14:30:01.000Z</time>
      </trkpt>
      <trkpt lat="46.95421" lon="5.97881">
        <ele>685</ele>
        <time>2020-05-24T14:30:03.000Z</time>
      </trkpt>
      <trkpt lat="46.95423" lon="5.97884">
        <ele>685</ele>
        <time>2020-05-24T14:30:05.000Z</time>
      </trkpt>
      <trkpt lat="46.95424" lon="5.97886">
        <ele>685</ele>
        <time>2020-05-24T14:30:07.000Z</time>
      </trkpt>
      <trkpt lat="46.95425" lon="5.97889">
        <ele>685</ele>
        <time>2020-05-24T14:30:09.000Z</time>
      </trkpt>
      <trkpt lat="46.95427" lon="5.97892">
        <ele>685</ele>
        <time>2020-05-24T14:30:11.000Z</time>
      </trkpt>
      <trkpt lat="46.95428" lon="5.97895">
        <ele>684</ele>
        <time>2020-05-24T14:30:13.000Z</time>
      </trkpt>
      <trkpt lat="46.9543" lon="5.97898">
        <ele>684</ele>
        <time>2020-05-24T14:30:15.000Z</time>
      </trkpt>
      <trkpt lat="46.95431" lon="5.97901">
        <ele>683</ele>
        <time>2020-05-24T14:30:17.000Z</time>
      </trkpt>
      <trkpt lat="46.95433" lon="5.97903">
        <ele>683</ele>
        <time>2020-05-24T14:30:19.000Z</time>
      </trkpt>
      <trkpt lat="46.95434" lon="5.97904">
        <ele>683</ele>
        <time>2020-05-24T14:30:21.000Z</time>
      </trkpt>
      <trkpt lat="46.95436" lon="5.97907">
        <ele>683</ele>
        <time>2020-05-24T14:30:23.000Z</time>
      </trkpt>
      <trkpt lat="46.95438" lon="5.9791">
        <ele>683</ele>
        <time>2020-05-24T14:30:25.000Z</time>
      </trkpt>
      <trkpt lat="46.95439" lon="5.97913">
        <ele>683</ele>
        <time>2020-05-24T14:30:27.000Z</time>
      </trkpt>
      <trkpt lat="46.95441" lon="5.97916">
        <ele>683</ele>
        <time>2020-05-24T14:30:29.000Z</time>
      </trkpt>
      <trkpt lat="46.95443" lon="5.97919">
        <ele>683</ele>
        <time>2020-05-24T14:30:31.000Z</time>
      </trkpt>
      <trkpt lat="46.95444" lon="5.97922">
        <ele>683</ele>
        <time>2020-05-24T14:30:33.000Z</time>
      </trkpt>
      <trkpt lat="46.95445" lon="5.97925">
        <ele>682.84905751512</ele>
        <time>2020-05-24T14:30:35.000Z</time>
      </trkpt>
      <trkpt lat="46.95447" lon="5.97928">
        <ele>682</ele>
        <time>2020-05-24T14:30:37.000Z</time>
      </trkpt>
      <trkpt lat="46.95448" lon="5.97932">
        <ele>682</ele>
        <time>2020-05-24T14:30:39.000Z</time>
      </trkpt>
      <trkpt lat="46.9545" lon="5.97934">
        <ele>682</ele>
        <time>2020-05-24T14:30:41.000Z</time>
      </trkpt>
      <trkpt lat="46.95451" lon="5.97936">
        <ele>682</ele>
        <time>2020-05-24T14:30:43.000Z</time>
      </trkpt>
      <trkpt lat="46.95453" lon="5.97939">
        <ele>681.89361093712</ele>
        <time>2020-05-24T14:30:45.000Z</time>
      </trkpt>
      <trkpt lat="46.95454" lon="5.97941">
        <ele>680</ele>
        <time>2020-05-24T14:30:47.000Z</time>
      </trkpt>
      <trkpt lat="46.95455" lon="5.97945">
        <ele>680</ele>
        <time>2020-05-24T14:30:49.000Z</time>
      </trkpt>
      <trkpt lat="46.95456" lon="5.97948">
        <ele>680</ele>
        <time>2020-05-24T14:30:51.000Z</time>
      </trkpt>
      <trkpt lat="46.95457" lon="5.97951">
        <ele>680</ele>
        <time>2020-05-24T14:30:53.000Z</time>
      </trkpt>
      <trkpt lat="46.95458" lon="5.97953">
        <ele>680</ele>
        <time>2020-05-24T14:30:55.000Z</time>
      </trkpt>
      <trkpt lat="46.95459" lon="5.97956">
        <ele>679.90399975424</ele>
        <time>2020-05-24T14:30:57.000Z</time>
      </trkpt>
      <trkpt lat="46.9546" lon="5.97958">
        <ele>679</ele>
        <time>2020-05-24T14:30:59.000Z</time>
      </trkpt>
      <trkpt lat="46.95459" lon="5.97961">
        <ele>679</ele>
        <time>2020-05-24T14:31:01.000Z</time>
      </trkpt>
      <trkpt lat="46.95459" lon="5.97964">
        <ele>679</ele>
        <time>2020-05-24T14:31:03.000Z</time>
      </trkpt>
      <trkpt lat="46.95458" lon="5.97969">
        <ele>679</ele>
        <time>2020-05-24T14:31:05.000Z</time>
      </trkpt>
      <trkpt lat="46.95458" lon="5.97973">
        <ele>679</ele>
        <time>2020-05-24T14:31:06.000Z</time>
      </trkpt>
      <trkpt lat="46.95457" lon="5.97977">
        <ele>679</ele>
        <time>2020-05-24T14:31:07.000Z</time>
      </trkpt>
      <trkpt lat="46.95457" lon="5.97979">
        <ele>679</ele>
        <time>2020-05-24T14:31:08.000Z</time>
      </trkpt>
      <trkpt lat="46.95456" lon="5.97982">
        <ele>679</ele>
        <time>2020-05-24T14:31:10.000Z</time>
      </trkpt>
      <trkpt lat="46.95456" lon="5.97985">
        <ele>679</ele>
        <time>2020-05-24T14:31:12.000Z</time>
      </trkpt>
      <trkpt lat="46.95456" lon="5.9799">
        <ele>678.93332669634</ele>
        <time>2020-05-24T14:31:14.000Z</time>
      </trkpt>
      <trkpt lat="46.95457" lon="5.97993">
        <ele>678</ele>
        <time>2020-05-24T14:31:16.000Z</time>
      </trkpt>
      <trkpt lat="46.95458" lon="5.97996">
        <ele>678</ele>
        <time>2020-05-24T14:31:18.000Z</time>
      </trkpt>
      <trkpt lat="46.95458" lon="5.97999">
        <ele>678</ele>
        <time>2020-05-24T14:31:20.000Z</time>
      </trkpt>
      <trkpt lat="46.95458" lon="5.98003">
        <ele>678</ele>
        <time>2020-05-24T14:31:22.000Z</time>
      </trkpt>
      <trkpt lat="46.95458" lon="5.98006">
        <ele>678</ele>
        <time>2020-05-24T14:31:26.000Z</time>
      </trkpt>
      <trkpt lat="46.95457" lon="5.98011">
        <ele>677</ele>
        <time>2020-05-24T14:31:28.000Z</time>
      </trkpt>
      <trkpt lat="46.95456" lon="5.98015">
        <ele>677</ele>
        <time>2020-05-24T14:31:30.000Z</time>
      </trkpt>
      <trkpt lat="46.95457" lon="5.98018">
        <ele>677</ele>
        <time>2020-05-24T14:31:32.000Z</time>
      </trkpt>
      <trkpt lat="46.95457" lon="5.98021">
        <ele>677</ele>
        <time>2020-05-24T14:31:34.000Z</time>
      </trkpt>
      <trkpt lat="46.95457" lon="5.98024">
        <ele>677</ele>
        <time>2020-05-24T14:31:36.000Z</time>
      </trkpt>
      <trkpt lat="46.95458" lon="5.98028">
        <ele>676</ele>
        <time>2020-05-24T14:31:39.000Z</time>
      </trkpt>
      <trkpt lat="46.95458" lon="5.98032">
        <ele>676</ele>
        <time>2020-05-24T14:31:41.000Z</time>
      </trkpt>
      <trkpt lat="46.95459" lon="5.98035">
        <ele>676</ele>
        <time>2020-05-24T14:31:43.000Z</time>
      </trkpt>
      <trkpt lat="46.9546" lon="5.98038">
        <ele>676</ele>
        <time>2020-05-24T14:31:45.000Z</time>
      </trkpt>
      <trkpt lat="46.95462" lon="5.98042">
        <ele>675.84</ele>
        <time>2020-05-24T14:31:47.000Z</time>
      </trkpt>
      <trkpt lat="46.95463" lon="5.98045">
        <ele>675</ele>
        <time>2020-05-24T14:31:49.000Z</time>
      </trkpt>
      <trkpt lat="46.95464" lon="5.98048">
        <ele>675</ele>
        <time>2020-05-24T14:31:51.000Z</time>
      </trkpt>
      <trkpt lat="46.95465" lon="5.98052">
        <ele>675</ele>
        <time>2020-05-24T14:31:53.000Z</time>
      </trkpt>
      <trkpt lat="46.95465" lon="5.98055">
        <ele>675</ele>
        <time>2020-05-24T14:31:54.000Z</time>
      </trkpt>
      <trkpt lat="46.95466" lon="5.98059">
        <ele>675</ele>
        <time>2020-05-24T14:31:56.000Z</time>
      </trkpt>
      <trkpt lat="46.95466" lon="5.98062">
        <ele>675</ele>
        <time>2020-05-24T14:31:58.000Z</time>
      </trkpt>
      <trkpt lat="46.95467" lon="5.98066">
        <ele>675</ele>
        <time>2020-05-24T14:32:00.000Z</time>
      </trkpt>
      <trkpt lat="46.95468" lon="5.9807">
        <ele>675</ele>
        <time>2020-05-24T14:32:02.000Z</time>
      </trkpt>
      <trkpt lat="46.95469" lon="5.98073">
        <ele>675</ele>
        <time>2020-05-24T14:32:04.000Z</time>
      </trkpt>
      <trkpt lat="46.9547" lon="5.98075">
        <ele>675</ele>
        <time>2020-05-24T14:32:06.000Z</time>
      </trkpt>
      <trkpt lat="46.95471" lon="5.98079">
        <ele>675</ele>
        <time>2020-05-24T14:32:08.000Z</time>
      </trkpt>
      <trkpt lat="46.95473" lon="5.98082">
        <ele>674</ele>
        <time>2020-05-24T14:32:10.000Z</time>
      </trkpt>
      <trkpt lat="46.95474" lon="5.98086">
        <ele>674</ele>
        <time>2020-05-24T14:32:12.000Z</time>
      </trkpt>
      <trkpt lat="46.95475" lon="5.9809">
        <ele>674</ele>
        <time>2020-05-24T14:32:14.000Z</time>
      </trkpt>
      <trkpt lat="46.95476" lon="5.98093">
        <ele>674</ele>
        <time>2020-05-24T14:32:16.000Z</time>
      </trkpt>
      <trkpt lat="46.95477" lon="5.98097">
        <ele>674</ele>
        <time>2020-05-24T14:32:18.000Z</time>
      </trkpt>
      <trkpt lat="46.95478" lon="5.98101">
        <ele>672</ele>
        <time>2020-05-24T14:32:20.000Z</time>
      </trkpt>
      <trkpt lat="46.95478" lon="5.98105">
        <ele>672</ele>
        <time>2020-05-24T14:32:22.000Z</time>
      </trkpt>
      <trkpt lat="46.9548" lon="5.98109">
        <ele>672</ele>
        <time>2020-05-24T14:32:24.000Z</time>
      </trkpt>
      <trkpt lat="46.95481" lon="5.98113">
        <ele>672</ele>
        <time>2020-05-24T14:32:26.000Z</time>
      </trkpt>
      <trkpt lat="46.95482" lon="5.98116">
        <ele>672</ele>
        <time>2020-05-24T14:32:28.000Z</time>
      </trkpt>
      <trkpt lat="46.95483" lon="5.98121">
        <ele>672</ele>
        <time>2020-05-24T14:32:30.000Z</time>
      </trkpt>
      <trkpt lat="46.95484" lon="5.98125">
        <ele>672</ele>
        <time>2020-05-24T14:32:32.000Z</time>
      </trkpt>
      <trkpt lat="46.95485" lon="5.98129">
        <ele>672</ele>
        <time>2020-05-24T14:32:34.000Z</time>
      </trkpt>
      <trkpt lat="46.95486" lon="5.98133">
        <ele>672</ele>
        <time>2020-05-24T14:32:36.000Z</time>
      </trkpt>
      <trkpt lat="46.95487" lon="5.98138">
        <ele>672</ele>
        <time>2020-05-24T14:32:38.000Z</time>
      </trkpt>
      <trkpt lat="46.95488" lon="5.98141">
        <ele>672</ele>
        <time>2020-05-24T14:32:40.000Z</time>
      </trkpt>
      <trkpt lat="46.95489" lon="5.98144">
        <ele>672</ele>
        <time>2020-05-24T14:32:42.000Z</time>
      </trkpt>
      <trkpt lat="46.95489" lon="5.98147">
        <ele>672</ele>
        <time>2020-05-24T14:32:44.000Z</time>
      </trkpt>
      <trkpt lat="46.95489" lon="5.9815">
        <ele>671.84848210592</ele>
        <time>2020-05-24T14:32:46.000Z</time>
      </trkpt>
      <trkpt lat="46.95491" lon="5.98153">
        <ele>671</ele>
        <time>2020-05-24T14:32:48.000Z</time>
      </trkpt>
      <trkpt lat="46.95491" lon="5.98157">
        <ele>671</ele>
        <time>2020-05-24T14:32:50.000Z</time>
      </trkpt>
      <trkpt lat="46.95492" lon="5.9816">
        <ele>671</ele>
        <time>2020-05-24T14:32:52.000Z</time>
      </trkpt>
      <trkpt lat="46.95493" lon="5.98163">
        <ele>671</ele>
        <time>2020-05-24T14:32:54.000Z</time>
      </trkpt>
      <trkpt lat="46.95495" lon="5.98167">
        <ele>670</ele>
        <time>2020-05-24T14:32:56.000Z</time>
      </trkpt>
      <trkpt lat="46.95495" lon="5.98169">
        <ele>670</ele>
        <time>2020-05-24T14:32:57.000Z</time>
      </trkpt>
      <trkpt lat="46.95497" lon="5.98173">
        <ele>670</ele>
        <time>2020-05-24T14:32:59.000Z</time>
      </trkpt>
      <trkpt lat="46.95498" lon="5.98177">
        <ele>669.02830473476</ele>
        <time>2020-05-24T14:33:01.000Z</time>
      </trkpt>
      <trkpt lat="46.955" lon="5.98181">
        <ele>669</ele>
        <time>2020-05-24T14:33:03.000Z</time>
      </trkpt>
      <trkpt lat="46.95502" lon="5.98184">
        <ele>669</ele>
        <time>2020-05-24T14:33:05.000Z</time>
      </trkpt>
      <trkpt lat="46.95503" lon="5.98188">
        <ele>669</ele>
        <time>2020-05-24T14:33:07.000Z</time>
      </trkpt>
      <trkpt lat="46.95505" lon="5.98192">
        <ele>668.84</ele>
        <time>2020-05-24T14:33:09.000Z</time>
      </trkpt>
      <trkpt lat="46.95506" lon="5.98194">
        <ele>668</ele>
        <time>2020-05-24T14:33:11.000Z</time>
      </trkpt>
      <trkpt lat="46.95508" lon="5.98198">
        <ele>668</ele>
        <time>2020-05-24T14:33:13.000Z</time>
      </trkpt>
      <trkpt lat="46.95508" lon="5.98201">
        <ele>668</ele>
        <time>2020-05-24T14:33:15.000Z</time>
      </trkpt>
      <trkpt lat="46.95509" lon="5.98204">
        <ele>667</ele>
        <time>2020-05-24T14:33:17.000Z</time>
      </trkpt>
      <trkpt lat="46.9551" lon="5.98208">
        <ele>667</ele>
        <time>2020-05-24T14:33:19.000Z</time>
      </trkpt>
      <trkpt lat="46.95511" lon="5.98211">
        <ele>667</ele>
        <time>2020-05-24T14:33:21.000Z</time>
      </trkpt>
      <trkpt lat="46.95512" lon="5.98215">
        <ele>667</ele>
        <time>2020-05-24T14:33:23.000Z</time>
      </trkpt>
      <trkpt lat="46.95513" lon="5.98218">
        <ele>667</ele>
        <time>2020-05-24T14:33:25.000Z</time>
      </trkpt>
      <trkpt lat="46.95514" lon="5.98221">
        <ele>667</ele>
        <time>2020-05-24T14:33:27.000Z</time>
      </trkpt>
      <trkpt lat="46.95515" lon="5.98225">
        <ele>667</ele>
        <time>2020-05-24T14:33:29.000Z</time>
      </trkpt>
      <trkpt lat="46.95516" lon="5.98228">
        <ele>666</ele>
        <time>2020-05-24T14:33:31.000Z</time>
      </trkpt>
      <trkpt lat="46.95517" lon="5.98232">
        <ele>666</ele>
        <time>2020-05-24T14:33:33.000Z</time>
      </trkpt>
      <trkpt lat="46.95518" lon="5.98236">
        <ele>666</ele>
        <time>2020-05-24T14:33:35.000Z</time>
      </trkpt>
      <trkpt lat="46.95519" lon="5.98238">
        <ele>666</ele>
        <time>2020-05-24T14:33:36.000Z</time>
      </trkpt>
      <trkpt lat="46.9552" lon="5.98241">
        <ele>666</ele>
        <time>2020-05-24T14:33:37.000Z</time>
      </trkpt>
      <trkpt lat="46.95521" lon="5.98245">
        <ele>666</ele>
        <time>2020-05-24T14:33:39.000Z</time>
      </trkpt>
      <trkpt lat="46.95522" lon="5.98248">
        <ele>666</ele>
        <time>2020-05-24T14:33:41.000Z</time>
      </trkpt>
      <trkpt lat="46.95524" lon="5.98252">
        <ele>666</ele>
        <time>2020-05-24T14:33:43.000Z</time>
      </trkpt>
      <trkpt lat="46.95525" lon="5.98254">
        <ele>666</ele>
        <time>2020-05-24T14:33:45.000Z</time>
      </trkpt>
      <trkpt lat="46.95526" lon="5.98258">
        <ele>666</ele>
        <time>2020-05-24T14:33:47.000Z</time>
      </trkpt>
      <trkpt lat="46.95528" lon="5.98262">
        <ele>665</ele>
        <time>2020-05-24T14:33:49.000Z</time>
      </trkpt>
      <trkpt lat="46.95529" lon="5.98266">
        <ele>665</ele>
        <time>2020-05-24T14:33:51.000Z</time>
      </trkpt>
      <trkpt lat="46.95529" lon="5.98269">
        <ele>665</ele>
        <time>2020-05-24T14:33:53.000Z</time>
      </trkpt>
      <trkpt lat="46.9553" lon="5.98273">
        <ele>665</ele>
        <time>2020-05-24T14:33:55.000Z</time>
      </trkpt>
      <trkpt lat="46.95531" lon="5.98278">
        <ele>665</ele>
        <time>2020-05-24T14:33:57.000Z</time>
      </trkpt>
      <trkpt lat="46.95533" lon="5.98282">
        <ele>664</ele>
        <time>2020-05-24T14:33:59.000Z</time>
      </trkpt>
      <trkpt lat="46.95534" lon="5.98287">
        <ele>664</ele>
        <time>2020-05-24T14:34:01.000Z</time>
      </trkpt>
      <trkpt lat="46.95535" lon="5.9829">
        <ele>664</ele>
        <time>2020-05-24T14:34:03.000Z</time>
      </trkpt>
      <trkpt lat="46.95536" lon="5.98293">
        <ele>663</ele>
        <time>2020-05-24T14:34:05.000Z</time>
      </trkpt>
      <trkpt lat="46.95538" lon="5.98296">
        <ele>663</ele>
        <time>2020-05-24T14:34:07.000Z</time>
      </trkpt>
      <trkpt lat="46.95539" lon="5.98299">
        <ele>663</ele>
        <time>2020-05-24T14:34:09.000Z</time>
      </trkpt>
      <trkpt lat="46.9554" lon="5.98302">
        <ele>663</ele>
        <time>2020-05-24T14:34:11.000Z</time>
      </trkpt>
      <trkpt lat="46.9554" lon="5.98305">
        <ele>662.84</ele>
        <time>2020-05-24T14:34:13.000Z</time>
      </trkpt>
      <trkpt lat="46.9554" lon="5.98308">
        <ele>662</ele>
        <time>2020-05-24T14:34:15.000Z</time>
      </trkpt>
      <trkpt lat="46.95541" lon="5.98312">
        <ele>662</ele>
        <time>2020-05-24T14:34:17.000Z</time>
      </trkpt>
      <trkpt lat="46.95541" lon="5.98315">
        <ele>662</ele>
        <time>2020-05-24T14:34:19.000Z</time>
      </trkpt>
      <trkpt lat="46.95541" lon="5.98318">
        <ele>662</ele>
        <time>2020-05-24T14:34:21.000Z</time>
      </trkpt>
      <trkpt lat="46.95542" lon="5.98322">
        <ele>662</ele>
        <time>2020-05-24T14:34:23.000Z</time>
      </trkpt>
      <trkpt lat="46.95542" lon="5.98325">
        <ele>662</ele>
        <time>2020-05-24T14:34:25.000Z</time>
      </trkpt>
      <trkpt lat="46.95542" lon="5.98329">
        <ele>661.85454460826</ele>
        <time>2020-05-24T14:34:27.000Z</time>
      </trkpt>
      <trkpt lat="46.95544" lon="5.98333">
        <ele>661</ele>
        <time>2020-05-24T14:34:29.000Z</time>
      </trkpt>
      <trkpt lat="46.95544" lon="5.98336">
        <ele>660.84</ele>
        <time>2020-05-24T14:34:31.000Z</time>
      </trkpt>
      <trkpt lat="46.95546" lon="5.9834">
        <ele>660</ele>
        <time>2020-05-24T14:34:34.000Z</time>
      </trkpt>
      <trkpt lat="46.95546" lon="5.98343">
        <ele>660</ele>
        <time>2020-05-24T14:34:36.000Z</time>
      </trkpt>
      <trkpt lat="46.95547" lon="5.98347">
        <ele>660</ele>
        <time>2020-05-24T14:34:38.000Z</time>
      </trkpt>
      <trkpt lat="46.95547" lon="5.9835">
        <ele>660</ele>
        <time>2020-05-24T14:34:40.000Z</time>
      </trkpt>
      <trkpt lat="46.95547" lon="5.98354">
        <ele>660</ele>
        <time>2020-05-24T14:34:42.000Z</time>
      </trkpt>
      <trkpt lat="46.95548" lon="5.98357">
        <ele>660</ele>
        <time>2020-05-24T14:34:44.000Z</time>
      </trkpt>
      <trkpt lat="46.95548" lon="5.98361">
        <ele>660</ele>
        <time>2020-05-24T14:34:46.000Z</time>
      </trkpt>
      <trkpt lat="46.95549" lon="5.98365">
        <ele>660</ele>
        <time>2020-05-24T14:34:48.000Z</time>
      </trkpt>
      <trkpt lat="46.95549" lon="5.98368">
        <ele>660</ele>
        <time>2020-05-24T14:34:50.000Z</time>
      </trkpt>
      <trkpt lat="46.9555" lon="5.98372">
        <ele>660</ele>
        <time>2020-05-24T14:34:52.000Z</time>
      </trkpt>
      <trkpt lat="46.95551" lon="5.98375">
        <ele>660</ele>
        <time>2020-05-24T14:34:54.000Z</time>
      </trkpt>
      <trkpt lat="46.95552" lon="5.98377">
        <ele>660</ele>
        <time>2020-05-24T14:34:56.000Z</time>
      </trkpt>
      <trkpt lat="46.95552" lon="5.9838">
        <ele>659</ele>
        <time>2020-05-24T14:34:58.000Z</time>
      </trkpt>
      <trkpt lat="46.95553" lon="5.98383">
        <ele>659</ele>
        <time>2020-05-24T14:35:00.000Z</time>
      </trkpt>
      <trkpt lat="46.95553" lon="5.98387">
        <ele>659</ele>
        <time>2020-05-24T14:35:02.000Z</time>
      </trkpt>
      <trkpt lat="46.95553" lon="5.98389">
        <ele>659</ele>
        <time>2020-05-24T14:35:03.000Z</time>
      </trkpt>
      <trkpt lat="46.95553" lon="5.98392">
        <ele>659</ele>
        <time>2020-05-24T14:35:04.000Z</time>
      </trkpt>
      <trkpt lat="46.95553" lon="5.98396">
        <ele>659</ele>
        <time>2020-05-24T14:35:06.000Z</time>
      </trkpt>
      <trkpt lat="46.95554" lon="5.98399">
        <ele>659</ele>
        <time>2020-05-24T14:35:08.000Z</time>
      </trkpt>
      <trkpt lat="46.95555" lon="5.98403">
        <ele>658.84</ele>
        <time>2020-05-24T14:35:10.000Z</time>
      </trkpt>
      <trkpt lat="46.95555" lon="5.98407">
        <ele>658</ele>
        <time>2020-05-24T14:35:12.000Z</time>
      </trkpt>
      <trkpt lat="46.95555" lon="5.98411">
        <ele>658</ele>
        <time>2020-05-24T14:35:14.000Z</time>
      </trkpt>
      <trkpt lat="46.95555" lon="5.98415">
        <ele>658</ele>
        <time>2020-05-24T14:35:16.000Z</time>
      </trkpt>
      <trkpt lat="46.95555" lon="5.98417">
        <ele>658</ele>
        <time>2020-05-24T14:35:18.000Z</time>
      </trkpt>
      <trkpt lat="46.95556" lon="5.98421">
        <ele>657.89362310552</ele>
        <time>2020-05-24T14:35:20.000Z</time>
      </trkpt>
      <trkpt lat="46.95556" lon="5.98424">
        <ele>656.98182389425</ele>
        <time>2020-05-24T14:35:22.000Z</time>
      </trkpt>
      <trkpt lat="46.95557" lon="5.98428">
        <ele>656</ele>
        <time>2020-05-24T14:35:24.000Z</time>
      </trkpt>
      <trkpt lat="46.95558" lon="5.98431">
        <ele>656</ele>
        <time>2020-05-24T14:35:26.000Z</time>
      </trkpt>
      <trkpt lat="46.9556" lon="5.98435">
        <ele>656</ele>
        <time>2020-05-24T14:35:28.000Z</time>
      </trkpt>
      <trkpt lat="46.95561" lon="5.98439">
        <ele>656</ele>
        <time>2020-05-24T14:35:30.000Z</time>
      </trkpt>
      <trkpt lat="46.95563" lon="5.98442">
        <ele>655</ele>
        <time>2020-05-24T14:35:32.000Z</time>
      </trkpt>
      <trkpt lat="46.95565" lon="5.98445">
        <ele>655</ele>
        <time>2020-05-24T14:35:34.000Z</time>
      </trkpt>
      <trkpt lat="46.95566" lon="5.98449">
        <ele>655</ele>
        <time>2020-05-24T14:35:36.000Z</time>
      </trkpt>
      <trkpt lat="46.95567" lon="5.98453">
        <ele>655</ele>
        <time>2020-05-24T14:35:38.000Z</time>
      </trkpt>
      <trkpt lat="46.95568" lon="5.98457">
        <ele>655</ele>
        <time>2020-05-24T14:35:40.000Z</time>
      </trkpt>
      <trkpt lat="46.9557" lon="5.9846">
        <ele>655</ele>
        <time>2020-05-24T14:35:42.000Z</time>
      </trkpt>
      <trkpt lat="46.95571" lon="5.98464">
        <ele>654.87878787879</ele>
        <time>2020-05-24T14:35:44.000Z</time>
      </trkpt>
      <trkpt lat="46.95573" lon="5.98467">
        <ele>654</ele>
        <time>2020-05-24T14:35:46.000Z</time>
      </trkpt>
      <trkpt lat="46.95574" lon="5.9847">
        <ele>653.84</ele>
        <time>2020-05-24T14:35:48.000Z</time>
      </trkpt>
      <trkpt lat="46.95575" lon="5.98474">
        <ele>653</ele>
        <time>2020-05-24T14:35:50.000Z</time>
      </trkpt>
      <trkpt lat="46.95576" lon="5.98478">
        <ele>653</ele>
        <time>2020-05-24T14:35:52.000Z</time>
      </trkpt>
      <trkpt lat="46.95577" lon="5.98481">
        <ele>653</ele>
        <time>2020-05-24T14:35:54.000Z</time>
      </trkpt>
      <trkpt lat="46.95579" lon="5.98483">
        <ele>653</ele>
        <time>2020-05-24T14:35:56.000Z</time>
      </trkpt>
      <trkpt lat="46.9558" lon="5.98486">
        <ele>653</ele>
        <time>2020-05-24T14:35:58.000Z</time>
      </trkpt>
      <trkpt lat="46.95581" lon="5.9849">
        <ele>653</ele>
        <time>2020-05-24T14:36:00.000Z</time>
      </trkpt>
      <trkpt lat="46.95583" lon="5.98493">
        <ele>653</ele>
        <time>2020-05-24T14:36:02.000Z</time>
      </trkpt>
      <trkpt lat="46.95584" lon="5.98496">
        <ele>652.10256438308</ele>
        <time>2020-05-24T14:36:04.000Z</time>
      </trkpt>
      <trkpt lat="46.95585" lon="5.98499">
        <ele>652</ele>
        <time>2020-05-24T14:36:06.000Z</time>
      </trkpt>
      <trkpt lat="46.95586" lon="5.98503">
        <ele>652</ele>
        <time>2020-05-24T14:36:08.000Z</time>
      </trkpt>
      <trkpt lat="46.95588" lon="5.98507">
        <ele>652</ele>
        <time>2020-05-24T14:36:10.000Z</time>
      </trkpt>
      <trkpt lat="46.95589" lon="5.98509">
        <ele>652</ele>
        <time>2020-05-24T14:36:12.000Z</time>
      </trkpt>
      <trkpt lat="46.95591" lon="5.98512">
        <ele>651</ele>
        <time>2020-05-24T14:36:14.000Z</time>
      </trkpt>
      <trkpt lat="46.95592" lon="5.98515">
        <ele>651</ele>
        <time>2020-05-24T14:36:16.000Z</time>
      </trkpt>
      <trkpt lat="46.95593" lon="5.98518">
        <ele>651</ele>
        <time>2020-05-24T14:36:18.000Z</time>
      </trkpt>
      <trkpt lat="46.95594" lon="5.98522">
        <ele>650.89362310552</ele>
        <time>2020-05-24T14:36:20.000Z</time>
      </trkpt>
      <trkpt lat="46.95595" lon="5.98526">
        <ele>650</ele>
        <time>2020-05-24T14:36:22.000Z</time>
      </trkpt>
      <trkpt lat="46.95595" lon="5.98529">
        <ele>651</ele>
        <time>2020-05-24T14:36:24.000Z</time>
      </trkpt>
      <trkpt lat="46.95596" lon="5.98532">
        <ele>651</ele>
        <time>2020-05-24T14:36:26.000Z</time>
      </trkpt>
      <trkpt lat="46.95597" lon="5.98535">
        <ele>650.00943100034</ele>
        <time>2020-05-24T14:36:28.000Z</time>
      </trkpt>
      <trkpt lat="46.95597" lon="5.98537">
        <ele>650</ele>
        <time>2020-05-24T14:36:30.000Z</time>
      </trkpt>
      <trkpt lat="46.95598" lon="5.98541">
        <ele>650</ele>
        <time>2020-05-24T14:36:32.000Z</time>
      </trkpt>
      <trkpt lat="46.95599" lon="5.98545">
        <ele>650</ele>
        <time>2020-05-24T14:36:34.000Z</time>
      </trkpt>
      <trkpt lat="46.956" lon="5.98547">
        <ele>650</ele>
        <time>2020-05-24T14:36:36.000Z</time>
      </trkpt>
      <trkpt lat="46.956" lon="5.9855">
        <ele>650</ele>
        <time>2020-05-24T14:36:38.000Z</time>
      </trkpt>
      <trkpt lat="46.95601" lon="5.98554">
        <ele>650</ele>
        <time>2020-05-24T14:36:40.000Z</time>
      </trkpt>
      <trkpt lat="46.95601" lon="5.98557">
        <ele>650</ele>
        <time>2020-05-24T14:36:42.000Z</time>
      </trkpt>
      <trkpt lat="46.95601" lon="5.98561">
        <ele>650</ele>
        <time>2020-05-24T14:36:44.000Z</time>
      </trkpt>
      <trkpt lat="46.956" lon="5.98565">
        <ele>649</ele>
        <time>2020-05-24T14:36:46.000Z</time>
      </trkpt>
      <trkpt lat="46.956" lon="5.98569">
        <ele>649</ele>
        <time>2020-05-24T14:36:48.000Z</time>
      </trkpt>
      <trkpt lat="46.956" lon="5.98573">
        <ele>649</ele>
        <time>2020-05-24T14:36:50.000Z</time>
      </trkpt>
      <trkpt lat="46.956" lon="5.98576">
        <ele>649</ele>
        <time>2020-05-24T14:36:52.000Z</time>
      </trkpt>
      <trkpt lat="46.956" lon="5.9858">
        <ele>649</ele>
        <time>2020-05-24T14:36:54.000Z</time>
      </trkpt>
      <trkpt lat="46.95601" lon="5.98584">
        <ele>648</ele>
        <time>2020-05-24T14:36:56.000Z</time>
      </trkpt>
      <trkpt lat="46.956" lon="5.98588">
        <ele>648</ele>
        <time>2020-05-24T14:36:58.000Z</time>
      </trkpt>
      <trkpt lat="46.956" lon="5.98592">
        <ele>648</ele>
        <time>2020-05-24T14:37:00.000Z</time>
      </trkpt>
      <trkpt lat="46.956" lon="5.98595">
        <ele>647</ele>
        <time>2020-05-24T14:37:02.000Z</time>
      </trkpt>
      <trkpt lat="46.95601" lon="5.98599">
        <ele>647</ele>
        <time>2020-05-24T14:37:04.000Z</time>
      </trkpt>
      <trkpt lat="46.95601" lon="5.98603">
        <ele>647</ele>
        <time>2020-05-24T14:37:06.000Z</time>
      </trkpt>
      <trkpt lat="46.95601" lon="5.98606">
        <ele>647</ele>
        <time>2020-05-24T14:37:08.000Z</time>
      </trkpt>
      <trkpt lat="46.95601" lon="5.9861">
        <ele>646</ele>
        <time>2020-05-24T14:37:10.000Z</time>
      </trkpt>
      <trkpt lat="46.95601" lon="5.98613">
        <ele>646</ele>
        <time>2020-05-24T14:37:12.000Z</time>
      </trkpt>
      <trkpt lat="46.95601" lon="5.98617">
        <ele>645.84</ele>
        <time>2020-05-24T14:37:14.000Z</time>
      </trkpt>
      <trkpt lat="46.95601" lon="5.9862">
        <ele>645</ele>
        <time>2020-05-24T14:37:16.000Z</time>
      </trkpt>
      <trkpt lat="46.956" lon="5.98624">
        <ele>645</ele>
        <time>2020-05-24T14:37:18.000Z</time>
      </trkpt>
      <trkpt lat="46.956" lon="5.98628">
        <ele>645</ele>
        <time>2020-05-24T14:37:20.000Z</time>
      </trkpt>
      <trkpt lat="46.95599" lon="5.98632">
        <ele>645</ele>
        <time>2020-05-24T14:37:22.000Z</time>
      </trkpt>
      <trkpt lat="46.95599" lon="5.98636">
        <ele>644.85321057823</ele>
        <time>2020-05-24T14:37:24.000Z</time>
      </trkpt>
      <trkpt lat="46.95598" lon="5.98639">
        <ele>644</ele>
        <time>2020-05-24T14:37:26.000Z</time>
      </trkpt>
      <trkpt lat="46.95597" lon="5.98643">
        <ele>644</ele>
        <time>2020-05-24T14:37:28.000Z</time>
      </trkpt>
      <trkpt lat="46.95596" lon="5.98646">
        <ele>644</ele>
        <time>2020-05-24T14:37:30.000Z</time>
      </trkpt>
      <trkpt lat="46.95594" lon="5.98649">
        <ele>644</ele>
        <time>2020-05-24T14:37:32.000Z</time>
      </trkpt>
      <trkpt lat="46.95592" lon="5.98651">
        <ele>644</ele>
        <time>2020-05-24T14:37:34.000Z</time>
      </trkpt>
      <trkpt lat="46.95591" lon="5.98654">
        <ele>644</ele>
        <time>2020-05-24T14:37:36.000Z</time>
      </trkpt>
      <trkpt lat="46.95589" lon="5.98656">
        <ele>643</ele>
        <time>2020-05-24T14:37:38.000Z</time>
      </trkpt>
      <trkpt lat="46.95587" lon="5.98658">
        <ele>643</ele>
        <time>2020-05-24T14:37:40.000Z</time>
      </trkpt>
      <trkpt lat="46.95585" lon="5.9866">
        <ele>643</ele>
        <time>2020-05-24T14:37:42.000Z</time>
      </trkpt>
      <trkpt lat="46.95583" lon="5.98661">
        <ele>642</ele>
        <time>2020-05-24T14:37:44.000Z</time>
      </trkpt>
      <trkpt lat="46.95581" lon="5.98663">
        <ele>642</ele>
        <time>2020-05-24T14:37:46.000Z</time>
      </trkpt>
      <trkpt lat="46.95578" lon="5.98665">
        <ele>641.1407427775</ele>
        <time>2020-05-24T14:37:48.000Z</time>
      </trkpt>
      <trkpt lat="46.95576" lon="5.98666">
        <ele>641</ele>
        <time>2020-05-24T14:37:50.000Z</time>
      </trkpt>
      <trkpt lat="46.95574" lon="5.98667">
        <ele>641</ele>
        <time>2020-05-24T14:37:52.000Z</time>
      </trkpt>
      <trkpt lat="46.95572" lon="5.98668">
        <ele>641.14678942177</ele>
        <time>2020-05-24T14:37:54.000Z</time>
      </trkpt>
      <trkpt lat="46.9557" lon="5.98669">
        <ele>641.84615384615</ele>
        <time>2020-05-24T14:37:56.000Z</time>
      </trkpt>
      <trkpt lat="46.95567" lon="5.98671">
        <ele>641</ele>
        <time>2020-05-24T14:37:58.000Z</time>
      </trkpt>
      <trkpt lat="46.95565" lon="5.98673">
        <ele>641</ele>
        <time>2020-05-24T14:38:00.000Z</time>
      </trkpt>
      <trkpt lat="46.95563" lon="5.98675">
        <ele>641</ele>
        <time>2020-05-24T14:38:02.000Z</time>
      </trkpt>
      <trkpt lat="46.95561" lon="5.98676">
        <ele>640</ele>
        <time>2020-05-24T14:38:04.000Z</time>
      </trkpt>
      <trkpt lat="46.95559" lon="5.98678">
        <ele>640</ele>
        <time>2020-05-24T14:38:06.000Z</time>
      </trkpt>
      <trkpt lat="46.95557" lon="5.9868">
        <ele>640</ele>
        <time>2020-05-24T14:38:08.000Z</time>
      </trkpt>
      <trkpt lat="46.95555" lon="5.98683">
        <ele>640</ele>
        <time>2020-05-24T14:38:10.000Z</time>
      </trkpt>
      <trkpt lat="46.95553" lon="5.98685">
        <ele>639</ele>
        <time>2020-05-24T14:38:12.000Z</time>
      </trkpt>
      <trkpt lat="46.95551" lon="5.98687">
        <ele>639</ele>
        <time>2020-05-24T14:38:14.000Z</time>
      </trkpt>
      <trkpt lat="46.95549" lon="5.98689">
        <ele>639</ele>
        <time>2020-05-24T14:38:16.000Z</time>
      </trkpt>
      <trkpt lat="46.95547" lon="5.98691">
        <ele>638</ele>
        <time>2020-05-24T14:38:18.000Z</time>
      </trkpt>
      <trkpt lat="46.95546" lon="5.98694">
        <ele>638</ele>
        <time>2020-05-24T14:38:20.000Z</time>
      </trkpt>
      <trkpt lat="46.95544" lon="5.98697">
        <ele>637.94696727273</ele>
        <time>2020-05-24T14:38:22.000Z</time>
      </trkpt>
      <trkpt lat="46.95544" lon="5.98701">
        <ele>637</ele>
        <time>2020-05-24T14:38:24.000Z</time>
      </trkpt>
      <trkpt lat="46.95543" lon="5.98706">
        <ele>637</ele>
        <time>2020-05-24T14:38:26.000Z</time>
      </trkpt>
      <trkpt lat="46.95543" lon="5.9871">
        <ele>636</ele>
        <time>2020-05-24T14:38:28.000Z</time>
      </trkpt>
      <trkpt lat="46.95543" lon="5.98712">
        <ele>636</ele>
        <time>2020-05-24T14:38:30.000Z</time>
      </trkpt>
      <trkpt lat="46.95543" lon="5.98717">
        <ele>635.84</ele>
        <time>2020-05-24T14:38:34.000Z</time>
      </trkpt>
      <trkpt lat="46.95544" lon="5.9872">
        <ele>635</ele>
        <time>2020-05-24T14:38:36.000Z</time>
      </trkpt>
      <trkpt lat="46.95546" lon="5.98723">
        <ele>635</ele>
        <time>2020-05-24T14:38:38.000Z</time>
      </trkpt>
      <trkpt lat="46.95547" lon="5.98727">
        <ele>635</ele>
        <time>2020-05-24T14:38:40.000Z</time>
      </trkpt>
      <trkpt lat="46.95549" lon="5.9873">
        <ele>635</ele>
        <time>2020-05-24T14:38:42.000Z</time>
      </trkpt>
      <trkpt lat="46.95551" lon="5.98732">
        <ele>635</ele>
        <time>2020-05-24T14:38:44.000Z</time>
      </trkpt>
      <trkpt lat="46.95553" lon="5.98734">
        <ele>635</ele>
        <time>2020-05-24T14:38:46.000Z</time>
      </trkpt>
      <trkpt lat="46.95556" lon="5.98736">
        <ele>635</ele>
        <time>2020-05-24T14:38:48.000Z</time>
      </trkpt>
      <trkpt lat="46.95558" lon="5.98737">
        <ele>635</ele>
        <time>2020-05-24T14:38:50.000Z</time>
      </trkpt>
      <trkpt lat="46.9556" lon="5.98739">
        <ele>635</ele>
        <time>2020-05-24T14:38:52.000Z</time>
      </trkpt>
      <trkpt lat="46.95561" lon="5.98741">
        <ele>635</ele>
        <time>2020-05-24T14:38:54.000Z</time>
      </trkpt>
      <trkpt lat="46.95563" lon="5.98743">
        <ele>635</ele>
        <time>2020-05-24T14:38:56.000Z</time>
      </trkpt>
      <trkpt lat="46.95565" lon="5.98745">
        <ele>635.14678942177</ele>
        <time>2020-05-24T14:38:58.000Z</time>
      </trkpt>
      <trkpt lat="46.95567" lon="5.98747">
        <ele>636</ele>
        <time>2020-05-24T14:39:00.000Z</time>
      </trkpt>
      <trkpt lat="46.95569" lon="5.9875">
        <ele>636</ele>
        <time>2020-05-24T14:39:02.000Z</time>
      </trkpt>
      <trkpt lat="46.95571" lon="5.98752">
        <ele>636</ele>
        <time>2020-05-24T14:39:04.000Z</time>
      </trkpt>
      <trkpt lat="46.95573" lon="5.98755">
        <ele>636</ele>
        <time>2020-05-24T14:39:06.000Z</time>
      </trkpt>
      <trkpt lat="46.95575" lon="5.98757">
        <ele>636</ele>
        <time>2020-05-24T14:39:08.000Z</time>
      </trkpt>
      <trkpt lat="46.95577" lon="5.98759">
        <ele>637</ele>
        <time>2020-05-24T14:39:10.000Z</time>
      </trkpt>
      <trkpt lat="46.95579" lon="5.98761">
        <ele>637</ele>
        <time>2020-05-24T14:39:12.000Z</time>
      </trkpt>
      <trkpt lat="46.95581" lon="5.98763">
        <ele>637</ele>
        <time>2020-05-24T14:39:14.000Z</time>
      </trkpt>
      <trkpt lat="46.95583" lon="5.98766">
        <ele>637</ele>
        <time>2020-05-24T14:39:16.000Z</time>
      </trkpt>
      <trkpt lat="46.95585" lon="5.98769">
        <ele>637</ele>
        <time>2020-05-24T14:39:18.000Z</time>
      </trkpt>
      <trkpt lat="46.95586" lon="5.98772">
        <ele>637</ele>
        <time>2020-05-24T14:39:20.000Z</time>
      </trkpt>
      <trkpt lat="46.95588" lon="5.98775">
        <ele>637</ele>
        <time>2020-05-24T14:39:22.000Z</time>
      </trkpt>
      <trkpt lat="46.9559" lon="5.98777">
        <ele>637</ele>
        <time>2020-05-24T14:39:24.000Z</time>
      </trkpt>
      <trkpt lat="46.95592" lon="5.98779">
        <ele>637</ele>
        <time>2020-05-24T14:39:26.000Z</time>
      </trkpt>
      <trkpt lat="46.95594" lon="5.9878">
        <ele>637</ele>
        <time>2020-05-24T14:39:28.000Z</time>
      </trkpt>
      <trkpt lat="46.95597" lon="5.98781">
        <ele>638</ele>
        <time>2020-05-24T14:39:30.000Z</time>
      </trkpt>
      <trkpt lat="46.95599" lon="5.98783">
        <ele>638</ele>
        <time>2020-05-24T14:39:32.000Z</time>
      </trkpt>
      <trkpt lat="46.95601" lon="5.98783">
        <ele>638</ele>
        <time>2020-05-24T14:39:34.000Z</time>
      </trkpt>
      <trkpt lat="46.95603" lon="5.98784">
        <ele>638</ele>
        <time>2020-05-24T14:39:37.000Z</time>
      </trkpt>
      <trkpt lat="46.95605" lon="5.98785">
        <ele>638</ele>
        <time>2020-05-24T14:39:39.000Z</time>
      </trkpt>
      <trkpt lat="46.95607" lon="5.98786">
        <ele>638</ele>
        <time>2020-05-24T14:39:41.000Z</time>
      </trkpt>
      <trkpt lat="46.95609" lon="5.98787">
        <ele>638</ele>
        <time>2020-05-24T14:39:43.000Z</time>
      </trkpt>
      <trkpt lat="46.95611" lon="5.98788">
        <ele>638</ele>
        <time>2020-05-24T14:39:45.000Z</time>
      </trkpt>
      <trkpt lat="46.95614" lon="5.98789">
        <ele>639</ele>
        <time>2020-05-24T14:39:47.000Z</time>
      </trkpt>
      <trkpt lat="46.95616" lon="5.9879">
        <ele>639</ele>
        <time>2020-05-24T14:39:49.000Z</time>
      </trkpt>
      <trkpt lat="46.95618" lon="5.98792">
        <ele>639</ele>
        <time>2020-05-24T14:39:51.000Z</time>
      </trkpt>
      <trkpt lat="46.95621" lon="5.98793">
        <ele>639</ele>
        <time>2020-05-24T14:39:53.000Z</time>
      </trkpt>
      <trkpt lat="46.95623" lon="5.98794">
        <ele>639</ele>
        <time>2020-05-24T14:39:55.000Z</time>
      </trkpt>
      <trkpt lat="46.95625" lon="5.98796">
        <ele>639</ele>
        <time>2020-05-24T14:39:57.000Z</time>
      </trkpt>
      <trkpt lat="46.95627" lon="5.98798">
        <ele>639</ele>
        <time>2020-05-24T14:39:59.000Z</time>
      </trkpt>
      <trkpt lat="46.95629" lon="5.98798">
        <ele>639</ele>
        <time>2020-05-24T14:40:01.000Z</time>
      </trkpt>
      <trkpt lat="46.95631" lon="5.98798">
        <ele>639</ele>
        <time>2020-05-24T14:40:03.000Z</time>
      </trkpt>
      <trkpt lat="46.95634" lon="5.98799">
        <ele>639</ele>
        <time>2020-05-24T14:40:05.000Z</time>
      </trkpt>
      <trkpt lat="46.95636" lon="5.988">
        <ele>639</ele>
        <time>2020-05-24T14:40:07.000Z</time>
      </trkpt>
      <trkpt lat="46.95638" lon="5.98801">
        <ele>639</ele>
        <time>2020-05-24T14:40:09.000Z</time>
      </trkpt>
      <trkpt lat="46.9564" lon="5.98802">
        <ele>639</ele>
        <time>2020-05-24T14:40:11.000Z</time>
      </trkpt>
      <trkpt lat="46.95643" lon="5.98803">
        <ele>639</ele>
        <time>2020-05-24T14:40:13.000Z</time>
      </trkpt>
      <trkpt lat="46.95645" lon="5.98803">
        <ele>639</ele>
        <time>2020-05-24T14:40:15.000Z</time>
      </trkpt>
      <trkpt lat="46.95647" lon="5.98803">
        <ele>639</ele>
        <time>2020-05-24T14:40:17.000Z</time>
      </trkpt>
      <trkpt lat="46.95649" lon="5.98801">
        <ele>639</ele>
        <time>2020-05-24T14:40:19.000Z</time>
      </trkpt>
      <trkpt lat="46.95651" lon="5.98799">
        <ele>639</ele>
        <time>2020-05-24T14:40:21.000Z</time>
      </trkpt>
      <trkpt lat="46.95653" lon="5.98798">
        <ele>640</ele>
        <time>2020-05-24T14:40:23.000Z</time>
      </trkpt>
      <trkpt lat="46.95654" lon="5.98796">
        <ele>640</ele>
        <time>2020-05-24T14:40:25.000Z</time>
      </trkpt>
      <trkpt lat="46.95656" lon="5.98794">
        <ele>640</ele>
        <time>2020-05-24T14:40:27.000Z</time>
      </trkpt>
      <trkpt lat="46.95658" lon="5.98793">
        <ele>640</ele>
        <time>2020-05-24T14:40:29.000Z</time>
      </trkpt>
      <trkpt lat="46.9566" lon="5.98792">
        <ele>640</ele>
        <time>2020-05-24T14:40:31.000Z</time>
      </trkpt>
      <trkpt lat="46.95662" lon="5.9879">
        <ele>640</ele>
        <time>2020-05-24T14:40:33.000Z</time>
      </trkpt>
      <trkpt lat="46.95664" lon="5.98788">
        <ele>641</ele>
        <time>2020-05-24T14:40:35.000Z</time>
      </trkpt>
      <trkpt lat="46.95666" lon="5.98787">
        <ele>641</ele>
        <time>2020-05-24T14:40:37.000Z</time>
      </trkpt>
      <trkpt lat="46.95669" lon="5.98786">
        <ele>641</ele>
        <time>2020-05-24T14:40:39.000Z</time>
      </trkpt>
      <trkpt lat="46.95672" lon="5.98785">
        <ele>641.10156</ele>
        <time>2020-05-24T14:40:41.000Z</time>
      </trkpt>
      <trkpt lat="46.95674" lon="5.98785">
        <ele>641.96551369006</ele>
        <time>2020-05-24T14:40:43.000Z</time>
      </trkpt>
      <trkpt lat="46.95677" lon="5.98785">
        <ele>641</ele>
        <time>2020-05-24T14:40:45.000Z</time>
      </trkpt>
      <trkpt lat="46.95679" lon="5.98785">
        <ele>641</ele>
        <time>2020-05-24T14:40:47.000Z</time>
      </trkpt>
      <trkpt lat="46.95681" lon="5.98786">
        <ele>641</ele>
        <time>2020-05-24T14:40:49.000Z</time>
      </trkpt>
      <trkpt lat="46.95683" lon="5.98786">
        <ele>641</ele>
        <time>2020-05-24T14:40:51.000Z</time>
      </trkpt>
      <trkpt lat="46.95686" lon="5.98787">
        <ele>641</ele>
        <time>2020-05-24T14:40:53.000Z</time>
      </trkpt>
      <trkpt lat="46.95688" lon="5.98789">
        <ele>641.09090664972</ele>
        <time>2020-05-24T14:40:55.000Z</time>
      </trkpt>
      <trkpt lat="46.9569" lon="5.98791">
        <ele>642</ele>
        <time>2020-05-24T14:40:57.000Z</time>
      </trkpt>
      <trkpt lat="46.95692" lon="5.98792">
        <ele>642</ele>
        <time>2020-05-24T14:40:59.000Z</time>
      </trkpt>
      <trkpt lat="46.95694" lon="5.98794">
        <ele>642</ele>
        <time>2020-05-24T14:41:01.000Z</time>
      </trkpt>
      <trkpt lat="46.95696" lon="5.98795">
        <ele>642</ele>
        <time>2020-05-24T14:41:03.000Z</time>
      </trkpt>
      <trkpt lat="46.95698" lon="5.98796">
        <ele>642</ele>
        <time>2020-05-24T14:41:05.000Z</time>
      </trkpt>
      <trkpt lat="46.957" lon="5.98797">
        <ele>642</ele>
        <time>2020-05-24T14:41:07.000Z</time>
      </trkpt>
      <trkpt lat="46.95702" lon="5.98799">
        <ele>642</ele>
        <time>2020-05-24T14:41:09.000Z</time>
      </trkpt>
      <trkpt lat="46.95704" lon="5.98801">
        <ele>642</ele>
        <time>2020-05-24T14:41:11.000Z</time>
      </trkpt>
      <trkpt lat="46.95706" lon="5.98803">
        <ele>642.15238141678</ele>
        <time>2020-05-24T14:41:13.000Z</time>
      </trkpt>
      <trkpt lat="46.95708" lon="5.98804">
        <ele>643</ele>
        <time>2020-05-24T14:41:15.000Z</time>
      </trkpt>
      <trkpt lat="46.9571" lon="5.98806">
        <ele>644</ele>
        <time>2020-05-24T14:41:17.000Z</time>
      </trkpt>
      <trkpt lat="46.95712" lon="5.98808">
        <ele>644</ele>
        <time>2020-05-24T14:41:19.000Z</time>
      </trkpt>
      <trkpt lat="46.95714" lon="5.98809">
        <ele>644</ele>
        <time>2020-05-24T14:41:21.000Z</time>
      </trkpt>
      <trkpt lat="46.95716" lon="5.98811">
        <ele>644.14285154515</ele>
        <time>2020-05-24T14:41:23.000Z</time>
      </trkpt>
      <trkpt lat="46.95718" lon="5.98813">
        <ele>645</ele>
        <time>2020-05-24T14:41:25.000Z</time>
      </trkpt>
      <trkpt lat="46.95719" lon="5.98815">
        <ele>645</ele>
        <time>2020-05-24T14:41:27.000Z</time>
      </trkpt>
      <trkpt lat="46.95721" lon="5.98817">
        <ele>645</ele>
        <time>2020-05-24T14:41:29.000Z</time>
      </trkpt>
      <trkpt lat="46.95723" lon="5.98818">
        <ele>645</ele>
        <time>2020-05-24T14:41:31.000Z</time>
      </trkpt>
      <trkpt lat="46.95725" lon="5.9882">
        <ele>646</ele>
        <time>2020-05-24T14:41:33.000Z</time>
      </trkpt>
      <trkpt lat="46.95727" lon="5.98821">
        <ele>646.79167111111</ele>
        <time>2020-05-24T14:41:35.000Z</time>
      </trkpt>
      <trkpt lat="46.95728" lon="5.98823">
        <ele>647</ele>
        <time>2020-05-24T14:41:37.000Z</time>
      </trkpt>
      <trkpt lat="46.9573" lon="5.98825">
        <ele>647</ele>
        <time>2020-05-24T14:41:39.000Z</time>
      </trkpt>
      <trkpt lat="46.95732" lon="5.98827">
        <ele>647</ele>
        <time>2020-05-24T14:41:41.000Z</time>
      </trkpt>
      <trkpt lat="46.95734" lon="5.98829">
        <ele>647</ele>
        <time>2020-05-24T14:41:43.000Z</time>
      </trkpt>
      <trkpt lat="46.95736" lon="5.9883">
        <ele>647</ele>
        <time>2020-05-24T14:41:45.000Z</time>
      </trkpt>
      <trkpt lat="46.95738" lon="5.98831">
        <ele>647</ele>
        <time>2020-05-24T14:41:47.000Z</time>
      </trkpt>
      <trkpt lat="46.9574" lon="5.98833">
        <ele>647</ele>
        <time>2020-05-24T14:41:49.000Z</time>
      </trkpt>
      <trkpt lat="46.95742" lon="5.98835">
        <ele>647</ele>
        <time>2020-05-24T14:41:51.000Z</time>
      </trkpt>
      <trkpt lat="46.95744" lon="5.98836">
        <ele>648</ele>
        <time>2020-05-24T14:41:53.000Z</time>
      </trkpt>
      <trkpt lat="46.95746" lon="5.98837">
        <ele>648</ele>
        <time>2020-05-24T14:41:55.000Z</time>
      </trkpt>
      <trkpt lat="46.95748" lon="5.98839">
        <ele>648</ele>
        <time>2020-05-24T14:41:57.000Z</time>
      </trkpt>
      <trkpt lat="46.9575" lon="5.9884">
        <ele>648</ele>
        <time>2020-05-24T14:41:59.000Z</time>
      </trkpt>
      <trkpt lat="46.95751" lon="5.98841">
        <ele>648</ele>
        <time>2020-05-24T14:42:01.000Z</time>
      </trkpt>
      <trkpt lat="46.95754" lon="5.98843">
        <ele>648</ele>
        <time>2020-05-24T14:42:03.000Z</time>
      </trkpt>
      <trkpt lat="46.95756" lon="5.98844">
        <ele>648</ele>
        <time>2020-05-24T14:42:05.000Z</time>
      </trkpt>
      <trkpt lat="46.95758" lon="5.98846">
        <ele>648</ele>
        <time>2020-05-24T14:42:07.000Z</time>
      </trkpt>
      <trkpt lat="46.9576" lon="5.98848">
        <ele>648</ele>
        <time>2020-05-24T14:42:09.000Z</time>
      </trkpt>
      <trkpt lat="46.95762" lon="5.9885">
        <ele>648</ele>
        <time>2020-05-24T14:42:11.000Z</time>
      </trkpt>
      <trkpt lat="46.95764" lon="5.98851">
        <ele>648.08130580473</ele>
        <time>2020-05-24T14:42:13.000Z</time>
      </trkpt>
      <trkpt lat="46.95766" lon="5.98853">
        <ele>649</ele>
        <time>2020-05-24T14:42:15.000Z</time>
      </trkpt>
      <trkpt lat="46.95769" lon="5.98855">
        <ele>649</ele>
        <time>2020-05-24T14:42:17.000Z</time>
      </trkpt>
      <trkpt lat="46.95771" lon="5.98857">
        <ele>649</ele>
        <time>2020-05-24T14:42:19.000Z</time>
      </trkpt>
      <trkpt lat="46.95773" lon="5.98859">
        <ele>649</ele>
        <time>2020-05-24T14:42:21.000Z</time>
      </trkpt>
      <trkpt lat="46.95774" lon="5.98862">
        <ele>649</ele>
        <time>2020-05-24T14:42:23.000Z</time>
      </trkpt>
      <trkpt lat="46.95776" lon="5.98864">
        <ele>649</ele>
        <time>2020-05-24T14:42:25.000Z</time>
      </trkpt>
      <trkpt lat="46.95779" lon="5.98866">
        <ele>649.16</ele>
        <time>2020-05-24T14:42:27.000Z</time>
      </trkpt>
      <trkpt lat="46.95781" lon="5.98868">
        <ele>650</ele>
        <time>2020-05-24T14:42:29.000Z</time>
      </trkpt>
      <trkpt lat="46.95783" lon="5.9887">
        <ele>650</ele>
        <time>2020-05-24T14:42:31.000Z</time>
      </trkpt>
      <trkpt lat="46.95785" lon="5.98872">
        <ele>650</ele>
        <time>2020-05-24T14:42:33.000Z</time>
      </trkpt>
      <trkpt lat="46.95788" lon="5.98873">
        <ele>650</ele>
        <time>2020-05-24T14:42:35.000Z</time>
      </trkpt>
      <trkpt lat="46.9579" lon="5.98875">
        <ele>650</ele>
        <time>2020-05-24T14:42:37.000Z</time>
      </trkpt>
      <trkpt lat="46.95792" lon="5.98877">
        <ele>650</ele>
        <time>2020-05-24T14:42:39.000Z</time>
      </trkpt>
      <trkpt lat="46.95794" lon="5.98879">
        <ele>650</ele>
        <time>2020-05-24T14:42:41.000Z</time>
      </trkpt>
      <trkpt lat="46.95796" lon="5.98881">
        <ele>650</ele>
        <time>2020-05-24T14:42:43.000Z</time>
      </trkpt>
      <trkpt lat="46.95798" lon="5.98883">
        <ele>650</ele>
        <time>2020-05-24T14:42:45.000Z</time>
      </trkpt>
      <trkpt lat="46.958" lon="5.98885">
        <ele>650</ele>
        <time>2020-05-24T14:42:47.000Z</time>
      </trkpt>
      <trkpt lat="46.95802" lon="5.98887">
        <ele>650</ele>
        <time>2020-05-24T14:42:49.000Z</time>
      </trkpt>
      <trkpt lat="46.95804" lon="5.98889">
        <ele>651</ele>
        <time>2020-05-24T14:42:51.000Z</time>
      </trkpt>
      <trkpt lat="46.95806" lon="5.9889">
        <ele>651</ele>
        <time>2020-05-24T14:42:53.000Z</time>
      </trkpt>
      <trkpt lat="46.95809" lon="5.98891">
        <ele>651</ele>
        <time>2020-05-24T14:42:55.000Z</time>
      </trkpt>
      <trkpt lat="46.95811" lon="5.98892">
        <ele>651</ele>
        <time>2020-05-24T14:42:57.000Z</time>
      </trkpt>
      <trkpt lat="46.95813" lon="5.98893">
        <ele>651</ele>
        <time>2020-05-24T14:42:59.000Z</time>
      </trkpt>
      <trkpt lat="46.95815" lon="5.98895">
        <ele>651.10958856071</ele>
        <time>2020-05-24T14:43:01.000Z</time>
      </trkpt>
      <trkpt lat="46.95817" lon="5.98897">
        <ele>652</ele>
        <time>2020-05-24T14:43:03.000Z</time>
      </trkpt>
      <trkpt lat="46.9582" lon="5.98898">
        <ele>651.84</ele>
        <time>2020-05-24T14:43:05.000Z</time>
      </trkpt>
      <trkpt lat="46.95822" lon="5.98899">
        <ele>652</ele>
        <time>2020-05-24T14:43:07.000Z</time>
      </trkpt>
      <trkpt lat="46.95825" lon="5.989">
        <ele>652.16</ele>
        <time>2020-05-24T14:43:09.000Z</time>
      </trkpt>
      <trkpt lat="46.95827" lon="5.98901">
        <ele>653</ele>
        <time>2020-05-24T14:43:11.000Z</time>
      </trkpt>
      <trkpt lat="46.9583" lon="5.98901">
        <ele>653</ele>
        <time>2020-05-24T14:43:13.000Z</time>
      </trkpt>
      <trkpt lat="46.95832" lon="5.98902">
        <ele>653</ele>
        <time>2020-05-24T14:43:15.000Z</time>
      </trkpt>
      <trkpt lat="46.95835" lon="5.98902">
        <ele>653</ele>
        <time>2020-05-24T14:43:17.000Z</time>
      </trkpt>
      <trkpt lat="46.95838" lon="5.98903">
        <ele>653</ele>
        <time>2020-05-24T14:43:19.000Z</time>
      </trkpt>
      <trkpt lat="46.9584" lon="5.98903">
        <ele>653</ele>
        <time>2020-05-24T14:43:21.000Z</time>
      </trkpt>
      <trkpt lat="46.95843" lon="5.98904">
        <ele>654</ele>
        <time>2020-05-24T14:43:23.000Z</time>
      </trkpt>
      <trkpt lat="46.95845" lon="5.98903">
        <ele>654</ele>
        <time>2020-05-24T14:43:25.000Z</time>
      </trkpt>
      <trkpt lat="46.95848" lon="5.98903">
        <ele>654</ele>
        <time>2020-05-24T14:43:27.000Z</time>
      </trkpt>
      <trkpt lat="46.9585" lon="5.98904">
        <ele>654</ele>
        <time>2020-05-24T14:43:29.000Z</time>
      </trkpt>
      <trkpt lat="46.95853" lon="5.98904">
        <ele>654</ele>
        <time>2020-05-24T14:43:31.000Z</time>
      </trkpt>
      <trkpt lat="46.95855" lon="5.98903">
        <ele>654</ele>
        <time>2020-05-24T14:43:33.000Z</time>
      </trkpt>
      <trkpt lat="46.95858" lon="5.98903">
        <ele>654</ele>
        <time>2020-05-24T14:43:35.000Z</time>
      </trkpt>
      <trkpt lat="46.9586" lon="5.98903">
        <ele>654</ele>
        <time>2020-05-24T14:43:37.000Z</time>
      </trkpt>
      <trkpt lat="46.95862" lon="5.98902">
        <ele>655</ele>
        <time>2020-05-24T14:43:39.000Z</time>
      </trkpt>
      <trkpt lat="46.95865" lon="5.98901">
        <ele>655</ele>
        <time>2020-05-24T14:43:41.000Z</time>
      </trkpt>
      <trkpt lat="46.95868" lon="5.989">
        <ele>655</ele>
        <time>2020-05-24T14:43:43.000Z</time>
      </trkpt>
      <trkpt lat="46.9587" lon="5.989">
        <ele>655</ele>
        <time>2020-05-24T14:43:45.000Z</time>
      </trkpt>
      <trkpt lat="46.95872" lon="5.98899">
        <ele>656</ele>
        <time>2020-05-24T14:43:47.000Z</time>
      </trkpt>
      <trkpt lat="46.95874" lon="5.98898">
        <ele>656</ele>
        <time>2020-05-24T14:43:49.000Z</time>
      </trkpt>
      <trkpt lat="46.95877" lon="5.98897">
        <ele>656</ele>
        <time>2020-05-24T14:43:51.000Z</time>
      </trkpt>
      <trkpt lat="46.95879" lon="5.98895">
        <ele>656</ele>
        <time>2020-05-24T14:43:53.000Z</time>
      </trkpt>
      <trkpt lat="46.95881" lon="5.98895">
        <ele>657</ele>
        <time>2020-05-24T14:43:55.000Z</time>
      </trkpt>
      <trkpt lat="46.95884" lon="5.98895">
        <ele>657</ele>
        <time>2020-05-24T14:43:57.000Z</time>
      </trkpt>
      <trkpt lat="46.95886" lon="5.98894">
        <ele>657</ele>
        <time>2020-05-24T14:43:59.000Z</time>
      </trkpt>
      <trkpt lat="46.95888" lon="5.98894">
        <ele>656.84615384615</ele>
        <time>2020-05-24T14:44:01.000Z</time>
      </trkpt>
      <trkpt lat="46.9589" lon="5.98894">
        <ele>656.13333333333</ele>
        <time>2020-05-24T14:44:03.000Z</time>
      </trkpt>
      <trkpt lat="46.95893" lon="5.98893">
        <ele>657</ele>
        <time>2020-05-24T14:44:05.000Z</time>
      </trkpt>
      <trkpt lat="46.95895" lon="5.98892">
        <ele>657</ele>
        <time>2020-05-24T14:44:07.000Z</time>
      </trkpt>
      <trkpt lat="46.95897" lon="5.9889">
        <ele>657</ele>
        <time>2020-05-24T14:44:09.000Z</time>
      </trkpt>
      <trkpt lat="46.959" lon="5.98891">
        <ele>657</ele>
        <time>2020-05-24T14:44:11.000Z</time>
      </trkpt>
      <trkpt lat="46.95902" lon="5.98891">
        <ele>657</ele>
        <time>2020-05-24T14:44:13.000Z</time>
      </trkpt>
      <trkpt lat="46.95905" lon="5.98892">
        <ele>657</ele>
        <time>2020-05-24T14:44:15.000Z</time>
      </trkpt>
      <trkpt lat="46.95907" lon="5.98892">
        <ele>657</ele>
        <time>2020-05-24T14:44:17.000Z</time>
      </trkpt>
      <trkpt lat="46.95909" lon="5.98892">
        <ele>657</ele>
        <time>2020-05-24T14:44:19.000Z</time>
      </trkpt>
      <trkpt lat="46.95911" lon="5.98892">
        <ele>657</ele>
        <time>2020-05-24T14:44:21.000Z</time>
      </trkpt>
      <trkpt lat="46.95913" lon="5.98892">
        <ele>657</ele>
        <time>2020-05-24T14:44:23.000Z</time>
      </trkpt>
      <trkpt lat="46.95916" lon="5.98893">
        <ele>657</ele>
        <time>2020-05-24T14:44:25.000Z</time>
      </trkpt>
      <trkpt lat="46.95918" lon="5.98893">
        <ele>657</ele>
        <time>2020-05-24T14:44:27.000Z</time>
      </trkpt>
      <trkpt lat="46.95921" lon="5.98895">
        <ele>657</ele>
        <time>2020-05-24T14:44:29.000Z</time>
      </trkpt>
      <trkpt lat="46.95923" lon="5.98898">
        <ele>658</ele>
        <time>2020-05-24T14:44:31.000Z</time>
      </trkpt>
      <trkpt lat="46.95925" lon="5.98899">
        <ele>658</ele>
        <time>2020-05-24T14:44:33.000Z</time>
      </trkpt>
      <trkpt lat="46.95927" lon="5.989">
        <ele>658</ele>
        <time>2020-05-24T14:44:35.000Z</time>
      </trkpt>
      <trkpt lat="46.95929" lon="5.98902">
        <ele>658</ele>
        <time>2020-05-24T14:44:37.000Z</time>
      </trkpt>
      <trkpt lat="46.95932" lon="5.98903">
        <ele>658</ele>
        <time>2020-05-24T14:44:39.000Z</time>
      </trkpt>
      <trkpt lat="46.95934" lon="5.98905">
        <ele>658</ele>
        <time>2020-05-24T14:44:41.000Z</time>
      </trkpt>
      <trkpt lat="46.95936" lon="5.98907">
        <ele>659</ele>
        <time>2020-05-24T14:44:43.000Z</time>
      </trkpt>
      <trkpt lat="46.95938" lon="5.98909">
        <ele>659</ele>
        <time>2020-05-24T14:44:45.000Z</time>
      </trkpt>
      <trkpt lat="46.9594" lon="5.9891">
        <ele>659</ele>
        <time>2020-05-24T14:44:47.000Z</time>
      </trkpt>
      <trkpt lat="46.95943" lon="5.98912">
        <ele>660</ele>
        <time>2020-05-24T14:44:49.000Z</time>
      </trkpt>
      <trkpt lat="46.95945" lon="5.98914">
        <ele>660</ele>
        <time>2020-05-24T14:44:51.000Z</time>
      </trkpt>
      <trkpt lat="46.95947" lon="5.98915">
        <ele>660</ele>
        <time>2020-05-24T14:44:53.000Z</time>
      </trkpt>
      <trkpt lat="46.95949" lon="5.98917">
        <ele>660</ele>
        <time>2020-05-24T14:44:55.000Z</time>
      </trkpt>
      <trkpt lat="46.9595" lon="5.98919">
        <ele>660</ele>
        <time>2020-05-24T14:44:57.000Z</time>
      </trkpt>
      <trkpt lat="46.95952" lon="5.98921">
        <ele>660</ele>
        <time>2020-05-24T14:44:59.000Z</time>
      </trkpt>
      <trkpt lat="46.95954" lon="5.98923">
        <ele>660</ele>
        <time>2020-05-24T14:45:01.000Z</time>
      </trkpt>
      <trkpt lat="46.95956" lon="5.98926">
        <ele>660</ele>
        <time>2020-05-24T14:45:03.000Z</time>
      </trkpt>
      <trkpt lat="46.95958" lon="5.98927">
        <ele>661</ele>
        <time>2020-05-24T14:45:05.000Z</time>
      </trkpt>
      <trkpt lat="46.9596" lon="5.98929">
        <ele>662</ele>
        <time>2020-05-24T14:45:07.000Z</time>
      </trkpt>
      <trkpt lat="46.95963" lon="5.98931">
        <ele>662</ele>
        <time>2020-05-24T14:45:09.000Z</time>
      </trkpt>
      <trkpt lat="46.95965" lon="5.98933">
        <ele>662.125</ele>
        <time>2020-05-24T14:45:11.000Z</time>
      </trkpt>
      <trkpt lat="46.95967" lon="5.98934">
        <ele>663</ele>
        <time>2020-05-24T14:45:13.000Z</time>
      </trkpt>
      <trkpt lat="46.95969" lon="5.98936">
        <ele>663</ele>
        <time>2020-05-24T14:45:15.000Z</time>
      </trkpt>
      <trkpt lat="46.95971" lon="5.98938">
        <ele>663</ele>
        <time>2020-05-24T14:45:17.000Z</time>
      </trkpt>
      <trkpt lat="46.95973" lon="5.9894">
        <ele>663</ele>
        <time>2020-05-24T14:45:19.000Z</time>
      </trkpt>
      <trkpt lat="46.95975" lon="5.98942">
        <ele>663.16</ele>
        <time>2020-05-24T14:45:21.000Z</time>
      </trkpt>
      <trkpt lat="46.95977" lon="5.98944">
        <ele>663.92753193029</ele>
        <time>2020-05-24T14:45:23.000Z</time>
      </trkpt>
      <trkpt lat="46.95979" lon="5.98946">
        <ele>663</ele>
        <time>2020-05-24T14:45:25.000Z</time>
      </trkpt>
      <trkpt lat="46.95981" lon="5.98948">
        <ele>663</ele>
        <time>2020-05-24T14:45:27.000Z</time>
      </trkpt>
      <trkpt lat="46.95984" lon="5.9895">
        <ele>663</ele>
        <time>2020-05-24T14:45:29.000Z</time>
      </trkpt>
      <trkpt lat="46.95986" lon="5.98951">
        <ele>664</ele>
        <time>2020-05-24T14:45:31.000Z</time>
      </trkpt>
      <trkpt lat="46.95987" lon="5.98954">
        <ele>664</ele>
        <time>2020-05-24T14:45:33.000Z</time>
      </trkpt>
      <trkpt lat="46.95989" lon="5.98957">
        <ele>664</ele>
        <time>2020-05-24T14:45:35.000Z</time>
      </trkpt>
      <trkpt lat="46.95991" lon="5.98959">
        <ele>664</ele>
        <time>2020-05-24T14:45:37.000Z</time>
      </trkpt>
      <trkpt lat="46.95993" lon="5.9896">
        <ele>664.16</ele>
        <time>2020-05-24T14:45:39.000Z</time>
      </trkpt>
      <trkpt lat="46.95995" lon="5.98962">
        <ele>665</ele>
        <time>2020-05-24T14:45:41.000Z</time>
      </trkpt>
      <trkpt lat="46.95997" lon="5.98965">
        <ele>665</ele>
        <time>2020-05-24T14:45:43.000Z</time>
      </trkpt>
      <trkpt lat="46.95998" lon="5.98967">
        <ele>666</ele>
        <time>2020-05-24T14:45:45.000Z</time>
      </trkpt>
      <trkpt lat="46.96" lon="5.98969">
        <ele>666</ele>
        <time>2020-05-24T14:45:47.000Z</time>
      </trkpt>
      <trkpt lat="46.96002" lon="5.98971">
        <ele>666</ele>
        <time>2020-05-24T14:45:49.000Z</time>
      </trkpt>
      <trkpt lat="46.96004" lon="5.98973">
        <ele>666.16</ele>
        <time>2020-05-24T14:45:51.000Z</time>
      </trkpt>
      <trkpt lat="46.96005" lon="5.98975">
        <ele>667</ele>
        <time>2020-05-24T14:45:53.000Z</time>
      </trkpt>
      <trkpt lat="46.96007" lon="5.98978">
        <ele>667</ele>
        <time>2020-05-24T14:45:55.000Z</time>
      </trkpt>
      <trkpt lat="46.96008" lon="5.9898">
        <ele>667</ele>
        <time>2020-05-24T14:45:57.000Z</time>
      </trkpt>
      <trkpt lat="46.9601" lon="5.98982">
        <ele>668</ele>
        <time>2020-05-24T14:45:59.000Z</time>
      </trkpt>
      <trkpt lat="46.96012" lon="5.98984">
        <ele>668.16</ele>
        <time>2020-05-24T14:46:01.000Z</time>
      </trkpt>
      <trkpt lat="46.96013" lon="5.98987">
        <ele>668.89655020215</ele>
        <time>2020-05-24T14:46:03.000Z</time>
      </trkpt>
      <trkpt lat="46.96015" lon="5.98989">
        <ele>668</ele>
        <time>2020-05-24T14:46:05.000Z</time>
      </trkpt>
      <trkpt lat="46.96017" lon="5.98992">
        <ele>668</ele>
        <time>2020-05-24T14:46:07.000Z</time>
      </trkpt>
      <trkpt lat="46.96019" lon="5.98994">
        <ele>668</ele>
        <time>2020-05-24T14:46:09.000Z</time>
      </trkpt>
      <trkpt lat="46.9602" lon="5.98997">
        <ele>668</ele>
        <time>2020-05-24T14:46:11.000Z</time>
      </trkpt>
      <trkpt lat="46.96022" lon="5.98999">
        <ele>668</ele>
        <time>2020-05-24T14:46:13.000Z</time>
      </trkpt>
      <trkpt lat="46.96024" lon="5.99002">
        <ele>668</ele>
        <time>2020-05-24T14:46:15.000Z</time>
      </trkpt>
      <trkpt lat="46.96025" lon="5.99005">
        <ele>668</ele>
        <time>2020-05-24T14:46:17.000Z</time>
      </trkpt>
      <trkpt lat="46.96027" lon="5.99007">
        <ele>668</ele>
        <time>2020-05-24T14:46:19.000Z</time>
      </trkpt>
      <trkpt lat="46.96028" lon="5.99009">
        <ele>668.14678942177</ele>
        <time>2020-05-24T14:46:21.000Z</time>
      </trkpt>
      <trkpt lat="46.9603" lon="5.99011">
        <ele>669</ele>
        <time>2020-05-24T14:46:23.000Z</time>
      </trkpt>
      <trkpt lat="46.96032" lon="5.99012">
        <ele>669</ele>
        <time>2020-05-24T14:46:25.000Z</time>
      </trkpt>
      <trkpt lat="46.96034" lon="5.99014">
        <ele>669</ele>
        <time>2020-05-24T14:46:27.000Z</time>
      </trkpt>
      <trkpt lat="46.96036" lon="5.99016">
        <ele>669</ele>
        <time>2020-05-24T14:46:29.000Z</time>
      </trkpt>
      <trkpt lat="46.96038" lon="5.99019">
        <ele>669</ele>
        <time>2020-05-24T14:46:31.000Z</time>
      </trkpt>
      <trkpt lat="46.9604" lon="5.9902">
        <ele>670</ele>
        <time>2020-05-24T14:46:33.000Z</time>
      </trkpt>
      <trkpt lat="46.96042" lon="5.99021">
        <ele>670</ele>
        <time>2020-05-24T14:46:35.000Z</time>
      </trkpt>
      <trkpt lat="46.96044" lon="5.99022">
        <ele>670</ele>
        <time>2020-05-24T14:46:37.000Z</time>
      </trkpt>
      <trkpt lat="46.96047" lon="5.99023">
        <ele>671</ele>
        <time>2020-05-24T14:46:39.000Z</time>
      </trkpt>
      <trkpt lat="46.96049" lon="5.99024">
        <ele>671</ele>
        <time>2020-05-24T14:46:41.000Z</time>
      </trkpt>
      <trkpt lat="46.96051" lon="5.99026">
        <ele>671</ele>
        <time>2020-05-24T14:46:43.000Z</time>
      </trkpt>
      <trkpt lat="46.96053" lon="5.99027">
        <ele>671</ele>
        <time>2020-05-24T14:46:45.000Z</time>
      </trkpt>
      <trkpt lat="46.96055" lon="5.99029">
        <ele>671.87301651801</ele>
        <time>2020-05-24T14:46:48.000Z</time>
      </trkpt>
      <trkpt lat="46.96057" lon="5.9903">
        <ele>671</ele>
        <time>2020-05-24T14:46:50.000Z</time>
      </trkpt>
      <trkpt lat="46.9606" lon="5.99032">
        <ele>671</ele>
        <time>2020-05-24T14:46:52.000Z</time>
      </trkpt>
      <trkpt lat="46.96062" lon="5.99033">
        <ele>672</ele>
        <time>2020-05-24T14:46:54.000Z</time>
      </trkpt>
      <trkpt lat="46.96064" lon="5.99034">
        <ele>672</ele>
        <time>2020-05-24T14:46:56.000Z</time>
      </trkpt>
      <trkpt lat="46.96067" lon="5.99035">
        <ele>672</ele>
        <time>2020-05-24T14:46:58.000Z</time>
      </trkpt>
      <trkpt lat="46.96069" lon="5.99036">
        <ele>672</ele>
        <time>2020-05-24T14:47:00.000Z</time>
      </trkpt>
      <trkpt lat="46.96072" lon="5.99037">
        <ele>672</ele>
        <time>2020-05-24T14:47:02.000Z</time>
      </trkpt>
      <trkpt lat="46.96074" lon="5.99038">
        <ele>671</ele>
        <time>2020-05-24T14:47:04.000Z</time>
      </trkpt>
      <trkpt lat="46.96077" lon="5.99038">
        <ele>671</ele>
        <time>2020-05-24T14:47:06.000Z</time>
      </trkpt>
      <trkpt lat="46.96079" lon="5.99039">
        <ele>671</ele>
        <time>2020-05-24T14:47:08.000Z</time>
      </trkpt>
      <trkpt lat="46.96082" lon="5.9904">
        <ele>671</ele>
        <time>2020-05-24T14:47:10.000Z</time>
      </trkpt>
      <trkpt lat="46.96084" lon="5.99042">
        <ele>672.10637689448</ele>
        <time>2020-05-24T14:47:12.000Z</time>
      </trkpt>
      <trkpt lat="46.96086" lon="5.99043">
        <ele>673</ele>
        <time>2020-05-24T14:47:14.000Z</time>
      </trkpt>
      <trkpt lat="46.96088" lon="5.99045">
        <ele>673</ele>
        <time>2020-05-24T14:47:16.000Z</time>
      </trkpt>
      <trkpt lat="46.9609" lon="5.99046">
        <ele>673</ele>
        <time>2020-05-24T14:47:18.000Z</time>
      </trkpt>
      <trkpt lat="46.96092" lon="5.99048">
        <ele>673</ele>
        <time>2020-05-24T14:47:20.000Z</time>
      </trkpt>
      <trkpt lat="46.96094" lon="5.99049">
        <ele>673</ele>
        <time>2020-05-24T14:47:22.000Z</time>
      </trkpt>
      <trkpt lat="46.96096" lon="5.9905">
        <ele>673</ele>
        <time>2020-05-24T14:47:24.000Z</time>
      </trkpt>
      <trkpt lat="46.96098" lon="5.99052">
        <ele>673</ele>
        <time>2020-05-24T14:47:26.000Z</time>
      </trkpt>
      <trkpt lat="46.961" lon="5.99053">
        <ele>673.90625</ele>
        <time>2020-05-24T14:47:28.000Z</time>
      </trkpt>
      <trkpt lat="46.96102" lon="5.99054">
        <ele>675</ele>
        <time>2020-05-24T14:47:30.000Z</time>
      </trkpt>
      <trkpt lat="46.96104" lon="5.99055">
        <ele>675</ele>
        <time>2020-05-24T14:47:32.000Z</time>
      </trkpt>
      <trkpt lat="46.96106" lon="5.99057">
        <ele>675</ele>
        <time>2020-05-24T14:47:34.000Z</time>
      </trkpt>
      <trkpt lat="46.96108" lon="5.99058">
        <ele>675</ele>
        <time>2020-05-24T14:47:36.000Z</time>
      </trkpt>
      <trkpt lat="46.9611" lon="5.9906">
        <ele>675</ele>
        <time>2020-05-24T14:47:38.000Z</time>
      </trkpt>
      <trkpt lat="46.96112" lon="5.99061">
        <ele>675</ele>
        <time>2020-05-24T14:47:40.000Z</time>
      </trkpt>
      <trkpt lat="46.96113" lon="5.99064">
        <ele>675</ele>
        <time>2020-05-24T14:47:42.000Z</time>
      </trkpt>
      <trkpt lat="46.96115" lon="5.99066">
        <ele>675</ele>
        <time>2020-05-24T14:47:44.000Z</time>
      </trkpt>
      <trkpt lat="46.96116" lon="5.99067">
        <ele>676</ele>
        <time>2020-05-24T14:47:46.000Z</time>
      </trkpt>
      <trkpt lat="46.96116" lon="5.99065">
        <ele>673.8499968</ele>
        <time>2020-05-24T14:48:58.000Z</time>
      </trkpt>
      <trkpt lat="46.96115" lon="5.99062">
        <ele>673</ele>
        <time>2020-05-24T14:51:56.000Z</time>
      </trkpt>
      <trkpt lat="46.96114" lon="5.99062">
        <ele>675</ele>
        <time>2020-05-24T14:52:17.000Z</time>
      </trkpt>
      <trkpt lat="46.96114" lon="5.9906">
        <ele>673</ele>
        <time>2020-05-24T14:54:55.000Z</time>
      </trkpt>
      <trkpt lat="46.96114" lon="5.99062">
        <ele>674</ele>
        <time>2020-05-24T14:56:04.000Z</time>
      </trkpt>
      <trkpt lat="46.96113" lon="5.99063">
        <ele>675</ele>
        <time>2020-05-24T14:56:54.000Z</time>
      </trkpt>
      <trkpt lat="46.9611" lon="5.99062">
        <ele>675</ele>
        <time>2020-05-24T14:56:57.000Z</time>
      </trkpt>
      <trkpt lat="46.96108" lon="5.99062">
        <ele>675</ele>
        <time>2020-05-24T14:57:00.000Z</time>
      </trkpt>
      <trkpt lat="46.96106" lon="5.99061">
        <ele>674</ele>
        <time>2020-05-24T14:57:03.000Z</time>
      </trkpt>
      <trkpt lat="46.96105" lon="5.99063">
        <ele>673</ele>
        <time>2020-05-24T14:57:08.000Z</time>
      </trkpt>
      <trkpt lat="46.96106" lon="5.99065">
        <ele>674</ele>
        <time>2020-05-24T14:57:47.000Z</time>
      </trkpt>
      <trkpt lat="46.96108" lon="5.99066">
        <ele>673.84</ele>
        <time>2020-05-24T14:58:26.000Z</time>
      </trkpt>
      <trkpt lat="46.96109" lon="5.99066">
        <ele>674</ele>
        <time>2020-05-24T14:58:46.000Z</time>
      </trkpt>
      <trkpt lat="46.96111" lon="5.99067">
        <ele>674</ele>
        <time>2020-05-24T14:58:48.000Z</time>
      </trkpt>
      <trkpt lat="46.96113" lon="5.99067">
        <ele>674</ele>
        <time>2020-05-24T14:58:51.000Z</time>
      </trkpt>
      <trkpt lat="46.96115" lon="5.99066">
        <ele>675</ele>
        <time>2020-05-24T14:58:54.000Z</time>
      </trkpt>
      <trkpt lat="46.96117" lon="5.99066">
        <ele>675</ele>
        <time>2020-05-24T14:58:57.000Z</time>
      </trkpt>
      <trkpt lat="46.96116" lon="5.99068">
        <ele>674</ele>
        <time>2020-05-24T14:59:26.000Z</time>
      </trkpt>
      <trkpt lat="46.96114" lon="5.9907">
        <ele>674</ele>
        <time>2020-05-24T14:59:30.000Z</time>
      </trkpt>
      <trkpt lat="46.96113" lon="5.99071">
        <ele>674</ele>
        <time>2020-05-24T14:59:33.000Z</time>
      </trkpt>
      <trkpt lat="46.96112" lon="5.99069">
        <ele>674</ele>
        <time>2020-05-24T15:00:00.000Z</time>
      </trkpt>
      <trkpt lat="46.96111" lon="5.99066">
        <ele>674</ele>
        <time>2020-05-24T15:00:04.000Z</time>
      </trkpt>
      <trkpt lat="46.9611" lon="5.99064">
        <ele>674</ele>
        <time>2020-05-24T15:00:51.000Z</time>
      </trkpt>
      <trkpt lat="46.96109" lon="5.99062">
        <ele>673</ele>
        <time>2020-05-24T15:00:54.000Z</time>
      </trkpt>
      <trkpt lat="46.96107" lon="5.99063">
        <ele>673</ele>
        <time>2020-05-24T15:01:55.000Z</time>
      </trkpt>
      <trkpt lat="46.96109" lon="5.99064">
        <ele>674</ele>
        <time>2020-05-24T15:03:15.000Z</time>
      </trkpt>
      <trkpt lat="46.96111" lon="5.99065">
        <ele>674</ele>
        <time>2020-05-24T15:03:18.000Z</time>
      </trkpt>
      <trkpt lat="46.96113" lon="5.99066">
        <ele>674</ele>
        <time>2020-05-24T15:03:20.000Z</time>
      </trkpt>
      <trkpt lat="46.96115" lon="5.99065">
        <ele>674</ele>
        <time>2020-05-24T15:03:22.000Z</time>
      </trkpt>
      <trkpt lat="46.96117" lon="5.99065">
        <ele>674</ele>
        <time>2020-05-24T15:03:26.000Z</time>
      </trkpt>
      <trkpt lat="46.96117" lon="5.99063">
        <ele>674</ele>
        <time>2020-05-24T15:04:12.000Z</time>
      </trkpt>
      <trkpt lat="46.96119" lon="5.9906">
        <ele>674</ele>
        <time>2020-05-24T15:04:17.000Z</time>
      </trkpt>
      <trkpt lat="46.96117" lon="5.99062">
        <ele>674</ele>
        <time>2020-05-24T15:04:31.000Z</time>
      </trkpt>
      <trkpt lat="46.96116" lon="5.99064">
        <ele>674</ele>
        <time>2020-05-24T15:04:33.000Z</time>
      </trkpt>
      <trkpt lat="46.96115" lon="5.99067">
        <ele>674</ele>
        <time>2020-05-24T15:04:35.000Z</time>
      </trkpt>
      <trkpt lat="46.96114" lon="5.99071">
        <ele>674</ele>
        <time>2020-05-24T15:04:37.000Z</time>
      </trkpt>
      <trkpt lat="46.96114" lon="5.99074">
        <ele>674</ele>
        <time>2020-05-24T15:04:39.000Z</time>
      </trkpt>
      <trkpt lat="46.96114" lon="5.99077">
        <ele>674</ele>
        <time>2020-05-24T15:04:41.000Z</time>
      </trkpt>
      <trkpt lat="46.96115" lon="5.9908">
        <ele>673</ele>
        <time>2020-05-24T15:04:43.000Z</time>
      </trkpt>
      <trkpt lat="46.96115" lon="5.99083">
        <ele>673</ele>
        <time>2020-05-24T15:04:45.000Z</time>
      </trkpt>
      <trkpt lat="46.96116" lon="5.99086">
        <ele>673</ele>
        <time>2020-05-24T15:04:47.000Z</time>
      </trkpt>
      <trkpt lat="46.96116" lon="5.99089">
        <ele>673</ele>
        <time>2020-05-24T15:04:49.000Z</time>
      </trkpt>
      <trkpt lat="46.96117" lon="5.99092">
        <ele>673</ele>
        <time>2020-05-24T15:04:51.000Z</time>
      </trkpt>
      <trkpt lat="46.96117" lon="5.99095">
        <ele>673</ele>
        <time>2020-05-24T15:04:53.000Z</time>
      </trkpt>
      <trkpt lat="46.96118" lon="5.99098">
        <ele>673</ele>
        <time>2020-05-24T15:04:55.000Z</time>
      </trkpt>
      <trkpt lat="46.96118" lon="5.99101">
        <ele>673</ele>
        <time>2020-05-24T15:04:57.000Z</time>
      </trkpt>
      <trkpt lat="46.96119" lon="5.99105">
        <ele>673</ele>
        <time>2020-05-24T15:04:59.000Z</time>
      </trkpt>
      <trkpt lat="46.96119" lon="5.99109">
        <ele>673</ele>
        <time>2020-05-24T15:05:01.000Z</time>
      </trkpt>
      <trkpt lat="46.9612" lon="5.99112">
        <ele>673</ele>
        <time>2020-05-24T15:05:03.000Z</time>
      </trkpt>
      <trkpt lat="46.96121" lon="5.99116">
        <ele>673</ele>
        <time>2020-05-24T15:05:05.000Z</time>
      </trkpt>
      <trkpt lat="46.96122" lon="5.99118">
        <ele>673</ele>
        <time>2020-05-24T15:05:07.000Z</time>
      </trkpt>
      <trkpt lat="46.96124" lon="5.99122">
        <ele>673</ele>
        <time>2020-05-24T15:05:09.000Z</time>
      </trkpt>
      <trkpt lat="46.96125" lon="5.99125">
        <ele>673</ele>
        <time>2020-05-24T15:05:11.000Z</time>
      </trkpt>
      <trkpt lat="46.96126" lon="5.99128">
        <ele>673</ele>
        <time>2020-05-24T15:05:13.000Z</time>
      </trkpt>
      <trkpt lat="46.96128" lon="5.99131">
        <ele>673</ele>
        <time>2020-05-24T15:05:15.000Z</time>
      </trkpt>
      <trkpt lat="46.9613" lon="5.99134">
        <ele>673</ele>
        <time>2020-05-24T15:05:17.000Z</time>
      </trkpt>
      <trkpt lat="46.96132" lon="5.99136">
        <ele>673</ele>
        <time>2020-05-24T15:05:19.000Z</time>
      </trkpt>
      <trkpt lat="46.96133" lon="5.99138">
        <ele>673</ele>
        <time>2020-05-24T15:05:21.000Z</time>
      </trkpt>
      <trkpt lat="46.96135" lon="5.99139">
        <ele>673</ele>
        <time>2020-05-24T15:05:23.000Z</time>
      </trkpt>
      <trkpt lat="46.96137" lon="5.99141">
        <ele>673</ele>
        <time>2020-05-24T15:05:27.000Z</time>
      </trkpt>
      <trkpt lat="46.96138" lon="5.99143">
        <ele>673.11678859396</ele>
        <time>2020-05-24T15:05:29.000Z</time>
      </trkpt>
      <trkpt lat="46.9614" lon="5.99144">
        <ele>674</ele>
        <time>2020-05-24T15:05:31.000Z</time>
      </trkpt>
      <trkpt lat="46.96142" lon="5.99145">
        <ele>674</ele>
        <time>2020-05-24T15:05:32.000Z</time>
      </trkpt>
      <trkpt lat="46.96145" lon="5.99148">
        <ele>673</ele>
        <time>2020-05-24T15:05:34.000Z</time>
      </trkpt>
      <trkpt lat="46.96147" lon="5.9915">
        <ele>673</ele>
        <time>2020-05-24T15:05:36.000Z</time>
      </trkpt>
      <trkpt lat="46.96149" lon="5.99153">
        <ele>673</ele>
        <time>2020-05-24T15:05:38.000Z</time>
      </trkpt>
      <trkpt lat="46.96152" lon="5.99154">
        <ele>673</ele>
        <time>2020-05-24T15:05:40.000Z</time>
      </trkpt>
      <trkpt lat="46.96154" lon="5.99155">
        <ele>672.85321057823</ele>
        <time>2020-05-24T15:05:42.000Z</time>
      </trkpt>
      <trkpt lat="46.96157" lon="5.99157">
        <ele>672</ele>
        <time>2020-05-24T15:05:44.000Z</time>
      </trkpt>
      <trkpt lat="46.96159" lon="5.99158">
        <ele>672.05617638176</ele>
        <time>2020-05-24T15:05:46.000Z</time>
      </trkpt>
      <trkpt lat="46.96162" lon="5.99158">
        <ele>673</ele>
        <time>2020-05-24T15:05:48.000Z</time>
      </trkpt>
      <trkpt lat="46.96164" lon="5.99159">
        <ele>673</ele>
        <time>2020-05-24T15:05:50.000Z</time>
      </trkpt>
      <trkpt lat="46.96172" lon="5.99164">
        <ele>674</ele>
        <time>2020-05-24T15:05:57.000Z</time>
      </trkpt>
      <trkpt lat="46.96174" lon="5.99165">
        <ele>674</ele>
        <time>2020-05-24T15:05:58.000Z</time>
      </trkpt>
      <trkpt lat="46.96175" lon="5.99167">
        <ele>674</ele>
        <time>2020-05-24T15:05:59.000Z</time>
      </trkpt>
      <trkpt lat="46.96177" lon="5.99168">
        <ele>674</ele>
        <time>2020-05-24T15:06:02.000Z</time>
      </trkpt>
      <trkpt lat="46.96177" lon="5.99171">
        <ele>674</ele>
        <time>2020-05-24T15:06:04.000Z</time>
      </trkpt>
      <trkpt lat="46.96179" lon="5.99174">
        <ele>674</ele>
        <time>2020-05-24T15:06:06.000Z</time>
      </trkpt>
      <trkpt lat="46.9618" lon="5.99176">
        <ele>674</ele>
        <time>2020-05-24T15:06:08.000Z</time>
      </trkpt>
      <trkpt lat="46.96182" lon="5.99178">
        <ele>674</ele>
        <time>2020-05-24T15:06:10.000Z</time>
      </trkpt>
      <trkpt lat="46.96183" lon="5.9918">
        <ele>674</ele>
        <time>2020-05-24T15:06:12.000Z</time>
      </trkpt>
      <trkpt lat="46.96185" lon="5.99183">
        <ele>674</ele>
        <time>2020-05-24T15:06:15.000Z</time>
      </trkpt>
      <trkpt lat="46.96187" lon="5.99185">
        <ele>674</ele>
        <time>2020-05-24T15:06:17.000Z</time>
      </trkpt>
      <trkpt lat="46.96188" lon="5.99188">
        <ele>674</ele>
        <time>2020-05-24T15:06:19.000Z</time>
      </trkpt>
      <trkpt lat="46.9619" lon="5.99189">
        <ele>674</ele>
        <time>2020-05-24T15:06:21.000Z</time>
      </trkpt>
      <trkpt lat="46.96191" lon="5.99192">
        <ele>674</ele>
        <time>2020-05-24T15:06:24.000Z</time>
      </trkpt>
      <trkpt lat="46.96191" lon="5.99194">
        <ele>674</ele>
        <time>2020-05-24T15:06:42.000Z</time>
      </trkpt>
      <trkpt lat="46.96191" lon="5.99197">
        <ele>674</ele>
        <time>2020-05-24T15:07:28.000Z</time>
      </trkpt>
      <trkpt lat="46.96191" lon="5.992">
        <ele>674</ele>
        <time>2020-05-24T15:07:32.000Z</time>
      </trkpt>
      <trkpt lat="46.96191" lon="5.99203">
        <ele>674.16</ele>
        <time>2020-05-24T15:07:36.000Z</time>
      </trkpt>
      <trkpt lat="46.96192" lon="5.99206">
        <ele>676</ele>
        <time>2020-05-24T15:07:39.000Z</time>
      </trkpt>
      <trkpt lat="46.96194" lon="5.99209">
        <ele>676</ele>
        <time>2020-05-24T15:07:42.000Z</time>
      </trkpt>
      <trkpt lat="46.96194" lon="5.99212">
        <ele>676</ele>
        <time>2020-05-24T15:07:44.000Z</time>
      </trkpt>
      <trkpt lat="46.96196" lon="5.99215">
        <ele>676</ele>
        <time>2020-05-24T15:07:47.000Z</time>
      </trkpt>
      <trkpt lat="46.96198" lon="5.99217">
        <ele>676</ele>
        <time>2020-05-24T15:07:49.000Z</time>
      </trkpt>
      <trkpt lat="46.96198" lon="5.9922">
        <ele>676</ele>
        <time>2020-05-24T15:07:51.000Z</time>
      </trkpt>
      <trkpt lat="46.96199" lon="5.99224">
        <ele>676</ele>
        <time>2020-05-24T15:07:54.000Z</time>
      </trkpt>
      <trkpt lat="46.96201" lon="5.99227">
        <ele>677</ele>
        <time>2020-05-24T15:07:57.000Z</time>
      </trkpt>
      <trkpt lat="46.96202" lon="5.99229">
        <ele>677</ele>
        <time>2020-05-24T15:07:59.000Z</time>
      </trkpt>
      <trkpt lat="46.96203" lon="5.99231">
        <ele>677</ele>
        <time>2020-05-24T15:08:01.000Z</time>
      </trkpt>
      <trkpt lat="46.96205" lon="5.99234">
        <ele>677</ele>
        <time>2020-05-24T15:08:03.000Z</time>
      </trkpt>
      <trkpt lat="46.96205" lon="5.99237">
        <ele>677</ele>
        <time>2020-05-24T15:08:05.000Z</time>
      </trkpt>
      <trkpt lat="46.96206" lon="5.9924">
        <ele>677</ele>
        <time>2020-05-24T15:08:07.000Z</time>
      </trkpt>
      <trkpt lat="46.96207" lon="5.99242">
        <ele>677</ele>
        <time>2020-05-24T15:08:09.000Z</time>
      </trkpt>
      <trkpt lat="46.96208" lon="5.99245">
        <ele>677</ele>
        <time>2020-05-24T15:08:11.000Z</time>
      </trkpt>
      <trkpt lat="46.96209" lon="5.99248">
        <ele>678</ele>
        <time>2020-05-24T15:08:14.000Z</time>
      </trkpt>
      <trkpt lat="46.96211" lon="5.99251">
        <ele>678.15384615385</ele>
        <time>2020-05-24T15:08:17.000Z</time>
      </trkpt>
      <trkpt lat="46.96213" lon="5.99254">
        <ele>679</ele>
        <time>2020-05-24T15:08:20.000Z</time>
      </trkpt>
      <trkpt lat="46.96214" lon="5.99255">
        <ele>678</ele>
        <time>2020-05-24T15:08:23.000Z</time>
      </trkpt>
      <trkpt lat="46.96216" lon="5.99257">
        <ele>679</ele>
        <time>2020-05-24T15:08:26.000Z</time>
      </trkpt>
      <trkpt lat="46.96217" lon="5.9926">
        <ele>679</ele>
        <time>2020-05-24T15:08:28.000Z</time>
      </trkpt>
      <trkpt lat="46.96218" lon="5.99262">
        <ele>679</ele>
        <time>2020-05-24T15:08:30.000Z</time>
      </trkpt>
      <trkpt lat="46.96219" lon="5.99265">
        <ele>679</ele>
        <time>2020-05-24T15:08:32.000Z</time>
      </trkpt>
      <trkpt lat="46.96219" lon="5.99268">
        <ele>679</ele>
        <time>2020-05-24T15:08:34.000Z</time>
      </trkpt>
      <trkpt lat="46.96221" lon="5.9927">
        <ele>679.09523761149</ele>
        <time>2020-05-24T15:08:37.000Z</time>
      </trkpt>
      <trkpt lat="46.96222" lon="5.99273">
        <ele>680</ele>
        <time>2020-05-24T15:08:40.000Z</time>
      </trkpt>
      <trkpt lat="46.96223" lon="5.99276">
        <ele>680</ele>
        <time>2020-05-24T15:08:43.000Z</time>
      </trkpt>
      <trkpt lat="46.96225" lon="5.99279">
        <ele>680</ele>
        <time>2020-05-24T15:08:45.000Z</time>
      </trkpt>
      <trkpt lat="46.96225" lon="5.99281">
        <ele>680</ele>
        <time>2020-05-24T15:08:47.000Z</time>
      </trkpt>
      <trkpt lat="46.96226" lon="5.99284">
        <ele>680</ele>
        <time>2020-05-24T15:08:49.000Z</time>
      </trkpt>
      <trkpt lat="46.96227" lon="5.99287">
        <ele>680</ele>
        <time>2020-05-24T15:08:51.000Z</time>
      </trkpt>
      <trkpt lat="46.96229" lon="5.9929">
        <ele>680</ele>
        <time>2020-05-24T15:08:53.000Z</time>
      </trkpt>
      <trkpt lat="46.9623" lon="5.99293">
        <ele>680</ele>
        <time>2020-05-24T15:08:55.000Z</time>
      </trkpt>
      <trkpt lat="46.96231" lon="5.99295">
        <ele>681</ele>
        <time>2020-05-24T15:08:57.000Z</time>
      </trkpt>
      <trkpt lat="46.96233" lon="5.99298">
        <ele>681</ele>
        <time>2020-05-24T15:08:59.000Z</time>
      </trkpt>
      <trkpt lat="46.96234" lon="5.99301">
        <ele>681</ele>
        <time>2020-05-24T15:09:01.000Z</time>
      </trkpt>
      <trkpt lat="46.96235" lon="5.99304">
        <ele>681</ele>
        <time>2020-05-24T15:09:03.000Z</time>
      </trkpt>
      <trkpt lat="46.96237" lon="5.99307">
        <ele>681</ele>
        <time>2020-05-24T15:09:05.000Z</time>
      </trkpt>
      <trkpt lat="46.96238" lon="5.99309">
        <ele>681</ele>
        <time>2020-05-24T15:09:07.000Z</time>
      </trkpt>
      <trkpt lat="46.96238" lon="5.99312">
        <ele>681</ele>
        <time>2020-05-24T15:09:09.000Z</time>
      </trkpt>
      <trkpt lat="46.96239" lon="5.99315">
        <ele>681</ele>
        <time>2020-05-24T15:09:11.000Z</time>
      </trkpt>
      <trkpt lat="46.96241" lon="5.99318">
        <ele>681</ele>
        <time>2020-05-24T15:09:13.000Z</time>
      </trkpt>
      <trkpt lat="46.96242" lon="5.99321">
        <ele>681</ele>
        <time>2020-05-24T15:09:15.000Z</time>
      </trkpt>
      <trkpt lat="46.96244" lon="5.99323">
        <ele>681</ele>
        <time>2020-05-24T15:09:17.000Z</time>
      </trkpt>
      <trkpt lat="46.96245" lon="5.99325">
        <ele>681</ele>
        <time>2020-05-24T15:09:19.000Z</time>
      </trkpt>
      <trkpt lat="46.96247" lon="5.99328">
        <ele>681</ele>
        <time>2020-05-24T15:09:46.000Z</time>
      </trkpt>
      <trkpt lat="46.96248" lon="5.99332">
        <ele>681</ele>
        <time>2020-05-24T15:09:48.000Z</time>
      </trkpt>
      <trkpt lat="46.96249" lon="5.99335">
        <ele>681</ele>
        <time>2020-05-24T15:09:50.000Z</time>
      </trkpt>
      <trkpt lat="46.9625" lon="5.99339">
        <ele>681</ele>
        <time>2020-05-24T15:09:52.000Z</time>
      </trkpt>
      <trkpt lat="46.96251" lon="5.99343">
        <ele>681</ele>
        <time>2020-05-24T15:09:54.000Z</time>
      </trkpt>
      <trkpt lat="46.96252" lon="5.99347">
        <ele>681</ele>
        <time>2020-05-24T15:09:56.000Z</time>
      </trkpt>
      <trkpt lat="46.96252" lon="5.9935">
        <ele>681</ele>
        <time>2020-05-24T15:09:58.000Z</time>
      </trkpt>
      <trkpt lat="46.96252" lon="5.99353">
        <ele>681</ele>
        <time>2020-05-24T15:10:00.000Z</time>
      </trkpt>
      <trkpt lat="46.96252" lon="5.99356">
        <ele>681</ele>
        <time>2020-05-24T15:10:02.000Z</time>
      </trkpt>
      <trkpt lat="46.96252" lon="5.9936">
        <ele>681</ele>
        <time>2020-05-24T15:10:04.000Z</time>
      </trkpt>
      <trkpt lat="46.96252" lon="5.99363">
        <ele>681</ele>
        <time>2020-05-24T15:10:06.000Z</time>
      </trkpt>
      <trkpt lat="46.96253" lon="5.99366">
        <ele>681</ele>
        <time>2020-05-24T15:10:08.000Z</time>
      </trkpt>
      <trkpt lat="46.96253" lon="5.99369">
        <ele>681</ele>
        <time>2020-05-24T15:10:10.000Z</time>
      </trkpt>
      <trkpt lat="46.96253" lon="5.99374">
        <ele>680.86776824534</ele>
        <time>2020-05-24T15:10:12.000Z</time>
      </trkpt>
      <trkpt lat="46.96254" lon="5.99376">
        <ele>680</ele>
        <time>2020-05-24T15:10:14.000Z</time>
      </trkpt>
      <trkpt lat="46.96254" lon="5.99379">
        <ele>680</ele>
        <time>2020-05-24T15:10:16.000Z</time>
      </trkpt>
      <trkpt lat="46.96254" lon="5.99382">
        <ele>680</ele>
        <time>2020-05-24T15:10:18.000Z</time>
      </trkpt>
      <trkpt lat="46.96254" lon="5.99386">
        <ele>679.91304347826</ele>
        <time>2020-05-24T15:10:20.000Z</time>
      </trkpt>
      <trkpt lat="46.96255" lon="5.99389">
        <ele>678</ele>
        <time>2020-05-24T15:10:22.000Z</time>
      </trkpt>
      <trkpt lat="46.96255" lon="5.9939">
        <ele>678</ele>
        <time>2020-05-24T15:10:23.000Z</time>
      </trkpt>
      <trkpt lat="46.96256" lon="5.99394">
        <ele>678</ele>
        <time>2020-05-24T15:10:25.000Z</time>
      </trkpt>
      <trkpt lat="46.96257" lon="5.99398">
        <ele>678</ele>
        <time>2020-05-24T15:10:27.000Z</time>
      </trkpt>
      <trkpt lat="46.96257" lon="5.994">
        <ele>678</ele>
        <time>2020-05-24T15:10:29.000Z</time>
      </trkpt>
      <trkpt lat="46.96257" lon="5.99404">
        <ele>677</ele>
        <time>2020-05-24T15:10:32.000Z</time>
      </trkpt>
      <trkpt lat="46.96258" lon="5.99407">
        <ele>677</ele>
        <time>2020-05-24T15:10:34.000Z</time>
      </trkpt>
      <trkpt lat="46.96259" lon="5.9941">
        <ele>677</ele>
        <time>2020-05-24T15:10:36.000Z</time>
      </trkpt>
      <trkpt lat="46.9626" lon="5.99413">
        <ele>677</ele>
        <time>2020-05-24T15:10:38.000Z</time>
      </trkpt>
      <trkpt lat="46.96261" lon="5.99416">
        <ele>677</ele>
        <time>2020-05-24T15:10:40.000Z</time>
      </trkpt>
      <trkpt lat="46.96261" lon="5.9942">
        <ele>677</ele>
        <time>2020-05-24T15:10:42.000Z</time>
      </trkpt>
      <trkpt lat="46.96261" lon="5.99424">
        <ele>677</ele>
        <time>2020-05-24T15:10:44.000Z</time>
      </trkpt>
      <trkpt lat="46.96262" lon="5.99428">
        <ele>677</ele>
        <time>2020-05-24T15:10:46.000Z</time>
      </trkpt>
      <trkpt lat="46.96263" lon="5.99431">
        <ele>677</ele>
        <time>2020-05-24T15:10:47.000Z</time>
      </trkpt>
      <trkpt lat="46.96263" lon="5.99435">
        <ele>677</ele>
        <time>2020-05-24T15:10:49.000Z</time>
      </trkpt>
      <trkpt lat="46.96265" lon="5.99438">
        <ele>677</ele>
        <time>2020-05-24T15:10:51.000Z</time>
      </trkpt>
      <trkpt lat="46.96266" lon="5.99441">
        <ele>677</ele>
        <time>2020-05-24T15:10:53.000Z</time>
      </trkpt>
      <trkpt lat="46.96267" lon="5.99444">
        <ele>677</ele>
        <time>2020-05-24T15:10:55.000Z</time>
      </trkpt>
      <trkpt lat="46.96269" lon="5.99446">
        <ele>677</ele>
        <time>2020-05-24T15:10:57.000Z</time>
      </trkpt>
      <trkpt lat="46.96271" lon="5.99449">
        <ele>677</ele>
        <time>2020-05-24T15:10:59.000Z</time>
      </trkpt>
      <trkpt lat="46.96272" lon="5.99452">
        <ele>676.95454545455</ele>
        <time>2020-05-24T15:11:01.000Z</time>
      </trkpt>
      <trkpt lat="46.96274" lon="5.99454">
        <ele>676</ele>
        <time>2020-05-24T15:11:03.000Z</time>
      </trkpt>
      <trkpt lat="46.96276" lon="5.99457">
        <ele>675.93333997042</ele>
        <time>2020-05-24T15:11:05.000Z</time>
      </trkpt>
      <trkpt lat="46.96277" lon="5.99461">
        <ele>675</ele>
        <time>2020-05-24T15:11:07.000Z</time>
      </trkpt>
      <trkpt lat="46.96277" lon="5.99464">
        <ele>675</ele>
        <time>2020-05-24T15:11:09.000Z</time>
      </trkpt>
      <trkpt lat="46.96278" lon="5.99467">
        <ele>675</ele>
        <time>2020-05-24T15:11:11.000Z</time>
      </trkpt>
      <trkpt lat="46.96279" lon="5.99469">
        <ele>675</ele>
        <time>2020-05-24T15:11:13.000Z</time>
      </trkpt>
      <trkpt lat="46.9628" lon="5.99473">
        <ele>674</ele>
        <time>2020-05-24T15:11:15.000Z</time>
      </trkpt>
      <trkpt lat="46.96282" lon="5.99475">
        <ele>674</ele>
        <time>2020-05-24T15:11:17.000Z</time>
      </trkpt>
      <trkpt lat="46.96283" lon="5.99478">
        <ele>674</ele>
        <time>2020-05-24T15:11:19.000Z</time>
      </trkpt>
      <trkpt lat="46.96286" lon="5.99481">
        <ele>674</ele>
        <time>2020-05-24T15:11:21.000Z</time>
      </trkpt>
      <trkpt lat="46.96288" lon="5.99485">
        <ele>674</ele>
        <time>2020-05-24T15:11:23.000Z</time>
      </trkpt>
      <trkpt lat="46.96289" lon="5.99488">
        <ele>674</ele>
        <time>2020-05-24T15:11:25.000Z</time>
      </trkpt>
      <trkpt lat="46.96291" lon="5.99492">
        <ele>674</ele>
        <time>2020-05-24T15:11:27.000Z</time>
      </trkpt>
      <trkpt lat="46.96292" lon="5.99496">
        <ele>674</ele>
        <time>2020-05-24T15:11:29.000Z</time>
      </trkpt>
      <trkpt lat="46.96293" lon="5.99498">
        <ele>674</ele>
        <time>2020-05-24T15:11:31.000Z</time>
      </trkpt>
      <trkpt lat="46.96294" lon="5.99501">
        <ele>674</ele>
        <time>2020-05-24T15:11:33.000Z</time>
      </trkpt>
      <trkpt lat="46.96295" lon="5.99503">
        <ele>674</ele>
        <time>2020-05-24T15:11:35.000Z</time>
      </trkpt>
      <trkpt lat="46.96297" lon="5.99505">
        <ele>674</ele>
        <time>2020-05-24T15:11:37.000Z</time>
      </trkpt>
      <trkpt lat="46.96298" lon="5.99508">
        <ele>674</ele>
        <time>2020-05-24T15:11:40.000Z</time>
      </trkpt>
      <trkpt lat="46.96299" lon="5.99511">
        <ele>674</ele>
        <time>2020-05-24T15:11:42.000Z</time>
      </trkpt>
      <trkpt lat="46.96301" lon="5.99512">
        <ele>674.03448630994</ele>
        <time>2020-05-24T15:11:44.000Z</time>
      </trkpt>
      <trkpt lat="46.96302" lon="5.99515">
        <ele>675</ele>
        <time>2020-05-24T15:11:46.000Z</time>
      </trkpt>
      <trkpt lat="46.96304" lon="5.99517">
        <ele>675</ele>
        <time>2020-05-24T15:11:48.000Z</time>
      </trkpt>
      <trkpt lat="46.96306" lon="5.99519">
        <ele>675</ele>
        <time>2020-05-24T15:11:50.000Z</time>
      </trkpt>
      <trkpt lat="46.96308" lon="5.99521">
        <ele>675</ele>
        <time>2020-05-24T15:11:52.000Z</time>
      </trkpt>
      <trkpt lat="46.9631" lon="5.99524">
        <ele>675.14159332133</ele>
        <time>2020-05-24T15:11:55.000Z</time>
      </trkpt>
      <trkpt lat="46.96313" lon="5.99525">
        <ele>676</ele>
        <time>2020-05-24T15:11:57.000Z</time>
      </trkpt>
      <trkpt lat="46.96315" lon="5.99527">
        <ele>676</ele>
        <time>2020-05-24T15:11:59.000Z</time>
      </trkpt>
      <trkpt lat="46.96316" lon="5.99529">
        <ele>676</ele>
        <time>2020-05-24T15:12:01.000Z</time>
      </trkpt>
      <trkpt lat="46.96318" lon="5.99531">
        <ele>676</ele>
        <time>2020-05-24T15:12:03.000Z</time>
      </trkpt>
      <trkpt lat="46.9632" lon="5.99533">
        <ele>676</ele>
        <time>2020-05-24T15:12:05.000Z</time>
      </trkpt>
      <trkpt lat="46.96323" lon="5.99534">
        <ele>676</ele>
        <time>2020-05-24T15:12:07.000Z</time>
      </trkpt>
      <trkpt lat="46.96324" lon="5.99536">
        <ele>676</ele>
        <time>2020-05-24T15:12:09.000Z</time>
      </trkpt>
      <trkpt lat="46.96327" lon="5.99538">
        <ele>676</ele>
        <time>2020-05-24T15:12:11.000Z</time>
      </trkpt>
      <trkpt lat="46.96329" lon="5.99541">
        <ele>676</ele>
        <time>2020-05-24T15:12:13.000Z</time>
      </trkpt>
      <trkpt lat="46.96331" lon="5.99542">
        <ele>677</ele>
        <time>2020-05-24T15:12:16.000Z</time>
      </trkpt>
      <trkpt lat="46.96333" lon="5.99544">
        <ele>677</ele>
        <time>2020-05-24T15:12:18.000Z</time>
      </trkpt>
      <trkpt lat="46.96336" lon="5.99544">
        <ele>678</ele>
        <time>2020-05-24T15:12:21.000Z</time>
      </trkpt>
      <trkpt lat="46.96338" lon="5.99545">
        <ele>678</ele>
        <time>2020-05-24T15:12:23.000Z</time>
      </trkpt>
      <trkpt lat="46.9634" lon="5.99546">
        <ele>678</ele>
        <time>2020-05-24T15:12:25.000Z</time>
      </trkpt>
      <trkpt lat="46.96342" lon="5.99546">
        <ele>678.14285714286</ele>
        <time>2020-05-24T15:12:27.000Z</time>
      </trkpt>
      <trkpt lat="46.96344" lon="5.99546">
        <ele>679</ele>
        <time>2020-05-24T15:12:29.000Z</time>
      </trkpt>
      <trkpt lat="46.96346" lon="5.99547">
        <ele>679</ele>
        <time>2020-05-24T15:12:31.000Z</time>
      </trkpt>
      <trkpt lat="46.96349" lon="5.99547">
        <ele>679</ele>
        <time>2020-05-24T15:12:33.000Z</time>
      </trkpt>
      <trkpt lat="46.96352" lon="5.99547">
        <ele>679</ele>
        <time>2020-05-24T15:12:35.000Z</time>
      </trkpt>
      <trkpt lat="46.96354" lon="5.99548">
        <ele>679.14286274049</ele>
        <time>2020-05-24T15:12:36.000Z</time>
      </trkpt>
      <trkpt lat="46.96356" lon="5.99548">
        <ele>680</ele>
        <time>2020-05-24T15:12:37.000Z</time>
      </trkpt>
      <trkpt lat="46.96358" lon="5.9955">
        <ele>680</ele>
        <time>2020-05-24T15:12:39.000Z</time>
      </trkpt>
      <trkpt lat="46.9636" lon="5.99548">
        <ele>680</ele>
        <time>2020-05-24T15:12:41.000Z</time>
      </trkpt>
      <trkpt lat="46.96361" lon="5.99546">
        <ele>680</ele>
        <time>2020-05-24T15:12:44.000Z</time>
      </trkpt>
      <trkpt lat="46.96361" lon="5.99549">
        <ele>681</ele>
        <time>2020-05-24T15:12:48.000Z</time>
      </trkpt>
      <trkpt lat="46.96362" lon="5.99551">
        <ele>680</ele>
        <time>2020-05-24T15:12:50.000Z</time>
      </trkpt>
      <trkpt lat="46.96363" lon="5.99555">
        <ele>680</ele>
        <time>2020-05-24T15:12:52.000Z</time>
      </trkpt>
      <trkpt lat="46.96364" lon="5.99557">
        <ele>680</ele>
        <time>2020-05-24T15:12:54.000Z</time>
      </trkpt>
      <trkpt lat="46.96365" lon="5.9956">
        <ele>681</ele>
        <time>2020-05-24T15:12:56.000Z</time>
      </trkpt>
      <trkpt lat="46.96365" lon="5.99563">
        <ele>681</ele>
        <time>2020-05-24T15:12:58.000Z</time>
      </trkpt>
      <trkpt lat="46.96366" lon="5.99566">
        <ele>681</ele>
        <time>2020-05-24T15:13:00.000Z</time>
      </trkpt>
      <trkpt lat="46.96367" lon="5.9957">
        <ele>681</ele>
        <time>2020-05-24T15:13:02.000Z</time>
      </trkpt>
      <trkpt lat="46.96367" lon="5.99573">
        <ele>681</ele>
        <time>2020-05-24T15:13:04.000Z</time>
      </trkpt>
      <trkpt lat="46.96368" lon="5.99576">
        <ele>681</ele>
        <time>2020-05-24T15:13:06.000Z</time>
      </trkpt>
      <trkpt lat="46.9637" lon="5.99579">
        <ele>681</ele>
        <time>2020-05-24T15:13:08.000Z</time>
      </trkpt>
      <trkpt lat="46.96371" lon="5.99581">
        <ele>682</ele>
        <time>2020-05-24T15:13:10.000Z</time>
      </trkpt>
      <trkpt lat="46.96372" lon="5.99584">
        <ele>682</ele>
        <time>2020-05-24T15:13:12.000Z</time>
      </trkpt>
      <trkpt lat="46.96373" lon="5.99586">
        <ele>682.14286274049</ele>
        <time>2020-05-24T15:13:14.000Z</time>
      </trkpt>
      <trkpt lat="46.96374" lon="5.99589">
        <ele>683</ele>
        <time>2020-05-24T15:13:16.000Z</time>
      </trkpt>
      <trkpt lat="46.96375" lon="5.99592">
        <ele>683</ele>
        <time>2020-05-24T15:13:18.000Z</time>
      </trkpt>
      <trkpt lat="46.96376" lon="5.99594">
        <ele>683</ele>
        <time>2020-05-24T15:13:20.000Z</time>
      </trkpt>
      <trkpt lat="46.96378" lon="5.99597">
        <ele>683</ele>
        <time>2020-05-24T15:13:22.000Z</time>
      </trkpt>
      <trkpt lat="46.96379" lon="5.996">
        <ele>683.02631844874</ele>
        <time>2020-05-24T15:13:25.000Z</time>
      </trkpt>
      <trkpt lat="46.9638" lon="5.99604">
        <ele>684</ele>
        <time>2020-05-24T15:13:27.000Z</time>
      </trkpt>
      <trkpt lat="46.9638" lon="5.99606">
        <ele>684</ele>
        <time>2020-05-24T15:13:29.000Z</time>
      </trkpt>
      <trkpt lat="46.96381" lon="5.99609">
        <ele>685</ele>
        <time>2020-05-24T15:13:31.000Z</time>
      </trkpt>
      <trkpt lat="46.96381" lon="5.99611">
        <ele>685</ele>
        <time>2020-05-24T15:13:33.000Z</time>
      </trkpt>
      <trkpt lat="46.96381" lon="5.99615">
        <ele>685</ele>
        <time>2020-05-24T15:13:35.000Z</time>
      </trkpt>
      <trkpt lat="46.96382" lon="5.9962">
        <ele>685</ele>
        <time>2020-05-24T15:13:38.000Z</time>
      </trkpt>
      <trkpt lat="46.96382" lon="5.99622">
        <ele>685</ele>
        <time>2020-05-24T15:13:40.000Z</time>
      </trkpt>
      <trkpt lat="46.96382" lon="5.99626">
        <ele>685</ele>
        <time>2020-05-24T15:13:42.000Z</time>
      </trkpt>
      <trkpt lat="46.96382" lon="5.9963">
        <ele>685</ele>
        <time>2020-05-24T15:13:44.000Z</time>
      </trkpt>
      <trkpt lat="46.96382" lon="5.99632">
        <ele>685</ele>
        <time>2020-05-24T15:13:46.000Z</time>
      </trkpt>
      <trkpt lat="46.96383" lon="5.99636">
        <ele>685</ele>
        <time>2020-05-24T15:13:48.000Z</time>
      </trkpt>
      <trkpt lat="46.96383" lon="5.9964">
        <ele>685</ele>
        <time>2020-05-24T15:13:50.000Z</time>
      </trkpt>
      <trkpt lat="46.96384" lon="5.99643">
        <ele>685</ele>
        <time>2020-05-24T15:13:52.000Z</time>
      </trkpt>
      <trkpt lat="46.96385" lon="5.99646">
        <ele>685</ele>
        <time>2020-05-24T15:13:54.000Z</time>
      </trkpt>
      <trkpt lat="46.96385" lon="5.99649">
        <ele>685</ele>
        <time>2020-05-24T15:13:56.000Z</time>
      </trkpt>
      <trkpt lat="46.96387" lon="5.99652">
        <ele>685</ele>
        <time>2020-05-24T15:13:58.000Z</time>
      </trkpt>
      <trkpt lat="46.96389" lon="5.99655">
        <ele>684.85840667867</ele>
        <time>2020-05-24T15:14:00.000Z</time>
      </trkpt>
      <trkpt lat="46.9639" lon="5.99657">
        <ele>684</ele>
        <time>2020-05-24T15:14:02.000Z</time>
      </trkpt>
      <trkpt lat="46.96392" lon="5.9966">
        <ele>683.91304347826</ele>
        <time>2020-05-24T15:14:04.000Z</time>
      </trkpt>
      <trkpt lat="46.96395" lon="5.99663">
        <ele>683</ele>
        <time>2020-05-24T15:14:06.000Z</time>
      </trkpt>
      <trkpt lat="46.96396" lon="5.99665">
        <ele>683</ele>
        <time>2020-05-24T15:14:07.000Z</time>
      </trkpt>
      <trkpt lat="46.96398" lon="5.99668">
        <ele>682.9230736771</ele>
        <time>2020-05-24T15:14:09.000Z</time>
      </trkpt>
      <trkpt lat="46.96401" lon="5.99668">
        <ele>682.15686372934</ele>
        <time>2020-05-24T15:14:11.000Z</time>
      </trkpt>
      <trkpt lat="46.96402" lon="5.99667">
        <ele>683</ele>
        <time>2020-05-24T15:14:13.000Z</time>
      </trkpt>
      <trkpt lat="46.96402" lon="5.99664">
        <ele>683</ele>
        <time>2020-05-24T15:14:16.000Z</time>
      </trkpt>
      <trkpt lat="46.96404" lon="5.99664">
        <ele>682</ele>
        <time>2020-05-24T15:14:18.000Z</time>
      </trkpt>
      <trkpt lat="46.96406" lon="5.99664">
        <ele>682</ele>
        <time>2020-05-24T15:14:23.000Z</time>
      </trkpt>
      <trkpt lat="46.96408" lon="5.99664">
        <ele>682</ele>
        <time>2020-05-24T15:14:38.000Z</time>
      </trkpt>
      <trkpt lat="46.96409" lon="5.99665">
        <ele>681</ele>
        <time>2020-05-24T15:14:53.000Z</time>
      </trkpt>
      <trkpt lat="46.9641" lon="5.99668">
        <ele>681</ele>
        <time>2020-05-24T15:14:55.000Z</time>
      </trkpt>
      <trkpt lat="46.96411" lon="5.99671">
        <ele>681</ele>
        <time>2020-05-24T15:14:57.000Z</time>
      </trkpt>
      <trkpt lat="46.96412" lon="5.99674">
        <ele>681</ele>
        <time>2020-05-24T15:14:59.000Z</time>
      </trkpt>
      <trkpt lat="46.96412" lon="5.99677">
        <ele>681</ele>
        <time>2020-05-24T15:15:01.000Z</time>
      </trkpt>
      <trkpt lat="46.96413" lon="5.9968">
        <ele>681</ele>
        <time>2020-05-24T15:15:03.000Z</time>
      </trkpt>
      <trkpt lat="46.96414" lon="5.99684">
        <ele>681</ele>
        <time>2020-05-24T15:15:05.000Z</time>
      </trkpt>
      <trkpt lat="46.96415" lon="5.99688">
        <ele>681.11678859396</ele>
        <time>2020-05-24T15:15:07.000Z</time>
      </trkpt>
      <trkpt lat="46.96415" lon="5.99691">
        <ele>682</ele>
        <time>2020-05-24T15:15:09.000Z</time>
      </trkpt>
      <trkpt lat="46.96416" lon="5.99695">
        <ele>682</ele>
        <time>2020-05-24T15:15:11.000Z</time>
      </trkpt>
      <trkpt lat="46.96417" lon="5.99699">
        <ele>683</ele>
        <time>2020-05-24T15:15:13.000Z</time>
      </trkpt>
      <trkpt lat="46.96418" lon="5.99702">
        <ele>684</ele>
        <time>2020-05-24T15:15:15.000Z</time>
      </trkpt>
      <trkpt lat="46.96418" lon="5.99704">
        <ele>684</ele>
        <time>2020-05-24T15:15:17.000Z</time>
      </trkpt>
      <trkpt lat="46.96418" lon="5.99707">
        <ele>685</ele>
        <time>2020-05-24T15:15:19.000Z</time>
      </trkpt>
      <trkpt lat="46.96419" lon="5.9971">
        <ele>685</ele>
        <time>2020-05-24T15:15:21.000Z</time>
      </trkpt>
      <trkpt lat="46.96419" lon="5.99713">
        <ele>685.15533932322</ele>
        <time>2020-05-24T15:15:23.000Z</time>
      </trkpt>
      <trkpt lat="46.9642" lon="5.99715">
        <ele>686.12213710623</ele>
        <time>2020-05-24T15:15:25.000Z</time>
      </trkpt>
      <trkpt lat="46.96421" lon="5.99719">
        <ele>687</ele>
        <time>2020-05-24T15:15:27.000Z</time>
      </trkpt>
      <trkpt lat="46.96422" lon="5.99721">
        <ele>687.15686372934</ele>
        <time>2020-05-24T15:15:29.000Z</time>
      </trkpt>
      <trkpt lat="46.96423" lon="5.99723">
        <ele>688</ele>
        <time>2020-05-24T15:15:31.000Z</time>
      </trkpt>
      <trkpt lat="46.96424" lon="5.99726">
        <ele>688</ele>
        <time>2020-05-24T15:15:33.000Z</time>
      </trkpt>
      <trkpt lat="46.96426" lon="5.99729">
        <ele>688</ele>
        <time>2020-05-24T15:15:35.000Z</time>
      </trkpt>
      <trkpt lat="46.96427" lon="5.99731">
        <ele>689</ele>
        <time>2020-05-24T15:15:38.000Z</time>
      </trkpt>
      <trkpt lat="46.96429" lon="5.99731">
        <ele>688</ele>
        <time>2020-05-24T15:15:41.000Z</time>
      </trkpt>
      <trkpt lat="46.9643" lon="5.99734">
        <ele>688</ele>
        <time>2020-05-24T15:15:45.000Z</time>
      </trkpt>
      <trkpt lat="46.96431" lon="5.99736">
        <ele>688</ele>
        <time>2020-05-24T15:15:47.000Z</time>
      </trkpt>
      <trkpt lat="46.96432" lon="5.99739">
        <ele>688</ele>
        <time>2020-05-24T15:15:49.000Z</time>
      </trkpt>
      <trkpt lat="46.96433" lon="5.99742">
        <ele>687</ele>
        <time>2020-05-24T15:15:51.000Z</time>
      </trkpt>
      <trkpt lat="46.96434" lon="5.99745">
        <ele>687</ele>
        <time>2020-05-24T15:15:53.000Z</time>
      </trkpt>
      <trkpt lat="46.96435" lon="5.99749">
        <ele>688</ele>
        <time>2020-05-24T15:15:55.000Z</time>
      </trkpt>
      <trkpt lat="46.96436" lon="5.99752">
        <ele>688</ele>
        <time>2020-05-24T15:15:57.000Z</time>
      </trkpt>
      <trkpt lat="46.96436" lon="5.99755">
        <ele>688</ele>
        <time>2020-05-24T15:15:59.000Z</time>
      </trkpt>
      <trkpt lat="46.96437" lon="5.99759">
        <ele>688</ele>
        <time>2020-05-24T15:16:01.000Z</time>
      </trkpt>
      <trkpt lat="46.96436" lon="5.99762">
        <ele>688</ele>
        <time>2020-05-24T15:16:03.000Z</time>
      </trkpt>
      <trkpt lat="46.96436" lon="5.99766">
        <ele>688</ele>
        <time>2020-05-24T15:16:06.000Z</time>
      </trkpt>
      <trkpt lat="46.96436" lon="5.99769">
        <ele>687</ele>
        <time>2020-05-24T15:16:08.000Z</time>
      </trkpt>
      <trkpt lat="46.96435" lon="5.99773">
        <ele>687</ele>
        <time>2020-05-24T15:16:10.000Z</time>
      </trkpt>
      <trkpt lat="46.96434" lon="5.99776">
        <ele>687</ele>
        <time>2020-05-24T15:16:12.000Z</time>
      </trkpt>
      <trkpt lat="46.96434" lon="5.99779">
        <ele>687</ele>
        <time>2020-05-24T15:16:14.000Z</time>
      </trkpt>
      <trkpt lat="46.96434" lon="5.99782">
        <ele>687</ele>
        <time>2020-05-24T15:16:16.000Z</time>
      </trkpt>
      <trkpt lat="46.96435" lon="5.99785">
        <ele>687</ele>
        <time>2020-05-24T15:16:18.000Z</time>
      </trkpt>
      <trkpt lat="46.96436" lon="5.99788">
        <ele>687.14545369918</ele>
        <time>2020-05-24T15:16:20.000Z</time>
      </trkpt>
      <trkpt lat="46.96437" lon="5.99791">
        <ele>688</ele>
        <time>2020-05-24T15:16:22.000Z</time>
      </trkpt>
      <trkpt lat="46.96438" lon="5.99793">
        <ele>688.13401776171</ele>
        <time>2020-05-24T15:16:24.000Z</time>
      </trkpt>
      <trkpt lat="46.96439" lon="5.99796">
        <ele>689</ele>
        <time>2020-05-24T15:16:27.000Z</time>
      </trkpt>
      <trkpt lat="46.96441" lon="5.99798">
        <ele>689</ele>
        <time>2020-05-24T15:16:30.000Z</time>
      </trkpt>
      <trkpt lat="46.96443" lon="5.998">
        <ele>689</ele>
        <time>2020-05-24T15:16:32.000Z</time>
      </trkpt>
      <trkpt lat="46.96445" lon="5.99802">
        <ele>689</ele>
        <time>2020-05-24T15:16:34.000Z</time>
      </trkpt>
      <trkpt lat="46.96447" lon="5.99804">
        <ele>689</ele>
        <time>2020-05-24T15:16:36.000Z</time>
      </trkpt>
      <trkpt lat="46.96449" lon="5.99807">
        <ele>689</ele>
        <time>2020-05-24T15:16:38.000Z</time>
      </trkpt>
      <trkpt lat="46.96452" lon="5.99809">
        <ele>689</ele>
        <time>2020-05-24T15:16:40.000Z</time>
      </trkpt>
      <trkpt lat="46.96453" lon="5.99812">
        <ele>689</ele>
        <time>2020-05-24T15:16:42.000Z</time>
      </trkpt>
      <trkpt lat="46.96454" lon="5.99815">
        <ele>689</ele>
        <time>2020-05-24T15:16:44.000Z</time>
      </trkpt>
      <trkpt lat="46.96455" lon="5.99818">
        <ele>689</ele>
        <time>2020-05-24T15:16:46.000Z</time>
      </trkpt>
      <trkpt lat="46.96457" lon="5.99822">
        <ele>689</ele>
        <time>2020-05-24T15:16:48.000Z</time>
      </trkpt>
      <trkpt lat="46.96458" lon="5.99826">
        <ele>689</ele>
        <time>2020-05-24T15:16:50.000Z</time>
      </trkpt>
      <trkpt lat="46.96458" lon="5.9983">
        <ele>689</ele>
        <time>2020-05-24T15:16:52.000Z</time>
      </trkpt>
      <trkpt lat="46.96459" lon="5.99834">
        <ele>689</ele>
        <time>2020-05-24T15:16:54.000Z</time>
      </trkpt>
      <trkpt lat="46.96459" lon="5.99838">
        <ele>689</ele>
        <time>2020-05-24T15:16:56.000Z</time>
      </trkpt>
      <trkpt lat="46.96459" lon="5.99841">
        <ele>689</ele>
        <time>2020-05-24T15:16:58.000Z</time>
      </trkpt>
      <trkpt lat="46.9646" lon="5.99844">
        <ele>689</ele>
        <time>2020-05-24T15:17:01.000Z</time>
      </trkpt>
      <trkpt lat="46.96459" lon="5.99848">
        <ele>689</ele>
        <time>2020-05-24T15:17:04.000Z</time>
      </trkpt>
      <trkpt lat="46.96458" lon="5.9985">
        <ele>689</ele>
        <time>2020-05-24T15:17:06.000Z</time>
      </trkpt>
      <trkpt lat="46.96458" lon="5.99854">
        <ele>690</ele>
        <time>2020-05-24T15:17:09.000Z</time>
      </trkpt>
      <trkpt lat="46.96458" lon="5.99857">
        <ele>690</ele>
        <time>2020-05-24T15:17:11.000Z</time>
      </trkpt>
      <trkpt lat="46.96458" lon="5.99861">
        <ele>690</ele>
        <time>2020-05-24T15:17:13.000Z</time>
      </trkpt>
      <trkpt lat="46.96458" lon="5.99865">
        <ele>690</ele>
        <time>2020-05-24T15:17:15.000Z</time>
      </trkpt>
      <trkpt lat="46.96458" lon="5.99869">
        <ele>690</ele>
        <time>2020-05-24T15:17:17.000Z</time>
      </trkpt>
      <trkpt lat="46.96458" lon="5.99872">
        <ele>690</ele>
        <time>2020-05-24T15:17:19.000Z</time>
      </trkpt>
      <trkpt lat="46.96458" lon="5.99875">
        <ele>690</ele>
        <time>2020-05-24T15:17:21.000Z</time>
      </trkpt>
      <trkpt lat="46.96458" lon="5.99878">
        <ele>690</ele>
        <time>2020-05-24T15:17:23.000Z</time>
      </trkpt>
      <trkpt lat="46.96457" lon="5.99881">
        <ele>690</ele>
        <time>2020-05-24T15:17:25.000Z</time>
      </trkpt>
      <trkpt lat="46.96456" lon="5.99885">
        <ele>690</ele>
        <time>2020-05-24T15:17:27.000Z</time>
      </trkpt>
      <trkpt lat="46.96456" lon="5.99888">
        <ele>690</ele>
        <time>2020-05-24T15:17:29.000Z</time>
      </trkpt>
      <trkpt lat="46.96457" lon="5.99892">
        <ele>690</ele>
        <time>2020-05-24T15:17:31.000Z</time>
      </trkpt>
      <trkpt lat="46.96457" lon="5.99896">
        <ele>690</ele>
        <time>2020-05-24T15:17:33.000Z</time>
      </trkpt>
      <trkpt lat="46.96457" lon="5.999">
        <ele>690</ele>
        <time>2020-05-24T15:17:35.000Z</time>
      </trkpt>
      <trkpt lat="46.96458" lon="5.99905">
        <ele>690</ele>
        <time>2020-05-24T15:17:37.000Z</time>
      </trkpt>
      <trkpt lat="46.96458" lon="5.99909">
        <ele>690</ele>
        <time>2020-05-24T15:17:39.000Z</time>
      </trkpt>
      <trkpt lat="46.96459" lon="5.99913">
        <ele>690</ele>
        <time>2020-05-24T15:17:41.000Z</time>
      </trkpt>
      <trkpt lat="46.9646" lon="5.99917">
        <ele>689</ele>
        <time>2020-05-24T15:17:43.000Z</time>
      </trkpt>
      <trkpt lat="46.96461" lon="5.99921">
        <ele>689</ele>
        <time>2020-05-24T15:17:45.000Z</time>
      </trkpt>
      <trkpt lat="46.96461" lon="5.99926">
        <ele>689</ele>
        <time>2020-05-24T15:17:47.000Z</time>
      </trkpt>
      <trkpt lat="46.96462" lon="5.99929">
        <ele>689</ele>
        <time>2020-05-24T15:17:49.000Z</time>
      </trkpt>
      <trkpt lat="46.96462" lon="5.99933">
        <ele>689</ele>
        <time>2020-05-24T15:17:51.000Z</time>
      </trkpt>
      <trkpt lat="46.96461" lon="5.99937">
        <ele>689</ele>
        <time>2020-05-24T15:17:53.000Z</time>
      </trkpt>
      <trkpt lat="46.9646" lon="5.99941">
        <ele>689</ele>
        <time>2020-05-24T15:17:55.000Z</time>
      </trkpt>
      <trkpt lat="46.9646" lon="5.99945">
        <ele>689</ele>
        <time>2020-05-24T15:17:57.000Z</time>
      </trkpt>
      <trkpt lat="46.96461" lon="5.99949">
        <ele>689</ele>
        <time>2020-05-24T15:17:59.000Z</time>
      </trkpt>
      <trkpt lat="46.96461" lon="5.99952">
        <ele>688</ele>
        <time>2020-05-24T15:18:01.000Z</time>
      </trkpt>
      <trkpt lat="46.96461" lon="5.99956">
        <ele>688</ele>
        <time>2020-05-24T15:18:03.000Z</time>
      </trkpt>
      <trkpt lat="46.96462" lon="5.99959">
        <ele>688</ele>
        <time>2020-05-24T15:18:05.000Z</time>
      </trkpt>
      <trkpt lat="46.96462" lon="5.99963">
        <ele>688</ele>
        <time>2020-05-24T15:18:07.000Z</time>
      </trkpt>
      <trkpt lat="46.96463" lon="5.99967">
        <ele>688</ele>
        <time>2020-05-24T15:18:09.000Z</time>
      </trkpt>
      <trkpt lat="46.96463" lon="5.99971">
        <ele>688</ele>
        <time>2020-05-24T15:18:11.000Z</time>
      </trkpt>
      <trkpt lat="46.96463" lon="5.99974">
        <ele>688</ele>
        <time>2020-05-24T15:18:13.000Z</time>
      </trkpt>
      <trkpt lat="46.96463" lon="5.99978">
        <ele>687</ele>
        <time>2020-05-24T15:18:15.000Z</time>
      </trkpt>
      <trkpt lat="46.96464" lon="5.99982">
        <ele>687</ele>
        <time>2020-05-24T15:18:17.000Z</time>
      </trkpt>
      <trkpt lat="46.96465" lon="5.99987">
        <ele>687</ele>
        <time>2020-05-24T15:18:19.000Z</time>
      </trkpt>
      <trkpt lat="46.96466" lon="5.99989">
        <ele>687</ele>
        <time>2020-05-24T15:18:20.000Z</time>
      </trkpt>
      <trkpt lat="46.96466" lon="5.99994">
        <ele>687</ele>
        <time>2020-05-24T15:18:22.000Z</time>
      </trkpt>
      <trkpt lat="46.96467" lon="5.99997">
        <ele>687</ele>
        <time>2020-05-24T15:18:24.000Z</time>
      </trkpt>
      <trkpt lat="46.96468" lon="6.00001">
        <ele>687</ele>
        <time>2020-05-24T15:18:26.000Z</time>
      </trkpt>
      <trkpt lat="46.96469" lon="6.00005">
        <ele>687</ele>
        <time>2020-05-24T15:18:28.000Z</time>
      </trkpt>
      <trkpt lat="46.96469" lon="6.00009">
        <ele>687</ele>
        <time>2020-05-24T15:18:30.000Z</time>
      </trkpt>
      <trkpt lat="46.96469" lon="6.00012">
        <ele>687</ele>
        <time>2020-05-24T15:18:32.000Z</time>
      </trkpt>
      <trkpt lat="46.96469" lon="6.00016">
        <ele>687</ele>
        <time>2020-05-24T15:18:34.000Z</time>
      </trkpt>
      <trkpt lat="46.96469" lon="6.0002">
        <ele>687</ele>
        <time>2020-05-24T15:18:36.000Z</time>
      </trkpt>
      <trkpt lat="46.96471" lon="6.00023">
        <ele>687</ele>
        <time>2020-05-24T15:18:38.000Z</time>
      </trkpt>
      <trkpt lat="46.96472" lon="6.00027">
        <ele>687</ele>
        <time>2020-05-24T15:18:40.000Z</time>
      </trkpt>
      <trkpt lat="46.96473" lon="6.0003">
        <ele>687</ele>
        <time>2020-05-24T15:18:42.000Z</time>
      </trkpt>
      <trkpt lat="46.96473" lon="6.00033">
        <ele>687</ele>
        <time>2020-05-24T15:18:44.000Z</time>
      </trkpt>
      <trkpt lat="46.96473" lon="6.00036">
        <ele>687</ele>
        <time>2020-05-24T15:18:46.000Z</time>
      </trkpt>
      <trkpt lat="46.96474" lon="6.00041">
        <ele>687</ele>
        <time>2020-05-24T15:18:49.000Z</time>
      </trkpt>
      <trkpt lat="46.96475" lon="6.00043">
        <ele>687</ele>
        <time>2020-05-24T15:18:50.000Z</time>
      </trkpt>
      <trkpt lat="46.96477" lon="6.00047">
        <ele>687</ele>
        <time>2020-05-24T15:18:52.000Z</time>
      </trkpt>
      <trkpt lat="46.96479" lon="6.00048">
        <ele>687</ele>
        <time>2020-05-24T15:18:54.000Z</time>
      </trkpt>
      <trkpt lat="46.96481" lon="6.0005">
        <ele>688</ele>
        <time>2020-05-24T15:18:56.000Z</time>
      </trkpt>
      <trkpt lat="46.96484" lon="6.00051">
        <ele>688</ele>
        <time>2020-05-24T15:18:58.000Z</time>
      </trkpt>
      <trkpt lat="46.96486" lon="6.00053">
        <ele>688</ele>
        <time>2020-05-24T15:19:00.000Z</time>
      </trkpt>
      <trkpt lat="46.96488" lon="6.00055">
        <ele>687</ele>
        <time>2020-05-24T15:19:02.000Z</time>
      </trkpt>
      <trkpt lat="46.96489" lon="6.00059">
        <ele>688</ele>
        <time>2020-05-24T15:19:04.000Z</time>
      </trkpt>
      <trkpt lat="46.96491" lon="6.00062">
        <ele>688</ele>
        <time>2020-05-24T15:19:06.000Z</time>
      </trkpt>
      <trkpt lat="46.96492" lon="6.00065">
        <ele>688</ele>
        <time>2020-05-24T15:19:08.000Z</time>
      </trkpt>
      <trkpt lat="46.96494" lon="6.00067">
        <ele>687.84</ele>
        <time>2020-05-24T15:19:10.000Z</time>
      </trkpt>
      <trkpt lat="46.96495" lon="6.0007">
        <ele>687</ele>
        <time>2020-05-24T15:19:12.000Z</time>
      </trkpt>
      <trkpt lat="46.96498" lon="6.00072">
        <ele>687</ele>
        <time>2020-05-24T15:19:14.000Z</time>
      </trkpt>
      <trkpt lat="46.965" lon="6.00074">
        <ele>688</ele>
        <time>2020-05-24T15:19:16.000Z</time>
      </trkpt>
      <trkpt lat="46.96502" lon="6.00075">
        <ele>688</ele>
        <time>2020-05-24T15:19:18.000Z</time>
      </trkpt>
      <trkpt lat="46.96505" lon="6.00077">
        <ele>688</ele>
        <time>2020-05-24T15:19:20.000Z</time>
      </trkpt>
      <trkpt lat="46.96506" lon="6.00078">
        <ele>688</ele>
        <time>2020-05-24T15:19:21.000Z</time>
      </trkpt>
      <trkpt lat="46.96508" lon="6.00082">
        <ele>688</ele>
        <time>2020-05-24T15:19:23.000Z</time>
      </trkpt>
      <trkpt lat="46.9651" lon="6.00086">
        <ele>688</ele>
        <time>2020-05-24T15:19:25.000Z</time>
      </trkpt>
      <trkpt lat="46.96511" lon="6.00089">
        <ele>688</ele>
        <time>2020-05-24T15:19:27.000Z</time>
      </trkpt>
      <trkpt lat="46.96513" lon="6.00092">
        <ele>688</ele>
        <time>2020-05-24T15:19:29.000Z</time>
      </trkpt>
      <trkpt lat="46.96515" lon="6.00095">
        <ele>688</ele>
        <time>2020-05-24T15:19:31.000Z</time>
      </trkpt>
      <trkpt lat="46.96517" lon="6.00098">
        <ele>688</ele>
        <time>2020-05-24T15:19:33.000Z</time>
      </trkpt>
      <trkpt lat="46.96518" lon="6.00102">
        <ele>688.09677108566</ele>
        <time>2020-05-24T15:19:35.000Z</time>
      </trkpt>
      <trkpt lat="46.96519" lon="6.00106">
        <ele>689</ele>
        <time>2020-05-24T15:19:37.000Z</time>
      </trkpt>
      <trkpt lat="46.9652" lon="6.00108">
        <ele>689</ele>
        <time>2020-05-24T15:19:39.000Z</time>
      </trkpt>
      <trkpt lat="46.96521" lon="6.00111">
        <ele>689</ele>
        <time>2020-05-24T15:19:41.000Z</time>
      </trkpt>
      <trkpt lat="46.96522" lon="6.00114">
        <ele>689</ele>
        <time>2020-05-24T15:19:43.000Z</time>
      </trkpt>
      <trkpt lat="46.96523" lon="6.00116">
        <ele>689</ele>
        <time>2020-05-24T15:19:45.000Z</time>
      </trkpt>
      <trkpt lat="46.96524" lon="6.00119">
        <ele>689.16</ele>
        <time>2020-05-24T15:19:48.000Z</time>
      </trkpt>
      <trkpt lat="46.96525" lon="6.00122">
        <ele>690</ele>
        <time>2020-05-24T15:19:50.000Z</time>
      </trkpt>
      <trkpt lat="46.96527" lon="6.00124">
        <ele>690</ele>
        <time>2020-05-24T15:19:52.000Z</time>
      </trkpt>
      <trkpt lat="46.96528" lon="6.00127">
        <ele>691</ele>
        <time>2020-05-24T15:19:55.000Z</time>
      </trkpt>
      <trkpt lat="46.96529" lon="6.00129">
        <ele>691</ele>
        <time>2020-05-24T15:19:57.000Z</time>
      </trkpt>
      <trkpt lat="46.9653" lon="6.00132">
        <ele>691</ele>
        <time>2020-05-24T15:19:59.000Z</time>
      </trkpt>
      <trkpt lat="46.9653" lon="6.00134">
        <ele>691</ele>
        <time>2020-05-24T15:20:01.000Z</time>
      </trkpt>
      <trkpt lat="46.96531" lon="6.00137">
        <ele>691</ele>
        <time>2020-05-24T15:20:03.000Z</time>
      </trkpt>
      <trkpt lat="46.96529" lon="6.00137">
        <ele>691</ele>
        <time>2020-05-24T15:20:13.000Z</time>
      </trkpt>
      <trkpt lat="46.9653" lon="6.0014">
        <ele>691</ele>
        <time>2020-05-24T15:20:21.000Z</time>
      </trkpt>
      <trkpt lat="46.96531" lon="6.00142">
        <ele>691</ele>
        <time>2020-05-24T15:20:24.000Z</time>
      </trkpt>
      <trkpt lat="46.96533" lon="6.00144">
        <ele>691</ele>
        <time>2020-05-24T15:20:26.000Z</time>
      </trkpt>
      <trkpt lat="46.96534" lon="6.00147">
        <ele>691</ele>
        <time>2020-05-24T15:20:28.000Z</time>
      </trkpt>
      <trkpt lat="46.96535" lon="6.0015">
        <ele>691</ele>
        <time>2020-05-24T15:20:30.000Z</time>
      </trkpt>
      <trkpt lat="46.96537" lon="6.00153">
        <ele>691</ele>
        <time>2020-05-24T15:20:32.000Z</time>
      </trkpt>
      <trkpt lat="46.96538" lon="6.00156">
        <ele>691</ele>
        <time>2020-05-24T15:20:34.000Z</time>
      </trkpt>
      <trkpt lat="46.9654" lon="6.00158">
        <ele>691</ele>
        <time>2020-05-24T15:20:36.000Z</time>
      </trkpt>
      <trkpt lat="46.96542" lon="6.00161">
        <ele>691</ele>
        <time>2020-05-24T15:20:38.000Z</time>
      </trkpt>
      <trkpt lat="46.96544" lon="6.00164">
        <ele>691</ele>
        <time>2020-05-24T15:20:40.000Z</time>
      </trkpt>
      <trkpt lat="46.96544" lon="6.00167">
        <ele>691.83870967742</ele>
        <time>2020-05-24T15:20:42.000Z</time>
      </trkpt>
      <trkpt lat="46.96546" lon="6.00169">
        <ele>692</ele>
        <time>2020-05-24T15:20:44.000Z</time>
      </trkpt>
      <trkpt lat="46.96547" lon="6.00172">
        <ele>692</ele>
        <time>2020-05-24T15:20:46.000Z</time>
      </trkpt>
      <trkpt lat="46.96548" lon="6.00175">
        <ele>692.16</ele>
        <time>2020-05-24T15:20:49.000Z</time>
      </trkpt>
      <trkpt lat="46.96549" lon="6.00178">
        <ele>693</ele>
        <time>2020-05-24T15:20:51.000Z</time>
      </trkpt>
      <trkpt lat="46.96551" lon="6.00181">
        <ele>693</ele>
        <time>2020-05-24T15:20:53.000Z</time>
      </trkpt>
      <trkpt lat="46.96553" lon="6.00184">
        <ele>693</ele>
        <time>2020-05-24T15:20:55.000Z</time>
      </trkpt>
      <trkpt lat="46.96554" lon="6.00187">
        <ele>693</ele>
        <time>2020-05-24T15:20:57.000Z</time>
      </trkpt>
      <trkpt lat="46.96555" lon="6.00189">
        <ele>693</ele>
        <time>2020-05-24T15:20:59.000Z</time>
      </trkpt>
      <trkpt lat="46.96557" lon="6.00192">
        <ele>693</ele>
        <time>2020-05-24T15:21:01.000Z</time>
      </trkpt>
      <trkpt lat="46.96559" lon="6.00195">
        <ele>694</ele>
        <time>2020-05-24T15:21:03.000Z</time>
      </trkpt>
      <trkpt lat="46.9656" lon="6.00197">
        <ele>694</ele>
        <time>2020-05-24T15:21:05.000Z</time>
      </trkpt>
      <trkpt lat="46.96561" lon="6.002">
        <ele>694</ele>
        <time>2020-05-24T15:21:07.000Z</time>
      </trkpt>
      <trkpt lat="46.96562" lon="6.00202">
        <ele>695</ele>
        <time>2020-05-24T15:21:09.000Z</time>
      </trkpt>
      <trkpt lat="46.96564" lon="6.00206">
        <ele>695</ele>
        <time>2020-05-24T15:21:11.000Z</time>
      </trkpt>
      <trkpt lat="46.96565" lon="6.00209">
        <ele>695</ele>
        <time>2020-05-24T15:21:13.000Z</time>
      </trkpt>
      <trkpt lat="46.96566" lon="6.00212">
        <ele>695</ele>
        <time>2020-05-24T15:21:15.000Z</time>
      </trkpt>
      <trkpt lat="46.96567" lon="6.00215">
        <ele>695</ele>
        <time>2020-05-24T15:21:17.000Z</time>
      </trkpt>
      <trkpt lat="46.96569" lon="6.00219">
        <ele>695</ele>
        <time>2020-05-24T15:21:19.000Z</time>
      </trkpt>
      <trkpt lat="46.96571" lon="6.00223">
        <ele>695</ele>
        <time>2020-05-24T15:21:21.000Z</time>
      </trkpt>
      <trkpt lat="46.96572" lon="6.00226">
        <ele>695</ele>
        <time>2020-05-24T15:21:23.000Z</time>
      </trkpt>
      <trkpt lat="46.96573" lon="6.0023">
        <ele>695</ele>
        <time>2020-05-24T15:21:25.000Z</time>
      </trkpt>
      <trkpt lat="46.96573" lon="6.00233">
        <ele>695</ele>
        <time>2020-05-24T15:21:27.000Z</time>
      </trkpt>
      <trkpt lat="46.96575" lon="6.00235">
        <ele>696.1441437286</ele>
        <time>2020-05-24T15:21:29.000Z</time>
      </trkpt>
      <trkpt lat="46.96577" lon="6.00237">
        <ele>697</ele>
        <time>2020-05-24T15:21:31.000Z</time>
      </trkpt>
      <trkpt lat="46.96578" lon="6.00239">
        <ele>697</ele>
        <time>2020-05-24T15:21:33.000Z</time>
      </trkpt>
      <trkpt lat="46.9658" lon="6.0024">
        <ele>697</ele>
        <time>2020-05-24T15:21:35.000Z</time>
      </trkpt>
      <trkpt lat="46.96583" lon="6.00241">
        <ele>697</ele>
        <time>2020-05-24T15:21:38.000Z</time>
      </trkpt>
      <trkpt lat="46.96585" lon="6.00242">
        <ele>697</ele>
        <time>2020-05-24T15:21:41.000Z</time>
      </trkpt>
      <trkpt lat="46.96587" lon="6.00243">
        <ele>697</ele>
        <time>2020-05-24T15:21:44.000Z</time>
      </trkpt>
      <trkpt lat="46.96588" lon="6.0024">
        <ele>697</ele>
        <time>2020-05-24T15:21:58.000Z</time>
      </trkpt>
      <trkpt lat="46.96588" lon="6.00238">
        <ele>697</ele>
        <time>2020-05-24T15:22:28.000Z</time>
      </trkpt>
      <trkpt lat="46.96587" lon="6.00237">
        <ele>696</ele>
        <time>2020-05-24T15:22:47.000Z</time>
      </trkpt>
      <trkpt lat="46.96584" lon="6.00239">
        <ele>696.05617638176</ele>
        <time>2020-05-24T15:22:50.000Z</time>
      </trkpt>
      <trkpt lat="46.96582" lon="6.00242">
        <ele>697</ele>
        <time>2020-05-24T15:22:53.000Z</time>
      </trkpt>
      <trkpt lat="46.96581" lon="6.00245">
        <ele>697</ele>
        <time>2020-05-24T15:22:56.000Z</time>
      </trkpt>
      <trkpt lat="46.9658" lon="6.00247">
        <ele>697</ele>
        <time>2020-05-24T15:22:59.000Z</time>
      </trkpt>
      <trkpt lat="46.9658" lon="6.00251">
        <ele>697</ele>
        <time>2020-05-24T15:23:02.000Z</time>
      </trkpt>
      <trkpt lat="46.96582" lon="6.00253">
        <ele>697</ele>
        <time>2020-05-24T15:23:05.000Z</time>
      </trkpt>
      <trkpt lat="46.96582" lon="6.00256">
        <ele>697</ele>
        <time>2020-05-24T15:23:09.000Z</time>
      </trkpt>
      <trkpt lat="46.96582" lon="6.00259">
        <ele>697</ele>
        <time>2020-05-24T15:23:12.000Z</time>
      </trkpt>
      <trkpt lat="46.96582" lon="6.00262">
        <ele>697.82269690257</ele>
        <time>2020-05-24T15:23:15.000Z</time>
      </trkpt>
      <trkpt lat="46.96582" lon="6.0026">
        <ele>697</ele>
        <time>2020-05-24T15:23:27.000Z</time>
      </trkpt>
      <trkpt lat="46.96582" lon="6.00257">
        <ele>697</ele>
        <time>2020-05-24T15:23:29.000Z</time>
      </trkpt>
      <trkpt lat="46.96581" lon="6.00255">
        <ele>697</ele>
        <time>2020-05-24T15:23:32.000Z</time>
      </trkpt>
      <trkpt lat="46.9658" lon="6.00252">
        <ele>697</ele>
        <time>2020-05-24T15:23:34.000Z</time>
      </trkpt>
      <trkpt lat="46.96577" lon="6.00252">
        <ele>697</ele>
        <time>2020-05-24T15:23:37.000Z</time>
      </trkpt>
      <trkpt lat="46.96576" lon="6.00254">
        <ele>697</ele>
        <time>2020-05-24T15:23:41.000Z</time>
      </trkpt>
      <trkpt lat="46.96574" lon="6.00256">
        <ele>697</ele>
        <time>2020-05-24T15:23:44.000Z</time>
      </trkpt>
      <trkpt lat="46.96572" lon="6.00257">
        <ele>697</ele>
        <time>2020-05-24T15:23:48.000Z</time>
      </trkpt>
      <trkpt lat="46.96571" lon="6.00258">
        <ele>697</ele>
        <time>2020-05-24T15:23:50.000Z</time>
      </trkpt>
      <trkpt lat="46.96569" lon="6.0026">
        <ele>697</ele>
        <time>2020-05-24T15:23:52.000Z</time>
      </trkpt>
      <trkpt lat="46.96566" lon="6.00262">
        <ele>697</ele>
        <time>2020-05-24T15:23:54.000Z</time>
      </trkpt>
      <trkpt lat="46.96564" lon="6.00265">
        <ele>697</ele>
        <time>2020-05-24T15:23:57.000Z</time>
      </trkpt>
      <trkpt lat="46.96562" lon="6.00265">
        <ele>697</ele>
        <time>2020-05-24T15:23:59.000Z</time>
      </trkpt>
      <trkpt lat="46.96561" lon="6.00269">
        <ele>697</ele>
        <time>2020-05-24T15:24:02.000Z</time>
      </trkpt>
      <trkpt lat="46.96561" lon="6.00272">
        <ele>697</ele>
        <time>2020-05-24T15:24:04.000Z</time>
      </trkpt>
      <trkpt lat="46.96559" lon="6.00276">
        <ele>697</ele>
        <time>2020-05-24T15:24:06.000Z</time>
      </trkpt>
      <trkpt lat="46.96559" lon="6.00278">
        <ele>697</ele>
        <time>2020-05-24T15:24:08.000Z</time>
      </trkpt>
      <trkpt lat="46.96558" lon="6.00281">
        <ele>697</ele>
        <time>2020-05-24T15:24:10.000Z</time>
      </trkpt>
      <trkpt lat="46.96556" lon="6.00283">
        <ele>697</ele>
        <time>2020-05-24T15:24:12.000Z</time>
      </trkpt>
      <trkpt lat="46.96554" lon="6.00285">
        <ele>697</ele>
        <time>2020-05-24T15:24:14.000Z</time>
      </trkpt>
      <trkpt lat="46.96551" lon="6.00288">
        <ele>696</ele>
        <time>2020-05-24T15:24:17.000Z</time>
      </trkpt>
      <trkpt lat="46.96551" lon="6.00291">
        <ele>696</ele>
        <time>2020-05-24T15:24:19.000Z</time>
      </trkpt>
      <trkpt lat="46.9655" lon="6.00295">
        <ele>696</ele>
        <time>2020-05-24T15:24:21.000Z</time>
      </trkpt>
      <trkpt lat="46.96549" lon="6.00298">
        <ele>695</ele>
        <time>2020-05-24T15:24:23.000Z</time>
      </trkpt>
      <trkpt lat="46.96547" lon="6.00297">
        <ele>695</ele>
        <time>2020-05-24T15:24:33.000Z</time>
      </trkpt>
      <trkpt lat="46.96545" lon="6.00295">
        <ele>695</ele>
        <time>2020-05-24T15:24:36.000Z</time>
      </trkpt>
      <trkpt lat="46.96544" lon="6.00294">
        <ele>695</ele>
        <time>2020-05-24T15:24:38.000Z</time>
      </trkpt>
      <trkpt lat="46.96542" lon="6.00292">
        <ele>694</ele>
        <time>2020-05-24T15:24:41.000Z</time>
      </trkpt>
      <trkpt lat="46.96541" lon="6.00289">
        <ele>694</ele>
        <time>2020-05-24T15:24:44.000Z</time>
      </trkpt>
      <trkpt lat="46.96539" lon="6.00286">
        <ele>694</ele>
        <time>2020-05-24T15:24:47.000Z</time>
      </trkpt>
      <trkpt lat="46.9654" lon="6.00282">
        <ele>694</ele>
        <time>2020-05-24T15:24:50.000Z</time>
      </trkpt>
      <trkpt lat="46.96539" lon="6.00279">
        <ele>694</ele>
        <time>2020-05-24T15:24:53.000Z</time>
      </trkpt>
      <trkpt lat="46.96537" lon="6.00277">
        <ele>694</ele>
        <time>2020-05-24T15:24:56.000Z</time>
      </trkpt>
      <trkpt lat="46.96535" lon="6.00275">
        <ele>694</ele>
        <time>2020-05-24T15:24:58.000Z</time>
      </trkpt>
      <trkpt lat="46.96534" lon="6.00274">
        <ele>694</ele>
        <time>2020-05-24T15:25:00.000Z</time>
      </trkpt>
      <trkpt lat="46.96532" lon="6.00274">
        <ele>693</ele>
        <time>2020-05-24T15:25:03.000Z</time>
      </trkpt>
      <trkpt lat="46.96531" lon="6.00275">
        <ele>691</ele>
        <time>2020-05-24T15:25:08.000Z</time>
      </trkpt>
      <trkpt lat="46.96529" lon="6.00275">
        <ele>691</ele>
        <time>2020-05-24T15:25:11.000Z</time>
      </trkpt>
      <trkpt lat="46.96526" lon="6.00275">
        <ele>691</ele>
        <time>2020-05-24T15:25:14.000Z</time>
      </trkpt>
      <trkpt lat="46.96524" lon="6.00272">
        <ele>691.08695652174</ele>
        <time>2020-05-24T15:25:17.000Z</time>
      </trkpt>
      <trkpt lat="46.96522" lon="6.00271">
        <ele>692</ele>
        <time>2020-05-24T15:25:20.000Z</time>
      </trkpt>
      <trkpt lat="46.9652" lon="6.0027">
        <ele>692</ele>
        <time>2020-05-24T15:25:23.000Z</time>
      </trkpt>
      <trkpt lat="46.96518" lon="6.00268">
        <ele>692</ele>
        <time>2020-05-24T15:25:25.000Z</time>
      </trkpt>
      <trkpt lat="46.96515" lon="6.00268">
        <ele>691</ele>
        <time>2020-05-24T15:25:28.000Z</time>
      </trkpt>
      <trkpt lat="46.96513" lon="6.00268">
        <ele>691</ele>
        <time>2020-05-24T15:25:30.000Z</time>
      </trkpt>
      <trkpt lat="46.96511" lon="6.00269">
        <ele>690</ele>
        <time>2020-05-24T15:25:33.000Z</time>
      </trkpt>
      <trkpt lat="46.9651" lon="6.00269">
        <ele>690</ele>
        <time>2020-05-24T15:25:35.000Z</time>
      </trkpt>
      <trkpt lat="46.96507" lon="6.00268">
        <ele>690</ele>
        <time>2020-05-24T15:25:38.000Z</time>
      </trkpt>
      <trkpt lat="46.96505" lon="6.00268">
        <ele>690</ele>
        <time>2020-05-24T15:25:40.000Z</time>
      </trkpt>
      <trkpt lat="46.96503" lon="6.00268">
        <ele>690</ele>
        <time>2020-05-24T15:25:42.000Z</time>
      </trkpt>
      <trkpt lat="46.96501" lon="6.00269">
        <ele>690</ele>
        <time>2020-05-24T15:25:44.000Z</time>
      </trkpt>
      <trkpt lat="46.96499" lon="6.0027">
        <ele>689.98261411574</ele>
        <time>2020-05-24T15:25:46.000Z</time>
      </trkpt>
      <trkpt lat="46.96497" lon="6.00272">
        <ele>689</ele>
        <time>2020-05-24T15:25:49.000Z</time>
      </trkpt>
      <trkpt lat="46.96495" lon="6.00271">
        <ele>688</ele>
        <time>2020-05-24T15:25:52.000Z</time>
      </trkpt>
      <trkpt lat="46.96493" lon="6.0027">
        <ele>688</ele>
        <time>2020-05-24T15:25:54.000Z</time>
      </trkpt>
      <trkpt lat="46.96491" lon="6.00269">
        <ele>688</ele>
        <time>2020-05-24T15:25:56.000Z</time>
      </trkpt>
      <trkpt lat="46.96489" lon="6.00267">
        <ele>687</ele>
        <time>2020-05-24T15:25:58.000Z</time>
      </trkpt>
      <trkpt lat="46.96488" lon="6.00267">
        <ele>687</ele>
        <time>2020-05-24T15:26:00.000Z</time>
      </trkpt>
      <trkpt lat="46.96486" lon="6.00268">
        <ele>687</ele>
        <time>2020-05-24T15:26:02.000Z</time>
      </trkpt>
      <trkpt lat="46.96484" lon="6.00269">
        <ele>686.9230736771</ele>
        <time>2020-05-24T15:26:04.000Z</time>
      </trkpt>
      <trkpt lat="46.96483" lon="6.00272">
        <ele>686</ele>
        <time>2020-05-24T15:26:06.000Z</time>
      </trkpt>
      <trkpt lat="46.96482" lon="6.00276">
        <ele>686</ele>
        <time>2020-05-24T15:26:08.000Z</time>
      </trkpt>
      <trkpt lat="46.9648" lon="6.00279">
        <ele>685</ele>
        <time>2020-05-24T15:26:10.000Z</time>
      </trkpt>
      <trkpt lat="46.96479" lon="6.00282">
        <ele>685</ele>
        <time>2020-05-24T15:26:12.000Z</time>
      </trkpt>
      <trkpt lat="46.96477" lon="6.00286">
        <ele>685</ele>
        <time>2020-05-24T15:26:15.000Z</time>
      </trkpt>
      <trkpt lat="46.96474" lon="6.00286">
        <ele>685</ele>
        <time>2020-05-24T15:26:17.000Z</time>
      </trkpt>
      <trkpt lat="46.96472" lon="6.00285">
        <ele>685</ele>
        <time>2020-05-24T15:26:19.000Z</time>
      </trkpt>
      <trkpt lat="46.9647" lon="6.00286">
        <ele>685</ele>
        <time>2020-05-24T15:26:22.000Z</time>
      </trkpt>
      <trkpt lat="46.96467" lon="6.00287">
        <ele>685</ele>
        <time>2020-05-24T15:26:25.000Z</time>
      </trkpt>
      <trkpt lat="46.96465" lon="6.00289">
        <ele>685</ele>
        <time>2020-05-24T15:26:29.000Z</time>
      </trkpt>
      <trkpt lat="46.96463" lon="6.0029">
        <ele>685</ele>
        <time>2020-05-24T15:26:31.000Z</time>
      </trkpt>
      <trkpt lat="46.96461" lon="6.0029">
        <ele>685</ele>
        <time>2020-05-24T15:26:33.000Z</time>
      </trkpt>
      <trkpt lat="46.96459" lon="6.00289">
        <ele>685.10638906288</ele>
        <time>2020-05-24T15:26:35.000Z</time>
      </trkpt>
      <trkpt lat="46.96457" lon="6.00288">
        <ele>686</ele>
        <time>2020-05-24T15:26:38.000Z</time>
      </trkpt>
      <trkpt lat="46.96455" lon="6.00285">
        <ele>685</ele>
        <time>2020-05-24T15:26:41.000Z</time>
      </trkpt>
      <trkpt lat="46.96453" lon="6.00283">
        <ele>685</ele>
        <time>2020-05-24T15:26:43.000Z</time>
      </trkpt>
      <trkpt lat="46.96453" lon="6.0028">
        <ele>685</ele>
        <time>2020-05-24T15:26:45.000Z</time>
      </trkpt>
      <trkpt lat="46.96451" lon="6.00278">
        <ele>685</ele>
        <time>2020-05-24T15:26:48.000Z</time>
      </trkpt>
      <trkpt lat="46.9645" lon="6.00275">
        <ele>685</ele>
        <time>2020-05-24T15:26:51.000Z</time>
      </trkpt>
      <trkpt lat="46.96448" lon="6.00274">
        <ele>684</ele>
        <time>2020-05-24T15:26:53.000Z</time>
      </trkpt>
      <trkpt lat="46.96445" lon="6.00273">
        <ele>684</ele>
        <time>2020-05-24T15:26:55.000Z</time>
      </trkpt>
      <trkpt lat="46.96443" lon="6.00272">
        <ele>684</ele>
        <time>2020-05-24T15:26:57.000Z</time>
      </trkpt>
      <trkpt lat="46.96441" lon="6.00271">
        <ele>684.03539833033</ele>
        <time>2020-05-24T15:26:59.000Z</time>
      </trkpt>
      <trkpt lat="46.96439" lon="6.00269">
        <ele>684.84</ele>
        <time>2020-05-24T15:27:01.000Z</time>
      </trkpt>
      <trkpt lat="46.96437" lon="6.00266">
        <ele>684</ele>
        <time>2020-05-24T15:27:03.000Z</time>
      </trkpt>
      <trkpt lat="46.96435" lon="6.00264">
        <ele>684</ele>
        <time>2020-05-24T15:27:05.000Z</time>
      </trkpt>
      <trkpt lat="46.96432" lon="6.00263">
        <ele>684</ele>
        <time>2020-05-24T15:27:07.000Z</time>
      </trkpt>
      <trkpt lat="46.9643" lon="6.00264">
        <ele>684</ele>
        <time>2020-05-24T15:27:09.000Z</time>
      </trkpt>
      <trkpt lat="46.96429" lon="6.00264">
        <ele>684.16</ele>
        <time>2020-05-24T15:27:11.000Z</time>
      </trkpt>
      <trkpt lat="46.96427" lon="6.00265">
        <ele>685</ele>
        <time>2020-05-24T15:27:13.000Z</time>
      </trkpt>
      <trkpt lat="46.96425" lon="6.00267">
        <ele>685</ele>
        <time>2020-05-24T15:27:15.000Z</time>
      </trkpt>
      <trkpt lat="46.96423" lon="6.00268">
        <ele>685</ele>
        <time>2020-05-24T15:27:22.000Z</time>
      </trkpt>
      <trkpt lat="46.96424" lon="6.00265">
        <ele>684.14545539174</ele>
        <time>2020-05-24T15:27:27.000Z</time>
      </trkpt>
      <trkpt lat="46.96425" lon="6.00263">
        <ele>684</ele>
        <time>2020-05-24T15:27:32.000Z</time>
      </trkpt>
      <trkpt lat="46.96426" lon="6.00261">
        <ele>684</ele>
        <time>2020-05-24T15:27:46.000Z</time>
      </trkpt>
      <trkpt lat="46.96427" lon="6.00258">
        <ele>684</ele>
        <time>2020-05-24T15:28:05.000Z</time>
      </trkpt>
      <trkpt lat="46.96428" lon="6.00255">
        <ele>684</ele>
        <time>2020-05-24T15:28:11.000Z</time>
      </trkpt>
      <trkpt lat="46.96428" lon="6.00251">
        <ele>684</ele>
        <time>2020-05-24T15:28:14.000Z</time>
      </trkpt>
      <trkpt lat="46.96427" lon="6.00247">
        <ele>684</ele>
        <time>2020-05-24T15:28:17.000Z</time>
      </trkpt>
      <trkpt lat="46.96426" lon="6.00245">
        <ele>684</ele>
        <time>2020-05-24T15:28:19.000Z</time>
      </trkpt>
      <trkpt lat="46.96424" lon="6.00243">
        <ele>684</ele>
        <time>2020-05-24T15:28:21.000Z</time>
      </trkpt>
      <trkpt lat="46.96422" lon="6.00242">
        <ele>684</ele>
        <time>2020-05-24T15:28:23.000Z</time>
      </trkpt>
      <trkpt lat="46.9642" lon="6.00241">
        <ele>684</ele>
        <time>2020-05-24T15:28:25.000Z</time>
      </trkpt>
      <trkpt lat="46.96418" lon="6.0024">
        <ele>684</ele>
        <time>2020-05-24T15:28:27.000Z</time>
      </trkpt>
      <trkpt lat="46.96416" lon="6.00237">
        <ele>684</ele>
        <time>2020-05-24T15:28:30.000Z</time>
      </trkpt>
      <trkpt lat="46.96414" lon="6.00235">
        <ele>684</ele>
        <time>2020-05-24T15:28:32.000Z</time>
      </trkpt>
      <trkpt lat="46.96413" lon="6.00234">
        <ele>684</ele>
        <time>2020-05-24T15:28:34.000Z</time>
      </trkpt>
      <trkpt lat="46.96411" lon="6.00231">
        <ele>684</ele>
        <time>2020-05-24T15:28:36.000Z</time>
      </trkpt>
      <trkpt lat="46.9641" lon="6.00228">
        <ele>684</ele>
        <time>2020-05-24T15:28:38.000Z</time>
      </trkpt>
      <trkpt lat="46.96408" lon="6.00226">
        <ele>683.84</ele>
        <time>2020-05-24T15:28:40.000Z</time>
      </trkpt>
      <trkpt lat="46.96405" lon="6.00223">
        <ele>683</ele>
        <time>2020-05-24T15:28:42.000Z</time>
      </trkpt>
      <trkpt lat="46.96404" lon="6.00221">
        <ele>683</ele>
        <time>2020-05-24T15:28:44.000Z</time>
      </trkpt>
      <trkpt lat="46.96403" lon="6.00219">
        <ele>683</ele>
        <time>2020-05-24T15:28:46.000Z</time>
      </trkpt>
      <trkpt lat="46.96402" lon="6.00215">
        <ele>682</ele>
        <time>2020-05-24T15:28:49.000Z</time>
      </trkpt>
      <trkpt lat="46.96401" lon="6.00213">
        <ele>682</ele>
        <time>2020-05-24T15:28:51.000Z</time>
      </trkpt>
      <trkpt lat="46.96399" lon="6.0021">
        <ele>682</ele>
        <time>2020-05-24T15:28:54.000Z</time>
      </trkpt>
      <trkpt lat="46.96398" lon="6.00207">
        <ele>682</ele>
        <time>2020-05-24T15:28:57.000Z</time>
      </trkpt>
      <trkpt lat="46.96397" lon="6.00205">
        <ele>682</ele>
        <time>2020-05-24T15:28:59.000Z</time>
      </trkpt>
      <trkpt lat="46.96395" lon="6.00203">
        <ele>682</ele>
        <time>2020-05-24T15:29:01.000Z</time>
      </trkpt>
      <trkpt lat="46.96394" lon="6.002">
        <ele>681.84</ele>
        <time>2020-05-24T15:29:04.000Z</time>
      </trkpt>
      <trkpt lat="46.96392" lon="6.00196">
        <ele>681</ele>
        <time>2020-05-24T15:29:07.000Z</time>
      </trkpt>
      <trkpt lat="46.96391" lon="6.00193">
        <ele>681</ele>
        <time>2020-05-24T15:29:10.000Z</time>
      </trkpt>
      <trkpt lat="46.96391" lon="6.00189">
        <ele>681</ele>
        <time>2020-05-24T15:29:12.000Z</time>
      </trkpt>
      <trkpt lat="46.96391" lon="6.00185">
        <ele>681</ele>
        <time>2020-05-24T15:29:14.000Z</time>
      </trkpt>
      <trkpt lat="46.96391" lon="6.00182">
        <ele>681</ele>
        <time>2020-05-24T15:29:16.000Z</time>
      </trkpt>
      <trkpt lat="46.96392" lon="6.00178">
        <ele>680.85840667867</ele>
        <time>2020-05-24T15:29:19.000Z</time>
      </trkpt>
      <trkpt lat="46.96392" lon="6.00176">
        <ele>681</ele>
        <time>2020-05-24T15:29:22.000Z</time>
      </trkpt>
      <trkpt lat="46.96394" lon="6.00174">
        <ele>681</ele>
        <time>2020-05-24T15:29:25.000Z</time>
      </trkpt>
      <trkpt lat="46.96395" lon="6.00171">
        <ele>681</ele>
        <time>2020-05-24T15:29:28.000Z</time>
      </trkpt>
      <trkpt lat="46.96397" lon="6.00169">
        <ele>681</ele>
        <time>2020-05-24T15:29:30.000Z</time>
      </trkpt>
      <trkpt lat="46.96398" lon="6.00166">
        <ele>681</ele>
        <time>2020-05-24T15:29:32.000Z</time>
      </trkpt>
      <trkpt lat="46.96399" lon="6.00162">
        <ele>681</ele>
        <time>2020-05-24T15:29:34.000Z</time>
      </trkpt>
      <trkpt lat="46.964" lon="6.0016">
        <ele>681</ele>
        <time>2020-05-24T15:29:36.000Z</time>
      </trkpt>
      <trkpt lat="46.964" lon="6.00156">
        <ele>680.84</ele>
        <time>2020-05-24T15:29:38.000Z</time>
      </trkpt>
      <trkpt lat="46.964" lon="6.00153">
        <ele>680</ele>
        <time>2020-05-24T15:29:40.000Z</time>
      </trkpt>
      <trkpt lat="46.964" lon="6.0015">
        <ele>680</ele>
        <time>2020-05-24T15:29:43.000Z</time>
      </trkpt>
      <trkpt lat="46.964" lon="6.00147">
        <ele>680</ele>
        <time>2020-05-24T15:29:45.000Z</time>
      </trkpt>
      <trkpt lat="46.96399" lon="6.00144">
        <ele>680</ele>
        <time>2020-05-24T15:29:47.000Z</time>
      </trkpt>
      <trkpt lat="46.96398" lon="6.0014">
        <ele>679.84</ele>
        <time>2020-05-24T15:29:50.000Z</time>
      </trkpt>
      <trkpt lat="46.96398" lon="6.00136">
        <ele>679</ele>
        <time>2020-05-24T15:29:52.000Z</time>
      </trkpt>
      <trkpt lat="46.96398" lon="6.00133">
        <ele>679</ele>
        <time>2020-05-24T15:29:53.000Z</time>
      </trkpt>
      <trkpt lat="46.96397" lon="6.00129">
        <ele>679</ele>
        <time>2020-05-24T15:29:55.000Z</time>
      </trkpt>
      <trkpt lat="46.96397" lon="6.00125">
        <ele>679</ele>
        <time>2020-05-24T15:29:57.000Z</time>
      </trkpt>
      <trkpt lat="46.96397" lon="6.00122">
        <ele>679</ele>
        <time>2020-05-24T15:30:00.000Z</time>
      </trkpt>
      <trkpt lat="46.96398" lon="6.0012">
        <ele>679</ele>
        <time>2020-05-24T15:30:02.000Z</time>
      </trkpt>
      <trkpt lat="46.96398" lon="6.00117">
        <ele>679</ele>
        <time>2020-05-24T15:30:05.000Z</time>
      </trkpt>
      <trkpt lat="46.96397" lon="6.00115">
        <ele>678.84905751512</ele>
        <time>2020-05-24T15:30:07.000Z</time>
      </trkpt>
      <trkpt lat="46.96397" lon="6.00111">
        <ele>678</ele>
        <time>2020-05-24T15:30:09.000Z</time>
      </trkpt>
      <trkpt lat="46.96397" lon="6.00108">
        <ele>678</ele>
        <time>2020-05-24T15:30:12.000Z</time>
      </trkpt>
      <trkpt lat="46.96398" lon="6.00105">
        <ele>679</ele>
        <time>2020-05-24T15:30:16.000Z</time>
      </trkpt>
      <trkpt lat="46.96399" lon="6.00101">
        <ele>679</ele>
        <time>2020-05-24T15:30:18.000Z</time>
      </trkpt>
      <trkpt lat="46.964" lon="6.00097">
        <ele>679</ele>
        <time>2020-05-24T15:30:20.000Z</time>
      </trkpt>
      <trkpt lat="46.964" lon="6.00094">
        <ele>679</ele>
        <time>2020-05-24T15:30:22.000Z</time>
      </trkpt>
      <trkpt lat="46.96401" lon="6.00091">
        <ele>678</ele>
        <time>2020-05-24T15:30:24.000Z</time>
      </trkpt>
      <trkpt lat="46.964" lon="6.00087">
        <ele>678</ele>
        <time>2020-05-24T15:30:27.000Z</time>
      </trkpt>
      <trkpt lat="46.96398" lon="6.00084">
        <ele>678</ele>
        <time>2020-05-24T15:30:29.000Z</time>
      </trkpt>
      <trkpt lat="46.96398" lon="6.00081">
        <ele>678</ele>
        <time>2020-05-24T15:30:31.000Z</time>
      </trkpt>
      <trkpt lat="46.96398" lon="6.00078">
        <ele>678</ele>
        <time>2020-05-24T15:30:33.000Z</time>
      </trkpt>
      <trkpt lat="46.96398" lon="6.00075">
        <ele>678</ele>
        <time>2020-05-24T15:30:35.000Z</time>
      </trkpt>
      <trkpt lat="46.96398" lon="6.00073">
        <ele>678</ele>
        <time>2020-05-24T15:30:37.000Z</time>
      </trkpt>
      <trkpt lat="46.96398" lon="6.00069">
        <ele>678</ele>
        <time>2020-05-24T15:30:40.000Z</time>
      </trkpt>
      <trkpt lat="46.96399" lon="6.00066">
        <ele>679.06666002958</ele>
        <time>2020-05-24T15:30:43.000Z</time>
      </trkpt>
      <trkpt lat="46.964" lon="6.00065">
        <ele>680</ele>
        <time>2020-05-24T15:30:45.000Z</time>
      </trkpt>
      <trkpt lat="46.96402" lon="6.00063">
        <ele>681</ele>
        <time>2020-05-24T15:30:47.000Z</time>
      </trkpt>
      <trkpt lat="46.96403" lon="6.00061">
        <ele>681</ele>
        <time>2020-05-24T15:30:49.000Z</time>
      </trkpt>
      <trkpt lat="46.96405" lon="6.00059">
        <ele>681</ele>
        <time>2020-05-24T15:30:51.000Z</time>
      </trkpt>
      <trkpt lat="46.96406" lon="6.00055">
        <ele>681</ele>
        <time>2020-05-24T15:30:54.000Z</time>
      </trkpt>
      <trkpt lat="46.96407" lon="6.00052">
        <ele>681</ele>
        <time>2020-05-24T15:30:57.000Z</time>
      </trkpt>
      <trkpt lat="46.96409" lon="6.0005">
        <ele>681</ele>
        <time>2020-05-24T15:30:59.000Z</time>
      </trkpt>
      <trkpt lat="46.96409" lon="6.00047">
        <ele>681</ele>
        <time>2020-05-24T15:31:01.000Z</time>
      </trkpt>
      <trkpt lat="46.96409" lon="6.00044">
        <ele>681.11881225762</ele>
        <time>2020-05-24T15:31:03.000Z</time>
      </trkpt>
      <trkpt lat="46.96408" lon="6.0004">
        <ele>682</ele>
        <time>2020-05-24T15:31:05.000Z</time>
      </trkpt>
      <trkpt lat="46.96407" lon="6.00038">
        <ele>681.8717917861</ele>
        <time>2020-05-24T15:31:07.000Z</time>
      </trkpt>
      <trkpt lat="46.96406" lon="6.00035">
        <ele>681</ele>
        <time>2020-05-24T15:31:11.000Z</time>
      </trkpt>
      <trkpt lat="46.96406" lon="6.00032">
        <ele>681</ele>
        <time>2020-05-24T15:31:14.000Z</time>
      </trkpt>
      <trkpt lat="46.96407" lon="6.00028">
        <ele>681</ele>
        <time>2020-05-24T15:31:16.000Z</time>
      </trkpt>
      <trkpt lat="46.96407" lon="6.00025">
        <ele>681</ele>
        <time>2020-05-24T15:31:18.000Z</time>
      </trkpt>
      <trkpt lat="46.96408" lon="6.00022">
        <ele>681</ele>
        <time>2020-05-24T15:31:20.000Z</time>
      </trkpt>
      <trkpt lat="46.96408" lon="6.00018">
        <ele>681</ele>
        <time>2020-05-24T15:31:22.000Z</time>
      </trkpt>
      <trkpt lat="46.96408" lon="6.00015">
        <ele>681</ele>
        <time>2020-05-24T15:31:24.000Z</time>
      </trkpt>
      <trkpt lat="46.96408" lon="6.00012">
        <ele>681</ele>
        <time>2020-05-24T15:31:26.000Z</time>
      </trkpt>
      <trkpt lat="46.96408" lon="6.00008">
        <ele>681</ele>
        <time>2020-05-24T15:31:29.000Z</time>
      </trkpt>
      <trkpt lat="46.96408" lon="6.00004">
        <ele>680.89655020215</ele>
        <time>2020-05-24T15:31:31.000Z</time>
      </trkpt>
      <trkpt lat="46.96408" lon="6.00001">
        <ele>680</ele>
        <time>2020-05-24T15:31:33.000Z</time>
      </trkpt>
      <trkpt lat="46.96409" lon="5.99998">
        <ele>680</ele>
        <time>2020-05-24T15:31:35.000Z</time>
      </trkpt>
      <trkpt lat="46.96408" lon="5.99993">
        <ele>680</ele>
        <time>2020-05-24T15:31:37.000Z</time>
      </trkpt>
      <trkpt lat="46.96408" lon="5.9999">
        <ele>680</ele>
        <time>2020-05-24T15:31:39.000Z</time>
      </trkpt>
      <trkpt lat="46.96409" lon="5.99987">
        <ele>680</ele>
        <time>2020-05-24T15:31:42.000Z</time>
      </trkpt>
      <trkpt lat="46.96409" lon="5.99983">
        <ele>680</ele>
        <time>2020-05-24T15:31:45.000Z</time>
      </trkpt>
      <trkpt lat="46.96409" lon="5.9998">
        <ele>680</ele>
        <time>2020-05-24T15:31:47.000Z</time>
      </trkpt>
      <trkpt lat="46.96409" lon="5.99978">
        <ele>679</ele>
        <time>2020-05-24T15:31:49.000Z</time>
      </trkpt>
      <trkpt lat="46.9641" lon="5.99975">
        <ele>678.9230736771</ele>
        <time>2020-05-24T15:31:51.000Z</time>
      </trkpt>
      <trkpt lat="46.9641" lon="5.99972">
        <ele>678</ele>
        <time>2020-05-24T15:31:54.000Z</time>
      </trkpt>
      <trkpt lat="46.96411" lon="5.9997">
        <ele>676</ele>
        <time>2020-05-24T15:31:59.000Z</time>
      </trkpt>
      <trkpt lat="46.96411" lon="5.99967">
        <ele>676</ele>
        <time>2020-05-24T15:32:02.000Z</time>
      </trkpt>
      <trkpt lat="46.96402" lon="5.99967">
        <ele>671</ele>
        <time>2020-05-24T15:32:17.000Z</time>
      </trkpt>
      <trkpt lat="46.96396" lon="5.99968">
        <ele>669</ele>
        <time>2020-05-24T15:32:22.000Z</time>
      </trkpt>
      <trkpt lat="46.96395" lon="5.99968">
        <ele>669</ele>
        <time>2020-05-24T15:32:24.000Z</time>
      </trkpt>
      <trkpt lat="46.96393" lon="5.99971">
        <ele>668</ele>
        <time>2020-05-24T15:32:30.000Z</time>
      </trkpt>
      <trkpt lat="46.96392" lon="5.99973">
        <ele>667</ele>
        <time>2020-05-24T15:32:34.000Z</time>
      </trkpt>
      <trkpt lat="46.96391" lon="5.99976">
        <ele>666.84</ele>
        <time>2020-05-24T15:32:37.000Z</time>
      </trkpt>
      <trkpt lat="46.96391" lon="5.99978">
        <ele>665.20548293487</ele>
        <time>2020-05-24T15:32:40.000Z</time>
      </trkpt>
      <trkpt lat="46.96389" lon="5.9998">
        <ele>664</ele>
        <time>2020-05-24T15:32:42.000Z</time>
      </trkpt>
      <trkpt lat="46.96387" lon="5.99983">
        <ele>663</ele>
        <time>2020-05-24T15:32:45.000Z</time>
      </trkpt>
      <trkpt lat="46.96386" lon="5.9998">
        <ele>663</ele>
        <time>2020-05-24T15:32:52.000Z</time>
      </trkpt>
      <trkpt lat="46.96384" lon="5.99979">
        <ele>663</ele>
        <time>2020-05-24T15:33:02.000Z</time>
      </trkpt>
      <trkpt lat="46.96384" lon="5.99982">
        <ele>663</ele>
        <time>2020-05-24T15:33:05.000Z</time>
      </trkpt>
      <trkpt lat="46.96384" lon="5.99985">
        <ele>662.85321057823</ele>
        <time>2020-05-24T15:33:07.000Z</time>
      </trkpt>
      <trkpt lat="46.96383" lon="5.99988">
        <ele>661</ele>
        <time>2020-05-24T15:33:10.000Z</time>
      </trkpt>
      <trkpt lat="46.96382" lon="5.99991">
        <ele>660.85185185185</ele>
        <time>2020-05-24T15:33:14.000Z</time>
      </trkpt>
      <trkpt lat="46.96381" lon="5.99994">
        <ele>659</ele>
        <time>2020-05-24T15:33:17.000Z</time>
      </trkpt>
      <trkpt lat="46.96381" lon="5.99996">
        <ele>659</ele>
        <time>2020-05-24T15:33:19.000Z</time>
      </trkpt>
      <trkpt lat="46.9638" lon="6">
        <ele>659</ele>
        <time>2020-05-24T15:33:23.000Z</time>
      </trkpt>
      <trkpt lat="46.96379" lon="6.00002">
        <ele>658</ele>
        <time>2020-05-24T15:33:25.000Z</time>
      </trkpt>
      <trkpt lat="46.96378" lon="6.00003">
        <ele>657.94382361824</ele>
        <time>2020-05-24T15:33:27.000Z</time>
      </trkpt>
      <trkpt lat="46.96377" lon="6.00005">
        <ele>656</ele>
        <time>2020-05-24T15:33:30.000Z</time>
      </trkpt>
      <trkpt lat="46.96376" lon="6.00008">
        <ele>656</ele>
        <time>2020-05-24T15:33:32.000Z</time>
      </trkpt>
      <trkpt lat="46.96374" lon="6.00009">
        <ele>655</ele>
        <time>2020-05-24T15:33:37.000Z</time>
      </trkpt>
      <trkpt lat="46.96373" lon="6.00011">
        <ele>654</ele>
        <time>2020-05-24T15:33:39.000Z</time>
      </trkpt>
      <trkpt lat="46.96372" lon="6.00013">
        <ele>652.85714285714</ele>
        <time>2020-05-24T15:33:45.000Z</time>
      </trkpt>
      <trkpt lat="46.96371" lon="6.00015">
        <ele>652</ele>
        <time>2020-05-24T15:33:48.000Z</time>
      </trkpt>
      <trkpt lat="46.96369" lon="6.00015">
        <ele>651</ele>
        <time>2020-05-24T15:33:51.000Z</time>
      </trkpt>
      <trkpt lat="46.96367" lon="6.00018">
        <ele>650</ele>
        <time>2020-05-24T15:33:54.000Z</time>
      </trkpt>
      <trkpt lat="46.96366" lon="6.0002">
        <ele>649</ele>
        <time>2020-05-24T15:33:57.000Z</time>
      </trkpt>
      <trkpt lat="46.96364" lon="6.00021">
        <ele>647.84761858322</ele>
        <time>2020-05-24T15:34:01.000Z</time>
      </trkpt>
      <trkpt lat="46.96363" lon="6.00023">
        <ele>647</ele>
        <time>2020-05-24T15:34:04.000Z</time>
      </trkpt>
      <trkpt lat="46.96363" lon="6.00019">
        <ele>647</ele>
        <time>2020-05-24T15:34:07.000Z</time>
      </trkpt>
      <trkpt lat="46.96362" lon="6.00016">
        <ele>646.08800188415</ele>
        <time>2020-05-24T15:34:09.000Z</time>
      </trkpt>
      <trkpt lat="46.9636" lon="6.00016">
        <ele>645</ele>
        <time>2020-05-24T15:34:12.000Z</time>
      </trkpt>
      <trkpt lat="46.96358" lon="6.00018">
        <ele>645</ele>
        <time>2020-05-24T15:34:14.000Z</time>
      </trkpt>
      <trkpt lat="46.96358" lon="6.00022">
        <ele>645</ele>
        <time>2020-05-24T15:34:16.000Z</time>
      </trkpt>
      <trkpt lat="46.96358" lon="6.00027">
        <ele>644</ele>
        <time>2020-05-24T15:34:18.000Z</time>
      </trkpt>
      <trkpt lat="46.96357" lon="6.00031">
        <ele>643.09375</ele>
        <time>2020-05-24T15:34:20.000Z</time>
      </trkpt>
      <trkpt lat="46.96357" lon="6.00035">
        <ele>643</ele>
        <time>2020-05-24T15:34:22.000Z</time>
      </trkpt>
      <trkpt lat="46.96357" lon="6.00039">
        <ele>642</ele>
        <time>2020-05-24T15:34:24.000Z</time>
      </trkpt>
      <trkpt lat="46.96357" lon="6.00042">
        <ele>641</ele>
        <time>2020-05-24T15:34:27.000Z</time>
      </trkpt>
      <trkpt lat="46.96356" lon="6.00045">
        <ele>640</ele>
        <time>2020-05-24T15:34:29.000Z</time>
      </trkpt>
      <trkpt lat="46.96354" lon="6.00046">
        <ele>639.85714285714</ele>
        <time>2020-05-24T15:34:31.000Z</time>
      </trkpt>
      <trkpt lat="46.96353" lon="6.00049">
        <ele>639</ele>
        <time>2020-05-24T15:34:33.000Z</time>
      </trkpt>
      <trkpt lat="46.96353" lon="6.00054">
        <ele>638</ele>
        <time>2020-05-24T15:34:35.000Z</time>
      </trkpt>
      <trkpt lat="46.96353" lon="6.00058">
        <ele>637.84</ele>
        <time>2020-05-24T15:34:37.000Z</time>
      </trkpt>
      <trkpt lat="46.96352" lon="6.00061">
        <ele>637</ele>
        <time>2020-05-24T15:34:40.000Z</time>
      </trkpt>
      <trkpt lat="46.96349" lon="6.00061">
        <ele>636</ele>
        <time>2020-05-24T15:34:44.000Z</time>
      </trkpt>
      <trkpt lat="46.96348" lon="6.00062">
        <ele>636</ele>
        <time>2020-05-24T15:34:46.000Z</time>
      </trkpt>
      <trkpt lat="46.96347" lon="6.00065">
        <ele>635.84</ele>
        <time>2020-05-24T15:34:48.000Z</time>
      </trkpt>
      <trkpt lat="46.96346" lon="6.00069">
        <ele>634.84</ele>
        <time>2020-05-24T15:34:51.000Z</time>
      </trkpt>
      <trkpt lat="46.96346" lon="6.00071">
        <ele>633</ele>
        <time>2020-05-24T15:34:55.000Z</time>
      </trkpt>
      <trkpt lat="46.96347" lon="6.00074">
        <ele>632</ele>
        <time>2020-05-24T15:34:58.000Z</time>
      </trkpt>
      <trkpt lat="46.96346" lon="6.00076">
        <ele>632</ele>
        <time>2020-05-24T15:35:00.000Z</time>
      </trkpt>
      <trkpt lat="46.96346" lon="6.00079">
        <ele>631</ele>
        <time>2020-05-24T15:35:03.000Z</time>
      </trkpt>
      <trkpt lat="46.96347" lon="6.0008">
        <ele>631</ele>
        <time>2020-05-24T15:35:08.000Z</time>
      </trkpt>
      <trkpt lat="46.96349" lon="6.00082">
        <ele>631</ele>
        <time>2020-05-24T15:35:21.000Z</time>
      </trkpt>
      <trkpt lat="46.96349" lon="6.00084">
        <ele>631</ele>
        <time>2020-05-24T15:35:23.000Z</time>
      </trkpt>
      <trkpt lat="46.9635" lon="6.00087">
        <ele>630.97675145489</ele>
        <time>2020-05-24T15:35:34.000Z</time>
      </trkpt>
      <trkpt lat="46.96348" lon="6.0009">
        <ele>630</ele>
        <time>2020-05-24T15:35:38.000Z</time>
      </trkpt>
      <trkpt lat="46.96347" lon="6.00091">
        <ele>627</ele>
        <time>2020-05-24T15:35:41.000Z</time>
      </trkpt>
      <trkpt lat="46.96346" lon="6.00092">
        <ele>627</ele>
        <time>2020-05-24T15:35:42.000Z</time>
      </trkpt>
      <trkpt lat="46.96345" lon="6.00093">
        <ele>627</ele>
        <time>2020-05-24T15:35:43.000Z</time>
      </trkpt>
      <trkpt lat="46.96343" lon="6.00095">
        <ele>627</ele>
        <time>2020-05-24T15:35:45.000Z</time>
      </trkpt>
      <trkpt lat="46.96341" lon="6.00098">
        <ele>626</ele>
        <time>2020-05-24T15:35:47.000Z</time>
      </trkpt>
      <trkpt lat="46.9634" lon="6.00101">
        <ele>626</ele>
        <time>2020-05-24T15:35:49.000Z</time>
      </trkpt>
      <trkpt lat="46.9634" lon="6.00103">
        <ele>625.88976798565</ele>
        <time>2020-05-24T15:35:51.000Z</time>
      </trkpt>
      <trkpt lat="46.9634" lon="6.00106">
        <ele>625</ele>
        <time>2020-05-24T15:35:53.000Z</time>
      </trkpt>
      <trkpt lat="46.9634" lon="6.0011">
        <ele>625</ele>
        <time>2020-05-24T15:35:56.000Z</time>
      </trkpt>
      <trkpt lat="46.96339" lon="6.00113">
        <ele>624</ele>
        <time>2020-05-24T15:35:58.000Z</time>
      </trkpt>
      <trkpt lat="46.96338" lon="6.00116">
        <ele>623.84</ele>
        <time>2020-05-24T15:36:00.000Z</time>
      </trkpt>
      <trkpt lat="46.96337" lon="6.00121">
        <ele>623</ele>
        <time>2020-05-24T15:36:02.000Z</time>
      </trkpt>
      <trkpt lat="46.96337" lon="6.00124">
        <ele>623</ele>
        <time>2020-05-24T15:36:03.000Z</time>
      </trkpt>
      <trkpt lat="46.96338" lon="6.00128">
        <ele>623</ele>
        <time>2020-05-24T15:36:05.000Z</time>
      </trkpt>
      <trkpt lat="46.96338" lon="6.00132">
        <ele>623</ele>
        <time>2020-05-24T15:36:08.000Z</time>
      </trkpt>
      <trkpt lat="46.96339" lon="6.00136">
        <ele>623</ele>
        <time>2020-05-24T15:36:10.000Z</time>
      </trkpt>
      <trkpt lat="46.96339" lon="6.00139">
        <ele>623</ele>
        <time>2020-05-24T15:36:21.000Z</time>
      </trkpt>
      <trkpt lat="46.96339" lon="6.00141">
        <ele>623</ele>
        <time>2020-05-24T15:36:23.000Z</time>
      </trkpt>
      <trkpt lat="46.96338" lon="6.00144">
        <ele>621</ele>
        <time>2020-05-24T15:36:26.000Z</time>
      </trkpt>
      <trkpt lat="46.96337" lon="6.00147">
        <ele>621</ele>
        <time>2020-05-24T15:36:28.000Z</time>
      </trkpt>
      <trkpt lat="46.96337" lon="6.00149">
        <ele>621</ele>
        <time>2020-05-24T15:36:30.000Z</time>
      </trkpt>
      <trkpt lat="46.96337" lon="6.00152">
        <ele>621</ele>
        <time>2020-05-24T15:36:32.000Z</time>
      </trkpt>
      <trkpt lat="46.96337" lon="6.00155">
        <ele>621</ele>
        <time>2020-05-24T15:36:34.000Z</time>
      </trkpt>
      <trkpt lat="46.96336" lon="6.00159">
        <ele>620</ele>
        <time>2020-05-24T15:36:37.000Z</time>
      </trkpt>
      <trkpt lat="46.96336" lon="6.00162">
        <ele>620</ele>
        <time>2020-05-24T15:36:39.000Z</time>
      </trkpt>
      <trkpt lat="46.96335" lon="6.00166">
        <ele>620</ele>
        <time>2020-05-24T15:36:41.000Z</time>
      </trkpt>
      <trkpt lat="46.96334" lon="6.00169">
        <ele>619.84761858322</ele>
        <time>2020-05-24T15:36:44.000Z</time>
      </trkpt>
      <trkpt lat="46.96334" lon="6.00173">
        <ele>618.85713725951</ele>
        <time>2020-05-24T15:36:46.000Z</time>
      </trkpt>
      <trkpt lat="46.96335" lon="6.00173">
        <ele>618</ele>
        <time>2020-05-24T15:36:49.000Z</time>
      </trkpt>
      <trkpt lat="46.96337" lon="6.00174">
        <ele>618</ele>
        <time>2020-05-24T15:36:51.000Z</time>
      </trkpt>
      <trkpt lat="46.96337" lon="6.00177">
        <ele>618</ele>
        <time>2020-05-24T15:37:02.000Z</time>
      </trkpt>
      <trkpt lat="46.96338" lon="6.00181">
        <ele>618</ele>
        <time>2020-05-24T15:37:04.000Z</time>
      </trkpt>
      <trkpt lat="46.96338" lon="6.00183">
        <ele>618</ele>
        <time>2020-05-24T15:37:06.000Z</time>
      </trkpt>
      <trkpt lat="46.96337" lon="6.00186">
        <ele>618</ele>
        <time>2020-05-24T15:37:08.000Z</time>
      </trkpt>
      <trkpt lat="46.96335" lon="6.00187">
        <ele>617</ele>
        <time>2020-05-24T15:37:12.000Z</time>
      </trkpt>
      <trkpt lat="46.96333" lon="6.00188">
        <ele>617</ele>
        <time>2020-05-24T15:37:13.000Z</time>
      </trkpt>
      <trkpt lat="46.96332" lon="6.00191">
        <ele>615.85964991074</ele>
        <time>2020-05-24T15:37:15.000Z</time>
      </trkpt>
      <trkpt lat="46.9633" lon="6.00193">
        <ele>615</ele>
        <time>2020-05-24T15:37:17.000Z</time>
      </trkpt>
      <trkpt lat="46.96329" lon="6.00196">
        <ele>614.88420754793</ele>
        <time>2020-05-24T15:37:20.000Z</time>
      </trkpt>
      <trkpt lat="46.96329" lon="6.00199">
        <ele>614</ele>
        <time>2020-05-24T15:37:23.000Z</time>
      </trkpt>
      <trkpt lat="46.96328" lon="6.00202">
        <ele>613.8558562714</ele>
        <time>2020-05-24T15:37:27.000Z</time>
      </trkpt>
      <trkpt lat="46.96328" lon="6.00204">
        <ele>613</ele>
        <time>2020-05-24T15:37:29.000Z</time>
      </trkpt>
      <trkpt lat="46.96328" lon="6.00207">
        <ele>612.32824591574</ele>
        <time>2020-05-24T15:37:31.000Z</time>
      </trkpt>
      <trkpt lat="46.96328" lon="6.00209">
        <ele>612</ele>
        <time>2020-05-24T15:37:32.000Z</time>
      </trkpt>
      <trkpt lat="46.96328" lon="6.00212">
        <ele>610.96551369006</ele>
        <time>2020-05-24T15:37:34.000Z</time>
      </trkpt>
      <trkpt lat="46.96327" lon="6.00215">
        <ele>610</ele>
        <time>2020-05-24T15:37:36.000Z</time>
      </trkpt>
      <trkpt lat="46.96326" lon="6.00218">
        <ele>610</ele>
        <time>2020-05-24T15:37:38.000Z</time>
      </trkpt>
      <trkpt lat="46.96324" lon="6.0022">
        <ele>610</ele>
        <time>2020-05-24T15:37:42.000Z</time>
      </trkpt>
      <trkpt lat="46.96323" lon="6.00223">
        <ele>609</ele>
        <time>2020-05-24T15:37:46.000Z</time>
      </trkpt>
      <trkpt lat="46.96323" lon="6.00227">
        <ele>608.875</ele>
        <time>2020-05-24T15:37:48.000Z</time>
      </trkpt>
      <trkpt lat="46.96324" lon="6.00231">
        <ele>608.78571428571</ele>
        <time>2020-05-24T15:37:50.000Z</time>
      </trkpt>
      <trkpt lat="46.96324" lon="6.00234">
        <ele>608.84</ele>
        <time>2020-05-24T15:37:52.000Z</time>
      </trkpt>
      <trkpt lat="46.96324" lon="6.00237">
        <ele>608</ele>
        <time>2020-05-24T15:37:56.000Z</time>
      </trkpt>
      <trkpt lat="46.96325" lon="6.0024">
        <ele>608</ele>
        <time>2020-05-24T15:38:00.000Z</time>
      </trkpt>
      <trkpt lat="46.96326" lon="6.00244">
        <ele>608</ele>
        <time>2020-05-24T15:38:03.000Z</time>
      </trkpt>
      <trkpt lat="46.96325" lon="6.00247">
        <ele>608</ele>
        <time>2020-05-24T15:38:05.000Z</time>
      </trkpt>
      <trkpt lat="46.96324" lon="6.00261">
        <ele>606.21126405077</ele>
        <time>2020-05-24T15:38:13.000Z</time>
      </trkpt>
      <trkpt lat="46.96325" lon="6.00266">
        <ele>606</ele>
        <time>2020-05-24T15:38:17.000Z</time>
      </trkpt>
      <trkpt lat="46.96326" lon="6.00269">
        <ele>606</ele>
        <time>2020-05-24T15:38:19.000Z</time>
      </trkpt>
      <trkpt lat="46.96326" lon="6.00272">
        <ele>606</ele>
        <time>2020-05-24T15:38:21.000Z</time>
      </trkpt>
      <trkpt lat="46.96326" lon="6.00275">
        <ele>605</ele>
        <time>2020-05-24T15:38:23.000Z</time>
      </trkpt>
      <trkpt lat="46.96325" lon="6.00277">
        <ele>605</ele>
        <time>2020-05-24T15:38:26.000Z</time>
      </trkpt>
      <trkpt lat="46.96324" lon="6.0028">
        <ele>605</ele>
        <time>2020-05-24T15:38:28.000Z</time>
      </trkpt>
      <trkpt lat="46.96324" lon="6.00283">
        <ele>604</ele>
        <time>2020-05-24T15:38:31.000Z</time>
      </trkpt>
      <trkpt lat="46.96324" lon="6.00286">
        <ele>604</ele>
        <time>2020-05-24T15:38:33.000Z</time>
      </trkpt>
      <trkpt lat="46.96325" lon="6.00289">
        <ele>604</ele>
        <time>2020-05-24T15:38:35.000Z</time>
      </trkpt>
      <trkpt lat="46.96326" lon="6.00291">
        <ele>604</ele>
        <time>2020-05-24T15:38:37.000Z</time>
      </trkpt>
      <trkpt lat="46.96326" lon="6.00295">
        <ele>604</ele>
        <time>2020-05-24T15:38:39.000Z</time>
      </trkpt>
      <trkpt lat="46.96327" lon="6.00301">
        <ele>604</ele>
        <time>2020-05-24T15:38:42.000Z</time>
      </trkpt>
      <trkpt lat="46.9633" lon="6.00299">
        <ele>604</ele>
        <time>2020-05-24T15:38:46.000Z</time>
      </trkpt>
      <trkpt lat="46.9633" lon="6.00303">
        <ele>603</ele>
        <time>2020-05-24T15:38:58.000Z</time>
      </trkpt>
      <trkpt lat="46.9633" lon="6.00307">
        <ele>603</ele>
        <time>2020-05-24T15:39:00.000Z</time>
      </trkpt>
      <trkpt lat="46.96331" lon="6.00312">
        <ele>604</ele>
        <time>2020-05-24T15:39:02.000Z</time>
      </trkpt>
      <trkpt lat="46.96335" lon="6.00318">
        <ele>604</ele>
        <time>2020-05-24T15:39:07.000Z</time>
      </trkpt>
      <trkpt lat="46.96337" lon="6.00321">
        <ele>605</ele>
        <time>2020-05-24T15:39:10.000Z</time>
      </trkpt>
      <trkpt lat="46.96338" lon="6.00324">
        <ele>606</ele>
        <time>2020-05-24T15:39:12.000Z</time>
      </trkpt>
      <trkpt lat="46.9634" lon="6.0033">
        <ele>606</ele>
        <time>2020-05-24T15:39:17.000Z</time>
      </trkpt>
      <trkpt lat="46.96342" lon="6.00331">
        <ele>606</ele>
        <time>2020-05-24T15:39:19.000Z</time>
      </trkpt>
      <trkpt lat="46.96343" lon="6.00334">
        <ele>606</ele>
        <time>2020-05-24T15:39:21.000Z</time>
      </trkpt>
      <trkpt lat="46.96345" lon="6.00334">
        <ele>606</ele>
        <time>2020-05-24T15:39:23.000Z</time>
      </trkpt>
      <trkpt lat="46.96347" lon="6.00336">
        <ele>606</ele>
        <time>2020-05-24T15:39:25.000Z</time>
      </trkpt>
      <trkpt lat="46.96348" lon="6.00339">
        <ele>606</ele>
        <time>2020-05-24T15:39:27.000Z</time>
      </trkpt>
      <trkpt lat="46.96349" lon="6.00342">
        <ele>606</ele>
        <time>2020-05-24T15:39:29.000Z</time>
      </trkpt>
      <trkpt lat="46.9635" lon="6.00345">
        <ele>606</ele>
        <time>2020-05-24T15:39:31.000Z</time>
      </trkpt>
      <trkpt lat="46.96351" lon="6.00347">
        <ele>606</ele>
        <time>2020-05-24T15:39:33.000Z</time>
      </trkpt>
      <trkpt lat="46.96352" lon="6.0035">
        <ele>605</ele>
        <time>2020-05-24T15:39:35.000Z</time>
      </trkpt>
      <trkpt lat="46.96355" lon="6.00355">
        <ele>605</ele>
        <time>2020-05-24T15:39:39.000Z</time>
      </trkpt>
      <trkpt lat="46.96357" lon="6.00369">
        <ele>605</ele>
        <time>2020-05-24T15:39:46.000Z</time>
      </trkpt>
      <trkpt lat="46.96364" lon="6.0038">
        <ele>605</ele>
        <time>2020-05-24T15:39:54.000Z</time>
      </trkpt>
      <trkpt lat="46.96366" lon="6.00394">
        <ele>604.87786289377</ele>
        <time>2020-05-24T15:40:01.000Z</time>
      </trkpt>
      <trkpt lat="46.9637" lon="6.00406">
        <ele>603</ele>
        <time>2020-05-24T15:40:14.000Z</time>
      </trkpt>
      <trkpt lat="46.9637" lon="6.00405">
        <ele>600</ele>
        <time>2020-05-24T15:40:57.000Z</time>
      </trkpt>
      <trkpt lat="46.96368" lon="6.00405">
        <ele>600</ele>
        <time>2020-05-24T15:40:59.000Z</time>
      </trkpt>
      <trkpt lat="46.96366" lon="6.00402">
        <ele>600</ele>
        <time>2020-05-24T15:41:01.000Z</time>
      </trkpt>
      <trkpt lat="46.96364" lon="6.00398">
        <ele>600</ele>
        <time>2020-05-24T15:41:05.000Z</time>
      </trkpt>
      <trkpt lat="46.96362" lon="6.00395">
        <ele>599</ele>
        <time>2020-05-24T15:41:07.000Z</time>
      </trkpt>
      <trkpt lat="46.96359" lon="6.00392">
        <ele>599</ele>
        <time>2020-05-24T15:41:09.000Z</time>
      </trkpt>
      <trkpt lat="46.96358" lon="6.00391">
        <ele>599</ele>
        <time>2020-05-24T15:41:10.000Z</time>
      </trkpt>
      <trkpt lat="46.96355" lon="6.00388">
        <ele>598.85321057823</ele>
        <time>2020-05-24T15:41:12.000Z</time>
      </trkpt>
      <trkpt lat="46.96354" lon="6.00386">
        <ele>598</ele>
        <time>2020-05-24T15:41:14.000Z</time>
      </trkpt>
      <trkpt lat="46.96352" lon="6.00383">
        <ele>598</ele>
        <time>2020-05-24T15:41:16.000Z</time>
      </trkpt>
      <trkpt lat="46.96351" lon="6.0038">
        <ele>598</ele>
        <time>2020-05-24T15:41:17.000Z</time>
      </trkpt>
      <trkpt lat="46.9635" lon="6.00378">
        <ele>598</ele>
        <time>2020-05-24T15:41:18.000Z</time>
      </trkpt>
      <trkpt lat="46.96348" lon="6.00376">
        <ele>598</ele>
        <time>2020-05-24T15:41:19.000Z</time>
      </trkpt>
      <trkpt lat="46.96347" lon="6.00375">
        <ele>598</ele>
        <time>2020-05-24T15:41:20.000Z</time>
      </trkpt>
      <trkpt lat="46.96345" lon="6.00371">
        <ele>597</ele>
        <time>2020-05-24T15:41:22.000Z</time>
      </trkpt>
      <trkpt lat="46.96343" lon="6.00369">
        <ele>597</ele>
        <time>2020-05-24T15:41:24.000Z</time>
      </trkpt>
      <trkpt lat="46.9634" lon="6.00368">
        <ele>597</ele>
        <time>2020-05-24T15:41:26.000Z</time>
      </trkpt>
      <trkpt lat="46.96335" lon="6.00366">
        <ele>596</ele>
        <time>2020-05-24T15:41:32.000Z</time>
      </trkpt>
      <trkpt lat="46.96333" lon="6.00364">
        <ele>596</ele>
        <time>2020-05-24T15:41:35.000Z</time>
      </trkpt>
      <trkpt lat="46.96331" lon="6.0036">
        <ele>596</ele>
        <time>2020-05-24T15:41:38.000Z</time>
      </trkpt>
      <trkpt lat="46.96329" lon="6.00354">
        <ele>596</ele>
        <time>2020-05-24T15:41:42.000Z</time>
      </trkpt>
      <trkpt lat="46.96329" lon="6.00351">
        <ele>595</ele>
        <time>2020-05-24T15:41:44.000Z</time>
      </trkpt>
      <trkpt lat="46.96328" lon="6.00349">
        <ele>595</ele>
        <time>2020-05-24T15:41:46.000Z</time>
      </trkpt>
      <trkpt lat="46.96326" lon="6.00346">
        <ele>595</ele>
        <time>2020-05-24T15:41:48.000Z</time>
      </trkpt>
      <trkpt lat="46.96323" lon="6.00343">
        <ele>595</ele>
        <time>2020-05-24T15:41:50.000Z</time>
      </trkpt>
      <trkpt lat="46.96322" lon="6.00341">
        <ele>595</ele>
        <time>2020-05-24T15:41:52.000Z</time>
      </trkpt>
      <trkpt lat="46.9632" lon="6.00338">
        <ele>593.875</ele>
        <time>2020-05-24T15:41:55.000Z</time>
      </trkpt>
      <trkpt lat="46.9632" lon="6.00334">
        <ele>593</ele>
        <time>2020-05-24T15:41:57.000Z</time>
      </trkpt>
      <trkpt lat="46.9632" lon="6.00331">
        <ele>592.84</ele>
        <time>2020-05-24T15:41:59.000Z</time>
      </trkpt>
      <trkpt lat="46.9632" lon="6.00328">
        <ele>592</ele>
        <time>2020-05-24T15:42:01.000Z</time>
      </trkpt>
      <trkpt lat="46.96318" lon="6.00325">
        <ele>591.85321057823</ele>
        <time>2020-05-24T15:42:03.000Z</time>
      </trkpt>
      <trkpt lat="46.96318" lon="6.00323">
        <ele>591</ele>
        <time>2020-05-24T15:42:05.000Z</time>
      </trkpt>
      <trkpt lat="46.96317" lon="6.0032">
        <ele>591</ele>
        <time>2020-05-24T15:42:07.000Z</time>
      </trkpt>
      <trkpt lat="46.96315" lon="6.00317">
        <ele>591</ele>
        <time>2020-05-24T15:42:11.000Z</time>
      </trkpt>
      <trkpt lat="46.96313" lon="6.00316">
        <ele>591</ele>
        <time>2020-05-24T15:42:13.000Z</time>
      </trkpt>
      <trkpt lat="46.96312" lon="6.00314">
        <ele>591</ele>
        <time>2020-05-24T15:42:15.000Z</time>
      </trkpt>
      <trkpt lat="46.96311" lon="6.0031">
        <ele>591</ele>
        <time>2020-05-24T15:42:17.000Z</time>
      </trkpt>
      <trkpt lat="46.96309" lon="6.00307">
        <ele>590</ele>
        <time>2020-05-24T15:42:19.000Z</time>
      </trkpt>
      <trkpt lat="46.96307" lon="6.00305">
        <ele>590</ele>
        <time>2020-05-24T15:42:21.000Z</time>
      </trkpt>
      <trkpt lat="46.96305" lon="6.00304">
        <ele>590</ele>
        <time>2020-05-24T15:42:23.000Z</time>
      </trkpt>
      <trkpt lat="46.96303" lon="6.00303">
        <ele>589.8415836565</ele>
        <time>2020-05-24T15:42:25.000Z</time>
      </trkpt>
      <trkpt lat="46.96302" lon="6.00301">
        <ele>589</ele>
        <time>2020-05-24T15:42:27.000Z</time>
      </trkpt>
      <trkpt lat="46.963" lon="6.00298">
        <ele>589</ele>
        <time>2020-05-24T15:42:29.000Z</time>
      </trkpt>
      <trkpt lat="46.96298" lon="6.00295">
        <ele>588.84</ele>
        <time>2020-05-24T15:42:31.000Z</time>
      </trkpt>
      <trkpt lat="46.96297" lon="6.00291">
        <ele>587.93277329002</ele>
        <time>2020-05-24T15:42:33.000Z</time>
      </trkpt>
      <trkpt lat="46.96295" lon="6.00287">
        <ele>587</ele>
        <time>2020-05-24T15:42:35.000Z</time>
      </trkpt>
      <trkpt lat="46.96294" lon="6.00283">
        <ele>587</ele>
        <time>2020-05-24T15:42:37.000Z</time>
      </trkpt>
      <trkpt lat="46.96293" lon="6.00281">
        <ele>587</ele>
        <time>2020-05-24T15:42:38.000Z</time>
      </trkpt>
      <trkpt lat="46.96291" lon="6.00276">
        <ele>587</ele>
        <time>2020-05-24T15:42:40.000Z</time>
      </trkpt>
      <trkpt lat="46.9629" lon="6.00273">
        <ele>587</ele>
        <time>2020-05-24T15:42:42.000Z</time>
      </trkpt>
      <trkpt lat="46.9629" lon="6.00269">
        <ele>586.875</ele>
        <time>2020-05-24T15:42:44.000Z</time>
      </trkpt>
      <trkpt lat="46.9629" lon="6.00265">
        <ele>586</ele>
        <time>2020-05-24T15:42:46.000Z</time>
      </trkpt>
      <trkpt lat="46.9629" lon="6.00262">
        <ele>585</ele>
        <time>2020-05-24T15:42:48.000Z</time>
      </trkpt>
      <trkpt lat="46.96289" lon="6.00259">
        <ele>585</ele>
        <time>2020-05-24T15:42:50.000Z</time>
      </trkpt>
      <trkpt lat="46.96288" lon="6.00255">
        <ele>585</ele>
        <time>2020-05-24T15:42:52.000Z</time>
      </trkpt>
      <trkpt lat="46.96288" lon="6.00252">
        <ele>585</ele>
        <time>2020-05-24T15:42:54.000Z</time>
      </trkpt>
      <trkpt lat="46.96287" lon="6.0025">
        <ele>585</ele>
        <time>2020-05-24T15:42:56.000Z</time>
      </trkpt>
      <trkpt lat="46.96285" lon="6.00247">
        <ele>584</ele>
        <time>2020-05-24T15:42:58.000Z</time>
      </trkpt>
      <trkpt lat="46.96284" lon="6.00243">
        <ele>584</ele>
        <time>2020-05-24T15:43:00.000Z</time>
      </trkpt>
      <trkpt lat="46.96283" lon="6.0024">
        <ele>584</ele>
        <time>2020-05-24T15:43:02.000Z</time>
      </trkpt>
      <trkpt lat="46.96282" lon="6.00238">
        <ele>584</ele>
        <time>2020-05-24T15:43:04.000Z</time>
      </trkpt>
      <trkpt lat="46.9628" lon="6.00236">
        <ele>583</ele>
        <time>2020-05-24T15:43:07.000Z</time>
      </trkpt>
      <trkpt lat="46.96279" lon="6.00234">
        <ele>582.00961230769</ele>
        <time>2020-05-24T15:43:09.000Z</time>
      </trkpt>
      <trkpt lat="46.96277" lon="6.00233">
        <ele>582</ele>
        <time>2020-05-24T15:43:11.000Z</time>
      </trkpt>
      <trkpt lat="46.96276" lon="6.0023">
        <ele>582</ele>
        <time>2020-05-24T15:43:13.000Z</time>
      </trkpt>
      <trkpt lat="46.96274" lon="6.00228">
        <ele>582</ele>
        <time>2020-05-24T15:43:15.000Z</time>
      </trkpt>
      <trkpt lat="46.96275" lon="6.00225">
        <ele>582</ele>
        <time>2020-05-24T15:43:24.000Z</time>
      </trkpt>
      <trkpt lat="46.96273" lon="6.00224">
        <ele>581</ele>
        <time>2020-05-24T15:43:28.000Z</time>
      </trkpt>
      <trkpt lat="46.96272" lon="6.00221">
        <ele>581</ele>
        <time>2020-05-24T15:43:34.000Z</time>
      </trkpt>
      <trkpt lat="46.96271" lon="6.00224">
        <ele>581</ele>
        <time>2020-05-24T15:43:37.000Z</time>
      </trkpt>
      <trkpt lat="46.96271" lon="6.00226">
        <ele>581</ele>
        <time>2020-05-24T15:43:39.000Z</time>
      </trkpt>
      <trkpt lat="46.96269" lon="6.00228">
        <ele>580</ele>
        <time>2020-05-24T15:43:42.000Z</time>
      </trkpt>
      <trkpt lat="46.96267" lon="6.0023">
        <ele>579</ele>
        <time>2020-05-24T15:43:45.000Z</time>
      </trkpt>
      <trkpt lat="46.96265" lon="6.00231">
        <ele>578</ele>
        <time>2020-05-24T15:43:47.000Z</time>
      </trkpt>
      <trkpt lat="46.96263" lon="6.00233">
        <ele>578</ele>
        <time>2020-05-24T15:43:49.000Z</time>
      </trkpt>
      <trkpt lat="46.96262" lon="6.00237">
        <ele>577</ele>
        <time>2020-05-24T15:43:51.000Z</time>
      </trkpt>
      <trkpt lat="46.9626" lon="6.00238">
        <ele>576.93333997042</ele>
        <time>2020-05-24T15:43:53.000Z</time>
      </trkpt>
      <trkpt lat="46.96257" lon="6.00238">
        <ele>575</ele>
        <time>2020-05-24T15:43:55.000Z</time>
      </trkpt>
      <trkpt lat="46.96256" lon="6.00238">
        <ele>575</ele>
        <time>2020-05-24T15:43:57.000Z</time>
      </trkpt>
      <trkpt lat="46.96254" lon="6.00238">
        <ele>574</ele>
        <time>2020-05-24T15:43:59.000Z</time>
      </trkpt>
      <trkpt lat="46.96252" lon="6.00239">
        <ele>573.93333997042</ele>
        <time>2020-05-24T15:44:01.000Z</time>
      </trkpt>
      <trkpt lat="46.96249" lon="6.00239">
        <ele>573</ele>
        <time>2020-05-24T15:44:04.000Z</time>
      </trkpt>
      <trkpt lat="46.96248" lon="6.00239">
        <ele>573</ele>
        <time>2020-05-24T15:44:06.000Z</time>
      </trkpt>
      <trkpt lat="46.96246" lon="6.00242">
        <ele>572.89937127171</ele>
        <time>2020-05-24T15:44:08.000Z</time>
      </trkpt>
      <trkpt lat="46.96245" lon="6.00244">
        <ele>572</ele>
        <time>2020-05-24T15:44:10.000Z</time>
      </trkpt>
      <trkpt lat="46.96243" lon="6.00245">
        <ele>572</ele>
        <time>2020-05-24T15:44:13.000Z</time>
      </trkpt>
      <trkpt lat="46.9624" lon="6.00246">
        <ele>571</ele>
        <time>2020-05-24T15:44:15.000Z</time>
      </trkpt>
      <trkpt lat="46.96238" lon="6.00247">
        <ele>570.95454545455</ele>
        <time>2020-05-24T15:44:17.000Z</time>
      </trkpt>
      <trkpt lat="46.96236" lon="6.00248">
        <ele>569</ele>
        <time>2020-05-24T15:44:19.000Z</time>
      </trkpt>
      <trkpt lat="46.96234" lon="6.00249">
        <ele>569</ele>
        <time>2020-05-24T15:44:21.000Z</time>
      </trkpt>
      <trkpt lat="46.96231" lon="6.00251">
        <ele>568</ele>
        <time>2020-05-24T15:44:23.000Z</time>
      </trkpt>
      <trkpt lat="46.96229" lon="6.0025">
        <ele>567</ele>
        <time>2020-05-24T15:44:26.000Z</time>
      </trkpt>
      <trkpt lat="46.96228" lon="6.0025">
        <ele>566.14705882353</ele>
        <time>2020-05-24T15:44:28.000Z</time>
      </trkpt>
      <trkpt lat="46.96225" lon="6.0025">
        <ele>565</ele>
        <time>2020-05-24T15:44:30.000Z</time>
      </trkpt>
      <trkpt lat="46.96224" lon="6.00249">
        <ele>564</ele>
        <time>2020-05-24T15:44:33.000Z</time>
      </trkpt>
      <trkpt lat="46.96222" lon="6.00247">
        <ele>564</ele>
        <time>2020-05-24T15:44:35.000Z</time>
      </trkpt>
      <trkpt lat="46.96221" lon="6.00245">
        <ele>564</ele>
        <time>2020-05-24T15:44:37.000Z</time>
      </trkpt>
      <trkpt lat="46.96219" lon="6.00245">
        <ele>563</ele>
        <time>2020-05-24T15:44:39.000Z</time>
      </trkpt>
      <trkpt lat="46.96217" lon="6.00245">
        <ele>562</ele>
        <time>2020-05-24T15:44:41.000Z</time>
      </trkpt>
      <trkpt lat="46.96216" lon="6.00245">
        <ele>561</ele>
        <time>2020-05-24T15:44:43.000Z</time>
      </trkpt>
      <trkpt lat="46.96214" lon="6.00245">
        <ele>561</ele>
        <time>2020-05-24T15:44:45.000Z</time>
      </trkpt>
      <trkpt lat="46.96212" lon="6.00246">
        <ele>559.86206896552</ele>
        <time>2020-05-24T15:44:52.000Z</time>
      </trkpt>
      <trkpt lat="46.96209" lon="6.00244">
        <ele>558.84</ele>
        <time>2020-05-24T15:44:54.000Z</time>
      </trkpt>
      <trkpt lat="46.96206" lon="6.00244">
        <ele>557</ele>
        <time>2020-05-24T15:44:56.000Z</time>
      </trkpt>
      <trkpt lat="46.96204" lon="6.00244">
        <ele>556</ele>
        <time>2020-05-24T15:44:58.000Z</time>
      </trkpt>
      <trkpt lat="46.96203" lon="6.00243">
        <ele>556</ele>
        <time>2020-05-24T15:45:00.000Z</time>
      </trkpt>
      <trkpt lat="46.962" lon="6.00243">
        <ele>555.94382361824</ele>
        <time>2020-05-24T15:45:02.000Z</time>
      </trkpt>
      <trkpt lat="46.96198" lon="6.00245">
        <ele>555</ele>
        <time>2020-05-24T15:45:04.000Z</time>
      </trkpt>
      <trkpt lat="46.96196" lon="6.00248">
        <ele>555</ele>
        <time>2020-05-24T15:45:06.000Z</time>
      </trkpt>
      <trkpt lat="46.96195" lon="6.00251">
        <ele>555</ele>
        <time>2020-05-24T15:45:08.000Z</time>
      </trkpt>
      <trkpt lat="46.96196" lon="6.00253">
        <ele>554</ele>
        <time>2020-05-24T15:45:15.000Z</time>
      </trkpt>
      <trkpt lat="46.96196" lon="6.00257">
        <ele>554</ele>
        <time>2020-05-24T15:45:18.000Z</time>
      </trkpt>
      <trkpt lat="46.96194" lon="6.00255">
        <ele>554</ele>
        <time>2020-05-24T15:45:28.000Z</time>
      </trkpt>
      <trkpt lat="46.96194" lon="6.00259">
        <ele>554</ele>
        <time>2020-05-24T15:45:31.000Z</time>
      </trkpt>
      <trkpt lat="46.96193" lon="6.00262">
        <ele>554</ele>
        <time>2020-05-24T15:45:33.000Z</time>
      </trkpt>
      <trkpt lat="46.96192" lon="6.00259">
        <ele>554</ele>
        <time>2020-05-24T15:45:39.000Z</time>
      </trkpt>
      <trkpt lat="46.9619" lon="6.00257">
        <ele>553</ele>
        <time>2020-05-24T15:45:42.000Z</time>
      </trkpt>
      <trkpt lat="46.96188" lon="6.00257">
        <ele>553</ele>
        <time>2020-05-24T15:45:44.000Z</time>
      </trkpt>
      <trkpt lat="46.96186" lon="6.00256">
        <ele>552</ele>
        <time>2020-05-24T15:45:46.000Z</time>
      </trkpt>
      <trkpt lat="46.96184" lon="6.00256">
        <ele>550.84</ele>
        <time>2020-05-24T15:45:49.000Z</time>
      </trkpt>
      <trkpt lat="46.96182" lon="6.00256">
        <ele>550</ele>
        <time>2020-05-24T15:45:51.000Z</time>
      </trkpt>
      <trkpt lat="46.9618" lon="6.00256">
        <ele>549.89795722894</ele>
        <time>2020-05-24T15:45:55.000Z</time>
      </trkpt>
      <trkpt lat="46.96178" lon="6.00255">
        <ele>549</ele>
        <time>2020-05-24T15:45:57.000Z</time>
      </trkpt>
      <trkpt lat="46.96176" lon="6.00256">
        <ele>549</ele>
        <time>2020-05-24T15:45:59.000Z</time>
      </trkpt>
      <trkpt lat="46.96174" lon="6.00256">
        <ele>549</ele>
        <time>2020-05-24T15:46:01.000Z</time>
      </trkpt>
      <trkpt lat="46.96176" lon="6.00259">
        <ele>549</ele>
        <time>2020-05-24T15:46:03.000Z</time>
      </trkpt>
      <trkpt lat="46.96179" lon="6.00262">
        <ele>549</ele>
        <time>2020-05-24T15:46:05.000Z</time>
      </trkpt>
      <trkpt lat="46.96177" lon="6.00261">
        <ele>548</ele>
        <time>2020-05-24T15:46:10.000Z</time>
      </trkpt>
      <trkpt lat="46.96175" lon="6.00262">
        <ele>547</ele>
        <time>2020-05-24T15:46:12.000Z</time>
      </trkpt>
      <trkpt lat="46.96172" lon="6.00262">
        <ele>547</ele>
        <time>2020-05-24T15:46:14.000Z</time>
      </trkpt>
      <trkpt lat="46.96171" lon="6.00262">
        <ele>547</ele>
        <time>2020-05-24T15:46:19.000Z</time>
      </trkpt>
      <trkpt lat="46.96174" lon="6.00264">
        <ele>548</ele>
        <time>2020-05-24T15:46:23.000Z</time>
      </trkpt>
      <trkpt lat="46.96177" lon="6.00265">
        <ele>548</ele>
        <time>2020-05-24T15:46:25.000Z</time>
      </trkpt>
      <trkpt lat="46.96182" lon="6.00253">
        <ele>547</ele>
        <time>2020-05-24T15:46:48.000Z</time>
      </trkpt>
      <trkpt lat="46.96184" lon="6.00252">
        <ele>547</ele>
        <time>2020-05-24T15:46:50.000Z</time>
      </trkpt>
      <trkpt lat="46.96182" lon="6.00253">
        <ele>547</ele>
        <time>2020-05-24T15:46:55.000Z</time>
      </trkpt>
      <trkpt lat="46.9618" lon="6.00252">
        <ele>547</ele>
        <time>2020-05-24T15:46:57.000Z</time>
      </trkpt>
      <trkpt lat="46.96178" lon="6.00252">
        <ele>548</ele>
        <time>2020-05-24T15:47:01.000Z</time>
      </trkpt>
      <trkpt lat="46.96176" lon="6.00251">
        <ele>548</ele>
        <time>2020-05-24T15:47:02.000Z</time>
      </trkpt>
      <trkpt lat="46.96174" lon="6.00249">
        <ele>547</ele>
        <time>2020-05-24T15:47:05.000Z</time>
      </trkpt>
      <trkpt lat="46.96172" lon="6.00248">
        <ele>546.30952380952</ele>
        <time>2020-05-24T15:47:08.000Z</time>
      </trkpt>
      <trkpt lat="46.9617" lon="6.00248">
        <ele>546</ele>
        <time>2020-05-24T15:47:10.000Z</time>
      </trkpt>
      <trkpt lat="46.96167" lon="6.00248">
        <ele>546</ele>
        <time>2020-05-24T15:47:13.000Z</time>
      </trkpt>
      <trkpt lat="46.96166" lon="6.0025">
        <ele>546</ele>
        <time>2020-05-24T15:47:15.000Z</time>
      </trkpt>
      <trkpt lat="46.96163" lon="6.00251">
        <ele>546</ele>
        <time>2020-05-24T15:47:17.000Z</time>
      </trkpt>
      <trkpt lat="46.96161" lon="6.00251">
        <ele>546</ele>
        <time>2020-05-24T15:47:19.000Z</time>
      </trkpt>
      <trkpt lat="46.96158" lon="6.00251">
        <ele>544.84848210592</ele>
        <time>2020-05-24T15:47:21.000Z</time>
      </trkpt>
      <trkpt lat="46.96156" lon="6.00251">
        <ele>544</ele>
        <time>2020-05-24T15:47:23.000Z</time>
      </trkpt>
      <trkpt lat="46.96154" lon="6.00252">
        <ele>543</ele>
        <time>2020-05-24T15:47:24.000Z</time>
      </trkpt>
      <trkpt lat="46.96152" lon="6.00253">
        <ele>543</ele>
        <time>2020-05-24T15:47:26.000Z</time>
      </trkpt>
      <trkpt lat="46.9615" lon="6.00255">
        <ele>542</ele>
        <time>2020-05-24T15:47:29.000Z</time>
      </trkpt>
      <trkpt lat="46.96149" lon="6.00257">
        <ele>541</ele>
        <time>2020-05-24T15:47:31.000Z</time>
      </trkpt>
      <trkpt lat="46.96147" lon="6.00258">
        <ele>541</ele>
        <time>2020-05-24T15:47:33.000Z</time>
      </trkpt>
      <trkpt lat="46.96144" lon="6.0026">
        <ele>540.89041143929</ele>
        <time>2020-05-24T15:47:35.000Z</time>
      </trkpt>
      <trkpt lat="46.96142" lon="6.00262">
        <ele>539.88059644464</ele>
        <time>2020-05-24T15:47:37.000Z</time>
      </trkpt>
      <trkpt lat="46.96141" lon="6.00266">
        <ele>539</ele>
        <time>2020-05-24T15:47:40.000Z</time>
      </trkpt>
      <trkpt lat="46.96139" lon="6.00267">
        <ele>539</ele>
        <time>2020-05-24T15:47:42.000Z</time>
      </trkpt>
      <trkpt lat="46.96137" lon="6.00268">
        <ele>538</ele>
        <time>2020-05-24T15:47:44.000Z</time>
      </trkpt>
      <trkpt lat="46.96135" lon="6.00269">
        <ele>538</ele>
        <time>2020-05-24T15:47:46.000Z</time>
      </trkpt>
      <trkpt lat="46.96133" lon="6.00273">
        <ele>538</ele>
        <time>2020-05-24T15:47:48.000Z</time>
      </trkpt>
      <trkpt lat="46.96131" lon="6.00275">
        <ele>538</ele>
        <time>2020-05-24T15:47:50.000Z</time>
      </trkpt>
      <trkpt lat="46.96129" lon="6.00276">
        <ele>537.84848210592</ele>
        <time>2020-05-24T15:47:52.000Z</time>
      </trkpt>
      <trkpt lat="46.96128" lon="6.00275">
        <ele>537</ele>
        <time>2020-05-24T15:47:56.000Z</time>
      </trkpt>
      <trkpt lat="46.96126" lon="6.00275">
        <ele>537</ele>
        <time>2020-05-24T15:47:59.000Z</time>
      </trkpt>
      <trkpt lat="46.96124" lon="6.00274">
        <ele>536</ele>
        <time>2020-05-24T15:48:02.000Z</time>
      </trkpt>
      <trkpt lat="46.96121" lon="6.00275">
        <ele>536</ele>
        <time>2020-05-24T15:48:04.000Z</time>
      </trkpt>
      <trkpt lat="46.96119" lon="6.00276">
        <ele>535</ele>
        <time>2020-05-24T15:48:06.000Z</time>
      </trkpt>
      <trkpt lat="46.96116" lon="6.00277">
        <ele>535</ele>
        <time>2020-05-24T15:48:08.000Z</time>
      </trkpt>
      <trkpt lat="46.96115" lon="6.00279">
        <ele>534</ele>
        <time>2020-05-24T15:48:10.000Z</time>
      </trkpt>
      <trkpt lat="46.96114" lon="6.00281">
        <ele>534</ele>
        <time>2020-05-24T15:48:12.000Z</time>
      </trkpt>
      <trkpt lat="46.96112" lon="6.00283">
        <ele>533</ele>
        <time>2020-05-24T15:48:15.000Z</time>
      </trkpt>
      <trkpt lat="46.96111" lon="6.00284">
        <ele>533</ele>
        <time>2020-05-24T15:48:17.000Z</time>
      </trkpt>
      <trkpt lat="46.96109" lon="6.00283">
        <ele>533</ele>
        <time>2020-05-24T15:48:20.000Z</time>
      </trkpt>
      <trkpt lat="46.96106" lon="6.00282">
        <ele>532.14814814815</ele>
        <time>2020-05-24T15:48:23.000Z</time>
      </trkpt>
      <trkpt lat="46.96104" lon="6.00283">
        <ele>532</ele>
        <time>2020-05-24T15:48:26.000Z</time>
      </trkpt>
      <trkpt lat="46.96103" lon="6.00285">
        <ele>532</ele>
        <time>2020-05-24T15:48:38.000Z</time>
      </trkpt>
      <trkpt lat="46.96107" lon="6.00297">
        <ele>532</ele>
        <time>2020-05-24T15:48:45.000Z</time>
      </trkpt>
      <trkpt lat="46.9611" lon="6.00302">
        <ele>532</ele>
        <time>2020-05-24T15:48:48.000Z</time>
      </trkpt>
      <trkpt lat="46.96107" lon="6.00302">
        <ele>532</ele>
        <time>2020-05-24T15:49:13.000Z</time>
      </trkpt>
      <trkpt lat="46.96109" lon="6.00301">
        <ele>532</ele>
        <time>2020-05-24T15:49:18.000Z</time>
      </trkpt>
      <trkpt lat="46.9611" lon="6.003">
        <ele>532</ele>
        <time>2020-05-24T15:49:28.000Z</time>
      </trkpt>
      <trkpt lat="46.96113" lon="6.00298">
        <ele>532</ele>
        <time>2020-05-24T15:49:29.000Z</time>
      </trkpt>
      <trkpt lat="46.9611" lon="6.00306">
        <ele>532</ele>
        <time>2020-05-24T15:49:36.000Z</time>
      </trkpt>
      <trkpt lat="46.9611" lon="6.00309">
        <ele>532</ele>
        <time>2020-05-24T15:49:38.000Z</time>
      </trkpt>
      <trkpt lat="46.96108" lon="6.00317">
        <ele>532</ele>
        <time>2020-05-24T15:49:42.000Z</time>
      </trkpt>
      <trkpt lat="46.96109" lon="6.00321">
        <ele>532</ele>
        <time>2020-05-24T15:49:44.000Z</time>
      </trkpt>
      <trkpt lat="46.9611" lon="6.00334">
        <ele>533</ele>
        <time>2020-05-24T15:49:52.000Z</time>
      </trkpt>
      <trkpt lat="46.96112" lon="6.00338">
        <ele>533</ele>
        <time>2020-05-24T15:49:54.000Z</time>
      </trkpt>
      <trkpt lat="46.96112" lon="6.00342">
        <ele>533</ele>
        <time>2020-05-24T15:49:56.000Z</time>
      </trkpt>
      <trkpt lat="46.96112" lon="6.00346">
        <ele>533</ele>
        <time>2020-05-24T15:49:58.000Z</time>
      </trkpt>
      <trkpt lat="46.96113" lon="6.00357">
        <ele>533</ele>
        <time>2020-05-24T15:50:04.000Z</time>
      </trkpt>
      <trkpt lat="46.96112" lon="6.0036">
        <ele>533</ele>
        <time>2020-05-24T15:50:06.000Z</time>
      </trkpt>
      <trkpt lat="46.96111" lon="6.00364">
        <ele>533.10958952149</ele>
        <time>2020-05-24T15:50:08.000Z</time>
      </trkpt>
      <trkpt lat="46.9611" lon="6.00367">
        <ele>534</ele>
        <time>2020-05-24T15:50:11.000Z</time>
      </trkpt>
      <trkpt lat="46.9611" lon="6.00371">
        <ele>534</ele>
        <time>2020-05-24T15:50:13.000Z</time>
      </trkpt>
      <trkpt lat="46.9611" lon="6.00375">
        <ele>534</ele>
        <time>2020-05-24T15:50:15.000Z</time>
      </trkpt>
      <trkpt lat="46.96111" lon="6.00378">
        <ele>534</ele>
        <time>2020-05-24T15:50:17.000Z</time>
      </trkpt>
      <trkpt lat="46.96111" lon="6.00381">
        <ele>534</ele>
        <time>2020-05-24T15:50:19.000Z</time>
      </trkpt>
      <trkpt lat="46.96111" lon="6.00384">
        <ele>534</ele>
        <time>2020-05-24T15:50:21.000Z</time>
      </trkpt>
      <trkpt lat="46.9611" lon="6.00387">
        <ele>534</ele>
        <time>2020-05-24T15:50:24.000Z</time>
      </trkpt>
      <trkpt lat="46.9611" lon="6.0039">
        <ele>534</ele>
        <time>2020-05-24T15:50:26.000Z</time>
      </trkpt>
      <trkpt lat="46.96111" lon="6.00405">
        <ele>534</ele>
        <time>2020-05-24T15:50:33.000Z</time>
      </trkpt>
      <trkpt lat="46.96111" lon="6.0041">
        <ele>534</ele>
        <time>2020-05-24T15:50:35.000Z</time>
      </trkpt>
      <trkpt lat="46.96113" lon="6.00413">
        <ele>534</ele>
        <time>2020-05-24T15:50:37.000Z</time>
      </trkpt>
      <trkpt lat="46.96114" lon="6.00419">
        <ele>534</ele>
        <time>2020-05-24T15:50:40.000Z</time>
      </trkpt>
      <trkpt lat="46.96117" lon="6.00432">
        <ele>534</ele>
        <time>2020-05-24T15:50:46.000Z</time>
      </trkpt>
      <trkpt lat="46.96118" lon="6.00435">
        <ele>534</ele>
        <time>2020-05-24T15:50:47.000Z</time>
      </trkpt>
      <trkpt lat="46.96117" lon="6.00438">
        <ele>534</ele>
        <time>2020-05-24T15:50:49.000Z</time>
      </trkpt>
      <trkpt lat="46.96124" lon="6.00436">
        <ele>534</ele>
        <time>2020-05-24T15:51:09.000Z</time>
      </trkpt>
      <trkpt lat="46.96124" lon="6.00433">
        <ele>533.125</ele>
        <time>2020-05-24T15:51:13.000Z</time>
      </trkpt>
      <trkpt lat="46.96125" lon="6.00438">
        <ele>535</ele>
        <time>2020-05-24T15:51:20.000Z</time>
      </trkpt>
      <trkpt lat="46.96125" lon="6.0044">
        <ele>535</ele>
        <time>2020-05-24T15:51:22.000Z</time>
      </trkpt>
      <trkpt lat="46.96125" lon="6.00445">
        <ele>535</ele>
        <time>2020-05-24T15:51:24.000Z</time>
      </trkpt>
      <trkpt lat="46.96126" lon="6.00449">
        <ele>535</ele>
        <time>2020-05-24T15:51:26.000Z</time>
      </trkpt>
      <trkpt lat="46.96126" lon="6.00452">
        <ele>534.84</ele>
        <time>2020-05-24T15:51:28.000Z</time>
      </trkpt>
      <trkpt lat="46.96126" lon="6.00455">
        <ele>534</ele>
        <time>2020-05-24T15:51:30.000Z</time>
      </trkpt>
      <trkpt lat="46.96127" lon="6.00457">
        <ele>535</ele>
        <time>2020-05-24T15:51:32.000Z</time>
      </trkpt>
      <trkpt lat="46.96127" lon="6.00461">
        <ele>535</ele>
        <time>2020-05-24T15:51:34.000Z</time>
      </trkpt>
      <trkpt lat="46.96128" lon="6.00464">
        <ele>535</ele>
        <time>2020-05-24T15:51:36.000Z</time>
      </trkpt>
      <trkpt lat="46.96129" lon="6.00468">
        <ele>535</ele>
        <time>2020-05-24T15:51:39.000Z</time>
      </trkpt>
      <trkpt lat="46.96129" lon="6.00471">
        <ele>536</ele>
        <time>2020-05-24T15:51:41.000Z</time>
      </trkpt>
      <trkpt lat="46.96129" lon="6.00475">
        <ele>536</ele>
        <time>2020-05-24T15:51:43.000Z</time>
      </trkpt>
      <trkpt lat="46.9613" lon="6.00477">
        <ele>536</ele>
        <time>2020-05-24T15:51:44.000Z</time>
      </trkpt>
      <trkpt lat="46.9613" lon="6.00482">
        <ele>535</ele>
        <time>2020-05-24T15:51:46.000Z</time>
      </trkpt>
      <trkpt lat="46.9613" lon="6.00486">
        <ele>535.92742193548</ele>
        <time>2020-05-24T15:51:48.000Z</time>
      </trkpt>
      <trkpt lat="46.96131" lon="6.00489">
        <ele>536</ele>
        <time>2020-05-24T15:51:50.000Z</time>
      </trkpt>
      <trkpt lat="46.96131" lon="6.00491">
        <ele>536</ele>
        <time>2020-05-24T15:51:52.000Z</time>
      </trkpt>
      <trkpt lat="46.96132" lon="6.00495">
        <ele>536.04545454545</ele>
        <time>2020-05-24T15:51:55.000Z</time>
      </trkpt>
      <trkpt lat="46.96137" lon="6.00508">
        <ele>536</ele>
        <time>2020-05-24T15:52:02.000Z</time>
      </trkpt>
      <trkpt lat="46.96137" lon="6.00523">
        <ele>536</ele>
        <time>2020-05-24T15:52:08.000Z</time>
      </trkpt>
      <trkpt lat="46.96138" lon="6.00527">
        <ele>536</ele>
        <time>2020-05-24T15:52:11.000Z</time>
      </trkpt>
      <trkpt lat="46.96139" lon="6.0053">
        <ele>536</ele>
        <time>2020-05-24T15:52:14.000Z</time>
      </trkpt>
      <trkpt lat="46.96139" lon="6.00532">
        <ele>536</ele>
        <time>2020-05-24T15:52:16.000Z</time>
      </trkpt>
      <trkpt lat="46.96139" lon="6.00536">
        <ele>536</ele>
        <time>2020-05-24T15:52:18.000Z</time>
      </trkpt>
      <trkpt lat="46.9614" lon="6.00538">
        <ele>536</ele>
        <time>2020-05-24T15:52:20.000Z</time>
      </trkpt>
      <trkpt lat="46.96142" lon="6.00542">
        <ele>537</ele>
        <time>2020-05-24T15:52:22.000Z</time>
      </trkpt>
      <trkpt lat="46.96144" lon="6.00545">
        <ele>537</ele>
        <time>2020-05-24T15:52:24.000Z</time>
      </trkpt>
      <trkpt lat="46.96146" lon="6.00548">
        <ele>537</ele>
        <time>2020-05-24T15:52:26.000Z</time>
      </trkpt>
      <trkpt lat="46.96148" lon="6.00551">
        <ele>537</ele>
        <time>2020-05-24T15:52:28.000Z</time>
      </trkpt>
      <trkpt lat="46.96152" lon="6.00558">
        <ele>536</ele>
        <time>2020-05-24T15:52:32.000Z</time>
      </trkpt>
      <trkpt lat="46.96154" lon="6.00561">
        <ele>536</ele>
        <time>2020-05-24T15:52:34.000Z</time>
      </trkpt>
      <trkpt lat="46.96156" lon="6.00564">
        <ele>536</ele>
        <time>2020-05-24T15:52:36.000Z</time>
      </trkpt>
      <trkpt lat="46.96158" lon="6.00567">
        <ele>536</ele>
        <time>2020-05-24T15:52:38.000Z</time>
      </trkpt>
      <trkpt lat="46.96163" lon="6.00579">
        <ele>536</ele>
        <time>2020-05-24T15:52:44.000Z</time>
      </trkpt>
      <trkpt lat="46.96165" lon="6.00582">
        <ele>536</ele>
        <time>2020-05-24T15:52:46.000Z</time>
      </trkpt>
      <trkpt lat="46.96166" lon="6.00586">
        <ele>536</ele>
        <time>2020-05-24T15:52:48.000Z</time>
      </trkpt>
      <trkpt lat="46.96166" lon="6.0059">
        <ele>536</ele>
        <time>2020-05-24T15:52:50.000Z</time>
      </trkpt>
      <trkpt lat="46.96167" lon="6.00593">
        <ele>536</ele>
        <time>2020-05-24T15:52:52.000Z</time>
      </trkpt>
      <trkpt lat="46.96169" lon="6.00596">
        <ele>536</ele>
        <time>2020-05-24T15:52:54.000Z</time>
      </trkpt>
      <trkpt lat="46.9617" lon="6.006">
        <ele>536.16</ele>
        <time>2020-05-24T15:52:56.000Z</time>
      </trkpt>
      <trkpt lat="46.96171" lon="6.00603">
        <ele>537</ele>
        <time>2020-05-24T15:52:58.000Z</time>
      </trkpt>
      <trkpt lat="46.96173" lon="6.00606">
        <ele>537</ele>
        <time>2020-05-24T15:53:00.000Z</time>
      </trkpt>
      <trkpt lat="46.96175" lon="6.00608">
        <ele>537</ele>
        <time>2020-05-24T15:53:02.000Z</time>
      </trkpt>
      <trkpt lat="46.96176" lon="6.00611">
        <ele>536</ele>
        <time>2020-05-24T15:53:04.000Z</time>
      </trkpt>
      <trkpt lat="46.96177" lon="6.00614">
        <ele>536</ele>
        <time>2020-05-24T15:53:06.000Z</time>
      </trkpt>
      <trkpt lat="46.96178" lon="6.00617">
        <ele>536</ele>
        <time>2020-05-24T15:53:08.000Z</time>
      </trkpt>
      <trkpt lat="46.9618" lon="6.00619">
        <ele>536</ele>
        <time>2020-05-24T15:53:10.000Z</time>
      </trkpt>
      <trkpt lat="46.96182" lon="6.0062">
        <ele>535.94382361824</ele>
        <time>2020-05-24T15:53:12.000Z</time>
      </trkpt>
      <trkpt lat="46.96184" lon="6.0062">
        <ele>535</ele>
        <time>2020-05-24T15:53:42.000Z</time>
      </trkpt>
      <trkpt lat="46.96185" lon="6.0062">
        <ele>536</ele>
        <time>2020-05-24T15:54:02.000Z</time>
      </trkpt>
      <trkpt lat="46.96187" lon="6.00619">
        <ele>536</ele>
        <time>2020-05-24T15:54:07.000Z</time>
      </trkpt>
      <trkpt lat="46.9619" lon="6.00617">
        <ele>536</ele>
        <time>2020-05-24T15:54:10.000Z</time>
      </trkpt>
      <trkpt lat="46.9619" lon="6.00621">
        <ele>536</ele>
        <time>2020-05-24T15:54:13.000Z</time>
      </trkpt>
      <trkpt lat="46.9619" lon="6.00625">
        <ele>536</ele>
        <time>2020-05-24T15:54:16.000Z</time>
      </trkpt>
      <trkpt lat="46.9619" lon="6.00629">
        <ele>536</ele>
        <time>2020-05-24T15:54:18.000Z</time>
      </trkpt>
      <trkpt lat="46.96191" lon="6.00632">
        <ele>536</ele>
        <time>2020-05-24T15:54:20.000Z</time>
      </trkpt>
      <trkpt lat="46.96192" lon="6.00636">
        <ele>536</ele>
        <time>2020-05-24T15:54:22.000Z</time>
      </trkpt>
      <trkpt lat="46.96193" lon="6.00638">
        <ele>535.1532826938</ele>
        <time>2020-05-24T15:54:24.000Z</time>
      </trkpt>
      <trkpt lat="46.96194" lon="6.00642">
        <ele>535</ele>
        <time>2020-05-24T15:54:26.000Z</time>
      </trkpt>
      <trkpt lat="46.96196" lon="6.00644">
        <ele>535</ele>
        <time>2020-05-24T15:54:29.000Z</time>
      </trkpt>
      <trkpt lat="46.96197" lon="6.00647">
        <ele>535</ele>
        <time>2020-05-24T15:54:31.000Z</time>
      </trkpt>
      <trkpt lat="46.96198" lon="6.0065">
        <ele>533.84</ele>
        <time>2020-05-24T15:54:33.000Z</time>
      </trkpt>
      <trkpt lat="46.96199" lon="6.00653">
        <ele>533</ele>
        <time>2020-05-24T15:54:35.000Z</time>
      </trkpt>
      <trkpt lat="46.96199" lon="6.00656">
        <ele>532</ele>
        <time>2020-05-24T15:54:37.000Z</time>
      </trkpt>
      <trkpt lat="46.96201" lon="6.00659">
        <ele>530.84</ele>
        <time>2020-05-24T15:54:39.000Z</time>
      </trkpt>
      <trkpt lat="46.96202" lon="6.00662">
        <ele>530</ele>
        <time>2020-05-24T15:54:41.000Z</time>
      </trkpt>
      <trkpt lat="46.96203" lon="6.00665">
        <ele>530</ele>
        <time>2020-05-24T15:54:43.000Z</time>
      </trkpt>
      <trkpt lat="46.96202" lon="6.00668">
        <ele>530</ele>
        <time>2020-05-24T15:54:45.000Z</time>
      </trkpt>
      <trkpt lat="46.96203" lon="6.00672">
        <ele>530</ele>
        <time>2020-05-24T15:54:47.000Z</time>
      </trkpt>
      <trkpt lat="46.96203" lon="6.00675">
        <ele>530</ele>
        <time>2020-05-24T15:54:49.000Z</time>
      </trkpt>
      <trkpt lat="46.96203" lon="6.00678">
        <ele>530</ele>
        <time>2020-05-24T15:54:51.000Z</time>
      </trkpt>
      <trkpt lat="46.96203" lon="6.00681">
        <ele>530</ele>
        <time>2020-05-24T15:54:53.000Z</time>
      </trkpt>
      <trkpt lat="46.96203" lon="6.00685">
        <ele>530</ele>
        <time>2020-05-24T15:54:55.000Z</time>
      </trkpt>
      <trkpt lat="46.96204" lon="6.00688">
        <ele>530</ele>
        <time>2020-05-24T15:54:57.000Z</time>
      </trkpt>
      <trkpt lat="46.96205" lon="6.0069">
        <ele>529.87401606547</ele>
        <time>2020-05-24T15:54:58.000Z</time>
      </trkpt>
      <trkpt lat="46.96206" lon="6.00694">
        <ele>529</ele>
        <time>2020-05-24T15:55:00.000Z</time>
      </trkpt>
      <trkpt lat="46.96207" lon="6.00698">
        <ele>529</ele>
        <time>2020-05-24T15:55:02.000Z</time>
      </trkpt>
      <trkpt lat="46.96208" lon="6.00702">
        <ele>529</ele>
        <time>2020-05-24T15:55:04.000Z</time>
      </trkpt>
      <trkpt lat="46.96209" lon="6.00705">
        <ele>528.84</ele>
        <time>2020-05-24T15:55:06.000Z</time>
      </trkpt>
      <trkpt lat="46.9621" lon="6.00707">
        <ele>528</ele>
        <time>2020-05-24T15:55:08.000Z</time>
      </trkpt>
      <trkpt lat="46.96211" lon="6.0071">
        <ele>528</ele>
        <time>2020-05-24T15:55:10.000Z</time>
      </trkpt>
      <trkpt lat="46.96211" lon="6.00713">
        <ele>527</ele>
        <time>2020-05-24T15:55:13.000Z</time>
      </trkpt>
      <trkpt lat="46.96212" lon="6.00716">
        <ele>527</ele>
        <time>2020-05-24T15:55:15.000Z</time>
      </trkpt>
      <trkpt lat="46.96213" lon="6.00719">
        <ele>527</ele>
        <time>2020-05-24T15:55:17.000Z</time>
      </trkpt>
      <trkpt lat="46.96214" lon="6.00723">
        <ele>527</ele>
        <time>2020-05-24T15:55:20.000Z</time>
      </trkpt>
      <trkpt lat="46.96216" lon="6.00725">
        <ele>527</ele>
        <time>2020-05-24T15:55:22.000Z</time>
      </trkpt>
      <trkpt lat="46.96217" lon="6.00728">
        <ele>526</ele>
        <time>2020-05-24T15:55:24.000Z</time>
      </trkpt>
      <trkpt lat="46.96218" lon="6.00732">
        <ele>526</ele>
        <time>2020-05-24T15:55:26.000Z</time>
      </trkpt>
      <trkpt lat="46.96218" lon="6.00736">
        <ele>525</ele>
        <time>2020-05-24T15:55:28.000Z</time>
      </trkpt>
      <trkpt lat="46.96219" lon="6.00739">
        <ele>525</ele>
        <time>2020-05-24T15:55:30.000Z</time>
      </trkpt>
      <trkpt lat="46.9622" lon="6.00742">
        <ele>525</ele>
        <time>2020-05-24T15:55:32.000Z</time>
      </trkpt>
      <trkpt lat="46.9622" lon="6.00745">
        <ele>525</ele>
        <time>2020-05-24T15:55:34.000Z</time>
      </trkpt>
      <trkpt lat="46.96221" lon="6.00747">
        <ele>524</ele>
        <time>2020-05-24T15:55:37.000Z</time>
      </trkpt>
      <trkpt lat="46.96221" lon="6.0075">
        <ele>524</ele>
        <time>2020-05-24T15:55:42.000Z</time>
      </trkpt>
      <trkpt lat="46.96222" lon="6.00753">
        <ele>523</ele>
        <time>2020-05-24T15:55:59.000Z</time>
      </trkpt>
      <trkpt lat="46.96223" lon="6.00754">
        <ele>524</ele>
        <time>2020-05-24T15:56:20.000Z</time>
      </trkpt>
      <trkpt lat="46.96225" lon="6.00755">
        <ele>524</ele>
        <time>2020-05-24T15:56:38.000Z</time>
      </trkpt>
      <trkpt lat="46.96227" lon="6.00754">
        <ele>525</ele>
        <time>2020-05-24T15:56:40.000Z</time>
      </trkpt>
      <trkpt lat="46.96226" lon="6.00752">
        <ele>525</ele>
        <time>2020-05-24T15:57:13.000Z</time>
      </trkpt>
      <trkpt lat="46.96223" lon="6.00752">
        <ele>525</ele>
        <time>2020-05-24T15:57:17.000Z</time>
      </trkpt>
      <trkpt lat="46.96222" lon="6.00754">
        <ele>525</ele>
        <time>2020-05-24T15:57:38.000Z</time>
      </trkpt>
      <trkpt lat="46.96223" lon="6.00756">
        <ele>525</ele>
        <time>2020-05-24T15:57:47.000Z</time>
      </trkpt>
      <trkpt lat="46.96223" lon="6.00759">
        <ele>523</ele>
        <time>2020-05-24T15:57:53.000Z</time>
      </trkpt>
      <trkpt lat="46.96224" lon="6.00762">
        <ele>523</ele>
        <time>2020-05-24T15:57:55.000Z</time>
      </trkpt>
      <trkpt lat="46.96224" lon="6.00765">
        <ele>523</ele>
        <time>2020-05-24T15:57:57.000Z</time>
      </trkpt>
      <trkpt lat="46.96226" lon="6.00768">
        <ele>523</ele>
        <time>2020-05-24T15:57:59.000Z</time>
      </trkpt>
      <trkpt lat="46.96221" lon="6.00773">
        <ele>522.84848210592</ele>
        <time>2020-05-24T15:58:10.000Z</time>
      </trkpt>
      <trkpt lat="46.96223" lon="6.00774">
        <ele>522</ele>
        <time>2020-05-24T15:58:12.000Z</time>
      </trkpt>
      <trkpt lat="46.96223" lon="6.00777">
        <ele>522</ele>
        <time>2020-05-24T15:58:16.000Z</time>
      </trkpt>
      <trkpt lat="46.96223" lon="6.00781">
        <ele>522</ele>
        <time>2020-05-24T15:58:18.000Z</time>
      </trkpt>
      <trkpt lat="46.96224" lon="6.00784">
        <ele>521.84848210592</ele>
        <time>2020-05-24T15:58:20.000Z</time>
      </trkpt>
      <trkpt lat="46.96224" lon="6.00787">
        <ele>521</ele>
        <time>2020-05-24T15:58:22.000Z</time>
      </trkpt>
      <trkpt lat="46.96225" lon="6.00791">
        <ele>521</ele>
        <time>2020-05-24T15:58:24.000Z</time>
      </trkpt>
      <trkpt lat="46.96225" lon="6.00794">
        <ele>521</ele>
        <time>2020-05-24T15:58:26.000Z</time>
      </trkpt>
      <trkpt lat="46.96226" lon="6.00798">
        <ele>521</ele>
        <time>2020-05-24T15:58:28.000Z</time>
      </trkpt>
      <trkpt lat="46.96226" lon="6.00802">
        <ele>520</ele>
        <time>2020-05-24T15:58:30.000Z</time>
      </trkpt>
      <trkpt lat="46.96227" lon="6.00805">
        <ele>520</ele>
        <time>2020-05-24T15:58:32.000Z</time>
      </trkpt>
      <trkpt lat="46.96227" lon="6.00809">
        <ele>520</ele>
        <time>2020-05-24T15:58:34.000Z</time>
      </trkpt>
      <trkpt lat="46.96227" lon="6.00813">
        <ele>520</ele>
        <time>2020-05-24T15:58:36.000Z</time>
      </trkpt>
      <trkpt lat="46.96227" lon="6.00816">
        <ele>520</ele>
        <time>2020-05-24T15:58:37.000Z</time>
      </trkpt>
      <trkpt lat="46.96228" lon="6.0082">
        <ele>520</ele>
        <time>2020-05-24T15:58:39.000Z</time>
      </trkpt>
      <trkpt lat="46.96228" lon="6.00823">
        <ele>519.87401606547</ele>
        <time>2020-05-24T15:58:41.000Z</time>
      </trkpt>
      <trkpt lat="46.96229" lon="6.00826">
        <ele>519</ele>
        <time>2020-05-24T15:58:43.000Z</time>
      </trkpt>
      <trkpt lat="46.9623" lon="6.00829">
        <ele>519</ele>
        <time>2020-05-24T15:58:45.000Z</time>
      </trkpt>
      <trkpt lat="46.96231" lon="6.00831">
        <ele>519</ele>
        <time>2020-05-24T15:58:47.000Z</time>
      </trkpt>
      <trkpt lat="46.96231" lon="6.00835">
        <ele>519</ele>
        <time>2020-05-24T15:58:49.000Z</time>
      </trkpt>
      <trkpt lat="46.96232" lon="6.00838">
        <ele>519</ele>
        <time>2020-05-24T15:58:51.000Z</time>
      </trkpt>
      <trkpt lat="46.96232" lon="6.00841">
        <ele>519</ele>
        <time>2020-05-24T15:58:53.000Z</time>
      </trkpt>
      <trkpt lat="46.96233" lon="6.00844">
        <ele>519</ele>
        <time>2020-05-24T15:58:55.000Z</time>
      </trkpt>
      <trkpt lat="46.96233" lon="6.00848">
        <ele>518.84</ele>
        <time>2020-05-24T15:58:57.000Z</time>
      </trkpt>
      <trkpt lat="46.96233" lon="6.00851">
        <ele>518</ele>
        <time>2020-05-24T15:59:00.000Z</time>
      </trkpt>
      <trkpt lat="46.96232" lon="6.00854">
        <ele>518</ele>
        <time>2020-05-24T15:59:02.000Z</time>
      </trkpt>
      <trkpt lat="46.9623" lon="6.00855">
        <ele>518</ele>
        <time>2020-05-24T15:59:04.000Z</time>
      </trkpt>
      <trkpt lat="46.96228" lon="6.00857">
        <ele>518</ele>
        <time>2020-05-24T15:59:06.000Z</time>
      </trkpt>
      <trkpt lat="46.96226" lon="6.00859">
        <ele>517.84466067678</ele>
        <time>2020-05-24T15:59:08.000Z</time>
      </trkpt>
      <trkpt lat="46.96224" lon="6.00862">
        <ele>517</ele>
        <time>2020-05-24T15:59:10.000Z</time>
      </trkpt>
      <trkpt lat="46.96222" lon="6.00864">
        <ele>517</ele>
        <time>2020-05-24T15:59:12.000Z</time>
      </trkpt>
      <trkpt lat="46.9622" lon="6.00867">
        <ele>517</ele>
        <time>2020-05-24T15:59:14.000Z</time>
      </trkpt>
      <trkpt lat="46.9622" lon="6.0087">
        <ele>516</ele>
        <time>2020-05-24T15:59:17.000Z</time>
      </trkpt>
      <trkpt lat="46.9622" lon="6.00873">
        <ele>516</ele>
        <time>2020-05-24T15:59:55.000Z</time>
      </trkpt>
      <trkpt lat="46.96217" lon="6.00874">
        <ele>516</ele>
        <time>2020-05-24T15:59:59.000Z</time>
      </trkpt>
      <trkpt lat="46.96216" lon="6.00875">
        <ele>516</ele>
        <time>2020-05-24T16:00:02.000Z</time>
      </trkpt>
      <trkpt lat="46.96217" lon="6.00875">
        <ele>517</ele>
        <time>2020-05-24T16:00:23.000Z</time>
      </trkpt>
      <trkpt lat="46.96217" lon="6.00873">
        <ele>515</ele>
        <time>2020-05-24T16:00:50.000Z</time>
      </trkpt>
      <trkpt lat="46.96218" lon="6.00875">
        <ele>517</ele>
        <time>2020-05-24T16:01:14.000Z</time>
      </trkpt>
      <trkpt lat="46.96219" lon="6.00877">
        <ele>517</ele>
        <time>2020-05-24T16:01:19.000Z</time>
      </trkpt>
      <trkpt lat="46.96217" lon="6.00876">
        <ele>517</ele>
        <time>2020-05-24T16:01:36.000Z</time>
      </trkpt>
      <trkpt lat="46.96219" lon="6.00877">
        <ele>516</ele>
        <time>2020-05-24T16:02:02.000Z</time>
      </trkpt>
      <trkpt lat="46.96217" lon="6.00878">
        <ele>515</ele>
        <time>2020-05-24T16:02:24.000Z</time>
      </trkpt>
      <trkpt lat="46.96219" lon="6.00878">
        <ele>515</ele>
        <time>2020-05-24T16:03:12.000Z</time>
      </trkpt>
      <trkpt lat="46.96218" lon="6.00875">
        <ele>515</ele>
        <time>2020-05-24T16:03:38.000Z</time>
      </trkpt>
      <trkpt lat="46.96219" lon="6.00878">
        <ele>515</ele>
        <time>2020-05-24T16:04:15.000Z</time>
      </trkpt>
      <trkpt lat="46.96219" lon="6.00882">
        <ele>515</ele>
        <time>2020-05-24T16:04:17.000Z</time>
      </trkpt>
      <trkpt lat="46.96219" lon="6.00886">
        <ele>515</ele>
        <time>2020-05-24T16:04:19.000Z</time>
      </trkpt>
      <trkpt lat="46.96219" lon="6.00891">
        <ele>513.84</ele>
        <time>2020-05-24T16:04:21.000Z</time>
      </trkpt>
      <trkpt lat="46.96218" lon="6.00895">
        <ele>513</ele>
        <time>2020-05-24T16:04:23.000Z</time>
      </trkpt>
      <trkpt lat="46.96218" lon="6.00899">
        <ele>513</ele>
        <time>2020-05-24T16:04:25.000Z</time>
      </trkpt>
      <trkpt lat="46.96219" lon="6.00903">
        <ele>513</ele>
        <time>2020-05-24T16:04:27.000Z</time>
      </trkpt>
      <trkpt lat="46.96219" lon="6.00906">
        <ele>513</ele>
        <time>2020-05-24T16:04:29.000Z</time>
      </trkpt>
      <trkpt lat="46.96218" lon="6.00909">
        <ele>513</ele>
        <time>2020-05-24T16:04:31.000Z</time>
      </trkpt>
      <trkpt lat="46.96218" lon="6.00912">
        <ele>513</ele>
        <time>2020-05-24T16:04:33.000Z</time>
      </trkpt>
      <trkpt lat="46.96219" lon="6.00916">
        <ele>512</ele>
        <time>2020-05-24T16:04:35.000Z</time>
      </trkpt>
      <trkpt lat="46.96218" lon="6.00919">
        <ele>512</ele>
        <time>2020-05-24T16:04:37.000Z</time>
      </trkpt>
      <trkpt lat="46.96218" lon="6.00923">
        <ele>512</ele>
        <time>2020-05-24T16:04:39.000Z</time>
      </trkpt>
      <trkpt lat="46.96219" lon="6.00926">
        <ele>512</ele>
        <time>2020-05-24T16:04:42.000Z</time>
      </trkpt>
      <trkpt lat="46.96219" lon="6.00929">
        <ele>513</ele>
        <time>2020-05-24T16:04:52.000Z</time>
      </trkpt>
      <trkpt lat="46.9622" lon="6.00928">
        <ele>511.14953226308</ele>
        <time>2020-05-24T16:05:24.000Z</time>
      </trkpt>
      <trkpt lat="46.96221" lon="6.0093">
        <ele>512</ele>
        <time>2020-05-24T16:05:53.000Z</time>
      </trkpt>
      <trkpt lat="46.96221" lon="6.00932">
        <ele>512</ele>
        <time>2020-05-24T16:06:02.000Z</time>
      </trkpt>
      <trkpt lat="46.9622" lon="6.00935">
        <ele>512</ele>
        <time>2020-05-24T16:06:04.000Z</time>
      </trkpt>
      <trkpt lat="46.9622" lon="6.00938">
        <ele>511.88288475288</ele>
        <time>2020-05-24T16:06:06.000Z</time>
      </trkpt>
      <trkpt lat="46.96221" lon="6.00942">
        <ele>511</ele>
        <time>2020-05-24T16:06:08.000Z</time>
      </trkpt>
      <trkpt lat="46.96222" lon="6.00945">
        <ele>511</ele>
        <time>2020-05-24T16:06:10.000Z</time>
      </trkpt>
      <trkpt lat="46.96223" lon="6.00947">
        <ele>510</ele>
        <time>2020-05-24T16:06:12.000Z</time>
      </trkpt>
      <trkpt lat="46.96223" lon="6.00951">
        <ele>510</ele>
        <time>2020-05-24T16:06:14.000Z</time>
      </trkpt>
      <trkpt lat="46.96224" lon="6.00954">
        <ele>510</ele>
        <time>2020-05-24T16:06:16.000Z</time>
      </trkpt>
      <trkpt lat="46.96225" lon="6.00957">
        <ele>510</ele>
        <time>2020-05-24T16:06:18.000Z</time>
      </trkpt>
      <trkpt lat="46.96224" lon="6.0096">
        <ele>510</ele>
        <time>2020-05-24T16:06:20.000Z</time>
      </trkpt>
      <trkpt lat="46.96225" lon="6.00964">
        <ele>510</ele>
        <time>2020-05-24T16:06:22.000Z</time>
      </trkpt>
      <trkpt lat="46.96225" lon="6.00967">
        <ele>510</ele>
        <time>2020-05-24T16:06:24.000Z</time>
      </trkpt>
      <trkpt lat="46.96225" lon="6.00971">
        <ele>510</ele>
        <time>2020-05-24T16:06:26.000Z</time>
      </trkpt>
      <trkpt lat="46.96225" lon="6.00975">
        <ele>510</ele>
        <time>2020-05-24T16:06:28.000Z</time>
      </trkpt>
      <trkpt lat="46.96224" lon="6.00978">
        <ele>510</ele>
        <time>2020-05-24T16:06:30.000Z</time>
      </trkpt>
      <trkpt lat="46.96224" lon="6.00981">
        <ele>510</ele>
        <time>2020-05-24T16:06:32.000Z</time>
      </trkpt>
      <trkpt lat="46.96224" lon="6.00984">
        <ele>509</ele>
        <time>2020-05-24T16:06:34.000Z</time>
      </trkpt>
      <trkpt lat="46.96225" lon="6.00985">
        <ele>509</ele>
        <time>2020-05-24T16:06:39.000Z</time>
      </trkpt>
      <trkpt lat="46.96227" lon="6.00984">
        <ele>508</ele>
        <time>2020-05-24T16:06:54.000Z</time>
      </trkpt>
      <trkpt lat="46.96228" lon="6.00987">
        <ele>509</ele>
        <time>2020-05-24T16:07:10.000Z</time>
      </trkpt>
      <trkpt lat="46.96228" lon="6.0099">
        <ele>509</ele>
        <time>2020-05-24T16:07:12.000Z</time>
      </trkpt>
      <trkpt lat="46.96228" lon="6.00993">
        <ele>509</ele>
        <time>2020-05-24T16:07:14.000Z</time>
      </trkpt>
      <trkpt lat="46.96228" lon="6.00996">
        <ele>509</ele>
        <time>2020-05-24T16:07:16.000Z</time>
      </trkpt>
      <trkpt lat="46.96229" lon="6.01">
        <ele>509</ele>
        <time>2020-05-24T16:07:18.000Z</time>
      </trkpt>
      <trkpt lat="46.96229" lon="6.01004">
        <ele>509</ele>
        <time>2020-05-24T16:07:20.000Z</time>
      </trkpt>
      <trkpt lat="46.9623" lon="6.01007">
        <ele>509</ele>
        <time>2020-05-24T16:07:22.000Z</time>
      </trkpt>
      <trkpt lat="46.9623" lon="6.0101">
        <ele>508</ele>
        <time>2020-05-24T16:07:24.000Z</time>
      </trkpt>
      <trkpt lat="46.9623" lon="6.01013">
        <ele>507.09473315458</ele>
        <time>2020-05-24T16:07:26.000Z</time>
      </trkpt>
      <trkpt lat="46.9623" lon="6.01016">
        <ele>508</ele>
        <time>2020-05-24T16:07:28.000Z</time>
      </trkpt>
      <trkpt lat="46.9623" lon="6.01021">
        <ele>507</ele>
        <time>2020-05-24T16:07:30.000Z</time>
      </trkpt>
      <trkpt lat="46.9623" lon="6.01023">
        <ele>507</ele>
        <time>2020-05-24T16:07:31.000Z</time>
      </trkpt>
      <trkpt lat="46.9623" lon="6.01028">
        <ele>507</ele>
        <time>2020-05-24T16:07:33.000Z</time>
      </trkpt>
      <trkpt lat="46.96229" lon="6.01033">
        <ele>507</ele>
        <time>2020-05-24T16:07:35.000Z</time>
      </trkpt>
      <trkpt lat="46.96229" lon="6.01038">
        <ele>506.92472748293</ele>
        <time>2020-05-24T16:07:37.000Z</time>
      </trkpt>
      <trkpt lat="46.96229" lon="6.01042">
        <ele>506</ele>
        <time>2020-05-24T16:07:39.000Z</time>
      </trkpt>
      <trkpt lat="46.96229" lon="6.01046">
        <ele>506</ele>
        <time>2020-05-24T16:07:41.000Z</time>
      </trkpt>
      <trkpt lat="46.96229" lon="6.0105">
        <ele>506</ele>
        <time>2020-05-24T16:07:43.000Z</time>
      </trkpt>
      <trkpt lat="46.9623" lon="6.01053">
        <ele>506</ele>
        <time>2020-05-24T16:07:45.000Z</time>
      </trkpt>
      <trkpt lat="46.96231" lon="6.01057">
        <ele>506</ele>
        <time>2020-05-24T16:07:47.000Z</time>
      </trkpt>
      <trkpt lat="46.96231" lon="6.01061">
        <ele>506</ele>
        <time>2020-05-24T16:07:49.000Z</time>
      </trkpt>
      <trkpt lat="46.96232" lon="6.01064">
        <ele>505</ele>
        <time>2020-05-24T16:07:51.000Z</time>
      </trkpt>
      <trkpt lat="46.96233" lon="6.01068">
        <ele>505</ele>
        <time>2020-05-24T16:07:53.000Z</time>
      </trkpt>
      <trkpt lat="46.96234" lon="6.01072">
        <ele>505</ele>
        <time>2020-05-24T16:07:55.000Z</time>
      </trkpt>
      <trkpt lat="46.96235" lon="6.01075">
        <ele>504.14159332133</ele>
        <time>2020-05-24T16:07:57.000Z</time>
      </trkpt>
      <trkpt lat="46.96236" lon="6.01078">
        <ele>504</ele>
        <time>2020-05-24T16:08:00.000Z</time>
      </trkpt>
      <trkpt lat="46.96237" lon="6.01081">
        <ele>504</ele>
        <time>2020-05-24T16:08:02.000Z</time>
      </trkpt>
      <trkpt lat="46.96237" lon="6.01084">
        <ele>504</ele>
        <time>2020-05-24T16:08:04.000Z</time>
      </trkpt>
      <trkpt lat="46.96237" lon="6.01089">
        <ele>504</ele>
        <time>2020-05-24T16:08:06.000Z</time>
      </trkpt>
      <trkpt lat="46.96237" lon="6.01093">
        <ele>504</ele>
        <time>2020-05-24T16:08:08.000Z</time>
      </trkpt>
      <trkpt lat="46.96238" lon="6.01096">
        <ele>503.95454545454</ele>
        <time>2020-05-24T16:08:10.000Z</time>
      </trkpt>
      <trkpt lat="46.96239" lon="6.01099">
        <ele>503</ele>
        <time>2020-05-24T16:08:13.000Z</time>
      </trkpt>
      <trkpt lat="46.96239" lon="6.01102">
        <ele>502</ele>
        <time>2020-05-24T16:08:16.000Z</time>
      </trkpt>
      <trkpt lat="46.9624" lon="6.01105">
        <ele>502</ele>
        <time>2020-05-24T16:08:19.000Z</time>
      </trkpt>
      <trkpt lat="46.9624" lon="6.01109">
        <ele>501</ele>
        <time>2020-05-24T16:08:21.000Z</time>
      </trkpt>
      <trkpt lat="46.96239" lon="6.01112">
        <ele>501</ele>
        <time>2020-05-24T16:08:23.000Z</time>
      </trkpt>
      <trkpt lat="46.96238" lon="6.01115">
        <ele>501</ele>
        <time>2020-05-24T16:08:26.000Z</time>
      </trkpt>
      <trkpt lat="46.96238" lon="6.01119">
        <ele>500</ele>
        <time>2020-05-24T16:08:28.000Z</time>
      </trkpt>
      <trkpt lat="46.96237" lon="6.01123">
        <ele>499.85713725951</ele>
        <time>2020-05-24T16:08:30.000Z</time>
      </trkpt>
      <trkpt lat="46.96236" lon="6.01133">
        <ele>499</ele>
        <time>2020-05-24T16:08:36.000Z</time>
      </trkpt>
      <trkpt lat="46.96236" lon="6.01142">
        <ele>498</ele>
        <time>2020-05-24T16:08:40.000Z</time>
      </trkpt>
      <trkpt lat="46.96238" lon="6.01146">
        <ele>498</ele>
        <time>2020-05-24T16:08:42.000Z</time>
      </trkpt>
      <trkpt lat="46.96239" lon="6.0115">
        <ele>498</ele>
        <time>2020-05-24T16:08:44.000Z</time>
      </trkpt>
      <trkpt lat="46.96238" lon="6.01155">
        <ele>498</ele>
        <time>2020-05-24T16:08:46.000Z</time>
      </trkpt>
      <trkpt lat="46.96239" lon="6.01159">
        <ele>498</ele>
        <time>2020-05-24T16:08:48.000Z</time>
      </trkpt>
      <trkpt lat="46.9624" lon="6.0117">
        <ele>498</ele>
        <time>2020-05-24T16:08:53.000Z</time>
      </trkpt>
      <trkpt lat="46.96242" lon="6.01172">
        <ele>498</ele>
        <time>2020-05-24T16:08:55.000Z</time>
      </trkpt>
      <trkpt lat="46.96244" lon="6.01176">
        <ele>498</ele>
        <time>2020-05-24T16:08:57.000Z</time>
      </trkpt>
      <trkpt lat="46.96249" lon="6.0119">
        <ele>497</ele>
        <time>2020-05-24T16:09:03.000Z</time>
      </trkpt>
      <trkpt lat="46.96253" lon="6.01202">
        <ele>497</ele>
        <time>2020-05-24T16:09:09.000Z</time>
      </trkpt>
      <trkpt lat="46.96255" lon="6.01204">
        <ele>497</ele>
        <time>2020-05-24T16:09:11.000Z</time>
      </trkpt>
      <trkpt lat="46.96257" lon="6.01207">
        <ele>497</ele>
        <time>2020-05-24T16:09:13.000Z</time>
      </trkpt>
      <trkpt lat="46.96259" lon="6.0121">
        <ele>497</ele>
        <time>2020-05-24T16:09:15.000Z</time>
      </trkpt>
      <trkpt lat="46.96261" lon="6.01212">
        <ele>496.875</ele>
        <time>2020-05-24T16:09:17.000Z</time>
      </trkpt>
      <trkpt lat="46.96263" lon="6.01215">
        <ele>496</ele>
        <time>2020-05-24T16:09:19.000Z</time>
      </trkpt>
      <trkpt lat="46.96265" lon="6.01216">
        <ele>495.8415836565</ele>
        <time>2020-05-24T16:09:21.000Z</time>
      </trkpt>
      <trkpt lat="46.96267" lon="6.01218">
        <ele>495</ele>
        <time>2020-05-24T16:09:23.000Z</time>
      </trkpt>
      <trkpt lat="46.96268" lon="6.0122">
        <ele>495</ele>
        <time>2020-05-24T16:09:25.000Z</time>
      </trkpt>
      <trkpt lat="46.96268" lon="6.01224">
        <ele>495</ele>
        <time>2020-05-24T16:09:28.000Z</time>
      </trkpt>
      <trkpt lat="46.96269" lon="6.01221">
        <ele>495</ele>
        <time>2020-05-24T16:09:37.000Z</time>
      </trkpt>
      <trkpt lat="46.96267" lon="6.01218">
        <ele>495</ele>
        <time>2020-05-24T16:09:41.000Z</time>
      </trkpt>
      <trkpt lat="46.96267" lon="6.01215">
        <ele>495</ele>
        <time>2020-05-24T16:09:46.000Z</time>
      </trkpt>
      <trkpt lat="46.96266" lon="6.01212">
        <ele>495</ele>
        <time>2020-05-24T16:09:49.000Z</time>
      </trkpt>
      <trkpt lat="46.96265" lon="6.01209">
        <ele>495.05983130395</ele>
        <time>2020-05-24T16:09:56.000Z</time>
      </trkpt>
      <trkpt lat="46.96265" lon="6.01206">
        <ele>496</ele>
        <time>2020-05-24T16:09:58.000Z</time>
      </trkpt>
      <trkpt lat="46.96264" lon="6.01203">
        <ele>496</ele>
        <time>2020-05-24T16:10:00.000Z</time>
      </trkpt>
      <trkpt lat="46.96262" lon="6.01201">
        <ele>496</ele>
        <time>2020-05-24T16:10:02.000Z</time>
      </trkpt>
      <trkpt lat="46.9626" lon="6.01199">
        <ele>496</ele>
        <time>2020-05-24T16:10:04.000Z</time>
      </trkpt>
      <trkpt lat="46.96258" lon="6.01196">
        <ele>496</ele>
        <time>2020-05-24T16:10:06.000Z</time>
      </trkpt>
      <trkpt lat="46.96257" lon="6.01194">
        <ele>496</ele>
        <time>2020-05-24T16:10:08.000Z</time>
      </trkpt>
      <trkpt lat="46.96255" lon="6.01191">
        <ele>496</ele>
        <time>2020-05-24T16:10:10.000Z</time>
      </trkpt>
      <trkpt lat="46.96254" lon="6.01188">
        <ele>496</ele>
        <time>2020-05-24T16:10:12.000Z</time>
      </trkpt>
      <trkpt lat="46.96252" lon="6.01185">
        <ele>496</ele>
        <time>2020-05-24T16:10:14.000Z</time>
      </trkpt>
      <trkpt lat="46.96251" lon="6.01183">
        <ele>497</ele>
        <time>2020-05-24T16:10:16.000Z</time>
      </trkpt>
      <trkpt lat="46.96249" lon="6.0118">
        <ele>497</ele>
        <time>2020-05-24T16:10:18.000Z</time>
      </trkpt>
      <trkpt lat="46.96248" lon="6.01177">
        <ele>497</ele>
        <time>2020-05-24T16:10:20.000Z</time>
      </trkpt>
      <trkpt lat="46.96246" lon="6.01175">
        <ele>497</ele>
        <time>2020-05-24T16:10:22.000Z</time>
      </trkpt>
      <trkpt lat="46.96245" lon="6.01171">
        <ele>497</ele>
        <time>2020-05-24T16:10:24.000Z</time>
      </trkpt>
      <trkpt lat="46.96244" lon="6.01168">
        <ele>497</ele>
        <time>2020-05-24T16:10:26.000Z</time>
      </trkpt>
      <trkpt lat="46.96244" lon="6.01164">
        <ele>497</ele>
        <time>2020-05-24T16:10:28.000Z</time>
      </trkpt>
      <trkpt lat="46.96243" lon="6.0116">
        <ele>497</ele>
        <time>2020-05-24T16:10:30.000Z</time>
      </trkpt>
      <trkpt lat="46.96242" lon="6.01156">
        <ele>497</ele>
        <time>2020-05-24T16:10:32.000Z</time>
      </trkpt>
      <trkpt lat="46.96242" lon="6.01153">
        <ele>497.15238141678</ele>
        <time>2020-05-24T16:10:34.000Z</time>
      </trkpt>
      <trkpt lat="46.96242" lon="6.01148">
        <ele>498</ele>
        <time>2020-05-24T16:10:36.000Z</time>
      </trkpt>
      <trkpt lat="46.96241" lon="6.01144">
        <ele>498</ele>
        <time>2020-05-24T16:10:38.000Z</time>
      </trkpt>
      <trkpt lat="46.96241" lon="6.0114">
        <ele>498</ele>
        <time>2020-05-24T16:10:40.000Z</time>
      </trkpt>
      <trkpt lat="46.96241" lon="6.01136">
        <ele>498</ele>
        <time>2020-05-24T16:10:42.000Z</time>
      </trkpt>
      <trkpt lat="46.96241" lon="6.01132">
        <ele>498.06557411449</ele>
        <time>2020-05-24T16:10:44.000Z</time>
      </trkpt>
      <trkpt lat="46.96241" lon="6.01128">
        <ele>499</ele>
        <time>2020-05-24T16:10:46.000Z</time>
      </trkpt>
      <trkpt lat="46.96242" lon="6.01126">
        <ele>499</ele>
        <time>2020-05-24T16:10:48.000Z</time>
      </trkpt>
      <trkpt lat="46.96243" lon="6.01122">
        <ele>499</ele>
        <time>2020-05-24T16:10:50.000Z</time>
      </trkpt>
      <trkpt lat="46.96243" lon="6.01119">
        <ele>499</ele>
        <time>2020-05-24T16:10:52.000Z</time>
      </trkpt>
      <trkpt lat="46.96243" lon="6.01116">
        <ele>500.15686176087</ele>
        <time>2020-05-24T16:10:54.000Z</time>
      </trkpt>
      <trkpt lat="46.96244" lon="6.01113">
        <ele>501</ele>
        <time>2020-05-24T16:10:56.000Z</time>
      </trkpt>
      <trkpt lat="46.96244" lon="6.0111">
        <ele>501</ele>
        <time>2020-05-24T16:10:58.000Z</time>
      </trkpt>
      <trkpt lat="46.96244" lon="6.01107">
        <ele>501</ele>
        <time>2020-05-24T16:11:00.000Z</time>
      </trkpt>
      <trkpt lat="46.96244" lon="6.01103">
        <ele>502</ele>
        <time>2020-05-24T16:11:02.000Z</time>
      </trkpt>
      <trkpt lat="46.96244" lon="6.01099">
        <ele>502</ele>
        <time>2020-05-24T16:11:04.000Z</time>
      </trkpt>
      <trkpt lat="46.96244" lon="6.01096">
        <ele>502</ele>
        <time>2020-05-24T16:11:06.000Z</time>
      </trkpt>
      <trkpt lat="46.96243" lon="6.01092">
        <ele>503.15094430759</ele>
        <time>2020-05-24T16:11:08.000Z</time>
      </trkpt>
      <trkpt lat="46.96242" lon="6.01089">
        <ele>504</ele>
        <time>2020-05-24T16:11:10.000Z</time>
      </trkpt>
      <trkpt lat="46.96241" lon="6.01086">
        <ele>504</ele>
        <time>2020-05-24T16:11:12.000Z</time>
      </trkpt>
      <trkpt lat="46.9624" lon="6.01084">
        <ele>504</ele>
        <time>2020-05-24T16:11:14.000Z</time>
      </trkpt>
      <trkpt lat="46.96239" lon="6.01081">
        <ele>504</ele>
        <time>2020-05-24T16:11:16.000Z</time>
      </trkpt>
      <trkpt lat="46.96238" lon="6.01078">
        <ele>504</ele>
        <time>2020-05-24T16:11:18.000Z</time>
      </trkpt>
      <trkpt lat="46.96237" lon="6.01075">
        <ele>504</ele>
        <time>2020-05-24T16:11:20.000Z</time>
      </trkpt>
      <trkpt lat="46.96236" lon="6.01071">
        <ele>505</ele>
        <time>2020-05-24T16:11:22.000Z</time>
      </trkpt>
      <trkpt lat="46.96235" lon="6.01068">
        <ele>505</ele>
        <time>2020-05-24T16:11:24.000Z</time>
      </trkpt>
      <trkpt lat="46.96234" lon="6.01064">
        <ele>505</ele>
        <time>2020-05-24T16:11:26.000Z</time>
      </trkpt>
      <trkpt lat="46.96234" lon="6.0106">
        <ele>505</ele>
        <time>2020-05-24T16:11:28.000Z</time>
      </trkpt>
      <trkpt lat="46.96234" lon="6.01056">
        <ele>506</ele>
        <time>2020-05-24T16:11:30.000Z</time>
      </trkpt>
      <trkpt lat="46.96234" lon="6.01052">
        <ele>506</ele>
        <time>2020-05-24T16:11:32.000Z</time>
      </trkpt>
      <trkpt lat="46.96234" lon="6.01048">
        <ele>506</ele>
        <time>2020-05-24T16:11:35.000Z</time>
      </trkpt>
      <trkpt lat="46.96234" lon="6.01045">
        <ele>506</ele>
        <time>2020-05-24T16:11:37.000Z</time>
      </trkpt>
      <trkpt lat="46.96233" lon="6.01041">
        <ele>506.058336</ele>
        <time>2020-05-24T16:11:39.000Z</time>
      </trkpt>
      <trkpt lat="46.96233" lon="6.01037">
        <ele>508</ele>
        <time>2020-05-24T16:11:41.000Z</time>
      </trkpt>
      <trkpt lat="46.96233" lon="6.01032">
        <ele>508</ele>
        <time>2020-05-24T16:11:43.000Z</time>
      </trkpt>
      <trkpt lat="46.96233" lon="6.01029">
        <ele>507</ele>
        <time>2020-05-24T16:11:45.000Z</time>
      </trkpt>
      <trkpt lat="46.96233" lon="6.01025">
        <ele>508</ele>
        <time>2020-05-24T16:11:47.000Z</time>
      </trkpt>
      <trkpt lat="46.96232" lon="6.01022">
        <ele>508</ele>
        <time>2020-05-24T16:11:49.000Z</time>
      </trkpt>
      <trkpt lat="46.96232" lon="6.01019">
        <ele>508</ele>
        <time>2020-05-24T16:11:51.000Z</time>
      </trkpt>
      <trkpt lat="46.96232" lon="6.01012">
        <ele>508.12121212121</ele>
        <time>2020-05-24T16:11:54.000Z</time>
      </trkpt>
      <trkpt lat="46.96232" lon="6.01009">
        <ele>509</ele>
        <time>2020-05-24T16:11:56.000Z</time>
      </trkpt>
      <trkpt lat="46.96232" lon="6.01006">
        <ele>509</ele>
        <time>2020-05-24T16:11:58.000Z</time>
      </trkpt>
      <trkpt lat="46.96232" lon="6.01003">
        <ele>509</ele>
        <time>2020-05-24T16:12:00.000Z</time>
      </trkpt>
      <trkpt lat="46.96231" lon="6.00999">
        <ele>509</ele>
        <time>2020-05-24T16:12:02.000Z</time>
      </trkpt>
      <trkpt lat="46.96231" lon="6.00994">
        <ele>509</ele>
        <time>2020-05-24T16:12:04.000Z</time>
      </trkpt>
      <trkpt lat="46.9623" lon="6.0099">
        <ele>509</ele>
        <time>2020-05-24T16:12:06.000Z</time>
      </trkpt>
      <trkpt lat="46.96231" lon="6.00986">
        <ele>509.98305617929</ele>
        <time>2020-05-24T16:12:08.000Z</time>
      </trkpt>
      <trkpt lat="46.96229" lon="6.00985">
        <ele>510</ele>
        <time>2020-05-24T16:12:15.000Z</time>
      </trkpt>
      <trkpt lat="46.96228" lon="6.00981">
        <ele>510</ele>
        <time>2020-05-24T16:12:20.000Z</time>
      </trkpt>
      <trkpt lat="46.96227" lon="6.00977">
        <ele>510</ele>
        <time>2020-05-24T16:12:22.000Z</time>
      </trkpt>
      <trkpt lat="46.96227" lon="6.00974">
        <ele>509.91304347826</ele>
        <time>2020-05-24T16:12:23.000Z</time>
      </trkpt>
      <trkpt lat="46.96227" lon="6.0097">
        <ele>509</ele>
        <time>2020-05-24T16:12:25.000Z</time>
      </trkpt>
      <trkpt lat="46.96226" lon="6.00966">
        <ele>509</ele>
        <time>2020-05-24T16:12:27.000Z</time>
      </trkpt>
      <trkpt lat="46.96226" lon="6.00963">
        <ele>510</ele>
        <time>2020-05-24T16:12:29.000Z</time>
      </trkpt>
      <trkpt lat="46.96226" lon="6.00959">
        <ele>510</ele>
        <time>2020-05-24T16:12:31.000Z</time>
      </trkpt>
      <trkpt lat="46.96226" lon="6.00956">
        <ele>510</ele>
        <time>2020-05-24T16:12:33.000Z</time>
      </trkpt>
      <trkpt lat="46.96226" lon="6.00952">
        <ele>510</ele>
        <time>2020-05-24T16:12:35.000Z</time>
      </trkpt>
      <trkpt lat="46.96225" lon="6.00948">
        <ele>510</ele>
        <time>2020-05-24T16:12:37.000Z</time>
      </trkpt>
      <trkpt lat="46.96225" lon="6.00945">
        <ele>510</ele>
        <time>2020-05-24T16:12:39.000Z</time>
      </trkpt>
      <trkpt lat="46.96225" lon="6.00941">
        <ele>510</ele>
        <time>2020-05-24T16:12:41.000Z</time>
      </trkpt>
      <trkpt lat="46.96226" lon="6.00938">
        <ele>510</ele>
        <time>2020-05-24T16:12:43.000Z</time>
      </trkpt>
      <trkpt lat="46.96225" lon="6.00935">
        <ele>511</ele>
        <time>2020-05-24T16:12:45.000Z</time>
      </trkpt>
      <trkpt lat="46.96225" lon="6.00931">
        <ele>511</ele>
        <time>2020-05-24T16:12:47.000Z</time>
      </trkpt>
      <trkpt lat="46.96225" lon="6.00929">
        <ele>511</ele>
        <time>2020-05-24T16:12:49.000Z</time>
      </trkpt>
      <trkpt lat="46.96225" lon="6.00926">
        <ele>512</ele>
        <time>2020-05-24T16:12:51.000Z</time>
      </trkpt>
      <trkpt lat="46.96225" lon="6.00923">
        <ele>512</ele>
        <time>2020-05-24T16:12:53.000Z</time>
      </trkpt>
      <trkpt lat="46.96225" lon="6.0092">
        <ele>512</ele>
        <time>2020-05-24T16:12:55.000Z</time>
      </trkpt>
      <trkpt lat="46.96225" lon="6.00917">
        <ele>512</ele>
        <time>2020-05-24T16:12:57.000Z</time>
      </trkpt>
      <trkpt lat="46.96224" lon="6.00913">
        <ele>512</ele>
        <time>2020-05-24T16:13:00.000Z</time>
      </trkpt>
      <trkpt lat="46.96223" lon="6.00911">
        <ele>513</ele>
        <time>2020-05-24T16:13:07.000Z</time>
      </trkpt>
      <trkpt lat="46.96222" lon="6.00909">
        <ele>513</ele>
        <time>2020-05-24T16:13:09.000Z</time>
      </trkpt>
      <trkpt lat="46.96221" lon="6.00906">
        <ele>513</ele>
        <time>2020-05-24T16:13:11.000Z</time>
      </trkpt>
      <trkpt lat="46.96221" lon="6.00903">
        <ele>513</ele>
        <time>2020-05-24T16:13:13.000Z</time>
      </trkpt>
      <trkpt lat="46.96222" lon="6.009">
        <ele>513</ele>
        <time>2020-05-24T16:13:15.000Z</time>
      </trkpt>
      <trkpt lat="46.96222" lon="6.00896">
        <ele>513</ele>
        <time>2020-05-24T16:13:17.000Z</time>
      </trkpt>
      <trkpt lat="46.96222" lon="6.00893">
        <ele>514</ele>
        <time>2020-05-24T16:13:19.000Z</time>
      </trkpt>
      <trkpt lat="46.96222" lon="6.0089">
        <ele>514</ele>
        <time>2020-05-24T16:13:21.000Z</time>
      </trkpt>
      <trkpt lat="46.96222" lon="6.00887">
        <ele>514</ele>
        <time>2020-05-24T16:13:23.000Z</time>
      </trkpt>
      <trkpt lat="46.96223" lon="6.00883">
        <ele>514</ele>
        <time>2020-05-24T16:13:26.000Z</time>
      </trkpt>
      <trkpt lat="46.96223" lon="6.0088">
        <ele>514</ele>
        <time>2020-05-24T16:13:28.000Z</time>
      </trkpt>
      <trkpt lat="46.96222" lon="6.00878">
        <ele>514</ele>
        <time>2020-05-24T16:13:30.000Z</time>
      </trkpt>
      <trkpt lat="46.96222" lon="6.00875">
        <ele>514</ele>
        <time>2020-05-24T16:13:32.000Z</time>
      </trkpt>
      <trkpt lat="46.96221" lon="6.00872">
        <ele>514</ele>
        <time>2020-05-24T16:13:35.000Z</time>
      </trkpt>
      <trkpt lat="46.96221" lon="6.0087">
        <ele>514</ele>
        <time>2020-05-24T16:13:39.000Z</time>
      </trkpt>
      <trkpt lat="46.96222" lon="6.00867">
        <ele>514</ele>
        <time>2020-05-24T16:13:42.000Z</time>
      </trkpt>
      <trkpt lat="46.96222" lon="6.00864">
        <ele>514</ele>
        <time>2020-05-24T16:13:45.000Z</time>
      </trkpt>
      <trkpt lat="46.96222" lon="6.00861">
        <ele>514</ele>
        <time>2020-05-24T16:13:48.000Z</time>
      </trkpt>
      <trkpt lat="46.96223" lon="6.00857">
        <ele>514</ele>
        <time>2020-05-24T16:13:51.000Z</time>
      </trkpt>
      <trkpt lat="46.96223" lon="6.00855">
        <ele>514</ele>
        <time>2020-05-24T16:13:53.000Z</time>
      </trkpt>
      <trkpt lat="46.96223" lon="6.00851">
        <ele>514</ele>
        <time>2020-05-24T16:13:56.000Z</time>
      </trkpt>
      <trkpt lat="46.96223" lon="6.00847">
        <ele>514</ele>
        <time>2020-05-24T16:13:59.000Z</time>
      </trkpt>
      <trkpt lat="46.96222" lon="6.00845">
        <ele>514</ele>
        <time>2020-05-24T16:14:01.000Z</time>
      </trkpt>
      <trkpt lat="46.96222" lon="6.00841">
        <ele>514</ele>
        <time>2020-05-24T16:14:04.000Z</time>
      </trkpt>
      <trkpt lat="46.96222" lon="6.00838">
        <ele>514</ele>
        <time>2020-05-24T16:14:07.000Z</time>
      </trkpt>
      <trkpt lat="46.96222" lon="6.00835">
        <ele>515</ele>
        <time>2020-05-24T16:14:10.000Z</time>
      </trkpt>
      <trkpt lat="46.96222" lon="6.00832">
        <ele>516</ele>
        <time>2020-05-24T16:14:13.000Z</time>
      </trkpt>
      <trkpt lat="46.96222" lon="6.00829">
        <ele>516</ele>
        <time>2020-05-24T16:14:16.000Z</time>
      </trkpt>
      <trkpt lat="46.96224" lon="6.00831">
        <ele>516</ele>
        <time>2020-05-24T16:14:23.000Z</time>
      </trkpt>
      <trkpt lat="46.96225" lon="6.00832">
        <ele>515</ele>
        <time>2020-05-24T16:14:25.000Z</time>
      </trkpt>
      <trkpt lat="46.96227" lon="6.00832">
        <ele>515</ele>
        <time>2020-05-24T16:14:27.000Z</time>
      </trkpt>
      <trkpt lat="46.9623" lon="6.00831">
        <ele>515.80952477702</ele>
        <time>2020-05-24T16:14:30.000Z</time>
      </trkpt>
      <trkpt lat="46.96232" lon="6.00831">
        <ele>516</ele>
        <time>2020-05-24T16:14:32.000Z</time>
      </trkpt>
      <trkpt lat="46.96233" lon="6.00828">
        <ele>516</ele>
        <time>2020-05-24T16:14:34.000Z</time>
      </trkpt>
      <trkpt lat="46.96233" lon="6.00823">
        <ele>516</ele>
        <time>2020-05-24T16:14:35.000Z</time>
      </trkpt>
      <trkpt lat="46.96233" lon="6.00819">
        <ele>516</ele>
        <time>2020-05-24T16:14:36.000Z</time>
      </trkpt>
      <trkpt lat="46.96231" lon="6.00815">
        <ele>516</ele>
        <time>2020-05-24T16:14:37.000Z</time>
      </trkpt>
      <trkpt lat="46.9623" lon="6.00811">
        <ele>516</ele>
        <time>2020-05-24T16:14:38.000Z</time>
      </trkpt>
      <trkpt lat="46.96229" lon="6.00807">
        <ele>516.14678942177</ele>
        <time>2020-05-24T16:14:39.000Z</time>
      </trkpt>
      <trkpt lat="46.96229" lon="6.00803">
        <ele>517</ele>
        <time>2020-05-24T16:14:40.000Z</time>
      </trkpt>
      <trkpt lat="46.96228" lon="6.008">
        <ele>517</ele>
        <time>2020-05-24T16:14:41.000Z</time>
      </trkpt>
      <trkpt lat="46.96228" lon="6.00796">
        <ele>517</ele>
        <time>2020-05-24T16:14:42.000Z</time>
      </trkpt>
      <trkpt lat="46.96228" lon="6.00793">
        <ele>517.1111132181</ele>
        <time>2020-05-24T16:14:43.000Z</time>
      </trkpt>
      <trkpt lat="46.96228" lon="6.0079">
        <ele>517.85185220302</ele>
        <time>2020-05-24T16:14:44.000Z</time>
      </trkpt>
      <trkpt lat="46.96228" lon="6.00786">
        <ele>518</ele>
        <time>2020-05-24T16:14:45.000Z</time>
      </trkpt>
      <trkpt lat="46.96228" lon="6.00782">
        <ele>518.08510580354</ele>
        <time>2020-05-24T16:14:46.000Z</time>
      </trkpt>
      <trkpt lat="46.96228" lon="6.00778">
        <ele>519</ele>
        <time>2020-05-24T16:14:47.000Z</time>
      </trkpt>
      <trkpt lat="46.96228" lon="6.00775">
        <ele>519</ele>
        <time>2020-05-24T16:14:48.000Z</time>
      </trkpt>
      <trkpt lat="46.96227" lon="6.00773">
        <ele>519</ele>
        <time>2020-05-24T16:14:49.000Z</time>
      </trkpt>
      <trkpt lat="46.96227" lon="6.0077">
        <ele>519</ele>
        <time>2020-05-24T16:14:50.000Z</time>
      </trkpt>
      <trkpt lat="46.96227" lon="6.00766">
        <ele>519.8467173062</ele>
        <time>2020-05-24T16:14:52.000Z</time>
      </trkpt>
      <trkpt lat="46.96228" lon="6.00764">
        <ele>520</ele>
        <time>2020-05-24T16:14:54.000Z</time>
      </trkpt>
      <trkpt lat="46.96228" lon="6.00761">
        <ele>520</ele>
        <time>2020-05-24T16:14:59.000Z</time>
      </trkpt>
      <trkpt lat="46.96227" lon="6.00758">
        <ele>520</ele>
        <time>2020-05-24T16:15:02.000Z</time>
      </trkpt>
      <trkpt lat="46.96227" lon="6.00761">
        <ele>520</ele>
        <time>2020-05-24T16:15:11.000Z</time>
      </trkpt>
      <trkpt lat="46.96226" lon="6.00765">
        <ele>519.85714285714</ele>
        <time>2020-05-24T16:15:14.000Z</time>
      </trkpt>
      <trkpt lat="46.96226" lon="6.00768">
        <ele>519</ele>
        <time>2020-05-24T16:15:42.000Z</time>
      </trkpt>
      <trkpt lat="46.96226" lon="6.00771">
        <ele>518</ele>
        <time>2020-05-24T16:15:44.000Z</time>
      </trkpt>
      <trkpt lat="46.96227" lon="6.00774">
        <ele>518</ele>
        <time>2020-05-24T16:15:46.000Z</time>
      </trkpt>
      <trkpt lat="46.96226" lon="6.00778">
        <ele>518</ele>
        <time>2020-05-24T16:15:48.000Z</time>
      </trkpt>
      <trkpt lat="46.96224" lon="6.00781">
        <ele>519</ele>
        <time>2020-05-24T16:15:50.000Z</time>
      </trkpt>
      <trkpt lat="46.96223" lon="6.00785">
        <ele>519</ele>
        <time>2020-05-24T16:15:52.000Z</time>
      </trkpt>
      <trkpt lat="46.96221" lon="6.00788">
        <ele>518.8415836565</ele>
        <time>2020-05-24T16:15:54.000Z</time>
      </trkpt>
      <trkpt lat="46.9622" lon="6.0079">
        <ele>518</ele>
        <time>2020-05-24T16:15:55.000Z</time>
      </trkpt>
      <trkpt lat="46.96218" lon="6.00794">
        <ele>518</ele>
        <time>2020-05-24T16:15:57.000Z</time>
      </trkpt>
      <trkpt lat="46.96217" lon="6.00797">
        <ele>517.84</ele>
        <time>2020-05-24T16:15:59.000Z</time>
      </trkpt>
      <trkpt lat="46.96216" lon="6.008">
        <ele>517</ele>
        <time>2020-05-24T16:16:01.000Z</time>
      </trkpt>
      <trkpt lat="46.96214" lon="6.00803">
        <ele>517</ele>
        <time>2020-05-24T16:16:03.000Z</time>
      </trkpt>
      <trkpt lat="46.96212" lon="6.00806">
        <ele>517</ele>
        <time>2020-05-24T16:16:05.000Z</time>
      </trkpt>
      <trkpt lat="46.96213" lon="6.0081">
        <ele>517</ele>
        <time>2020-05-24T16:16:07.000Z</time>
      </trkpt>
      <trkpt lat="46.96213" lon="6.00812">
        <ele>516</ele>
        <time>2020-05-24T16:16:09.000Z</time>
      </trkpt>
      <trkpt lat="46.96214" lon="6.00814">
        <ele>516</ele>
        <time>2020-05-24T16:16:12.000Z</time>
      </trkpt>
      <trkpt lat="46.96215" lon="6.00816">
        <ele>516</ele>
        <time>2020-05-24T16:16:17.000Z</time>
      </trkpt>
      <trkpt lat="46.96215" lon="6.00819">
        <ele>516</ele>
        <time>2020-05-24T16:16:20.000Z</time>
      </trkpt>
      <trkpt lat="46.96215" lon="6.00821">
        <ele>516</ele>
        <time>2020-05-24T16:16:24.000Z</time>
      </trkpt>
      <trkpt lat="46.96215" lon="6.00824">
        <ele>516</ele>
        <time>2020-05-24T16:16:29.000Z</time>
      </trkpt>
      <trkpt lat="46.96216" lon="6.00827">
        <ele>516</ele>
        <time>2020-05-24T16:16:37.000Z</time>
      </trkpt>
      <trkpt lat="46.96215" lon="6.0083">
        <ele>516</ele>
        <time>2020-05-24T16:16:41.000Z</time>
      </trkpt>
      <trkpt lat="46.96215" lon="6.00834">
        <ele>516</ele>
        <time>2020-05-24T16:16:43.000Z</time>
      </trkpt>
      <trkpt lat="46.96214" lon="6.00838">
        <ele>515.93277329002</ele>
        <time>2020-05-24T16:16:45.000Z</time>
      </trkpt>
      <trkpt lat="46.96214" lon="6.00843">
        <ele>514</ele>
        <time>2020-05-24T16:16:47.000Z</time>
      </trkpt>
      <trkpt lat="46.96215" lon="6.00847">
        <ele>514</ele>
        <time>2020-05-24T16:16:49.000Z</time>
      </trkpt>
      <trkpt lat="46.96215" lon="6.00851">
        <ele>513.84761858322</ele>
        <time>2020-05-24T16:16:51.000Z</time>
      </trkpt>
      <trkpt lat="46.96216" lon="6.00855">
        <ele>513</ele>
        <time>2020-05-24T16:16:53.000Z</time>
      </trkpt>
      <trkpt lat="46.96216" lon="6.00859">
        <ele>513</ele>
        <time>2020-05-24T16:16:55.000Z</time>
      </trkpt>
      <trkpt lat="46.96216" lon="6.00863">
        <ele>513</ele>
        <time>2020-05-24T16:16:57.000Z</time>
      </trkpt>
      <trkpt lat="46.96216" lon="6.00867">
        <ele>513</ele>
        <time>2020-05-24T16:16:59.000Z</time>
      </trkpt>
      <trkpt lat="46.96216" lon="6.0087">
        <ele>513</ele>
        <time>2020-05-24T16:17:01.000Z</time>
      </trkpt>
      <trkpt lat="46.96215" lon="6.00874">
        <ele>513</ele>
        <time>2020-05-24T16:17:05.000Z</time>
      </trkpt>
      <trkpt lat="46.96215" lon="6.00877">
        <ele>512</ele>
        <time>2020-05-24T16:17:08.000Z</time>
      </trkpt>
      <trkpt lat="46.96217" lon="6.0088">
        <ele>512</ele>
        <time>2020-05-24T16:17:17.000Z</time>
      </trkpt>
      <trkpt lat="46.96217" lon="6.00884">
        <ele>512</ele>
        <time>2020-05-24T16:17:20.000Z</time>
      </trkpt>
      <trkpt lat="46.96217" lon="6.00887">
        <ele>512</ele>
        <time>2020-05-24T16:17:22.000Z</time>
      </trkpt>
      <trkpt lat="46.96217" lon="6.00891">
        <ele>512</ele>
        <time>2020-05-24T16:17:24.000Z</time>
      </trkpt>
      <trkpt lat="46.96217" lon="6.00895">
        <ele>511.84</ele>
        <time>2020-05-24T16:17:26.000Z</time>
      </trkpt>
      <trkpt lat="46.96217" lon="6.00898">
        <ele>511</ele>
        <time>2020-05-24T16:17:28.000Z</time>
      </trkpt>
      <trkpt lat="46.96217" lon="6.00901">
        <ele>511</ele>
        <time>2020-05-24T16:17:30.000Z</time>
      </trkpt>
      <trkpt lat="46.96218" lon="6.00904">
        <ele>511</ele>
        <time>2020-05-24T16:17:32.000Z</time>
      </trkpt>
      <trkpt lat="46.96218" lon="6.00907">
        <ele>511</ele>
        <time>2020-05-24T16:17:34.000Z</time>
      </trkpt>
      <trkpt lat="46.96218" lon="6.00911">
        <ele>511</ele>
        <time>2020-05-24T16:17:36.000Z</time>
      </trkpt>
      <trkpt lat="46.96218" lon="6.00915">
        <ele>511</ele>
        <time>2020-05-24T16:17:38.000Z</time>
      </trkpt>
      <trkpt lat="46.96217" lon="6.00919">
        <ele>511</ele>
        <time>2020-05-24T16:17:40.000Z</time>
      </trkpt>
      <trkpt lat="46.96218" lon="6.00923">
        <ele>511</ele>
        <time>2020-05-24T16:17:42.000Z</time>
      </trkpt>
      <trkpt lat="46.96218" lon="6.00926">
        <ele>511</ele>
        <time>2020-05-24T16:17:44.000Z</time>
      </trkpt>
      <trkpt lat="46.96218" lon="6.0093">
        <ele>511</ele>
        <time>2020-05-24T16:17:46.000Z</time>
      </trkpt>
      <trkpt lat="46.96218" lon="6.00934">
        <ele>511</ele>
        <time>2020-05-24T16:17:48.000Z</time>
      </trkpt>
      <trkpt lat="46.96219" lon="6.00938">
        <ele>511</ele>
        <time>2020-05-24T16:17:50.000Z</time>
      </trkpt>
      <trkpt lat="46.9622" lon="6.00941">
        <ele>511</ele>
        <time>2020-05-24T16:17:52.000Z</time>
      </trkpt>
      <trkpt lat="46.96221" lon="6.00945">
        <ele>511</ele>
        <time>2020-05-24T16:17:54.000Z</time>
      </trkpt>
      <trkpt lat="46.96221" lon="6.00949">
        <ele>510.71681335735</ele>
        <time>2020-05-24T16:17:56.000Z</time>
      </trkpt>
      <trkpt lat="46.96221" lon="6.00953">
        <ele>508.16</ele>
        <time>2020-05-24T16:17:58.000Z</time>
      </trkpt>
      <trkpt lat="46.96221" lon="6.00955">
        <ele>509</ele>
        <time>2020-05-24T16:17:59.000Z</time>
      </trkpt>
      <trkpt lat="46.96222" lon="6.00959">
        <ele>509</ele>
        <time>2020-05-24T16:18:01.000Z</time>
      </trkpt>
      <trkpt lat="46.96223" lon="6.00962">
        <ele>509</ele>
        <time>2020-05-24T16:18:03.000Z</time>
      </trkpt>
      <trkpt lat="46.96223" lon="6.00966">
        <ele>508.8415836565</ele>
        <time>2020-05-24T16:18:05.000Z</time>
      </trkpt>
      <trkpt lat="46.96223" lon="6.00969">
        <ele>508</ele>
        <time>2020-05-24T16:18:07.000Z</time>
      </trkpt>
      <trkpt lat="46.96223" lon="6.00972">
        <ele>508</ele>
        <time>2020-05-24T16:18:09.000Z</time>
      </trkpt>
      <trkpt lat="46.96223" lon="6.00975">
        <ele>508</ele>
        <time>2020-05-24T16:18:11.000Z</time>
      </trkpt>
      <trkpt lat="46.96224" lon="6.00979">
        <ele>508</ele>
        <time>2020-05-24T16:18:13.000Z</time>
      </trkpt>
      <trkpt lat="46.96224" lon="6.00983">
        <ele>507.96551369006</ele>
        <time>2020-05-24T16:18:15.000Z</time>
      </trkpt>
      <trkpt lat="46.96225" lon="6.00985">
        <ele>508</ele>
        <time>2020-05-24T16:18:19.000Z</time>
      </trkpt>
      <trkpt lat="46.96226" lon="6.00984">
        <ele>508</ele>
        <time>2020-05-24T16:18:31.000Z</time>
      </trkpt>
      <trkpt lat="46.96226" lon="6.00987">
        <ele>508</ele>
        <time>2020-05-24T16:18:38.000Z</time>
      </trkpt>
      <trkpt lat="46.96226" lon="6.0099">
        <ele>508</ele>
        <time>2020-05-24T16:18:40.000Z</time>
      </trkpt>
      <trkpt lat="46.96227" lon="6.00994">
        <ele>508</ele>
        <time>2020-05-24T16:18:42.000Z</time>
      </trkpt>
      <trkpt lat="46.96227" lon="6.00998">
        <ele>508</ele>
        <time>2020-05-24T16:18:44.000Z</time>
      </trkpt>
      <trkpt lat="46.96227" lon="6.01002">
        <ele>507</ele>
        <time>2020-05-24T16:18:46.000Z</time>
      </trkpt>
      <trkpt lat="46.96228" lon="6.01006">
        <ele>507</ele>
        <time>2020-05-24T16:18:48.000Z</time>
      </trkpt>
      <trkpt lat="46.96228" lon="6.01009">
        <ele>507</ele>
        <time>2020-05-24T16:18:50.000Z</time>
      </trkpt>
      <trkpt lat="46.96228" lon="6.01013">
        <ele>507</ele>
        <time>2020-05-24T16:18:52.000Z</time>
      </trkpt>
      <trkpt lat="46.96228" lon="6.01016">
        <ele>507</ele>
        <time>2020-05-24T16:18:54.000Z</time>
      </trkpt>
      <trkpt lat="46.96228" lon="6.01019">
        <ele>506.92472851893</ele>
        <time>2020-05-24T16:18:56.000Z</time>
      </trkpt>
      <trkpt lat="46.96229" lon="6.01023">
        <ele>506</ele>
        <time>2020-05-24T16:18:58.000Z</time>
      </trkpt>
      <trkpt lat="46.96229" lon="6.01027">
        <ele>507</ele>
        <time>2020-05-24T16:19:00.000Z</time>
      </trkpt>
      <trkpt lat="46.96229" lon="6.01031">
        <ele>507</ele>
        <time>2020-05-24T16:19:02.000Z</time>
      </trkpt>
      <trkpt lat="46.96228" lon="6.01034">
        <ele>506</ele>
        <time>2020-05-24T16:19:04.000Z</time>
      </trkpt>
      <trkpt lat="46.96228" lon="6.01037">
        <ele>506</ele>
        <time>2020-05-24T16:19:06.000Z</time>
      </trkpt>
      <trkpt lat="46.96228" lon="6.01041">
        <ele>506</ele>
        <time>2020-05-24T16:19:08.000Z</time>
      </trkpt>
      <trkpt lat="46.96228" lon="6.01045">
        <ele>506</ele>
        <time>2020-05-24T16:19:11.000Z</time>
      </trkpt>
      <trkpt lat="46.96228" lon="6.01048">
        <ele>505</ele>
        <time>2020-05-24T16:19:13.000Z</time>
      </trkpt>
      <trkpt lat="46.96228" lon="6.01052">
        <ele>505</ele>
        <time>2020-05-24T16:19:15.000Z</time>
      </trkpt>
      <trkpt lat="46.96229" lon="6.01056">
        <ele>504</ele>
        <time>2020-05-24T16:19:17.000Z</time>
      </trkpt>
      <trkpt lat="46.9623" lon="6.0106">
        <ele>504</ele>
        <time>2020-05-24T16:19:19.000Z</time>
      </trkpt>
      <trkpt lat="46.96231" lon="6.01063">
        <ele>504</ele>
        <time>2020-05-24T16:19:21.000Z</time>
      </trkpt>
      <trkpt lat="46.96232" lon="6.01067">
        <ele>504</ele>
        <time>2020-05-24T16:19:23.000Z</time>
      </trkpt>
      <trkpt lat="46.96233" lon="6.01071">
        <ele>504</ele>
        <time>2020-05-24T16:19:25.000Z</time>
      </trkpt>
      <trkpt lat="46.96234" lon="6.01075">
        <ele>503</ele>
        <time>2020-05-24T16:19:27.000Z</time>
      </trkpt>
      <trkpt lat="46.96235" lon="6.01078">
        <ele>503</ele>
        <time>2020-05-24T16:19:29.000Z</time>
      </trkpt>
      <trkpt lat="46.96237" lon="6.01082">
        <ele>503</ele>
        <time>2020-05-24T16:19:31.000Z</time>
      </trkpt>
      <trkpt lat="46.96238" lon="6.01085">
        <ele>503</ele>
        <time>2020-05-24T16:19:33.000Z</time>
      </trkpt>
      <trkpt lat="46.96239" lon="6.01089">
        <ele>503</ele>
        <time>2020-05-24T16:19:35.000Z</time>
      </trkpt>
      <trkpt lat="46.96239" lon="6.01092">
        <ele>502.09523761149</ele>
        <time>2020-05-24T16:19:37.000Z</time>
      </trkpt>
      <trkpt lat="46.9624" lon="6.01096">
        <ele>501</ele>
        <time>2020-05-24T16:19:39.000Z</time>
      </trkpt>
      <trkpt lat="46.96239" lon="6.01099">
        <ele>501</ele>
        <time>2020-05-24T16:19:41.000Z</time>
      </trkpt>
      <trkpt lat="46.96239" lon="6.01103">
        <ele>501</ele>
        <time>2020-05-24T16:19:43.000Z</time>
      </trkpt>
      <trkpt lat="46.96239" lon="6.01106">
        <ele>500.84848210592</ele>
        <time>2020-05-24T16:19:45.000Z</time>
      </trkpt>
      <trkpt lat="46.9624" lon="6.01109">
        <ele>500</ele>
        <time>2020-05-24T16:19:48.000Z</time>
      </trkpt>
      <trkpt lat="46.96239" lon="6.01113">
        <ele>499.93477655963</ele>
        <time>2020-05-24T16:19:50.000Z</time>
      </trkpt>
      <trkpt lat="46.96239" lon="6.01117">
        <ele>499</ele>
        <time>2020-05-24T16:19:52.000Z</time>
      </trkpt>
      <trkpt lat="46.96239" lon="6.01121">
        <ele>499</ele>
        <time>2020-05-24T16:19:54.000Z</time>
      </trkpt>
      <trkpt lat="46.96239" lon="6.01125">
        <ele>499</ele>
        <time>2020-05-24T16:19:56.000Z</time>
      </trkpt>
      <trkpt lat="46.96238" lon="6.01129">
        <ele>498.95454545454</ele>
        <time>2020-05-24T16:19:58.000Z</time>
      </trkpt>
      <trkpt lat="46.96238" lon="6.01132">
        <ele>497.84</ele>
        <time>2020-05-24T16:19:59.000Z</time>
      </trkpt>
      <trkpt lat="46.96237" lon="6.01137">
        <ele>497</ele>
        <time>2020-05-24T16:20:01.000Z</time>
      </trkpt>
      <trkpt lat="46.96237" lon="6.01141">
        <ele>497</ele>
        <time>2020-05-24T16:20:03.000Z</time>
      </trkpt>
      <trkpt lat="46.96237" lon="6.01144">
        <ele>497</ele>
        <time>2020-05-24T16:20:05.000Z</time>
      </trkpt>
      <trkpt lat="46.96238" lon="6.01148">
        <ele>497</ele>
        <time>2020-05-24T16:20:07.000Z</time>
      </trkpt>
      <trkpt lat="46.96238" lon="6.01152">
        <ele>497</ele>
        <time>2020-05-24T16:20:09.000Z</time>
      </trkpt>
      <trkpt lat="46.96238" lon="6.01157">
        <ele>497</ele>
        <time>2020-05-24T16:20:11.000Z</time>
      </trkpt>
      <trkpt lat="46.96239" lon="6.01161">
        <ele>496</ele>
        <time>2020-05-24T16:20:13.000Z</time>
      </trkpt>
      <trkpt lat="46.9624" lon="6.01164">
        <ele>496</ele>
        <time>2020-05-24T16:20:15.000Z</time>
      </trkpt>
      <trkpt lat="46.96241" lon="6.01168">
        <ele>496</ele>
        <time>2020-05-24T16:20:17.000Z</time>
      </trkpt>
      <trkpt lat="46.96243" lon="6.01171">
        <ele>496</ele>
        <time>2020-05-24T16:20:19.000Z</time>
      </trkpt>
      <trkpt lat="46.96245" lon="6.01175">
        <ele>496</ele>
        <time>2020-05-24T16:20:21.000Z</time>
      </trkpt>
      <trkpt lat="46.96247" lon="6.01178">
        <ele>495</ele>
        <time>2020-05-24T16:20:23.000Z</time>
      </trkpt>
      <trkpt lat="46.96251" lon="6.0119">
        <ele>495</ele>
        <time>2020-05-24T16:20:28.000Z</time>
      </trkpt>
      <trkpt lat="46.96256" lon="6.012">
        <ele>494</ele>
        <time>2020-05-24T16:20:33.000Z</time>
      </trkpt>
      <trkpt lat="46.96258" lon="6.01203">
        <ele>494</ele>
        <time>2020-05-24T16:20:35.000Z</time>
      </trkpt>
      <trkpt lat="46.9626" lon="6.01206">
        <ele>494</ele>
        <time>2020-05-24T16:20:37.000Z</time>
      </trkpt>
      <trkpt lat="46.96262" lon="6.01209">
        <ele>494</ele>
        <time>2020-05-24T16:20:39.000Z</time>
      </trkpt>
      <trkpt lat="46.96264" lon="6.01212">
        <ele>494</ele>
        <time>2020-05-24T16:20:41.000Z</time>
      </trkpt>
      <trkpt lat="46.96266" lon="6.01214">
        <ele>494</ele>
        <time>2020-05-24T16:20:43.000Z</time>
      </trkpt>
      <trkpt lat="46.96267" lon="6.01216">
        <ele>493.91489303757</ele>
        <time>2020-05-24T16:20:45.000Z</time>
      </trkpt>
      <trkpt lat="46.96269" lon="6.01218">
        <ele>493</ele>
        <time>2020-05-24T16:20:47.000Z</time>
      </trkpt>
      <trkpt lat="46.9627" lon="6.01221">
        <ele>493</ele>
        <time>2020-05-24T16:20:49.000Z</time>
      </trkpt>
      <trkpt lat="46.96272" lon="6.01223">
        <ele>493</ele>
        <time>2020-05-24T16:20:51.000Z</time>
      </trkpt>
      <trkpt lat="46.96274" lon="6.01225">
        <ele>493</ele>
        <time>2020-05-24T16:20:53.000Z</time>
      </trkpt>
      <trkpt lat="46.96275" lon="6.01228">
        <ele>493</ele>
        <time>2020-05-24T16:20:55.000Z</time>
      </trkpt>
      <trkpt lat="46.96275" lon="6.01231">
        <ele>493</ele>
        <time>2020-05-24T16:20:57.000Z</time>
      </trkpt>
      <trkpt lat="46.96275" lon="6.01234">
        <ele>493</ele>
        <time>2020-05-24T16:20:59.000Z</time>
      </trkpt>
      <trkpt lat="46.96276" lon="6.01238">
        <ele>493</ele>
        <time>2020-05-24T16:21:03.000Z</time>
      </trkpt>
      <trkpt lat="46.96278" lon="6.0124">
        <ele>493</ele>
        <time>2020-05-24T16:21:06.000Z</time>
      </trkpt>
      <trkpt lat="46.9628" lon="6.01242">
        <ele>493</ele>
        <time>2020-05-24T16:21:09.000Z</time>
      </trkpt>
      <trkpt lat="46.96286" lon="6.01253">
        <ele>493</ele>
        <time>2020-05-24T16:21:18.000Z</time>
      </trkpt>
      <trkpt lat="46.96289" lon="6.01254">
        <ele>493</ele>
        <time>2020-05-24T16:21:20.000Z</time>
      </trkpt>
      <trkpt lat="46.96297" lon="6.01258">
        <ele>493</ele>
        <time>2020-05-24T16:21:27.000Z</time>
      </trkpt>
      <trkpt lat="46.96299" lon="6.01259">
        <ele>492.88489235133</ele>
        <time>2020-05-24T16:21:30.000Z</time>
      </trkpt>
      <trkpt lat="46.96302" lon="6.01259">
        <ele>492</ele>
        <time>2020-05-24T16:21:32.000Z</time>
      </trkpt>
      <trkpt lat="46.96304" lon="6.01258">
        <ele>492</ele>
        <time>2020-05-24T16:21:34.000Z</time>
      </trkpt>
      <trkpt lat="46.96301" lon="6.01258">
        <ele>492</ele>
        <time>2020-05-24T16:21:48.000Z</time>
      </trkpt>
      <trkpt lat="46.96299" lon="6.01258">
        <ele>492</ele>
        <time>2020-05-24T16:21:50.000Z</time>
      </trkpt>
      <trkpt lat="46.96298" lon="6.01261">
        <ele>492</ele>
        <time>2020-05-24T16:21:54.000Z</time>
      </trkpt>
      <trkpt lat="46.963" lon="6.01263">
        <ele>492</ele>
        <time>2020-05-24T16:21:57.000Z</time>
      </trkpt>
      <trkpt lat="46.96302" lon="6.01264">
        <ele>492</ele>
        <time>2020-05-24T16:22:00.000Z</time>
      </trkpt>
      <trkpt lat="46.96305" lon="6.01265">
        <ele>492.06521134207</ele>
        <time>2020-05-24T16:22:03.000Z</time>
      </trkpt>
      <trkpt lat="46.96307" lon="6.01267">
        <ele>493</ele>
        <time>2020-05-24T16:22:05.000Z</time>
      </trkpt>
      <trkpt lat="46.96309" lon="6.01268">
        <ele>493</ele>
        <time>2020-05-24T16:22:07.000Z</time>
      </trkpt>
      <trkpt lat="46.96311" lon="6.01269">
        <ele>493</ele>
        <time>2020-05-24T16:22:09.000Z</time>
      </trkpt>
      <trkpt lat="46.96314" lon="6.01269">
        <ele>493</ele>
        <time>2020-05-24T16:22:11.000Z</time>
      </trkpt>
      <trkpt lat="46.96316" lon="6.01268">
        <ele>493</ele>
        <time>2020-05-24T16:22:14.000Z</time>
      </trkpt>
      <trkpt lat="46.96318" lon="6.01269">
        <ele>493</ele>
        <time>2020-05-24T16:22:18.000Z</time>
      </trkpt>
      <trkpt lat="46.9632" lon="6.01271">
        <ele>493</ele>
        <time>2020-05-24T16:22:23.000Z</time>
      </trkpt>
      <trkpt lat="46.96321" lon="6.0127">
        <ele>493</ele>
        <time>2020-05-24T16:22:28.000Z</time>
      </trkpt>
      <trkpt lat="46.96323" lon="6.01269">
        <ele>493</ele>
        <time>2020-05-24T16:22:34.000Z</time>
      </trkpt>
      <trkpt lat="46.96325" lon="6.0127">
        <ele>493</ele>
        <time>2020-05-24T16:22:37.000Z</time>
      </trkpt>
      <trkpt lat="46.96328" lon="6.01271">
        <ele>493</ele>
        <time>2020-05-24T16:22:40.000Z</time>
      </trkpt>
      <trkpt lat="46.9633" lon="6.01268">
        <ele>494</ele>
        <time>2020-05-24T16:22:47.000Z</time>
      </trkpt>
      <trkpt lat="46.96333" lon="6.01269">
        <ele>493</ele>
        <time>2020-05-24T16:22:58.000Z</time>
      </trkpt>
      <trkpt lat="46.96336" lon="6.01272">
        <ele>493</ele>
        <time>2020-05-24T16:23:08.000Z</time>
      </trkpt>
      <trkpt lat="46.96335" lon="6.01274">
        <ele>493</ele>
        <time>2020-05-24T16:23:32.000Z</time>
      </trkpt>
      <trkpt lat="46.96336" lon="6.01276">
        <ele>493</ele>
        <time>2020-05-24T16:23:38.000Z</time>
      </trkpt>
      <trkpt lat="46.96334" lon="6.0128">
        <ele>493</ele>
        <time>2020-05-24T16:23:41.000Z</time>
      </trkpt>
      <trkpt lat="46.96333" lon="6.01281">
        <ele>493</ele>
        <time>2020-05-24T16:23:43.000Z</time>
      </trkpt>
      <trkpt lat="46.96331" lon="6.01283">
        <ele>493</ele>
        <time>2020-05-24T16:23:45.000Z</time>
      </trkpt>
      <trkpt lat="46.96332" lon="6.0128">
        <ele>493</ele>
        <time>2020-05-24T16:23:51.000Z</time>
      </trkpt>
      <trkpt lat="46.96334" lon="6.01278">
        <ele>493</ele>
        <time>2020-05-24T16:23:54.000Z</time>
      </trkpt>
      <trkpt lat="46.96334" lon="6.01282">
        <ele>493</ele>
        <time>2020-05-24T16:24:10.000Z</time>
      </trkpt>
      <trkpt lat="46.96333" lon="6.01285">
        <ele>494</ele>
        <time>2020-05-24T16:24:12.000Z</time>
      </trkpt>
      <trkpt lat="46.96333" lon="6.01288">
        <ele>494</ele>
        <time>2020-05-24T16:24:14.000Z</time>
      </trkpt>
      <trkpt lat="46.96332" lon="6.01292">
        <ele>494.16</ele>
        <time>2020-05-24T16:24:16.000Z</time>
      </trkpt>
      <trkpt lat="46.96332" lon="6.01295">
        <ele>495</ele>
        <time>2020-05-24T16:24:18.000Z</time>
      </trkpt>
      <trkpt lat="46.96332" lon="6.01299">
        <ele>495</ele>
        <time>2020-05-24T16:24:20.000Z</time>
      </trkpt>
      <trkpt lat="46.96332" lon="6.01302">
        <ele>495</ele>
        <time>2020-05-24T16:24:23.000Z</time>
      </trkpt>
      <trkpt lat="46.96331" lon="6.01305">
        <ele>496</ele>
        <time>2020-05-24T16:24:25.000Z</time>
      </trkpt>
      <trkpt lat="46.96332" lon="6.01308">
        <ele>496</ele>
        <time>2020-05-24T16:24:27.000Z</time>
      </trkpt>
      <trkpt lat="46.96332" lon="6.0131">
        <ele>496</ele>
        <time>2020-05-24T16:24:29.000Z</time>
      </trkpt>
      <trkpt lat="46.96332" lon="6.01314">
        <ele>496</ele>
        <time>2020-05-24T16:24:32.000Z</time>
      </trkpt>
      <trkpt lat="46.96332" lon="6.01316">
        <ele>496</ele>
        <time>2020-05-24T16:24:34.000Z</time>
      </trkpt>
      <trkpt lat="46.96332" lon="6.01319">
        <ele>496</ele>
        <time>2020-05-24T16:24:36.000Z</time>
      </trkpt>
      <trkpt lat="46.96332" lon="6.01322">
        <ele>496</ele>
        <time>2020-05-24T16:24:38.000Z</time>
      </trkpt>
      <trkpt lat="46.96332" lon="6.01325">
        <ele>497</ele>
        <time>2020-05-24T16:24:40.000Z</time>
      </trkpt>
      <trkpt lat="46.96332" lon="6.01328">
        <ele>497</ele>
        <time>2020-05-24T16:24:42.000Z</time>
      </trkpt>
      <trkpt lat="46.96332" lon="6.01331">
        <ele>496.85713725951</ele>
        <time>2020-05-24T16:24:44.000Z</time>
      </trkpt>
      <trkpt lat="46.96333" lon="6.01334">
        <ele>497.05825845978</ele>
        <time>2020-05-24T16:24:46.000Z</time>
      </trkpt>
      <trkpt lat="46.96333" lon="6.01336">
        <ele>498</ele>
        <time>2020-05-24T16:24:48.000Z</time>
      </trkpt>
      <trkpt lat="46.96333" lon="6.01339">
        <ele>498</ele>
        <time>2020-05-24T16:24:50.000Z</time>
      </trkpt>
      <trkpt lat="46.96333" lon="6.01342">
        <ele>498</ele>
        <time>2020-05-24T16:24:52.000Z</time>
      </trkpt>
      <trkpt lat="46.96333" lon="6.01345">
        <ele>498</ele>
        <time>2020-05-24T16:24:54.000Z</time>
      </trkpt>
      <trkpt lat="46.96332" lon="6.01349">
        <ele>499</ele>
        <time>2020-05-24T16:24:57.000Z</time>
      </trkpt>
      <trkpt lat="46.96332" lon="6.01352">
        <ele>499</ele>
        <time>2020-05-24T16:24:59.000Z</time>
      </trkpt>
      <trkpt lat="46.96332" lon="6.01354">
        <ele>499</ele>
        <time>2020-05-24T16:25:01.000Z</time>
      </trkpt>
      <trkpt lat="46.96331" lon="6.01358">
        <ele>499</ele>
        <time>2020-05-24T16:25:04.000Z</time>
      </trkpt>
      <trkpt lat="46.96332" lon="6.01361">
        <ele>499</ele>
        <time>2020-05-24T16:25:07.000Z</time>
      </trkpt>
      <trkpt lat="46.96332" lon="6.01365">
        <ele>500</ele>
        <time>2020-05-24T16:25:10.000Z</time>
      </trkpt>
      <trkpt lat="46.96332" lon="6.01367">
        <ele>500.15238141678</ele>
        <time>2020-05-24T16:25:12.000Z</time>
      </trkpt>
      <trkpt lat="46.96331" lon="6.0137">
        <ele>501</ele>
        <time>2020-05-24T16:25:14.000Z</time>
      </trkpt>
      <trkpt lat="46.96332" lon="6.01373">
        <ele>501.13793103448</ele>
        <time>2020-05-24T16:25:16.000Z</time>
      </trkpt>
      <trkpt lat="46.9633" lon="6.01374">
        <ele>502</ele>
        <time>2020-05-24T16:25:35.000Z</time>
      </trkpt>
      <trkpt lat="46.9633" lon="6.01379">
        <ele>502</ele>
        <time>2020-05-24T16:25:37.000Z</time>
      </trkpt>
      <trkpt lat="46.96329" lon="6.01383">
        <ele>502</ele>
        <time>2020-05-24T16:25:39.000Z</time>
      </trkpt>
      <trkpt lat="46.96329" lon="6.01386">
        <ele>503</ele>
        <time>2020-05-24T16:25:41.000Z</time>
      </trkpt>
      <trkpt lat="46.96329" lon="6.01389">
        <ele>504</ele>
        <time>2020-05-24T16:25:43.000Z</time>
      </trkpt>
      <trkpt lat="46.96328" lon="6.01392">
        <ele>503.1619022077</ele>
        <time>2020-05-24T16:25:45.000Z</time>
      </trkpt>
      <trkpt lat="46.96327" lon="6.01401">
        <ele>504</ele>
        <time>2020-05-24T16:25:51.000Z</time>
      </trkpt>
      <trkpt lat="46.96328" lon="6.01404">
        <ele>505</ele>
        <time>2020-05-24T16:25:54.000Z</time>
      </trkpt>
      <trkpt lat="46.96328" lon="6.01407">
        <ele>505</ele>
        <time>2020-05-24T16:25:56.000Z</time>
      </trkpt>
      <trkpt lat="46.96328" lon="6.0141">
        <ele>505</ele>
        <time>2020-05-24T16:25:58.000Z</time>
      </trkpt>
      <trkpt lat="46.96328" lon="6.01414">
        <ele>505</ele>
        <time>2020-05-24T16:26:00.000Z</time>
      </trkpt>
      <trkpt lat="46.96329" lon="6.01417">
        <ele>505.02727547767</ele>
        <time>2020-05-24T16:26:02.000Z</time>
      </trkpt>
      <trkpt lat="46.96329" lon="6.0142">
        <ele>506</ele>
        <time>2020-05-24T16:26:04.000Z</time>
      </trkpt>
      <trkpt lat="46.96329" lon="6.01422">
        <ele>506</ele>
        <time>2020-05-24T16:26:06.000Z</time>
      </trkpt>
      <trkpt lat="46.96329" lon="6.01426">
        <ele>507</ele>
        <time>2020-05-24T16:26:09.000Z</time>
      </trkpt>
      <trkpt lat="46.96329" lon="6.0143">
        <ele>508</ele>
        <time>2020-05-24T16:26:12.000Z</time>
      </trkpt>
      <trkpt lat="46.96329" lon="6.01433">
        <ele>508</ele>
        <time>2020-05-24T16:26:14.000Z</time>
      </trkpt>
      <trkpt lat="46.9633" lon="6.01436">
        <ele>509</ele>
        <time>2020-05-24T16:26:17.000Z</time>
      </trkpt>
      <trkpt lat="46.96329" lon="6.01439">
        <ele>509</ele>
        <time>2020-05-24T16:26:25.000Z</time>
      </trkpt>
      <trkpt lat="46.96328" lon="6.01442">
        <ele>509</ele>
        <time>2020-05-24T16:26:27.000Z</time>
      </trkpt>
      <trkpt lat="46.96327" lon="6.01446">
        <ele>510</ele>
        <time>2020-05-24T16:26:30.000Z</time>
      </trkpt>
      <trkpt lat="46.96327" lon="6.01448">
        <ele>510</ele>
        <time>2020-05-24T16:26:32.000Z</time>
      </trkpt>
      <trkpt lat="46.96327" lon="6.01451">
        <ele>510.97478729469</ele>
        <time>2020-05-24T16:26:34.000Z</time>
      </trkpt>
      <trkpt lat="46.96327" lon="6.01454">
        <ele>511</ele>
        <time>2020-05-24T16:26:36.000Z</time>
      </trkpt>
      <trkpt lat="46.96327" lon="6.01458">
        <ele>511</ele>
        <time>2020-05-24T16:26:39.000Z</time>
      </trkpt>
      <trkpt lat="46.96327" lon="6.01461">
        <ele>511.09790635434</ele>
        <time>2020-05-24T16:26:42.000Z</time>
      </trkpt>
      <trkpt lat="46.96327" lon="6.01464">
        <ele>512</ele>
        <time>2020-05-24T16:26:45.000Z</time>
      </trkpt>
      <trkpt lat="46.96329" lon="6.01464">
        <ele>512</ele>
        <time>2020-05-24T16:26:52.000Z</time>
      </trkpt>
      <trkpt lat="46.96327" lon="6.01477">
        <ele>513</ele>
        <time>2020-05-24T16:27:01.000Z</time>
      </trkpt>
      <trkpt lat="46.96327" lon="6.0148">
        <ele>513.14159332133</ele>
        <time>2020-05-24T16:27:03.000Z</time>
      </trkpt>
      <trkpt lat="46.96325" lon="6.01493">
        <ele>516</ele>
        <time>2020-05-24T16:27:14.000Z</time>
      </trkpt>
      <trkpt lat="46.96322" lon="6.01503">
        <ele>517</ele>
        <time>2020-05-24T16:27:20.000Z</time>
      </trkpt>
      <trkpt lat="46.96319" lon="6.01512">
        <ele>517.91338352533</ele>
        <time>2020-05-24T16:27:27.000Z</time>
      </trkpt>
      <trkpt lat="46.96319" lon="6.01514">
        <ele>518</ele>
        <time>2020-05-24T16:27:29.000Z</time>
      </trkpt>
      <trkpt lat="46.9632" lon="6.01517">
        <ele>518.10416</ele>
        <time>2020-05-24T16:27:32.000Z</time>
      </trkpt>
      <trkpt lat="46.9632" lon="6.01521">
        <ele>519</ele>
        <time>2020-05-24T16:27:34.000Z</time>
      </trkpt>
      <trkpt lat="46.9632" lon="6.01523">
        <ele>520.0769263229</ele>
        <time>2020-05-24T16:27:38.000Z</time>
      </trkpt>
      <trkpt lat="46.96319" lon="6.01521">
        <ele>521</ele>
        <time>2020-05-24T16:27:41.000Z</time>
      </trkpt>
      <trkpt lat="46.96318" lon="6.01523">
        <ele>521</ele>
        <time>2020-05-24T16:27:54.000Z</time>
      </trkpt>
      <trkpt lat="46.96321" lon="6.01522">
        <ele>521</ele>
        <time>2020-05-24T16:27:56.000Z</time>
      </trkpt>
      <trkpt lat="46.96322" lon="6.0152">
        <ele>521</ele>
        <time>2020-05-24T16:28:04.000Z</time>
      </trkpt>
      <trkpt lat="46.96323" lon="6.01517">
        <ele>521</ele>
        <time>2020-05-24T16:28:08.000Z</time>
      </trkpt>
      <trkpt lat="46.96328" lon="6.01518">
        <ele>521</ele>
        <time>2020-05-24T16:28:12.000Z</time>
      </trkpt>
      <trkpt lat="46.96329" lon="6.01516">
        <ele>521</ele>
        <time>2020-05-24T16:28:22.000Z</time>
      </trkpt>
      <trkpt lat="46.96331" lon="6.01517">
        <ele>521</ele>
        <time>2020-05-24T16:28:35.000Z</time>
      </trkpt>
      <trkpt lat="46.9633" lon="6.0152">
        <ele>521</ele>
        <time>2020-05-24T16:28:37.000Z</time>
      </trkpt>
      <trkpt lat="46.96327" lon="6.01522">
        <ele>522</ele>
        <time>2020-05-24T16:28:39.000Z</time>
      </trkpt>
      <trkpt lat="46.96324" lon="6.01524">
        <ele>523</ele>
        <time>2020-05-24T16:28:41.000Z</time>
      </trkpt>
      <trkpt lat="46.96323" lon="6.01526">
        <ele>523</ele>
        <time>2020-05-24T16:28:42.000Z</time>
      </trkpt>
      <trkpt lat="46.96321" lon="6.01527">
        <ele>523</ele>
        <time>2020-05-24T16:28:44.000Z</time>
      </trkpt>
      <trkpt lat="46.96312" lon="6.01533">
        <ele>524</ele>
        <time>2020-05-24T16:28:50.000Z</time>
      </trkpt>
      <trkpt lat="46.9631" lon="6.01535">
        <ele>525</ele>
        <time>2020-05-24T16:28:52.000Z</time>
      </trkpt>
      <trkpt lat="46.96308" lon="6.01536">
        <ele>525</ele>
        <time>2020-05-24T16:28:54.000Z</time>
      </trkpt>
      <trkpt lat="46.96307" lon="6.01538">
        <ele>525.16</ele>
        <time>2020-05-24T16:28:56.000Z</time>
      </trkpt>
      <trkpt lat="46.96304" lon="6.01543">
        <ele>527</ele>
        <time>2020-05-24T16:29:00.000Z</time>
      </trkpt>
      <trkpt lat="46.963" lon="6.01555">
        <ele>529</ele>
        <time>2020-05-24T16:29:11.000Z</time>
      </trkpt>
      <trkpt lat="46.96308" lon="6.01563">
        <ele>530</ele>
        <time>2020-05-24T16:30:06.000Z</time>
      </trkpt>
      <trkpt lat="46.96317" lon="6.01566">
        <ele>531</ele>
        <time>2020-05-24T16:30:17.000Z</time>
      </trkpt>
      <trkpt lat="46.96325" lon="6.01575">
        <ele>531</ele>
        <time>2020-05-24T16:30:26.000Z</time>
      </trkpt>
      <trkpt lat="46.96335" lon="6.01577">
        <ele>531</ele>
        <time>2020-05-24T16:30:31.000Z</time>
      </trkpt>
      <trkpt lat="46.96344" lon="6.0157">
        <ele>532</ele>
        <time>2020-05-24T16:31:00.000Z</time>
      </trkpt>
      <trkpt lat="46.96353" lon="6.01566">
        <ele>532</ele>
        <time>2020-05-24T16:31:07.000Z</time>
      </trkpt>
      <trkpt lat="46.96361" lon="6.01558">
        <ele>532</ele>
        <time>2020-05-24T16:31:12.000Z</time>
      </trkpt>
      <trkpt lat="46.96363" lon="6.01545">
        <ele>531.875</ele>
        <time>2020-05-24T16:31:19.000Z</time>
      </trkpt>
      <trkpt lat="46.96366" lon="6.01532">
        <ele>531</ele>
        <time>2020-05-24T16:31:26.000Z</time>
      </trkpt>
      <trkpt lat="46.9637" lon="6.0152">
        <ele>531</ele>
        <time>2020-05-24T16:31:34.000Z</time>
      </trkpt>
      <trkpt lat="46.96369" lon="6.01506">
        <ele>530</ele>
        <time>2020-05-24T16:31:41.000Z</time>
      </trkpt>
      <trkpt lat="46.96378" lon="6.015">
        <ele>530</ele>
        <time>2020-05-24T16:31:51.000Z</time>
      </trkpt>
      <trkpt lat="46.96387" lon="6.01502">
        <ele>529.8558562714</ele>
        <time>2020-05-24T16:31:56.000Z</time>
      </trkpt>
      <trkpt lat="46.96395" lon="6.0151">
        <ele>529</ele>
        <time>2020-05-24T16:32:04.000Z</time>
      </trkpt>
      <trkpt lat="46.964" lon="6.01514">
        <ele>529</ele>
        <time>2020-05-24T16:32:09.000Z</time>
      </trkpt>
      <trkpt lat="46.96404" lon="6.01518">
        <ele>528</ele>
        <time>2020-05-24T16:32:12.000Z</time>
      </trkpt>
      <trkpt lat="46.96406" lon="6.0152">
        <ele>528</ele>
        <time>2020-05-24T16:32:14.000Z</time>
      </trkpt>
      <trkpt lat="46.96409" lon="6.01521">
        <ele>528</ele>
        <time>2020-05-24T16:32:16.000Z</time>
      </trkpt>
      <trkpt lat="46.96412" lon="6.01524">
        <ele>528</ele>
        <time>2020-05-24T16:32:18.000Z</time>
      </trkpt>
      <trkpt lat="46.96414" lon="6.01526">
        <ele>527.84</ele>
        <time>2020-05-24T16:32:20.000Z</time>
      </trkpt>
      <trkpt lat="46.96421" lon="6.01536">
        <ele>527</ele>
        <time>2020-05-24T16:32:27.000Z</time>
      </trkpt>
      <trkpt lat="46.96424" lon="6.01538">
        <ele>527</ele>
        <time>2020-05-24T16:32:29.000Z</time>
      </trkpt>
      <trkpt lat="46.96426" lon="6.01538">
        <ele>526.875</ele>
        <time>2020-05-24T16:32:31.000Z</time>
      </trkpt>
      <trkpt lat="46.96429" lon="6.01539">
        <ele>526</ele>
        <time>2020-05-24T16:32:33.000Z</time>
      </trkpt>
      <trkpt lat="46.96431" lon="6.01538">
        <ele>526</ele>
        <time>2020-05-24T16:32:35.000Z</time>
      </trkpt>
      <trkpt lat="46.96434" lon="6.01538">
        <ele>526</ele>
        <time>2020-05-24T16:32:37.000Z</time>
      </trkpt>
      <trkpt lat="46.96436" lon="6.01535">
        <ele>525.84</ele>
        <time>2020-05-24T16:32:39.000Z</time>
      </trkpt>
      <trkpt lat="46.96438" lon="6.01533">
        <ele>525</ele>
        <time>2020-05-24T16:32:41.000Z</time>
      </trkpt>
      <trkpt lat="46.9644" lon="6.01533">
        <ele>525</ele>
        <time>2020-05-24T16:32:43.000Z</time>
      </trkpt>
      <trkpt lat="46.96449" lon="6.01526">
        <ele>526</ele>
        <time>2020-05-24T16:32:51.000Z</time>
      </trkpt>
      <trkpt lat="46.96457" lon="6.01522">
        <ele>525</ele>
        <time>2020-05-24T16:32:58.000Z</time>
      </trkpt>
      <trkpt lat="46.96465" lon="6.01516">
        <ele>525</ele>
        <time>2020-05-24T16:33:04.000Z</time>
      </trkpt>
      <trkpt lat="46.96467" lon="6.01513">
        <ele>525</ele>
        <time>2020-05-24T16:33:06.000Z</time>
      </trkpt>
      <trkpt lat="46.9647" lon="6.01512">
        <ele>524</ele>
        <time>2020-05-24T16:33:08.000Z</time>
      </trkpt>
      <trkpt lat="46.96473" lon="6.01511">
        <ele>524</ele>
        <time>2020-05-24T16:33:10.000Z</time>
      </trkpt>
      <trkpt lat="46.96475" lon="6.01509">
        <ele>524</ele>
        <time>2020-05-24T16:33:12.000Z</time>
      </trkpt>
      <trkpt lat="46.96477" lon="6.01506">
        <ele>524</ele>
        <time>2020-05-24T16:33:14.000Z</time>
      </trkpt>
      <trkpt lat="46.96479" lon="6.01503">
        <ele>524</ele>
        <time>2020-05-24T16:33:16.000Z</time>
      </trkpt>
      <trkpt lat="46.96481" lon="6.01501">
        <ele>524</ele>
        <time>2020-05-24T16:33:17.000Z</time>
      </trkpt>
      <trkpt lat="46.96483" lon="6.01498">
        <ele>523</ele>
        <time>2020-05-24T16:33:19.000Z</time>
      </trkpt>
      <trkpt lat="46.96485" lon="6.01497">
        <ele>523</ele>
        <time>2020-05-24T16:33:20.000Z</time>
      </trkpt>
      <trkpt lat="46.9649" lon="6.01494">
        <ele>523</ele>
        <time>2020-05-24T16:33:26.000Z</time>
      </trkpt>
      <trkpt lat="46.96492" lon="6.01488">
        <ele>522</ele>
        <time>2020-05-24T16:33:29.000Z</time>
      </trkpt>
      <trkpt lat="46.96496" lon="6.01476">
        <ele>521.86598223829</ele>
        <time>2020-05-24T16:33:35.000Z</time>
      </trkpt>
      <trkpt lat="46.96501" lon="6.01463">
        <ele>520</ele>
        <time>2020-05-24T16:33:41.000Z</time>
      </trkpt>
      <trkpt lat="46.96503" lon="6.01455">
        <ele>520</ele>
        <time>2020-05-24T16:33:45.000Z</time>
      </trkpt>
      <trkpt lat="46.96503" lon="6.01452">
        <ele>519.89041143929</ele>
        <time>2020-05-24T16:33:47.000Z</time>
      </trkpt>
      <trkpt lat="46.96501" lon="6.0145">
        <ele>519</ele>
        <time>2020-05-24T16:33:50.000Z</time>
      </trkpt>
      <trkpt lat="46.96501" lon="6.01446">
        <ele>520</ele>
        <time>2020-05-24T16:33:54.000Z</time>
      </trkpt>
      <trkpt lat="46.96501" lon="6.01443">
        <ele>519.8558562714</ele>
        <time>2020-05-24T16:33:56.000Z</time>
      </trkpt>
      <trkpt lat="46.96502" lon="6.01439">
        <ele>519</ele>
        <time>2020-05-24T16:33:58.000Z</time>
      </trkpt>
      <trkpt lat="46.96502" lon="6.01436">
        <ele>519</ele>
        <time>2020-05-24T16:34:00.000Z</time>
      </trkpt>
      <trkpt lat="46.96503" lon="6.01431">
        <ele>519</ele>
        <time>2020-05-24T16:34:03.000Z</time>
      </trkpt>
      <trkpt lat="46.96509" lon="6.0142">
        <ele>518</ele>
        <time>2020-05-24T16:34:10.000Z</time>
      </trkpt>
      <trkpt lat="46.9651" lon="6.01418">
        <ele>518</ele>
        <time>2020-05-24T16:34:12.000Z</time>
      </trkpt>
      <trkpt lat="46.96513" lon="6.01416">
        <ele>518</ele>
        <time>2020-05-24T16:34:14.000Z</time>
      </trkpt>
      <trkpt lat="46.96514" lon="6.0141">
        <ele>518</ele>
        <time>2020-05-24T16:34:19.000Z</time>
      </trkpt>
      <trkpt lat="46.96512" lon="6.01409">
        <ele>518</ele>
        <time>2020-05-24T16:34:22.000Z</time>
      </trkpt>
      <trkpt lat="46.96514" lon="6.01408">
        <ele>518</ele>
        <time>2020-05-24T16:34:24.000Z</time>
      </trkpt>
      <trkpt lat="46.96517" lon="6.01408">
        <ele>518</ele>
        <time>2020-05-24T16:34:26.000Z</time>
      </trkpt>
      <trkpt lat="46.96519" lon="6.01408">
        <ele>518</ele>
        <time>2020-05-24T16:34:28.000Z</time>
      </trkpt>
      <trkpt lat="46.96522" lon="6.01408">
        <ele>518</ele>
        <time>2020-05-24T16:34:30.000Z</time>
      </trkpt>
      <trkpt lat="46.96525" lon="6.01407">
        <ele>518</ele>
        <time>2020-05-24T16:34:32.000Z</time>
      </trkpt>
      <trkpt lat="46.96527" lon="6.01408">
        <ele>518</ele>
        <time>2020-05-24T16:34:34.000Z</time>
      </trkpt>
      <trkpt lat="46.96529" lon="6.01408">
        <ele>518</ele>
        <time>2020-05-24T16:34:36.000Z</time>
      </trkpt>
      <trkpt lat="46.96531" lon="6.01408">
        <ele>518</ele>
        <time>2020-05-24T16:34:38.000Z</time>
      </trkpt>
      <trkpt lat="46.96534" lon="6.01408">
        <ele>518</ele>
        <time>2020-05-24T16:34:41.000Z</time>
      </trkpt>
      <trkpt lat="46.96536" lon="6.01409">
        <ele>518</ele>
        <time>2020-05-24T16:34:43.000Z</time>
      </trkpt>
      <trkpt lat="46.96539" lon="6.01409">
        <ele>518</ele>
        <time>2020-05-24T16:34:45.000Z</time>
      </trkpt>
      <trkpt lat="46.96542" lon="6.0141">
        <ele>518</ele>
        <time>2020-05-24T16:34:47.000Z</time>
      </trkpt>
      <trkpt lat="46.96545" lon="6.01411">
        <ele>518</ele>
        <time>2020-05-24T16:34:49.000Z</time>
      </trkpt>
      <trkpt lat="46.96548" lon="6.01412">
        <ele>517</ele>
        <time>2020-05-24T16:34:51.000Z</time>
      </trkpt>
      <trkpt lat="46.96551" lon="6.01412">
        <ele>517</ele>
        <time>2020-05-24T16:34:53.000Z</time>
      </trkpt>
      <trkpt lat="46.96552" lon="6.01412">
        <ele>517</ele>
        <time>2020-05-24T16:34:54.000Z</time>
      </trkpt>
      <trkpt lat="46.96555" lon="6.0141">
        <ele>517</ele>
        <time>2020-05-24T16:34:56.000Z</time>
      </trkpt>
      <trkpt lat="46.96558" lon="6.0141">
        <ele>516</ele>
        <time>2020-05-24T16:34:58.000Z</time>
      </trkpt>
      <trkpt lat="46.9656" lon="6.01408">
        <ele>516</ele>
        <time>2020-05-24T16:35:00.000Z</time>
      </trkpt>
      <trkpt lat="46.9656" lon="6.01405">
        <ele>516</ele>
        <time>2020-05-24T16:35:04.000Z</time>
      </trkpt>
      <trkpt lat="46.9656" lon="6.01408">
        <ele>516</ele>
        <time>2020-05-24T16:35:20.000Z</time>
      </trkpt>
      <trkpt lat="46.96562" lon="6.01411">
        <ele>516</ele>
        <time>2020-05-24T16:35:23.000Z</time>
      </trkpt>
      <trkpt lat="46.96563" lon="6.01412">
        <ele>516</ele>
        <time>2020-05-24T16:35:25.000Z</time>
      </trkpt>
      <trkpt lat="46.96565" lon="6.01413">
        <ele>516</ele>
        <time>2020-05-24T16:35:27.000Z</time>
      </trkpt>
      <trkpt lat="46.96568" lon="6.01413">
        <ele>515.8415836565</ele>
        <time>2020-05-24T16:35:30.000Z</time>
      </trkpt>
      <trkpt lat="46.9657" lon="6.01413">
        <ele>515</ele>
        <time>2020-05-24T16:35:32.000Z</time>
      </trkpt>
      <trkpt lat="46.96572" lon="6.01413">
        <ele>514</ele>
        <time>2020-05-24T16:35:35.000Z</time>
      </trkpt>
      <trkpt lat="46.96574" lon="6.01413">
        <ele>514</ele>
        <time>2020-05-24T16:35:37.000Z</time>
      </trkpt>
      <trkpt lat="46.96579" lon="6.01412">
        <ele>514</ele>
        <time>2020-05-24T16:35:42.000Z</time>
      </trkpt>
      <trkpt lat="46.96581" lon="6.01412">
        <ele>514</ele>
        <time>2020-05-24T16:35:44.000Z</time>
      </trkpt>
      <trkpt lat="46.96584" lon="6.01414">
        <ele>514</ele>
        <time>2020-05-24T16:35:48.000Z</time>
      </trkpt>
      <trkpt lat="46.96586" lon="6.01416">
        <ele>513</ele>
        <time>2020-05-24T16:35:52.000Z</time>
      </trkpt>
      <trkpt lat="46.96589" lon="6.01416">
        <ele>513</ele>
        <time>2020-05-24T16:35:54.000Z</time>
      </trkpt>
      <trkpt lat="46.96592" lon="6.01416">
        <ele>513</ele>
        <time>2020-05-24T16:35:56.000Z</time>
      </trkpt>
      <trkpt lat="46.96595" lon="6.01418">
        <ele>512</ele>
        <time>2020-05-24T16:35:58.000Z</time>
      </trkpt>
      <trkpt lat="46.96597" lon="6.01417">
        <ele>512</ele>
        <time>2020-05-24T16:36:00.000Z</time>
      </trkpt>
      <trkpt lat="46.966" lon="6.01418">
        <ele>512</ele>
        <time>2020-05-24T16:36:03.000Z</time>
      </trkpt>
      <trkpt lat="46.96603" lon="6.01419">
        <ele>512</ele>
        <time>2020-05-24T16:36:05.000Z</time>
      </trkpt>
      <trkpt lat="46.96605" lon="6.0142">
        <ele>512</ele>
        <time>2020-05-24T16:36:06.000Z</time>
      </trkpt>
      <trkpt lat="46.96606" lon="6.01421">
        <ele>512</ele>
        <time>2020-05-24T16:36:07.000Z</time>
      </trkpt>
      <trkpt lat="46.96608" lon="6.01421">
        <ele>511.88652456516</ele>
        <time>2020-05-24T16:36:08.000Z</time>
      </trkpt>
      <trkpt lat="46.96611" lon="6.01423">
        <ele>511</ele>
        <time>2020-05-24T16:36:10.000Z</time>
      </trkpt>
      <trkpt lat="46.96613" lon="6.01424">
        <ele>511</ele>
        <time>2020-05-24T16:36:12.000Z</time>
      </trkpt>
      <trkpt lat="46.96616" lon="6.01426">
        <ele>511</ele>
        <time>2020-05-24T16:36:14.000Z</time>
      </trkpt>
      <trkpt lat="46.96618" lon="6.01427">
        <ele>511</ele>
        <time>2020-05-24T16:36:16.000Z</time>
      </trkpt>
      <trkpt lat="46.96621" lon="6.01428">
        <ele>510</ele>
        <time>2020-05-24T16:36:18.000Z</time>
      </trkpt>
      <trkpt lat="46.96623" lon="6.01428">
        <ele>510</ele>
        <time>2020-05-24T16:36:20.000Z</time>
      </trkpt>
      <trkpt lat="46.96625" lon="6.01426">
        <ele>510</ele>
        <time>2020-05-24T16:36:25.000Z</time>
      </trkpt>
      <trkpt lat="46.96627" lon="6.01427">
        <ele>510</ele>
        <time>2020-05-24T16:36:28.000Z</time>
      </trkpt>
      <trkpt lat="46.96629" lon="6.01428">
        <ele>510</ele>
        <time>2020-05-24T16:36:30.000Z</time>
      </trkpt>
      <trkpt lat="46.96631" lon="6.01429">
        <ele>510</ele>
        <time>2020-05-24T16:36:33.000Z</time>
      </trkpt>
      <trkpt lat="46.96634" lon="6.0143">
        <ele>509</ele>
        <time>2020-05-24T16:36:36.000Z</time>
      </trkpt>
      <trkpt lat="46.96637" lon="6.01431">
        <ele>509</ele>
        <time>2020-05-24T16:36:38.000Z</time>
      </trkpt>
      <trkpt lat="46.96639" lon="6.0143">
        <ele>509</ele>
        <time>2020-05-24T16:36:40.000Z</time>
      </trkpt>
      <trkpt lat="46.96641" lon="6.01431">
        <ele>509</ele>
        <time>2020-05-24T16:36:41.000Z</time>
      </trkpt>
      <trkpt lat="46.96643" lon="6.01432">
        <ele>509</ele>
        <time>2020-05-24T16:36:42.000Z</time>
      </trkpt>
      <trkpt lat="46.96645" lon="6.01432">
        <ele>509</ele>
        <time>2020-05-24T16:36:43.000Z</time>
      </trkpt>
      <trkpt lat="46.96648" lon="6.01433">
        <ele>509</ele>
        <time>2020-05-24T16:36:44.000Z</time>
      </trkpt>
      <trkpt lat="46.96651" lon="6.01433">
        <ele>508.86598223829</ele>
        <time>2020-05-24T16:36:46.000Z</time>
      </trkpt>
      <trkpt lat="46.96654" lon="6.01434">
        <ele>508</ele>
        <time>2020-05-24T16:36:48.000Z</time>
      </trkpt>
      <trkpt lat="46.96657" lon="6.01434">
        <ele>508</ele>
        <time>2020-05-24T16:36:50.000Z</time>
      </trkpt>
      <trkpt lat="46.96659" lon="6.01435">
        <ele>508</ele>
        <time>2020-05-24T16:36:51.000Z</time>
      </trkpt>
      <trkpt lat="46.96661" lon="6.01438">
        <ele>508</ele>
        <time>2020-05-24T16:36:53.000Z</time>
      </trkpt>
      <trkpt lat="46.96664" lon="6.01438">
        <ele>508</ele>
        <time>2020-05-24T16:36:56.000Z</time>
      </trkpt>
      <trkpt lat="46.96666" lon="6.0144">
        <ele>508</ele>
        <time>2020-05-24T16:36:58.000Z</time>
      </trkpt>
      <trkpt lat="46.96668" lon="6.01442">
        <ele>507.96551369006</ele>
        <time>2020-05-24T16:37:00.000Z</time>
      </trkpt>
      <trkpt lat="46.9667" lon="6.01444">
        <ele>507</ele>
        <time>2020-05-24T16:37:02.000Z</time>
      </trkpt>
      <trkpt lat="46.96673" lon="6.01447">
        <ele>507</ele>
        <time>2020-05-24T16:37:04.000Z</time>
      </trkpt>
      <trkpt lat="46.96676" lon="6.01449">
        <ele>506.10077296316</ele>
        <time>2020-05-24T16:37:06.000Z</time>
      </trkpt>
      <trkpt lat="46.96678" lon="6.01451">
        <ele>506</ele>
        <time>2020-05-24T16:37:08.000Z</time>
      </trkpt>
      <trkpt lat="46.96679" lon="6.01453">
        <ele>506</ele>
        <time>2020-05-24T16:37:10.000Z</time>
      </trkpt>
      <trkpt lat="46.96681" lon="6.01456">
        <ele>506</ele>
        <time>2020-05-24T16:37:12.000Z</time>
      </trkpt>
      <trkpt lat="46.96683" lon="6.01458">
        <ele>506</ele>
        <time>2020-05-24T16:37:13.000Z</time>
      </trkpt>
      <trkpt lat="46.96685" lon="6.0146">
        <ele>506</ele>
        <time>2020-05-24T16:37:15.000Z</time>
      </trkpt>
      <trkpt lat="46.96688" lon="6.01461">
        <ele>506</ele>
        <time>2020-05-24T16:37:17.000Z</time>
      </trkpt>
      <trkpt lat="46.9669" lon="6.01463">
        <ele>505.85454460826</ele>
        <time>2020-05-24T16:37:19.000Z</time>
      </trkpt>
      <trkpt lat="46.96693" lon="6.01465">
        <ele>505</ele>
        <time>2020-05-24T16:37:21.000Z</time>
      </trkpt>
      <trkpt lat="46.96695" lon="6.01468">
        <ele>505</ele>
        <time>2020-05-24T16:37:23.000Z</time>
      </trkpt>
      <trkpt lat="46.96697" lon="6.01471">
        <ele>504.84</ele>
        <time>2020-05-24T16:37:25.000Z</time>
      </trkpt>
      <trkpt lat="46.96699" lon="6.01473">
        <ele>504.14285154515</ele>
        <time>2020-05-24T16:37:27.000Z</time>
      </trkpt>
      <trkpt lat="46.96701" lon="6.01475">
        <ele>505</ele>
        <time>2020-05-24T16:37:29.000Z</time>
      </trkpt>
      <trkpt lat="46.96703" lon="6.01477">
        <ele>505</ele>
        <time>2020-05-24T16:37:31.000Z</time>
      </trkpt>
      <trkpt lat="46.96705" lon="6.01479">
        <ele>505</ele>
        <time>2020-05-24T16:37:33.000Z</time>
      </trkpt>
      <trkpt lat="46.96708" lon="6.01482">
        <ele>505</ele>
        <time>2020-05-24T16:37:35.000Z</time>
      </trkpt>
      <trkpt lat="46.96711" lon="6.01484">
        <ele>505</ele>
        <time>2020-05-24T16:37:37.000Z</time>
      </trkpt>
      <trkpt lat="46.96715" lon="6.01488">
        <ele>504</ele>
        <time>2020-05-24T16:37:41.000Z</time>
      </trkpt>
      <trkpt lat="46.96718" lon="6.01492">
        <ele>503.85714285714</ele>
        <time>2020-05-24T16:37:44.000Z</time>
      </trkpt>
      <trkpt lat="46.9672" lon="6.01493">
        <ele>503</ele>
        <time>2020-05-24T16:37:45.000Z</time>
      </trkpt>
      <trkpt lat="46.96722" lon="6.01495">
        <ele>503</ele>
        <time>2020-05-24T16:37:47.000Z</time>
      </trkpt>
      <trkpt lat="46.96723" lon="6.01497">
        <ele>503</ele>
        <time>2020-05-24T16:37:49.000Z</time>
      </trkpt>
      <trkpt lat="46.96725" lon="6.015">
        <ele>503</ele>
        <time>2020-05-24T16:37:51.000Z</time>
      </trkpt>
      <trkpt lat="46.96727" lon="6.01502">
        <ele>503</ele>
        <time>2020-05-24T16:37:53.000Z</time>
      </trkpt>
      <trkpt lat="46.96735" lon="6.01509">
        <ele>502</ele>
        <time>2020-05-24T16:37:59.000Z</time>
      </trkpt>
      <trkpt lat="46.96743" lon="6.01517">
        <ele>501.85714845485</ele>
        <time>2020-05-24T16:38:09.000Z</time>
      </trkpt>
      <trkpt lat="46.96752" lon="6.01524">
        <ele>501</ele>
        <time>2020-05-24T16:38:15.000Z</time>
      </trkpt>
      <trkpt lat="46.9676" lon="6.01529">
        <ele>500</ele>
        <time>2020-05-24T16:38:21.000Z</time>
      </trkpt>
      <trkpt lat="46.96766" lon="6.01528">
        <ele>500</ele>
        <time>2020-05-24T16:38:26.000Z</time>
      </trkpt>
      <trkpt lat="46.96769" lon="6.01527">
        <ele>499.84761858322</ele>
        <time>2020-05-24T16:38:28.000Z</time>
      </trkpt>
      <trkpt lat="46.96772" lon="6.01526">
        <ele>499</ele>
        <time>2020-05-24T16:38:30.000Z</time>
      </trkpt>
      <trkpt lat="46.96774" lon="6.01525">
        <ele>499</ele>
        <time>2020-05-24T16:38:32.000Z</time>
      </trkpt>
      <trkpt lat="46.96781" lon="6.01515">
        <ele>499</ele>
        <time>2020-05-24T16:38:39.000Z</time>
      </trkpt>
      <trkpt lat="46.96787" lon="6.01504">
        <ele>498</ele>
        <time>2020-05-24T16:38:45.000Z</time>
      </trkpt>
      <trkpt lat="46.96793" lon="6.01492">
        <ele>498</ele>
        <time>2020-05-24T16:38:52.000Z</time>
      </trkpt>
      <trkpt lat="46.96798" lon="6.0148">
        <ele>497</ele>
        <time>2020-05-24T16:39:02.000Z</time>
      </trkpt>
      <trkpt lat="46.96803" lon="6.01468">
        <ele>495</ele>
        <time>2020-05-24T16:39:09.000Z</time>
      </trkpt>
      <trkpt lat="46.96802" lon="6.01454">
        <ele>492</ele>
        <time>2020-05-24T16:39:18.000Z</time>
      </trkpt>
      <trkpt lat="46.96804" lon="6.01441">
        <ele>488</ele>
        <time>2020-05-24T16:39:39.000Z</time>
      </trkpt>
      <trkpt lat="46.96805" lon="6.01426">
        <ele>487</ele>
        <time>2020-05-24T16:39:49.000Z</time>
      </trkpt>
      <trkpt lat="46.9681" lon="6.01414">
        <ele>486</ele>
        <time>2020-05-24T16:40:01.000Z</time>
      </trkpt>
      <trkpt lat="46.96813" lon="6.01401">
        <ele>484.8476272894</ele>
        <time>2020-05-24T16:40:10.000Z</time>
      </trkpt>
      <trkpt lat="46.96817" lon="6.01389">
        <ele>483</ele>
        <time>2020-05-24T16:40:18.000Z</time>
      </trkpt>
      <trkpt lat="46.9682" lon="6.01375">
        <ele>481.21218492917</ele>
        <time>2020-05-24T16:40:28.000Z</time>
      </trkpt>
      <trkpt lat="46.96825" lon="6.01363">
        <ele>481</ele>
        <time>2020-05-24T16:40:35.000Z</time>
      </trkpt>
      <trkpt lat="46.96829" lon="6.01351">
        <ele>478.85714285714</ele>
        <time>2020-05-24T16:40:44.000Z</time>
      </trkpt>
      <trkpt lat="46.96832" lon="6.01344">
        <ele>478</ele>
        <time>2020-05-24T16:40:49.000Z</time>
      </trkpt>
      <trkpt lat="46.96833" lon="6.01342">
        <ele>477.84</ele>
        <time>2020-05-24T16:40:52.000Z</time>
      </trkpt>
      <trkpt lat="46.96835" lon="6.01329">
        <ele>476</ele>
        <time>2020-05-24T16:41:00.000Z</time>
      </trkpt>
      <trkpt lat="46.96839" lon="6.01316">
        <ele>475</ele>
        <time>2020-05-24T16:41:10.000Z</time>
      </trkpt>
      <trkpt lat="46.9684" lon="6.01303">
        <ele>473</ele>
        <time>2020-05-24T16:41:17.000Z</time>
      </trkpt>
      <trkpt lat="46.96842" lon="6.01299">
        <ele>473</ele>
        <time>2020-05-24T16:41:20.000Z</time>
      </trkpt>
      <trkpt lat="46.96848" lon="6.01287">
        <ele>471</ele>
        <time>2020-05-24T16:41:29.000Z</time>
      </trkpt>
      <trkpt lat="46.96851" lon="6.01273">
        <ele>469</ele>
        <time>2020-05-24T16:41:35.000Z</time>
      </trkpt>
      <trkpt lat="46.96858" lon="6.01265">
        <ele>469</ele>
        <time>2020-05-24T16:41:43.000Z</time>
      </trkpt>
      <trkpt lat="46.96865" lon="6.01256">
        <ele>468</ele>
        <time>2020-05-24T16:41:49.000Z</time>
      </trkpt>
      <trkpt lat="46.96866" lon="6.01254">
        <ele>467</ele>
        <time>2020-05-24T16:41:51.000Z</time>
      </trkpt>
      <trkpt lat="46.96868" lon="6.01251">
        <ele>466.8517147704</ele>
        <time>2020-05-24T16:41:54.000Z</time>
      </trkpt>
      <trkpt lat="46.9687" lon="6.01249">
        <ele>466</ele>
        <time>2020-05-24T16:41:56.000Z</time>
      </trkpt>
      <trkpt lat="46.96872" lon="6.01247">
        <ele>465.84313823913</ele>
        <time>2020-05-24T16:41:58.000Z</time>
      </trkpt>
      <trkpt lat="46.96873" lon="6.01243">
        <ele>465</ele>
        <time>2020-05-24T16:42:00.000Z</time>
      </trkpt>
      <trkpt lat="46.9687" lon="6.01239">
        <ele>465</ele>
        <time>2020-05-24T16:42:04.000Z</time>
      </trkpt>
      <trkpt lat="46.96868" lon="6.01236">
        <ele>465</ele>
        <time>2020-05-24T16:42:09.000Z</time>
      </trkpt>
      <trkpt lat="46.9687" lon="6.01235">
        <ele>464</ele>
        <time>2020-05-24T16:42:47.000Z</time>
      </trkpt>
      <trkpt lat="46.96872" lon="6.01232">
        <ele>464</ele>
        <time>2020-05-24T16:42:50.000Z</time>
      </trkpt>
      <trkpt lat="46.96874" lon="6.01231">
        <ele>464</ele>
        <time>2020-05-24T16:42:52.000Z</time>
      </trkpt>
      <trkpt lat="46.96878" lon="6.0123">
        <ele>463</ele>
        <time>2020-05-24T16:42:55.000Z</time>
      </trkpt>
      <trkpt lat="46.9688" lon="6.01229">
        <ele>463</ele>
        <time>2020-05-24T16:42:57.000Z</time>
      </trkpt>
      <trkpt lat="46.96881" lon="6.01228">
        <ele>463</ele>
        <time>2020-05-24T16:43:02.000Z</time>
      </trkpt>
      <trkpt lat="46.96884" lon="6.01227">
        <ele>463</ele>
        <time>2020-05-24T16:43:05.000Z</time>
      </trkpt>
      <trkpt lat="46.96885" lon="6.01224">
        <ele>462</ele>
        <time>2020-05-24T16:43:08.000Z</time>
      </trkpt>
      <trkpt lat="46.96887" lon="6.01223">
        <ele>462</ele>
        <time>2020-05-24T16:43:10.000Z</time>
      </trkpt>
      <trkpt lat="46.96889" lon="6.01222">
        <ele>462</ele>
        <time>2020-05-24T16:43:12.000Z</time>
      </trkpt>
      <trkpt lat="46.96892" lon="6.01221">
        <ele>462</ele>
        <time>2020-05-24T16:43:14.000Z</time>
      </trkpt>
      <trkpt lat="46.96894" lon="6.01219">
        <ele>462</ele>
        <time>2020-05-24T16:43:16.000Z</time>
      </trkpt>
      <trkpt lat="46.96897" lon="6.01217">
        <ele>462</ele>
        <time>2020-05-24T16:43:18.000Z</time>
      </trkpt>
      <trkpt lat="46.96899" lon="6.01215">
        <ele>462</ele>
        <time>2020-05-24T16:43:20.000Z</time>
      </trkpt>
      <trkpt lat="46.969" lon="6.01212">
        <ele>462</ele>
        <time>2020-05-24T16:43:22.000Z</time>
      </trkpt>
      <trkpt lat="46.96902" lon="6.01211">
        <ele>461.88059758521</ele>
        <time>2020-05-24T16:43:24.000Z</time>
      </trkpt>
      <trkpt lat="46.96904" lon="6.0121">
        <ele>461</ele>
        <time>2020-05-24T16:43:26.000Z</time>
      </trkpt>
      <trkpt lat="46.96907" lon="6.01209">
        <ele>461</ele>
        <time>2020-05-24T16:43:28.000Z</time>
      </trkpt>
      <trkpt lat="46.96909" lon="6.01207">
        <ele>461</ele>
        <time>2020-05-24T16:43:30.000Z</time>
      </trkpt>
      <trkpt lat="46.96911" lon="6.01205">
        <ele>460.94920492817</ele>
        <time>2020-05-24T16:43:32.000Z</time>
      </trkpt>
      <trkpt lat="46.96913" lon="6.01204">
        <ele>460</ele>
        <time>2020-05-24T16:43:34.000Z</time>
      </trkpt>
      <trkpt lat="46.96915" lon="6.01202">
        <ele>460</ele>
        <time>2020-05-24T16:43:36.000Z</time>
      </trkpt>
      <trkpt lat="46.96917" lon="6.01201">
        <ele>460</ele>
        <time>2020-05-24T16:43:38.000Z</time>
      </trkpt>
      <trkpt lat="46.96918" lon="6.01198">
        <ele>460</ele>
        <time>2020-05-24T16:43:40.000Z</time>
      </trkpt>
      <trkpt lat="46.9692" lon="6.01196">
        <ele>460</ele>
        <time>2020-05-24T16:43:42.000Z</time>
      </trkpt>
      <trkpt lat="46.96922" lon="6.01195">
        <ele>460</ele>
        <time>2020-05-24T16:43:43.000Z</time>
      </trkpt>
      <trkpt lat="46.96925" lon="6.01193">
        <ele>459</ele>
        <time>2020-05-24T16:43:45.000Z</time>
      </trkpt>
      <trkpt lat="46.96927" lon="6.01191">
        <ele>459</ele>
        <time>2020-05-24T16:43:47.000Z</time>
      </trkpt>
      <trkpt lat="46.96929" lon="6.0119">
        <ele>457.84</ele>
        <time>2020-05-24T16:43:49.000Z</time>
      </trkpt>
      <trkpt lat="46.96931" lon="6.01188">
        <ele>457</ele>
        <time>2020-05-24T16:43:50.000Z</time>
      </trkpt>
      <trkpt lat="46.96933" lon="6.01186">
        <ele>457</ele>
        <time>2020-05-24T16:43:52.000Z</time>
      </trkpt>
      <trkpt lat="46.96936" lon="6.01183">
        <ele>457</ele>
        <time>2020-05-24T16:43:54.000Z</time>
      </trkpt>
      <trkpt lat="46.96937" lon="6.0118">
        <ele>456.9230736771</ele>
        <time>2020-05-24T16:43:56.000Z</time>
      </trkpt>
      <trkpt lat="46.96938" lon="6.01177">
        <ele>456</ele>
        <time>2020-05-24T16:43:58.000Z</time>
      </trkpt>
      <trkpt lat="46.96939" lon="6.01174">
        <ele>456</ele>
        <time>2020-05-24T16:43:59.000Z</time>
      </trkpt>
      <trkpt lat="46.96939" lon="6.0116">
        <ele>455</ele>
        <time>2020-05-24T16:44:05.000Z</time>
      </trkpt>
      <trkpt lat="46.96939" lon="6.01145">
        <ele>454</ele>
        <time>2020-05-24T16:44:11.000Z</time>
      </trkpt>
      <trkpt lat="46.96938" lon="6.0113">
        <ele>453</ele>
        <time>2020-05-24T16:44:19.000Z</time>
      </trkpt>
      <trkpt lat="46.96939" lon="6.01117">
        <ele>452</ele>
        <time>2020-05-24T16:44:28.000Z</time>
      </trkpt>
      <trkpt lat="46.96939" lon="6.01113">
        <ele>451</ele>
        <time>2020-05-24T16:44:30.000Z</time>
      </trkpt>
      <trkpt lat="46.9694" lon="6.01111">
        <ele>451</ele>
        <time>2020-05-24T16:44:32.000Z</time>
      </trkpt>
      <trkpt lat="46.96939" lon="6.01107">
        <ele>450</ele>
        <time>2020-05-24T16:44:34.000Z</time>
      </trkpt>
      <trkpt lat="46.96938" lon="6.01104">
        <ele>450</ele>
        <time>2020-05-24T16:44:36.000Z</time>
      </trkpt>
      <trkpt lat="46.96937" lon="6.01101">
        <ele>450</ele>
        <time>2020-05-24T16:44:38.000Z</time>
      </trkpt>
      <trkpt lat="46.96938" lon="6.01098">
        <ele>449.85321057823</ele>
        <time>2020-05-24T16:44:40.000Z</time>
      </trkpt>
      <trkpt lat="46.96938" lon="6.01095">
        <ele>448</ele>
        <time>2020-05-24T16:44:42.000Z</time>
      </trkpt>
      <trkpt lat="46.96939" lon="6.0109">
        <ele>448</ele>
        <time>2020-05-24T16:44:44.000Z</time>
      </trkpt>
      <trkpt lat="46.96938" lon="6.01086">
        <ele>449</ele>
        <time>2020-05-24T16:44:46.000Z</time>
      </trkpt>
      <trkpt lat="46.96938" lon="6.01083">
        <ele>448</ele>
        <time>2020-05-24T16:44:48.000Z</time>
      </trkpt>
      <trkpt lat="46.96938" lon="6.01079">
        <ele>448</ele>
        <time>2020-05-24T16:44:50.000Z</time>
      </trkpt>
      <trkpt lat="46.96938" lon="6.01074">
        <ele>447.84</ele>
        <time>2020-05-24T16:44:52.000Z</time>
      </trkpt>
      <trkpt lat="46.96939" lon="6.01071">
        <ele>446</ele>
        <time>2020-05-24T16:44:54.000Z</time>
      </trkpt>
      <trkpt lat="46.9694" lon="6.01068">
        <ele>446</ele>
        <time>2020-05-24T16:44:56.000Z</time>
      </trkpt>
      <trkpt lat="46.96941" lon="6.01064">
        <ele>445</ele>
        <time>2020-05-24T16:44:58.000Z</time>
      </trkpt>
      <trkpt lat="46.96941" lon="6.0106">
        <ele>445</ele>
        <time>2020-05-24T16:45:00.000Z</time>
      </trkpt>
      <trkpt lat="46.96941" lon="6.01057">
        <ele>444.84</ele>
        <time>2020-05-24T16:45:02.000Z</time>
      </trkpt>
      <trkpt lat="46.96942" lon="6.01054">
        <ele>444</ele>
        <time>2020-05-24T16:45:04.000Z</time>
      </trkpt>
      <trkpt lat="46.96942" lon="6.0105">
        <ele>444</ele>
        <time>2020-05-24T16:45:06.000Z</time>
      </trkpt>
      <trkpt lat="46.96942" lon="6.01047">
        <ele>444</ele>
        <time>2020-05-24T16:45:08.000Z</time>
      </trkpt>
      <trkpt lat="46.96942" lon="6.01044">
        <ele>444</ele>
        <time>2020-05-24T16:45:10.000Z</time>
      </trkpt>
      <trkpt lat="46.96943" lon="6.0104">
        <ele>443</ele>
        <time>2020-05-24T16:45:13.000Z</time>
      </trkpt>
      <trkpt lat="46.96943" lon="6.01037">
        <ele>443</ele>
        <time>2020-05-24T16:45:16.000Z</time>
      </trkpt>
      <trkpt lat="46.96944" lon="6.01034">
        <ele>442</ele>
        <time>2020-05-24T16:45:19.000Z</time>
      </trkpt>
      <trkpt lat="46.96945" lon="6.01031">
        <ele>440</ele>
        <time>2020-05-24T16:45:22.000Z</time>
      </trkpt>
      <trkpt lat="46.96945" lon="6.01029">
        <ele>440</ele>
        <time>2020-05-24T16:45:24.000Z</time>
      </trkpt>
      <trkpt lat="46.96946" lon="6.01027">
        <ele>439</ele>
        <time>2020-05-24T16:45:26.000Z</time>
      </trkpt>
      <trkpt lat="46.96946" lon="6.01022">
        <ele>439</ele>
        <time>2020-05-24T16:45:28.000Z</time>
      </trkpt>
      <trkpt lat="46.96946" lon="6.01018">
        <ele>438.88321140604</ele>
        <time>2020-05-24T16:45:30.000Z</time>
      </trkpt>
      <trkpt lat="46.96946" lon="6.01013">
        <ele>438</ele>
        <time>2020-05-24T16:45:32.000Z</time>
      </trkpt>
      <trkpt lat="46.96945" lon="6.01009">
        <ele>438</ele>
        <time>2020-05-24T16:45:34.000Z</time>
      </trkpt>
      <trkpt lat="46.96946" lon="6.01006">
        <ele>438</ele>
        <time>2020-05-24T16:45:36.000Z</time>
      </trkpt>
      <trkpt lat="46.96946" lon="6.01002">
        <ele>437.85713725951</ele>
        <time>2020-05-24T16:45:38.000Z</time>
      </trkpt>
      <trkpt lat="46.96946" lon="6.00999">
        <ele>436.96551369006</ele>
        <time>2020-05-24T16:45:40.000Z</time>
      </trkpt>
      <trkpt lat="46.96946" lon="6.00996">
        <ele>436</ele>
        <time>2020-05-24T16:45:42.000Z</time>
      </trkpt>
      <trkpt lat="46.96947" lon="6.00993">
        <ele>436</ele>
        <time>2020-05-24T16:45:44.000Z</time>
      </trkpt>
      <trkpt lat="46.96948" lon="6.0099">
        <ele>435.92472748293</ele>
        <time>2020-05-24T16:45:47.000Z</time>
      </trkpt>
      <trkpt lat="46.96948" lon="6.00986">
        <ele>434.8415836565</ele>
        <time>2020-05-24T16:45:49.000Z</time>
      </trkpt>
      <trkpt lat="46.96947" lon="6.00982">
        <ele>434</ele>
        <time>2020-05-24T16:45:51.000Z</time>
      </trkpt>
      <trkpt lat="46.96945" lon="6.00981">
        <ele>434</ele>
        <time>2020-05-24T16:45:54.000Z</time>
      </trkpt>
      <trkpt lat="46.9694" lon="6.00987">
        <ele>433</ele>
        <time>2020-05-24T16:46:02.000Z</time>
      </trkpt>
      <trkpt lat="46.9694" lon="6.0099">
        <ele>434</ele>
        <time>2020-05-24T16:46:09.000Z</time>
      </trkpt>
      <trkpt lat="46.96939" lon="6.00987">
        <ele>434</ele>
        <time>2020-05-24T16:46:18.000Z</time>
      </trkpt>
      <trkpt lat="46.96941" lon="6.00985">
        <ele>434</ele>
        <time>2020-05-24T16:46:20.000Z</time>
      </trkpt>
      <trkpt lat="46.96942" lon="6.00982">
        <ele>434</ele>
        <time>2020-05-24T16:46:23.000Z</time>
      </trkpt>
      <trkpt lat="46.96941" lon="6.00984">
        <ele>433</ele>
        <time>2020-05-24T16:46:54.000Z</time>
      </trkpt>
      <trkpt lat="46.96937" lon="6.00983">
        <ele>433</ele>
        <time>2020-05-24T16:47:00.000Z</time>
      </trkpt>
      <trkpt lat="46.96934" lon="6.00983">
        <ele>432</ele>
        <time>2020-05-24T16:47:03.000Z</time>
      </trkpt>
      <trkpt lat="46.96932" lon="6.00982">
        <ele>432</ele>
        <time>2020-05-24T16:47:05.000Z</time>
      </trkpt>
      <trkpt lat="46.96929" lon="6.00981">
        <ele>432</ele>
        <time>2020-05-24T16:47:07.000Z</time>
      </trkpt>
      <trkpt lat="46.96926" lon="6.0098">
        <ele>432</ele>
        <time>2020-05-24T16:47:09.000Z</time>
      </trkpt>
      <trkpt lat="46.96928" lon="6.00982">
        <ele>430.2068995957</ele>
        <time>2020-05-24T16:47:14.000Z</time>
      </trkpt>
      <trkpt lat="46.96925" lon="6.00981">
        <ele>430</ele>
        <time>2020-05-24T16:47:17.000Z</time>
      </trkpt>
      <trkpt lat="46.96922" lon="6.00981">
        <ele>430</ele>
        <time>2020-05-24T16:47:19.000Z</time>
      </trkpt>
      <trkpt lat="46.96919" lon="6.00982">
        <ele>430</ele>
        <time>2020-05-24T16:47:21.000Z</time>
      </trkpt>
      <trkpt lat="46.96917" lon="6.00984">
        <ele>430</ele>
        <time>2020-05-24T16:47:23.000Z</time>
      </trkpt>
      <trkpt lat="46.96915" lon="6.00985">
        <ele>430</ele>
        <time>2020-05-24T16:47:25.000Z</time>
      </trkpt>
      <trkpt lat="46.96913" lon="6.00986">
        <ele>430</ele>
        <time>2020-05-24T16:47:27.000Z</time>
      </trkpt>
      <trkpt lat="46.96911" lon="6.00988">
        <ele>430</ele>
        <time>2020-05-24T16:47:29.000Z</time>
      </trkpt>
      <trkpt lat="46.96909" lon="6.00989">
        <ele>428.88811213849</ele>
        <time>2020-05-24T16:47:31.000Z</time>
      </trkpt>
      <trkpt lat="46.969" lon="6.00996">
        <ele>427</ele>
        <time>2020-05-24T16:47:38.000Z</time>
      </trkpt>
      <trkpt lat="46.96894" lon="6.01006">
        <ele>425</ele>
        <time>2020-05-24T16:47:47.000Z</time>
      </trkpt>
      <trkpt lat="46.96889" lon="6.01012">
        <ele>424</ele>
        <time>2020-05-24T16:47:53.000Z</time>
      </trkpt>
      <trkpt lat="46.96884" lon="6.01022">
        <ele>422</ele>
        <time>2020-05-24T16:48:02.000Z</time>
      </trkpt>
      <trkpt lat="46.96878" lon="6.01033">
        <ele>420.875</ele>
        <time>2020-05-24T16:48:13.000Z</time>
      </trkpt>
      <trkpt lat="46.96879" lon="6.01046">
        <ele>420</ele>
        <time>2020-05-24T16:48:19.000Z</time>
      </trkpt>
      <trkpt lat="46.96879" lon="6.01061">
        <ele>418</ele>
        <time>2020-05-24T16:48:32.000Z</time>
      </trkpt>
      <trkpt lat="46.96875" lon="6.01073">
        <ele>418</ele>
        <time>2020-05-24T16:48:42.000Z</time>
      </trkpt>
      <trkpt lat="46.96869" lon="6.01085">
        <ele>417</ele>
        <time>2020-05-24T16:48:53.000Z</time>
      </trkpt>
      <trkpt lat="46.9686" lon="6.01093">
        <ele>417</ele>
        <time>2020-05-24T16:49:00.000Z</time>
      </trkpt>
      <trkpt lat="46.96852" lon="6.01099">
        <ele>415.90526684542</ele>
        <time>2020-05-24T16:49:06.000Z</time>
      </trkpt>
      <trkpt lat="46.96844" lon="6.01105">
        <ele>415</ele>
        <time>2020-05-24T16:49:18.000Z</time>
      </trkpt>
      <trkpt lat="46.96835" lon="6.01108">
        <ele>415</ele>
        <time>2020-05-24T16:49:26.000Z</time>
      </trkpt>
      <trkpt lat="46.96825" lon="6.01108">
        <ele>413</ele>
        <time>2020-05-24T16:49:34.000Z</time>
      </trkpt>
      <trkpt lat="46.96814" lon="6.01112">
        <ele>413</ele>
        <time>2020-05-24T16:49:39.000Z</time>
      </trkpt>
      <trkpt lat="46.96807" lon="6.01122">
        <ele>412</ele>
        <time>2020-05-24T16:49:43.000Z</time>
      </trkpt>
      <trkpt lat="46.96803" lon="6.01135">
        <ele>412</ele>
        <time>2020-05-24T16:49:48.000Z</time>
      </trkpt>
      <trkpt lat="46.96796" lon="6.01146">
        <ele>411.1619022077</ele>
        <time>2020-05-24T16:49:53.000Z</time>
      </trkpt>
      <trkpt lat="46.96794" lon="6.0116">
        <ele>411</ele>
        <time>2020-05-24T16:49:59.000Z</time>
      </trkpt>
      <trkpt lat="46.96787" lon="6.0117">
        <ele>410.84615384615</ele>
        <time>2020-05-24T16:50:11.000Z</time>
      </trkpt>
      <trkpt lat="46.96779" lon="6.01176">
        <ele>409</ele>
        <time>2020-05-24T16:50:18.000Z</time>
      </trkpt>
      <trkpt lat="46.9677" lon="6.01183">
        <ele>409</ele>
        <time>2020-05-24T16:50:26.000Z</time>
      </trkpt>
      <trkpt lat="46.96768" lon="6.0117">
        <ele>408</ele>
        <time>2020-05-24T16:50:33.000Z</time>
      </trkpt>
      <trkpt lat="46.96775" lon="6.01162">
        <ele>404</ele>
        <time>2020-05-24T16:50:45.000Z</time>
      </trkpt>
      <trkpt lat="46.9678" lon="6.0115">
        <ele>402</ele>
        <time>2020-05-24T16:50:57.000Z</time>
      </trkpt>
      <trkpt lat="46.96783" lon="6.0114">
        <ele>397</ele>
        <time>2020-05-24T16:51:16.000Z</time>
      </trkpt>
      <trkpt lat="46.96775" lon="6.01131">
        <ele>393.93405913298</ele>
        <time>2020-05-24T16:51:28.000Z</time>
      </trkpt>
      <trkpt lat="46.96769" lon="6.01121">
        <ele>392</ele>
        <time>2020-05-24T16:51:37.000Z</time>
      </trkpt>
      <trkpt lat="46.96764" lon="6.01108">
        <ele>390</ele>
        <time>2020-05-24T16:51:45.000Z</time>
      </trkpt>
      <trkpt lat="46.96758" lon="6.01097">
        <ele>387</ele>
        <time>2020-05-24T16:52:05.000Z</time>
      </trkpt>
      <trkpt lat="46.96758" lon="6.01083">
        <ele>386.8415836565</ele>
        <time>2020-05-24T16:52:12.000Z</time>
      </trkpt>
      <trkpt lat="46.96763" lon="6.01071">
        <ele>386</ele>
        <time>2020-05-24T16:52:20.000Z</time>
      </trkpt>
      <trkpt lat="46.96752" lon="6.01065">
        <ele>385</ele>
        <time>2020-05-24T16:52:29.000Z</time>
      </trkpt>
      <trkpt lat="46.96742" lon="6.0106">
        <ele>384</ele>
        <time>2020-05-24T16:52:33.000Z</time>
      </trkpt>
      <trkpt lat="46.96732" lon="6.01054">
        <ele>384</ele>
        <time>2020-05-24T16:52:38.000Z</time>
      </trkpt>
      <trkpt lat="46.96731" lon="6.01066">
        <ele>380</ele>
        <time>2020-05-24T16:52:57.000Z</time>
      </trkpt>
      <trkpt lat="46.96723" lon="6.0106">
        <ele>380</ele>
        <time>2020-05-24T16:53:18.000Z</time>
      </trkpt>
      <trkpt lat="46.96716" lon="6.01051">
        <ele>379</ele>
        <time>2020-05-24T16:53:24.000Z</time>
      </trkpt>
      <trkpt lat="46.96707" lon="6.01047">
        <ele>380</ele>
        <time>2020-05-24T16:53:50.000Z</time>
      </trkpt>
      <trkpt lat="46.96697" lon="6.01046">
        <ele>380</ele>
        <time>2020-05-24T16:54:06.000Z</time>
      </trkpt>
      <trkpt lat="46.96686" lon="6.01053">
        <ele>379.86324748922</ele>
        <time>2020-05-24T16:54:11.000Z</time>
      </trkpt>
      <trkpt lat="46.96679" lon="6.01062">
        <ele>378</ele>
        <time>2020-05-24T16:54:20.000Z</time>
      </trkpt>
      <trkpt lat="46.96671" lon="6.01053">
        <ele>376</ele>
        <time>2020-05-24T16:54:29.000Z</time>
      </trkpt>
      <trkpt lat="46.96662" lon="6.01056">
        <ele>376</ele>
        <time>2020-05-24T16:54:32.000Z</time>
      </trkpt>
      <trkpt lat="46.96652" lon="6.01058">
        <ele>377</ele>
        <time>2020-05-24T16:54:39.000Z</time>
      </trkpt>
      <trkpt lat="46.96643" lon="6.01063">
        <ele>377</ele>
        <time>2020-05-24T16:54:46.000Z</time>
      </trkpt>
      <trkpt lat="46.96637" lon="6.01075">
        <ele>377</ele>
        <time>2020-05-24T16:54:55.000Z</time>
      </trkpt>
      <trkpt lat="46.96627" lon="6.01076">
        <ele>377</ele>
        <time>2020-05-24T16:55:01.000Z</time>
      </trkpt>
      <trkpt lat="46.9662" lon="6.01086">
        <ele>377</ele>
        <time>2020-05-24T16:55:09.000Z</time>
      </trkpt>
      <trkpt lat="46.96613" lon="6.01096">
        <ele>378</ele>
        <time>2020-05-24T16:55:15.000Z</time>
      </trkpt>
      <trkpt lat="46.96604" lon="6.01105">
        <ele>377</ele>
        <time>2020-05-24T16:55:21.000Z</time>
      </trkpt>
      <trkpt lat="46.96595" lon="6.0111">
        <ele>377</ele>
        <time>2020-05-24T16:55:28.000Z</time>
      </trkpt>
      <trkpt lat="46.96588" lon="6.01119">
        <ele>377</ele>
        <time>2020-05-24T16:55:35.000Z</time>
      </trkpt>
      <trkpt lat="46.96579" lon="6.01122">
        <ele>377</ele>
        <time>2020-05-24T16:55:40.000Z</time>
      </trkpt>
      <trkpt lat="46.96569" lon="6.01124">
        <ele>377</ele>
        <time>2020-05-24T16:55:46.000Z</time>
      </trkpt>
      <trkpt lat="46.96558" lon="6.0112">
        <ele>377</ele>
        <time>2020-05-24T16:55:50.000Z</time>
      </trkpt>
      <trkpt lat="46.96549" lon="6.01117">
        <ele>377</ele>
        <time>2020-05-24T16:55:53.000Z</time>
      </trkpt>
      <trkpt lat="46.96556" lon="6.01118">
        <ele>378</ele>
        <time>2020-05-24T16:55:59.000Z</time>
      </trkpt>
      <trkpt lat="46.96547" lon="6.01123">
        <ele>377</ele>
        <time>2020-05-24T16:56:07.000Z</time>
      </trkpt>
      <trkpt lat="46.96538" lon="6.01126">
        <ele>377</ele>
        <time>2020-05-24T16:56:11.000Z</time>
      </trkpt>
      <trkpt lat="46.96545" lon="6.01132">
        <ele>378</ele>
        <time>2020-05-24T16:56:32.000Z</time>
      </trkpt>
      <trkpt lat="46.96547" lon="6.01133">
        <ele>378</ele>
        <time>2020-05-24T16:56:34.000Z</time>
      </trkpt>
      <trkpt lat="46.96554" lon="6.01152">
        <ele>377</ele>
        <time>2020-05-24T16:56:46.000Z</time>
      </trkpt>
      <trkpt lat="46.9656" lon="6.01163">
        <ele>378</ele>
        <time>2020-05-24T16:56:50.000Z</time>
      </trkpt>
      <trkpt lat="46.96551" lon="6.0116">
        <ele>378</ele>
        <time>2020-05-24T16:57:12.000Z</time>
      </trkpt>
      <trkpt lat="46.9654" lon="6.01154">
        <ele>378</ele>
        <time>2020-05-24T16:57:16.000Z</time>
      </trkpt>
      <trkpt lat="46.96529" lon="6.0115">
        <ele>378</ele>
        <time>2020-05-24T16:57:20.000Z</time>
      </trkpt>
      <trkpt lat="46.9652" lon="6.01155">
        <ele>378.14678942177</ele>
        <time>2020-05-24T16:57:25.000Z</time>
      </trkpt>
      <trkpt lat="46.96526" lon="6.0117">
        <ele>379</ele>
        <time>2020-05-24T16:57:28.000Z</time>
      </trkpt>
      <trkpt lat="46.96535" lon="6.01178">
        <ele>379</ele>
        <time>2020-05-24T16:57:30.000Z</time>
      </trkpt>
      <trkpt lat="46.96545" lon="6.01178">
        <ele>379</ele>
        <time>2020-05-24T16:57:33.000Z</time>
      </trkpt>
      <trkpt lat="46.96554" lon="6.01168">
        <ele>379</ele>
        <time>2020-05-24T16:57:36.000Z</time>
      </trkpt>
      <trkpt lat="46.96561" lon="6.01158">
        <ele>378</ele>
        <time>2020-05-24T16:57:43.000Z</time>
      </trkpt>
      <trkpt lat="46.96565" lon="6.01146">
        <ele>378</ele>
        <time>2020-05-24T16:57:49.000Z</time>
      </trkpt>
      <trkpt lat="46.96556" lon="6.01142">
        <ele>378</ele>
        <time>2020-05-24T16:57:58.000Z</time>
      </trkpt>
      <trkpt lat="46.96548" lon="6.01134">
        <ele>377.85148150964</ele>
        <time>2020-05-24T16:58:01.000Z</time>
      </trkpt>
      <trkpt lat="46.96555" lon="6.01124">
        <ele>377</ele>
        <time>2020-05-24T16:58:06.000Z</time>
      </trkpt>
      <trkpt lat="46.96547" lon="6.01118">
        <ele>378</ele>
        <time>2020-05-24T16:58:10.000Z</time>
      </trkpt>
      <trkpt lat="46.96545" lon="6.01118">
        <ele>378</ele>
        <time>2020-05-24T16:58:16.000Z</time>
      </trkpt>
      <trkpt lat="46.96532" lon="6.01125">
        <ele>377</ele>
        <time>2020-05-24T16:58:43.000Z</time>
      </trkpt>
      <trkpt lat="46.96541" lon="6.01135">
        <ele>377</ele>
        <time>2020-05-24T16:58:57.000Z</time>
      </trkpt>
      <trkpt lat="46.96553" lon="6.0113">
        <ele>377</ele>
        <time>2020-05-24T16:59:03.000Z</time>
      </trkpt>
      <trkpt lat="46.96542" lon="6.01134">
        <ele>379</ele>
        <time>2020-05-24T16:59:14.000Z</time>
      </trkpt>
      <trkpt lat="46.96532" lon="6.01136">
        <ele>380</ele>
        <time>2020-05-24T16:59:17.000Z</time>
      </trkpt>
      <trkpt lat="46.96522" lon="6.01143">
        <ele>380</ele>
        <time>2020-05-24T16:59:20.000Z</time>
      </trkpt>
      <trkpt lat="46.96513" lon="6.01146">
        <ele>380</ele>
        <time>2020-05-24T16:59:22.000Z</time>
      </trkpt>
      <trkpt lat="46.96504" lon="6.01152">
        <ele>380</ele>
        <time>2020-05-24T16:59:25.000Z</time>
      </trkpt>
      <trkpt lat="46.96514" lon="6.01159">
        <ele>380.7755109149</ele>
        <time>2020-05-24T16:59:34.000Z</time>
      </trkpt>
      <trkpt lat="46.96525" lon="6.01162">
        <ele>381</ele>
        <time>2020-05-24T16:59:37.000Z</time>
      </trkpt>
      <trkpt lat="46.96526" lon="6.01145">
        <ele>383</ele>
        <time>2020-05-24T16:59:47.000Z</time>
      </trkpt>
      <trkpt lat="46.96539" lon="6.01164">
        <ele>383</ele>
        <time>2020-05-24T16:59:53.000Z</time>
      </trkpt>
      <trkpt lat="46.96545" lon="6.01179">
        <ele>383</ele>
        <time>2020-05-24T16:59:54.000Z</time>
      </trkpt>
      <trkpt lat="46.96546" lon="6.01164">
        <ele>382</ele>
        <time>2020-05-24T17:00:14.000Z</time>
      </trkpt>
      <trkpt lat="46.96541" lon="6.01176">
        <ele>382</ele>
        <time>2020-05-24T17:00:24.000Z</time>
      </trkpt>
      <trkpt lat="46.96539" lon="6.0119">
        <ele>382</ele>
        <time>2020-05-24T17:00:27.000Z</time>
      </trkpt>
      <trkpt lat="46.96535" lon="6.01202">
        <ele>382</ele>
        <time>2020-05-24T17:00:30.000Z</time>
      </trkpt>
      <trkpt lat="46.96525" lon="6.01216">
        <ele>383.82178795022</ele>
        <time>2020-05-24T17:00:34.000Z</time>
      </trkpt>
      <trkpt lat="46.96519" lon="6.01226">
        <ele>385</ele>
        <time>2020-05-24T17:00:37.000Z</time>
      </trkpt>
      <trkpt lat="46.96524" lon="6.01218">
        <ele>391</ele>
        <time>2020-05-24T17:01:02.000Z</time>
      </trkpt>
      <trkpt lat="46.96529" lon="6.01203">
        <ele>391</ele>
        <time>2020-05-24T17:01:06.000Z</time>
      </trkpt>
      <trkpt lat="46.96533" lon="6.01188">
        <ele>392</ele>
        <time>2020-05-24T17:01:11.000Z</time>
      </trkpt>
      <trkpt lat="46.96543" lon="6.01189">
        <ele>392</ele>
        <time>2020-05-24T17:01:21.000Z</time>
      </trkpt>
      <trkpt lat="46.96538" lon="6.01177">
        <ele>393</ele>
        <time>2020-05-24T17:01:33.000Z</time>
      </trkpt>
      <trkpt lat="46.9653" lon="6.01169">
        <ele>393</ele>
        <time>2020-05-24T17:01:38.000Z</time>
      </trkpt>
      <trkpt lat="46.96526" lon="6.01156">
        <ele>393</ele>
        <time>2020-05-24T17:01:45.000Z</time>
      </trkpt>
      <trkpt lat="46.96527" lon="6.01139">
        <ele>393</ele>
        <time>2020-05-24T17:01:52.000Z</time>
      </trkpt>
      <trkpt lat="46.96526" lon="6.01125">
        <ele>393</ele>
        <time>2020-05-24T17:01:54.000Z</time>
      </trkpt>
      <trkpt lat="46.96536" lon="6.0112">
        <ele>391</ele>
        <time>2020-05-24T17:02:03.000Z</time>
      </trkpt>
      <trkpt lat="46.96543" lon="6.01112">
        <ele>388</ele>
        <time>2020-05-24T17:02:21.000Z</time>
      </trkpt>
      <trkpt lat="46.96552" lon="6.01114">
        <ele>388.16</ele>
        <time>2020-05-24T17:02:28.000Z</time>
      </trkpt>
      <trkpt lat="46.9656" lon="6.01122">
        <ele>389</ele>
        <time>2020-05-24T17:02:37.000Z</time>
      </trkpt>
      <trkpt lat="46.96565" lon="6.01132">
        <ele>390</ele>
        <time>2020-05-24T17:02:40.000Z</time>
      </trkpt>
      <trkpt lat="46.96571" lon="6.01146">
        <ele>390</ele>
        <time>2020-05-24T17:02:42.000Z</time>
      </trkpt>
      <trkpt lat="46.96579" lon="6.0116">
        <ele>390</ele>
        <time>2020-05-24T17:02:47.000Z</time>
      </trkpt>
      <trkpt lat="46.96581" lon="6.01147">
        <ele>389</ele>
        <time>2020-05-24T17:03:01.000Z</time>
      </trkpt>
      <trkpt lat="46.96575" lon="6.01134">
        <ele>390.16</ele>
        <time>2020-05-24T17:03:04.000Z</time>
      </trkpt>
      <trkpt lat="46.96565" lon="6.01126">
        <ele>393</ele>
        <time>2020-05-24T17:03:09.000Z</time>
      </trkpt>
      <trkpt lat="46.96573" lon="6.0112">
        <ele>394</ele>
        <time>2020-05-24T17:03:40.000Z</time>
      </trkpt>
      <trkpt lat="46.96552" lon="6.01108">
        <ele>390</ele>
        <time>2020-05-24T17:04:56.000Z</time>
      </trkpt>
      <trkpt lat="46.96562" lon="6.01109">
        <ele>391.87704720238</ele>
        <time>2020-05-24T17:05:02.000Z</time>
      </trkpt>
      <trkpt lat="46.96574" lon="6.01126">
        <ele>393</ele>
        <time>2020-05-24T17:05:04.000Z</time>
      </trkpt>
      <trkpt lat="46.96583" lon="6.01148">
        <ele>393</ele>
        <time>2020-05-24T17:05:05.000Z</time>
      </trkpt>
      <trkpt lat="46.96585" lon="6.01164">
        <ele>393</ele>
        <time>2020-05-24T17:05:06.000Z</time>
      </trkpt>
      <trkpt lat="46.96585" lon="6.01178">
        <ele>393</ele>
        <time>2020-05-24T17:05:09.000Z</time>
      </trkpt>
      <trkpt lat="46.96587" lon="6.01193">
        <ele>393</ele>
        <time>2020-05-24T17:05:13.000Z</time>
      </trkpt>
      <trkpt lat="46.96582" lon="6.01205">
        <ele>392.85148339184</ele>
        <time>2020-05-24T17:05:18.000Z</time>
      </trkpt>
      <trkpt lat="46.96572" lon="6.01212">
        <ele>392</ele>
        <time>2020-05-24T17:05:21.000Z</time>
      </trkpt>
      <trkpt lat="46.96562" lon="6.01218">
        <ele>392</ele>
        <time>2020-05-24T17:05:24.000Z</time>
      </trkpt>
      <trkpt lat="46.96556" lon="6.01228">
        <ele>391</ele>
        <time>2020-05-24T17:05:28.000Z</time>
      </trkpt>
      <trkpt lat="46.96553" lon="6.01244">
        <ele>389</ele>
        <time>2020-05-24T17:05:31.000Z</time>
      </trkpt>
      <trkpt lat="46.96538" lon="6.01223">
        <ele>384.93332669634</ele>
        <time>2020-05-24T17:05:40.000Z</time>
      </trkpt>
      <trkpt lat="46.96538" lon="6.01208">
        <ele>383.15671477834</ele>
        <time>2020-05-24T17:05:44.000Z</time>
      </trkpt>
      <trkpt lat="46.96547" lon="6.01196">
        <ele>380</ele>
        <time>2020-05-24T17:05:48.000Z</time>
      </trkpt>
      <trkpt lat="46.96553" lon="6.01183">
        <ele>380</ele>
        <time>2020-05-24T17:05:51.000Z</time>
      </trkpt>
      <trkpt lat="46.96563" lon="6.01176">
        <ele>380</ele>
        <time>2020-05-24T17:05:54.000Z</time>
      </trkpt>
      <trkpt lat="46.96571" lon="6.0117">
        <ele>380</ele>
        <time>2020-05-24T17:05:57.000Z</time>
      </trkpt>
      <trkpt lat="46.9658" lon="6.01166">
        <ele>379.87826541856</ele>
        <time>2020-05-24T17:06:01.000Z</time>
      </trkpt>
      <trkpt lat="46.9658" lon="6.01151">
        <ele>377</ele>
        <time>2020-05-24T17:06:07.000Z</time>
      </trkpt>
      <trkpt lat="46.96569" lon="6.01147">
        <ele>377</ele>
        <time>2020-05-24T17:06:14.000Z</time>
      </trkpt>
      <trkpt lat="46.96579" lon="6.01142">
        <ele>377</ele>
        <time>2020-05-24T17:06:28.000Z</time>
      </trkpt>
      <trkpt lat="46.96581" lon="6.01128">
        <ele>377</ele>
        <time>2020-05-24T17:06:33.000Z</time>
      </trkpt>
      <trkpt lat="46.96591" lon="6.01132">
        <ele>377</ele>
        <time>2020-05-24T17:06:39.000Z</time>
      </trkpt>
      <trkpt lat="46.96598" lon="6.01123">
        <ele>377</ele>
        <time>2020-05-24T17:06:50.000Z</time>
      </trkpt>
      <trkpt lat="46.96606" lon="6.01115">
        <ele>377</ele>
        <time>2020-05-24T17:06:56.000Z</time>
      </trkpt>
      <trkpt lat="46.96615" lon="6.0111">
        <ele>377</ele>
        <time>2020-05-24T17:07:03.000Z</time>
      </trkpt>
      <trkpt lat="46.96622" lon="6.01101">
        <ele>376</ele>
        <time>2020-05-24T17:07:11.000Z</time>
      </trkpt>
      <trkpt lat="46.96631" lon="6.01095">
        <ele>377</ele>
        <time>2020-05-24T17:07:19.000Z</time>
      </trkpt>
      <trkpt lat="46.9664" lon="6.01092">
        <ele>377</ele>
        <time>2020-05-24T17:07:27.000Z</time>
      </trkpt>
      <trkpt lat="46.96649" lon="6.01085">
        <ele>376</ele>
        <time>2020-05-24T17:07:36.000Z</time>
      </trkpt>
      <trkpt lat="46.96656" lon="6.01074">
        <ele>376</ele>
        <time>2020-05-24T17:07:43.000Z</time>
      </trkpt>
      <trkpt lat="46.96662" lon="6.01064">
        <ele>375</ele>
        <time>2020-05-24T17:07:49.000Z</time>
      </trkpt>
      <trkpt lat="46.9667" lon="6.01057">
        <ele>376</ele>
        <time>2020-05-24T17:07:58.000Z</time>
      </trkpt>
      <trkpt lat="46.96679" lon="6.01051">
        <ele>376.06731076923</ele>
        <time>2020-05-24T17:08:06.000Z</time>
      </trkpt>
      <trkpt lat="46.96675" lon="6.01038">
        <ele>377</ele>
        <time>2020-05-24T17:08:13.000Z</time>
      </trkpt>
      <trkpt lat="46.96677" lon="6.01036">
        <ele>377</ele>
        <time>2020-05-24T17:08:22.000Z</time>
      </trkpt>
      <trkpt lat="46.96679" lon="6.01036">
        <ele>377</ele>
        <time>2020-05-24T17:08:25.000Z</time>
      </trkpt>
      <trkpt lat="46.96681" lon="6.01035">
        <ele>377</ele>
        <time>2020-05-24T17:08:27.000Z</time>
      </trkpt>
      <trkpt lat="46.96684" lon="6.01033">
        <ele>377.11579245207</ele>
        <time>2020-05-24T17:08:30.000Z</time>
      </trkpt>
      <trkpt lat="46.96687" lon="6.01032">
        <ele>378</ele>
        <time>2020-05-24T17:08:32.000Z</time>
      </trkpt>
      <trkpt lat="46.96689" lon="6.01031">
        <ele>378</ele>
        <time>2020-05-24T17:08:34.000Z</time>
      </trkpt>
      <trkpt lat="46.9669" lon="6.01029">
        <ele>379</ele>
        <time>2020-05-24T17:08:39.000Z</time>
      </trkpt>
      <trkpt lat="46.96692" lon="6.01027">
        <ele>379</ele>
        <time>2020-05-24T17:08:41.000Z</time>
      </trkpt>
      <trkpt lat="46.96694" lon="6.01026">
        <ele>379</ele>
        <time>2020-05-24T17:08:43.000Z</time>
      </trkpt>
      <trkpt lat="46.96696" lon="6.01026">
        <ele>378.84</ele>
        <time>2020-05-24T17:08:45.000Z</time>
      </trkpt>
      <trkpt lat="46.96698" lon="6.01025">
        <ele>378</ele>
        <time>2020-05-24T17:08:47.000Z</time>
      </trkpt>
      <trkpt lat="46.967" lon="6.01023">
        <ele>378</ele>
        <time>2020-05-24T17:08:49.000Z</time>
      </trkpt>
      <trkpt lat="46.96702" lon="6.01021">
        <ele>378</ele>
        <time>2020-05-24T17:08:51.000Z</time>
      </trkpt>
      <trkpt lat="46.96704" lon="6.01019">
        <ele>378</ele>
        <time>2020-05-24T17:08:53.000Z</time>
      </trkpt>
      <trkpt lat="46.96706" lon="6.01018">
        <ele>377.93333997042</ele>
        <time>2020-05-24T17:08:55.000Z</time>
      </trkpt>
      <trkpt lat="46.96709" lon="6.01017">
        <ele>377</ele>
        <time>2020-05-24T17:08:57.000Z</time>
      </trkpt>
      <trkpt lat="46.96712" lon="6.01015">
        <ele>377</ele>
        <time>2020-05-24T17:08:59.000Z</time>
      </trkpt>
      <trkpt lat="46.96713" lon="6.01013">
        <ele>377</ele>
        <time>2020-05-24T17:09:01.000Z</time>
      </trkpt>
      <trkpt lat="46.96713" lon="6.01009">
        <ele>377</ele>
        <time>2020-05-24T17:09:03.000Z</time>
      </trkpt>
      <trkpt lat="46.96714" lon="6.01005">
        <ele>376.96628841812</ele>
        <time>2020-05-24T17:09:05.000Z</time>
      </trkpt>
      <trkpt lat="46.96713" lon="6.01002">
        <ele>376</ele>
        <time>2020-05-24T17:09:07.000Z</time>
      </trkpt>
      <trkpt lat="46.96712" lon="6.01">
        <ele>376</ele>
        <time>2020-05-24T17:09:10.000Z</time>
      </trkpt>
      <trkpt lat="46.9671" lon="6.00999">
        <ele>376</ele>
        <time>2020-05-24T17:09:13.000Z</time>
      </trkpt>
      <trkpt lat="46.96709" lon="6.00997">
        <ele>376</ele>
        <time>2020-05-24T17:09:18.000Z</time>
      </trkpt>
      <trkpt lat="46.96706" lon="6.00997">
        <ele>376</ele>
        <time>2020-05-24T17:09:21.000Z</time>
      </trkpt>
      <trkpt lat="46.96705" lon="6.00995">
        <ele>376</ele>
        <time>2020-05-24T17:09:24.000Z</time>
      </trkpt>
      <trkpt lat="46.96703" lon="6.00994">
        <ele>377</ele>
        <time>2020-05-24T17:09:26.000Z</time>
      </trkpt>
      <trkpt lat="46.96699" lon="6.00991">
        <ele>377.8405836085</ele>
        <time>2020-05-24T17:09:29.000Z</time>
      </trkpt>
      <trkpt lat="46.96697" lon="6.0099">
        <ele>378</ele>
        <time>2020-05-24T17:09:31.000Z</time>
      </trkpt>
      <trkpt lat="46.96689" lon="6.00983">
        <ele>379</ele>
        <time>2020-05-24T17:09:38.000Z</time>
      </trkpt>
      <trkpt lat="46.96685" lon="6.00982">
        <ele>378.09473315458</ele>
        <time>2020-05-24T17:09:42.000Z</time>
      </trkpt>
      <trkpt lat="46.96687" lon="6.00985">
        <ele>379</ele>
        <time>2020-05-24T17:09:44.000Z</time>
      </trkpt>
      <trkpt lat="46.96689" lon="6.00986">
        <ele>379</ele>
        <time>2020-05-24T17:09:46.000Z</time>
      </trkpt>
      <trkpt lat="46.96692" lon="6.00988">
        <ele>379</ele>
        <time>2020-05-24T17:09:48.000Z</time>
      </trkpt>
      <trkpt lat="46.96694" lon="6.00989">
        <ele>379</ele>
        <time>2020-05-24T17:09:50.000Z</time>
      </trkpt>
      <trkpt lat="46.96695" lon="6.00991">
        <ele>379</ele>
        <time>2020-05-24T17:09:52.000Z</time>
      </trkpt>
      <trkpt lat="46.96698" lon="6.00993">
        <ele>378.84313627066</ele>
        <time>2020-05-24T17:09:55.000Z</time>
      </trkpt>
      <trkpt lat="46.967" lon="6.00994">
        <ele>378</ele>
        <time>2020-05-24T17:09:57.000Z</time>
      </trkpt>
      <trkpt lat="46.96702" lon="6.00995">
        <ele>378</ele>
        <time>2020-05-24T17:09:59.000Z</time>
      </trkpt>
      <trkpt lat="46.96704" lon="6.00996">
        <ele>377.68627254132</ele>
        <time>2020-05-24T17:10:01.000Z</time>
      </trkpt>
      <trkpt lat="46.96707" lon="6.00997">
        <ele>376</ele>
        <time>2020-05-24T17:10:03.000Z</time>
      </trkpt>
      <trkpt lat="46.96708" lon="6.00998">
        <ele>376</ele>
        <time>2020-05-24T17:10:04.000Z</time>
      </trkpt>
      <trkpt lat="46.96709" lon="6.01">
        <ele>376</ele>
        <time>2020-05-24T17:10:06.000Z</time>
      </trkpt>
      <trkpt lat="46.96711" lon="6.01002">
        <ele>376</ele>
        <time>2020-05-24T17:10:09.000Z</time>
      </trkpt>
      <trkpt lat="46.9671" lon="6.00999">
        <ele>376</ele>
        <time>2020-05-24T17:10:13.000Z</time>
      </trkpt>
      <trkpt lat="46.96708" lon="6.00998">
        <ele>376</ele>
        <time>2020-05-24T17:10:16.000Z</time>
      </trkpt>
      <trkpt lat="46.96706" lon="6.00996">
        <ele>376</ele>
        <time>2020-05-24T17:10:19.000Z</time>
      </trkpt>
      <trkpt lat="46.96705" lon="6.00995">
        <ele>376</ele>
        <time>2020-05-24T17:10:21.000Z</time>
      </trkpt>
      <trkpt lat="46.96702" lon="6.00993">
        <ele>376.15686372934</ele>
        <time>2020-05-24T17:10:23.000Z</time>
      </trkpt>
      <trkpt lat="46.96701" lon="6.00992">
        <ele>378</ele>
        <time>2020-05-24T17:10:25.000Z</time>
      </trkpt>
      <trkpt lat="46.967" lon="6.00991">
        <ele>378</ele>
        <time>2020-05-24T17:10:26.000Z</time>
      </trkpt>
      <trkpt lat="46.96697" lon="6.00989">
        <ele>378.10638906288</ele>
        <time>2020-05-24T17:10:29.000Z</time>
      </trkpt>
      <trkpt lat="46.96694" lon="6.00985">
        <ele>379</ele>
        <time>2020-05-24T17:10:32.000Z</time>
      </trkpt>
      <trkpt lat="46.96687" lon="6.0098">
        <ele>380</ele>
        <time>2020-05-24T17:10:37.000Z</time>
      </trkpt>
      <trkpt lat="46.96685" lon="6.00979">
        <ele>379.91304347826</ele>
        <time>2020-05-24T17:10:39.000Z</time>
      </trkpt>
      <trkpt lat="46.96679" lon="6.00968">
        <ele>379</ele>
        <time>2020-05-24T17:10:46.000Z</time>
      </trkpt>
      <trkpt lat="46.96675" lon="6.00963">
        <ele>379</ele>
        <time>2020-05-24T17:10:49.000Z</time>
      </trkpt>
      <trkpt lat="46.96672" lon="6.00962">
        <ele>380</ele>
        <time>2020-05-24T17:10:58.000Z</time>
      </trkpt>
      <trkpt lat="46.96672" lon="6.00957">
        <ele>380</ele>
        <time>2020-05-24T17:11:02.000Z</time>
      </trkpt>
      <trkpt lat="46.9667" lon="6.00942">
        <ele>380</ele>
        <time>2020-05-24T17:11:10.000Z</time>
      </trkpt>
      <trkpt lat="46.96675" lon="6.00931">
        <ele>380</ele>
        <time>2020-05-24T17:11:18.000Z</time>
      </trkpt>
      <trkpt lat="46.96674" lon="6.00915">
        <ele>380</ele>
        <time>2020-05-24T17:11:25.000Z</time>
      </trkpt>
      <trkpt lat="46.96673" lon="6.00901">
        <ele>380</ele>
        <time>2020-05-24T17:11:33.000Z</time>
      </trkpt>
      <trkpt lat="46.96673" lon="6.00886">
        <ele>380</ele>
        <time>2020-05-24T17:11:39.000Z</time>
      </trkpt>
      <trkpt lat="46.96677" lon="6.00872">
        <ele>379</ele>
        <time>2020-05-24T17:12:05.000Z</time>
      </trkpt>
      <trkpt lat="46.96669" lon="6.00888">
        <ele>379</ele>
        <time>2020-05-24T17:12:09.000Z</time>
      </trkpt>
      <trkpt lat="46.96665" lon="6.00901">
        <ele>379.09677108566</ele>
        <time>2020-05-24T17:12:13.000Z</time>
      </trkpt>
      <trkpt lat="46.96669" lon="6.00913">
        <ele>380</ele>
        <time>2020-05-24T17:12:21.000Z</time>
      </trkpt>
      <trkpt lat="46.96679" lon="6.00911">
        <ele>381</ele>
        <time>2020-05-24T17:12:29.000Z</time>
      </trkpt>
      <trkpt lat="46.96681" lon="6.0091">
        <ele>381</ele>
        <time>2020-05-24T17:12:31.000Z</time>
      </trkpt>
      <trkpt lat="46.96683" lon="6.0091">
        <ele>381</ele>
        <time>2020-05-24T17:12:33.000Z</time>
      </trkpt>
      <trkpt lat="46.96685" lon="6.0091">
        <ele>381</ele>
        <time>2020-05-24T17:12:35.000Z</time>
      </trkpt>
      <trkpt lat="46.96687" lon="6.00911">
        <ele>381</ele>
        <time>2020-05-24T17:12:37.000Z</time>
      </trkpt>
      <trkpt lat="46.96691" lon="6.00913">
        <ele>381</ele>
        <time>2020-05-24T17:12:40.000Z</time>
      </trkpt>
      <trkpt lat="46.96693" lon="6.00915">
        <ele>381</ele>
        <time>2020-05-24T17:12:42.000Z</time>
      </trkpt>
      <trkpt lat="46.96694" lon="6.00917">
        <ele>381.04255348122</ele>
        <time>2020-05-24T17:12:44.000Z</time>
      </trkpt>
      <trkpt lat="46.96696" lon="6.00919">
        <ele>382</ele>
        <time>2020-05-24T17:12:46.000Z</time>
      </trkpt>
      <trkpt lat="46.96698" lon="6.00919">
        <ele>382</ele>
        <time>2020-05-24T17:12:48.000Z</time>
      </trkpt>
      <trkpt lat="46.967" lon="6.0092">
        <ele>383</ele>
        <time>2020-05-24T17:12:50.000Z</time>
      </trkpt>
      <trkpt lat="46.96701" lon="6.00921">
        <ele>383</ele>
        <time>2020-05-24T17:12:52.000Z</time>
      </trkpt>
      <trkpt lat="46.96703" lon="6.00923">
        <ele>383</ele>
        <time>2020-05-24T17:12:54.000Z</time>
      </trkpt>
      <trkpt lat="46.96705" lon="6.00925">
        <ele>383</ele>
        <time>2020-05-24T17:12:56.000Z</time>
      </trkpt>
      <trkpt lat="46.96707" lon="6.00925">
        <ele>383</ele>
        <time>2020-05-24T17:12:58.000Z</time>
      </trkpt>
      <trkpt lat="46.96709" lon="6.00924">
        <ele>382.8415836565</ele>
        <time>2020-05-24T17:13:00.000Z</time>
      </trkpt>
      <trkpt lat="46.96712" lon="6.00923">
        <ele>382</ele>
        <time>2020-05-24T17:13:02.000Z</time>
      </trkpt>
      <trkpt lat="46.96714" lon="6.00922">
        <ele>381.86138111955</ele>
        <time>2020-05-24T17:13:04.000Z</time>
      </trkpt>
      <trkpt lat="46.96717" lon="6.0092">
        <ele>381</ele>
        <time>2020-05-24T17:13:06.000Z</time>
      </trkpt>
      <trkpt lat="46.96718" lon="6.00918">
        <ele>381</ele>
        <time>2020-05-24T17:13:08.000Z</time>
      </trkpt>
      <trkpt lat="46.96721" lon="6.00917">
        <ele>380.8909084562</ele>
        <time>2020-05-24T17:13:10.000Z</time>
      </trkpt>
      <trkpt lat="46.96723" lon="6.00916">
        <ele>380</ele>
        <time>2020-05-24T17:13:12.000Z</time>
      </trkpt>
      <trkpt lat="46.96724" lon="6.00916">
        <ele>380</ele>
        <time>2020-05-24T17:13:14.000Z</time>
      </trkpt>
      <trkpt lat="46.96726" lon="6.00913">
        <ele>380</ele>
        <time>2020-05-24T17:13:16.000Z</time>
      </trkpt>
      <trkpt lat="46.96734" lon="6.00904">
        <ele>379</ele>
        <time>2020-05-24T17:13:24.000Z</time>
      </trkpt>
      <trkpt lat="46.96737" lon="6.00899">
        <ele>379</ele>
        <time>2020-05-24T17:13:26.000Z</time>
      </trkpt>
      <trkpt lat="46.96739" lon="6.00898">
        <ele>379</ele>
        <time>2020-05-24T17:13:27.000Z</time>
      </trkpt>
      <trkpt lat="46.96746" lon="6.00893">
        <ele>378</ele>
        <time>2020-05-24T17:13:32.000Z</time>
      </trkpt>
      <trkpt lat="46.96747" lon="6.0089">
        <ele>378</ele>
        <time>2020-05-24T17:13:35.000Z</time>
      </trkpt>
      <trkpt lat="46.96749" lon="6.00888">
        <ele>378</ele>
        <time>2020-05-24T17:13:37.000Z</time>
      </trkpt>
      <trkpt lat="46.96751" lon="6.00885">
        <ele>378</ele>
        <time>2020-05-24T17:13:39.000Z</time>
      </trkpt>
      <trkpt lat="46.96753" lon="6.00882">
        <ele>378</ele>
        <time>2020-05-24T17:13:41.000Z</time>
      </trkpt>
      <trkpt lat="46.96755" lon="6.00881">
        <ele>378</ele>
        <time>2020-05-24T17:13:43.000Z</time>
      </trkpt>
      <trkpt lat="46.96758" lon="6.0088">
        <ele>378</ele>
        <time>2020-05-24T17:13:46.000Z</time>
      </trkpt>
      <trkpt lat="46.96759" lon="6.00878">
        <ele>378</ele>
        <time>2020-05-24T17:13:48.000Z</time>
      </trkpt>
      <trkpt lat="46.96761" lon="6.00876">
        <ele>377.96551369006</ele>
        <time>2020-05-24T17:13:50.000Z</time>
      </trkpt>
      <trkpt lat="46.96763" lon="6.00873">
        <ele>377</ele>
        <time>2020-05-24T17:13:52.000Z</time>
      </trkpt>
      <trkpt lat="46.96764" lon="6.00871">
        <ele>377</ele>
        <time>2020-05-24T17:13:53.000Z</time>
      </trkpt>
      <trkpt lat="46.96765" lon="6.00868">
        <ele>377</ele>
        <time>2020-05-24T17:13:55.000Z</time>
      </trkpt>
      <trkpt lat="46.96766" lon="6.00865">
        <ele>377.13999539194</ele>
        <time>2020-05-24T17:13:57.000Z</time>
      </trkpt>
      <trkpt lat="46.96767" lon="6.00862">
        <ele>378</ele>
        <time>2020-05-24T17:13:59.000Z</time>
      </trkpt>
      <trkpt lat="46.96768" lon="6.00859">
        <ele>378</ele>
        <time>2020-05-24T17:14:01.000Z</time>
      </trkpt>
      <trkpt lat="46.96769" lon="6.00856">
        <ele>378</ele>
        <time>2020-05-24T17:14:02.000Z</time>
      </trkpt>
      <trkpt lat="46.9677" lon="6.00842">
        <ele>378</ele>
        <time>2020-05-24T17:14:05.000Z</time>
      </trkpt>
      <trkpt lat="46.96771" lon="6.00837">
        <ele>378</ele>
        <time>2020-05-24T17:14:07.000Z</time>
      </trkpt>
      <trkpt lat="46.96773" lon="6.00834">
        <ele>377.86000460806</ele>
        <time>2020-05-24T17:14:09.000Z</time>
      </trkpt>
      <trkpt lat="46.96777" lon="6.00822">
        <ele>378</ele>
        <time>2020-05-24T17:14:14.000Z</time>
      </trkpt>
      <trkpt lat="46.9678" lon="6.00816">
        <ele>379</ele>
        <time>2020-05-24T17:14:18.000Z</time>
      </trkpt>
      <trkpt lat="46.9678" lon="6.00813">
        <ele>379</ele>
        <time>2020-05-24T17:14:20.000Z</time>
      </trkpt>
      <trkpt lat="46.96783" lon="6.00804">
        <ele>378.95041838127</ele>
        <time>2020-05-24T17:14:27.000Z</time>
      </trkpt>
      <trkpt lat="46.96782" lon="6.00801">
        <ele>378</ele>
        <time>2020-05-24T17:14:29.000Z</time>
      </trkpt>
      <trkpt lat="46.96782" lon="6.00799">
        <ele>378</ele>
        <time>2020-05-24T17:14:31.000Z</time>
      </trkpt>
      <trkpt lat="46.96782" lon="6.00784">
        <ele>379</ele>
        <time>2020-05-24T17:14:37.000Z</time>
      </trkpt>
      <trkpt lat="46.96785" lon="6.00771">
        <ele>379</ele>
        <time>2020-05-24T17:14:44.000Z</time>
      </trkpt>
      <trkpt lat="46.96787" lon="6.00758">
        <ele>378</ele>
        <time>2020-05-24T17:14:49.000Z</time>
      </trkpt>
      <trkpt lat="46.96789" lon="6.00745">
        <ele>378</ele>
        <time>2020-05-24T17:14:57.000Z</time>
      </trkpt>
      <trkpt lat="46.9679" lon="6.00731">
        <ele>378</ele>
        <time>2020-05-24T17:15:04.000Z</time>
      </trkpt>
      <trkpt lat="46.96788" lon="6.00717">
        <ele>378</ele>
        <time>2020-05-24T17:15:11.000Z</time>
      </trkpt>
      <trkpt lat="46.96791" lon="6.00703">
        <ele>378</ele>
        <time>2020-05-24T17:15:21.000Z</time>
      </trkpt>
      <trkpt lat="46.96799" lon="6.00695">
        <ele>379</ele>
        <time>2020-05-24T17:15:28.000Z</time>
      </trkpt>
      <trkpt lat="46.968" lon="6.00694">
        <ele>379.15238141678</ele>
        <time>2020-05-24T17:15:30.000Z</time>
      </trkpt>
      <trkpt lat="46.96802" lon="6.00691">
        <ele>380</ele>
        <time>2020-05-24T17:15:32.000Z</time>
      </trkpt>
      <trkpt lat="46.96803" lon="6.00689">
        <ele>380</ele>
        <time>2020-05-24T17:15:34.000Z</time>
      </trkpt>
      <trkpt lat="46.96806" lon="6.00688">
        <ele>380</ele>
        <time>2020-05-24T17:15:42.000Z</time>
      </trkpt>
      <trkpt lat="46.96807" lon="6.00686">
        <ele>380</ele>
        <time>2020-05-24T17:15:46.000Z</time>
      </trkpt>
      <trkpt lat="46.96809" lon="6.0068">
        <ele>381</ele>
        <time>2020-05-24T17:15:50.000Z</time>
      </trkpt>
      <trkpt lat="46.9681" lon="6.00677">
        <ele>381</ele>
        <time>2020-05-24T17:15:52.000Z</time>
      </trkpt>
      <trkpt lat="46.96811" lon="6.00671">
        <ele>381</ele>
        <time>2020-05-24T17:15:55.000Z</time>
      </trkpt>
      <trkpt lat="46.96812" lon="6.00668">
        <ele>381</ele>
        <time>2020-05-24T17:15:57.000Z</time>
      </trkpt>
      <trkpt lat="46.96813" lon="6.00666">
        <ele>381</ele>
        <time>2020-05-24T17:15:59.000Z</time>
      </trkpt>
      <trkpt lat="46.96815" lon="6.00665">
        <ele>381</ele>
        <time>2020-05-24T17:16:02.000Z</time>
      </trkpt>
      <trkpt lat="46.96817" lon="6.00663">
        <ele>382</ele>
        <time>2020-05-24T17:16:05.000Z</time>
      </trkpt>
      <trkpt lat="46.96818" lon="6.00661">
        <ele>382</ele>
        <time>2020-05-24T17:16:07.000Z</time>
      </trkpt>
      <trkpt lat="46.96819" lon="6.00657">
        <ele>382</ele>
        <time>2020-05-24T17:16:10.000Z</time>
      </trkpt>
      <trkpt lat="46.9682" lon="6.00655">
        <ele>382</ele>
        <time>2020-05-24T17:16:12.000Z</time>
      </trkpt>
      <trkpt lat="46.96823" lon="6.00647">
        <ele>382</ele>
        <time>2020-05-24T17:16:16.000Z</time>
      </trkpt>
      <trkpt lat="46.96826" lon="6.0064">
        <ele>382</ele>
        <time>2020-05-24T17:16:20.000Z</time>
      </trkpt>
      <trkpt lat="46.96826" lon="6.00635">
        <ele>383</ele>
        <time>2020-05-24T17:16:23.000Z</time>
      </trkpt>
      <trkpt lat="46.96827" lon="6.00631">
        <ele>383</ele>
        <time>2020-05-24T17:16:25.000Z</time>
      </trkpt>
      <trkpt lat="46.96831" lon="6.00618">
        <ele>382</ele>
        <time>2020-05-24T17:16:30.000Z</time>
      </trkpt>
      <trkpt lat="46.96832" lon="6.00614">
        <ele>382</ele>
        <time>2020-05-24T17:16:32.000Z</time>
      </trkpt>
      <trkpt lat="46.96833" lon="6.00611">
        <ele>381.24369675587</ele>
        <time>2020-05-24T17:16:34.000Z</time>
      </trkpt>
      <trkpt lat="46.96834" lon="6.00609">
        <ele>381</ele>
        <time>2020-05-24T17:16:36.000Z</time>
      </trkpt>
      <trkpt lat="46.96836" lon="6.00605">
        <ele>381</ele>
        <time>2020-05-24T17:16:38.000Z</time>
      </trkpt>
      <trkpt lat="46.96837" lon="6.00602">
        <ele>381</ele>
        <time>2020-05-24T17:16:40.000Z</time>
      </trkpt>
      <trkpt lat="46.96838" lon="6.00599">
        <ele>381</ele>
        <time>2020-05-24T17:16:42.000Z</time>
      </trkpt>
      <trkpt lat="46.96839" lon="6.00596">
        <ele>381</ele>
        <time>2020-05-24T17:16:44.000Z</time>
      </trkpt>
      <trkpt lat="46.96841" lon="6.00593">
        <ele>381</ele>
        <time>2020-05-24T17:16:46.000Z</time>
      </trkpt>
      <trkpt lat="46.96842" lon="6.0059">
        <ele>381</ele>
        <time>2020-05-24T17:16:48.000Z</time>
      </trkpt>
      <trkpt lat="46.96848" lon="6.00578">
        <ele>381</ele>
        <time>2020-05-24T17:16:54.000Z</time>
      </trkpt>
      <trkpt lat="46.96854" lon="6.00567">
        <ele>381</ele>
        <time>2020-05-24T17:17:02.000Z</time>
      </trkpt>
      <trkpt lat="46.96858" lon="6.00561">
        <ele>380.84</ele>
        <time>2020-05-24T17:17:06.000Z</time>
      </trkpt>
      <trkpt lat="46.96863" lon="6.0055">
        <ele>380</ele>
        <time>2020-05-24T17:17:15.000Z</time>
      </trkpt>
      <trkpt lat="46.9687" lon="6.00539">
        <ele>378</ele>
        <time>2020-05-24T17:17:23.000Z</time>
      </trkpt>
      <trkpt lat="46.96879" lon="6.0053">
        <ele>378</ele>
        <time>2020-05-24T17:17:31.000Z</time>
      </trkpt>
      <trkpt lat="46.9688" lon="6.00527">
        <ele>378</ele>
        <time>2020-05-24T17:17:33.000Z</time>
      </trkpt>
      <trkpt lat="46.96883" lon="6.00525">
        <ele>378</ele>
        <time>2020-05-24T17:17:35.000Z</time>
      </trkpt>
      <trkpt lat="46.96885" lon="6.00523">
        <ele>378</ele>
        <time>2020-05-24T17:17:37.000Z</time>
      </trkpt>
      <trkpt lat="46.96887" lon="6.00515">
        <ele>378</ele>
        <time>2020-05-24T17:17:41.000Z</time>
      </trkpt>
      <trkpt lat="46.96889" lon="6.00513">
        <ele>378</ele>
        <time>2020-05-24T17:17:43.000Z</time>
      </trkpt>
      <trkpt lat="46.96891" lon="6.00511">
        <ele>378</ele>
        <time>2020-05-24T17:17:45.000Z</time>
      </trkpt>
      <trkpt lat="46.96892" lon="6.00508">
        <ele>378</ele>
        <time>2020-05-24T17:17:47.000Z</time>
      </trkpt>
      <trkpt lat="46.96894" lon="6.00505">
        <ele>378</ele>
        <time>2020-05-24T17:17:49.000Z</time>
      </trkpt>
      <trkpt lat="46.96895" lon="6.00503">
        <ele>378</ele>
        <time>2020-05-24T17:17:51.000Z</time>
      </trkpt>
      <trkpt lat="46.96898" lon="6.00501">
        <ele>378</ele>
        <time>2020-05-24T17:17:53.000Z</time>
      </trkpt>
      <trkpt lat="46.969" lon="6.00499">
        <ele>378</ele>
        <time>2020-05-24T17:17:55.000Z</time>
      </trkpt>
      <trkpt lat="46.96902" lon="6.00497">
        <ele>378</ele>
        <time>2020-05-24T17:17:57.000Z</time>
      </trkpt>
      <trkpt lat="46.96905" lon="6.00495">
        <ele>378</ele>
        <time>2020-05-24T17:17:59.000Z</time>
      </trkpt>
      <trkpt lat="46.96908" lon="6.00493">
        <ele>378</ele>
        <time>2020-05-24T17:18:01.000Z</time>
      </trkpt>
      <trkpt lat="46.96911" lon="6.0049">
        <ele>379</ele>
        <time>2020-05-24T17:18:04.000Z</time>
      </trkpt>
      <trkpt lat="46.96913" lon="6.00488">
        <ele>379</ele>
        <time>2020-05-24T17:18:06.000Z</time>
      </trkpt>
      <trkpt lat="46.96914" lon="6.00486">
        <ele>378</ele>
        <time>2020-05-24T17:18:08.000Z</time>
      </trkpt>
      <trkpt lat="46.96916" lon="6.00484">
        <ele>378</ele>
        <time>2020-05-24T17:18:10.000Z</time>
      </trkpt>
      <trkpt lat="46.96917" lon="6.00482">
        <ele>377.11450597983</ele>
        <time>2020-05-24T17:18:12.000Z</time>
      </trkpt>
      <trkpt lat="46.96918" lon="6.0048">
        <ele>377</ele>
        <time>2020-05-24T17:18:14.000Z</time>
      </trkpt>
      <trkpt lat="46.9692" lon="6.00478">
        <ele>377</ele>
        <time>2020-05-24T17:18:16.000Z</time>
      </trkpt>
      <trkpt lat="46.96921" lon="6.00475">
        <ele>377</ele>
        <time>2020-05-24T17:18:18.000Z</time>
      </trkpt>
      <trkpt lat="46.96923" lon="6.00473">
        <ele>377</ele>
        <time>2020-05-24T17:18:20.000Z</time>
      </trkpt>
      <trkpt lat="46.96925" lon="6.0047">
        <ele>377</ele>
        <time>2020-05-24T17:18:22.000Z</time>
      </trkpt>
      <trkpt lat="46.96927" lon="6.00468">
        <ele>377</ele>
        <time>2020-05-24T17:18:24.000Z</time>
      </trkpt>
      <trkpt lat="46.96929" lon="6.00466">
        <ele>377</ele>
        <time>2020-05-24T17:18:26.000Z</time>
      </trkpt>
      <trkpt lat="46.9693" lon="6.00463">
        <ele>377</ele>
        <time>2020-05-24T17:18:28.000Z</time>
      </trkpt>
      <trkpt lat="46.96932" lon="6.00461">
        <ele>377</ele>
        <time>2020-05-24T17:18:30.000Z</time>
      </trkpt>
      <trkpt lat="46.96933" lon="6.00458">
        <ele>377</ele>
        <time>2020-05-24T17:18:32.000Z</time>
      </trkpt>
      <trkpt lat="46.96934" lon="6.00456">
        <ele>377</ele>
        <time>2020-05-24T17:18:34.000Z</time>
      </trkpt>
      <trkpt lat="46.96936" lon="6.00451">
        <ele>377</ele>
        <time>2020-05-24T17:18:37.000Z</time>
      </trkpt>
      <trkpt lat="46.96938" lon="6.00448">
        <ele>377</ele>
        <time>2020-05-24T17:18:39.000Z</time>
      </trkpt>
      <trkpt lat="46.96941" lon="6.00446">
        <ele>377</ele>
        <time>2020-05-24T17:18:41.000Z</time>
      </trkpt>
      <trkpt lat="46.96943" lon="6.00443">
        <ele>377</ele>
        <time>2020-05-24T17:18:43.000Z</time>
      </trkpt>
      <trkpt lat="46.96945" lon="6.00441">
        <ele>377</ele>
        <time>2020-05-24T17:18:45.000Z</time>
      </trkpt>
      <trkpt lat="46.96947" lon="6.00439">
        <ele>377</ele>
        <time>2020-05-24T17:18:47.000Z</time>
      </trkpt>
      <trkpt lat="46.9695" lon="6.00437">
        <ele>377</ele>
        <time>2020-05-24T17:18:49.000Z</time>
      </trkpt>
      <trkpt lat="46.96954" lon="6.00434">
        <ele>377</ele>
        <time>2020-05-24T17:18:52.000Z</time>
      </trkpt>
      <trkpt lat="46.96956" lon="6.00432">
        <ele>377</ele>
        <time>2020-05-24T17:18:54.000Z</time>
      </trkpt>
      <trkpt lat="46.96957" lon="6.0043">
        <ele>377</ele>
        <time>2020-05-24T17:18:56.000Z</time>
      </trkpt>
      <trkpt lat="46.9696" lon="6.00427">
        <ele>377</ele>
        <time>2020-05-24T17:18:58.000Z</time>
      </trkpt>
      <trkpt lat="46.96962" lon="6.00426">
        <ele>377</ele>
        <time>2020-05-24T17:19:00.000Z</time>
      </trkpt>
      <trkpt lat="46.96964" lon="6.00423">
        <ele>377</ele>
        <time>2020-05-24T17:19:02.000Z</time>
      </trkpt>
      <trkpt lat="46.96966" lon="6.00421">
        <ele>376</ele>
        <time>2020-05-24T17:19:04.000Z</time>
      </trkpt>
      <trkpt lat="46.96967" lon="6.00418">
        <ele>376</ele>
        <time>2020-05-24T17:19:06.000Z</time>
      </trkpt>
      <trkpt lat="46.96969" lon="6.00415">
        <ele>376</ele>
        <time>2020-05-24T17:19:08.000Z</time>
      </trkpt>
      <trkpt lat="46.9697" lon="6.00411">
        <ele>376</ele>
        <time>2020-05-24T17:19:10.000Z</time>
      </trkpt>
      <trkpt lat="46.96971" lon="6.00407">
        <ele>376</ele>
        <time>2020-05-24T17:19:12.000Z</time>
      </trkpt>
      <trkpt lat="46.96972" lon="6.00404">
        <ele>376</ele>
        <time>2020-05-24T17:19:14.000Z</time>
      </trkpt>
      <trkpt lat="46.96974" lon="6.00401">
        <ele>376</ele>
        <time>2020-05-24T17:19:16.000Z</time>
      </trkpt>
      <trkpt lat="46.96975" lon="6.00398">
        <ele>376</ele>
        <time>2020-05-24T17:19:18.000Z</time>
      </trkpt>
      <trkpt lat="46.96976" lon="6.00396">
        <ele>376</ele>
        <time>2020-05-24T17:19:20.000Z</time>
      </trkpt>
      <trkpt lat="46.96976" lon="6.00392">
        <ele>376</ele>
        <time>2020-05-24T17:19:22.000Z</time>
      </trkpt>
      <trkpt lat="46.96978" lon="6.00388">
        <ele>376</ele>
        <time>2020-05-24T17:19:24.000Z</time>
      </trkpt>
      <trkpt lat="46.96979" lon="6.00385">
        <ele>377</ele>
        <time>2020-05-24T17:19:26.000Z</time>
      </trkpt>
      <trkpt lat="46.96979" lon="6.00381">
        <ele>377</ele>
        <time>2020-05-24T17:19:28.000Z</time>
      </trkpt>
      <trkpt lat="46.9698" lon="6.00377">
        <ele>376</ele>
        <time>2020-05-24T17:19:30.000Z</time>
      </trkpt>
      <trkpt lat="46.96981" lon="6.00374">
        <ele>376</ele>
        <time>2020-05-24T17:19:32.000Z</time>
      </trkpt>
      <trkpt lat="46.96982" lon="6.00371">
        <ele>377.15151789408</ele>
        <time>2020-05-24T17:19:34.000Z</time>
      </trkpt>
      <trkpt lat="46.96983" lon="6.00368">
        <ele>378</ele>
        <time>2020-05-24T17:19:36.000Z</time>
      </trkpt>
      <trkpt lat="46.96984" lon="6.00365">
        <ele>378</ele>
        <time>2020-05-24T17:19:38.000Z</time>
      </trkpt>
      <trkpt lat="46.96985" lon="6.00362">
        <ele>378</ele>
        <time>2020-05-24T17:19:40.000Z</time>
      </trkpt>
      <trkpt lat="46.96986" lon="6.00359">
        <ele>378</ele>
        <time>2020-05-24T17:19:42.000Z</time>
      </trkpt>
      <trkpt lat="46.96987" lon="6.00356">
        <ele>378</ele>
        <time>2020-05-24T17:19:44.000Z</time>
      </trkpt>
      <trkpt lat="46.96987" lon="6.00353">
        <ele>378</ele>
        <time>2020-05-24T17:19:46.000Z</time>
      </trkpt>
      <trkpt lat="46.96987" lon="6.00347">
        <ele>377.12371174833</ele>
        <time>2020-05-24T17:19:49.000Z</time>
      </trkpt>
      <trkpt lat="46.96988" lon="6.00344">
        <ele>378</ele>
        <time>2020-05-24T17:19:51.000Z</time>
      </trkpt>
      <trkpt lat="46.9699" lon="6.0034">
        <ele>378.02424247126</ele>
        <time>2020-05-24T17:19:53.000Z</time>
      </trkpt>
      <trkpt lat="46.96991" lon="6.00337">
        <ele>379</ele>
        <time>2020-05-24T17:19:55.000Z</time>
      </trkpt>
      <trkpt lat="46.96992" lon="6.00335">
        <ele>379</ele>
        <time>2020-05-24T17:19:57.000Z</time>
      </trkpt>
      <trkpt lat="46.96993" lon="6.00332">
        <ele>379</ele>
        <time>2020-05-24T17:19:59.000Z</time>
      </trkpt>
      <trkpt lat="46.96994" lon="6.00328">
        <ele>379</ele>
        <time>2020-05-24T17:20:01.000Z</time>
      </trkpt>
      <trkpt lat="46.96995" lon="6.00325">
        <ele>379</ele>
        <time>2020-05-24T17:20:03.000Z</time>
      </trkpt>
      <trkpt lat="46.96996" lon="6.00323">
        <ele>379</ele>
        <time>2020-05-24T17:20:05.000Z</time>
      </trkpt>
      <trkpt lat="46.96997" lon="6.00319">
        <ele>379</ele>
        <time>2020-05-24T17:20:08.000Z</time>
      </trkpt>
      <trkpt lat="46.96998" lon="6.00316">
        <ele>379</ele>
        <time>2020-05-24T17:20:10.000Z</time>
      </trkpt>
      <trkpt lat="46.96999" lon="6.00313">
        <ele>379.95081468425</ele>
        <time>2020-05-24T17:20:12.000Z</time>
      </trkpt>
      <trkpt lat="46.97" lon="6.00309">
        <ele>380</ele>
        <time>2020-05-24T17:20:14.000Z</time>
      </trkpt>
      <trkpt lat="46.97001" lon="6.00307">
        <ele>380</ele>
        <time>2020-05-24T17:20:16.000Z</time>
      </trkpt>
      <trkpt lat="46.97002" lon="6.00304">
        <ele>380</ele>
        <time>2020-05-24T17:20:18.000Z</time>
      </trkpt>
      <trkpt lat="46.97003" lon="6.00302">
        <ele>380</ele>
        <time>2020-05-24T17:20:20.000Z</time>
      </trkpt>
      <trkpt lat="46.97004" lon="6.00299">
        <ele>380</ele>
        <time>2020-05-24T17:20:22.000Z</time>
      </trkpt>
      <trkpt lat="46.97004" lon="6.00295">
        <ele>380</ele>
        <time>2020-05-24T17:20:24.000Z</time>
      </trkpt>
      <trkpt lat="46.97004" lon="6.00292">
        <ele>380</ele>
        <time>2020-05-24T17:20:26.000Z</time>
      </trkpt>
      <trkpt lat="46.97005" lon="6.00289">
        <ele>380</ele>
        <time>2020-05-24T17:20:28.000Z</time>
      </trkpt>
      <trkpt lat="46.97006" lon="6.00286">
        <ele>380</ele>
        <time>2020-05-24T17:20:30.000Z</time>
      </trkpt>
      <trkpt lat="46.97008" lon="6.00283">
        <ele>380.14000460794</ele>
        <time>2020-05-24T17:20:32.000Z</time>
      </trkpt>
      <trkpt lat="46.97008" lon="6.0028">
        <ele>381</ele>
        <time>2020-05-24T17:20:34.000Z</time>
      </trkpt>
      <trkpt lat="46.97009" lon="6.00276">
        <ele>381</ele>
        <time>2020-05-24T17:20:36.000Z</time>
      </trkpt>
      <trkpt lat="46.9701" lon="6.00272">
        <ele>381</ele>
        <time>2020-05-24T17:20:38.000Z</time>
      </trkpt>
      <trkpt lat="46.9701" lon="6.00268">
        <ele>381</ele>
        <time>2020-05-24T17:20:40.000Z</time>
      </trkpt>
      <trkpt lat="46.97011" lon="6.00265">
        <ele>380.86086995236</ele>
        <time>2020-05-24T17:20:42.000Z</time>
      </trkpt>
      <trkpt lat="46.97012" lon="6.00261">
        <ele>381</ele>
        <time>2020-05-24T17:20:45.000Z</time>
      </trkpt>
      <trkpt lat="46.97013" lon="6.00258">
        <ele>381</ele>
        <time>2020-05-24T17:20:47.000Z</time>
      </trkpt>
      <trkpt lat="46.97014" lon="6.00255">
        <ele>381</ele>
        <time>2020-05-24T17:20:49.000Z</time>
      </trkpt>
      <trkpt lat="46.97015" lon="6.00253">
        <ele>380</ele>
        <time>2020-05-24T17:20:52.000Z</time>
      </trkpt>
      <trkpt lat="46.97016" lon="6.0025">
        <ele>380</ele>
        <time>2020-05-24T17:20:54.000Z</time>
      </trkpt>
      <trkpt lat="46.97017" lon="6.00246">
        <ele>380</ele>
        <time>2020-05-24T17:20:56.000Z</time>
      </trkpt>
      <trkpt lat="46.97017" lon="6.00243">
        <ele>380</ele>
        <time>2020-05-24T17:20:58.000Z</time>
      </trkpt>
      <trkpt lat="46.97019" lon="6.0024">
        <ele>380</ele>
        <time>2020-05-24T17:21:00.000Z</time>
      </trkpt>
      <trkpt lat="46.9702" lon="6.00237">
        <ele>380</ele>
        <time>2020-05-24T17:21:02.000Z</time>
      </trkpt>
      <trkpt lat="46.97022" lon="6.00234">
        <ele>380</ele>
        <time>2020-05-24T17:21:04.000Z</time>
      </trkpt>
      <trkpt lat="46.97023" lon="6.00232">
        <ele>380</ele>
        <time>2020-05-24T17:21:06.000Z</time>
      </trkpt>
      <trkpt lat="46.97024" lon="6.0023">
        <ele>379</ele>
        <time>2020-05-24T17:21:08.000Z</time>
      </trkpt>
      <trkpt lat="46.97025" lon="6.00227">
        <ele>379</ele>
        <time>2020-05-24T17:21:10.000Z</time>
      </trkpt>
      <trkpt lat="46.97027" lon="6.00224">
        <ele>379</ele>
        <time>2020-05-24T17:21:12.000Z</time>
      </trkpt>
      <trkpt lat="46.97028" lon="6.00222">
        <ele>379</ele>
        <time>2020-05-24T17:21:14.000Z</time>
      </trkpt>
      <trkpt lat="46.97029" lon="6.00219">
        <ele>379</ele>
        <time>2020-05-24T17:21:16.000Z</time>
      </trkpt>
      <trkpt lat="46.97031" lon="6.00218">
        <ele>378</ele>
        <time>2020-05-24T17:21:18.000Z</time>
      </trkpt>
      <trkpt lat="46.97033" lon="6.00216">
        <ele>378</ele>
        <time>2020-05-24T17:21:20.000Z</time>
      </trkpt>
      <trkpt lat="46.97035" lon="6.00215">
        <ele>378</ele>
        <time>2020-05-24T17:21:22.000Z</time>
      </trkpt>
      <trkpt lat="46.97036" lon="6.00213">
        <ele>378</ele>
        <time>2020-05-24T17:21:24.000Z</time>
      </trkpt>
      <trkpt lat="46.97038" lon="6.0021">
        <ele>377</ele>
        <time>2020-05-24T17:21:27.000Z</time>
      </trkpt>
      <trkpt lat="46.97039" lon="6.00207">
        <ele>376.84848210592</ele>
        <time>2020-05-24T17:21:29.000Z</time>
      </trkpt>
      <trkpt lat="46.97041" lon="6.00205">
        <ele>376</ele>
        <time>2020-05-24T17:21:31.000Z</time>
      </trkpt>
      <trkpt lat="46.97043" lon="6.00204">
        <ele>376</ele>
        <time>2020-05-24T17:21:33.000Z</time>
      </trkpt>
      <trkpt lat="46.97045" lon="6.00201">
        <ele>375</ele>
        <time>2020-05-24T17:21:36.000Z</time>
      </trkpt>
      <trkpt lat="46.97046" lon="6.00199">
        <ele>375</ele>
        <time>2020-05-24T17:21:38.000Z</time>
      </trkpt>
      <trkpt lat="46.97048" lon="6.00196">
        <ele>374</ele>
        <time>2020-05-24T17:21:40.000Z</time>
      </trkpt>
      <trkpt lat="46.9705" lon="6.00195">
        <ele>374</ele>
        <time>2020-05-24T17:21:42.000Z</time>
      </trkpt>
      <trkpt lat="46.97052" lon="6.00191">
        <ele>373</ele>
        <time>2020-05-24T17:21:45.000Z</time>
      </trkpt>
      <trkpt lat="46.97052" lon="6.00188">
        <ele>373</ele>
        <time>2020-05-24T17:21:47.000Z</time>
      </trkpt>
      <trkpt lat="46.97053" lon="6.00185">
        <ele>373</ele>
        <time>2020-05-24T17:21:49.000Z</time>
      </trkpt>
      <trkpt lat="46.97055" lon="6.00183">
        <ele>373</ele>
        <time>2020-05-24T17:21:51.000Z</time>
      </trkpt>
      <trkpt lat="46.97056" lon="6.0018">
        <ele>373</ele>
        <time>2020-05-24T17:21:53.000Z</time>
      </trkpt>
      <trkpt lat="46.97056" lon="6.00177">
        <ele>373</ele>
        <time>2020-05-24T17:21:55.000Z</time>
      </trkpt>
      <trkpt lat="46.97058" lon="6.00174">
        <ele>373</ele>
        <time>2020-05-24T17:21:57.000Z</time>
      </trkpt>
      <trkpt lat="46.97059" lon="6.0017">
        <ele>373</ele>
        <time>2020-05-24T17:21:59.000Z</time>
      </trkpt>
      <trkpt lat="46.9706" lon="6.00166">
        <ele>373</ele>
        <time>2020-05-24T17:22:01.000Z</time>
      </trkpt>
      <trkpt lat="46.97061" lon="6.00162">
        <ele>373</ele>
        <time>2020-05-24T17:22:03.000Z</time>
      </trkpt>
      <trkpt lat="46.97062" lon="6.00158">
        <ele>373</ele>
        <time>2020-05-24T17:22:05.000Z</time>
      </trkpt>
      <trkpt lat="46.97063" lon="6.00156">
        <ele>373</ele>
        <time>2020-05-24T17:22:06.000Z</time>
      </trkpt>
      <trkpt lat="46.97064" lon="6.00152">
        <ele>373</ele>
        <time>2020-05-24T17:22:08.000Z</time>
      </trkpt>
      <trkpt lat="46.97065" lon="6.00148">
        <ele>373</ele>
        <time>2020-05-24T17:22:10.000Z</time>
      </trkpt>
      <trkpt lat="46.97067" lon="6.00145">
        <ele>373</ele>
        <time>2020-05-24T17:22:12.000Z</time>
      </trkpt>
      <trkpt lat="46.97068" lon="6.00142">
        <ele>373</ele>
        <time>2020-05-24T17:22:14.000Z</time>
      </trkpt>
      <trkpt lat="46.97069" lon="6.00138">
        <ele>373</ele>
        <time>2020-05-24T17:22:16.000Z</time>
      </trkpt>
      <trkpt lat="46.9707" lon="6.00133">
        <ele>373</ele>
        <time>2020-05-24T17:22:18.000Z</time>
      </trkpt>
      <trkpt lat="46.9707" lon="6.0013">
        <ele>373</ele>
        <time>2020-05-24T17:22:20.000Z</time>
      </trkpt>
      <trkpt lat="46.97071" lon="6.00127">
        <ele>373</ele>
        <time>2020-05-24T17:22:22.000Z</time>
      </trkpt>
      <trkpt lat="46.97072" lon="6.00124">
        <ele>373</ele>
        <time>2020-05-24T17:22:24.000Z</time>
      </trkpt>
      <trkpt lat="46.97073" lon="6.00121">
        <ele>373</ele>
        <time>2020-05-24T17:22:26.000Z</time>
      </trkpt>
      <trkpt lat="46.97073" lon="6.00118">
        <ele>373</ele>
        <time>2020-05-24T17:22:28.000Z</time>
      </trkpt>
      <trkpt lat="46.97073" lon="6.00115">
        <ele>373</ele>
        <time>2020-05-24T17:22:30.000Z</time>
      </trkpt>
      <trkpt lat="46.97074" lon="6.00112">
        <ele>373</ele>
        <time>2020-05-24T17:22:32.000Z</time>
      </trkpt>
      <trkpt lat="46.97075" lon="6.00109">
        <ele>373</ele>
        <time>2020-05-24T17:22:34.000Z</time>
      </trkpt>
      <trkpt lat="46.97076" lon="6.00106">
        <ele>373</ele>
        <time>2020-05-24T17:22:36.000Z</time>
      </trkpt>
      <trkpt lat="46.97077" lon="6.00103">
        <ele>373</ele>
        <time>2020-05-24T17:22:38.000Z</time>
      </trkpt>
      <trkpt lat="46.97078" lon="6.00101">
        <ele>373</ele>
        <time>2020-05-24T17:22:40.000Z</time>
      </trkpt>
      <trkpt lat="46.97082" lon="6.00092">
        <ele>373</ele>
        <time>2020-05-24T17:22:45.000Z</time>
      </trkpt>
      <trkpt lat="46.97082" lon="6.00087">
        <ele>374</ele>
        <time>2020-05-24T17:22:47.000Z</time>
      </trkpt>
      <trkpt lat="46.97083" lon="6.00084">
        <ele>374</ele>
        <time>2020-05-24T17:22:49.000Z</time>
      </trkpt>
      <trkpt lat="46.97083" lon="6.0008">
        <ele>374</ele>
        <time>2020-05-24T17:22:51.000Z</time>
      </trkpt>
      <trkpt lat="46.97084" lon="6.00077">
        <ele>374</ele>
        <time>2020-05-24T17:22:53.000Z</time>
      </trkpt>
      <trkpt lat="46.97084" lon="6.00073">
        <ele>374</ele>
        <time>2020-05-24T17:22:55.000Z</time>
      </trkpt>
      <trkpt lat="46.97084" lon="6.0007">
        <ele>374.91338352533</ele>
        <time>2020-05-24T17:22:57.000Z</time>
      </trkpt>
      <trkpt lat="46.97083" lon="6.00067">
        <ele>375</ele>
        <time>2020-05-24T17:22:59.000Z</time>
      </trkpt>
      <trkpt lat="46.97084" lon="6.00064">
        <ele>375</ele>
        <time>2020-05-24T17:23:02.000Z</time>
      </trkpt>
      <trkpt lat="46.97085" lon="6.0006">
        <ele>375</ele>
        <time>2020-05-24T17:23:05.000Z</time>
      </trkpt>
      <trkpt lat="46.97085" lon="6.00057">
        <ele>375</ele>
        <time>2020-05-24T17:23:07.000Z</time>
      </trkpt>
      <trkpt lat="46.97085" lon="6.00054">
        <ele>376</ele>
        <time>2020-05-24T17:23:10.000Z</time>
      </trkpt>
      <trkpt lat="46.97086" lon="6.00051">
        <ele>376</ele>
        <time>2020-05-24T17:23:13.000Z</time>
      </trkpt>
      <trkpt lat="46.97087" lon="6.00048">
        <ele>376</ele>
        <time>2020-05-24T17:23:15.000Z</time>
      </trkpt>
      <trkpt lat="46.97087" lon="6.00043">
        <ele>376</ele>
        <time>2020-05-24T17:23:17.000Z</time>
      </trkpt>
      <trkpt lat="46.97093" lon="6.00031">
        <ele>377</ele>
        <time>2020-05-24T17:23:23.000Z</time>
      </trkpt>
      <trkpt lat="46.97096" lon="6.00027">
        <ele>377</ele>
        <time>2020-05-24T17:23:25.000Z</time>
      </trkpt>
      <trkpt lat="46.97096" lon="6.00023">
        <ele>377</ele>
        <time>2020-05-24T17:23:27.000Z</time>
      </trkpt>
      <trkpt lat="46.97096" lon="6.0002">
        <ele>377.14285154515</ele>
        <time>2020-05-24T17:23:29.000Z</time>
      </trkpt>
      <trkpt lat="46.97096" lon="6.00017">
        <ele>378</ele>
        <time>2020-05-24T17:23:31.000Z</time>
      </trkpt>
      <trkpt lat="46.97097" lon="6.00014">
        <ele>378</ele>
        <time>2020-05-24T17:23:33.000Z</time>
      </trkpt>
      <trkpt lat="46.97097" lon="6.0001">
        <ele>378.89565246427</ele>
        <time>2020-05-24T17:23:35.000Z</time>
      </trkpt>
      <trkpt lat="46.97097" lon="6.00008">
        <ele>379</ele>
        <time>2020-05-24T17:23:37.000Z</time>
      </trkpt>
      <trkpt lat="46.97098" lon="6.00005">
        <ele>378.10884330048</ele>
        <time>2020-05-24T17:23:39.000Z</time>
      </trkpt>
      <trkpt lat="46.97098" lon="6.00003">
        <ele>379</ele>
        <time>2020-05-24T17:23:41.000Z</time>
      </trkpt>
      <trkpt lat="46.97102" lon="5.99989">
        <ele>379</ele>
        <time>2020-05-24T17:23:48.000Z</time>
      </trkpt>
      <trkpt lat="46.97107" lon="5.99977">
        <ele>380.14414372859</ele>
        <time>2020-05-24T17:23:58.000Z</time>
      </trkpt>
      <trkpt lat="46.97113" lon="5.99965">
        <ele>380</ele>
        <time>2020-05-24T17:24:09.000Z</time>
      </trkpt>
      <trkpt lat="46.97114" lon="5.99963">
        <ele>380</ele>
        <time>2020-05-24T17:24:11.000Z</time>
      </trkpt>
      <trkpt lat="46.97116" lon="5.99961">
        <ele>380</ele>
        <time>2020-05-24T17:24:14.000Z</time>
      </trkpt>
      <trkpt lat="46.97117" lon="5.99959">
        <ele>380</ele>
        <time>2020-05-24T17:24:17.000Z</time>
      </trkpt>
      <trkpt lat="46.97118" lon="5.99955">
        <ele>380</ele>
        <time>2020-05-24T17:24:19.000Z</time>
      </trkpt>
      <trkpt lat="46.9712" lon="5.99952">
        <ele>380</ele>
        <time>2020-05-24T17:24:21.000Z</time>
      </trkpt>
      <trkpt lat="46.97121" lon="5.99949">
        <ele>380</ele>
        <time>2020-05-24T17:24:23.000Z</time>
      </trkpt>
      <trkpt lat="46.97122" lon="5.99945">
        <ele>380</ele>
        <time>2020-05-24T17:24:25.000Z</time>
      </trkpt>
      <trkpt lat="46.97124" lon="5.99943">
        <ele>380</ele>
        <time>2020-05-24T17:24:27.000Z</time>
      </trkpt>
      <trkpt lat="46.97125" lon="5.99941">
        <ele>380</ele>
        <time>2020-05-24T17:24:29.000Z</time>
      </trkpt>
      <trkpt lat="46.97127" lon="5.99938">
        <ele>380</ele>
        <time>2020-05-24T17:24:32.000Z</time>
      </trkpt>
      <trkpt lat="46.97129" lon="5.99936">
        <ele>380</ele>
        <time>2020-05-24T17:24:34.000Z</time>
      </trkpt>
      <trkpt lat="46.97131" lon="5.99934">
        <ele>380</ele>
        <time>2020-05-24T17:24:36.000Z</time>
      </trkpt>
      <trkpt lat="46.97133" lon="5.99933">
        <ele>380</ele>
        <time>2020-05-24T17:24:39.000Z</time>
      </trkpt>
      <trkpt lat="46.97135" lon="5.99932">
        <ele>380</ele>
        <time>2020-05-24T17:24:41.000Z</time>
      </trkpt>
      <trkpt lat="46.97137" lon="5.99929">
        <ele>379</ele>
        <time>2020-05-24T17:24:43.000Z</time>
      </trkpt>
      <trkpt lat="46.97139" lon="5.99928">
        <ele>379</ele>
        <time>2020-05-24T17:24:45.000Z</time>
      </trkpt>
      <trkpt lat="46.97141" lon="5.99926">
        <ele>379</ele>
        <time>2020-05-24T17:24:47.000Z</time>
      </trkpt>
      <trkpt lat="46.97143" lon="5.99924">
        <ele>379</ele>
        <time>2020-05-24T17:24:49.000Z</time>
      </trkpt>
      <trkpt lat="46.97146" lon="5.99921">
        <ele>379</ele>
        <time>2020-05-24T17:24:51.000Z</time>
      </trkpt>
      <trkpt lat="46.97148" lon="5.99919">
        <ele>379</ele>
        <time>2020-05-24T17:24:53.000Z</time>
      </trkpt>
      <trkpt lat="46.9715" lon="5.99917">
        <ele>379</ele>
        <time>2020-05-24T17:24:55.000Z</time>
      </trkpt>
      <trkpt lat="46.97151" lon="5.99916">
        <ele>379</ele>
        <time>2020-05-24T17:24:57.000Z</time>
      </trkpt>
      <trkpt lat="46.97154" lon="5.99915">
        <ele>379</ele>
        <time>2020-05-24T17:24:59.000Z</time>
      </trkpt>
      <trkpt lat="46.97156" lon="5.99913">
        <ele>379</ele>
        <time>2020-05-24T17:25:01.000Z</time>
      </trkpt>
      <trkpt lat="46.97159" lon="5.99911">
        <ele>379</ele>
        <time>2020-05-24T17:25:03.000Z</time>
      </trkpt>
      <trkpt lat="46.97161" lon="5.99909">
        <ele>379</ele>
        <time>2020-05-24T17:25:05.000Z</time>
      </trkpt>
      <trkpt lat="46.97163" lon="5.99909">
        <ele>379</ele>
        <time>2020-05-24T17:25:07.000Z</time>
      </trkpt>
      <trkpt lat="46.97165" lon="5.99908">
        <ele>379</ele>
        <time>2020-05-24T17:25:09.000Z</time>
      </trkpt>
      <trkpt lat="46.97167" lon="5.99906">
        <ele>379</ele>
        <time>2020-05-24T17:25:11.000Z</time>
      </trkpt>
      <trkpt lat="46.97169" lon="5.99905">
        <ele>379</ele>
        <time>2020-05-24T17:25:13.000Z</time>
      </trkpt>
      <trkpt lat="46.97171" lon="5.99903">
        <ele>379</ele>
        <time>2020-05-24T17:25:15.000Z</time>
      </trkpt>
      <trkpt lat="46.97173" lon="5.99902">
        <ele>379</ele>
        <time>2020-05-24T17:25:17.000Z</time>
      </trkpt>
      <trkpt lat="46.97175" lon="5.99901">
        <ele>379</ele>
        <time>2020-05-24T17:25:19.000Z</time>
      </trkpt>
      <trkpt lat="46.97177" lon="5.999">
        <ele>378</ele>
        <time>2020-05-24T17:25:21.000Z</time>
      </trkpt>
      <trkpt lat="46.97179" lon="5.99899">
        <ele>378</ele>
        <time>2020-05-24T17:25:23.000Z</time>
      </trkpt>
      <trkpt lat="46.97181" lon="5.99897">
        <ele>378</ele>
        <time>2020-05-24T17:25:25.000Z</time>
      </trkpt>
      <trkpt lat="46.97184" lon="5.99896">
        <ele>378</ele>
        <time>2020-05-24T17:25:27.000Z</time>
      </trkpt>
      <trkpt lat="46.97186" lon="5.99895">
        <ele>378</ele>
        <time>2020-05-24T17:25:30.000Z</time>
      </trkpt>
      <trkpt lat="46.97189" lon="5.99894">
        <ele>377</ele>
        <time>2020-05-24T17:25:33.000Z</time>
      </trkpt>
      <trkpt lat="46.97191" lon="5.99893">
        <ele>376.98837572745</ele>
        <time>2020-05-24T17:25:35.000Z</time>
      </trkpt>
      <trkpt lat="46.97193" lon="5.99892">
        <ele>376</ele>
        <time>2020-05-24T17:25:37.000Z</time>
      </trkpt>
      <trkpt lat="46.97195" lon="5.99891">
        <ele>376</ele>
        <time>2020-05-24T17:25:39.000Z</time>
      </trkpt>
      <trkpt lat="46.97197" lon="5.99889">
        <ele>376</ele>
        <time>2020-05-24T17:25:41.000Z</time>
      </trkpt>
      <trkpt lat="46.97199" lon="5.99888">
        <ele>375</ele>
        <time>2020-05-24T17:25:43.000Z</time>
      </trkpt>
      <trkpt lat="46.97201" lon="5.99887">
        <ele>375</ele>
        <time>2020-05-24T17:25:45.000Z</time>
      </trkpt>
      <trkpt lat="46.97204" lon="5.99886">
        <ele>375</ele>
        <time>2020-05-24T17:25:47.000Z</time>
      </trkpt>
      <trkpt lat="46.97207" lon="5.99886">
        <ele>375</ele>
        <time>2020-05-24T17:25:50.000Z</time>
      </trkpt>
      <trkpt lat="46.9721" lon="5.99885">
        <ele>374</ele>
        <time>2020-05-24T17:25:53.000Z</time>
      </trkpt>
      <trkpt lat="46.97213" lon="5.99884">
        <ele>374</ele>
        <time>2020-05-24T17:25:55.000Z</time>
      </trkpt>
      <trkpt lat="46.97215" lon="5.99883">
        <ele>374</ele>
        <time>2020-05-24T17:25:57.000Z</time>
      </trkpt>
      <trkpt lat="46.97218" lon="5.9988">
        <ele>374</ele>
        <time>2020-05-24T17:25:59.000Z</time>
      </trkpt>
      <trkpt lat="46.97221" lon="5.99878">
        <ele>374.11579245207</ele>
        <time>2020-05-24T17:26:01.000Z</time>
      </trkpt>
      <trkpt lat="46.97223" lon="5.99875">
        <ele>375</ele>
        <time>2020-05-24T17:26:03.000Z</time>
      </trkpt>
      <trkpt lat="46.97224" lon="5.99871">
        <ele>375</ele>
        <time>2020-05-24T17:26:05.000Z</time>
      </trkpt>
      <trkpt lat="46.97226" lon="5.99868">
        <ele>375</ele>
        <time>2020-05-24T17:26:07.000Z</time>
      </trkpt>
      <trkpt lat="46.97228" lon="5.99864">
        <ele>375</ele>
        <time>2020-05-24T17:26:09.000Z</time>
      </trkpt>
      <trkpt lat="46.97229" lon="5.9986">
        <ele>375</ele>
        <time>2020-05-24T17:26:11.000Z</time>
      </trkpt>
      <trkpt lat="46.97232" lon="5.99856">
        <ele>374</ele>
        <time>2020-05-24T17:26:13.000Z</time>
      </trkpt>
      <trkpt lat="46.97233" lon="5.99852">
        <ele>374</ele>
        <time>2020-05-24T17:26:15.000Z</time>
      </trkpt>
      <trkpt lat="46.97235" lon="5.9985">
        <ele>374</ele>
        <time>2020-05-24T17:26:17.000Z</time>
      </trkpt>
      <trkpt lat="46.97238" lon="5.99847">
        <ele>374</ele>
        <time>2020-05-24T17:26:19.000Z</time>
      </trkpt>
      <trkpt lat="46.9724" lon="5.99845">
        <ele>374</ele>
        <time>2020-05-24T17:26:21.000Z</time>
      </trkpt>
      <trkpt lat="46.97242" lon="5.99843">
        <ele>374.13999539194</ele>
        <time>2020-05-24T17:26:23.000Z</time>
      </trkpt>
      <trkpt lat="46.97244" lon="5.9984">
        <ele>375.11940355536</ele>
        <time>2020-05-24T17:26:25.000Z</time>
      </trkpt>
      <trkpt lat="46.97245" lon="5.99838">
        <ele>376</ele>
        <time>2020-05-24T17:26:27.000Z</time>
      </trkpt>
      <trkpt lat="46.97247" lon="5.99835">
        <ele>376</ele>
        <time>2020-05-24T17:26:29.000Z</time>
      </trkpt>
      <trkpt lat="46.97248" lon="5.99832">
        <ele>377</ele>
        <time>2020-05-24T17:26:31.000Z</time>
      </trkpt>
      <trkpt lat="46.97249" lon="5.99829">
        <ele>377</ele>
        <time>2020-05-24T17:26:33.000Z</time>
      </trkpt>
      <trkpt lat="46.9725" lon="5.99827">
        <ele>377</ele>
        <time>2020-05-24T17:26:35.000Z</time>
      </trkpt>
      <trkpt lat="46.97252" lon="5.99824">
        <ele>377.11678859396</ele>
        <time>2020-05-24T17:26:37.000Z</time>
      </trkpt>
      <trkpt lat="46.97253" lon="5.99822">
        <ele>378</ele>
        <time>2020-05-24T17:26:39.000Z</time>
      </trkpt>
      <trkpt lat="46.97254" lon="5.99819">
        <ele>379</ele>
        <time>2020-05-24T17:26:41.000Z</time>
      </trkpt>
      <trkpt lat="46.97255" lon="5.99816">
        <ele>379</ele>
        <time>2020-05-24T17:26:43.000Z</time>
      </trkpt>
      <trkpt lat="46.97256" lon="5.99813">
        <ele>379</ele>
        <time>2020-05-24T17:26:45.000Z</time>
      </trkpt>
      <trkpt lat="46.97257" lon="5.9981">
        <ele>379</ele>
        <time>2020-05-24T17:26:47.000Z</time>
      </trkpt>
      <trkpt lat="46.97258" lon="5.99807">
        <ele>379</ele>
        <time>2020-05-24T17:26:49.000Z</time>
      </trkpt>
      <trkpt lat="46.97259" lon="5.99804">
        <ele>378</ele>
        <time>2020-05-24T17:26:52.000Z</time>
      </trkpt>
      <trkpt lat="46.9726" lon="5.99801">
        <ele>378</ele>
        <time>2020-05-24T17:26:54.000Z</time>
      </trkpt>
      <trkpt lat="46.9726" lon="5.99798">
        <ele>378</ele>
        <time>2020-05-24T17:26:56.000Z</time>
      </trkpt>
      <trkpt lat="46.97261" lon="5.99794">
        <ele>378</ele>
        <time>2020-05-24T17:26:58.000Z</time>
      </trkpt>
      <trkpt lat="46.97262" lon="5.99791">
        <ele>378</ele>
        <time>2020-05-24T17:27:00.000Z</time>
      </trkpt>
      <trkpt lat="46.97262" lon="5.99788">
        <ele>377</ele>
        <time>2020-05-24T17:27:02.000Z</time>
      </trkpt>
      <trkpt lat="46.97263" lon="5.99784">
        <ele>377</ele>
        <time>2020-05-24T17:27:04.000Z</time>
      </trkpt>
      <trkpt lat="46.97263" lon="5.99781">
        <ele>377</ele>
        <time>2020-05-24T17:27:06.000Z</time>
      </trkpt>
      <trkpt lat="46.97263" lon="5.99776">
        <ele>376</ele>
        <time>2020-05-24T17:27:08.000Z</time>
      </trkpt>
      <trkpt lat="46.97264" lon="5.99773">
        <ele>375.94382361824</ele>
        <time>2020-05-24T17:27:10.000Z</time>
      </trkpt>
      <trkpt lat="46.97265" lon="5.9977">
        <ele>375</ele>
        <time>2020-05-24T17:27:12.000Z</time>
      </trkpt>
      <trkpt lat="46.97265" lon="5.99766">
        <ele>374.87878787879</ele>
        <time>2020-05-24T17:27:14.000Z</time>
      </trkpt>
      <trkpt lat="46.97265" lon="5.99762">
        <ele>374</ele>
        <time>2020-05-24T17:27:16.000Z</time>
      </trkpt>
      <trkpt lat="46.97266" lon="5.99758">
        <ele>374</ele>
        <time>2020-05-24T17:27:18.000Z</time>
      </trkpt>
      <trkpt lat="46.97266" lon="5.99755">
        <ele>374</ele>
        <time>2020-05-24T17:27:20.000Z</time>
      </trkpt>
      <trkpt lat="46.97267" lon="5.99751">
        <ele>374</ele>
        <time>2020-05-24T17:27:22.000Z</time>
      </trkpt>
      <trkpt lat="46.97267" lon="5.99747">
        <ele>374</ele>
        <time>2020-05-24T17:27:24.000Z</time>
      </trkpt>
      <trkpt lat="46.97268" lon="5.99743">
        <ele>374</ele>
        <time>2020-05-24T17:27:26.000Z</time>
      </trkpt>
      <trkpt lat="46.97269" lon="5.9974">
        <ele>374</ele>
        <time>2020-05-24T17:27:28.000Z</time>
      </trkpt>
      <trkpt lat="46.9727" lon="5.99737">
        <ele>374</ele>
        <time>2020-05-24T17:27:30.000Z</time>
      </trkpt>
      <trkpt lat="46.97271" lon="5.99734">
        <ele>374</ele>
        <time>2020-05-24T17:27:32.000Z</time>
      </trkpt>
      <trkpt lat="46.97272" lon="5.99731">
        <ele>374</ele>
        <time>2020-05-24T17:27:34.000Z</time>
      </trkpt>
      <trkpt lat="46.97274" lon="5.99728">
        <ele>374</ele>
        <time>2020-05-24T17:27:36.000Z</time>
      </trkpt>
      <trkpt lat="46.97275" lon="5.99725">
        <ele>374</ele>
        <time>2020-05-24T17:27:39.000Z</time>
      </trkpt>
      <trkpt lat="46.97276" lon="5.99723">
        <ele>374</ele>
        <time>2020-05-24T17:27:41.000Z</time>
      </trkpt>
      <trkpt lat="46.97279" lon="5.99721">
        <ele>374</ele>
        <time>2020-05-24T17:27:44.000Z</time>
      </trkpt>
      <trkpt lat="46.97281" lon="5.9972">
        <ele>374</ele>
        <time>2020-05-24T17:27:46.000Z</time>
      </trkpt>
      <trkpt lat="46.97283" lon="5.99718">
        <ele>374</ele>
        <time>2020-05-24T17:27:48.000Z</time>
      </trkpt>
      <trkpt lat="46.97284" lon="5.99716">
        <ele>374</ele>
        <time>2020-05-24T17:27:50.000Z</time>
      </trkpt>
      <trkpt lat="46.97286" lon="5.99715">
        <ele>374</ele>
        <time>2020-05-24T17:27:52.000Z</time>
      </trkpt>
      <trkpt lat="46.97287" lon="5.99713">
        <ele>374</ele>
        <time>2020-05-24T17:27:54.000Z</time>
      </trkpt>
      <trkpt lat="46.97289" lon="5.9971">
        <ele>374</ele>
        <time>2020-05-24T17:27:56.000Z</time>
      </trkpt>
      <trkpt lat="46.97288" lon="5.99706">
        <ele>374</ele>
        <time>2020-05-24T17:27:58.000Z</time>
      </trkpt>
      <trkpt lat="46.97286" lon="5.99703">
        <ele>374</ele>
        <time>2020-05-24T17:28:00.000Z</time>
      </trkpt>
      <trkpt lat="46.97284" lon="5.99702">
        <ele>374</ele>
        <time>2020-05-24T17:28:02.000Z</time>
      </trkpt>
      <trkpt lat="46.97282" lon="5.997">
        <ele>374</ele>
        <time>2020-05-24T17:28:05.000Z</time>
      </trkpt>
      <trkpt lat="46.97279" lon="5.99699">
        <ele>374</ele>
        <time>2020-05-24T17:28:07.000Z</time>
      </trkpt>
      <trkpt lat="46.97276" lon="5.99698">
        <ele>374</ele>
        <time>2020-05-24T17:28:09.000Z</time>
      </trkpt>
      <trkpt lat="46.97274" lon="5.99697">
        <ele>369.6</ele>
        <time>2020-05-24T17:28:11.000Z</time>
      </trkpt>
    </trkseg>
  </trk>
</gpx>